<?xml version="1.0" encoding="UTF-8" standalone="no" ?>
<gpx xmlns="http://www.topografix.com/GPX/1/1" xmlns:xsi="http://www.w3.org/2001/XMLSchema-instance" xsi:schemaLocation="http://www.topografix.com/GPX/1/1 http://www.topografix.com/GPX/1/1/gpx.xsd" version="1.1" creator="VisuGPX - https://www.visugpx.com">
  <metadata>
    <name>Au fil de l'eau entre la Vaige et l'Erve</name>
    <desc><![CDATA[- Trace peu technique, vers le KM 11 (camping de Saulges),KM 13 (pas japonais),KM 14 (descente vers les grottes) passages délicats (obliger de déchausser). 
- KM16, le chemin peut être très très humide en temps de pluie, possibilité de passer par le bourg de Saint-Pierre-sur-Erve.
- Le reste de la trace est roulante ++]]></desc>
  </metadata>
  <trk>
    <name><![CDATA[Après une petite pause (genoux)]]></name>
    <trkseg>
      <trkpt lat="48.00183" lon="-0.4872">
        <ele>87.6</ele>
        <time>2023-10-07T10:00:00Z</time>
      </trkpt>
      <trkpt lat="48.00183" lon="-0.4872">
        <ele>87.6</ele>
        <time>2023-10-07T10:00:01Z</time>
      </trkpt>
      <trkpt lat="48.00183" lon="-0.4872">
        <ele>87.6</ele>
        <time>2023-10-07T10:00:02Z</time>
      </trkpt>
      <trkpt lat="48.00185" lon="-0.48729">
        <ele>87.8</ele>
        <time>2023-10-07T10:00:09Z</time>
      </trkpt>
      <trkpt lat="48.00185" lon="-0.48732">
        <ele>87.8</ele>
        <time>2023-10-07T10:00:10Z</time>
      </trkpt>
      <trkpt lat="48.00184" lon="-0.48734">
        <ele>88.2</ele>
        <time>2023-10-07T10:00:11Z</time>
      </trkpt>
      <trkpt lat="48.00183" lon="-0.48737">
        <ele>88</ele>
        <time>2023-10-07T10:00:12Z</time>
      </trkpt>
      <trkpt lat="48.00183" lon="-0.4874">
        <ele>88</ele>
        <time>2023-10-07T10:00:13Z</time>
      </trkpt>
      <trkpt lat="48.00182" lon="-0.48744">
        <ele>88</ele>
        <time>2023-10-07T10:00:14Z</time>
      </trkpt>
      <trkpt lat="48.00181" lon="-0.48746">
        <ele>88.4</ele>
        <time>2023-10-07T10:00:15Z</time>
      </trkpt>
      <trkpt lat="48.00179" lon="-0.48748">
        <ele>89</ele>
        <time>2023-10-07T10:00:16Z</time>
      </trkpt>
      <trkpt lat="48.00178" lon="-0.4875">
        <ele>89</ele>
        <time>2023-10-07T10:00:17Z</time>
      </trkpt>
      <trkpt lat="48.00175" lon="-0.48752">
        <ele>89</ele>
        <time>2023-10-07T10:00:18Z</time>
      </trkpt>
      <trkpt lat="48.00173" lon="-0.48753">
        <ele>89</ele>
        <time>2023-10-07T10:00:19Z</time>
      </trkpt>
      <trkpt lat="48.00169" lon="-0.48753">
        <ele>89.2</ele>
        <time>2023-10-07T10:00:20Z</time>
      </trkpt>
      <trkpt lat="48.00166" lon="-0.48753">
        <ele>89.2</ele>
        <time>2023-10-07T10:00:21Z</time>
      </trkpt>
      <trkpt lat="48.00161" lon="-0.48752">
        <ele>89.2</ele>
        <time>2023-10-07T10:00:22Z</time>
      </trkpt>
      <trkpt lat="48.00157" lon="-0.48752">
        <ele>89.4</ele>
        <time>2023-10-07T10:00:23Z</time>
      </trkpt>
      <trkpt lat="48.00154" lon="-0.48752">
        <ele>89</ele>
        <time>2023-10-07T10:00:24Z</time>
      </trkpt>
      <trkpt lat="48.00149" lon="-0.48752">
        <ele>89</ele>
        <time>2023-10-07T10:00:25Z</time>
      </trkpt>
      <trkpt lat="48.00146" lon="-0.48753">
        <ele>89</ele>
        <time>2023-10-07T10:00:26Z</time>
      </trkpt>
      <trkpt lat="48.00143" lon="-0.48753">
        <ele>90</ele>
        <time>2023-10-07T10:00:27Z</time>
      </trkpt>
      <trkpt lat="48.0014" lon="-0.48754">
        <ele>89.6</ele>
        <time>2023-10-07T10:00:28Z</time>
      </trkpt>
      <trkpt lat="48.00137" lon="-0.48754">
        <ele>89.6</ele>
        <time>2023-10-07T10:00:29Z</time>
      </trkpt>
      <trkpt lat="48.00135" lon="-0.48752">
        <ele>89.6</ele>
        <time>2023-10-07T10:00:30Z</time>
      </trkpt>
      <trkpt lat="48.00132" lon="-0.48749">
        <ele>89</ele>
        <time>2023-10-07T10:00:31Z</time>
      </trkpt>
      <trkpt lat="48.00129" lon="-0.48746">
        <ele>88.6</ele>
        <time>2023-10-07T10:00:32Z</time>
      </trkpt>
      <trkpt lat="48.00126" lon="-0.48743">
        <ele>88.6</ele>
        <time>2023-10-07T10:00:33Z</time>
      </trkpt>
      <trkpt lat="48.00122" lon="-0.48739">
        <ele>88.6</ele>
        <time>2023-10-07T10:00:34Z</time>
      </trkpt>
      <trkpt lat="48.00119" lon="-0.48735">
        <ele>87.6</ele>
        <time>2023-10-07T10:00:35Z</time>
      </trkpt>
      <trkpt lat="48.00115" lon="-0.48731">
        <ele>87.4</ele>
        <time>2023-10-07T10:00:36Z</time>
      </trkpt>
      <trkpt lat="48.00111" lon="-0.48728">
        <ele>87.4</ele>
        <time>2023-10-07T10:00:37Z</time>
      </trkpt>
      <trkpt lat="48.00107" lon="-0.48723">
        <ele>87.4</ele>
        <time>2023-10-07T10:00:38Z</time>
      </trkpt>
      <trkpt lat="48.00102" lon="-0.48719">
        <ele>87.4</ele>
        <time>2023-10-07T10:00:39Z</time>
      </trkpt>
      <trkpt lat="48.00098" lon="-0.48715">
        <ele>85.6</ele>
        <time>2023-10-07T10:00:40Z</time>
      </trkpt>
      <trkpt lat="48.00093" lon="-0.4871">
        <ele>85.6</ele>
        <time>2023-10-07T10:00:41Z</time>
      </trkpt>
      <trkpt lat="48.00087" lon="-0.48705">
        <ele>85.6</ele>
        <time>2023-10-07T10:00:42Z</time>
      </trkpt>
      <trkpt lat="48.00082" lon="-0.487">
        <ele>85.6</ele>
        <time>2023-10-07T10:00:43Z</time>
      </trkpt>
      <trkpt lat="48.00076" lon="-0.48695">
        <ele>84</ele>
        <time>2023-10-07T10:00:44Z</time>
      </trkpt>
      <trkpt lat="48.0007" lon="-0.4869">
        <ele>84</ele>
        <time>2023-10-07T10:00:45Z</time>
      </trkpt>
      <trkpt lat="48.00064" lon="-0.48684">
        <ele>84</ele>
        <time>2023-10-07T10:00:46Z</time>
      </trkpt>
      <trkpt lat="48.00058" lon="-0.48678">
        <ele>83</ele>
        <time>2023-10-07T10:00:47Z</time>
      </trkpt>
      <trkpt lat="48.00051" lon="-0.48673">
        <ele>82</ele>
        <time>2023-10-07T10:00:48Z</time>
      </trkpt>
      <trkpt lat="48.00045" lon="-0.48667">
        <ele>82</ele>
        <time>2023-10-07T10:00:49Z</time>
      </trkpt>
      <trkpt lat="48.00038" lon="-0.48661">
        <ele>82</ele>
        <time>2023-10-07T10:00:50Z</time>
      </trkpt>
      <trkpt lat="48.00032" lon="-0.48655">
        <ele>81</ele>
        <time>2023-10-07T10:00:51Z</time>
      </trkpt>
      <trkpt lat="48.00025" lon="-0.48649">
        <ele>80.2</ele>
        <time>2023-10-07T10:00:52Z</time>
      </trkpt>
      <trkpt lat="48.00019" lon="-0.48642">
        <ele>80.2</ele>
        <time>2023-10-07T10:00:53Z</time>
      </trkpt>
      <trkpt lat="48.00012" lon="-0.48636">
        <ele>80.2</ele>
        <time>2023-10-07T10:00:54Z</time>
      </trkpt>
      <trkpt lat="48.00005" lon="-0.48629">
        <ele>80.2</ele>
        <time>2023-10-07T10:00:55Z</time>
      </trkpt>
      <trkpt lat="47.99999" lon="-0.48622">
        <ele>79.2</ele>
        <time>2023-10-07T10:00:56Z</time>
      </trkpt>
      <trkpt lat="47.99993" lon="-0.48613">
        <ele>79.2</ele>
        <time>2023-10-07T10:00:57Z</time>
      </trkpt>
      <trkpt lat="47.99988" lon="-0.48603">
        <ele>79.2</ele>
        <time>2023-10-07T10:00:58Z</time>
      </trkpt>
      <trkpt lat="47.99984" lon="-0.48593">
        <ele>79.6</ele>
        <time>2023-10-07T10:00:59Z</time>
      </trkpt>
      <trkpt lat="47.99982" lon="-0.48582">
        <ele>79.8</ele>
        <time>2023-10-07T10:01:00Z</time>
      </trkpt>
      <trkpt lat="47.99981" lon="-0.48571">
        <ele>79.8</ele>
        <time>2023-10-07T10:01:01Z</time>
      </trkpt>
      <trkpt lat="47.99981" lon="-0.4856">
        <ele>79.8</ele>
        <time>2023-10-07T10:01:02Z</time>
      </trkpt>
      <trkpt lat="47.99983" lon="-0.4855">
        <ele>80.4</ele>
        <time>2023-10-07T10:01:03Z</time>
      </trkpt>
      <trkpt lat="47.99984" lon="-0.4854">
        <ele>80.6</ele>
        <time>2023-10-07T10:01:04Z</time>
      </trkpt>
      <trkpt lat="47.99986" lon="-0.48529">
        <ele>80.6</ele>
        <time>2023-10-07T10:01:05Z</time>
      </trkpt>
      <trkpt lat="47.99988" lon="-0.48519">
        <ele>80.6</ele>
        <time>2023-10-07T10:01:06Z</time>
      </trkpt>
      <trkpt lat="47.9999" lon="-0.48509">
        <ele>80.6</ele>
        <time>2023-10-07T10:01:07Z</time>
      </trkpt>
      <trkpt lat="47.99992" lon="-0.48499">
        <ele>81</ele>
        <time>2023-10-07T10:01:08Z</time>
      </trkpt>
      <trkpt lat="47.99994" lon="-0.48489">
        <ele>81</ele>
        <time>2023-10-07T10:01:09Z</time>
      </trkpt>
      <trkpt lat="47.99996" lon="-0.48479">
        <ele>81</ele>
        <time>2023-10-07T10:01:10Z</time>
      </trkpt>
      <trkpt lat="47.99997" lon="-0.4847">
        <ele>81</ele>
        <time>2023-10-07T10:01:11Z</time>
      </trkpt>
      <trkpt lat="47.99998" lon="-0.4846">
        <ele>81.6</ele>
        <time>2023-10-07T10:01:12Z</time>
      </trkpt>
      <trkpt lat="47.99999" lon="-0.48451">
        <ele>81.6</ele>
        <time>2023-10-07T10:01:13Z</time>
      </trkpt>
      <trkpt lat="47.99999" lon="-0.48442">
        <ele>81.6</ele>
        <time>2023-10-07T10:01:14Z</time>
      </trkpt>
      <trkpt lat="47.99998" lon="-0.48433">
        <ele>81.6</ele>
        <time>2023-10-07T10:01:15Z</time>
      </trkpt>
      <trkpt lat="47.99997" lon="-0.48425">
        <ele>83</ele>
        <time>2023-10-07T10:01:16Z</time>
      </trkpt>
      <trkpt lat="47.99996" lon="-0.48417">
        <ele>83</ele>
        <time>2023-10-07T10:01:17Z</time>
      </trkpt>
      <trkpt lat="47.99996" lon="-0.48409">
        <ele>83</ele>
        <time>2023-10-07T10:01:18Z</time>
      </trkpt>
      <trkpt lat="47.99998" lon="-0.48403">
        <ele>83</ele>
        <time>2023-10-07T10:01:19Z</time>
      </trkpt>
      <trkpt lat="48.00002" lon="-0.48397">
        <ele>84.6</ele>
        <time>2023-10-07T10:01:20Z</time>
      </trkpt>
      <trkpt lat="48.00005" lon="-0.48392">
        <ele>84.6</ele>
        <time>2023-10-07T10:01:21Z</time>
      </trkpt>
      <trkpt lat="48.00009" lon="-0.48387">
        <ele>84.6</ele>
        <time>2023-10-07T10:01:22Z</time>
      </trkpt>
      <trkpt lat="48.00012" lon="-0.48383">
        <ele>85.6</ele>
        <time>2023-10-07T10:01:23Z</time>
      </trkpt>
      <trkpt lat="48.00015" lon="-0.48379">
        <ele>87.6</ele>
        <time>2023-10-07T10:01:24Z</time>
      </trkpt>
      <trkpt lat="48.00017" lon="-0.48375">
        <ele>87.6</ele>
        <time>2023-10-07T10:01:25Z</time>
      </trkpt>
      <trkpt lat="48.0002" lon="-0.48371">
        <ele>87.6</ele>
        <time>2023-10-07T10:01:26Z</time>
      </trkpt>
      <trkpt lat="48.00023" lon="-0.48367">
        <ele>87.6</ele>
        <time>2023-10-07T10:01:27Z</time>
      </trkpt>
      <trkpt lat="48.00026" lon="-0.48364">
        <ele>88.6</ele>
        <time>2023-10-07T10:01:28Z</time>
      </trkpt>
      <trkpt lat="48.00029" lon="-0.4836">
        <ele>88.6</ele>
        <time>2023-10-07T10:01:29Z</time>
      </trkpt>
      <trkpt lat="48.00031" lon="-0.48356">
        <ele>88.6</ele>
        <time>2023-10-07T10:01:30Z</time>
      </trkpt>
      <trkpt lat="48.00034" lon="-0.48352">
        <ele>89.6</ele>
        <time>2023-10-07T10:01:31Z</time>
      </trkpt>
      <trkpt lat="48.00037" lon="-0.48348">
        <ele>90.8</ele>
        <time>2023-10-07T10:01:32Z</time>
      </trkpt>
      <trkpt lat="48.0004" lon="-0.48344">
        <ele>90.8</ele>
        <time>2023-10-07T10:01:33Z</time>
      </trkpt>
      <trkpt lat="48.00043" lon="-0.4834">
        <ele>90.8</ele>
        <time>2023-10-07T10:01:34Z</time>
      </trkpt>
      <trkpt lat="48.00046" lon="-0.48337">
        <ele>90.8</ele>
        <time>2023-10-07T10:01:35Z</time>
      </trkpt>
      <trkpt lat="48.00048" lon="-0.48333">
        <ele>92</ele>
        <time>2023-10-07T10:01:36Z</time>
      </trkpt>
      <trkpt lat="48.00051" lon="-0.48329">
        <ele>92</ele>
        <time>2023-10-07T10:01:37Z</time>
      </trkpt>
      <trkpt lat="48.00054" lon="-0.48325">
        <ele>92</ele>
        <time>2023-10-07T10:01:38Z</time>
      </trkpt>
      <trkpt lat="48.00057" lon="-0.48321">
        <ele>93</ele>
        <time>2023-10-07T10:01:39Z</time>
      </trkpt>
      <trkpt lat="48.0006" lon="-0.48317">
        <ele>93</ele>
        <time>2023-10-07T10:01:40Z</time>
      </trkpt>
      <trkpt lat="48.00063" lon="-0.48314">
        <ele>93</ele>
        <time>2023-10-07T10:01:41Z</time>
      </trkpt>
      <trkpt lat="48.00066" lon="-0.48311">
        <ele>93</ele>
        <time>2023-10-07T10:01:42Z</time>
      </trkpt>
      <trkpt lat="48.0007" lon="-0.48307">
        <ele>94</ele>
        <time>2023-10-07T10:01:43Z</time>
      </trkpt>
      <trkpt lat="48.00073" lon="-0.48304">
        <ele>94.6</ele>
        <time>2023-10-07T10:01:44Z</time>
      </trkpt>
      <trkpt lat="48.00077" lon="-0.483">
        <ele>94.6</ele>
        <time>2023-10-07T10:01:45Z</time>
      </trkpt>
      <trkpt lat="48.0008" lon="-0.48296">
        <ele>94.6</ele>
        <time>2023-10-07T10:01:46Z</time>
      </trkpt>
      <trkpt lat="48.00083" lon="-0.48292">
        <ele>94.6</ele>
        <time>2023-10-07T10:01:47Z</time>
      </trkpt>
      <trkpt lat="48.00086" lon="-0.48289">
        <ele>95.2</ele>
        <time>2023-10-07T10:01:48Z</time>
      </trkpt>
      <trkpt lat="48.0009" lon="-0.48285">
        <ele>95.2</ele>
        <time>2023-10-07T10:01:49Z</time>
      </trkpt>
      <trkpt lat="48.00093" lon="-0.4828">
        <ele>95.2</ele>
        <time>2023-10-07T10:01:50Z</time>
      </trkpt>
      <trkpt lat="48.00096" lon="-0.48276">
        <ele>95.2</ele>
        <time>2023-10-07T10:01:51Z</time>
      </trkpt>
      <trkpt lat="48.001" lon="-0.48271">
        <ele>95.2</ele>
        <time>2023-10-07T10:01:52Z</time>
      </trkpt>
      <trkpt lat="48.00103" lon="-0.48266">
        <ele>95.2</ele>
        <time>2023-10-07T10:01:53Z</time>
      </trkpt>
      <trkpt lat="48.00107" lon="-0.48261">
        <ele>95.2</ele>
        <time>2023-10-07T10:01:54Z</time>
      </trkpt>
      <trkpt lat="48.0011" lon="-0.48256">
        <ele>96.2</ele>
        <time>2023-10-07T10:01:55Z</time>
      </trkpt>
      <trkpt lat="48.00114" lon="-0.48252">
        <ele>95.8</ele>
        <time>2023-10-07T10:01:56Z</time>
      </trkpt>
      <trkpt lat="48.00117" lon="-0.48247">
        <ele>95.8</ele>
        <time>2023-10-07T10:01:57Z</time>
      </trkpt>
      <trkpt lat="48.0012" lon="-0.48242">
        <ele>95.8</ele>
        <time>2023-10-07T10:01:58Z</time>
      </trkpt>
      <trkpt lat="48.00124" lon="-0.48238">
        <ele>96.8</ele>
        <time>2023-10-07T10:01:59Z</time>
      </trkpt>
      <trkpt lat="48.00127" lon="-0.48233">
        <ele>97</ele>
        <time>2023-10-07T10:02:00Z</time>
      </trkpt>
      <trkpt lat="48.00131" lon="-0.48229">
        <ele>97</ele>
        <time>2023-10-07T10:02:01Z</time>
      </trkpt>
      <trkpt lat="48.00134" lon="-0.48224">
        <ele>97</ele>
        <time>2023-10-07T10:02:02Z</time>
      </trkpt>
      <trkpt lat="48.00138" lon="-0.48219">
        <ele>96.6</ele>
        <time>2023-10-07T10:02:03Z</time>
      </trkpt>
      <trkpt lat="48.00142" lon="-0.48215">
        <ele>96.2</ele>
        <time>2023-10-07T10:02:04Z</time>
      </trkpt>
      <trkpt lat="48.00146" lon="-0.48211">
        <ele>96.2</ele>
        <time>2023-10-07T10:02:05Z</time>
      </trkpt>
      <trkpt lat="48.0015" lon="-0.48207">
        <ele>96.2</ele>
        <time>2023-10-07T10:02:06Z</time>
      </trkpt>
      <trkpt lat="48.00154" lon="-0.48202">
        <ele>97.2</ele>
        <time>2023-10-07T10:02:07Z</time>
      </trkpt>
      <trkpt lat="48.00158" lon="-0.48198">
        <ele>97.4</ele>
        <time>2023-10-07T10:02:08Z</time>
      </trkpt>
      <trkpt lat="48.00162" lon="-0.48194">
        <ele>97.4</ele>
        <time>2023-10-07T10:02:09Z</time>
      </trkpt>
      <trkpt lat="48.00166" lon="-0.4819">
        <ele>97.4</ele>
        <time>2023-10-07T10:02:10Z</time>
      </trkpt>
      <trkpt lat="48.0017" lon="-0.48186">
        <ele>97.4</ele>
        <time>2023-10-07T10:02:11Z</time>
      </trkpt>
      <trkpt lat="48.00174" lon="-0.48181">
        <ele>97.2</ele>
        <time>2023-10-07T10:02:12Z</time>
      </trkpt>
      <trkpt lat="48.00178" lon="-0.48177">
        <ele>97.2</ele>
        <time>2023-10-07T10:02:13Z</time>
      </trkpt>
      <trkpt lat="48.00181" lon="-0.48173">
        <ele>97.2</ele>
        <time>2023-10-07T10:02:14Z</time>
      </trkpt>
      <trkpt lat="48.00185" lon="-0.48168">
        <ele>97.2</ele>
        <time>2023-10-07T10:02:15Z</time>
      </trkpt>
      <trkpt lat="48.00189" lon="-0.48164">
        <ele>97</ele>
        <time>2023-10-07T10:02:16Z</time>
      </trkpt>
      <trkpt lat="48.00193" lon="-0.48159">
        <ele>97</ele>
        <time>2023-10-07T10:02:17Z</time>
      </trkpt>
      <trkpt lat="48.00196" lon="-0.48153">
        <ele>97</ele>
        <time>2023-10-07T10:02:18Z</time>
      </trkpt>
      <trkpt lat="48.002" lon="-0.48148">
        <ele>97</ele>
        <time>2023-10-07T10:02:19Z</time>
      </trkpt>
      <trkpt lat="48.00204" lon="-0.48143">
        <ele>96.8</ele>
        <time>2023-10-07T10:02:20Z</time>
      </trkpt>
      <trkpt lat="48.00208" lon="-0.48138">
        <ele>96.8</ele>
        <time>2023-10-07T10:02:21Z</time>
      </trkpt>
      <trkpt lat="48.00212" lon="-0.48133">
        <ele>96.8</ele>
        <time>2023-10-07T10:02:22Z</time>
      </trkpt>
      <trkpt lat="48.00216" lon="-0.48127">
        <ele>96.2</ele>
        <time>2023-10-07T10:02:23Z</time>
      </trkpt>
      <trkpt lat="48.0022" lon="-0.48121">
        <ele>95.2</ele>
        <time>2023-10-07T10:02:24Z</time>
      </trkpt>
      <trkpt lat="48.00225" lon="-0.48115">
        <ele>95.2</ele>
        <time>2023-10-07T10:02:25Z</time>
      </trkpt>
      <trkpt lat="48.00229" lon="-0.48109">
        <ele>95.2</ele>
        <time>2023-10-07T10:02:26Z</time>
      </trkpt>
      <trkpt lat="48.00233" lon="-0.48101">
        <ele>95.2</ele>
        <time>2023-10-07T10:02:27Z</time>
      </trkpt>
      <trkpt lat="48.00237" lon="-0.48094">
        <ele>94.2</ele>
        <time>2023-10-07T10:02:28Z</time>
      </trkpt>
      <trkpt lat="48.0024" lon="-0.48086">
        <ele>94.2</ele>
        <time>2023-10-07T10:02:29Z</time>
      </trkpt>
      <trkpt lat="48.00244" lon="-0.48078">
        <ele>94.2</ele>
        <time>2023-10-07T10:02:30Z</time>
      </trkpt>
      <trkpt lat="48.00248" lon="-0.4807">
        <ele>94.2</ele>
        <time>2023-10-07T10:02:31Z</time>
      </trkpt>
      <trkpt lat="48.00254" lon="-0.48064">
        <ele>91.8</ele>
        <time>2023-10-07T10:02:32Z</time>
      </trkpt>
      <trkpt lat="48.00261" lon="-0.4806">
        <ele>91.8</ele>
        <time>2023-10-07T10:02:33Z</time>
      </trkpt>
      <trkpt lat="48.00269" lon="-0.48059">
        <ele>91.8</ele>
        <time>2023-10-07T10:02:34Z</time>
      </trkpt>
      <trkpt lat="48.00277" lon="-0.48061">
        <ele>90.8</ele>
        <time>2023-10-07T10:02:35Z</time>
      </trkpt>
      <trkpt lat="48.00286" lon="-0.48065">
        <ele>89.2</ele>
        <time>2023-10-07T10:02:36Z</time>
      </trkpt>
      <trkpt lat="48.00294" lon="-0.4807">
        <ele>89.2</ele>
        <time>2023-10-07T10:02:37Z</time>
      </trkpt>
      <trkpt lat="48.00307" lon="-0.48084">
        <ele>89.2</ele>
        <time>2023-10-07T10:02:39Z</time>
      </trkpt>
      <trkpt lat="48.00311" lon="-0.48092">
        <ele>90.4</ele>
        <time>2023-10-07T10:02:40Z</time>
      </trkpt>
      <trkpt lat="48.00316" lon="-0.481">
        <ele>90.4</ele>
        <time>2023-10-07T10:02:41Z</time>
      </trkpt>
      <trkpt lat="48.0032" lon="-0.48108">
        <ele>90.4</ele>
        <time>2023-10-07T10:02:42Z</time>
      </trkpt>
      <trkpt lat="48.00324" lon="-0.48115">
        <ele>91.4</ele>
        <time>2023-10-07T10:02:43Z</time>
      </trkpt>
      <trkpt lat="48.00328" lon="-0.48121">
        <ele>94.6</ele>
        <time>2023-10-07T10:02:44Z</time>
      </trkpt>
      <trkpt lat="48.00332" lon="-0.48126">
        <ele>94.6</ele>
        <time>2023-10-07T10:02:45Z</time>
      </trkpt>
      <trkpt lat="48.00336" lon="-0.48131">
        <ele>94.6</ele>
        <time>2023-10-07T10:02:46Z</time>
      </trkpt>
      <trkpt lat="48.0034" lon="-0.48135">
        <ele>95.6</ele>
        <time>2023-10-07T10:02:47Z</time>
      </trkpt>
      <trkpt lat="48.00358" lon="-0.48143">
        <ele>96</ele>
        <time>2023-10-07T10:02:51Z</time>
      </trkpt>
      <trkpt lat="48.00363" lon="-0.48143">
        <ele>96.6</ele>
        <time>2023-10-07T10:02:52Z</time>
      </trkpt>
      <trkpt lat="48.00367" lon="-0.48143">
        <ele>96.6</ele>
        <time>2023-10-07T10:02:53Z</time>
      </trkpt>
      <trkpt lat="48.00424" lon="-0.48143">
        <ele>98.4</ele>
        <time>2023-10-07T10:03:08Z</time>
      </trkpt>
      <trkpt lat="48.00428" lon="-0.48143">
        <ele>98.4</ele>
        <time>2023-10-07T10:03:09Z</time>
      </trkpt>
      <trkpt lat="48.00431" lon="-0.48143">
        <ele>98.4</ele>
        <time>2023-10-07T10:03:10Z</time>
      </trkpt>
      <trkpt lat="48.00434" lon="-0.48144">
        <ele>99.2</ele>
        <time>2023-10-07T10:03:11Z</time>
      </trkpt>
      <trkpt lat="48.00437" lon="-0.48144">
        <ele>99.2</ele>
        <time>2023-10-07T10:03:12Z</time>
      </trkpt>
      <trkpt lat="48.0044" lon="-0.48144">
        <ele>99.2</ele>
        <time>2023-10-07T10:03:13Z</time>
      </trkpt>
      <trkpt lat="48.00443" lon="-0.48144">
        <ele>99.2</ele>
        <time>2023-10-07T10:03:14Z</time>
      </trkpt>
      <trkpt lat="48.00446" lon="-0.48145">
        <ele>99.2</ele>
        <time>2023-10-07T10:03:15Z</time>
      </trkpt>
      <trkpt lat="48.00449" lon="-0.48146">
        <ele>100</ele>
        <time>2023-10-07T10:03:16Z</time>
      </trkpt>
      <trkpt lat="48.00453" lon="-0.48146">
        <ele>100</ele>
        <time>2023-10-07T10:03:17Z</time>
      </trkpt>
      <trkpt lat="48.00456" lon="-0.48146">
        <ele>100</ele>
        <time>2023-10-07T10:03:18Z</time>
      </trkpt>
      <trkpt lat="48.00459" lon="-0.48147">
        <ele>99.4</ele>
        <time>2023-10-07T10:03:19Z</time>
      </trkpt>
      <trkpt lat="48.00463" lon="-0.48148">
        <ele>99.8</ele>
        <time>2023-10-07T10:03:20Z</time>
      </trkpt>
      <trkpt lat="48.00466" lon="-0.48149">
        <ele>99.8</ele>
        <time>2023-10-07T10:03:21Z</time>
      </trkpt>
      <trkpt lat="48.00471" lon="-0.4815">
        <ele>99.8</ele>
        <time>2023-10-07T10:03:22Z</time>
      </trkpt>
      <trkpt lat="48.00475" lon="-0.4815">
        <ele>99.8</ele>
        <time>2023-10-07T10:03:23Z</time>
      </trkpt>
      <trkpt lat="48.00479" lon="-0.4815">
        <ele>100.2</ele>
        <time>2023-10-07T10:03:24Z</time>
      </trkpt>
      <trkpt lat="48.00484" lon="-0.48151">
        <ele>100.2</ele>
        <time>2023-10-07T10:03:25Z</time>
      </trkpt>
      <trkpt lat="48.00488" lon="-0.48152">
        <ele>100.2</ele>
        <time>2023-10-07T10:03:26Z</time>
      </trkpt>
      <trkpt lat="48.00493" lon="-0.48152">
        <ele>100.2</ele>
        <time>2023-10-07T10:03:27Z</time>
      </trkpt>
      <trkpt lat="48.00497" lon="-0.48152">
        <ele>100.6</ele>
        <time>2023-10-07T10:03:28Z</time>
      </trkpt>
      <trkpt lat="48.00502" lon="-0.48151">
        <ele>100.6</ele>
        <time>2023-10-07T10:03:29Z</time>
      </trkpt>
      <trkpt lat="48.00506" lon="-0.4815">
        <ele>100.6</ele>
        <time>2023-10-07T10:03:30Z</time>
      </trkpt>
      <trkpt lat="48.00511" lon="-0.48149">
        <ele>101.6</ele>
        <time>2023-10-07T10:03:31Z</time>
      </trkpt>
      <trkpt lat="48.00516" lon="-0.48148">
        <ele>101.4</ele>
        <time>2023-10-07T10:03:32Z</time>
      </trkpt>
      <trkpt lat="48.00521" lon="-0.48146">
        <ele>101.4</ele>
        <time>2023-10-07T10:03:33Z</time>
      </trkpt>
      <trkpt lat="48.00526" lon="-0.48144">
        <ele>101.4</ele>
        <time>2023-10-07T10:03:34Z</time>
      </trkpt>
      <trkpt lat="48.00531" lon="-0.48142">
        <ele>101.4</ele>
        <time>2023-10-07T10:03:35Z</time>
      </trkpt>
      <trkpt lat="48.00536" lon="-0.4814">
        <ele>101.8</ele>
        <time>2023-10-07T10:03:36Z</time>
      </trkpt>
      <trkpt lat="48.0054" lon="-0.48138">
        <ele>101.8</ele>
        <time>2023-10-07T10:03:37Z</time>
      </trkpt>
      <trkpt lat="48.00545" lon="-0.48135">
        <ele>101.8</ele>
        <time>2023-10-07T10:03:38Z</time>
      </trkpt>
      <trkpt lat="48.0055" lon="-0.48132">
        <ele>101.8</ele>
        <time>2023-10-07T10:03:39Z</time>
      </trkpt>
      <trkpt lat="48.00555" lon="-0.4813">
        <ele>102</ele>
        <time>2023-10-07T10:03:40Z</time>
      </trkpt>
      <trkpt lat="48.0056" lon="-0.48127">
        <ele>102</ele>
        <time>2023-10-07T10:03:41Z</time>
      </trkpt>
      <trkpt lat="48.00565" lon="-0.48124">
        <ele>102</ele>
        <time>2023-10-07T10:03:42Z</time>
      </trkpt>
      <trkpt lat="48.00571" lon="-0.48121">
        <ele>102</ele>
        <time>2023-10-07T10:03:43Z</time>
      </trkpt>
      <trkpt lat="48.00576" lon="-0.48118">
        <ele>101.6</ele>
        <time>2023-10-07T10:03:44Z</time>
      </trkpt>
      <trkpt lat="48.00581" lon="-0.48115">
        <ele>101.6</ele>
        <time>2023-10-07T10:03:45Z</time>
      </trkpt>
      <trkpt lat="48.00586" lon="-0.48111">
        <ele>101.6</ele>
        <time>2023-10-07T10:03:46Z</time>
      </trkpt>
      <trkpt lat="48.00592" lon="-0.48108">
        <ele>102.2</ele>
        <time>2023-10-07T10:03:47Z</time>
      </trkpt>
      <trkpt lat="48.00597" lon="-0.48105">
        <ele>101.8</ele>
        <time>2023-10-07T10:03:48Z</time>
      </trkpt>
      <trkpt lat="48.00602" lon="-0.48101">
        <ele>101.8</ele>
        <time>2023-10-07T10:03:49Z</time>
      </trkpt>
      <trkpt lat="48.00607" lon="-0.48096">
        <ele>101.8</ele>
        <time>2023-10-07T10:03:50Z</time>
      </trkpt>
      <trkpt lat="48.00611" lon="-0.4809">
        <ele>101.8</ele>
        <time>2023-10-07T10:03:51Z</time>
      </trkpt>
      <trkpt lat="48.00615" lon="-0.48084">
        <ele>101.6</ele>
        <time>2023-10-07T10:03:52Z</time>
      </trkpt>
      <trkpt lat="48.00619" lon="-0.48077">
        <ele>101.6</ele>
        <time>2023-10-07T10:03:53Z</time>
      </trkpt>
      <trkpt lat="48.00622" lon="-0.48071">
        <ele>101.6</ele>
        <time>2023-10-07T10:03:54Z</time>
      </trkpt>
      <trkpt lat="48.00625" lon="-0.48064">
        <ele>102.6</ele>
        <time>2023-10-07T10:03:55Z</time>
      </trkpt>
      <trkpt lat="48.00628" lon="-0.48058">
        <ele>103</ele>
        <time>2023-10-07T10:03:56Z</time>
      </trkpt>
      <trkpt lat="48.0063" lon="-0.48051">
        <ele>103</ele>
        <time>2023-10-07T10:03:57Z</time>
      </trkpt>
      <trkpt lat="48.00633" lon="-0.48044">
        <ele>103</ele>
        <time>2023-10-07T10:03:58Z</time>
      </trkpt>
      <trkpt lat="48.00635" lon="-0.48037">
        <ele>103</ele>
        <time>2023-10-07T10:03:59Z</time>
      </trkpt>
      <trkpt lat="48.00638" lon="-0.4803">
        <ele>103.2</ele>
        <time>2023-10-07T10:04:00Z</time>
      </trkpt>
      <trkpt lat="48.00641" lon="-0.48024">
        <ele>103.2</ele>
        <time>2023-10-07T10:04:01Z</time>
      </trkpt>
      <trkpt lat="48.00644" lon="-0.48018">
        <ele>103.2</ele>
        <time>2023-10-07T10:04:02Z</time>
      </trkpt>
      <trkpt lat="48.00647" lon="-0.48011">
        <ele>104.2</ele>
        <time>2023-10-07T10:04:03Z</time>
      </trkpt>
      <trkpt lat="48.0065" lon="-0.48005">
        <ele>104</ele>
        <time>2023-10-07T10:04:04Z</time>
      </trkpt>
      <trkpt lat="48.00653" lon="-0.47998">
        <ele>104</ele>
        <time>2023-10-07T10:04:05Z</time>
      </trkpt>
      <trkpt lat="48.00656" lon="-0.47992">
        <ele>104</ele>
        <time>2023-10-07T10:04:06Z</time>
      </trkpt>
      <trkpt lat="48.00659" lon="-0.47985">
        <ele>105</ele>
        <time>2023-10-07T10:04:07Z</time>
      </trkpt>
      <trkpt lat="48.00662" lon="-0.47979">
        <ele>105</ele>
        <time>2023-10-07T10:04:08Z</time>
      </trkpt>
      <trkpt lat="48.00665" lon="-0.47972">
        <ele>105</ele>
        <time>2023-10-07T10:04:09Z</time>
      </trkpt>
      <trkpt lat="48.00668" lon="-0.47965">
        <ele>105</ele>
        <time>2023-10-07T10:04:10Z</time>
      </trkpt>
      <trkpt lat="48.00671" lon="-0.47959">
        <ele>105</ele>
        <time>2023-10-07T10:04:11Z</time>
      </trkpt>
      <trkpt lat="48.00673" lon="-0.47952">
        <ele>105.4</ele>
        <time>2023-10-07T10:04:12Z</time>
      </trkpt>
      <trkpt lat="48.00676" lon="-0.47945">
        <ele>105.4</ele>
        <time>2023-10-07T10:04:13Z</time>
      </trkpt>
      <trkpt lat="48.00679" lon="-0.47939">
        <ele>105.4</ele>
        <time>2023-10-07T10:04:14Z</time>
      </trkpt>
      <trkpt lat="48.00682" lon="-0.47932">
        <ele>105.4</ele>
        <time>2023-10-07T10:04:15Z</time>
      </trkpt>
      <trkpt lat="48.00685" lon="-0.47925">
        <ele>105.6</ele>
        <time>2023-10-07T10:04:16Z</time>
      </trkpt>
      <trkpt lat="48.00688" lon="-0.47919">
        <ele>105.6</ele>
        <time>2023-10-07T10:04:17Z</time>
      </trkpt>
      <trkpt lat="48.0069" lon="-0.47912">
        <ele>105.6</ele>
        <time>2023-10-07T10:04:18Z</time>
      </trkpt>
      <trkpt lat="48.00693" lon="-0.47905">
        <ele>106.4</ele>
        <time>2023-10-07T10:04:19Z</time>
      </trkpt>
      <trkpt lat="48.00696" lon="-0.47898">
        <ele>106</ele>
        <time>2023-10-07T10:04:20Z</time>
      </trkpt>
      <trkpt lat="48.00698" lon="-0.47891">
        <ele>106</ele>
        <time>2023-10-07T10:04:21Z</time>
      </trkpt>
      <trkpt lat="48.007" lon="-0.47884">
        <ele>106</ele>
        <time>2023-10-07T10:04:22Z</time>
      </trkpt>
      <trkpt lat="48.00701" lon="-0.47876">
        <ele>106</ele>
        <time>2023-10-07T10:04:23Z</time>
      </trkpt>
      <trkpt lat="48.00702" lon="-0.47868">
        <ele>105.6</ele>
        <time>2023-10-07T10:04:24Z</time>
      </trkpt>
      <trkpt lat="48.00702" lon="-0.4786">
        <ele>105.6</ele>
        <time>2023-10-07T10:04:25Z</time>
      </trkpt>
      <trkpt lat="48.00702" lon="-0.47852">
        <ele>105.6</ele>
        <time>2023-10-07T10:04:26Z</time>
      </trkpt>
      <trkpt lat="48.00702" lon="-0.47844">
        <ele>105.6</ele>
        <time>2023-10-07T10:04:27Z</time>
      </trkpt>
      <trkpt lat="48.00702" lon="-0.47835">
        <ele>104.2</ele>
        <time>2023-10-07T10:04:28Z</time>
      </trkpt>
      <trkpt lat="48.00701" lon="-0.47827">
        <ele>104.2</ele>
        <time>2023-10-07T10:04:29Z</time>
      </trkpt>
      <trkpt lat="48.00701" lon="-0.47818">
        <ele>104.2</ele>
        <time>2023-10-07T10:04:30Z</time>
      </trkpt>
      <trkpt lat="48.007" lon="-0.47809">
        <ele>105</ele>
        <time>2023-10-07T10:04:31Z</time>
      </trkpt>
      <trkpt lat="48.00699" lon="-0.47801">
        <ele>105.4</ele>
        <time>2023-10-07T10:04:32Z</time>
      </trkpt>
      <trkpt lat="48.00698" lon="-0.47792">
        <ele>105.4</ele>
        <time>2023-10-07T10:04:33Z</time>
      </trkpt>
      <trkpt lat="48.00698" lon="-0.47783">
        <ele>105.4</ele>
        <time>2023-10-07T10:04:34Z</time>
      </trkpt>
      <trkpt lat="48.00696" lon="-0.47773">
        <ele>105.4</ele>
        <time>2023-10-07T10:04:35Z</time>
      </trkpt>
      <trkpt lat="48.00695" lon="-0.47764">
        <ele>104.4</ele>
        <time>2023-10-07T10:04:36Z</time>
      </trkpt>
      <trkpt lat="48.00695" lon="-0.47755">
        <ele>104.4</ele>
        <time>2023-10-07T10:04:37Z</time>
      </trkpt>
      <trkpt lat="48.00694" lon="-0.47746">
        <ele>104.4</ele>
        <time>2023-10-07T10:04:38Z</time>
      </trkpt>
      <trkpt lat="48.00693" lon="-0.47736">
        <ele>104.4</ele>
        <time>2023-10-07T10:04:39Z</time>
      </trkpt>
      <trkpt lat="48.00692" lon="-0.47727">
        <ele>104</ele>
        <time>2023-10-07T10:04:40Z</time>
      </trkpt>
      <trkpt lat="48.00692" lon="-0.47717">
        <ele>104</ele>
        <time>2023-10-07T10:04:41Z</time>
      </trkpt>
      <trkpt lat="48.00691" lon="-0.47708">
        <ele>104</ele>
        <time>2023-10-07T10:04:42Z</time>
      </trkpt>
      <trkpt lat="48.0069" lon="-0.47699">
        <ele>104.4</ele>
        <time>2023-10-07T10:04:43Z</time>
      </trkpt>
      <trkpt lat="48.00689" lon="-0.47689">
        <ele>104.8</ele>
        <time>2023-10-07T10:04:44Z</time>
      </trkpt>
      <trkpt lat="48.00688" lon="-0.4768">
        <ele>104.8</ele>
        <time>2023-10-07T10:04:45Z</time>
      </trkpt>
      <trkpt lat="48.00687" lon="-0.47672">
        <ele>104.8</ele>
        <time>2023-10-07T10:04:46Z</time>
      </trkpt>
      <trkpt lat="48.00687" lon="-0.47663">
        <ele>105.2</ele>
        <time>2023-10-07T10:04:47Z</time>
      </trkpt>
      <trkpt lat="48.00686" lon="-0.47655">
        <ele>105</ele>
        <time>2023-10-07T10:04:48Z</time>
      </trkpt>
      <trkpt lat="48.00685" lon="-0.47646">
        <ele>105</ele>
        <time>2023-10-07T10:04:49Z</time>
      </trkpt>
      <trkpt lat="48.00684" lon="-0.47637">
        <ele>105</ele>
        <time>2023-10-07T10:04:50Z</time>
      </trkpt>
      <trkpt lat="48.00684" lon="-0.47629">
        <ele>105</ele>
        <time>2023-10-07T10:04:51Z</time>
      </trkpt>
      <trkpt lat="48.00683" lon="-0.47621">
        <ele>105</ele>
        <time>2023-10-07T10:04:52Z</time>
      </trkpt>
      <trkpt lat="48.00682" lon="-0.47612">
        <ele>105</ele>
        <time>2023-10-07T10:04:53Z</time>
      </trkpt>
      <trkpt lat="48.00681" lon="-0.47604">
        <ele>105</ele>
        <time>2023-10-07T10:04:54Z</time>
      </trkpt>
      <trkpt lat="48.00681" lon="-0.47596">
        <ele>106</ele>
        <time>2023-10-07T10:04:55Z</time>
      </trkpt>
      <trkpt lat="48.00681" lon="-0.47588">
        <ele>106.8</ele>
        <time>2023-10-07T10:04:56Z</time>
      </trkpt>
      <trkpt lat="48.00681" lon="-0.4758">
        <ele>106.8</ele>
        <time>2023-10-07T10:04:57Z</time>
      </trkpt>
      <trkpt lat="48.00681" lon="-0.47572">
        <ele>106.8</ele>
        <time>2023-10-07T10:04:58Z</time>
      </trkpt>
      <trkpt lat="48.00682" lon="-0.47564">
        <ele>107</ele>
        <time>2023-10-07T10:04:59Z</time>
      </trkpt>
      <trkpt lat="48.00683" lon="-0.47556">
        <ele>107.4</ele>
        <time>2023-10-07T10:05:00Z</time>
      </trkpt>
      <trkpt lat="48.00684" lon="-0.47547">
        <ele>107.4</ele>
        <time>2023-10-07T10:05:01Z</time>
      </trkpt>
      <trkpt lat="48.00685" lon="-0.47539">
        <ele>107.4</ele>
        <time>2023-10-07T10:05:02Z</time>
      </trkpt>
      <trkpt lat="48.00687" lon="-0.47531">
        <ele>108.2</ele>
        <time>2023-10-07T10:05:03Z</time>
      </trkpt>
      <trkpt lat="48.00688" lon="-0.47523">
        <ele>108.8</ele>
        <time>2023-10-07T10:05:04Z</time>
      </trkpt>
      <trkpt lat="48.00689" lon="-0.47516">
        <ele>108.8</ele>
        <time>2023-10-07T10:05:05Z</time>
      </trkpt>
      <trkpt lat="48.0069" lon="-0.47508">
        <ele>108.8</ele>
        <time>2023-10-07T10:05:06Z</time>
      </trkpt>
      <trkpt lat="48.00692" lon="-0.475">
        <ele>108.8</ele>
        <time>2023-10-07T10:05:07Z</time>
      </trkpt>
      <trkpt lat="48.00693" lon="-0.47492">
        <ele>108.8</ele>
        <time>2023-10-07T10:05:08Z</time>
      </trkpt>
      <trkpt lat="48.00694" lon="-0.47484">
        <ele>108.8</ele>
        <time>2023-10-07T10:05:09Z</time>
      </trkpt>
      <trkpt lat="48.00695" lon="-0.47477">
        <ele>108.8</ele>
        <time>2023-10-07T10:05:10Z</time>
      </trkpt>
      <trkpt lat="48.00697" lon="-0.47469">
        <ele>108.8</ele>
        <time>2023-10-07T10:05:11Z</time>
      </trkpt>
      <trkpt lat="48.00699" lon="-0.47462">
        <ele>108.4</ele>
        <time>2023-10-07T10:05:12Z</time>
      </trkpt>
      <trkpt lat="48.00701" lon="-0.47454">
        <ele>108.4</ele>
        <time>2023-10-07T10:05:13Z</time>
      </trkpt>
      <trkpt lat="48.00703" lon="-0.47447">
        <ele>108.4</ele>
        <time>2023-10-07T10:05:14Z</time>
      </trkpt>
      <trkpt lat="48.00706" lon="-0.4744">
        <ele>108.4</ele>
        <time>2023-10-07T10:05:15Z</time>
      </trkpt>
      <trkpt lat="48.0071" lon="-0.47433">
        <ele>107.8</ele>
        <time>2023-10-07T10:05:16Z</time>
      </trkpt>
      <trkpt lat="48.00714" lon="-0.47426">
        <ele>107.8</ele>
        <time>2023-10-07T10:05:17Z</time>
      </trkpt>
      <trkpt lat="48.00718" lon="-0.4742">
        <ele>107.8</ele>
        <time>2023-10-07T10:05:18Z</time>
      </trkpt>
      <trkpt lat="48.00722" lon="-0.47414">
        <ele>107.8</ele>
        <time>2023-10-07T10:05:19Z</time>
      </trkpt>
      <trkpt lat="48.00726" lon="-0.47407">
        <ele>107.2</ele>
        <time>2023-10-07T10:05:20Z</time>
      </trkpt>
      <trkpt lat="48.0073" lon="-0.47401">
        <ele>107.2</ele>
        <time>2023-10-07T10:05:21Z</time>
      </trkpt>
      <trkpt lat="48.00735" lon="-0.47395">
        <ele>107.2</ele>
        <time>2023-10-07T10:05:22Z</time>
      </trkpt>
      <trkpt lat="48.00739" lon="-0.47389">
        <ele>107.2</ele>
        <time>2023-10-07T10:05:23Z</time>
      </trkpt>
      <trkpt lat="48.00744" lon="-0.47383">
        <ele>107</ele>
        <time>2023-10-07T10:05:24Z</time>
      </trkpt>
      <trkpt lat="48.00748" lon="-0.47376">
        <ele>107</ele>
        <time>2023-10-07T10:05:25Z</time>
      </trkpt>
      <trkpt lat="48.00753" lon="-0.47369">
        <ele>107</ele>
        <time>2023-10-07T10:05:26Z</time>
      </trkpt>
      <trkpt lat="48.00757" lon="-0.47362">
        <ele>107</ele>
        <time>2023-10-07T10:05:27Z</time>
      </trkpt>
      <trkpt lat="48.00762" lon="-0.47355">
        <ele>106.4</ele>
        <time>2023-10-07T10:05:28Z</time>
      </trkpt>
      <trkpt lat="48.00767" lon="-0.47348">
        <ele>106.4</ele>
        <time>2023-10-07T10:05:29Z</time>
      </trkpt>
      <trkpt lat="48.00772" lon="-0.47341">
        <ele>106.4</ele>
        <time>2023-10-07T10:05:30Z</time>
      </trkpt>
      <trkpt lat="48.00777" lon="-0.47334">
        <ele>105.4</ele>
        <time>2023-10-07T10:05:31Z</time>
      </trkpt>
      <trkpt lat="48.00782" lon="-0.47327">
        <ele>105.2</ele>
        <time>2023-10-07T10:05:32Z</time>
      </trkpt>
      <trkpt lat="48.00787" lon="-0.4732">
        <ele>105.2</ele>
        <time>2023-10-07T10:05:33Z</time>
      </trkpt>
      <trkpt lat="48.00792" lon="-0.47313">
        <ele>105.2</ele>
        <time>2023-10-07T10:05:34Z</time>
      </trkpt>
      <trkpt lat="48.00797" lon="-0.47306">
        <ele>104.8</ele>
        <time>2023-10-07T10:05:35Z</time>
      </trkpt>
      <trkpt lat="48.00802" lon="-0.47298">
        <ele>104.8</ele>
        <time>2023-10-07T10:05:36Z</time>
      </trkpt>
      <trkpt lat="48.00807" lon="-0.47291">
        <ele>104.8</ele>
        <time>2023-10-07T10:05:37Z</time>
      </trkpt>
      <trkpt lat="48.00812" lon="-0.47284">
        <ele>104.8</ele>
        <time>2023-10-07T10:05:38Z</time>
      </trkpt>
      <trkpt lat="48.00817" lon="-0.47277">
        <ele>104.8</ele>
        <time>2023-10-07T10:05:39Z</time>
      </trkpt>
      <trkpt lat="48.00821" lon="-0.47269">
        <ele>104.2</ele>
        <time>2023-10-07T10:05:40Z</time>
      </trkpt>
      <trkpt lat="48.00822" lon="-0.4726">
        <ele>104.2</ele>
        <time>2023-10-07T10:05:41Z</time>
      </trkpt>
      <trkpt lat="48.00821" lon="-0.47252">
        <ele>104.2</ele>
        <time>2023-10-07T10:05:42Z</time>
      </trkpt>
      <trkpt lat="48.00818" lon="-0.47245">
        <ele>103.8</ele>
        <time>2023-10-07T10:05:43Z</time>
      </trkpt>
      <trkpt lat="48.00814" lon="-0.4724">
        <ele>103.4</ele>
        <time>2023-10-07T10:05:44Z</time>
      </trkpt>
      <trkpt lat="48.0081" lon="-0.47233">
        <ele>103.4</ele>
        <time>2023-10-07T10:05:45Z</time>
      </trkpt>
      <trkpt lat="48.00805" lon="-0.47228">
        <ele>103.4</ele>
        <time>2023-10-07T10:05:46Z</time>
      </trkpt>
      <trkpt lat="48.00801" lon="-0.47222">
        <ele>104.4</ele>
        <time>2023-10-07T10:05:47Z</time>
      </trkpt>
      <trkpt lat="48.00797" lon="-0.47217">
        <ele>105.6</ele>
        <time>2023-10-07T10:05:48Z</time>
      </trkpt>
      <trkpt lat="48.00792" lon="-0.47211">
        <ele>105.6</ele>
        <time>2023-10-07T10:05:49Z</time>
      </trkpt>
      <trkpt lat="48.00788" lon="-0.47207">
        <ele>105.6</ele>
        <time>2023-10-07T10:05:50Z</time>
      </trkpt>
      <trkpt lat="48.00783" lon="-0.47202">
        <ele>106</ele>
        <time>2023-10-07T10:05:51Z</time>
      </trkpt>
      <trkpt lat="48.00778" lon="-0.47198">
        <ele>106.2</ele>
        <time>2023-10-07T10:05:52Z</time>
      </trkpt>
      <trkpt lat="48.00774" lon="-0.47193">
        <ele>106.2</ele>
        <time>2023-10-07T10:05:53Z</time>
      </trkpt>
      <trkpt lat="48.00769" lon="-0.47189">
        <ele>106.2</ele>
        <time>2023-10-07T10:05:54Z</time>
      </trkpt>
      <trkpt lat="48.00764" lon="-0.47185">
        <ele>106.2</ele>
        <time>2023-10-07T10:05:55Z</time>
      </trkpt>
      <trkpt lat="48.00759" lon="-0.47181">
        <ele>105.4</ele>
        <time>2023-10-07T10:05:56Z</time>
      </trkpt>
      <trkpt lat="48.00754" lon="-0.47178">
        <ele>105.4</ele>
        <time>2023-10-07T10:05:57Z</time>
      </trkpt>
      <trkpt lat="48.00748" lon="-0.47176">
        <ele>105.4</ele>
        <time>2023-10-07T10:05:58Z</time>
      </trkpt>
      <trkpt lat="48.00742" lon="-0.47176">
        <ele>105.4</ele>
        <time>2023-10-07T10:05:59Z</time>
      </trkpt>
      <trkpt lat="48.00737" lon="-0.47177">
        <ele>105</ele>
        <time>2023-10-07T10:06:00Z</time>
      </trkpt>
      <trkpt lat="48.00731" lon="-0.47179">
        <ele>105</ele>
        <time>2023-10-07T10:06:01Z</time>
      </trkpt>
      <trkpt lat="48.00725" lon="-0.47182">
        <ele>105</ele>
        <time>2023-10-07T10:06:02Z</time>
      </trkpt>
      <trkpt lat="48.00719" lon="-0.47184">
        <ele>105</ele>
        <time>2023-10-07T10:06:03Z</time>
      </trkpt>
      <trkpt lat="48.00713" lon="-0.47187">
        <ele>104</ele>
        <time>2023-10-07T10:06:04Z</time>
      </trkpt>
      <trkpt lat="48.00707" lon="-0.47189">
        <ele>104</ele>
        <time>2023-10-07T10:06:05Z</time>
      </trkpt>
      <trkpt lat="48.007" lon="-0.47191">
        <ele>104</ele>
        <time>2023-10-07T10:06:06Z</time>
      </trkpt>
      <trkpt lat="48.00694" lon="-0.47193">
        <ele>104</ele>
        <time>2023-10-07T10:06:07Z</time>
      </trkpt>
      <trkpt lat="48.00687" lon="-0.47197">
        <ele>105</ele>
        <time>2023-10-07T10:06:08Z</time>
      </trkpt>
      <trkpt lat="48.00681" lon="-0.472">
        <ele>105</ele>
        <time>2023-10-07T10:06:09Z</time>
      </trkpt>
      <trkpt lat="48.00674" lon="-0.47203">
        <ele>105</ele>
        <time>2023-10-07T10:06:10Z</time>
      </trkpt>
      <trkpt lat="48.00667" lon="-0.47206">
        <ele>104</ele>
        <time>2023-10-07T10:06:11Z</time>
      </trkpt>
      <trkpt lat="48.0066" lon="-0.47208">
        <ele>101.4</ele>
        <time>2023-10-07T10:06:12Z</time>
      </trkpt>
      <trkpt lat="48.00653" lon="-0.47209">
        <ele>101.4</ele>
        <time>2023-10-07T10:06:13Z</time>
      </trkpt>
      <trkpt lat="48.00646" lon="-0.4721">
        <ele>101.4</ele>
        <time>2023-10-07T10:06:14Z</time>
      </trkpt>
      <trkpt lat="48.00639" lon="-0.47208">
        <ele>102.4</ele>
        <time>2023-10-07T10:06:15Z</time>
      </trkpt>
      <trkpt lat="48.00633" lon="-0.47205">
        <ele>102.2</ele>
        <time>2023-10-07T10:06:16Z</time>
      </trkpt>
      <trkpt lat="48.00626" lon="-0.472">
        <ele>102.2</ele>
        <time>2023-10-07T10:06:17Z</time>
      </trkpt>
      <trkpt lat="48.0062" lon="-0.47195">
        <ele>102.2</ele>
        <time>2023-10-07T10:06:18Z</time>
      </trkpt>
      <trkpt lat="48.00614" lon="-0.47189">
        <ele>102.2</ele>
        <time>2023-10-07T10:06:19Z</time>
      </trkpt>
      <trkpt lat="48.00608" lon="-0.47182">
        <ele>100.6</ele>
        <time>2023-10-07T10:06:20Z</time>
      </trkpt>
      <trkpt lat="48.00603" lon="-0.47175">
        <ele>100.6</ele>
        <time>2023-10-07T10:06:21Z</time>
      </trkpt>
      <trkpt lat="48.00599" lon="-0.47167">
        <ele>100.6</ele>
        <time>2023-10-07T10:06:22Z</time>
      </trkpt>
      <trkpt lat="48.00595" lon="-0.47158">
        <ele>100.6</ele>
        <time>2023-10-07T10:06:23Z</time>
      </trkpt>
      <trkpt lat="48.00591" lon="-0.47149">
        <ele>100.6</ele>
        <time>2023-10-07T10:06:24Z</time>
      </trkpt>
      <trkpt lat="48.00587" lon="-0.47139">
        <ele>100.6</ele>
        <time>2023-10-07T10:06:25Z</time>
      </trkpt>
      <trkpt lat="48.00583" lon="-0.4713">
        <ele>100.6</ele>
        <time>2023-10-07T10:06:26Z</time>
      </trkpt>
      <trkpt lat="48.00579" lon="-0.47121">
        <ele>100.6</ele>
        <time>2023-10-07T10:06:27Z</time>
      </trkpt>
      <trkpt lat="48.00574" lon="-0.47112">
        <ele>98.6</ele>
        <time>2023-10-07T10:06:28Z</time>
      </trkpt>
      <trkpt lat="48.00571" lon="-0.47103">
        <ele>98.6</ele>
        <time>2023-10-07T10:06:29Z</time>
      </trkpt>
      <trkpt lat="48.00567" lon="-0.47093">
        <ele>98.6</ele>
        <time>2023-10-07T10:06:30Z</time>
      </trkpt>
      <trkpt lat="48.00563" lon="-0.47084">
        <ele>98.6</ele>
        <time>2023-10-07T10:06:31Z</time>
      </trkpt>
      <trkpt lat="48.00559" lon="-0.47075">
        <ele>98.8</ele>
        <time>2023-10-07T10:06:32Z</time>
      </trkpt>
      <trkpt lat="48.00554" lon="-0.47067">
        <ele>98.8</ele>
        <time>2023-10-07T10:06:33Z</time>
      </trkpt>
      <trkpt lat="48.0055" lon="-0.47059">
        <ele>98.8</ele>
        <time>2023-10-07T10:06:34Z</time>
      </trkpt>
      <trkpt lat="48.00545" lon="-0.47051">
        <ele>97.8</ele>
        <time>2023-10-07T10:06:35Z</time>
      </trkpt>
      <trkpt lat="48.00539" lon="-0.47044">
        <ele>98.6</ele>
        <time>2023-10-07T10:06:36Z</time>
      </trkpt>
      <trkpt lat="48.00534" lon="-0.47037">
        <ele>98.6</ele>
        <time>2023-10-07T10:06:37Z</time>
      </trkpt>
      <trkpt lat="48.00528" lon="-0.47029">
        <ele>98.6</ele>
        <time>2023-10-07T10:06:38Z</time>
      </trkpt>
      <trkpt lat="48.00523" lon="-0.47022">
        <ele>97.6</ele>
        <time>2023-10-07T10:06:39Z</time>
      </trkpt>
      <trkpt lat="48.00517" lon="-0.47015">
        <ele>95.2</ele>
        <time>2023-10-07T10:06:40Z</time>
      </trkpt>
      <trkpt lat="48.00511" lon="-0.47008">
        <ele>95.2</ele>
        <time>2023-10-07T10:06:41Z</time>
      </trkpt>
      <trkpt lat="48.00506" lon="-0.47002">
        <ele>95.2</ele>
        <time>2023-10-07T10:06:42Z</time>
      </trkpt>
      <trkpt lat="48.005" lon="-0.46996">
        <ele>96.2</ele>
        <time>2023-10-07T10:06:43Z</time>
      </trkpt>
      <trkpt lat="48.00493" lon="-0.46992">
        <ele>98.8</ele>
        <time>2023-10-07T10:06:44Z</time>
      </trkpt>
      <trkpt lat="48.00487" lon="-0.46988">
        <ele>98.8</ele>
        <time>2023-10-07T10:06:45Z</time>
      </trkpt>
      <trkpt lat="48.0048" lon="-0.46986">
        <ele>98.8</ele>
        <time>2023-10-07T10:06:46Z</time>
      </trkpt>
      <trkpt lat="48.00474" lon="-0.46985">
        <ele>98.8</ele>
        <time>2023-10-07T10:06:47Z</time>
      </trkpt>
      <trkpt lat="48.00467" lon="-0.46987">
        <ele>98.8</ele>
        <time>2023-10-07T10:06:48Z</time>
      </trkpt>
      <trkpt lat="48.00462" lon="-0.46991">
        <ele>98.8</ele>
        <time>2023-10-07T10:06:49Z</time>
      </trkpt>
      <trkpt lat="48.00456" lon="-0.46996">
        <ele>98.8</ele>
        <time>2023-10-07T10:06:50Z</time>
      </trkpt>
      <trkpt lat="48.00451" lon="-0.47002">
        <ele>97.8</ele>
        <time>2023-10-07T10:06:51Z</time>
      </trkpt>
      <trkpt lat="48.00446" lon="-0.47008">
        <ele>98.8</ele>
        <time>2023-10-07T10:06:52Z</time>
      </trkpt>
      <trkpt lat="48.00442" lon="-0.47014">
        <ele>98.8</ele>
        <time>2023-10-07T10:06:53Z</time>
      </trkpt>
      <trkpt lat="48.00437" lon="-0.4702">
        <ele>98.8</ele>
        <time>2023-10-07T10:06:54Z</time>
      </trkpt>
      <trkpt lat="48.00432" lon="-0.47024">
        <ele>98.8</ele>
        <time>2023-10-07T10:06:55Z</time>
      </trkpt>
      <trkpt lat="48.00427" lon="-0.47028">
        <ele>99.2</ele>
        <time>2023-10-07T10:06:56Z</time>
      </trkpt>
      <trkpt lat="48.00422" lon="-0.47032">
        <ele>99.2</ele>
        <time>2023-10-07T10:06:57Z</time>
      </trkpt>
      <trkpt lat="48.00416" lon="-0.47037">
        <ele>99.2</ele>
        <time>2023-10-07T10:06:58Z</time>
      </trkpt>
      <trkpt lat="48.00411" lon="-0.47041">
        <ele>100.2</ele>
        <time>2023-10-07T10:06:59Z</time>
      </trkpt>
      <trkpt lat="48.00407" lon="-0.47046">
        <ele>101.6</ele>
        <time>2023-10-07T10:07:00Z</time>
      </trkpt>
      <trkpt lat="48.00402" lon="-0.4705">
        <ele>101.6</ele>
        <time>2023-10-07T10:07:01Z</time>
      </trkpt>
      <trkpt lat="48.00398" lon="-0.47054">
        <ele>101.6</ele>
        <time>2023-10-07T10:07:02Z</time>
      </trkpt>
      <trkpt lat="48.00393" lon="-0.47058">
        <ele>101.6</ele>
        <time>2023-10-07T10:07:03Z</time>
      </trkpt>
      <trkpt lat="48.0039" lon="-0.47061">
        <ele>102.8</ele>
        <time>2023-10-07T10:07:04Z</time>
      </trkpt>
      <trkpt lat="48.00386" lon="-0.47064">
        <ele>102.8</ele>
        <time>2023-10-07T10:07:05Z</time>
      </trkpt>
      <trkpt lat="48.00383" lon="-0.47066">
        <ele>102.8</ele>
        <time>2023-10-07T10:07:06Z</time>
      </trkpt>
      <trkpt lat="48.0038" lon="-0.47068">
        <ele>102.8</ele>
        <time>2023-10-07T10:07:07Z</time>
      </trkpt>
      <trkpt lat="48.00378" lon="-0.47072">
        <ele>102.2</ele>
        <time>2023-10-07T10:07:08Z</time>
      </trkpt>
      <trkpt lat="48.00375" lon="-0.47076">
        <ele>102.2</ele>
        <time>2023-10-07T10:07:09Z</time>
      </trkpt>
      <trkpt lat="48.00372" lon="-0.4708">
        <ele>102.2</ele>
        <time>2023-10-07T10:07:10Z</time>
      </trkpt>
      <trkpt lat="48.0037" lon="-0.47084">
        <ele>102.2</ele>
        <time>2023-10-07T10:07:11Z</time>
      </trkpt>
      <trkpt lat="48.00368" lon="-0.47087">
        <ele>102.2</ele>
        <time>2023-10-07T10:07:12Z</time>
      </trkpt>
      <trkpt lat="48.00365" lon="-0.4709">
        <ele>102.2</ele>
        <time>2023-10-07T10:07:13Z</time>
      </trkpt>
      <trkpt lat="48.00361" lon="-0.47094">
        <ele>102.2</ele>
        <time>2023-10-07T10:07:14Z</time>
      </trkpt>
      <trkpt lat="48.00357" lon="-0.47099">
        <ele>102.2</ele>
        <time>2023-10-07T10:07:15Z</time>
      </trkpt>
      <trkpt lat="48.00354" lon="-0.47104">
        <ele>101.8</ele>
        <time>2023-10-07T10:07:16Z</time>
      </trkpt>
      <trkpt lat="48.00351" lon="-0.47108">
        <ele>101.8</ele>
        <time>2023-10-07T10:07:17Z</time>
      </trkpt>
      <trkpt lat="48.00348" lon="-0.47112">
        <ele>101.8</ele>
        <time>2023-10-07T10:07:18Z</time>
      </trkpt>
      <trkpt lat="48.00345" lon="-0.47117">
        <ele>101.8</ele>
        <time>2023-10-07T10:07:19Z</time>
      </trkpt>
      <trkpt lat="48.00341" lon="-0.47121">
        <ele>101.6</ele>
        <time>2023-10-07T10:07:20Z</time>
      </trkpt>
      <trkpt lat="48.00337" lon="-0.47126">
        <ele>101.6</ele>
        <time>2023-10-07T10:07:21Z</time>
      </trkpt>
      <trkpt lat="48.00334" lon="-0.47131">
        <ele>101.6</ele>
        <time>2023-10-07T10:07:22Z</time>
      </trkpt>
      <trkpt lat="48.00331" lon="-0.47136">
        <ele>101.6</ele>
        <time>2023-10-07T10:07:23Z</time>
      </trkpt>
      <trkpt lat="48.00327" lon="-0.4714">
        <ele>101.6</ele>
        <time>2023-10-07T10:07:24Z</time>
      </trkpt>
      <trkpt lat="48.00324" lon="-0.47145">
        <ele>101.6</ele>
        <time>2023-10-07T10:07:25Z</time>
      </trkpt>
      <trkpt lat="48.00321" lon="-0.47151">
        <ele>101.6</ele>
        <time>2023-10-07T10:07:26Z</time>
      </trkpt>
      <trkpt lat="48.00318" lon="-0.47156">
        <ele>101.6</ele>
        <time>2023-10-07T10:07:27Z</time>
      </trkpt>
      <trkpt lat="48.00316" lon="-0.47161">
        <ele>101</ele>
        <time>2023-10-07T10:07:28Z</time>
      </trkpt>
      <trkpt lat="48.00313" lon="-0.47167">
        <ele>101</ele>
        <time>2023-10-07T10:07:29Z</time>
      </trkpt>
      <trkpt lat="48.0031" lon="-0.47172">
        <ele>101</ele>
        <time>2023-10-07T10:07:30Z</time>
      </trkpt>
      <trkpt lat="48.00307" lon="-0.47178">
        <ele>101.2</ele>
        <time>2023-10-07T10:07:31Z</time>
      </trkpt>
      <trkpt lat="48.00304" lon="-0.47183">
        <ele>101.2</ele>
        <time>2023-10-07T10:07:32Z</time>
      </trkpt>
      <trkpt lat="48.003" lon="-0.47186">
        <ele>101.2</ele>
        <time>2023-10-07T10:07:33Z</time>
      </trkpt>
      <trkpt lat="48.00295" lon="-0.47186">
        <ele>101.2</ele>
        <time>2023-10-07T10:07:34Z</time>
      </trkpt>
      <trkpt lat="48.0029" lon="-0.47185">
        <ele>100.2</ele>
        <time>2023-10-07T10:07:35Z</time>
      </trkpt>
      <trkpt lat="48.00286" lon="-0.47182">
        <ele>100.4</ele>
        <time>2023-10-07T10:07:36Z</time>
      </trkpt>
      <trkpt lat="48.00282" lon="-0.47178">
        <ele>100.4</ele>
        <time>2023-10-07T10:07:37Z</time>
      </trkpt>
      <trkpt lat="48.00279" lon="-0.47174">
        <ele>100.4</ele>
        <time>2023-10-07T10:07:38Z</time>
      </trkpt>
      <trkpt lat="48.00276" lon="-0.4717">
        <ele>99.4</ele>
        <time>2023-10-07T10:07:39Z</time>
      </trkpt>
      <trkpt lat="48.00273" lon="-0.47165">
        <ele>99.4</ele>
        <time>2023-10-07T10:07:40Z</time>
      </trkpt>
      <trkpt lat="48.0027" lon="-0.47161">
        <ele>99.4</ele>
        <time>2023-10-07T10:07:41Z</time>
      </trkpt>
      <trkpt lat="48.00267" lon="-0.47157">
        <ele>99.4</ele>
        <time>2023-10-07T10:07:42Z</time>
      </trkpt>
      <trkpt lat="48.00263" lon="-0.47152">
        <ele>98.4</ele>
        <time>2023-10-07T10:07:43Z</time>
      </trkpt>
      <trkpt lat="48.0026" lon="-0.47149">
        <ele>98.2</ele>
        <time>2023-10-07T10:07:44Z</time>
      </trkpt>
      <trkpt lat="48.00257" lon="-0.47145">
        <ele>98.2</ele>
        <time>2023-10-07T10:07:45Z</time>
      </trkpt>
      <trkpt lat="48.00253" lon="-0.4714">
        <ele>98.2</ele>
        <time>2023-10-07T10:07:46Z</time>
      </trkpt>
      <trkpt lat="48.0025" lon="-0.47135">
        <ele>97.2</ele>
        <time>2023-10-07T10:07:47Z</time>
      </trkpt>
      <trkpt lat="48.00246" lon="-0.4713">
        <ele>92</ele>
        <time>2023-10-07T10:07:48Z</time>
      </trkpt>
      <trkpt lat="48.00242" lon="-0.47125">
        <ele>92</ele>
        <time>2023-10-07T10:07:49Z</time>
      </trkpt>
      <trkpt lat="48.00237" lon="-0.4712">
        <ele>92</ele>
        <time>2023-10-07T10:07:50Z</time>
      </trkpt>
      <trkpt lat="48.00232" lon="-0.47114">
        <ele>93</ele>
        <time>2023-10-07T10:07:51Z</time>
      </trkpt>
      <trkpt lat="48.00227" lon="-0.47108">
        <ele>95</ele>
        <time>2023-10-07T10:07:52Z</time>
      </trkpt>
      <trkpt lat="48.00221" lon="-0.47102">
        <ele>95</ele>
        <time>2023-10-07T10:07:53Z</time>
      </trkpt>
      <trkpt lat="48.00216" lon="-0.47098">
        <ele>95</ele>
        <time>2023-10-07T10:07:54Z</time>
      </trkpt>
      <trkpt lat="48.0021" lon="-0.47093">
        <ele>95</ele>
        <time>2023-10-07T10:07:55Z</time>
      </trkpt>
      <trkpt lat="48.00205" lon="-0.47089">
        <ele>95.8</ele>
        <time>2023-10-07T10:07:56Z</time>
      </trkpt>
      <trkpt lat="48.002" lon="-0.47085">
        <ele>95.8</ele>
        <time>2023-10-07T10:07:57Z</time>
      </trkpt>
      <trkpt lat="48.00195" lon="-0.4708">
        <ele>95.8</ele>
        <time>2023-10-07T10:07:58Z</time>
      </trkpt>
      <trkpt lat="48.0019" lon="-0.47075">
        <ele>95.8</ele>
        <time>2023-10-07T10:07:59Z</time>
      </trkpt>
      <trkpt lat="48.00185" lon="-0.4707">
        <ele>97.6</ele>
        <time>2023-10-07T10:08:00Z</time>
      </trkpt>
      <trkpt lat="48.00181" lon="-0.47065">
        <ele>97.6</ele>
        <time>2023-10-07T10:08:01Z</time>
      </trkpt>
      <trkpt lat="48.00177" lon="-0.47059">
        <ele>97.6</ele>
        <time>2023-10-07T10:08:02Z</time>
      </trkpt>
      <trkpt lat="48.00173" lon="-0.47053">
        <ele>97.6</ele>
        <time>2023-10-07T10:08:03Z</time>
      </trkpt>
      <trkpt lat="48.00169" lon="-0.47047">
        <ele>97.6</ele>
        <time>2023-10-07T10:08:04Z</time>
      </trkpt>
      <trkpt lat="48.00165" lon="-0.47041">
        <ele>97.6</ele>
        <time>2023-10-07T10:08:05Z</time>
      </trkpt>
      <trkpt lat="48.00162" lon="-0.47036">
        <ele>97.6</ele>
        <time>2023-10-07T10:08:06Z</time>
      </trkpt>
      <trkpt lat="48.00159" lon="-0.4703">
        <ele>97.6</ele>
        <time>2023-10-07T10:08:07Z</time>
      </trkpt>
      <trkpt lat="48.00156" lon="-0.47024">
        <ele>98.8</ele>
        <time>2023-10-07T10:08:08Z</time>
      </trkpt>
      <trkpt lat="48.00153" lon="-0.47018">
        <ele>98.8</ele>
        <time>2023-10-07T10:08:09Z</time>
      </trkpt>
      <trkpt lat="48.0015" lon="-0.47013">
        <ele>98.8</ele>
        <time>2023-10-07T10:08:10Z</time>
      </trkpt>
      <trkpt lat="48.00147" lon="-0.47007">
        <ele>98.8</ele>
        <time>2023-10-07T10:08:11Z</time>
      </trkpt>
      <trkpt lat="48.00144" lon="-0.47002">
        <ele>100.8</ele>
        <time>2023-10-07T10:08:12Z</time>
      </trkpt>
      <trkpt lat="48.00141" lon="-0.46996">
        <ele>100.8</ele>
        <time>2023-10-07T10:08:13Z</time>
      </trkpt>
      <trkpt lat="48.00137" lon="-0.46991">
        <ele>100.8</ele>
        <time>2023-10-07T10:08:14Z</time>
      </trkpt>
      <trkpt lat="48.00134" lon="-0.46987">
        <ele>100</ele>
        <time>2023-10-07T10:08:15Z</time>
      </trkpt>
      <trkpt lat="48.00131" lon="-0.46984">
        <ele>100.6</ele>
        <time>2023-10-07T10:08:16Z</time>
      </trkpt>
      <trkpt lat="48.00128" lon="-0.46979">
        <ele>100.6</ele>
        <time>2023-10-07T10:08:17Z</time>
      </trkpt>
      <trkpt lat="48.00125" lon="-0.46975">
        <ele>100.6</ele>
        <time>2023-10-07T10:08:18Z</time>
      </trkpt>
      <trkpt lat="48.00123" lon="-0.46969">
        <ele>100.6</ele>
        <time>2023-10-07T10:08:19Z</time>
      </trkpt>
      <trkpt lat="48.00121" lon="-0.46963">
        <ele>100.4</ele>
        <time>2023-10-07T10:08:20Z</time>
      </trkpt>
      <trkpt lat="48.00119" lon="-0.46956">
        <ele>100.4</ele>
        <time>2023-10-07T10:08:21Z</time>
      </trkpt>
      <trkpt lat="48.00118" lon="-0.46949">
        <ele>100.4</ele>
        <time>2023-10-07T10:08:22Z</time>
      </trkpt>
      <trkpt lat="48.00117" lon="-0.46942">
        <ele>100.4</ele>
        <time>2023-10-07T10:08:23Z</time>
      </trkpt>
      <trkpt lat="48.00115" lon="-0.46934">
        <ele>100</ele>
        <time>2023-10-07T10:08:24Z</time>
      </trkpt>
      <trkpt lat="48.00114" lon="-0.46927">
        <ele>100</ele>
        <time>2023-10-07T10:08:25Z</time>
      </trkpt>
      <trkpt lat="48.00112" lon="-0.46919">
        <ele>100</ele>
        <time>2023-10-07T10:08:26Z</time>
      </trkpt>
      <trkpt lat="48.00111" lon="-0.46911">
        <ele>100</ele>
        <time>2023-10-07T10:08:27Z</time>
      </trkpt>
      <trkpt lat="48.0011" lon="-0.46903">
        <ele>100</ele>
        <time>2023-10-07T10:08:28Z</time>
      </trkpt>
      <trkpt lat="48.00108" lon="-0.46895">
        <ele>100.2</ele>
        <time>2023-10-07T10:08:29Z</time>
      </trkpt>
      <trkpt lat="48.00107" lon="-0.46887">
        <ele>100.2</ele>
        <time>2023-10-07T10:08:30Z</time>
      </trkpt>
      <trkpt lat="48.00105" lon="-0.46879">
        <ele>100.2</ele>
        <time>2023-10-07T10:08:31Z</time>
      </trkpt>
      <trkpt lat="48.00104" lon="-0.46871">
        <ele>100.2</ele>
        <time>2023-10-07T10:08:32Z</time>
      </trkpt>
      <trkpt lat="48.00103" lon="-0.46862">
        <ele>99.6</ele>
        <time>2023-10-07T10:08:33Z</time>
      </trkpt>
      <trkpt lat="48.00101" lon="-0.46854">
        <ele>99.6</ele>
        <time>2023-10-07T10:08:34Z</time>
      </trkpt>
      <trkpt lat="48.00099" lon="-0.46846">
        <ele>99.6</ele>
        <time>2023-10-07T10:08:35Z</time>
      </trkpt>
      <trkpt lat="48.00097" lon="-0.46838">
        <ele>99.6</ele>
        <time>2023-10-07T10:08:36Z</time>
      </trkpt>
      <trkpt lat="48.00094" lon="-0.4683">
        <ele>99.4</ele>
        <time>2023-10-07T10:08:37Z</time>
      </trkpt>
      <trkpt lat="48.00092" lon="-0.46822">
        <ele>99.4</ele>
        <time>2023-10-07T10:08:38Z</time>
      </trkpt>
      <trkpt lat="48.00089" lon="-0.46814">
        <ele>99.4</ele>
        <time>2023-10-07T10:08:39Z</time>
      </trkpt>
      <trkpt lat="48.00086" lon="-0.46807">
        <ele>99.8</ele>
        <time>2023-10-07T10:08:40Z</time>
      </trkpt>
      <trkpt lat="48.00084" lon="-0.46799">
        <ele>100</ele>
        <time>2023-10-07T10:08:41Z</time>
      </trkpt>
      <trkpt lat="48.00081" lon="-0.46791">
        <ele>100</ele>
        <time>2023-10-07T10:08:42Z</time>
      </trkpt>
      <trkpt lat="48.00079" lon="-0.46783">
        <ele>100</ele>
        <time>2023-10-07T10:08:43Z</time>
      </trkpt>
      <trkpt lat="48.00077" lon="-0.46775">
        <ele>100</ele>
        <time>2023-10-07T10:08:44Z</time>
      </trkpt>
      <trkpt lat="48.00074" lon="-0.46767">
        <ele>99</ele>
        <time>2023-10-07T10:08:45Z</time>
      </trkpt>
      <trkpt lat="48.00071" lon="-0.46759">
        <ele>99</ele>
        <time>2023-10-07T10:08:46Z</time>
      </trkpt>
      <trkpt lat="48.00069" lon="-0.46751">
        <ele>99</ele>
        <time>2023-10-07T10:08:47Z</time>
      </trkpt>
      <trkpt lat="48.00067" lon="-0.46742">
        <ele>100</ele>
        <time>2023-10-07T10:08:48Z</time>
      </trkpt>
      <trkpt lat="48.00066" lon="-0.46734">
        <ele>99.8</ele>
        <time>2023-10-07T10:08:49Z</time>
      </trkpt>
      <trkpt lat="48.00065" lon="-0.46725">
        <ele>99.8</ele>
        <time>2023-10-07T10:08:50Z</time>
      </trkpt>
      <trkpt lat="48.00064" lon="-0.46716">
        <ele>99.8</ele>
        <time>2023-10-07T10:08:51Z</time>
      </trkpt>
      <trkpt lat="48.00063" lon="-0.46707">
        <ele>100.8</ele>
        <time>2023-10-07T10:08:52Z</time>
      </trkpt>
      <trkpt lat="48.00062" lon="-0.46699">
        <ele>101</ele>
        <time>2023-10-07T10:08:53Z</time>
      </trkpt>
      <trkpt lat="48.00062" lon="-0.4669">
        <ele>101</ele>
        <time>2023-10-07T10:08:54Z</time>
      </trkpt>
      <trkpt lat="48.00061" lon="-0.46681">
        <ele>101</ele>
        <time>2023-10-07T10:08:55Z</time>
      </trkpt>
      <trkpt lat="48.00061" lon="-0.46672">
        <ele>101</ele>
        <time>2023-10-07T10:08:56Z</time>
      </trkpt>
      <trkpt lat="48.00061" lon="-0.46663">
        <ele>101.8</ele>
        <time>2023-10-07T10:08:57Z</time>
      </trkpt>
      <trkpt lat="48.0006" lon="-0.46655">
        <ele>101.8</ele>
        <time>2023-10-07T10:08:58Z</time>
      </trkpt>
      <trkpt lat="48.0006" lon="-0.46646">
        <ele>101.8</ele>
        <time>2023-10-07T10:08:59Z</time>
      </trkpt>
      <trkpt lat="48.0006" lon="-0.46637">
        <ele>101.8</ele>
        <time>2023-10-07T10:09:00Z</time>
      </trkpt>
      <trkpt lat="48.00059" lon="-0.46628">
        <ele>101.8</ele>
        <time>2023-10-07T10:09:01Z</time>
      </trkpt>
      <trkpt lat="48.00059" lon="-0.46619">
        <ele>101.8</ele>
        <time>2023-10-07T10:09:02Z</time>
      </trkpt>
      <trkpt lat="48.00059" lon="-0.46611">
        <ele>101.8</ele>
        <time>2023-10-07T10:09:03Z</time>
      </trkpt>
      <trkpt lat="48.00058" lon="-0.46602">
        <ele>101.8</ele>
        <time>2023-10-07T10:09:04Z</time>
      </trkpt>
      <trkpt lat="48.00058" lon="-0.46594">
        <ele>102.2</ele>
        <time>2023-10-07T10:09:05Z</time>
      </trkpt>
      <trkpt lat="48.00058" lon="-0.46585">
        <ele>102.2</ele>
        <time>2023-10-07T10:09:06Z</time>
      </trkpt>
      <trkpt lat="48.00057" lon="-0.46577">
        <ele>102.2</ele>
        <time>2023-10-07T10:09:07Z</time>
      </trkpt>
      <trkpt lat="48.00057" lon="-0.46569">
        <ele>102.2</ele>
        <time>2023-10-07T10:09:08Z</time>
      </trkpt>
      <trkpt lat="48.00057" lon="-0.4656">
        <ele>102.2</ele>
        <time>2023-10-07T10:09:09Z</time>
      </trkpt>
      <trkpt lat="48.00056" lon="-0.46552">
        <ele>102.2</ele>
        <time>2023-10-07T10:09:10Z</time>
      </trkpt>
      <trkpt lat="48.00056" lon="-0.46543">
        <ele>102.2</ele>
        <time>2023-10-07T10:09:11Z</time>
      </trkpt>
      <trkpt lat="48.00056" lon="-0.46535">
        <ele>103.2</ele>
        <time>2023-10-07T10:09:12Z</time>
      </trkpt>
      <trkpt lat="48.00056" lon="-0.46527">
        <ele>103</ele>
        <time>2023-10-07T10:09:13Z</time>
      </trkpt>
      <trkpt lat="48.00056" lon="-0.46518">
        <ele>103</ele>
        <time>2023-10-07T10:09:14Z</time>
      </trkpt>
      <trkpt lat="48.00056" lon="-0.4651">
        <ele>103</ele>
        <time>2023-10-07T10:09:15Z</time>
      </trkpt>
      <trkpt lat="48.00057" lon="-0.46502">
        <ele>103</ele>
        <time>2023-10-07T10:09:16Z</time>
      </trkpt>
      <trkpt lat="48.00057" lon="-0.46494">
        <ele>103.6</ele>
        <time>2023-10-07T10:09:17Z</time>
      </trkpt>
      <trkpt lat="48.00057" lon="-0.46486">
        <ele>103.6</ele>
        <time>2023-10-07T10:09:18Z</time>
      </trkpt>
      <trkpt lat="48.00058" lon="-0.46478">
        <ele>103.6</ele>
        <time>2023-10-07T10:09:19Z</time>
      </trkpt>
      <trkpt lat="48.00059" lon="-0.46471">
        <ele>104</ele>
        <time>2023-10-07T10:09:20Z</time>
      </trkpt>
      <trkpt lat="48.0006" lon="-0.46463">
        <ele>103.8</ele>
        <time>2023-10-07T10:09:21Z</time>
      </trkpt>
      <trkpt lat="48.00061" lon="-0.46455">
        <ele>103.8</ele>
        <time>2023-10-07T10:09:22Z</time>
      </trkpt>
      <trkpt lat="48.00061" lon="-0.46448">
        <ele>103.8</ele>
        <time>2023-10-07T10:09:23Z</time>
      </trkpt>
      <trkpt lat="48.00062" lon="-0.4644">
        <ele>103.8</ele>
        <time>2023-10-07T10:09:24Z</time>
      </trkpt>
      <trkpt lat="48.00063" lon="-0.46433">
        <ele>104.6</ele>
        <time>2023-10-07T10:09:25Z</time>
      </trkpt>
      <trkpt lat="48.00065" lon="-0.46425">
        <ele>104.6</ele>
        <time>2023-10-07T10:09:26Z</time>
      </trkpt>
      <trkpt lat="48.00066" lon="-0.46418">
        <ele>104.6</ele>
        <time>2023-10-07T10:09:27Z</time>
      </trkpt>
      <trkpt lat="48.00067" lon="-0.46411">
        <ele>105</ele>
        <time>2023-10-07T10:09:28Z</time>
      </trkpt>
      <trkpt lat="48.00068" lon="-0.46404">
        <ele>105</ele>
        <time>2023-10-07T10:09:29Z</time>
      </trkpt>
      <trkpt lat="48.00069" lon="-0.46397">
        <ele>105</ele>
        <time>2023-10-07T10:09:30Z</time>
      </trkpt>
      <trkpt lat="48.00071" lon="-0.4639">
        <ele>105</ele>
        <time>2023-10-07T10:09:31Z</time>
      </trkpt>
      <trkpt lat="48.00072" lon="-0.46383">
        <ele>106</ele>
        <time>2023-10-07T10:09:32Z</time>
      </trkpt>
      <trkpt lat="48.00073" lon="-0.46376">
        <ele>107.2</ele>
        <time>2023-10-07T10:09:33Z</time>
      </trkpt>
      <trkpt lat="48.00074" lon="-0.4637">
        <ele>107.2</ele>
        <time>2023-10-07T10:09:34Z</time>
      </trkpt>
      <trkpt lat="48.00075" lon="-0.46363">
        <ele>107.2</ele>
        <time>2023-10-07T10:09:35Z</time>
      </trkpt>
      <trkpt lat="48.00076" lon="-0.46356">
        <ele>107.2</ele>
        <time>2023-10-07T10:09:36Z</time>
      </trkpt>
      <trkpt lat="48.00077" lon="-0.4635">
        <ele>107.4</ele>
        <time>2023-10-07T10:09:37Z</time>
      </trkpt>
      <trkpt lat="48.00078" lon="-0.46343">
        <ele>107.4</ele>
        <time>2023-10-07T10:09:38Z</time>
      </trkpt>
      <trkpt lat="48.00078" lon="-0.46337">
        <ele>107.4</ele>
        <time>2023-10-07T10:09:39Z</time>
      </trkpt>
      <trkpt lat="48.00078" lon="-0.4633">
        <ele>108.4</ele>
        <time>2023-10-07T10:09:40Z</time>
      </trkpt>
      <trkpt lat="48.00078" lon="-0.46323">
        <ele>108.2</ele>
        <time>2023-10-07T10:09:41Z</time>
      </trkpt>
      <trkpt lat="48.00078" lon="-0.46317">
        <ele>108.2</ele>
        <time>2023-10-07T10:09:42Z</time>
      </trkpt>
      <trkpt lat="48.00078" lon="-0.4631">
        <ele>108.2</ele>
        <time>2023-10-07T10:09:43Z</time>
      </trkpt>
      <trkpt lat="48.00078" lon="-0.46304">
        <ele>109.2</ele>
        <time>2023-10-07T10:09:44Z</time>
      </trkpt>
      <trkpt lat="48.00078" lon="-0.46297">
        <ele>110</ele>
        <time>2023-10-07T10:09:45Z</time>
      </trkpt>
      <trkpt lat="48.00077" lon="-0.4629">
        <ele>110</ele>
        <time>2023-10-07T10:09:46Z</time>
      </trkpt>
      <trkpt lat="48.00077" lon="-0.46284">
        <ele>110</ele>
        <time>2023-10-07T10:09:47Z</time>
      </trkpt>
      <trkpt lat="48.00076" lon="-0.46277">
        <ele>109.2</ele>
        <time>2023-10-07T10:09:48Z</time>
      </trkpt>
      <trkpt lat="48.00076" lon="-0.4627">
        <ele>110.2</ele>
        <time>2023-10-07T10:09:49Z</time>
      </trkpt>
      <trkpt lat="48.00075" lon="-0.46264">
        <ele>110.2</ele>
        <time>2023-10-07T10:09:50Z</time>
      </trkpt>
      <trkpt lat="48.00074" lon="-0.46258">
        <ele>110.2</ele>
        <time>2023-10-07T10:09:51Z</time>
      </trkpt>
      <trkpt lat="48.00073" lon="-0.46252">
        <ele>110.2</ele>
        <time>2023-10-07T10:09:52Z</time>
      </trkpt>
      <trkpt lat="48.00072" lon="-0.46245">
        <ele>111.2</ele>
        <time>2023-10-07T10:09:53Z</time>
      </trkpt>
      <trkpt lat="48.00071" lon="-0.46239">
        <ele>111.2</ele>
        <time>2023-10-07T10:09:54Z</time>
      </trkpt>
      <trkpt lat="48.0007" lon="-0.46232">
        <ele>111.2</ele>
        <time>2023-10-07T10:09:55Z</time>
      </trkpt>
      <trkpt lat="48.00069" lon="-0.46226">
        <ele>111.2</ele>
        <time>2023-10-07T10:09:56Z</time>
      </trkpt>
      <trkpt lat="48.00068" lon="-0.4622">
        <ele>111.4</ele>
        <time>2023-10-07T10:09:57Z</time>
      </trkpt>
      <trkpt lat="48.00066" lon="-0.46213">
        <ele>111.4</ele>
        <time>2023-10-07T10:09:58Z</time>
      </trkpt>
      <trkpt lat="48.00065" lon="-0.46207">
        <ele>111.4</ele>
        <time>2023-10-07T10:09:59Z</time>
      </trkpt>
      <trkpt lat="48.00064" lon="-0.46201">
        <ele>111.4</ele>
        <time>2023-10-07T10:10:00Z</time>
      </trkpt>
      <trkpt lat="48.00063" lon="-0.46194">
        <ele>112</ele>
        <time>2023-10-07T10:10:01Z</time>
      </trkpt>
      <trkpt lat="48.00062" lon="-0.46188">
        <ele>112</ele>
        <time>2023-10-07T10:10:02Z</time>
      </trkpt>
      <trkpt lat="48.00061" lon="-0.46181">
        <ele>112</ele>
        <time>2023-10-07T10:10:03Z</time>
      </trkpt>
      <trkpt lat="48.0006" lon="-0.46175">
        <ele>112</ele>
        <time>2023-10-07T10:10:04Z</time>
      </trkpt>
      <trkpt lat="48.00059" lon="-0.46168">
        <ele>111.6</ele>
        <time>2023-10-07T10:10:05Z</time>
      </trkpt>
      <trkpt lat="48.00059" lon="-0.46161">
        <ele>111.6</ele>
        <time>2023-10-07T10:10:06Z</time>
      </trkpt>
      <trkpt lat="48.00058" lon="-0.46155">
        <ele>111.6</ele>
        <time>2023-10-07T10:10:07Z</time>
      </trkpt>
      <trkpt lat="48.00058" lon="-0.46148">
        <ele>112.6</ele>
        <time>2023-10-07T10:10:08Z</time>
      </trkpt>
      <trkpt lat="48.00058" lon="-0.46141">
        <ele>111.8</ele>
        <time>2023-10-07T10:10:09Z</time>
      </trkpt>
      <trkpt lat="48.00058" lon="-0.46135">
        <ele>111.8</ele>
        <time>2023-10-07T10:10:10Z</time>
      </trkpt>
      <trkpt lat="48.00059" lon="-0.46128">
        <ele>111.8</ele>
        <time>2023-10-07T10:10:11Z</time>
      </trkpt>
      <trkpt lat="48.00059" lon="-0.46121">
        <ele>112.8</ele>
        <time>2023-10-07T10:10:12Z</time>
      </trkpt>
      <trkpt lat="48.0006" lon="-0.46114">
        <ele>112.4</ele>
        <time>2023-10-07T10:10:13Z</time>
      </trkpt>
      <trkpt lat="48.00061" lon="-0.46107">
        <ele>112.4</ele>
        <time>2023-10-07T10:10:14Z</time>
      </trkpt>
      <trkpt lat="48.00062" lon="-0.461">
        <ele>112.4</ele>
        <time>2023-10-07T10:10:15Z</time>
      </trkpt>
      <trkpt lat="48.00063" lon="-0.46093">
        <ele>112.6</ele>
        <time>2023-10-07T10:10:16Z</time>
      </trkpt>
      <trkpt lat="48.00065" lon="-0.46086">
        <ele>112.2</ele>
        <time>2023-10-07T10:10:17Z</time>
      </trkpt>
      <trkpt lat="48.00066" lon="-0.46079">
        <ele>112.2</ele>
        <time>2023-10-07T10:10:18Z</time>
      </trkpt>
      <trkpt lat="48.00067" lon="-0.46072">
        <ele>112.2</ele>
        <time>2023-10-07T10:10:19Z</time>
      </trkpt>
      <trkpt lat="48.00069" lon="-0.46065">
        <ele>112.2</ele>
        <time>2023-10-07T10:10:20Z</time>
      </trkpt>
      <trkpt lat="48.0007" lon="-0.46058">
        <ele>112.6</ele>
        <time>2023-10-07T10:10:21Z</time>
      </trkpt>
      <trkpt lat="48.00071" lon="-0.46051">
        <ele>112.6</ele>
        <time>2023-10-07T10:10:22Z</time>
      </trkpt>
      <trkpt lat="48.00072" lon="-0.46044">
        <ele>112.6</ele>
        <time>2023-10-07T10:10:23Z</time>
      </trkpt>
      <trkpt lat="48.00073" lon="-0.46037">
        <ele>112.6</ele>
        <time>2023-10-07T10:10:24Z</time>
      </trkpt>
      <trkpt lat="48.00074" lon="-0.4603">
        <ele>112.8</ele>
        <time>2023-10-07T10:10:25Z</time>
      </trkpt>
      <trkpt lat="48.00075" lon="-0.46022">
        <ele>112.8</ele>
        <time>2023-10-07T10:10:26Z</time>
      </trkpt>
      <trkpt lat="48.00076" lon="-0.46015">
        <ele>112.8</ele>
        <time>2023-10-07T10:10:27Z</time>
      </trkpt>
      <trkpt lat="48.00077" lon="-0.46007">
        <ele>112.8</ele>
        <time>2023-10-07T10:10:28Z</time>
      </trkpt>
      <trkpt lat="48.00078" lon="-0.45999">
        <ele>112.6</ele>
        <time>2023-10-07T10:10:29Z</time>
      </trkpt>
      <trkpt lat="48.00079" lon="-0.45991">
        <ele>112.6</ele>
        <time>2023-10-07T10:10:30Z</time>
      </trkpt>
      <trkpt lat="48.00079" lon="-0.45983">
        <ele>112.6</ele>
        <time>2023-10-07T10:10:31Z</time>
      </trkpt>
      <trkpt lat="48.00079" lon="-0.45975">
        <ele>112</ele>
        <time>2023-10-07T10:10:32Z</time>
      </trkpt>
      <trkpt lat="48.00079" lon="-0.45967">
        <ele>111.6</ele>
        <time>2023-10-07T10:10:33Z</time>
      </trkpt>
      <trkpt lat="48.00079" lon="-0.45958">
        <ele>111.6</ele>
        <time>2023-10-07T10:10:34Z</time>
      </trkpt>
      <trkpt lat="48.00078" lon="-0.45949">
        <ele>111.6</ele>
        <time>2023-10-07T10:10:35Z</time>
      </trkpt>
      <trkpt lat="48.00078" lon="-0.4594">
        <ele>111.6</ele>
        <time>2023-10-07T10:10:36Z</time>
      </trkpt>
      <trkpt lat="48.00077" lon="-0.45932">
        <ele>111</ele>
        <time>2023-10-07T10:10:37Z</time>
      </trkpt>
      <trkpt lat="48.00076" lon="-0.45922">
        <ele>111</ele>
        <time>2023-10-07T10:10:38Z</time>
      </trkpt>
      <trkpt lat="48.00075" lon="-0.45913">
        <ele>111</ele>
        <time>2023-10-07T10:10:39Z</time>
      </trkpt>
      <trkpt lat="48.00074" lon="-0.45904">
        <ele>111</ele>
        <time>2023-10-07T10:10:40Z</time>
      </trkpt>
      <trkpt lat="48.00073" lon="-0.45895">
        <ele>109.4</ele>
        <time>2023-10-07T10:10:41Z</time>
      </trkpt>
      <trkpt lat="48.00072" lon="-0.45885">
        <ele>109.4</ele>
        <time>2023-10-07T10:10:42Z</time>
      </trkpt>
      <trkpt lat="48.00071" lon="-0.45876">
        <ele>109.4</ele>
        <time>2023-10-07T10:10:43Z</time>
      </trkpt>
      <trkpt lat="48.00069" lon="-0.45866">
        <ele>109.4</ele>
        <time>2023-10-07T10:10:44Z</time>
      </trkpt>
      <trkpt lat="48.00068" lon="-0.45857">
        <ele>109.6</ele>
        <time>2023-10-07T10:10:45Z</time>
      </trkpt>
      <trkpt lat="48.00066" lon="-0.45847">
        <ele>109.6</ele>
        <time>2023-10-07T10:10:46Z</time>
      </trkpt>
      <trkpt lat="48.00065" lon="-0.45837">
        <ele>109.6</ele>
        <time>2023-10-07T10:10:47Z</time>
      </trkpt>
      <trkpt lat="48.00064" lon="-0.45827">
        <ele>109.6</ele>
        <time>2023-10-07T10:10:48Z</time>
      </trkpt>
      <trkpt lat="48.00062" lon="-0.45817">
        <ele>109.4</ele>
        <time>2023-10-07T10:10:49Z</time>
      </trkpt>
      <trkpt lat="48.00061" lon="-0.45806">
        <ele>109.4</ele>
        <time>2023-10-07T10:10:50Z</time>
      </trkpt>
      <trkpt lat="48.0006" lon="-0.45796">
        <ele>109.4</ele>
        <time>2023-10-07T10:10:51Z</time>
      </trkpt>
      <trkpt lat="48.00059" lon="-0.45786">
        <ele>109</ele>
        <time>2023-10-07T10:10:52Z</time>
      </trkpt>
      <trkpt lat="48.00057" lon="-0.45776">
        <ele>107.8</ele>
        <time>2023-10-07T10:10:53Z</time>
      </trkpt>
      <trkpt lat="48.00056" lon="-0.45766">
        <ele>107.8</ele>
        <time>2023-10-07T10:10:54Z</time>
      </trkpt>
      <trkpt lat="48.00055" lon="-0.45756">
        <ele>107.8</ele>
        <time>2023-10-07T10:10:55Z</time>
      </trkpt>
      <trkpt lat="48.00055" lon="-0.45745">
        <ele>107.8</ele>
        <time>2023-10-07T10:10:56Z</time>
      </trkpt>
      <trkpt lat="48.00055" lon="-0.45735">
        <ele>107.4</ele>
        <time>2023-10-07T10:10:57Z</time>
      </trkpt>
      <trkpt lat="48.00055" lon="-0.45724">
        <ele>107.4</ele>
        <time>2023-10-07T10:10:58Z</time>
      </trkpt>
      <trkpt lat="48.00055" lon="-0.45714">
        <ele>107.4</ele>
        <time>2023-10-07T10:10:59Z</time>
      </trkpt>
      <trkpt lat="48.00056" lon="-0.45703">
        <ele>107.4</ele>
        <time>2023-10-07T10:11:00Z</time>
      </trkpt>
      <trkpt lat="48.00057" lon="-0.45692">
        <ele>107.4</ele>
        <time>2023-10-07T10:11:01Z</time>
      </trkpt>
      <trkpt lat="48.00058" lon="-0.45682">
        <ele>107.4</ele>
        <time>2023-10-07T10:11:02Z</time>
      </trkpt>
      <trkpt lat="48.00059" lon="-0.45671">
        <ele>107.4</ele>
        <time>2023-10-07T10:11:03Z</time>
      </trkpt>
      <trkpt lat="48.00061" lon="-0.45661">
        <ele>106.6</ele>
        <time>2023-10-07T10:11:04Z</time>
      </trkpt>
      <trkpt lat="48.00064" lon="-0.45651">
        <ele>106.4</ele>
        <time>2023-10-07T10:11:05Z</time>
      </trkpt>
      <trkpt lat="48.00066" lon="-0.45641">
        <ele>106.4</ele>
        <time>2023-10-07T10:11:06Z</time>
      </trkpt>
      <trkpt lat="48.00069" lon="-0.45631">
        <ele>106.4</ele>
        <time>2023-10-07T10:11:07Z</time>
      </trkpt>
      <trkpt lat="48.00071" lon="-0.45621">
        <ele>106.4</ele>
        <time>2023-10-07T10:11:08Z</time>
      </trkpt>
      <trkpt lat="48.00074" lon="-0.45611">
        <ele>105.2</ele>
        <time>2023-10-07T10:11:09Z</time>
      </trkpt>
      <trkpt lat="48.00077" lon="-0.45601">
        <ele>105.2</ele>
        <time>2023-10-07T10:11:10Z</time>
      </trkpt>
      <trkpt lat="48.0008" lon="-0.45591">
        <ele>105.2</ele>
        <time>2023-10-07T10:11:11Z</time>
      </trkpt>
      <trkpt lat="48.00084" lon="-0.45581">
        <ele>104.6</ele>
        <time>2023-10-07T10:11:12Z</time>
      </trkpt>
      <trkpt lat="48.00089" lon="-0.45572">
        <ele>105</ele>
        <time>2023-10-07T10:11:13Z</time>
      </trkpt>
      <trkpt lat="48.00094" lon="-0.45564">
        <ele>105</ele>
        <time>2023-10-07T10:11:14Z</time>
      </trkpt>
      <trkpt lat="48.001" lon="-0.45556">
        <ele>105</ele>
        <time>2023-10-07T10:11:15Z</time>
      </trkpt>
      <trkpt lat="48.00105" lon="-0.45548">
        <ele>104</ele>
        <time>2023-10-07T10:11:16Z</time>
      </trkpt>
      <trkpt lat="48.00111" lon="-0.4554">
        <ele>103.2</ele>
        <time>2023-10-07T10:11:17Z</time>
      </trkpt>
      <trkpt lat="48.00116" lon="-0.45532">
        <ele>103.2</ele>
        <time>2023-10-07T10:11:18Z</time>
      </trkpt>
      <trkpt lat="48.00121" lon="-0.45522">
        <ele>103.2</ele>
        <time>2023-10-07T10:11:19Z</time>
      </trkpt>
      <trkpt lat="48.00123" lon="-0.45512">
        <ele>104.2</ele>
        <time>2023-10-07T10:11:20Z</time>
      </trkpt>
      <trkpt lat="48.00124" lon="-0.45501">
        <ele>105</ele>
        <time>2023-10-07T10:11:21Z</time>
      </trkpt>
      <trkpt lat="48.00125" lon="-0.45491">
        <ele>105</ele>
        <time>2023-10-07T10:11:22Z</time>
      </trkpt>
      <trkpt lat="48.00124" lon="-0.45482">
        <ele>105</ele>
        <time>2023-10-07T10:11:23Z</time>
      </trkpt>
      <trkpt lat="48.00124" lon="-0.45472">
        <ele>105.6</ele>
        <time>2023-10-07T10:11:24Z</time>
      </trkpt>
      <trkpt lat="48.00123" lon="-0.45463">
        <ele>106</ele>
        <time>2023-10-07T10:11:25Z</time>
      </trkpt>
      <trkpt lat="48.00122" lon="-0.45455">
        <ele>106</ele>
        <time>2023-10-07T10:11:26Z</time>
      </trkpt>
      <trkpt lat="48.00121" lon="-0.45446">
        <ele>106</ele>
        <time>2023-10-07T10:11:27Z</time>
      </trkpt>
      <trkpt lat="48.00121" lon="-0.45438">
        <ele>107</ele>
        <time>2023-10-07T10:11:28Z</time>
      </trkpt>
      <trkpt lat="48.0012" lon="-0.4543">
        <ele>107</ele>
        <time>2023-10-07T10:11:29Z</time>
      </trkpt>
      <trkpt lat="48.00119" lon="-0.45422">
        <ele>107</ele>
        <time>2023-10-07T10:11:30Z</time>
      </trkpt>
      <trkpt lat="48.00119" lon="-0.45414">
        <ele>107</ele>
        <time>2023-10-07T10:11:31Z</time>
      </trkpt>
      <trkpt lat="48.00118" lon="-0.45405">
        <ele>107.8</ele>
        <time>2023-10-07T10:11:32Z</time>
      </trkpt>
      <trkpt lat="48.00117" lon="-0.45397">
        <ele>107.6</ele>
        <time>2023-10-07T10:11:33Z</time>
      </trkpt>
      <trkpt lat="48.00117" lon="-0.45389">
        <ele>107.6</ele>
        <time>2023-10-07T10:11:34Z</time>
      </trkpt>
      <trkpt lat="48.00116" lon="-0.45381">
        <ele>107.6</ele>
        <time>2023-10-07T10:11:35Z</time>
      </trkpt>
      <trkpt lat="48.00116" lon="-0.45373">
        <ele>108.4</ele>
        <time>2023-10-07T10:11:36Z</time>
      </trkpt>
      <trkpt lat="48.00115" lon="-0.45365">
        <ele>108.4</ele>
        <time>2023-10-07T10:11:37Z</time>
      </trkpt>
      <trkpt lat="48.00114" lon="-0.45357">
        <ele>108.4</ele>
        <time>2023-10-07T10:11:38Z</time>
      </trkpt>
      <trkpt lat="48.00113" lon="-0.45349">
        <ele>108.4</ele>
        <time>2023-10-07T10:11:39Z</time>
      </trkpt>
      <trkpt lat="48.00113" lon="-0.45341">
        <ele>108.4</ele>
        <time>2023-10-07T10:11:40Z</time>
      </trkpt>
      <trkpt lat="48.00112" lon="-0.45333">
        <ele>108.2</ele>
        <time>2023-10-07T10:11:41Z</time>
      </trkpt>
      <trkpt lat="48.00112" lon="-0.45325">
        <ele>108.2</ele>
        <time>2023-10-07T10:11:42Z</time>
      </trkpt>
      <trkpt lat="48.00113" lon="-0.45316">
        <ele>108.2</ele>
        <time>2023-10-07T10:11:43Z</time>
      </trkpt>
      <trkpt lat="48.00115" lon="-0.45308">
        <ele>109.2</ele>
        <time>2023-10-07T10:11:44Z</time>
      </trkpt>
      <trkpt lat="48.00118" lon="-0.45302">
        <ele>108.6</ele>
        <time>2023-10-07T10:11:45Z</time>
      </trkpt>
      <trkpt lat="48.00122" lon="-0.45297">
        <ele>108.6</ele>
        <time>2023-10-07T10:11:46Z</time>
      </trkpt>
      <trkpt lat="48.00126" lon="-0.45293">
        <ele>108.6</ele>
        <time>2023-10-07T10:11:47Z</time>
      </trkpt>
      <trkpt lat="48.00131" lon="-0.4529">
        <ele>109.6</ele>
        <time>2023-10-07T10:11:48Z</time>
      </trkpt>
      <trkpt lat="48.00136" lon="-0.45287">
        <ele>110.4</ele>
        <time>2023-10-07T10:11:49Z</time>
      </trkpt>
      <trkpt lat="48.00141" lon="-0.45285">
        <ele>110.4</ele>
        <time>2023-10-07T10:11:50Z</time>
      </trkpt>
      <trkpt lat="48.00146" lon="-0.45283">
        <ele>110.4</ele>
        <time>2023-10-07T10:11:51Z</time>
      </trkpt>
      <trkpt lat="48.00152" lon="-0.4528">
        <ele>111.4</ele>
        <time>2023-10-07T10:11:52Z</time>
      </trkpt>
      <trkpt lat="48.00157" lon="-0.45278">
        <ele>111.8</ele>
        <time>2023-10-07T10:11:53Z</time>
      </trkpt>
      <trkpt lat="48.00162" lon="-0.45276">
        <ele>111.8</ele>
        <time>2023-10-07T10:11:54Z</time>
      </trkpt>
      <trkpt lat="48.00166" lon="-0.45273">
        <ele>111.8</ele>
        <time>2023-10-07T10:11:55Z</time>
      </trkpt>
      <trkpt lat="48.00171" lon="-0.45271">
        <ele>112.8</ele>
        <time>2023-10-07T10:11:56Z</time>
      </trkpt>
      <trkpt lat="48.00176" lon="-0.45268">
        <ele>113</ele>
        <time>2023-10-07T10:11:57Z</time>
      </trkpt>
      <trkpt lat="48.0018" lon="-0.45265">
        <ele>113</ele>
        <time>2023-10-07T10:11:58Z</time>
      </trkpt>
      <trkpt lat="48.00184" lon="-0.45262">
        <ele>113</ele>
        <time>2023-10-07T10:11:59Z</time>
      </trkpt>
      <trkpt lat="48.00188" lon="-0.45259">
        <ele>113.6</ele>
        <time>2023-10-07T10:12:00Z</time>
      </trkpt>
      <trkpt lat="48.00192" lon="-0.45256">
        <ele>114</ele>
        <time>2023-10-07T10:12:01Z</time>
      </trkpt>
      <trkpt lat="48.00196" lon="-0.45252">
        <ele>114</ele>
        <time>2023-10-07T10:12:02Z</time>
      </trkpt>
      <trkpt lat="48.002" lon="-0.45248">
        <ele>114</ele>
        <time>2023-10-07T10:12:03Z</time>
      </trkpt>
      <trkpt lat="48.00203" lon="-0.45243">
        <ele>114.4</ele>
        <time>2023-10-07T10:12:04Z</time>
      </trkpt>
      <trkpt lat="48.00206" lon="-0.45238">
        <ele>114.6</ele>
        <time>2023-10-07T10:12:05Z</time>
      </trkpt>
      <trkpt lat="48.00208" lon="-0.45232">
        <ele>114.6</ele>
        <time>2023-10-07T10:12:06Z</time>
      </trkpt>
      <trkpt lat="48.0021" lon="-0.45226">
        <ele>114.6</ele>
        <time>2023-10-07T10:12:07Z</time>
      </trkpt>
      <trkpt lat="48.00211" lon="-0.4522">
        <ele>115.6</ele>
        <time>2023-10-07T10:12:08Z</time>
      </trkpt>
      <trkpt lat="48.00212" lon="-0.45213">
        <ele>115.6</ele>
        <time>2023-10-07T10:12:09Z</time>
      </trkpt>
      <trkpt lat="48.00213" lon="-0.45207">
        <ele>115.6</ele>
        <time>2023-10-07T10:12:10Z</time>
      </trkpt>
      <trkpt lat="48.00214" lon="-0.45201">
        <ele>115.6</ele>
        <time>2023-10-07T10:12:11Z</time>
      </trkpt>
      <trkpt lat="48.00215" lon="-0.45195">
        <ele>116.4</ele>
        <time>2023-10-07T10:12:12Z</time>
      </trkpt>
      <trkpt lat="48.00215" lon="-0.45188">
        <ele>116.6</ele>
        <time>2023-10-07T10:12:13Z</time>
      </trkpt>
      <trkpt lat="48.00216" lon="-0.45182">
        <ele>116.6</ele>
        <time>2023-10-07T10:12:14Z</time>
      </trkpt>
      <trkpt lat="48.00217" lon="-0.45175">
        <ele>116.6</ele>
        <time>2023-10-07T10:12:15Z</time>
      </trkpt>
      <trkpt lat="48.00216" lon="-0.45169">
        <ele>116.4</ele>
        <time>2023-10-07T10:12:16Z</time>
      </trkpt>
      <trkpt lat="48.00214" lon="-0.45164">
        <ele>116.2</ele>
        <time>2023-10-07T10:12:17Z</time>
      </trkpt>
      <trkpt lat="48.0021" lon="-0.4516">
        <ele>116.2</ele>
        <time>2023-10-07T10:12:18Z</time>
      </trkpt>
      <trkpt lat="48.00206" lon="-0.45157">
        <ele>116.2</ele>
        <time>2023-10-07T10:12:19Z</time>
      </trkpt>
      <trkpt lat="48.00201" lon="-0.45155">
        <ele>116.2</ele>
        <time>2023-10-07T10:12:20Z</time>
      </trkpt>
      <trkpt lat="48.00196" lon="-0.45152">
        <ele>116.2</ele>
        <time>2023-10-07T10:12:21Z</time>
      </trkpt>
      <trkpt lat="48.00191" lon="-0.4515">
        <ele>116.2</ele>
        <time>2023-10-07T10:12:22Z</time>
      </trkpt>
      <trkpt lat="48.00186" lon="-0.45147">
        <ele>116.2</ele>
        <time>2023-10-07T10:12:23Z</time>
      </trkpt>
      <trkpt lat="48.00181" lon="-0.45145">
        <ele>116.2</ele>
        <time>2023-10-07T10:12:24Z</time>
      </trkpt>
      <trkpt lat="48.00176" lon="-0.45143">
        <ele>115</ele>
        <time>2023-10-07T10:12:25Z</time>
      </trkpt>
      <trkpt lat="48.0017" lon="-0.45141">
        <ele>115</ele>
        <time>2023-10-07T10:12:26Z</time>
      </trkpt>
      <trkpt lat="48.00164" lon="-0.45138">
        <ele>115</ele>
        <time>2023-10-07T10:12:27Z</time>
      </trkpt>
      <trkpt lat="48.00159" lon="-0.45135">
        <ele>114</ele>
        <time>2023-10-07T10:12:28Z</time>
      </trkpt>
      <trkpt lat="48.00152" lon="-0.45132">
        <ele>113</ele>
        <time>2023-10-07T10:12:29Z</time>
      </trkpt>
      <trkpt lat="48.00146" lon="-0.45129">
        <ele>113</ele>
        <time>2023-10-07T10:12:30Z</time>
      </trkpt>
      <trkpt lat="48.0014" lon="-0.45126">
        <ele>113</ele>
        <time>2023-10-07T10:12:31Z</time>
      </trkpt>
      <trkpt lat="48.00133" lon="-0.45124">
        <ele>112</ele>
        <time>2023-10-07T10:12:32Z</time>
      </trkpt>
      <trkpt lat="48.00127" lon="-0.4512">
        <ele>112.2</ele>
        <time>2023-10-07T10:12:33Z</time>
      </trkpt>
      <trkpt lat="48.0012" lon="-0.45117">
        <ele>112.2</ele>
        <time>2023-10-07T10:12:34Z</time>
      </trkpt>
      <trkpt lat="48.00113" lon="-0.45114">
        <ele>112.2</ele>
        <time>2023-10-07T10:12:35Z</time>
      </trkpt>
      <trkpt lat="48.00106" lon="-0.4511">
        <ele>111.2</ele>
        <time>2023-10-07T10:12:36Z</time>
      </trkpt>
      <trkpt lat="48.00098" lon="-0.45107">
        <ele>109</ele>
        <time>2023-10-07T10:12:37Z</time>
      </trkpt>
      <trkpt lat="48.00091" lon="-0.45103">
        <ele>109</ele>
        <time>2023-10-07T10:12:38Z</time>
      </trkpt>
      <trkpt lat="48.00084" lon="-0.45099">
        <ele>109</ele>
        <time>2023-10-07T10:12:39Z</time>
      </trkpt>
      <trkpt lat="48.00076" lon="-0.45096">
        <ele>109</ele>
        <time>2023-10-07T10:12:40Z</time>
      </trkpt>
      <trkpt lat="48.00069" lon="-0.45092">
        <ele>108.2</ele>
        <time>2023-10-07T10:12:41Z</time>
      </trkpt>
      <trkpt lat="48.00062" lon="-0.45089">
        <ele>108.2</ele>
        <time>2023-10-07T10:12:42Z</time>
      </trkpt>
      <trkpt lat="48.00054" lon="-0.45086">
        <ele>108.2</ele>
        <time>2023-10-07T10:12:43Z</time>
      </trkpt>
      <trkpt lat="48.00048" lon="-0.45083">
        <ele>107.4</ele>
        <time>2023-10-07T10:12:44Z</time>
      </trkpt>
      <trkpt lat="48.00041" lon="-0.4508">
        <ele>107.8</ele>
        <time>2023-10-07T10:12:45Z</time>
      </trkpt>
      <trkpt lat="48.00033" lon="-0.45076">
        <ele>107.8</ele>
        <time>2023-10-07T10:12:46Z</time>
      </trkpt>
      <trkpt lat="48.00026" lon="-0.45073">
        <ele>107.8</ele>
        <time>2023-10-07T10:12:47Z</time>
      </trkpt>
      <trkpt lat="48.00019" lon="-0.4507">
        <ele>108.6</ele>
        <time>2023-10-07T10:12:48Z</time>
      </trkpt>
      <trkpt lat="48.00012" lon="-0.45066">
        <ele>108.4</ele>
        <time>2023-10-07T10:12:49Z</time>
      </trkpt>
      <trkpt lat="48.00005" lon="-0.45063">
        <ele>108.4</ele>
        <time>2023-10-07T10:12:50Z</time>
      </trkpt>
      <trkpt lat="47.99997" lon="-0.45059">
        <ele>108.4</ele>
        <time>2023-10-07T10:12:51Z</time>
      </trkpt>
      <trkpt lat="47.99989" lon="-0.45055">
        <ele>108.4</ele>
        <time>2023-10-07T10:12:52Z</time>
      </trkpt>
      <trkpt lat="47.99981" lon="-0.4505">
        <ele>108.2</ele>
        <time>2023-10-07T10:12:53Z</time>
      </trkpt>
      <trkpt lat="47.99973" lon="-0.45046">
        <ele>108.2</ele>
        <time>2023-10-07T10:12:54Z</time>
      </trkpt>
      <trkpt lat="47.99965" lon="-0.45042">
        <ele>108.2</ele>
        <time>2023-10-07T10:12:55Z</time>
      </trkpt>
      <trkpt lat="47.99957" lon="-0.45037">
        <ele>107.2</ele>
        <time>2023-10-07T10:12:56Z</time>
      </trkpt>
      <trkpt lat="47.99949" lon="-0.45033">
        <ele>105.8</ele>
        <time>2023-10-07T10:12:57Z</time>
      </trkpt>
      <trkpt lat="47.99941" lon="-0.45029">
        <ele>105.8</ele>
        <time>2023-10-07T10:12:58Z</time>
      </trkpt>
      <trkpt lat="47.99934" lon="-0.45025">
        <ele>105.8</ele>
        <time>2023-10-07T10:12:59Z</time>
      </trkpt>
      <trkpt lat="47.99926" lon="-0.45021">
        <ele>104.8</ele>
        <time>2023-10-07T10:13:00Z</time>
      </trkpt>
      <trkpt lat="47.99918" lon="-0.45017">
        <ele>104.6</ele>
        <time>2023-10-07T10:13:01Z</time>
      </trkpt>
      <trkpt lat="47.9991" lon="-0.45013">
        <ele>104.6</ele>
        <time>2023-10-07T10:13:02Z</time>
      </trkpt>
      <trkpt lat="47.99902" lon="-0.4501">
        <ele>104.6</ele>
        <time>2023-10-07T10:13:03Z</time>
      </trkpt>
      <trkpt lat="47.99895" lon="-0.45006">
        <ele>105</ele>
        <time>2023-10-07T10:13:04Z</time>
      </trkpt>
      <trkpt lat="47.99887" lon="-0.45002">
        <ele>104.4</ele>
        <time>2023-10-07T10:13:05Z</time>
      </trkpt>
      <trkpt lat="47.9988" lon="-0.44998">
        <ele>104.4</ele>
        <time>2023-10-07T10:13:06Z</time>
      </trkpt>
      <trkpt lat="47.99872" lon="-0.44994">
        <ele>104.4</ele>
        <time>2023-10-07T10:13:07Z</time>
      </trkpt>
      <trkpt lat="47.99865" lon="-0.44991">
        <ele>105.4</ele>
        <time>2023-10-07T10:13:08Z</time>
      </trkpt>
      <trkpt lat="47.99858" lon="-0.44987">
        <ele>106</ele>
        <time>2023-10-07T10:13:09Z</time>
      </trkpt>
      <trkpt lat="47.99852" lon="-0.44984">
        <ele>106</ele>
        <time>2023-10-07T10:13:10Z</time>
      </trkpt>
      <trkpt lat="47.99845" lon="-0.44981">
        <ele>106</ele>
        <time>2023-10-07T10:13:11Z</time>
      </trkpt>
      <trkpt lat="47.99838" lon="-0.44978">
        <ele>106</ele>
        <time>2023-10-07T10:13:12Z</time>
      </trkpt>
      <trkpt lat="47.99832" lon="-0.44974">
        <ele>106.4</ele>
        <time>2023-10-07T10:13:13Z</time>
      </trkpt>
      <trkpt lat="47.99825" lon="-0.44971">
        <ele>106.4</ele>
        <time>2023-10-07T10:13:14Z</time>
      </trkpt>
      <trkpt lat="47.99819" lon="-0.44968">
        <ele>106.4</ele>
        <time>2023-10-07T10:13:15Z</time>
      </trkpt>
      <trkpt lat="47.99812" lon="-0.44964">
        <ele>107.4</ele>
        <time>2023-10-07T10:13:16Z</time>
      </trkpt>
      <trkpt lat="47.99806" lon="-0.44961">
        <ele>107.6</ele>
        <time>2023-10-07T10:13:17Z</time>
      </trkpt>
      <trkpt lat="47.998" lon="-0.44958">
        <ele>107.6</ele>
        <time>2023-10-07T10:13:18Z</time>
      </trkpt>
      <trkpt lat="47.99794" lon="-0.44955">
        <ele>107.6</ele>
        <time>2023-10-07T10:13:19Z</time>
      </trkpt>
      <trkpt lat="47.99787" lon="-0.44951">
        <ele>107.6</ele>
        <time>2023-10-07T10:13:20Z</time>
      </trkpt>
      <trkpt lat="47.99781" lon="-0.44948">
        <ele>107.8</ele>
        <time>2023-10-07T10:13:21Z</time>
      </trkpt>
      <trkpt lat="47.99775" lon="-0.44945">
        <ele>107.8</ele>
        <time>2023-10-07T10:13:22Z</time>
      </trkpt>
      <trkpt lat="47.99769" lon="-0.44942">
        <ele>107.8</ele>
        <time>2023-10-07T10:13:23Z</time>
      </trkpt>
      <trkpt lat="47.99763" lon="-0.44939">
        <ele>106.8</ele>
        <time>2023-10-07T10:13:24Z</time>
      </trkpt>
      <trkpt lat="47.99757" lon="-0.44936">
        <ele>107</ele>
        <time>2023-10-07T10:13:25Z</time>
      </trkpt>
      <trkpt lat="47.9975" lon="-0.44933">
        <ele>107</ele>
        <time>2023-10-07T10:13:26Z</time>
      </trkpt>
      <trkpt lat="47.99744" lon="-0.4493">
        <ele>107</ele>
        <time>2023-10-07T10:13:27Z</time>
      </trkpt>
      <trkpt lat="47.99738" lon="-0.44926">
        <ele>107</ele>
        <time>2023-10-07T10:13:28Z</time>
      </trkpt>
      <trkpt lat="47.99731" lon="-0.44923">
        <ele>106.6</ele>
        <time>2023-10-07T10:13:29Z</time>
      </trkpt>
      <trkpt lat="47.99725" lon="-0.4492">
        <ele>106.6</ele>
        <time>2023-10-07T10:13:30Z</time>
      </trkpt>
      <trkpt lat="47.99718" lon="-0.44918">
        <ele>106.6</ele>
        <time>2023-10-07T10:13:31Z</time>
      </trkpt>
      <trkpt lat="47.99712" lon="-0.44915">
        <ele>106.6</ele>
        <time>2023-10-07T10:13:32Z</time>
      </trkpt>
      <trkpt lat="47.99705" lon="-0.44911">
        <ele>106.4</ele>
        <time>2023-10-07T10:13:33Z</time>
      </trkpt>
      <trkpt lat="47.99699" lon="-0.44908">
        <ele>106.4</ele>
        <time>2023-10-07T10:13:34Z</time>
      </trkpt>
      <trkpt lat="47.99692" lon="-0.44905">
        <ele>106.4</ele>
        <time>2023-10-07T10:13:35Z</time>
      </trkpt>
      <trkpt lat="47.99685" lon="-0.44902">
        <ele>106.4</ele>
        <time>2023-10-07T10:13:36Z</time>
      </trkpt>
      <trkpt lat="47.99679" lon="-0.44898">
        <ele>106.4</ele>
        <time>2023-10-07T10:13:37Z</time>
      </trkpt>
      <trkpt lat="47.99672" lon="-0.44895">
        <ele>106.4</ele>
        <time>2023-10-07T10:13:38Z</time>
      </trkpt>
      <trkpt lat="47.99665" lon="-0.44892">
        <ele>106.4</ele>
        <time>2023-10-07T10:13:39Z</time>
      </trkpt>
      <trkpt lat="47.99658" lon="-0.44889">
        <ele>105.4</ele>
        <time>2023-10-07T10:13:40Z</time>
      </trkpt>
      <trkpt lat="47.99652" lon="-0.44886">
        <ele>105</ele>
        <time>2023-10-07T10:13:41Z</time>
      </trkpt>
      <trkpt lat="47.99645" lon="-0.44883">
        <ele>105</ele>
        <time>2023-10-07T10:13:42Z</time>
      </trkpt>
      <trkpt lat="47.99638" lon="-0.44879">
        <ele>105</ele>
        <time>2023-10-07T10:13:43Z</time>
      </trkpt>
      <trkpt lat="47.99632" lon="-0.44876">
        <ele>104.8</ele>
        <time>2023-10-07T10:13:44Z</time>
      </trkpt>
      <trkpt lat="47.99625" lon="-0.44873">
        <ele>104.8</ele>
        <time>2023-10-07T10:13:45Z</time>
      </trkpt>
      <trkpt lat="47.99618" lon="-0.44869">
        <ele>104.8</ele>
        <time>2023-10-07T10:13:46Z</time>
      </trkpt>
      <trkpt lat="47.99611" lon="-0.44866">
        <ele>104.8</ele>
        <time>2023-10-07T10:13:47Z</time>
      </trkpt>
      <trkpt lat="47.99604" lon="-0.44862">
        <ele>104.8</ele>
        <time>2023-10-07T10:13:48Z</time>
      </trkpt>
      <trkpt lat="47.99598" lon="-0.44859">
        <ele>104.8</ele>
        <time>2023-10-07T10:13:49Z</time>
      </trkpt>
      <trkpt lat="47.99591" lon="-0.44856">
        <ele>104.8</ele>
        <time>2023-10-07T10:13:50Z</time>
      </trkpt>
      <trkpt lat="47.99585" lon="-0.44853">
        <ele>104.8</ele>
        <time>2023-10-07T10:13:51Z</time>
      </trkpt>
      <trkpt lat="47.99578" lon="-0.4485">
        <ele>105.6</ele>
        <time>2023-10-07T10:13:52Z</time>
      </trkpt>
      <trkpt lat="47.99572" lon="-0.44847">
        <ele>105.4</ele>
        <time>2023-10-07T10:13:53Z</time>
      </trkpt>
      <trkpt lat="47.99565" lon="-0.44844">
        <ele>105.4</ele>
        <time>2023-10-07T10:13:54Z</time>
      </trkpt>
      <trkpt lat="47.99559" lon="-0.44841">
        <ele>105.4</ele>
        <time>2023-10-07T10:13:55Z</time>
      </trkpt>
      <trkpt lat="47.99553" lon="-0.44838">
        <ele>104.4</ele>
        <time>2023-10-07T10:13:56Z</time>
      </trkpt>
      <trkpt lat="47.99546" lon="-0.44835">
        <ele>104.4</ele>
        <time>2023-10-07T10:13:57Z</time>
      </trkpt>
      <trkpt lat="47.9954" lon="-0.44832">
        <ele>104.4</ele>
        <time>2023-10-07T10:13:58Z</time>
      </trkpt>
      <trkpt lat="47.99533" lon="-0.44829">
        <ele>104.4</ele>
        <time>2023-10-07T10:13:59Z</time>
      </trkpt>
      <trkpt lat="47.99527" lon="-0.44825">
        <ele>105.4</ele>
        <time>2023-10-07T10:14:00Z</time>
      </trkpt>
      <trkpt lat="47.99521" lon="-0.44822">
        <ele>104.4</ele>
        <time>2023-10-07T10:14:01Z</time>
      </trkpt>
      <trkpt lat="47.99514" lon="-0.44819">
        <ele>104.4</ele>
        <time>2023-10-07T10:14:02Z</time>
      </trkpt>
      <trkpt lat="47.99508" lon="-0.44815">
        <ele>104.4</ele>
        <time>2023-10-07T10:14:03Z</time>
      </trkpt>
      <trkpt lat="47.99501" lon="-0.44812">
        <ele>104.8</ele>
        <time>2023-10-07T10:14:04Z</time>
      </trkpt>
      <trkpt lat="47.99495" lon="-0.44809">
        <ele>103.8</ele>
        <time>2023-10-07T10:14:05Z</time>
      </trkpt>
      <trkpt lat="47.99489" lon="-0.44807">
        <ele>103.8</ele>
        <time>2023-10-07T10:14:06Z</time>
      </trkpt>
      <trkpt lat="47.99483" lon="-0.44805">
        <ele>103.8</ele>
        <time>2023-10-07T10:14:07Z</time>
      </trkpt>
      <trkpt lat="47.99477" lon="-0.44802">
        <ele>104.6</ele>
        <time>2023-10-07T10:14:08Z</time>
      </trkpt>
      <trkpt lat="47.9947" lon="-0.44798">
        <ele>105</ele>
        <time>2023-10-07T10:14:09Z</time>
      </trkpt>
      <trkpt lat="47.99464" lon="-0.44794">
        <ele>105</ele>
        <time>2023-10-07T10:14:10Z</time>
      </trkpt>
      <trkpt lat="47.99458" lon="-0.44791">
        <ele>105</ele>
        <time>2023-10-07T10:14:11Z</time>
      </trkpt>
      <trkpt lat="47.99451" lon="-0.44787">
        <ele>104.4</ele>
        <time>2023-10-07T10:14:12Z</time>
      </trkpt>
      <trkpt lat="47.99445" lon="-0.44784">
        <ele>104.6</ele>
        <time>2023-10-07T10:14:13Z</time>
      </trkpt>
      <trkpt lat="47.99438" lon="-0.44781">
        <ele>104.6</ele>
        <time>2023-10-07T10:14:14Z</time>
      </trkpt>
      <trkpt lat="47.99432" lon="-0.44778">
        <ele>104.6</ele>
        <time>2023-10-07T10:14:15Z</time>
      </trkpt>
      <trkpt lat="47.99426" lon="-0.44775">
        <ele>104.6</ele>
        <time>2023-10-07T10:14:16Z</time>
      </trkpt>
      <trkpt lat="47.99419" lon="-0.44772">
        <ele>104.4</ele>
        <time>2023-10-07T10:14:17Z</time>
      </trkpt>
      <trkpt lat="47.99413" lon="-0.44768">
        <ele>104.4</ele>
        <time>2023-10-07T10:14:18Z</time>
      </trkpt>
      <trkpt lat="47.99407" lon="-0.44765">
        <ele>104.4</ele>
        <time>2023-10-07T10:14:19Z</time>
      </trkpt>
      <trkpt lat="47.994" lon="-0.44761">
        <ele>104.4</ele>
        <time>2023-10-07T10:14:20Z</time>
      </trkpt>
      <trkpt lat="47.99394" lon="-0.44758">
        <ele>104.4</ele>
        <time>2023-10-07T10:14:21Z</time>
      </trkpt>
      <trkpt lat="47.99388" lon="-0.44755">
        <ele>104.4</ele>
        <time>2023-10-07T10:14:22Z</time>
      </trkpt>
      <trkpt lat="47.99381" lon="-0.44752">
        <ele>104.4</ele>
        <time>2023-10-07T10:14:23Z</time>
      </trkpt>
      <trkpt lat="47.99375" lon="-0.4475">
        <ele>104</ele>
        <time>2023-10-07T10:14:24Z</time>
      </trkpt>
      <trkpt lat="47.99368" lon="-0.44747">
        <ele>103.4</ele>
        <time>2023-10-07T10:14:25Z</time>
      </trkpt>
      <trkpt lat="47.99362" lon="-0.44743">
        <ele>103.4</ele>
        <time>2023-10-07T10:14:26Z</time>
      </trkpt>
      <trkpt lat="47.99355" lon="-0.4474">
        <ele>103.4</ele>
        <time>2023-10-07T10:14:27Z</time>
      </trkpt>
      <trkpt lat="47.99349" lon="-0.44736">
        <ele>103.4</ele>
        <time>2023-10-07T10:14:28Z</time>
      </trkpt>
      <trkpt lat="47.99342" lon="-0.44733">
        <ele>103.8</ele>
        <time>2023-10-07T10:14:29Z</time>
      </trkpt>
      <trkpt lat="47.99335" lon="-0.44729">
        <ele>103.8</ele>
        <time>2023-10-07T10:14:30Z</time>
      </trkpt>
      <trkpt lat="47.99329" lon="-0.44726">
        <ele>103.8</ele>
        <time>2023-10-07T10:14:31Z</time>
      </trkpt>
      <trkpt lat="47.99322" lon="-0.44722">
        <ele>103.8</ele>
        <time>2023-10-07T10:14:32Z</time>
      </trkpt>
      <trkpt lat="47.99316" lon="-0.44719">
        <ele>104.4</ele>
        <time>2023-10-07T10:14:33Z</time>
      </trkpt>
      <trkpt lat="47.99309" lon="-0.44716">
        <ele>104.4</ele>
        <time>2023-10-07T10:14:34Z</time>
      </trkpt>
      <trkpt lat="47.99303" lon="-0.44712">
        <ele>104.4</ele>
        <time>2023-10-07T10:14:35Z</time>
      </trkpt>
      <trkpt lat="47.99296" lon="-0.44709">
        <ele>104.4</ele>
        <time>2023-10-07T10:14:36Z</time>
      </trkpt>
      <trkpt lat="47.9929" lon="-0.44706">
        <ele>104.8</ele>
        <time>2023-10-07T10:14:37Z</time>
      </trkpt>
      <trkpt lat="47.99283" lon="-0.44703">
        <ele>104.8</ele>
        <time>2023-10-07T10:14:38Z</time>
      </trkpt>
      <trkpt lat="47.99277" lon="-0.447">
        <ele>104.8</ele>
        <time>2023-10-07T10:14:39Z</time>
      </trkpt>
      <trkpt lat="47.9927" lon="-0.44697">
        <ele>104.6</ele>
        <time>2023-10-07T10:14:40Z</time>
      </trkpt>
      <trkpt lat="47.99263" lon="-0.44694">
        <ele>103.2</ele>
        <time>2023-10-07T10:14:41Z</time>
      </trkpt>
      <trkpt lat="47.99257" lon="-0.44691">
        <ele>103.2</ele>
        <time>2023-10-07T10:14:42Z</time>
      </trkpt>
      <trkpt lat="47.9925" lon="-0.44688">
        <ele>103.2</ele>
        <time>2023-10-07T10:14:43Z</time>
      </trkpt>
      <trkpt lat="47.99243" lon="-0.44684">
        <ele>102.4</ele>
        <time>2023-10-07T10:14:44Z</time>
      </trkpt>
      <trkpt lat="47.99237" lon="-0.44681">
        <ele>102.6</ele>
        <time>2023-10-07T10:14:45Z</time>
      </trkpt>
      <trkpt lat="47.9923" lon="-0.44678">
        <ele>102.6</ele>
        <time>2023-10-07T10:14:46Z</time>
      </trkpt>
      <trkpt lat="47.99223" lon="-0.44676">
        <ele>102.6</ele>
        <time>2023-10-07T10:14:47Z</time>
      </trkpt>
      <trkpt lat="47.99216" lon="-0.44673">
        <ele>102.2</ele>
        <time>2023-10-07T10:14:48Z</time>
      </trkpt>
      <trkpt lat="47.9921" lon="-0.4467">
        <ele>102.8</ele>
        <time>2023-10-07T10:14:49Z</time>
      </trkpt>
      <trkpt lat="47.99203" lon="-0.44667">
        <ele>102.8</ele>
        <time>2023-10-07T10:14:50Z</time>
      </trkpt>
      <trkpt lat="47.99196" lon="-0.44664">
        <ele>102.8</ele>
        <time>2023-10-07T10:14:51Z</time>
      </trkpt>
      <trkpt lat="47.99189" lon="-0.44661">
        <ele>102.4</ele>
        <time>2023-10-07T10:14:52Z</time>
      </trkpt>
      <trkpt lat="47.99183" lon="-0.44658">
        <ele>101</ele>
        <time>2023-10-07T10:14:53Z</time>
      </trkpt>
      <trkpt lat="47.99176" lon="-0.44656">
        <ele>101</ele>
        <time>2023-10-07T10:14:54Z</time>
      </trkpt>
      <trkpt lat="47.99169" lon="-0.44653">
        <ele>101</ele>
        <time>2023-10-07T10:14:55Z</time>
      </trkpt>
      <trkpt lat="47.99163" lon="-0.4465">
        <ele>100.8</ele>
        <time>2023-10-07T10:14:56Z</time>
      </trkpt>
      <trkpt lat="47.99156" lon="-0.44647">
        <ele>101.4</ele>
        <time>2023-10-07T10:14:57Z</time>
      </trkpt>
      <trkpt lat="47.99149" lon="-0.44644">
        <ele>101.4</ele>
        <time>2023-10-07T10:14:58Z</time>
      </trkpt>
      <trkpt lat="47.99142" lon="-0.44641">
        <ele>101.4</ele>
        <time>2023-10-07T10:14:59Z</time>
      </trkpt>
      <trkpt lat="47.99136" lon="-0.44638">
        <ele>100.4</ele>
        <time>2023-10-07T10:15:00Z</time>
      </trkpt>
      <trkpt lat="47.99129" lon="-0.44635">
        <ele>100.4</ele>
        <time>2023-10-07T10:15:01Z</time>
      </trkpt>
      <trkpt lat="47.99122" lon="-0.44632">
        <ele>100.4</ele>
        <time>2023-10-07T10:15:02Z</time>
      </trkpt>
      <trkpt lat="47.99115" lon="-0.44628">
        <ele>100.4</ele>
        <time>2023-10-07T10:15:03Z</time>
      </trkpt>
      <trkpt lat="47.99108" lon="-0.44625">
        <ele>100.4</ele>
        <time>2023-10-07T10:15:04Z</time>
      </trkpt>
      <trkpt lat="47.99101" lon="-0.44622">
        <ele>100.2</ele>
        <time>2023-10-07T10:15:05Z</time>
      </trkpt>
      <trkpt lat="47.99094" lon="-0.44619">
        <ele>100.2</ele>
        <time>2023-10-07T10:15:06Z</time>
      </trkpt>
      <trkpt lat="47.99087" lon="-0.44616">
        <ele>100.2</ele>
        <time>2023-10-07T10:15:07Z</time>
      </trkpt>
      <trkpt lat="47.9908" lon="-0.44613">
        <ele>99.4</ele>
        <time>2023-10-07T10:15:08Z</time>
      </trkpt>
      <trkpt lat="47.99072" lon="-0.44609">
        <ele>99.4</ele>
        <time>2023-10-07T10:15:09Z</time>
      </trkpt>
      <trkpt lat="47.99065" lon="-0.44606">
        <ele>99.4</ele>
        <time>2023-10-07T10:15:10Z</time>
      </trkpt>
      <trkpt lat="47.99058" lon="-0.44603">
        <ele>99.4</ele>
        <time>2023-10-07T10:15:11Z</time>
      </trkpt>
      <trkpt lat="47.99051" lon="-0.44599">
        <ele>98.4</ele>
        <time>2023-10-07T10:15:12Z</time>
      </trkpt>
      <trkpt lat="47.99043" lon="-0.44596">
        <ele>97.8</ele>
        <time>2023-10-07T10:15:13Z</time>
      </trkpt>
      <trkpt lat="47.99036" lon="-0.44593">
        <ele>97.8</ele>
        <time>2023-10-07T10:15:14Z</time>
      </trkpt>
      <trkpt lat="47.99029" lon="-0.44589">
        <ele>97.8</ele>
        <time>2023-10-07T10:15:15Z</time>
      </trkpt>
      <trkpt lat="47.99021" lon="-0.44586">
        <ele>97</ele>
        <time>2023-10-07T10:15:16Z</time>
      </trkpt>
      <trkpt lat="47.99013" lon="-0.44583">
        <ele>96.4</ele>
        <time>2023-10-07T10:15:17Z</time>
      </trkpt>
      <trkpt lat="47.99006" lon="-0.44579">
        <ele>96.4</ele>
        <time>2023-10-07T10:15:18Z</time>
      </trkpt>
      <trkpt lat="47.98998" lon="-0.44576">
        <ele>96.4</ele>
        <time>2023-10-07T10:15:19Z</time>
      </trkpt>
      <trkpt lat="47.9899" lon="-0.44573">
        <ele>96.4</ele>
        <time>2023-10-07T10:15:20Z</time>
      </trkpt>
      <trkpt lat="47.98982" lon="-0.44569">
        <ele>95</ele>
        <time>2023-10-07T10:15:21Z</time>
      </trkpt>
      <trkpt lat="47.98973" lon="-0.44566">
        <ele>95</ele>
        <time>2023-10-07T10:15:22Z</time>
      </trkpt>
      <trkpt lat="47.98965" lon="-0.44562">
        <ele>95</ele>
        <time>2023-10-07T10:15:23Z</time>
      </trkpt>
      <trkpt lat="47.98957" lon="-0.44558">
        <ele>94</ele>
        <time>2023-10-07T10:15:24Z</time>
      </trkpt>
      <trkpt lat="47.98948" lon="-0.44554">
        <ele>92.8</ele>
        <time>2023-10-07T10:15:25Z</time>
      </trkpt>
      <trkpt lat="47.9894" lon="-0.4455">
        <ele>92.8</ele>
        <time>2023-10-07T10:15:26Z</time>
      </trkpt>
      <trkpt lat="47.98931" lon="-0.44547">
        <ele>92.8</ele>
        <time>2023-10-07T10:15:27Z</time>
      </trkpt>
      <trkpt lat="47.98923" lon="-0.44543">
        <ele>91.8</ele>
        <time>2023-10-07T10:15:28Z</time>
      </trkpt>
      <trkpt lat="47.98914" lon="-0.44539">
        <ele>91</ele>
        <time>2023-10-07T10:15:29Z</time>
      </trkpt>
      <trkpt lat="47.98906" lon="-0.44536">
        <ele>91</ele>
        <time>2023-10-07T10:15:30Z</time>
      </trkpt>
      <trkpt lat="47.98898" lon="-0.44532">
        <ele>91</ele>
        <time>2023-10-07T10:15:31Z</time>
      </trkpt>
      <trkpt lat="47.9889" lon="-0.44529">
        <ele>90.6</ele>
        <time>2023-10-07T10:15:32Z</time>
      </trkpt>
      <trkpt lat="47.98882" lon="-0.44525">
        <ele>91.2</ele>
        <time>2023-10-07T10:15:33Z</time>
      </trkpt>
      <trkpt lat="47.98875" lon="-0.44522">
        <ele>91.2</ele>
        <time>2023-10-07T10:15:34Z</time>
      </trkpt>
      <trkpt lat="47.98868" lon="-0.44519">
        <ele>91.2</ele>
        <time>2023-10-07T10:15:35Z</time>
      </trkpt>
      <trkpt lat="47.98861" lon="-0.44516">
        <ele>92.2</ele>
        <time>2023-10-07T10:15:36Z</time>
      </trkpt>
      <trkpt lat="47.98854" lon="-0.44513">
        <ele>93.4</ele>
        <time>2023-10-07T10:15:37Z</time>
      </trkpt>
      <trkpt lat="47.98847" lon="-0.4451">
        <ele>93.4</ele>
        <time>2023-10-07T10:15:38Z</time>
      </trkpt>
      <trkpt lat="47.98841" lon="-0.44507">
        <ele>93.4</ele>
        <time>2023-10-07T10:15:39Z</time>
      </trkpt>
      <trkpt lat="47.98835" lon="-0.44504">
        <ele>94.4</ele>
        <time>2023-10-07T10:15:40Z</time>
      </trkpt>
      <trkpt lat="47.98828" lon="-0.44501">
        <ele>94.8</ele>
        <time>2023-10-07T10:15:41Z</time>
      </trkpt>
      <trkpt lat="47.98822" lon="-0.44499">
        <ele>94.8</ele>
        <time>2023-10-07T10:15:42Z</time>
      </trkpt>
      <trkpt lat="47.98816" lon="-0.44497">
        <ele>94.8</ele>
        <time>2023-10-07T10:15:43Z</time>
      </trkpt>
      <trkpt lat="47.9881" lon="-0.44494">
        <ele>95.8</ele>
        <time>2023-10-07T10:15:44Z</time>
      </trkpt>
      <trkpt lat="47.98804" lon="-0.44491">
        <ele>95.6</ele>
        <time>2023-10-07T10:15:45Z</time>
      </trkpt>
      <trkpt lat="47.98798" lon="-0.44488">
        <ele>95.6</ele>
        <time>2023-10-07T10:15:46Z</time>
      </trkpt>
      <trkpt lat="47.98792" lon="-0.44486">
        <ele>95.6</ele>
        <time>2023-10-07T10:15:47Z</time>
      </trkpt>
      <trkpt lat="47.98786" lon="-0.44483">
        <ele>96</ele>
        <time>2023-10-07T10:15:48Z</time>
      </trkpt>
      <trkpt lat="47.98779" lon="-0.4448">
        <ele>95.4</ele>
        <time>2023-10-07T10:15:49Z</time>
      </trkpt>
      <trkpt lat="47.98773" lon="-0.44478">
        <ele>95.4</ele>
        <time>2023-10-07T10:15:50Z</time>
      </trkpt>
      <trkpt lat="47.98767" lon="-0.44474">
        <ele>95.4</ele>
        <time>2023-10-07T10:15:51Z</time>
      </trkpt>
      <trkpt lat="47.9876" lon="-0.44471">
        <ele>96</ele>
        <time>2023-10-07T10:15:52Z</time>
      </trkpt>
      <trkpt lat="47.98754" lon="-0.44469">
        <ele>96.2</ele>
        <time>2023-10-07T10:15:53Z</time>
      </trkpt>
      <trkpt lat="47.98748" lon="-0.44466">
        <ele>96.2</ele>
        <time>2023-10-07T10:15:54Z</time>
      </trkpt>
      <trkpt lat="47.98741" lon="-0.44463">
        <ele>96.2</ele>
        <time>2023-10-07T10:15:55Z</time>
      </trkpt>
      <trkpt lat="47.98735" lon="-0.4446">
        <ele>96.6</ele>
        <time>2023-10-07T10:15:56Z</time>
      </trkpt>
      <trkpt lat="47.98729" lon="-0.44457">
        <ele>97.8</ele>
        <time>2023-10-07T10:15:57Z</time>
      </trkpt>
      <trkpt lat="47.98723" lon="-0.44454">
        <ele>97.8</ele>
        <time>2023-10-07T10:15:58Z</time>
      </trkpt>
      <trkpt lat="47.98717" lon="-0.44451">
        <ele>97.8</ele>
        <time>2023-10-07T10:15:59Z</time>
      </trkpt>
      <trkpt lat="47.98711" lon="-0.44449">
        <ele>97.4</ele>
        <time>2023-10-07T10:16:00Z</time>
      </trkpt>
      <trkpt lat="47.98705" lon="-0.44446">
        <ele>97.4</ele>
        <time>2023-10-07T10:16:01Z</time>
      </trkpt>
      <trkpt lat="47.98699" lon="-0.44444">
        <ele>97.4</ele>
        <time>2023-10-07T10:16:02Z</time>
      </trkpt>
      <trkpt lat="47.98693" lon="-0.44441">
        <ele>97.4</ele>
        <time>2023-10-07T10:16:03Z</time>
      </trkpt>
      <trkpt lat="47.98687" lon="-0.44439">
        <ele>97.4</ele>
        <time>2023-10-07T10:16:04Z</time>
      </trkpt>
      <trkpt lat="47.9868" lon="-0.44436">
        <ele>97.6</ele>
        <time>2023-10-07T10:16:05Z</time>
      </trkpt>
      <trkpt lat="47.98674" lon="-0.44434">
        <ele>97.6</ele>
        <time>2023-10-07T10:16:06Z</time>
      </trkpt>
      <trkpt lat="47.98668" lon="-0.44431">
        <ele>97.6</ele>
        <time>2023-10-07T10:16:07Z</time>
      </trkpt>
      <trkpt lat="47.98662" lon="-0.44428">
        <ele>97.6</ele>
        <time>2023-10-07T10:16:08Z</time>
      </trkpt>
      <trkpt lat="47.98656" lon="-0.44425">
        <ele>97</ele>
        <time>2023-10-07T10:16:09Z</time>
      </trkpt>
      <trkpt lat="47.9865" lon="-0.44422">
        <ele>97</ele>
        <time>2023-10-07T10:16:10Z</time>
      </trkpt>
      <trkpt lat="47.98644" lon="-0.44419">
        <ele>97</ele>
        <time>2023-10-07T10:16:11Z</time>
      </trkpt>
      <trkpt lat="47.98637" lon="-0.44417">
        <ele>97</ele>
        <time>2023-10-07T10:16:12Z</time>
      </trkpt>
      <trkpt lat="47.98631" lon="-0.44414">
        <ele>95.8</ele>
        <time>2023-10-07T10:16:13Z</time>
      </trkpt>
      <trkpt lat="47.98625" lon="-0.44411">
        <ele>95.8</ele>
        <time>2023-10-07T10:16:14Z</time>
      </trkpt>
      <trkpt lat="47.98619" lon="-0.44408">
        <ele>95.8</ele>
        <time>2023-10-07T10:16:15Z</time>
      </trkpt>
      <trkpt lat="47.98613" lon="-0.44406">
        <ele>95.8</ele>
        <time>2023-10-07T10:16:16Z</time>
      </trkpt>
      <trkpt lat="47.98607" lon="-0.44403">
        <ele>95.6</ele>
        <time>2023-10-07T10:16:17Z</time>
      </trkpt>
      <trkpt lat="47.98601" lon="-0.44401">
        <ele>95.6</ele>
        <time>2023-10-07T10:16:18Z</time>
      </trkpt>
      <trkpt lat="47.98594" lon="-0.44398">
        <ele>95.6</ele>
        <time>2023-10-07T10:16:19Z</time>
      </trkpt>
      <trkpt lat="47.98588" lon="-0.44395">
        <ele>95.6</ele>
        <time>2023-10-07T10:16:20Z</time>
      </trkpt>
      <trkpt lat="47.98581" lon="-0.44392">
        <ele>94.6</ele>
        <time>2023-10-07T10:16:21Z</time>
      </trkpt>
      <trkpt lat="47.98575" lon="-0.44389">
        <ele>94.6</ele>
        <time>2023-10-07T10:16:22Z</time>
      </trkpt>
      <trkpt lat="47.98568" lon="-0.44386">
        <ele>94.6</ele>
        <time>2023-10-07T10:16:23Z</time>
      </trkpt>
      <trkpt lat="47.98561" lon="-0.44383">
        <ele>94.6</ele>
        <time>2023-10-07T10:16:24Z</time>
      </trkpt>
      <trkpt lat="47.98554" lon="-0.4438">
        <ele>93.8</ele>
        <time>2023-10-07T10:16:25Z</time>
      </trkpt>
      <trkpt lat="47.98547" lon="-0.44376">
        <ele>93.8</ele>
        <time>2023-10-07T10:16:26Z</time>
      </trkpt>
      <trkpt lat="47.9854" lon="-0.44373">
        <ele>93.8</ele>
        <time>2023-10-07T10:16:27Z</time>
      </trkpt>
      <trkpt lat="47.98533" lon="-0.4437">
        <ele>93.8</ele>
        <time>2023-10-07T10:16:28Z</time>
      </trkpt>
      <trkpt lat="47.98526" lon="-0.44366">
        <ele>92.2</ele>
        <time>2023-10-07T10:16:29Z</time>
      </trkpt>
      <trkpt lat="47.98519" lon="-0.44363">
        <ele>92.2</ele>
        <time>2023-10-07T10:16:30Z</time>
      </trkpt>
      <trkpt lat="47.98512" lon="-0.4436">
        <ele>92.2</ele>
        <time>2023-10-07T10:16:31Z</time>
      </trkpt>
      <trkpt lat="47.98505" lon="-0.44357">
        <ele>92</ele>
        <time>2023-10-07T10:16:32Z</time>
      </trkpt>
      <trkpt lat="47.98498" lon="-0.44354">
        <ele>92</ele>
        <time>2023-10-07T10:16:33Z</time>
      </trkpt>
      <trkpt lat="47.98491" lon="-0.44351">
        <ele>92</ele>
        <time>2023-10-07T10:16:34Z</time>
      </trkpt>
      <trkpt lat="47.98484" lon="-0.44348">
        <ele>92</ele>
        <time>2023-10-07T10:16:35Z</time>
      </trkpt>
      <trkpt lat="47.98477" lon="-0.44345">
        <ele>92</ele>
        <time>2023-10-07T10:16:36Z</time>
      </trkpt>
      <trkpt lat="47.9847" lon="-0.44342">
        <ele>92.4</ele>
        <time>2023-10-07T10:16:37Z</time>
      </trkpt>
      <trkpt lat="47.98464" lon="-0.44339">
        <ele>92.4</ele>
        <time>2023-10-07T10:16:38Z</time>
      </trkpt>
      <trkpt lat="47.98457" lon="-0.44336">
        <ele>92.4</ele>
        <time>2023-10-07T10:16:39Z</time>
      </trkpt>
      <trkpt lat="47.98451" lon="-0.44333">
        <ele>92.4</ele>
        <time>2023-10-07T10:16:40Z</time>
      </trkpt>
      <trkpt lat="47.98445" lon="-0.4433">
        <ele>93</ele>
        <time>2023-10-07T10:16:41Z</time>
      </trkpt>
      <trkpt lat="47.98438" lon="-0.44327">
        <ele>93</ele>
        <time>2023-10-07T10:16:42Z</time>
      </trkpt>
      <trkpt lat="47.98432" lon="-0.44325">
        <ele>93</ele>
        <time>2023-10-07T10:16:43Z</time>
      </trkpt>
      <trkpt lat="47.98425" lon="-0.44323">
        <ele>93</ele>
        <time>2023-10-07T10:16:44Z</time>
      </trkpt>
      <trkpt lat="47.98419" lon="-0.44321">
        <ele>93.6</ele>
        <time>2023-10-07T10:16:45Z</time>
      </trkpt>
      <trkpt lat="47.98412" lon="-0.44319">
        <ele>93.6</ele>
        <time>2023-10-07T10:16:46Z</time>
      </trkpt>
      <trkpt lat="47.98406" lon="-0.44317">
        <ele>93.6</ele>
        <time>2023-10-07T10:16:47Z</time>
      </trkpt>
      <trkpt lat="47.98399" lon="-0.44315">
        <ele>92.6</ele>
        <time>2023-10-07T10:16:48Z</time>
      </trkpt>
      <trkpt lat="47.98392" lon="-0.44313">
        <ele>93.2</ele>
        <time>2023-10-07T10:16:49Z</time>
      </trkpt>
      <trkpt lat="47.98386" lon="-0.44312">
        <ele>93.2</ele>
        <time>2023-10-07T10:16:50Z</time>
      </trkpt>
      <trkpt lat="47.98379" lon="-0.4431">
        <ele>93.2</ele>
        <time>2023-10-07T10:16:51Z</time>
      </trkpt>
      <trkpt lat="47.98372" lon="-0.44309">
        <ele>92.6</ele>
        <time>2023-10-07T10:16:52Z</time>
      </trkpt>
      <trkpt lat="47.98366" lon="-0.44308">
        <ele>92.4</ele>
        <time>2023-10-07T10:16:53Z</time>
      </trkpt>
      <trkpt lat="47.98359" lon="-0.44307">
        <ele>92.4</ele>
        <time>2023-10-07T10:16:54Z</time>
      </trkpt>
      <trkpt lat="47.98353" lon="-0.44306">
        <ele>92.4</ele>
        <time>2023-10-07T10:16:55Z</time>
      </trkpt>
      <trkpt lat="47.98346" lon="-0.44305">
        <ele>93</ele>
        <time>2023-10-07T10:16:56Z</time>
      </trkpt>
      <trkpt lat="47.9834" lon="-0.44305">
        <ele>93.4</ele>
        <time>2023-10-07T10:16:57Z</time>
      </trkpt>
      <trkpt lat="47.98333" lon="-0.44305">
        <ele>93.4</ele>
        <time>2023-10-07T10:16:58Z</time>
      </trkpt>
      <trkpt lat="47.98327" lon="-0.44305">
        <ele>93.4</ele>
        <time>2023-10-07T10:16:59Z</time>
      </trkpt>
      <trkpt lat="47.9832" lon="-0.44305">
        <ele>93.2</ele>
        <time>2023-10-07T10:17:00Z</time>
      </trkpt>
      <trkpt lat="47.98314" lon="-0.44304">
        <ele>92.8</ele>
        <time>2023-10-07T10:17:01Z</time>
      </trkpt>
      <trkpt lat="47.98307" lon="-0.44304">
        <ele>92.8</ele>
        <time>2023-10-07T10:17:02Z</time>
      </trkpt>
      <trkpt lat="47.98301" lon="-0.44304">
        <ele>92.8</ele>
        <time>2023-10-07T10:17:03Z</time>
      </trkpt>
      <trkpt lat="47.98295" lon="-0.44305">
        <ele>93.8</ele>
        <time>2023-10-07T10:17:04Z</time>
      </trkpt>
      <trkpt lat="47.98289" lon="-0.44305">
        <ele>94.2</ele>
        <time>2023-10-07T10:17:05Z</time>
      </trkpt>
      <trkpt lat="47.98283" lon="-0.44305">
        <ele>94.2</ele>
        <time>2023-10-07T10:17:06Z</time>
      </trkpt>
      <trkpt lat="47.98276" lon="-0.44306">
        <ele>94.2</ele>
        <time>2023-10-07T10:17:07Z</time>
      </trkpt>
      <trkpt lat="47.9827" lon="-0.44306">
        <ele>94.2</ele>
        <time>2023-10-07T10:17:08Z</time>
      </trkpt>
      <trkpt lat="47.98264" lon="-0.44307">
        <ele>94</ele>
        <time>2023-10-07T10:17:09Z</time>
      </trkpt>
      <trkpt lat="47.98258" lon="-0.44308">
        <ele>94</ele>
        <time>2023-10-07T10:17:10Z</time>
      </trkpt>
      <trkpt lat="47.98252" lon="-0.44309">
        <ele>94</ele>
        <time>2023-10-07T10:17:11Z</time>
      </trkpt>
      <trkpt lat="47.98246" lon="-0.4431">
        <ele>94.4</ele>
        <time>2023-10-07T10:17:12Z</time>
      </trkpt>
      <trkpt lat="47.9824" lon="-0.44311">
        <ele>94.8</ele>
        <time>2023-10-07T10:17:13Z</time>
      </trkpt>
      <trkpt lat="47.98234" lon="-0.44312">
        <ele>94.8</ele>
        <time>2023-10-07T10:17:14Z</time>
      </trkpt>
      <trkpt lat="47.98228" lon="-0.44312">
        <ele>94.8</ele>
        <time>2023-10-07T10:17:15Z</time>
      </trkpt>
      <trkpt lat="47.98222" lon="-0.44313">
        <ele>94.8</ele>
        <time>2023-10-07T10:17:16Z</time>
      </trkpt>
      <trkpt lat="47.98217" lon="-0.44315">
        <ele>94.6</ele>
        <time>2023-10-07T10:17:17Z</time>
      </trkpt>
      <trkpt lat="47.98211" lon="-0.44316">
        <ele>94.6</ele>
        <time>2023-10-07T10:17:18Z</time>
      </trkpt>
      <trkpt lat="47.98205" lon="-0.44317">
        <ele>94.6</ele>
        <time>2023-10-07T10:17:19Z</time>
      </trkpt>
      <trkpt lat="47.98199" lon="-0.44318">
        <ele>94.8</ele>
        <time>2023-10-07T10:17:20Z</time>
      </trkpt>
      <trkpt lat="47.98193" lon="-0.44319">
        <ele>94.8</ele>
        <time>2023-10-07T10:17:21Z</time>
      </trkpt>
      <trkpt lat="47.98187" lon="-0.44321">
        <ele>94.8</ele>
        <time>2023-10-07T10:17:22Z</time>
      </trkpt>
      <trkpt lat="47.98181" lon="-0.44322">
        <ele>94.8</ele>
        <time>2023-10-07T10:17:23Z</time>
      </trkpt>
      <trkpt lat="47.98176" lon="-0.44323">
        <ele>94.8</ele>
        <time>2023-10-07T10:17:24Z</time>
      </trkpt>
      <trkpt lat="47.9817" lon="-0.44324">
        <ele>94.6</ele>
        <time>2023-10-07T10:17:25Z</time>
      </trkpt>
      <trkpt lat="47.98164" lon="-0.44325">
        <ele>94.6</ele>
        <time>2023-10-07T10:17:26Z</time>
      </trkpt>
      <trkpt lat="47.98158" lon="-0.44326">
        <ele>94.6</ele>
        <time>2023-10-07T10:17:27Z</time>
      </trkpt>
      <trkpt lat="47.98152" lon="-0.44327">
        <ele>94.6</ele>
        <time>2023-10-07T10:17:28Z</time>
      </trkpt>
      <trkpt lat="47.98146" lon="-0.44328">
        <ele>94.8</ele>
        <time>2023-10-07T10:17:29Z</time>
      </trkpt>
      <trkpt lat="47.98141" lon="-0.44329">
        <ele>94.8</ele>
        <time>2023-10-07T10:17:30Z</time>
      </trkpt>
      <trkpt lat="47.98135" lon="-0.4433">
        <ele>94.8</ele>
        <time>2023-10-07T10:17:31Z</time>
      </trkpt>
      <trkpt lat="47.98129" lon="-0.44332">
        <ele>94.2</ele>
        <time>2023-10-07T10:17:32Z</time>
      </trkpt>
      <trkpt lat="47.98123" lon="-0.44333">
        <ele>94.4</ele>
        <time>2023-10-07T10:17:33Z</time>
      </trkpt>
      <trkpt lat="47.98117" lon="-0.44334">
        <ele>94.4</ele>
        <time>2023-10-07T10:17:34Z</time>
      </trkpt>
      <trkpt lat="47.98111" lon="-0.44335">
        <ele>94.4</ele>
        <time>2023-10-07T10:17:35Z</time>
      </trkpt>
      <trkpt lat="47.98105" lon="-0.44335">
        <ele>94.4</ele>
        <time>2023-10-07T10:17:36Z</time>
      </trkpt>
      <trkpt lat="47.98099" lon="-0.44337">
        <ele>94.4</ele>
        <time>2023-10-07T10:17:37Z</time>
      </trkpt>
      <trkpt lat="47.98094" lon="-0.44338">
        <ele>94.4</ele>
        <time>2023-10-07T10:17:38Z</time>
      </trkpt>
      <trkpt lat="47.98088" lon="-0.44339">
        <ele>94.4</ele>
        <time>2023-10-07T10:17:39Z</time>
      </trkpt>
      <trkpt lat="47.98082" lon="-0.44341">
        <ele>94.4</ele>
        <time>2023-10-07T10:17:40Z</time>
      </trkpt>
      <trkpt lat="47.98076" lon="-0.44342">
        <ele>93.6</ele>
        <time>2023-10-07T10:17:41Z</time>
      </trkpt>
      <trkpt lat="47.9807" lon="-0.44344">
        <ele>93.6</ele>
        <time>2023-10-07T10:17:42Z</time>
      </trkpt>
      <trkpt lat="47.98064" lon="-0.44346">
        <ele>93.6</ele>
        <time>2023-10-07T10:17:43Z</time>
      </trkpt>
      <trkpt lat="47.98058" lon="-0.44349">
        <ele>93.6</ele>
        <time>2023-10-07T10:17:44Z</time>
      </trkpt>
      <trkpt lat="47.98053" lon="-0.44353">
        <ele>94.6</ele>
        <time>2023-10-07T10:17:45Z</time>
      </trkpt>
      <trkpt lat="47.98048" lon="-0.44358">
        <ele>94.6</ele>
        <time>2023-10-07T10:17:46Z</time>
      </trkpt>
      <trkpt lat="47.98043" lon="-0.44362">
        <ele>94.6</ele>
        <time>2023-10-07T10:17:47Z</time>
      </trkpt>
      <trkpt lat="47.98037" lon="-0.44364">
        <ele>94.6</ele>
        <time>2023-10-07T10:17:48Z</time>
      </trkpt>
      <trkpt lat="47.98031" lon="-0.44364">
        <ele>93.8</ele>
        <time>2023-10-07T10:17:49Z</time>
      </trkpt>
      <trkpt lat="47.98026" lon="-0.44361">
        <ele>93.8</ele>
        <time>2023-10-07T10:17:50Z</time>
      </trkpt>
      <trkpt lat="47.98022" lon="-0.44356">
        <ele>93.8</ele>
        <time>2023-10-07T10:17:51Z</time>
      </trkpt>
      <trkpt lat="47.98017" lon="-0.44349">
        <ele>94.2</ele>
        <time>2023-10-07T10:17:52Z</time>
      </trkpt>
      <trkpt lat="47.98013" lon="-0.44342">
        <ele>93.6</ele>
        <time>2023-10-07T10:17:53Z</time>
      </trkpt>
      <trkpt lat="47.98009" lon="-0.44335">
        <ele>93.6</ele>
        <time>2023-10-07T10:17:54Z</time>
      </trkpt>
      <trkpt lat="47.98005" lon="-0.44328">
        <ele>93.6</ele>
        <time>2023-10-07T10:17:55Z</time>
      </trkpt>
      <trkpt lat="47.98" lon="-0.44322">
        <ele>93.6</ele>
        <time>2023-10-07T10:17:56Z</time>
      </trkpt>
      <trkpt lat="47.97995" lon="-0.44317">
        <ele>93.6</ele>
        <time>2023-10-07T10:17:57Z</time>
      </trkpt>
      <trkpt lat="47.9799" lon="-0.44313">
        <ele>93.6</ele>
        <time>2023-10-07T10:17:58Z</time>
      </trkpt>
      <trkpt lat="47.97984" lon="-0.44308">
        <ele>93.6</ele>
        <time>2023-10-07T10:17:59Z</time>
      </trkpt>
      <trkpt lat="47.97979" lon="-0.44304">
        <ele>93.6</ele>
        <time>2023-10-07T10:18:00Z</time>
      </trkpt>
      <trkpt lat="47.97973" lon="-0.44301">
        <ele>93.2</ele>
        <time>2023-10-07T10:18:01Z</time>
      </trkpt>
      <trkpt lat="47.97967" lon="-0.44297">
        <ele>93.2</ele>
        <time>2023-10-07T10:18:02Z</time>
      </trkpt>
      <trkpt lat="47.97962" lon="-0.44294">
        <ele>93.2</ele>
        <time>2023-10-07T10:18:03Z</time>
      </trkpt>
      <trkpt lat="47.97956" lon="-0.4429">
        <ele>93.2</ele>
        <time>2023-10-07T10:18:04Z</time>
      </trkpt>
      <trkpt lat="47.97951" lon="-0.44287">
        <ele>92.6</ele>
        <time>2023-10-07T10:18:05Z</time>
      </trkpt>
      <trkpt lat="47.97946" lon="-0.44284">
        <ele>92.6</ele>
        <time>2023-10-07T10:18:06Z</time>
      </trkpt>
      <trkpt lat="47.9794" lon="-0.44282">
        <ele>92.6</ele>
        <time>2023-10-07T10:18:07Z</time>
      </trkpt>
      <trkpt lat="47.97935" lon="-0.44279">
        <ele>92.6</ele>
        <time>2023-10-07T10:18:08Z</time>
      </trkpt>
      <trkpt lat="47.97929" lon="-0.44276">
        <ele>92.4</ele>
        <time>2023-10-07T10:18:09Z</time>
      </trkpt>
      <trkpt lat="47.97924" lon="-0.44271">
        <ele>92.4</ele>
        <time>2023-10-07T10:18:10Z</time>
      </trkpt>
      <trkpt lat="47.97918" lon="-0.44268">
        <ele>92.4</ele>
        <time>2023-10-07T10:18:11Z</time>
      </trkpt>
      <trkpt lat="47.97912" lon="-0.44264">
        <ele>92</ele>
        <time>2023-10-07T10:18:12Z</time>
      </trkpt>
      <trkpt lat="47.97906" lon="-0.4426">
        <ele>91.2</ele>
        <time>2023-10-07T10:18:13Z</time>
      </trkpt>
      <trkpt lat="47.979" lon="-0.44256">
        <ele>91.2</ele>
        <time>2023-10-07T10:18:14Z</time>
      </trkpt>
      <trkpt lat="47.97894" lon="-0.44252">
        <ele>91.2</ele>
        <time>2023-10-07T10:18:15Z</time>
      </trkpt>
      <trkpt lat="47.97888" lon="-0.44248">
        <ele>91.8</ele>
        <time>2023-10-07T10:18:16Z</time>
      </trkpt>
      <trkpt lat="47.97881" lon="-0.44244">
        <ele>91.6</ele>
        <time>2023-10-07T10:18:17Z</time>
      </trkpt>
      <trkpt lat="47.97875" lon="-0.44239">
        <ele>91.6</ele>
        <time>2023-10-07T10:18:18Z</time>
      </trkpt>
      <trkpt lat="47.97869" lon="-0.44234">
        <ele>91.6</ele>
        <time>2023-10-07T10:18:19Z</time>
      </trkpt>
      <trkpt lat="47.97864" lon="-0.44229">
        <ele>90.8</ele>
        <time>2023-10-07T10:18:20Z</time>
      </trkpt>
      <trkpt lat="47.97858" lon="-0.44224">
        <ele>90.6</ele>
        <time>2023-10-07T10:18:21Z</time>
      </trkpt>
      <trkpt lat="47.97852" lon="-0.44217">
        <ele>90.6</ele>
        <time>2023-10-07T10:18:22Z</time>
      </trkpt>
      <trkpt lat="47.97847" lon="-0.4421">
        <ele>90.6</ele>
        <time>2023-10-07T10:18:23Z</time>
      </trkpt>
      <trkpt lat="47.97841" lon="-0.44204">
        <ele>90.6</ele>
        <time>2023-10-07T10:18:24Z</time>
      </trkpt>
      <trkpt lat="47.97836" lon="-0.44197">
        <ele>90.6</ele>
        <time>2023-10-07T10:18:25Z</time>
      </trkpt>
      <trkpt lat="47.9783" lon="-0.44191">
        <ele>90.6</ele>
        <time>2023-10-07T10:18:26Z</time>
      </trkpt>
      <trkpt lat="47.97825" lon="-0.44184">
        <ele>90.6</ele>
        <time>2023-10-07T10:18:27Z</time>
      </trkpt>
      <trkpt lat="47.9782" lon="-0.44177">
        <ele>89.6</ele>
        <time>2023-10-07T10:18:28Z</time>
      </trkpt>
      <trkpt lat="47.97814" lon="-0.4417">
        <ele>88.6</ele>
        <time>2023-10-07T10:18:29Z</time>
      </trkpt>
      <trkpt lat="47.97809" lon="-0.44163">
        <ele>88.6</ele>
        <time>2023-10-07T10:18:30Z</time>
      </trkpt>
      <trkpt lat="47.97805" lon="-0.44156">
        <ele>88.6</ele>
        <time>2023-10-07T10:18:31Z</time>
      </trkpt>
      <trkpt lat="47.978" lon="-0.44149">
        <ele>88.6</ele>
        <time>2023-10-07T10:18:32Z</time>
      </trkpt>
      <trkpt lat="47.97795" lon="-0.44141">
        <ele>88.4</ele>
        <time>2023-10-07T10:18:33Z</time>
      </trkpt>
      <trkpt lat="47.9779" lon="-0.44133">
        <ele>88.4</ele>
        <time>2023-10-07T10:18:34Z</time>
      </trkpt>
      <trkpt lat="47.97786" lon="-0.44124">
        <ele>88.4</ele>
        <time>2023-10-07T10:18:35Z</time>
      </trkpt>
      <trkpt lat="47.97781" lon="-0.44117">
        <ele>88.4</ele>
        <time>2023-10-07T10:18:36Z</time>
      </trkpt>
      <trkpt lat="47.97776" lon="-0.4411">
        <ele>87.6</ele>
        <time>2023-10-07T10:18:37Z</time>
      </trkpt>
      <trkpt lat="47.97769" lon="-0.44106">
        <ele>87.6</ele>
        <time>2023-10-07T10:18:38Z</time>
      </trkpt>
      <trkpt lat="47.97762" lon="-0.44104">
        <ele>87.6</ele>
        <time>2023-10-07T10:18:39Z</time>
      </trkpt>
      <trkpt lat="47.97754" lon="-0.441">
        <ele>86.6</ele>
        <time>2023-10-07T10:18:40Z</time>
      </trkpt>
      <trkpt lat="47.97748" lon="-0.44094">
        <ele>84.4</ele>
        <time>2023-10-07T10:18:41Z</time>
      </trkpt>
      <trkpt lat="47.97742" lon="-0.44085">
        <ele>84.4</ele>
        <time>2023-10-07T10:18:42Z</time>
      </trkpt>
      <trkpt lat="47.97738" lon="-0.44075">
        <ele>84.4</ele>
        <time>2023-10-07T10:18:43Z</time>
      </trkpt>
      <trkpt lat="47.97735" lon="-0.44064">
        <ele>84.6</ele>
        <time>2023-10-07T10:18:44Z</time>
      </trkpt>
      <trkpt lat="47.97732" lon="-0.44053">
        <ele>82.4</ele>
        <time>2023-10-07T10:18:45Z</time>
      </trkpt>
      <trkpt lat="47.97729" lon="-0.44042">
        <ele>82.4</ele>
        <time>2023-10-07T10:18:46Z</time>
      </trkpt>
      <trkpt lat="47.97726" lon="-0.44031">
        <ele>82.4</ele>
        <time>2023-10-07T10:18:47Z</time>
      </trkpt>
      <trkpt lat="47.97723" lon="-0.44019">
        <ele>82.4</ele>
        <time>2023-10-07T10:18:48Z</time>
      </trkpt>
      <trkpt lat="47.97719" lon="-0.44008">
        <ele>82.4</ele>
        <time>2023-10-07T10:18:49Z</time>
      </trkpt>
      <trkpt lat="47.97716" lon="-0.43998">
        <ele>82.4</ele>
        <time>2023-10-07T10:18:50Z</time>
      </trkpt>
      <trkpt lat="47.97713" lon="-0.43987">
        <ele>82.4</ele>
        <time>2023-10-07T10:18:51Z</time>
      </trkpt>
      <trkpt lat="47.97709" lon="-0.43976">
        <ele>82.4</ele>
        <time>2023-10-07T10:18:52Z</time>
      </trkpt>
      <trkpt lat="47.97706" lon="-0.43965">
        <ele>81.8</ele>
        <time>2023-10-07T10:18:53Z</time>
      </trkpt>
      <trkpt lat="47.97702" lon="-0.43955">
        <ele>81.8</ele>
        <time>2023-10-07T10:18:54Z</time>
      </trkpt>
      <trkpt lat="47.97699" lon="-0.43945">
        <ele>81.8</ele>
        <time>2023-10-07T10:18:55Z</time>
      </trkpt>
      <trkpt lat="47.97696" lon="-0.43935">
        <ele>82.2</ele>
        <time>2023-10-07T10:18:56Z</time>
      </trkpt>
      <trkpt lat="47.97692" lon="-0.43926">
        <ele>82</ele>
        <time>2023-10-07T10:18:57Z</time>
      </trkpt>
      <trkpt lat="47.97688" lon="-0.43918">
        <ele>82</ele>
        <time>2023-10-07T10:18:58Z</time>
      </trkpt>
      <trkpt lat="47.97684" lon="-0.4391">
        <ele>82</ele>
        <time>2023-10-07T10:18:59Z</time>
      </trkpt>
      <trkpt lat="47.9768" lon="-0.43902">
        <ele>83</ele>
        <time>2023-10-07T10:19:00Z</time>
      </trkpt>
      <trkpt lat="47.97676" lon="-0.43895">
        <ele>84</ele>
        <time>2023-10-07T10:19:01Z</time>
      </trkpt>
      <trkpt lat="47.97671" lon="-0.43888">
        <ele>84</ele>
        <time>2023-10-07T10:19:02Z</time>
      </trkpt>
      <trkpt lat="47.97667" lon="-0.43881">
        <ele>84</ele>
        <time>2023-10-07T10:19:03Z</time>
      </trkpt>
      <trkpt lat="47.97662" lon="-0.43875">
        <ele>84</ele>
        <time>2023-10-07T10:19:04Z</time>
      </trkpt>
      <trkpt lat="47.97658" lon="-0.43868">
        <ele>84.8</ele>
        <time>2023-10-07T10:19:05Z</time>
      </trkpt>
      <trkpt lat="47.97653" lon="-0.43861">
        <ele>84.8</ele>
        <time>2023-10-07T10:19:06Z</time>
      </trkpt>
      <trkpt lat="47.97649" lon="-0.43854">
        <ele>84.8</ele>
        <time>2023-10-07T10:19:07Z</time>
      </trkpt>
      <trkpt lat="47.97645" lon="-0.43848">
        <ele>84.8</ele>
        <time>2023-10-07T10:19:08Z</time>
      </trkpt>
      <trkpt lat="47.97641" lon="-0.43841">
        <ele>84.8</ele>
        <time>2023-10-07T10:19:09Z</time>
      </trkpt>
      <trkpt lat="47.97637" lon="-0.43834">
        <ele>84.8</ele>
        <time>2023-10-07T10:19:10Z</time>
      </trkpt>
      <trkpt lat="47.97634" lon="-0.43827">
        <ele>84.8</ele>
        <time>2023-10-07T10:19:11Z</time>
      </trkpt>
      <trkpt lat="47.97631" lon="-0.43819">
        <ele>84.8</ele>
        <time>2023-10-07T10:19:12Z</time>
      </trkpt>
      <trkpt lat="47.97628" lon="-0.43812">
        <ele>85.2</ele>
        <time>2023-10-07T10:19:13Z</time>
      </trkpt>
      <trkpt lat="47.97625" lon="-0.43804">
        <ele>85.2</ele>
        <time>2023-10-07T10:19:14Z</time>
      </trkpt>
      <trkpt lat="47.97622" lon="-0.43797">
        <ele>85.2</ele>
        <time>2023-10-07T10:19:15Z</time>
      </trkpt>
      <trkpt lat="47.9762" lon="-0.43789">
        <ele>86.2</ele>
        <time>2023-10-07T10:19:16Z</time>
      </trkpt>
      <trkpt lat="47.97617" lon="-0.43781">
        <ele>85.8</ele>
        <time>2023-10-07T10:19:17Z</time>
      </trkpt>
      <trkpt lat="47.97615" lon="-0.43773">
        <ele>85.8</ele>
        <time>2023-10-07T10:19:18Z</time>
      </trkpt>
      <trkpt lat="47.97612" lon="-0.43765">
        <ele>85.8</ele>
        <time>2023-10-07T10:19:19Z</time>
      </trkpt>
      <trkpt lat="47.9761" lon="-0.43757">
        <ele>85.8</ele>
        <time>2023-10-07T10:19:20Z</time>
      </trkpt>
      <trkpt lat="47.97608" lon="-0.4375">
        <ele>86.2</ele>
        <time>2023-10-07T10:19:21Z</time>
      </trkpt>
      <trkpt lat="47.97605" lon="-0.43742">
        <ele>86.2</ele>
        <time>2023-10-07T10:19:22Z</time>
      </trkpt>
      <trkpt lat="47.97603" lon="-0.43734">
        <ele>86.2</ele>
        <time>2023-10-07T10:19:23Z</time>
      </trkpt>
      <trkpt lat="47.97601" lon="-0.43726">
        <ele>87.2</ele>
        <time>2023-10-07T10:19:24Z</time>
      </trkpt>
      <trkpt lat="47.97598" lon="-0.43718">
        <ele>88</ele>
        <time>2023-10-07T10:19:25Z</time>
      </trkpt>
      <trkpt lat="47.97596" lon="-0.4371">
        <ele>88</ele>
        <time>2023-10-07T10:19:26Z</time>
      </trkpt>
      <trkpt lat="47.97593" lon="-0.43702">
        <ele>88</ele>
        <time>2023-10-07T10:19:27Z</time>
      </trkpt>
      <trkpt lat="47.97591" lon="-0.43694">
        <ele>88</ele>
        <time>2023-10-07T10:19:28Z</time>
      </trkpt>
      <trkpt lat="47.97589" lon="-0.43687">
        <ele>87.6</ele>
        <time>2023-10-07T10:19:29Z</time>
      </trkpt>
      <trkpt lat="47.97587" lon="-0.43678">
        <ele>87.6</ele>
        <time>2023-10-07T10:19:30Z</time>
      </trkpt>
      <trkpt lat="47.97585" lon="-0.4367">
        <ele>87.6</ele>
        <time>2023-10-07T10:19:31Z</time>
      </trkpt>
      <trkpt lat="47.97582" lon="-0.43663">
        <ele>88.6</ele>
        <time>2023-10-07T10:19:32Z</time>
      </trkpt>
      <trkpt lat="47.9758" lon="-0.43655">
        <ele>88.4</ele>
        <time>2023-10-07T10:19:33Z</time>
      </trkpt>
      <trkpt lat="47.97577" lon="-0.43647">
        <ele>88.4</ele>
        <time>2023-10-07T10:19:34Z</time>
      </trkpt>
      <trkpt lat="47.97575" lon="-0.43639">
        <ele>88.4</ele>
        <time>2023-10-07T10:19:35Z</time>
      </trkpt>
      <trkpt lat="47.97572" lon="-0.43632">
        <ele>89</ele>
        <time>2023-10-07T10:19:36Z</time>
      </trkpt>
      <trkpt lat="47.9757" lon="-0.43624">
        <ele>89</ele>
        <time>2023-10-07T10:19:37Z</time>
      </trkpt>
      <trkpt lat="47.97567" lon="-0.43617">
        <ele>89</ele>
        <time>2023-10-07T10:19:38Z</time>
      </trkpt>
      <trkpt lat="47.97565" lon="-0.43609">
        <ele>89</ele>
        <time>2023-10-07T10:19:39Z</time>
      </trkpt>
      <trkpt lat="47.97563" lon="-0.43602">
        <ele>89.6</ele>
        <time>2023-10-07T10:19:40Z</time>
      </trkpt>
      <trkpt lat="47.9756" lon="-0.43595">
        <ele>89.2</ele>
        <time>2023-10-07T10:19:41Z</time>
      </trkpt>
      <trkpt lat="47.97558" lon="-0.43588">
        <ele>89.2</ele>
        <time>2023-10-07T10:19:42Z</time>
      </trkpt>
      <trkpt lat="47.97556" lon="-0.4358">
        <ele>89.2</ele>
        <time>2023-10-07T10:19:43Z</time>
      </trkpt>
      <trkpt lat="47.97554" lon="-0.43573">
        <ele>89.8</ele>
        <time>2023-10-07T10:19:44Z</time>
      </trkpt>
      <trkpt lat="47.97551" lon="-0.43567">
        <ele>90</ele>
        <time>2023-10-07T10:19:45Z</time>
      </trkpt>
      <trkpt lat="47.97549" lon="-0.4356">
        <ele>90</ele>
        <time>2023-10-07T10:19:46Z</time>
      </trkpt>
      <trkpt lat="47.97547" lon="-0.43553">
        <ele>90</ele>
        <time>2023-10-07T10:19:47Z</time>
      </trkpt>
      <trkpt lat="47.97545" lon="-0.43546">
        <ele>90.8</ele>
        <time>2023-10-07T10:19:48Z</time>
      </trkpt>
      <trkpt lat="47.97543" lon="-0.43539">
        <ele>90.8</ele>
        <time>2023-10-07T10:19:49Z</time>
      </trkpt>
      <trkpt lat="47.97541" lon="-0.43531">
        <ele>90.8</ele>
        <time>2023-10-07T10:19:50Z</time>
      </trkpt>
      <trkpt lat="47.97539" lon="-0.43523">
        <ele>90.8</ele>
        <time>2023-10-07T10:19:51Z</time>
      </trkpt>
      <trkpt lat="47.97537" lon="-0.43516">
        <ele>90.4</ele>
        <time>2023-10-07T10:19:52Z</time>
      </trkpt>
      <trkpt lat="47.97534" lon="-0.43508">
        <ele>90.6</ele>
        <time>2023-10-07T10:19:53Z</time>
      </trkpt>
      <trkpt lat="47.97532" lon="-0.43501">
        <ele>90.6</ele>
        <time>2023-10-07T10:19:54Z</time>
      </trkpt>
      <trkpt lat="47.9753" lon="-0.43493">
        <ele>90.6</ele>
        <time>2023-10-07T10:19:55Z</time>
      </trkpt>
      <trkpt lat="47.97528" lon="-0.43486">
        <ele>90</ele>
        <time>2023-10-07T10:19:56Z</time>
      </trkpt>
      <trkpt lat="47.97526" lon="-0.43478">
        <ele>90.8</ele>
        <time>2023-10-07T10:19:57Z</time>
      </trkpt>
      <trkpt lat="47.97524" lon="-0.4347">
        <ele>90.8</ele>
        <time>2023-10-07T10:19:58Z</time>
      </trkpt>
      <trkpt lat="47.97521" lon="-0.43462">
        <ele>90.8</ele>
        <time>2023-10-07T10:19:59Z</time>
      </trkpt>
      <trkpt lat="47.97519" lon="-0.43454">
        <ele>90.8</ele>
        <time>2023-10-07T10:20:00Z</time>
      </trkpt>
      <trkpt lat="47.97517" lon="-0.43446">
        <ele>91</ele>
        <time>2023-10-07T10:20:01Z</time>
      </trkpt>
      <trkpt lat="47.97515" lon="-0.43438">
        <ele>91</ele>
        <time>2023-10-07T10:20:02Z</time>
      </trkpt>
      <trkpt lat="47.97512" lon="-0.4343">
        <ele>91</ele>
        <time>2023-10-07T10:20:03Z</time>
      </trkpt>
      <trkpt lat="47.97509" lon="-0.43422">
        <ele>90.2</ele>
        <time>2023-10-07T10:20:04Z</time>
      </trkpt>
      <trkpt lat="47.97507" lon="-0.43414">
        <ele>90.2</ele>
        <time>2023-10-07T10:20:05Z</time>
      </trkpt>
      <trkpt lat="47.97504" lon="-0.43406">
        <ele>90.2</ele>
        <time>2023-10-07T10:20:06Z</time>
      </trkpt>
      <trkpt lat="47.97502" lon="-0.43398">
        <ele>90.2</ele>
        <time>2023-10-07T10:20:07Z</time>
      </trkpt>
      <trkpt lat="47.975" lon="-0.4339">
        <ele>90.2</ele>
        <time>2023-10-07T10:20:08Z</time>
      </trkpt>
      <trkpt lat="47.97497" lon="-0.43382">
        <ele>89.8</ele>
        <time>2023-10-07T10:20:09Z</time>
      </trkpt>
      <trkpt lat="47.97495" lon="-0.43373">
        <ele>89.8</ele>
        <time>2023-10-07T10:20:10Z</time>
      </trkpt>
      <trkpt lat="47.97492" lon="-0.43365">
        <ele>89.8</ele>
        <time>2023-10-07T10:20:11Z</time>
      </trkpt>
      <trkpt lat="47.9749" lon="-0.43357">
        <ele>90.6</ele>
        <time>2023-10-07T10:20:12Z</time>
      </trkpt>
      <trkpt lat="47.97488" lon="-0.43349">
        <ele>89.8</ele>
        <time>2023-10-07T10:20:13Z</time>
      </trkpt>
      <trkpt lat="47.97485" lon="-0.4334">
        <ele>89.8</ele>
        <time>2023-10-07T10:20:14Z</time>
      </trkpt>
      <trkpt lat="47.97482" lon="-0.43332">
        <ele>89.8</ele>
        <time>2023-10-07T10:20:15Z</time>
      </trkpt>
      <trkpt lat="47.9748" lon="-0.43323">
        <ele>89.8</ele>
        <time>2023-10-07T10:20:16Z</time>
      </trkpt>
      <trkpt lat="47.97477" lon="-0.43315">
        <ele>90</ele>
        <time>2023-10-07T10:20:17Z</time>
      </trkpt>
      <trkpt lat="47.97475" lon="-0.43306">
        <ele>90</ele>
        <time>2023-10-07T10:20:18Z</time>
      </trkpt>
      <trkpt lat="47.97472" lon="-0.43297">
        <ele>90</ele>
        <time>2023-10-07T10:20:19Z</time>
      </trkpt>
      <trkpt lat="47.9747" lon="-0.43288">
        <ele>89.2</ele>
        <time>2023-10-07T10:20:20Z</time>
      </trkpt>
      <trkpt lat="47.97467" lon="-0.4328">
        <ele>89</ele>
        <time>2023-10-07T10:20:21Z</time>
      </trkpt>
      <trkpt lat="47.97465" lon="-0.43271">
        <ele>89</ele>
        <time>2023-10-07T10:20:22Z</time>
      </trkpt>
      <trkpt lat="47.97462" lon="-0.43262">
        <ele>89</ele>
        <time>2023-10-07T10:20:23Z</time>
      </trkpt>
      <trkpt lat="47.9746" lon="-0.43253">
        <ele>88.8</ele>
        <time>2023-10-07T10:20:24Z</time>
      </trkpt>
      <trkpt lat="47.97457" lon="-0.43244">
        <ele>88.2</ele>
        <time>2023-10-07T10:20:25Z</time>
      </trkpt>
      <trkpt lat="47.97454" lon="-0.43235">
        <ele>88.2</ele>
        <time>2023-10-07T10:20:26Z</time>
      </trkpt>
      <trkpt lat="47.97452" lon="-0.43226">
        <ele>88.2</ele>
        <time>2023-10-07T10:20:27Z</time>
      </trkpt>
      <trkpt lat="47.97449" lon="-0.43217">
        <ele>88.2</ele>
        <time>2023-10-07T10:20:28Z</time>
      </trkpt>
      <trkpt lat="47.97446" lon="-0.43208">
        <ele>88.4</ele>
        <time>2023-10-07T10:20:29Z</time>
      </trkpt>
      <trkpt lat="47.97444" lon="-0.43199">
        <ele>88.4</ele>
        <time>2023-10-07T10:20:30Z</time>
      </trkpt>
      <trkpt lat="47.97441" lon="-0.43189">
        <ele>88.4</ele>
        <time>2023-10-07T10:20:31Z</time>
      </trkpt>
      <trkpt lat="47.97439" lon="-0.4318">
        <ele>87.4</ele>
        <time>2023-10-07T10:20:32Z</time>
      </trkpt>
      <trkpt lat="47.97436" lon="-0.43171">
        <ele>87.6</ele>
        <time>2023-10-07T10:20:33Z</time>
      </trkpt>
      <trkpt lat="47.97433" lon="-0.43162">
        <ele>87.6</ele>
        <time>2023-10-07T10:20:34Z</time>
      </trkpt>
      <trkpt lat="47.97431" lon="-0.43154">
        <ele>87.6</ele>
        <time>2023-10-07T10:20:35Z</time>
      </trkpt>
      <trkpt lat="47.97428" lon="-0.43145">
        <ele>87</ele>
        <time>2023-10-07T10:20:36Z</time>
      </trkpt>
      <trkpt lat="47.97425" lon="-0.43136">
        <ele>87.4</ele>
        <time>2023-10-07T10:20:37Z</time>
      </trkpt>
      <trkpt lat="47.97423" lon="-0.43128">
        <ele>87.4</ele>
        <time>2023-10-07T10:20:38Z</time>
      </trkpt>
      <trkpt lat="47.9742" lon="-0.43119">
        <ele>87.4</ele>
        <time>2023-10-07T10:20:39Z</time>
      </trkpt>
      <trkpt lat="47.97418" lon="-0.43111">
        <ele>87.8</ele>
        <time>2023-10-07T10:20:40Z</time>
      </trkpt>
      <trkpt lat="47.97415" lon="-0.43102">
        <ele>87</ele>
        <time>2023-10-07T10:20:41Z</time>
      </trkpt>
      <trkpt lat="47.97413" lon="-0.43094">
        <ele>87</ele>
        <time>2023-10-07T10:20:42Z</time>
      </trkpt>
      <trkpt lat="47.9741" lon="-0.43085">
        <ele>87</ele>
        <time>2023-10-07T10:20:43Z</time>
      </trkpt>
      <trkpt lat="47.97407" lon="-0.43077">
        <ele>87.8</ele>
        <time>2023-10-07T10:20:44Z</time>
      </trkpt>
      <trkpt lat="47.97405" lon="-0.43068">
        <ele>87.8</ele>
        <time>2023-10-07T10:20:45Z</time>
      </trkpt>
      <trkpt lat="47.97403" lon="-0.43059">
        <ele>87.8</ele>
        <time>2023-10-07T10:20:46Z</time>
      </trkpt>
      <trkpt lat="47.974" lon="-0.43051">
        <ele>87.8</ele>
        <time>2023-10-07T10:20:47Z</time>
      </trkpt>
      <trkpt lat="47.97398" lon="-0.43043">
        <ele>87.8</ele>
        <time>2023-10-07T10:20:48Z</time>
      </trkpt>
      <trkpt lat="47.97395" lon="-0.43034">
        <ele>88</ele>
        <time>2023-10-07T10:20:49Z</time>
      </trkpt>
      <trkpt lat="47.97393" lon="-0.43026">
        <ele>88</ele>
        <time>2023-10-07T10:20:50Z</time>
      </trkpt>
      <trkpt lat="47.97391" lon="-0.43018">
        <ele>88</ele>
        <time>2023-10-07T10:20:51Z</time>
      </trkpt>
      <trkpt lat="47.97388" lon="-0.43009">
        <ele>87</ele>
        <time>2023-10-07T10:20:52Z</time>
      </trkpt>
      <trkpt lat="47.97386" lon="-0.43001">
        <ele>87</ele>
        <time>2023-10-07T10:20:53Z</time>
      </trkpt>
      <trkpt lat="47.97383" lon="-0.42993">
        <ele>87</ele>
        <time>2023-10-07T10:20:54Z</time>
      </trkpt>
      <trkpt lat="47.97381" lon="-0.42985">
        <ele>87</ele>
        <time>2023-10-07T10:20:55Z</time>
      </trkpt>
      <trkpt lat="47.97378" lon="-0.42977">
        <ele>86.2</ele>
        <time>2023-10-07T10:20:56Z</time>
      </trkpt>
      <trkpt lat="47.97376" lon="-0.42969">
        <ele>86.6</ele>
        <time>2023-10-07T10:20:57Z</time>
      </trkpt>
      <trkpt lat="47.97374" lon="-0.42961">
        <ele>86.6</ele>
        <time>2023-10-07T10:20:58Z</time>
      </trkpt>
      <trkpt lat="47.97371" lon="-0.42953">
        <ele>86.6</ele>
        <time>2023-10-07T10:20:59Z</time>
      </trkpt>
      <trkpt lat="47.97369" lon="-0.42945">
        <ele>87.2</ele>
        <time>2023-10-07T10:21:00Z</time>
      </trkpt>
      <trkpt lat="47.97366" lon="-0.42937">
        <ele>87.6</ele>
        <time>2023-10-07T10:21:01Z</time>
      </trkpt>
      <trkpt lat="47.97364" lon="-0.42928">
        <ele>87.6</ele>
        <time>2023-10-07T10:21:02Z</time>
      </trkpt>
      <trkpt lat="47.97362" lon="-0.4292">
        <ele>87.6</ele>
        <time>2023-10-07T10:21:03Z</time>
      </trkpt>
      <trkpt lat="47.97359" lon="-0.42912">
        <ele>87.6</ele>
        <time>2023-10-07T10:21:04Z</time>
      </trkpt>
      <trkpt lat="47.97357" lon="-0.42903">
        <ele>87.6</ele>
        <time>2023-10-07T10:21:05Z</time>
      </trkpt>
      <trkpt lat="47.97354" lon="-0.42895">
        <ele>87.6</ele>
        <time>2023-10-07T10:21:06Z</time>
      </trkpt>
      <trkpt lat="47.97352" lon="-0.42886">
        <ele>87.6</ele>
        <time>2023-10-07T10:21:07Z</time>
      </trkpt>
      <trkpt lat="47.97349" lon="-0.42878">
        <ele>87.2</ele>
        <time>2023-10-07T10:21:08Z</time>
      </trkpt>
      <trkpt lat="47.97347" lon="-0.42869">
        <ele>87.4</ele>
        <time>2023-10-07T10:21:09Z</time>
      </trkpt>
      <trkpt lat="47.97344" lon="-0.42861">
        <ele>87.4</ele>
        <time>2023-10-07T10:21:10Z</time>
      </trkpt>
      <trkpt lat="47.97342" lon="-0.42853">
        <ele>87.4</ele>
        <time>2023-10-07T10:21:11Z</time>
      </trkpt>
      <trkpt lat="47.97339" lon="-0.42845">
        <ele>88</ele>
        <time>2023-10-07T10:21:12Z</time>
      </trkpt>
      <trkpt lat="47.97337" lon="-0.42837">
        <ele>87.8</ele>
        <time>2023-10-07T10:21:13Z</time>
      </trkpt>
      <trkpt lat="47.97335" lon="-0.42829">
        <ele>87.8</ele>
        <time>2023-10-07T10:21:14Z</time>
      </trkpt>
      <trkpt lat="47.97333" lon="-0.4282">
        <ele>87.8</ele>
        <time>2023-10-07T10:21:15Z</time>
      </trkpt>
      <trkpt lat="47.9733" lon="-0.42812">
        <ele>88.6</ele>
        <time>2023-10-07T10:21:16Z</time>
      </trkpt>
      <trkpt lat="47.97328" lon="-0.42804">
        <ele>89</ele>
        <time>2023-10-07T10:21:17Z</time>
      </trkpt>
      <trkpt lat="47.97326" lon="-0.42796">
        <ele>89</ele>
        <time>2023-10-07T10:21:18Z</time>
      </trkpt>
      <trkpt lat="47.97324" lon="-0.42788">
        <ele>89</ele>
        <time>2023-10-07T10:21:19Z</time>
      </trkpt>
      <trkpt lat="47.97322" lon="-0.4278">
        <ele>89</ele>
        <time>2023-10-07T10:21:20Z</time>
      </trkpt>
      <trkpt lat="47.97319" lon="-0.42772">
        <ele>89.8</ele>
        <time>2023-10-07T10:21:21Z</time>
      </trkpt>
      <trkpt lat="47.97317" lon="-0.42764">
        <ele>89.8</ele>
        <time>2023-10-07T10:21:22Z</time>
      </trkpt>
      <trkpt lat="47.97315" lon="-0.42756">
        <ele>89.8</ele>
        <time>2023-10-07T10:21:23Z</time>
      </trkpt>
      <trkpt lat="47.97314" lon="-0.42748">
        <ele>90.2</ele>
        <time>2023-10-07T10:21:24Z</time>
      </trkpt>
      <trkpt lat="47.97313" lon="-0.4274">
        <ele>90.2</ele>
        <time>2023-10-07T10:21:25Z</time>
      </trkpt>
      <trkpt lat="47.97311" lon="-0.42732">
        <ele>90.2</ele>
        <time>2023-10-07T10:21:26Z</time>
      </trkpt>
      <trkpt lat="47.9731" lon="-0.42724">
        <ele>90.2</ele>
        <time>2023-10-07T10:21:27Z</time>
      </trkpt>
      <trkpt lat="47.97309" lon="-0.42716">
        <ele>90.2</ele>
        <time>2023-10-07T10:21:28Z</time>
      </trkpt>
      <trkpt lat="47.97307" lon="-0.42708">
        <ele>90</ele>
        <time>2023-10-07T10:21:29Z</time>
      </trkpt>
      <trkpt lat="47.97306" lon="-0.42699">
        <ele>90</ele>
        <time>2023-10-07T10:21:30Z</time>
      </trkpt>
      <trkpt lat="47.97305" lon="-0.42691">
        <ele>90</ele>
        <time>2023-10-07T10:21:31Z</time>
      </trkpt>
      <trkpt lat="47.97304" lon="-0.42682">
        <ele>90.6</ele>
        <time>2023-10-07T10:21:32Z</time>
      </trkpt>
      <trkpt lat="47.97303" lon="-0.42673">
        <ele>90.2</ele>
        <time>2023-10-07T10:21:33Z</time>
      </trkpt>
      <trkpt lat="47.97302" lon="-0.42664">
        <ele>90.2</ele>
        <time>2023-10-07T10:21:34Z</time>
      </trkpt>
      <trkpt lat="47.97302" lon="-0.42656">
        <ele>90.2</ele>
        <time>2023-10-07T10:21:35Z</time>
      </trkpt>
      <trkpt lat="47.97301" lon="-0.42647">
        <ele>90.8</ele>
        <time>2023-10-07T10:21:36Z</time>
      </trkpt>
      <trkpt lat="47.97301" lon="-0.42639">
        <ele>92</ele>
        <time>2023-10-07T10:21:37Z</time>
      </trkpt>
      <trkpt lat="47.97301" lon="-0.4263">
        <ele>92</ele>
        <time>2023-10-07T10:21:38Z</time>
      </trkpt>
      <trkpt lat="47.973" lon="-0.42622">
        <ele>92</ele>
        <time>2023-10-07T10:21:39Z</time>
      </trkpt>
      <trkpt lat="47.973" lon="-0.42613">
        <ele>91.8</ele>
        <time>2023-10-07T10:21:40Z</time>
      </trkpt>
      <trkpt lat="47.97299" lon="-0.42605">
        <ele>91.6</ele>
        <time>2023-10-07T10:21:41Z</time>
      </trkpt>
      <trkpt lat="47.97299" lon="-0.42597">
        <ele>91.6</ele>
        <time>2023-10-07T10:21:42Z</time>
      </trkpt>
      <trkpt lat="47.97299" lon="-0.42589">
        <ele>91.6</ele>
        <time>2023-10-07T10:21:43Z</time>
      </trkpt>
      <trkpt lat="47.97298" lon="-0.42581">
        <ele>91.6</ele>
        <time>2023-10-07T10:21:44Z</time>
      </trkpt>
      <trkpt lat="47.97298" lon="-0.42573">
        <ele>92.8</ele>
        <time>2023-10-07T10:21:45Z</time>
      </trkpt>
      <trkpt lat="47.97298" lon="-0.42565">
        <ele>92.8</ele>
        <time>2023-10-07T10:21:46Z</time>
      </trkpt>
      <trkpt lat="47.97298" lon="-0.42556">
        <ele>92.8</ele>
        <time>2023-10-07T10:21:47Z</time>
      </trkpt>
      <trkpt lat="47.97297" lon="-0.42548">
        <ele>92</ele>
        <time>2023-10-07T10:21:48Z</time>
      </trkpt>
      <trkpt lat="47.97297" lon="-0.4254">
        <ele>91.8</ele>
        <time>2023-10-07T10:21:49Z</time>
      </trkpt>
      <trkpt lat="47.97297" lon="-0.42532">
        <ele>91.8</ele>
        <time>2023-10-07T10:21:50Z</time>
      </trkpt>
      <trkpt lat="47.97296" lon="-0.42524">
        <ele>91.8</ele>
        <time>2023-10-07T10:21:51Z</time>
      </trkpt>
      <trkpt lat="47.97296" lon="-0.42516">
        <ele>91.8</ele>
        <time>2023-10-07T10:21:52Z</time>
      </trkpt>
      <trkpt lat="47.97295" lon="-0.42508">
        <ele>91.2</ele>
        <time>2023-10-07T10:21:53Z</time>
      </trkpt>
      <trkpt lat="47.97295" lon="-0.425">
        <ele>91.2</ele>
        <time>2023-10-07T10:21:54Z</time>
      </trkpt>
      <trkpt lat="47.97295" lon="-0.42492">
        <ele>91.2</ele>
        <time>2023-10-07T10:21:55Z</time>
      </trkpt>
      <trkpt lat="47.97295" lon="-0.42483">
        <ele>91.2</ele>
        <time>2023-10-07T10:21:56Z</time>
      </trkpt>
      <trkpt lat="47.97294" lon="-0.42475">
        <ele>91.2</ele>
        <time>2023-10-07T10:21:57Z</time>
      </trkpt>
      <trkpt lat="47.97294" lon="-0.42467">
        <ele>91.2</ele>
        <time>2023-10-07T10:21:58Z</time>
      </trkpt>
      <trkpt lat="47.97293" lon="-0.42458">
        <ele>91.2</ele>
        <time>2023-10-07T10:21:59Z</time>
      </trkpt>
      <trkpt lat="47.97293" lon="-0.4245">
        <ele>90.6</ele>
        <time>2023-10-07T10:22:00Z</time>
      </trkpt>
      <trkpt lat="47.97293" lon="-0.42441">
        <ele>90.4</ele>
        <time>2023-10-07T10:22:01Z</time>
      </trkpt>
      <trkpt lat="47.97292" lon="-0.42433">
        <ele>90.4</ele>
        <time>2023-10-07T10:22:02Z</time>
      </trkpt>
      <trkpt lat="47.97292" lon="-0.42424">
        <ele>90.4</ele>
        <time>2023-10-07T10:22:03Z</time>
      </trkpt>
      <trkpt lat="47.97292" lon="-0.42416">
        <ele>89.6</ele>
        <time>2023-10-07T10:22:04Z</time>
      </trkpt>
      <trkpt lat="47.97291" lon="-0.42406">
        <ele>89.8</ele>
        <time>2023-10-07T10:22:05Z</time>
      </trkpt>
      <trkpt lat="47.97291" lon="-0.42397">
        <ele>89.8</ele>
        <time>2023-10-07T10:22:06Z</time>
      </trkpt>
      <trkpt lat="47.9729" lon="-0.42388">
        <ele>89.8</ele>
        <time>2023-10-07T10:22:07Z</time>
      </trkpt>
      <trkpt lat="47.9729" lon="-0.42378">
        <ele>89</ele>
        <time>2023-10-07T10:22:08Z</time>
      </trkpt>
      <trkpt lat="47.9729" lon="-0.42368">
        <ele>88.2</ele>
        <time>2023-10-07T10:22:09Z</time>
      </trkpt>
      <trkpt lat="47.97289" lon="-0.42358">
        <ele>88.2</ele>
        <time>2023-10-07T10:22:10Z</time>
      </trkpt>
      <trkpt lat="47.97289" lon="-0.42348">
        <ele>88.2</ele>
        <time>2023-10-07T10:22:11Z</time>
      </trkpt>
      <trkpt lat="47.97288" lon="-0.42338">
        <ele>87.6</ele>
        <time>2023-10-07T10:22:12Z</time>
      </trkpt>
      <trkpt lat="47.97288" lon="-0.42328">
        <ele>86.6</ele>
        <time>2023-10-07T10:22:13Z</time>
      </trkpt>
      <trkpt lat="47.97288" lon="-0.42317">
        <ele>86.6</ele>
        <time>2023-10-07T10:22:14Z</time>
      </trkpt>
      <trkpt lat="47.97287" lon="-0.42307">
        <ele>86.6</ele>
        <time>2023-10-07T10:22:15Z</time>
      </trkpt>
      <trkpt lat="47.97286" lon="-0.42297">
        <ele>86</ele>
        <time>2023-10-07T10:22:16Z</time>
      </trkpt>
      <trkpt lat="47.97286" lon="-0.42287">
        <ele>85.4</ele>
        <time>2023-10-07T10:22:17Z</time>
      </trkpt>
      <trkpt lat="47.97285" lon="-0.42276">
        <ele>85.4</ele>
        <time>2023-10-07T10:22:18Z</time>
      </trkpt>
      <trkpt lat="47.97285" lon="-0.42266">
        <ele>85.4</ele>
        <time>2023-10-07T10:22:19Z</time>
      </trkpt>
      <trkpt lat="47.97284" lon="-0.42256">
        <ele>85.2</ele>
        <time>2023-10-07T10:22:20Z</time>
      </trkpt>
      <trkpt lat="47.97284" lon="-0.42245">
        <ele>85.6</ele>
        <time>2023-10-07T10:22:21Z</time>
      </trkpt>
      <trkpt lat="47.97283" lon="-0.42235">
        <ele>85.6</ele>
        <time>2023-10-07T10:22:22Z</time>
      </trkpt>
      <trkpt lat="47.97283" lon="-0.42224">
        <ele>85.6</ele>
        <time>2023-10-07T10:22:23Z</time>
      </trkpt>
      <trkpt lat="47.97282" lon="-0.42213">
        <ele>84.8</ele>
        <time>2023-10-07T10:22:24Z</time>
      </trkpt>
      <trkpt lat="47.97282" lon="-0.42202">
        <ele>85</ele>
        <time>2023-10-07T10:22:25Z</time>
      </trkpt>
      <trkpt lat="47.97281" lon="-0.42191">
        <ele>85</ele>
        <time>2023-10-07T10:22:26Z</time>
      </trkpt>
      <trkpt lat="47.97281" lon="-0.4218">
        <ele>85</ele>
        <time>2023-10-07T10:22:27Z</time>
      </trkpt>
      <trkpt lat="47.97281" lon="-0.42169">
        <ele>84</ele>
        <time>2023-10-07T10:22:28Z</time>
      </trkpt>
      <trkpt lat="47.9728" lon="-0.42157">
        <ele>83.4</ele>
        <time>2023-10-07T10:22:29Z</time>
      </trkpt>
      <trkpt lat="47.9728" lon="-0.42145">
        <ele>83.4</ele>
        <time>2023-10-07T10:22:30Z</time>
      </trkpt>
      <trkpt lat="47.97279" lon="-0.42134">
        <ele>83.4</ele>
        <time>2023-10-07T10:22:31Z</time>
      </trkpt>
      <trkpt lat="47.97279" lon="-0.42122">
        <ele>82.6</ele>
        <time>2023-10-07T10:22:32Z</time>
      </trkpt>
      <trkpt lat="47.97278" lon="-0.4211">
        <ele>82.4</ele>
        <time>2023-10-07T10:22:33Z</time>
      </trkpt>
      <trkpt lat="47.97277" lon="-0.42098">
        <ele>82.4</ele>
        <time>2023-10-07T10:22:34Z</time>
      </trkpt>
      <trkpt lat="47.97277" lon="-0.42086">
        <ele>82.4</ele>
        <time>2023-10-07T10:22:35Z</time>
      </trkpt>
      <trkpt lat="47.97276" lon="-0.42075">
        <ele>81.8</ele>
        <time>2023-10-07T10:22:36Z</time>
      </trkpt>
      <trkpt lat="47.97275" lon="-0.42063">
        <ele>80.8</ele>
        <time>2023-10-07T10:22:37Z</time>
      </trkpt>
      <trkpt lat="47.97274" lon="-0.42051">
        <ele>80.8</ele>
        <time>2023-10-07T10:22:38Z</time>
      </trkpt>
      <trkpt lat="47.97273" lon="-0.42039">
        <ele>80.8</ele>
        <time>2023-10-07T10:22:39Z</time>
      </trkpt>
      <trkpt lat="47.97273" lon="-0.42027">
        <ele>80.8</ele>
        <time>2023-10-07T10:22:40Z</time>
      </trkpt>
      <trkpt lat="47.97272" lon="-0.42014">
        <ele>80.4</ele>
        <time>2023-10-07T10:22:41Z</time>
      </trkpt>
      <trkpt lat="47.97272" lon="-0.42002">
        <ele>80.4</ele>
        <time>2023-10-07T10:22:42Z</time>
      </trkpt>
      <trkpt lat="47.97271" lon="-0.4199">
        <ele>80.4</ele>
        <time>2023-10-07T10:22:43Z</time>
      </trkpt>
      <trkpt lat="47.97271" lon="-0.41978">
        <ele>80.4</ele>
        <time>2023-10-07T10:22:44Z</time>
      </trkpt>
      <trkpt lat="47.9727" lon="-0.41965">
        <ele>79.2</ele>
        <time>2023-10-07T10:22:45Z</time>
      </trkpt>
      <trkpt lat="47.97269" lon="-0.41953">
        <ele>79.2</ele>
        <time>2023-10-07T10:22:46Z</time>
      </trkpt>
      <trkpt lat="47.97269" lon="-0.4194">
        <ele>79.2</ele>
        <time>2023-10-07T10:22:47Z</time>
      </trkpt>
      <trkpt lat="47.97269" lon="-0.41927">
        <ele>78.2</ele>
        <time>2023-10-07T10:22:48Z</time>
      </trkpt>
      <trkpt lat="47.97268" lon="-0.41914">
        <ele>77.2</ele>
        <time>2023-10-07T10:22:49Z</time>
      </trkpt>
      <trkpt lat="47.97268" lon="-0.41901">
        <ele>77.2</ele>
        <time>2023-10-07T10:22:50Z</time>
      </trkpt>
      <trkpt lat="47.97268" lon="-0.41888">
        <ele>77.2</ele>
        <time>2023-10-07T10:22:51Z</time>
      </trkpt>
      <trkpt lat="47.97268" lon="-0.41875">
        <ele>76.2</ele>
        <time>2023-10-07T10:22:52Z</time>
      </trkpt>
      <trkpt lat="47.97268" lon="-0.41862">
        <ele>75</ele>
        <time>2023-10-07T10:22:53Z</time>
      </trkpt>
      <trkpt lat="47.97269" lon="-0.41848">
        <ele>75</ele>
        <time>2023-10-07T10:22:54Z</time>
      </trkpt>
      <trkpt lat="47.9727" lon="-0.41834">
        <ele>75</ele>
        <time>2023-10-07T10:22:55Z</time>
      </trkpt>
      <trkpt lat="47.97271" lon="-0.4182">
        <ele>74</ele>
        <time>2023-10-07T10:22:56Z</time>
      </trkpt>
      <trkpt lat="47.97272" lon="-0.41806">
        <ele>72.8</ele>
        <time>2023-10-07T10:22:57Z</time>
      </trkpt>
      <trkpt lat="47.97274" lon="-0.41792">
        <ele>72.8</ele>
        <time>2023-10-07T10:22:58Z</time>
      </trkpt>
      <trkpt lat="47.97275" lon="-0.41779">
        <ele>72.8</ele>
        <time>2023-10-07T10:22:59Z</time>
      </trkpt>
      <trkpt lat="47.97277" lon="-0.41765">
        <ele>71.8</ele>
        <time>2023-10-07T10:23:00Z</time>
      </trkpt>
      <trkpt lat="47.97279" lon="-0.41751">
        <ele>71.6</ele>
        <time>2023-10-07T10:23:01Z</time>
      </trkpt>
      <trkpt lat="47.97282" lon="-0.41737">
        <ele>71.6</ele>
        <time>2023-10-07T10:23:02Z</time>
      </trkpt>
      <trkpt lat="47.97285" lon="-0.41723">
        <ele>71.6</ele>
        <time>2023-10-07T10:23:03Z</time>
      </trkpt>
      <trkpt lat="47.97288" lon="-0.4171">
        <ele>70.6</ele>
        <time>2023-10-07T10:23:04Z</time>
      </trkpt>
      <trkpt lat="47.97291" lon="-0.41696">
        <ele>69.4</ele>
        <time>2023-10-07T10:23:05Z</time>
      </trkpt>
      <trkpt lat="47.97294" lon="-0.41683">
        <ele>69.4</ele>
        <time>2023-10-07T10:23:06Z</time>
      </trkpt>
      <trkpt lat="47.97298" lon="-0.4167">
        <ele>69.4</ele>
        <time>2023-10-07T10:23:07Z</time>
      </trkpt>
      <trkpt lat="47.97302" lon="-0.41657">
        <ele>69.4</ele>
        <time>2023-10-07T10:23:08Z</time>
      </trkpt>
      <trkpt lat="47.97306" lon="-0.41644">
        <ele>69</ele>
        <time>2023-10-07T10:23:09Z</time>
      </trkpt>
      <trkpt lat="47.97311" lon="-0.41631">
        <ele>69</ele>
        <time>2023-10-07T10:23:10Z</time>
      </trkpt>
      <trkpt lat="47.97315" lon="-0.41618">
        <ele>69</ele>
        <time>2023-10-07T10:23:11Z</time>
      </trkpt>
      <trkpt lat="47.9732" lon="-0.41606">
        <ele>68</ele>
        <time>2023-10-07T10:23:12Z</time>
      </trkpt>
      <trkpt lat="47.97326" lon="-0.41593">
        <ele>65.8</ele>
        <time>2023-10-07T10:23:13Z</time>
      </trkpt>
      <trkpt lat="47.97332" lon="-0.4158">
        <ele>65.8</ele>
        <time>2023-10-07T10:23:14Z</time>
      </trkpt>
      <trkpt lat="47.97338" lon="-0.41568">
        <ele>65.8</ele>
        <time>2023-10-07T10:23:15Z</time>
      </trkpt>
      <trkpt lat="47.97345" lon="-0.41556">
        <ele>65.8</ele>
        <time>2023-10-07T10:23:16Z</time>
      </trkpt>
      <trkpt lat="47.97353" lon="-0.41545">
        <ele>62.6</ele>
        <time>2023-10-07T10:23:17Z</time>
      </trkpt>
      <trkpt lat="47.97361" lon="-0.41534">
        <ele>62.6</ele>
        <time>2023-10-07T10:23:18Z</time>
      </trkpt>
      <trkpt lat="47.97369" lon="-0.41524">
        <ele>62.6</ele>
        <time>2023-10-07T10:23:19Z</time>
      </trkpt>
      <trkpt lat="47.97378" lon="-0.41515">
        <ele>62.6</ele>
        <time>2023-10-07T10:23:20Z</time>
      </trkpt>
      <trkpt lat="47.97387" lon="-0.41508">
        <ele>62</ele>
        <time>2023-10-07T10:23:21Z</time>
      </trkpt>
      <trkpt lat="47.97397" lon="-0.41502">
        <ele>62</ele>
        <time>2023-10-07T10:23:22Z</time>
      </trkpt>
      <trkpt lat="47.97406" lon="-0.41496">
        <ele>62</ele>
        <time>2023-10-07T10:23:23Z</time>
      </trkpt>
      <trkpt lat="47.97416" lon="-0.41492">
        <ele>61.4</ele>
        <time>2023-10-07T10:23:24Z</time>
      </trkpt>
      <trkpt lat="47.97425" lon="-0.41489">
        <ele>63</ele>
        <time>2023-10-07T10:23:25Z</time>
      </trkpt>
      <trkpt lat="47.97435" lon="-0.41487">
        <ele>63</ele>
        <time>2023-10-07T10:23:26Z</time>
      </trkpt>
      <trkpt lat="47.97444" lon="-0.41486">
        <ele>63</ele>
        <time>2023-10-07T10:23:27Z</time>
      </trkpt>
      <trkpt lat="47.97453" lon="-0.41487">
        <ele>63</ele>
        <time>2023-10-07T10:23:28Z</time>
      </trkpt>
      <trkpt lat="47.97463" lon="-0.41489">
        <ele>64</ele>
        <time>2023-10-07T10:23:29Z</time>
      </trkpt>
      <trkpt lat="47.97471" lon="-0.41492">
        <ele>64</ele>
        <time>2023-10-07T10:23:30Z</time>
      </trkpt>
      <trkpt lat="47.97479" lon="-0.41497">
        <ele>64</ele>
        <time>2023-10-07T10:23:31Z</time>
      </trkpt>
      <trkpt lat="47.97487" lon="-0.41504">
        <ele>65</ele>
        <time>2023-10-07T10:23:32Z</time>
      </trkpt>
      <trkpt lat="47.97493" lon="-0.41511">
        <ele>65.6</ele>
        <time>2023-10-07T10:23:33Z</time>
      </trkpt>
      <trkpt lat="47.97499" lon="-0.41519">
        <ele>65.6</ele>
        <time>2023-10-07T10:23:34Z</time>
      </trkpt>
      <trkpt lat="47.97505" lon="-0.41526">
        <ele>65.6</ele>
        <time>2023-10-07T10:23:35Z</time>
      </trkpt>
      <trkpt lat="47.9751" lon="-0.41533">
        <ele>66.6</ele>
        <time>2023-10-07T10:23:36Z</time>
      </trkpt>
      <trkpt lat="47.97516" lon="-0.4154">
        <ele>68.4</ele>
        <time>2023-10-07T10:23:37Z</time>
      </trkpt>
      <trkpt lat="47.97521" lon="-0.41546">
        <ele>68.4</ele>
        <time>2023-10-07T10:23:38Z</time>
      </trkpt>
      <trkpt lat="47.97527" lon="-0.4155">
        <ele>68.4</ele>
        <time>2023-10-07T10:23:39Z</time>
      </trkpt>
      <trkpt lat="47.97533" lon="-0.41554">
        <ele>69.4</ele>
        <time>2023-10-07T10:23:40Z</time>
      </trkpt>
      <trkpt lat="47.97539" lon="-0.41556">
        <ele>69.8</ele>
        <time>2023-10-07T10:23:41Z</time>
      </trkpt>
      <trkpt lat="47.97545" lon="-0.41559">
        <ele>69.8</ele>
        <time>2023-10-07T10:23:42Z</time>
      </trkpt>
      <trkpt lat="47.9755" lon="-0.4156">
        <ele>69.8</ele>
        <time>2023-10-07T10:23:43Z</time>
      </trkpt>
      <trkpt lat="47.97556" lon="-0.41561">
        <ele>70.8</ele>
        <time>2023-10-07T10:23:44Z</time>
      </trkpt>
      <trkpt lat="47.97561" lon="-0.41561">
        <ele>72.4</ele>
        <time>2023-10-07T10:23:45Z</time>
      </trkpt>
      <trkpt lat="47.97566" lon="-0.41561">
        <ele>72.4</ele>
        <time>2023-10-07T10:23:46Z</time>
      </trkpt>
      <trkpt lat="47.97571" lon="-0.41559">
        <ele>72.4</ele>
        <time>2023-10-07T10:23:47Z</time>
      </trkpt>
      <trkpt lat="47.97576" lon="-0.41558">
        <ele>73.2</ele>
        <time>2023-10-07T10:23:48Z</time>
      </trkpt>
      <trkpt lat="47.9758" lon="-0.41556">
        <ele>73.4</ele>
        <time>2023-10-07T10:23:49Z</time>
      </trkpt>
      <trkpt lat="47.97584" lon="-0.41553">
        <ele>73.4</ele>
        <time>2023-10-07T10:23:50Z</time>
      </trkpt>
      <trkpt lat="47.97589" lon="-0.41551">
        <ele>73.4</ele>
        <time>2023-10-07T10:23:51Z</time>
      </trkpt>
      <trkpt lat="47.97593" lon="-0.41548">
        <ele>73.4</ele>
        <time>2023-10-07T10:23:52Z</time>
      </trkpt>
      <trkpt lat="47.97597" lon="-0.41546">
        <ele>74.4</ele>
        <time>2023-10-07T10:23:53Z</time>
      </trkpt>
      <trkpt lat="47.976" lon="-0.41547">
        <ele>74.4</ele>
        <time>2023-10-07T10:23:54Z</time>
      </trkpt>
      <trkpt lat="47.97603" lon="-0.4155">
        <ele>74.4</ele>
        <time>2023-10-07T10:23:55Z</time>
      </trkpt>
      <trkpt lat="47.97604" lon="-0.41555">
        <ele>75.2</ele>
        <time>2023-10-07T10:23:56Z</time>
      </trkpt>
      <trkpt lat="47.97605" lon="-0.4156">
        <ele>75</ele>
        <time>2023-10-07T10:23:57Z</time>
      </trkpt>
      <trkpt lat="47.97604" lon="-0.41566">
        <ele>75</ele>
        <time>2023-10-07T10:23:58Z</time>
      </trkpt>
      <trkpt lat="47.97604" lon="-0.41572">
        <ele>75</ele>
        <time>2023-10-07T10:23:59Z</time>
      </trkpt>
      <trkpt lat="47.97603" lon="-0.41578">
        <ele>75</ele>
        <time>2023-10-07T10:24:00Z</time>
      </trkpt>
      <trkpt lat="47.97602" lon="-0.41584">
        <ele>74.8</ele>
        <time>2023-10-07T10:24:01Z</time>
      </trkpt>
      <trkpt lat="47.97602" lon="-0.41589">
        <ele>74.8</ele>
        <time>2023-10-07T10:24:02Z</time>
      </trkpt>
      <trkpt lat="47.97602" lon="-0.41595">
        <ele>74.8</ele>
        <time>2023-10-07T10:24:03Z</time>
      </trkpt>
      <trkpt lat="47.97602" lon="-0.41602">
        <ele>74.8</ele>
        <time>2023-10-07T10:24:04Z</time>
      </trkpt>
      <trkpt lat="47.97602" lon="-0.41608">
        <ele>74.2</ele>
        <time>2023-10-07T10:24:05Z</time>
      </trkpt>
      <trkpt lat="47.97602" lon="-0.41615">
        <ele>74.2</ele>
        <time>2023-10-07T10:24:06Z</time>
      </trkpt>
      <trkpt lat="47.97603" lon="-0.41622">
        <ele>74.2</ele>
        <time>2023-10-07T10:24:07Z</time>
      </trkpt>
      <trkpt lat="47.97604" lon="-0.41629">
        <ele>73.2</ele>
        <time>2023-10-07T10:24:08Z</time>
      </trkpt>
      <trkpt lat="47.97607" lon="-0.41636">
        <ele>73.6</ele>
        <time>2023-10-07T10:24:09Z</time>
      </trkpt>
      <trkpt lat="47.97611" lon="-0.41642">
        <ele>73.6</ele>
        <time>2023-10-07T10:24:10Z</time>
      </trkpt>
      <trkpt lat="47.97614" lon="-0.41649">
        <ele>73.6</ele>
        <time>2023-10-07T10:24:11Z</time>
      </trkpt>
      <trkpt lat="47.97619" lon="-0.41655">
        <ele>72.6</ele>
        <time>2023-10-07T10:24:12Z</time>
      </trkpt>
      <trkpt lat="47.97624" lon="-0.4166">
        <ele>71.8</ele>
        <time>2023-10-07T10:24:13Z</time>
      </trkpt>
      <trkpt lat="47.97629" lon="-0.41664">
        <ele>71.8</ele>
        <time>2023-10-07T10:24:14Z</time>
      </trkpt>
      <trkpt lat="47.97635" lon="-0.41668">
        <ele>71.8</ele>
        <time>2023-10-07T10:24:15Z</time>
      </trkpt>
      <trkpt lat="47.97641" lon="-0.41671">
        <ele>71.8</ele>
        <time>2023-10-07T10:24:16Z</time>
      </trkpt>
      <trkpt lat="47.97647" lon="-0.41674">
        <ele>71.2</ele>
        <time>2023-10-07T10:24:17Z</time>
      </trkpt>
      <trkpt lat="47.97653" lon="-0.41676">
        <ele>71.2</ele>
        <time>2023-10-07T10:24:18Z</time>
      </trkpt>
      <trkpt lat="47.97659" lon="-0.41679">
        <ele>71.2</ele>
        <time>2023-10-07T10:24:19Z</time>
      </trkpt>
      <trkpt lat="47.97665" lon="-0.41681">
        <ele>71.2</ele>
        <time>2023-10-07T10:24:20Z</time>
      </trkpt>
      <trkpt lat="47.97671" lon="-0.41685">
        <ele>70.4</ele>
        <time>2023-10-07T10:24:21Z</time>
      </trkpt>
      <trkpt lat="47.97677" lon="-0.41688">
        <ele>70.4</ele>
        <time>2023-10-07T10:24:22Z</time>
      </trkpt>
      <trkpt lat="47.97684" lon="-0.41691">
        <ele>70.4</ele>
        <time>2023-10-07T10:24:23Z</time>
      </trkpt>
      <trkpt lat="47.9769" lon="-0.41695">
        <ele>69.4</ele>
        <time>2023-10-07T10:24:24Z</time>
      </trkpt>
      <trkpt lat="47.97697" lon="-0.41699">
        <ele>68</ele>
        <time>2023-10-07T10:24:25Z</time>
      </trkpt>
      <trkpt lat="47.97703" lon="-0.41703">
        <ele>68</ele>
        <time>2023-10-07T10:24:26Z</time>
      </trkpt>
      <trkpt lat="47.9771" lon="-0.41708">
        <ele>68</ele>
        <time>2023-10-07T10:24:27Z</time>
      </trkpt>
      <trkpt lat="47.97717" lon="-0.41712">
        <ele>67</ele>
        <time>2023-10-07T10:24:28Z</time>
      </trkpt>
      <trkpt lat="47.97724" lon="-0.41717">
        <ele>65.8</ele>
        <time>2023-10-07T10:24:29Z</time>
      </trkpt>
      <trkpt lat="47.97732" lon="-0.4172">
        <ele>65.8</ele>
        <time>2023-10-07T10:24:30Z</time>
      </trkpt>
      <trkpt lat="47.9774" lon="-0.41723">
        <ele>65.8</ele>
        <time>2023-10-07T10:24:31Z</time>
      </trkpt>
      <trkpt lat="47.97748" lon="-0.41724">
        <ele>65</ele>
        <time>2023-10-07T10:24:32Z</time>
      </trkpt>
      <trkpt lat="47.97755" lon="-0.41724">
        <ele>63.4</ele>
        <time>2023-10-07T10:24:33Z</time>
      </trkpt>
      <trkpt lat="47.97763" lon="-0.41723">
        <ele>63.4</ele>
        <time>2023-10-07T10:24:34Z</time>
      </trkpt>
      <trkpt lat="47.9777" lon="-0.41719">
        <ele>63.4</ele>
        <time>2023-10-07T10:24:35Z</time>
      </trkpt>
      <trkpt lat="47.97777" lon="-0.41713">
        <ele>62.4</ele>
        <time>2023-10-07T10:24:36Z</time>
      </trkpt>
      <trkpt lat="47.97784" lon="-0.41706">
        <ele>60.4</ele>
        <time>2023-10-07T10:24:37Z</time>
      </trkpt>
      <trkpt lat="47.97791" lon="-0.41699">
        <ele>60.4</ele>
        <time>2023-10-07T10:24:38Z</time>
      </trkpt>
      <trkpt lat="47.97798" lon="-0.41692">
        <ele>60.4</ele>
        <time>2023-10-07T10:24:39Z</time>
      </trkpt>
      <trkpt lat="47.97805" lon="-0.41685">
        <ele>59.6</ele>
        <time>2023-10-07T10:24:40Z</time>
      </trkpt>
      <trkpt lat="47.97812" lon="-0.41679">
        <ele>59</ele>
        <time>2023-10-07T10:24:41Z</time>
      </trkpt>
      <trkpt lat="47.97819" lon="-0.41672">
        <ele>59</ele>
        <time>2023-10-07T10:24:42Z</time>
      </trkpt>
      <trkpt lat="47.97826" lon="-0.41665">
        <ele>59</ele>
        <time>2023-10-07T10:24:43Z</time>
      </trkpt>
      <trkpt lat="47.97832" lon="-0.41658">
        <ele>59</ele>
        <time>2023-10-07T10:24:44Z</time>
      </trkpt>
      <trkpt lat="47.97838" lon="-0.4165">
        <ele>59.8</ele>
        <time>2023-10-07T10:24:45Z</time>
      </trkpt>
      <trkpt lat="47.97843" lon="-0.41643">
        <ele>59.8</ele>
        <time>2023-10-07T10:24:46Z</time>
      </trkpt>
      <trkpt lat="47.97848" lon="-0.41635">
        <ele>59.8</ele>
        <time>2023-10-07T10:24:47Z</time>
      </trkpt>
      <trkpt lat="47.97854" lon="-0.4163">
        <ele>59.8</ele>
        <time>2023-10-07T10:24:48Z</time>
      </trkpt>
      <trkpt lat="47.97859" lon="-0.41627">
        <ele>60.6</ele>
        <time>2023-10-07T10:24:49Z</time>
      </trkpt>
      <trkpt lat="47.97865" lon="-0.41628">
        <ele>60.6</ele>
        <time>2023-10-07T10:24:50Z</time>
      </trkpt>
      <trkpt lat="47.9787" lon="-0.41632">
        <ele>60.6</ele>
        <time>2023-10-07T10:24:51Z</time>
      </trkpt>
      <trkpt lat="47.97875" lon="-0.41638">
        <ele>60.6</ele>
        <time>2023-10-07T10:24:52Z</time>
      </trkpt>
      <trkpt lat="47.9788" lon="-0.41643">
        <ele>61.2</ele>
        <time>2023-10-07T10:24:53Z</time>
      </trkpt>
      <trkpt lat="47.97885" lon="-0.41648">
        <ele>61.2</ele>
        <time>2023-10-07T10:24:54Z</time>
      </trkpt>
      <trkpt lat="47.9789" lon="-0.41651">
        <ele>61.2</ele>
        <time>2023-10-07T10:24:55Z</time>
      </trkpt>
      <trkpt lat="47.97895" lon="-0.41654">
        <ele>62.2</ele>
        <time>2023-10-07T10:24:56Z</time>
      </trkpt>
      <trkpt lat="47.97899" lon="-0.41657">
        <ele>64.8</ele>
        <time>2023-10-07T10:24:57Z</time>
      </trkpt>
      <trkpt lat="47.97904" lon="-0.4166">
        <ele>64.8</ele>
        <time>2023-10-07T10:24:58Z</time>
      </trkpt>
      <trkpt lat="47.97908" lon="-0.41663">
        <ele>64.8</ele>
        <time>2023-10-07T10:24:59Z</time>
      </trkpt>
      <trkpt lat="47.97912" lon="-0.41667">
        <ele>65.8</ele>
        <time>2023-10-07T10:25:00Z</time>
      </trkpt>
      <trkpt lat="47.97917" lon="-0.41671">
        <ele>67.2</ele>
        <time>2023-10-07T10:25:01Z</time>
      </trkpt>
      <trkpt lat="47.9792" lon="-0.41675">
        <ele>67.2</ele>
        <time>2023-10-07T10:25:02Z</time>
      </trkpt>
      <trkpt lat="47.97924" lon="-0.41679">
        <ele>67.2</ele>
        <time>2023-10-07T10:25:03Z</time>
      </trkpt>
      <trkpt lat="47.97927" lon="-0.41684">
        <ele>67.2</ele>
        <time>2023-10-07T10:25:04Z</time>
      </trkpt>
      <trkpt lat="47.97931" lon="-0.41689">
        <ele>67.6</ele>
        <time>2023-10-07T10:25:05Z</time>
      </trkpt>
      <trkpt lat="47.97934" lon="-0.41694">
        <ele>67.6</ele>
        <time>2023-10-07T10:25:06Z</time>
      </trkpt>
      <trkpt lat="47.97937" lon="-0.41699">
        <ele>67.6</ele>
        <time>2023-10-07T10:25:07Z</time>
      </trkpt>
      <trkpt lat="47.97941" lon="-0.41704">
        <ele>67.6</ele>
        <time>2023-10-07T10:25:08Z</time>
      </trkpt>
      <trkpt lat="47.97944" lon="-0.41708">
        <ele>68.4</ele>
        <time>2023-10-07T10:25:09Z</time>
      </trkpt>
      <trkpt lat="47.97947" lon="-0.41712">
        <ele>68.4</ele>
        <time>2023-10-07T10:25:10Z</time>
      </trkpt>
      <trkpt lat="47.9795" lon="-0.41717">
        <ele>68.4</ele>
        <time>2023-10-07T10:25:11Z</time>
      </trkpt>
      <trkpt lat="47.97953" lon="-0.41721">
        <ele>69.4</ele>
        <time>2023-10-07T10:25:12Z</time>
      </trkpt>
      <trkpt lat="47.97956" lon="-0.41725">
        <ele>70.4</ele>
        <time>2023-10-07T10:25:13Z</time>
      </trkpt>
      <trkpt lat="47.97959" lon="-0.41729">
        <ele>70.4</ele>
        <time>2023-10-07T10:25:14Z</time>
      </trkpt>
      <trkpt lat="47.97962" lon="-0.41733">
        <ele>70.4</ele>
        <time>2023-10-07T10:25:15Z</time>
      </trkpt>
      <trkpt lat="47.97965" lon="-0.41737">
        <ele>70.4</ele>
        <time>2023-10-07T10:25:16Z</time>
      </trkpt>
      <trkpt lat="47.97967" lon="-0.41741">
        <ele>70.8</ele>
        <time>2023-10-07T10:25:17Z</time>
      </trkpt>
      <trkpt lat="47.9797" lon="-0.41745">
        <ele>70.8</ele>
        <time>2023-10-07T10:25:18Z</time>
      </trkpt>
      <trkpt lat="47.97972" lon="-0.41748">
        <ele>70.8</ele>
        <time>2023-10-07T10:25:19Z</time>
      </trkpt>
      <trkpt lat="47.97975" lon="-0.41752">
        <ele>70.8</ele>
        <time>2023-10-07T10:25:20Z</time>
      </trkpt>
      <trkpt lat="47.97978" lon="-0.41755">
        <ele>72</ele>
        <time>2023-10-07T10:25:21Z</time>
      </trkpt>
      <trkpt lat="47.9798" lon="-0.41759">
        <ele>72</ele>
        <time>2023-10-07T10:25:22Z</time>
      </trkpt>
      <trkpt lat="47.97983" lon="-0.41762">
        <ele>72</ele>
        <time>2023-10-07T10:25:23Z</time>
      </trkpt>
      <trkpt lat="47.97985" lon="-0.41766">
        <ele>72</ele>
        <time>2023-10-07T10:25:24Z</time>
      </trkpt>
      <trkpt lat="47.97988" lon="-0.41769">
        <ele>72.8</ele>
        <time>2023-10-07T10:25:25Z</time>
      </trkpt>
      <trkpt lat="47.9799" lon="-0.41772">
        <ele>72.8</ele>
        <time>2023-10-07T10:25:26Z</time>
      </trkpt>
      <trkpt lat="47.97992" lon="-0.41776">
        <ele>72.8</ele>
        <time>2023-10-07T10:25:27Z</time>
      </trkpt>
      <trkpt lat="47.97994" lon="-0.41779">
        <ele>72.8</ele>
        <time>2023-10-07T10:25:28Z</time>
      </trkpt>
      <trkpt lat="47.97996" lon="-0.41782">
        <ele>74</ele>
        <time>2023-10-07T10:25:29Z</time>
      </trkpt>
      <trkpt lat="47.97998" lon="-0.41785">
        <ele>74</ele>
        <time>2023-10-07T10:25:30Z</time>
      </trkpt>
      <trkpt lat="47.98" lon="-0.41789">
        <ele>74</ele>
        <time>2023-10-07T10:25:31Z</time>
      </trkpt>
      <trkpt lat="47.98003" lon="-0.41792">
        <ele>74</ele>
        <time>2023-10-07T10:25:32Z</time>
      </trkpt>
      <trkpt lat="47.98005" lon="-0.41795">
        <ele>74.6</ele>
        <time>2023-10-07T10:25:33Z</time>
      </trkpt>
      <trkpt lat="47.98007" lon="-0.41799">
        <ele>74.6</ele>
        <time>2023-10-07T10:25:34Z</time>
      </trkpt>
      <trkpt lat="47.98009" lon="-0.41803">
        <ele>74.6</ele>
        <time>2023-10-07T10:25:35Z</time>
      </trkpt>
      <trkpt lat="47.98011" lon="-0.41806">
        <ele>75.4</ele>
        <time>2023-10-07T10:25:36Z</time>
      </trkpt>
      <trkpt lat="47.98012" lon="-0.4181">
        <ele>75.2</ele>
        <time>2023-10-07T10:25:37Z</time>
      </trkpt>
      <trkpt lat="47.98014" lon="-0.41813">
        <ele>75.2</ele>
        <time>2023-10-07T10:25:38Z</time>
      </trkpt>
      <trkpt lat="47.98016" lon="-0.41817">
        <ele>75.2</ele>
        <time>2023-10-07T10:25:39Z</time>
      </trkpt>
      <trkpt lat="47.98018" lon="-0.41821">
        <ele>75.4</ele>
        <time>2023-10-07T10:25:40Z</time>
      </trkpt>
      <trkpt lat="47.9802" lon="-0.41825">
        <ele>76.2</ele>
        <time>2023-10-07T10:25:41Z</time>
      </trkpt>
      <trkpt lat="47.98021" lon="-0.41829">
        <ele>76.2</ele>
        <time>2023-10-07T10:25:42Z</time>
      </trkpt>
      <trkpt lat="47.98023" lon="-0.41833">
        <ele>76.2</ele>
        <time>2023-10-07T10:25:43Z</time>
      </trkpt>
      <trkpt lat="47.98025" lon="-0.41836">
        <ele>76.2</ele>
        <time>2023-10-07T10:25:44Z</time>
      </trkpt>
      <trkpt lat="47.98027" lon="-0.4184">
        <ele>76.8</ele>
        <time>2023-10-07T10:25:45Z</time>
      </trkpt>
      <trkpt lat="47.98029" lon="-0.41844">
        <ele>76.8</ele>
        <time>2023-10-07T10:25:46Z</time>
      </trkpt>
      <trkpt lat="47.98031" lon="-0.41848">
        <ele>76.8</ele>
        <time>2023-10-07T10:25:47Z</time>
      </trkpt>
      <trkpt lat="47.98033" lon="-0.41852">
        <ele>77.8</ele>
        <time>2023-10-07T10:25:48Z</time>
      </trkpt>
      <trkpt lat="47.98035" lon="-0.41855">
        <ele>77.4</ele>
        <time>2023-10-07T10:25:49Z</time>
      </trkpt>
      <trkpt lat="47.98037" lon="-0.41859">
        <ele>77.4</ele>
        <time>2023-10-07T10:25:50Z</time>
      </trkpt>
      <trkpt lat="47.98039" lon="-0.41863">
        <ele>77.4</ele>
        <time>2023-10-07T10:25:51Z</time>
      </trkpt>
      <trkpt lat="47.98041" lon="-0.41867">
        <ele>77.4</ele>
        <time>2023-10-07T10:25:52Z</time>
      </trkpt>
      <trkpt lat="47.98043" lon="-0.41871">
        <ele>78.6</ele>
        <time>2023-10-07T10:25:53Z</time>
      </trkpt>
      <trkpt lat="47.98045" lon="-0.41875">
        <ele>78.6</ele>
        <time>2023-10-07T10:25:54Z</time>
      </trkpt>
      <trkpt lat="47.98047" lon="-0.41879">
        <ele>78.6</ele>
        <time>2023-10-07T10:25:55Z</time>
      </trkpt>
      <trkpt lat="47.98049" lon="-0.41882">
        <ele>79.2</ele>
        <time>2023-10-07T10:25:56Z</time>
      </trkpt>
      <trkpt lat="47.98051" lon="-0.41887">
        <ele>78.6</ele>
        <time>2023-10-07T10:25:57Z</time>
      </trkpt>
      <trkpt lat="47.98053" lon="-0.4189">
        <ele>78.6</ele>
        <time>2023-10-07T10:25:58Z</time>
      </trkpt>
      <trkpt lat="47.98055" lon="-0.41894">
        <ele>78.6</ele>
        <time>2023-10-07T10:25:59Z</time>
      </trkpt>
      <trkpt lat="47.98056" lon="-0.41898">
        <ele>78.6</ele>
        <time>2023-10-07T10:26:00Z</time>
      </trkpt>
      <trkpt lat="47.98058" lon="-0.41901">
        <ele>79.6</ele>
        <time>2023-10-07T10:26:01Z</time>
      </trkpt>
      <trkpt lat="47.9806" lon="-0.41905">
        <ele>79.6</ele>
        <time>2023-10-07T10:26:02Z</time>
      </trkpt>
      <trkpt lat="47.98062" lon="-0.41909">
        <ele>79.6</ele>
        <time>2023-10-07T10:26:03Z</time>
      </trkpt>
      <trkpt lat="47.98064" lon="-0.41913">
        <ele>80.6</ele>
        <time>2023-10-07T10:26:04Z</time>
      </trkpt>
      <trkpt lat="47.98066" lon="-0.41917">
        <ele>80.2</ele>
        <time>2023-10-07T10:26:05Z</time>
      </trkpt>
      <trkpt lat="47.98069" lon="-0.41922">
        <ele>80.2</ele>
        <time>2023-10-07T10:26:06Z</time>
      </trkpt>
      <trkpt lat="47.98071" lon="-0.41925">
        <ele>80.2</ele>
        <time>2023-10-07T10:26:07Z</time>
      </trkpt>
      <trkpt lat="47.98073" lon="-0.41929">
        <ele>81</ele>
        <time>2023-10-07T10:26:08Z</time>
      </trkpt>
      <trkpt lat="47.98075" lon="-0.41932">
        <ele>80.6</ele>
        <time>2023-10-07T10:26:09Z</time>
      </trkpt>
      <trkpt lat="47.98077" lon="-0.41935">
        <ele>80.6</ele>
        <time>2023-10-07T10:26:10Z</time>
      </trkpt>
      <trkpt lat="47.98079" lon="-0.41939">
        <ele>80.6</ele>
        <time>2023-10-07T10:26:11Z</time>
      </trkpt>
      <trkpt lat="47.98081" lon="-0.41942">
        <ele>81.6</ele>
        <time>2023-10-07T10:26:12Z</time>
      </trkpt>
      <trkpt lat="47.98083" lon="-0.41945">
        <ele>81.8</ele>
        <time>2023-10-07T10:26:13Z</time>
      </trkpt>
      <trkpt lat="47.98085" lon="-0.41949">
        <ele>81.8</ele>
        <time>2023-10-07T10:26:14Z</time>
      </trkpt>
      <trkpt lat="47.98087" lon="-0.41953">
        <ele>81.8</ele>
        <time>2023-10-07T10:26:15Z</time>
      </trkpt>
      <trkpt lat="47.98089" lon="-0.41958">
        <ele>82.2</ele>
        <time>2023-10-07T10:26:16Z</time>
      </trkpt>
      <trkpt lat="47.98091" lon="-0.41961">
        <ele>82.4</ele>
        <time>2023-10-07T10:26:17Z</time>
      </trkpt>
      <trkpt lat="47.98094" lon="-0.41964">
        <ele>82.4</ele>
        <time>2023-10-07T10:26:18Z</time>
      </trkpt>
      <trkpt lat="47.98096" lon="-0.41967">
        <ele>82.4</ele>
        <time>2023-10-07T10:26:19Z</time>
      </trkpt>
      <trkpt lat="47.98098" lon="-0.41971">
        <ele>82.6</ele>
        <time>2023-10-07T10:26:20Z</time>
      </trkpt>
      <trkpt lat="47.981" lon="-0.41974">
        <ele>83</ele>
        <time>2023-10-07T10:26:21Z</time>
      </trkpt>
      <trkpt lat="47.98102" lon="-0.41976">
        <ele>83</ele>
        <time>2023-10-07T10:26:22Z</time>
      </trkpt>
      <trkpt lat="47.98105" lon="-0.41979">
        <ele>83</ele>
        <time>2023-10-07T10:26:23Z</time>
      </trkpt>
      <trkpt lat="47.98107" lon="-0.41982">
        <ele>83</ele>
        <time>2023-10-07T10:26:24Z</time>
      </trkpt>
      <trkpt lat="47.98109" lon="-0.41985">
        <ele>84</ele>
        <time>2023-10-07T10:26:25Z</time>
      </trkpt>
      <trkpt lat="47.98112" lon="-0.41987">
        <ele>84</ele>
        <time>2023-10-07T10:26:26Z</time>
      </trkpt>
      <trkpt lat="47.98115" lon="-0.4199">
        <ele>84</ele>
        <time>2023-10-07T10:26:27Z</time>
      </trkpt>
      <trkpt lat="47.98118" lon="-0.41992">
        <ele>84</ele>
        <time>2023-10-07T10:26:28Z</time>
      </trkpt>
      <trkpt lat="47.98121" lon="-0.41994">
        <ele>84.2</ele>
        <time>2023-10-07T10:26:29Z</time>
      </trkpt>
      <trkpt lat="47.98124" lon="-0.41995">
        <ele>84.2</ele>
        <time>2023-10-07T10:26:30Z</time>
      </trkpt>
      <trkpt lat="47.98127" lon="-0.41997">
        <ele>84.2</ele>
        <time>2023-10-07T10:26:31Z</time>
      </trkpt>
      <trkpt lat="47.9813" lon="-0.41998">
        <ele>84.2</ele>
        <time>2023-10-07T10:26:32Z</time>
      </trkpt>
      <trkpt lat="47.98133" lon="-0.41998">
        <ele>84.8</ele>
        <time>2023-10-07T10:26:33Z</time>
      </trkpt>
      <trkpt lat="47.98136" lon="-0.41999">
        <ele>84.8</ele>
        <time>2023-10-07T10:26:34Z</time>
      </trkpt>
      <trkpt lat="47.98139" lon="-0.42">
        <ele>84.8</ele>
        <time>2023-10-07T10:26:35Z</time>
      </trkpt>
      <trkpt lat="47.98142" lon="-0.42001">
        <ele>84.8</ele>
        <time>2023-10-07T10:26:36Z</time>
      </trkpt>
      <trkpt lat="47.98144" lon="-0.42003">
        <ele>85.4</ele>
        <time>2023-10-07T10:26:37Z</time>
      </trkpt>
      <trkpt lat="47.98147" lon="-0.42005">
        <ele>85.4</ele>
        <time>2023-10-07T10:26:38Z</time>
      </trkpt>
      <trkpt lat="47.9815" lon="-0.42008">
        <ele>85.4</ele>
        <time>2023-10-07T10:26:39Z</time>
      </trkpt>
      <trkpt lat="47.98152" lon="-0.42012">
        <ele>85.4</ele>
        <time>2023-10-07T10:26:40Z</time>
      </trkpt>
      <trkpt lat="47.98155" lon="-0.42016">
        <ele>85.2</ele>
        <time>2023-10-07T10:26:41Z</time>
      </trkpt>
      <trkpt lat="47.98157" lon="-0.4202">
        <ele>85.2</ele>
        <time>2023-10-07T10:26:42Z</time>
      </trkpt>
      <trkpt lat="47.98159" lon="-0.42025">
        <ele>85.2</ele>
        <time>2023-10-07T10:26:43Z</time>
      </trkpt>
      <trkpt lat="47.98161" lon="-0.42029">
        <ele>85.4</ele>
        <time>2023-10-07T10:26:44Z</time>
      </trkpt>
      <trkpt lat="47.98163" lon="-0.42034">
        <ele>85.6</ele>
        <time>2023-10-07T10:26:45Z</time>
      </trkpt>
      <trkpt lat="47.98165" lon="-0.42038">
        <ele>85.6</ele>
        <time>2023-10-07T10:26:46Z</time>
      </trkpt>
      <trkpt lat="47.98167" lon="-0.42041">
        <ele>85.6</ele>
        <time>2023-10-07T10:26:47Z</time>
      </trkpt>
      <trkpt lat="47.98169" lon="-0.42045">
        <ele>86.4</ele>
        <time>2023-10-07T10:26:48Z</time>
      </trkpt>
      <trkpt lat="47.98171" lon="-0.42048">
        <ele>86.2</ele>
        <time>2023-10-07T10:26:49Z</time>
      </trkpt>
      <trkpt lat="47.98174" lon="-0.42053">
        <ele>86.2</ele>
        <time>2023-10-07T10:26:50Z</time>
      </trkpt>
      <trkpt lat="47.98176" lon="-0.42057">
        <ele>86.2</ele>
        <time>2023-10-07T10:26:51Z</time>
      </trkpt>
      <trkpt lat="47.98178" lon="-0.42061">
        <ele>86.6</ele>
        <time>2023-10-07T10:26:52Z</time>
      </trkpt>
      <trkpt lat="47.98179" lon="-0.42065">
        <ele>86.8</ele>
        <time>2023-10-07T10:26:53Z</time>
      </trkpt>
      <trkpt lat="47.98181" lon="-0.42069">
        <ele>86.8</ele>
        <time>2023-10-07T10:26:54Z</time>
      </trkpt>
      <trkpt lat="47.98183" lon="-0.42073">
        <ele>86.8</ele>
        <time>2023-10-07T10:26:55Z</time>
      </trkpt>
      <trkpt lat="47.98184" lon="-0.42078">
        <ele>86.8</ele>
        <time>2023-10-07T10:26:56Z</time>
      </trkpt>
      <trkpt lat="47.98186" lon="-0.42082">
        <ele>87.2</ele>
        <time>2023-10-07T10:26:57Z</time>
      </trkpt>
      <trkpt lat="47.98188" lon="-0.42085">
        <ele>87.2</ele>
        <time>2023-10-07T10:26:58Z</time>
      </trkpt>
      <trkpt lat="47.98191" lon="-0.42088">
        <ele>87.2</ele>
        <time>2023-10-07T10:26:59Z</time>
      </trkpt>
      <trkpt lat="47.98193" lon="-0.42091">
        <ele>88.2</ele>
        <time>2023-10-07T10:27:00Z</time>
      </trkpt>
      <trkpt lat="47.98195" lon="-0.42095">
        <ele>88.2</ele>
        <time>2023-10-07T10:27:01Z</time>
      </trkpt>
      <trkpt lat="47.98197" lon="-0.42099">
        <ele>88.2</ele>
        <time>2023-10-07T10:27:02Z</time>
      </trkpt>
      <trkpt lat="47.98199" lon="-0.42102">
        <ele>88.2</ele>
        <time>2023-10-07T10:27:03Z</time>
      </trkpt>
      <trkpt lat="47.98201" lon="-0.42106">
        <ele>88.2</ele>
        <time>2023-10-07T10:27:04Z</time>
      </trkpt>
      <trkpt lat="47.98203" lon="-0.42108">
        <ele>88</ele>
        <time>2023-10-07T10:27:05Z</time>
      </trkpt>
      <trkpt lat="47.98206" lon="-0.42113">
        <ele>88</ele>
        <time>2023-10-07T10:27:06Z</time>
      </trkpt>
      <trkpt lat="47.98207" lon="-0.42117">
        <ele>88</ele>
        <time>2023-10-07T10:27:07Z</time>
      </trkpt>
      <trkpt lat="47.98209" lon="-0.4212">
        <ele>88.8</ele>
        <time>2023-10-07T10:27:08Z</time>
      </trkpt>
      <trkpt lat="47.98211" lon="-0.42124">
        <ele>88.6</ele>
        <time>2023-10-07T10:27:09Z</time>
      </trkpt>
      <trkpt lat="47.98213" lon="-0.42128">
        <ele>88.6</ele>
        <time>2023-10-07T10:27:10Z</time>
      </trkpt>
      <trkpt lat="47.98215" lon="-0.42132">
        <ele>88.6</ele>
        <time>2023-10-07T10:27:11Z</time>
      </trkpt>
      <trkpt lat="47.98217" lon="-0.42136">
        <ele>89.6</ele>
        <time>2023-10-07T10:27:12Z</time>
      </trkpt>
      <trkpt lat="47.98218" lon="-0.4214">
        <ele>89.4</ele>
        <time>2023-10-07T10:27:13Z</time>
      </trkpt>
      <trkpt lat="47.9822" lon="-0.42145">
        <ele>89.4</ele>
        <time>2023-10-07T10:27:14Z</time>
      </trkpt>
      <trkpt lat="47.98221" lon="-0.4215">
        <ele>89.4</ele>
        <time>2023-10-07T10:27:15Z</time>
      </trkpt>
      <trkpt lat="47.98223" lon="-0.42154">
        <ele>89.4</ele>
        <time>2023-10-07T10:27:16Z</time>
      </trkpt>
      <trkpt lat="47.98225" lon="-0.4216">
        <ele>90.2</ele>
        <time>2023-10-07T10:27:17Z</time>
      </trkpt>
      <trkpt lat="47.98226" lon="-0.42165">
        <ele>90.2</ele>
        <time>2023-10-07T10:27:18Z</time>
      </trkpt>
      <trkpt lat="47.98228" lon="-0.4217">
        <ele>90.2</ele>
        <time>2023-10-07T10:27:19Z</time>
      </trkpt>
      <trkpt lat="47.9823" lon="-0.42174">
        <ele>90.2</ele>
        <time>2023-10-07T10:27:20Z</time>
      </trkpt>
      <trkpt lat="47.98232" lon="-0.42179">
        <ele>90.8</ele>
        <time>2023-10-07T10:27:21Z</time>
      </trkpt>
      <trkpt lat="47.98234" lon="-0.42184">
        <ele>90.8</ele>
        <time>2023-10-07T10:27:22Z</time>
      </trkpt>
      <trkpt lat="47.98236" lon="-0.4219">
        <ele>90.8</ele>
        <time>2023-10-07T10:27:23Z</time>
      </trkpt>
      <trkpt lat="47.98237" lon="-0.42195">
        <ele>91.6</ele>
        <time>2023-10-07T10:27:24Z</time>
      </trkpt>
      <trkpt lat="47.98239" lon="-0.42199">
        <ele>91.6</ele>
        <time>2023-10-07T10:27:25Z</time>
      </trkpt>
      <trkpt lat="47.98241" lon="-0.42203">
        <ele>91.6</ele>
        <time>2023-10-07T10:27:26Z</time>
      </trkpt>
      <trkpt lat="47.98243" lon="-0.42207">
        <ele>91.6</ele>
        <time>2023-10-07T10:27:27Z</time>
      </trkpt>
      <trkpt lat="47.98245" lon="-0.42212">
        <ele>92.6</ele>
        <time>2023-10-07T10:27:28Z</time>
      </trkpt>
      <trkpt lat="47.98247" lon="-0.42216">
        <ele>92.8</ele>
        <time>2023-10-07T10:27:29Z</time>
      </trkpt>
      <trkpt lat="47.98249" lon="-0.4222">
        <ele>92.8</ele>
        <time>2023-10-07T10:27:30Z</time>
      </trkpt>
      <trkpt lat="47.98251" lon="-0.42224">
        <ele>92.8</ele>
        <time>2023-10-07T10:27:31Z</time>
      </trkpt>
      <trkpt lat="47.98253" lon="-0.42228">
        <ele>92.8</ele>
        <time>2023-10-07T10:27:32Z</time>
      </trkpt>
      <trkpt lat="47.98254" lon="-0.42233">
        <ele>93.2</ele>
        <time>2023-10-07T10:27:33Z</time>
      </trkpt>
      <trkpt lat="47.98256" lon="-0.42237">
        <ele>93.2</ele>
        <time>2023-10-07T10:27:34Z</time>
      </trkpt>
      <trkpt lat="47.98258" lon="-0.42241">
        <ele>93.2</ele>
        <time>2023-10-07T10:27:35Z</time>
      </trkpt>
      <trkpt lat="47.98259" lon="-0.42245">
        <ele>93.2</ele>
        <time>2023-10-07T10:27:36Z</time>
      </trkpt>
      <trkpt lat="47.98261" lon="-0.42249">
        <ele>93.6</ele>
        <time>2023-10-07T10:27:37Z</time>
      </trkpt>
      <trkpt lat="47.98263" lon="-0.42252">
        <ele>93.6</ele>
        <time>2023-10-07T10:27:38Z</time>
      </trkpt>
      <trkpt lat="47.98264" lon="-0.42256">
        <ele>93.6</ele>
        <time>2023-10-07T10:27:39Z</time>
      </trkpt>
      <trkpt lat="47.98266" lon="-0.4226">
        <ele>93.6</ele>
        <time>2023-10-07T10:27:40Z</time>
      </trkpt>
      <trkpt lat="47.98268" lon="-0.42265">
        <ele>94.6</ele>
        <time>2023-10-07T10:27:41Z</time>
      </trkpt>
      <trkpt lat="47.9827" lon="-0.42269">
        <ele>94.6</ele>
        <time>2023-10-07T10:27:42Z</time>
      </trkpt>
      <trkpt lat="47.98271" lon="-0.42273">
        <ele>94.6</ele>
        <time>2023-10-07T10:27:43Z</time>
      </trkpt>
      <trkpt lat="47.98273" lon="-0.42279">
        <ele>94.6</ele>
        <time>2023-10-07T10:27:44Z</time>
      </trkpt>
      <trkpt lat="47.98275" lon="-0.42284">
        <ele>95</ele>
        <time>2023-10-07T10:27:45Z</time>
      </trkpt>
      <trkpt lat="47.98276" lon="-0.42289">
        <ele>95</ele>
        <time>2023-10-07T10:27:46Z</time>
      </trkpt>
      <trkpt lat="47.98278" lon="-0.42294">
        <ele>95</ele>
        <time>2023-10-07T10:27:47Z</time>
      </trkpt>
      <trkpt lat="47.9828" lon="-0.42299">
        <ele>95.8</ele>
        <time>2023-10-07T10:27:48Z</time>
      </trkpt>
      <trkpt lat="47.98281" lon="-0.42303">
        <ele>95.8</ele>
        <time>2023-10-07T10:27:49Z</time>
      </trkpt>
      <trkpt lat="47.98283" lon="-0.42308">
        <ele>95.8</ele>
        <time>2023-10-07T10:27:50Z</time>
      </trkpt>
      <trkpt lat="47.98285" lon="-0.42312">
        <ele>95.8</ele>
        <time>2023-10-07T10:27:51Z</time>
      </trkpt>
      <trkpt lat="47.98287" lon="-0.42316">
        <ele>96.2</ele>
        <time>2023-10-07T10:27:52Z</time>
      </trkpt>
      <trkpt lat="47.9829" lon="-0.4232">
        <ele>96.2</ele>
        <time>2023-10-07T10:27:53Z</time>
      </trkpt>
      <trkpt lat="47.98292" lon="-0.42323">
        <ele>96.2</ele>
        <time>2023-10-07T10:27:54Z</time>
      </trkpt>
      <trkpt lat="47.98296" lon="-0.42324">
        <ele>96.2</ele>
        <time>2023-10-07T10:27:55Z</time>
      </trkpt>
      <trkpt lat="47.98299" lon="-0.42323">
        <ele>95.4</ele>
        <time>2023-10-07T10:27:56Z</time>
      </trkpt>
      <trkpt lat="47.98301" lon="-0.4232">
        <ele>97</ele>
        <time>2023-10-07T10:27:57Z</time>
      </trkpt>
      <trkpt lat="47.98303" lon="-0.42317">
        <ele>97</ele>
        <time>2023-10-07T10:27:58Z</time>
      </trkpt>
      <trkpt lat="47.98306" lon="-0.42315">
        <ele>97</ele>
        <time>2023-10-07T10:27:59Z</time>
      </trkpt>
      <trkpt lat="47.98309" lon="-0.42312">
        <ele>96.2</ele>
        <time>2023-10-07T10:28:00Z</time>
      </trkpt>
      <trkpt lat="47.98312" lon="-0.42309">
        <ele>95.6</ele>
        <time>2023-10-07T10:28:01Z</time>
      </trkpt>
      <trkpt lat="47.98314" lon="-0.42305">
        <ele>95.6</ele>
        <time>2023-10-07T10:28:02Z</time>
      </trkpt>
      <trkpt lat="47.98317" lon="-0.42301">
        <ele>95.6</ele>
        <time>2023-10-07T10:28:03Z</time>
      </trkpt>
      <trkpt lat="47.98319" lon="-0.42296">
        <ele>96.2</ele>
        <time>2023-10-07T10:28:04Z</time>
      </trkpt>
      <trkpt lat="47.98322" lon="-0.42292">
        <ele>95.2</ele>
        <time>2023-10-07T10:28:05Z</time>
      </trkpt>
      <trkpt lat="47.98325" lon="-0.42287">
        <ele>95.2</ele>
        <time>2023-10-07T10:28:06Z</time>
      </trkpt>
      <trkpt lat="47.98328" lon="-0.42282">
        <ele>95.2</ele>
        <time>2023-10-07T10:28:07Z</time>
      </trkpt>
      <trkpt lat="47.98331" lon="-0.42278">
        <ele>95.2</ele>
        <time>2023-10-07T10:28:08Z</time>
      </trkpt>
      <trkpt lat="47.98334" lon="-0.42273">
        <ele>94.6</ele>
        <time>2023-10-07T10:28:09Z</time>
      </trkpt>
      <trkpt lat="47.98337" lon="-0.42268">
        <ele>94.6</ele>
        <time>2023-10-07T10:28:10Z</time>
      </trkpt>
      <trkpt lat="47.9834" lon="-0.42263">
        <ele>94.6</ele>
        <time>2023-10-07T10:28:11Z</time>
      </trkpt>
      <trkpt lat="47.98343" lon="-0.42259">
        <ele>94.8</ele>
        <time>2023-10-07T10:28:12Z</time>
      </trkpt>
      <trkpt lat="47.98346" lon="-0.42254">
        <ele>95.8</ele>
        <time>2023-10-07T10:28:13Z</time>
      </trkpt>
      <trkpt lat="47.98349" lon="-0.42249">
        <ele>95.8</ele>
        <time>2023-10-07T10:28:14Z</time>
      </trkpt>
      <trkpt lat="47.98353" lon="-0.42244">
        <ele>95.8</ele>
        <time>2023-10-07T10:28:15Z</time>
      </trkpt>
      <trkpt lat="47.98356" lon="-0.42239">
        <ele>94.8</ele>
        <time>2023-10-07T10:28:16Z</time>
      </trkpt>
      <trkpt lat="47.9836" lon="-0.42233">
        <ele>94.2</ele>
        <time>2023-10-07T10:28:17Z</time>
      </trkpt>
      <trkpt lat="47.98363" lon="-0.42228">
        <ele>94.2</ele>
        <time>2023-10-07T10:28:18Z</time>
      </trkpt>
      <trkpt lat="47.98366" lon="-0.42223">
        <ele>94.2</ele>
        <time>2023-10-07T10:28:19Z</time>
      </trkpt>
      <trkpt lat="47.98369" lon="-0.4222">
        <ele>93.2</ele>
        <time>2023-10-07T10:28:20Z</time>
      </trkpt>
      <trkpt lat="47.98374" lon="-0.42216">
        <ele>93.8</ele>
        <time>2023-10-07T10:28:21Z</time>
      </trkpt>
      <trkpt lat="47.98377" lon="-0.42212">
        <ele>93.8</ele>
        <time>2023-10-07T10:28:22Z</time>
      </trkpt>
      <trkpt lat="47.98381" lon="-0.42209">
        <ele>93.8</ele>
        <time>2023-10-07T10:28:23Z</time>
      </trkpt>
      <trkpt lat="47.98384" lon="-0.42207">
        <ele>93.8</ele>
        <time>2023-10-07T10:28:24Z</time>
      </trkpt>
      <trkpt lat="47.98386" lon="-0.42205">
        <ele>94.2</ele>
        <time>2023-10-07T10:28:25Z</time>
      </trkpt>
      <trkpt lat="47.98388" lon="-0.42204">
        <ele>94.2</ele>
        <time>2023-10-07T10:28:26Z</time>
      </trkpt>
      <trkpt lat="47.9839" lon="-0.42203">
        <ele>94.2</ele>
        <time>2023-10-07T10:28:27Z</time>
      </trkpt>
      <trkpt lat="47.98392" lon="-0.42202">
        <ele>93.2</ele>
        <time>2023-10-07T10:28:28Z</time>
      </trkpt>
      <trkpt lat="47.98393" lon="-0.42201">
        <ele>93</ele>
        <time>2023-10-07T10:28:29Z</time>
      </trkpt>
      <trkpt lat="47.98395" lon="-0.422">
        <ele>93</ele>
        <time>2023-10-07T10:28:30Z</time>
      </trkpt>
      <trkpt lat="47.98397" lon="-0.42198">
        <ele>93</ele>
        <time>2023-10-07T10:28:31Z</time>
      </trkpt>
      <trkpt lat="47.98399" lon="-0.42197">
        <ele>92</ele>
        <time>2023-10-07T10:28:32Z</time>
      </trkpt>
      <trkpt lat="47.984" lon="-0.42196">
        <ele>91</ele>
        <time>2023-10-07T10:28:33Z</time>
      </trkpt>
      <trkpt lat="47.98402" lon="-0.42195">
        <ele>91</ele>
        <time>2023-10-07T10:28:34Z</time>
      </trkpt>
      <trkpt lat="47.98404" lon="-0.42193">
        <ele>91</ele>
        <time>2023-10-07T10:28:35Z</time>
      </trkpt>
      <trkpt lat="47.98406" lon="-0.42192">
        <ele>90.8</ele>
        <time>2023-10-07T10:28:36Z</time>
      </trkpt>
      <trkpt lat="47.98408" lon="-0.42191">
        <ele>89.4</ele>
        <time>2023-10-07T10:28:37Z</time>
      </trkpt>
      <trkpt lat="47.9841" lon="-0.4219">
        <ele>89.4</ele>
        <time>2023-10-07T10:28:38Z</time>
      </trkpt>
      <trkpt lat="47.98412" lon="-0.42188">
        <ele>89.4</ele>
        <time>2023-10-07T10:28:39Z</time>
      </trkpt>
      <trkpt lat="47.98415" lon="-0.42186">
        <ele>89.4</ele>
        <time>2023-10-07T10:28:40Z</time>
      </trkpt>
      <trkpt lat="47.98418" lon="-0.42184">
        <ele>85.6</ele>
        <time>2023-10-07T10:28:41Z</time>
      </trkpt>
      <trkpt lat="47.98422" lon="-0.42183">
        <ele>85.6</ele>
        <time>2023-10-07T10:28:42Z</time>
      </trkpt>
      <trkpt lat="47.98425" lon="-0.42181">
        <ele>85.6</ele>
        <time>2023-10-07T10:28:43Z</time>
      </trkpt>
      <trkpt lat="47.98431" lon="-0.42179">
        <ele>84.6</ele>
        <time>2023-10-07T10:28:44Z</time>
      </trkpt>
      <trkpt lat="47.98434" lon="-0.42176">
        <ele>84</ele>
        <time>2023-10-07T10:28:45Z</time>
      </trkpt>
      <trkpt lat="47.98437" lon="-0.42174">
        <ele>84</ele>
        <time>2023-10-07T10:28:46Z</time>
      </trkpt>
      <trkpt lat="47.98439" lon="-0.42172">
        <ele>84</ele>
        <time>2023-10-07T10:28:47Z</time>
      </trkpt>
      <trkpt lat="47.98441" lon="-0.42169">
        <ele>84</ele>
        <time>2023-10-07T10:28:48Z</time>
      </trkpt>
      <trkpt lat="47.98443" lon="-0.42167">
        <ele>85</ele>
        <time>2023-10-07T10:28:49Z</time>
      </trkpt>
      <trkpt lat="47.98444" lon="-0.42164">
        <ele>85</ele>
        <time>2023-10-07T10:28:50Z</time>
      </trkpt>
      <trkpt lat="47.98445" lon="-0.42161">
        <ele>85</ele>
        <time>2023-10-07T10:28:51Z</time>
      </trkpt>
      <trkpt lat="47.98447" lon="-0.42158">
        <ele>84</ele>
        <time>2023-10-07T10:28:52Z</time>
      </trkpt>
      <trkpt lat="47.98447" lon="-0.42155">
        <ele>83.2</ele>
        <time>2023-10-07T10:28:53Z</time>
      </trkpt>
      <trkpt lat="47.98449" lon="-0.42152">
        <ele>83.2</ele>
        <time>2023-10-07T10:28:54Z</time>
      </trkpt>
      <trkpt lat="47.9845" lon="-0.42149">
        <ele>83.2</ele>
        <time>2023-10-07T10:28:55Z</time>
      </trkpt>
      <trkpt lat="47.98451" lon="-0.42145">
        <ele>83.2</ele>
        <time>2023-10-07T10:28:56Z</time>
      </trkpt>
      <trkpt lat="47.98452" lon="-0.42142">
        <ele>82.4</ele>
        <time>2023-10-07T10:28:57Z</time>
      </trkpt>
      <trkpt lat="47.98454" lon="-0.42137">
        <ele>82.4</ele>
        <time>2023-10-07T10:28:58Z</time>
      </trkpt>
      <trkpt lat="47.98455" lon="-0.42131">
        <ele>82.4</ele>
        <time>2023-10-07T10:28:59Z</time>
      </trkpt>
      <trkpt lat="47.98457" lon="-0.42126">
        <ele>81.4</ele>
        <time>2023-10-07T10:29:00Z</time>
      </trkpt>
      <trkpt lat="47.98458" lon="-0.42121">
        <ele>81.8</ele>
        <time>2023-10-07T10:29:01Z</time>
      </trkpt>
      <trkpt lat="47.98459" lon="-0.42117">
        <ele>81.8</ele>
        <time>2023-10-07T10:29:02Z</time>
      </trkpt>
      <trkpt lat="47.9846" lon="-0.42113">
        <ele>81.8</ele>
        <time>2023-10-07T10:29:03Z</time>
      </trkpt>
      <trkpt lat="47.9846" lon="-0.42109">
        <ele>82</ele>
        <time>2023-10-07T10:29:04Z</time>
      </trkpt>
      <trkpt lat="47.98461" lon="-0.42106">
        <ele>79</ele>
        <time>2023-10-07T10:29:05Z</time>
      </trkpt>
      <trkpt lat="47.98461" lon="-0.42102">
        <ele>79</ele>
        <time>2023-10-07T10:29:06Z</time>
      </trkpt>
      <trkpt lat="47.98462" lon="-0.421">
        <ele>79</ele>
        <time>2023-10-07T10:29:07Z</time>
      </trkpt>
      <trkpt lat="47.98464" lon="-0.42098">
        <ele>80</ele>
        <time>2023-10-07T10:29:08Z</time>
      </trkpt>
      <trkpt lat="47.98465" lon="-0.42096">
        <ele>81</ele>
        <time>2023-10-07T10:29:09Z</time>
      </trkpt>
      <trkpt lat="47.98465" lon="-0.42096">
        <ele>81</ele>
        <time>2023-10-07T10:29:10Z</time>
      </trkpt>
      <trkpt lat="47.98471" lon="-0.42088">
        <ele>79.4</ele>
        <time>2023-10-07T10:29:15Z</time>
      </trkpt>
      <trkpt lat="47.98472" lon="-0.42087">
        <ele>79.4</ele>
        <time>2023-10-07T10:29:16Z</time>
      </trkpt>
      <trkpt lat="47.98475" lon="-0.42084">
        <ele>79.2</ele>
        <time>2023-10-07T10:29:17Z</time>
      </trkpt>
      <trkpt lat="47.98477" lon="-0.42081">
        <ele>79.2</ele>
        <time>2023-10-07T10:29:18Z</time>
      </trkpt>
      <trkpt lat="47.98478" lon="-0.4208">
        <ele>79.2</ele>
        <time>2023-10-07T10:29:19Z</time>
      </trkpt>
      <trkpt lat="47.98479" lon="-0.42078">
        <ele>78.4</ele>
        <time>2023-10-07T10:29:20Z</time>
      </trkpt>
      <trkpt lat="47.98481" lon="-0.42076">
        <ele>77.4</ele>
        <time>2023-10-07T10:29:21Z</time>
      </trkpt>
      <trkpt lat="47.98482" lon="-0.42075">
        <ele>77.4</ele>
        <time>2023-10-07T10:29:22Z</time>
      </trkpt>
      <trkpt lat="47.98483" lon="-0.42074">
        <ele>77.4</ele>
        <time>2023-10-07T10:29:23Z</time>
      </trkpt>
      <trkpt lat="47.98483" lon="-0.42074">
        <ele>77.8</ele>
        <time>2023-10-07T10:29:24Z</time>
      </trkpt>
      <trkpt lat="47.98485" lon="-0.42072">
        <ele>78</ele>
        <time>2023-10-07T10:29:25Z</time>
      </trkpt>
      <trkpt lat="47.98486" lon="-0.4207">
        <ele>78</ele>
        <time>2023-10-07T10:29:26Z</time>
      </trkpt>
      <trkpt lat="47.98487" lon="-0.42068">
        <ele>78</ele>
        <time>2023-10-07T10:29:27Z</time>
      </trkpt>
      <trkpt lat="47.98487" lon="-0.42065">
        <ele>77.6</ele>
        <time>2023-10-07T10:29:28Z</time>
      </trkpt>
      <trkpt lat="47.98488" lon="-0.42063">
        <ele>78</ele>
        <time>2023-10-07T10:29:29Z</time>
      </trkpt>
      <trkpt lat="47.98488" lon="-0.4206">
        <ele>78</ele>
        <time>2023-10-07T10:29:30Z</time>
      </trkpt>
      <trkpt lat="47.98488" lon="-0.42056">
        <ele>78</ele>
        <time>2023-10-07T10:29:31Z</time>
      </trkpt>
      <trkpt lat="47.98489" lon="-0.42053">
        <ele>77.2</ele>
        <time>2023-10-07T10:29:32Z</time>
      </trkpt>
      <trkpt lat="47.98489" lon="-0.42049">
        <ele>76.6</ele>
        <time>2023-10-07T10:29:33Z</time>
      </trkpt>
      <trkpt lat="47.98489" lon="-0.42046">
        <ele>76.6</ele>
        <time>2023-10-07T10:29:34Z</time>
      </trkpt>
      <trkpt lat="47.98489" lon="-0.42043">
        <ele>76.6</ele>
        <time>2023-10-07T10:29:35Z</time>
      </trkpt>
      <trkpt lat="47.98489" lon="-0.42038">
        <ele>77.6</ele>
        <time>2023-10-07T10:29:36Z</time>
      </trkpt>
      <trkpt lat="47.98489" lon="-0.42035">
        <ele>76.8</ele>
        <time>2023-10-07T10:29:37Z</time>
      </trkpt>
      <trkpt lat="47.98489" lon="-0.42032">
        <ele>76.8</ele>
        <time>2023-10-07T10:29:38Z</time>
      </trkpt>
      <trkpt lat="47.98489" lon="-0.42029">
        <ele>76.8</ele>
        <time>2023-10-07T10:29:39Z</time>
      </trkpt>
      <trkpt lat="47.9849" lon="-0.42027">
        <ele>76.8</ele>
        <time>2023-10-07T10:29:40Z</time>
      </trkpt>
      <trkpt lat="47.9849" lon="-0.42024">
        <ele>76.2</ele>
        <time>2023-10-07T10:29:41Z</time>
      </trkpt>
      <trkpt lat="47.98492" lon="-0.42021">
        <ele>76.2</ele>
        <time>2023-10-07T10:29:42Z</time>
      </trkpt>
      <trkpt lat="47.98493" lon="-0.42018">
        <ele>76.2</ele>
        <time>2023-10-07T10:29:43Z</time>
      </trkpt>
      <trkpt lat="47.98494" lon="-0.42015">
        <ele>76.2</ele>
        <time>2023-10-07T10:29:44Z</time>
      </trkpt>
      <trkpt lat="47.98495" lon="-0.42012">
        <ele>76.6</ele>
        <time>2023-10-07T10:29:45Z</time>
      </trkpt>
      <trkpt lat="47.98497" lon="-0.42009">
        <ele>76.6</ele>
        <time>2023-10-07T10:29:46Z</time>
      </trkpt>
      <trkpt lat="47.98498" lon="-0.42006">
        <ele>76.6</ele>
        <time>2023-10-07T10:29:47Z</time>
      </trkpt>
      <trkpt lat="47.985" lon="-0.42003">
        <ele>76</ele>
        <time>2023-10-07T10:29:48Z</time>
      </trkpt>
      <trkpt lat="47.98501" lon="-0.42">
        <ele>76.2</ele>
        <time>2023-10-07T10:29:49Z</time>
      </trkpt>
      <trkpt lat="47.98502" lon="-0.41995">
        <ele>76.2</ele>
        <time>2023-10-07T10:29:50Z</time>
      </trkpt>
      <trkpt lat="47.98503" lon="-0.4199">
        <ele>76.2</ele>
        <time>2023-10-07T10:29:51Z</time>
      </trkpt>
      <trkpt lat="47.98502" lon="-0.41985">
        <ele>76</ele>
        <time>2023-10-07T10:29:52Z</time>
      </trkpt>
      <trkpt lat="47.98502" lon="-0.41981">
        <ele>76</ele>
        <time>2023-10-07T10:29:53Z</time>
      </trkpt>
      <trkpt lat="47.98501" lon="-0.41976">
        <ele>76</ele>
        <time>2023-10-07T10:29:54Z</time>
      </trkpt>
      <trkpt lat="47.985" lon="-0.41971">
        <ele>76</ele>
        <time>2023-10-07T10:29:55Z</time>
      </trkpt>
      <trkpt lat="47.98499" lon="-0.41965">
        <ele>76</ele>
        <time>2023-10-07T10:29:56Z</time>
      </trkpt>
      <trkpt lat="47.98498" lon="-0.4196">
        <ele>76.4</ele>
        <time>2023-10-07T10:29:57Z</time>
      </trkpt>
      <trkpt lat="47.98496" lon="-0.41955">
        <ele>76.4</ele>
        <time>2023-10-07T10:29:58Z</time>
      </trkpt>
      <trkpt lat="47.98494" lon="-0.41951">
        <ele>76.4</ele>
        <time>2023-10-07T10:29:59Z</time>
      </trkpt>
      <trkpt lat="47.98493" lon="-0.41946">
        <ele>76.4</ele>
        <time>2023-10-07T10:30:00Z</time>
      </trkpt>
      <trkpt lat="47.98492" lon="-0.41941">
        <ele>78.2</ele>
        <time>2023-10-07T10:30:01Z</time>
      </trkpt>
      <trkpt lat="47.98491" lon="-0.41936">
        <ele>78.2</ele>
        <time>2023-10-07T10:30:02Z</time>
      </trkpt>
      <trkpt lat="47.9849" lon="-0.41932">
        <ele>78.2</ele>
        <time>2023-10-07T10:30:03Z</time>
      </trkpt>
      <trkpt lat="47.98488" lon="-0.41927">
        <ele>78.2</ele>
        <time>2023-10-07T10:30:04Z</time>
      </trkpt>
      <trkpt lat="47.98486" lon="-0.41924">
        <ele>77</ele>
        <time>2023-10-07T10:30:05Z</time>
      </trkpt>
      <trkpt lat="47.98485" lon="-0.4192">
        <ele>77</ele>
        <time>2023-10-07T10:30:06Z</time>
      </trkpt>
      <trkpt lat="47.98484" lon="-0.41916">
        <ele>77</ele>
        <time>2023-10-07T10:30:07Z</time>
      </trkpt>
      <trkpt lat="47.98483" lon="-0.41912">
        <ele>78</ele>
        <time>2023-10-07T10:30:08Z</time>
      </trkpt>
      <trkpt lat="47.98483" lon="-0.41907">
        <ele>79.2</ele>
        <time>2023-10-07T10:30:09Z</time>
      </trkpt>
      <trkpt lat="47.98483" lon="-0.41903">
        <ele>79.2</ele>
        <time>2023-10-07T10:30:10Z</time>
      </trkpt>
      <trkpt lat="47.98482" lon="-0.41898">
        <ele>79.2</ele>
        <time>2023-10-07T10:30:11Z</time>
      </trkpt>
      <trkpt lat="47.98482" lon="-0.41893">
        <ele>79.2</ele>
        <time>2023-10-07T10:30:12Z</time>
      </trkpt>
      <trkpt lat="47.98482" lon="-0.41888">
        <ele>81</ele>
        <time>2023-10-07T10:30:13Z</time>
      </trkpt>
      <trkpt lat="47.98483" lon="-0.41883">
        <ele>81</ele>
        <time>2023-10-07T10:30:14Z</time>
      </trkpt>
      <trkpt lat="47.98485" lon="-0.41877">
        <ele>81</ele>
        <time>2023-10-07T10:30:15Z</time>
      </trkpt>
      <trkpt lat="47.98486" lon="-0.41871">
        <ele>80</ele>
        <time>2023-10-07T10:30:16Z</time>
      </trkpt>
      <trkpt lat="47.98488" lon="-0.41864">
        <ele>77.8</ele>
        <time>2023-10-07T10:30:17Z</time>
      </trkpt>
      <trkpt lat="47.9849" lon="-0.41857">
        <ele>77.8</ele>
        <time>2023-10-07T10:30:18Z</time>
      </trkpt>
      <trkpt lat="47.9849" lon="-0.4185">
        <ele>77.8</ele>
        <time>2023-10-07T10:30:19Z</time>
      </trkpt>
      <trkpt lat="47.98488" lon="-0.41845">
        <ele>77.8</ele>
        <time>2023-10-07T10:30:20Z</time>
      </trkpt>
      <trkpt lat="47.98485" lon="-0.4184">
        <ele>76.8</ele>
        <time>2023-10-07T10:30:21Z</time>
      </trkpt>
      <trkpt lat="47.98483" lon="-0.41835">
        <ele>76.8</ele>
        <time>2023-10-07T10:30:22Z</time>
      </trkpt>
      <trkpt lat="47.98481" lon="-0.41827">
        <ele>76.8</ele>
        <time>2023-10-07T10:30:23Z</time>
      </trkpt>
      <trkpt lat="47.98479" lon="-0.41818">
        <ele>75.8</ele>
        <time>2023-10-07T10:30:24Z</time>
      </trkpt>
      <trkpt lat="47.98476" lon="-0.41807">
        <ele>71.2</ele>
        <time>2023-10-07T10:30:25Z</time>
      </trkpt>
      <trkpt lat="47.98474" lon="-0.41797">
        <ele>71.2</ele>
        <time>2023-10-07T10:30:26Z</time>
      </trkpt>
      <trkpt lat="47.98471" lon="-0.41786">
        <ele>71.2</ele>
        <time>2023-10-07T10:30:27Z</time>
      </trkpt>
      <trkpt lat="47.98468" lon="-0.41774">
        <ele>70.2</ele>
        <time>2023-10-07T10:30:28Z</time>
      </trkpt>
      <trkpt lat="47.98465" lon="-0.41762">
        <ele>64.2</ele>
        <time>2023-10-07T10:30:29Z</time>
      </trkpt>
      <trkpt lat="47.98462" lon="-0.4175">
        <ele>64.2</ele>
        <time>2023-10-07T10:30:30Z</time>
      </trkpt>
      <trkpt lat="47.98458" lon="-0.41738">
        <ele>64.2</ele>
        <time>2023-10-07T10:30:31Z</time>
      </trkpt>
      <trkpt lat="47.98454" lon="-0.41726">
        <ele>63.2</ele>
        <time>2023-10-07T10:30:32Z</time>
      </trkpt>
      <trkpt lat="47.98451" lon="-0.41714">
        <ele>60.8</ele>
        <time>2023-10-07T10:30:33Z</time>
      </trkpt>
      <trkpt lat="47.98446" lon="-0.41702">
        <ele>60.8</ele>
        <time>2023-10-07T10:30:34Z</time>
      </trkpt>
      <trkpt lat="47.98441" lon="-0.41691">
        <ele>60.8</ele>
        <time>2023-10-07T10:30:35Z</time>
      </trkpt>
      <trkpt lat="47.98437" lon="-0.4168">
        <ele>59.8</ele>
        <time>2023-10-07T10:30:36Z</time>
      </trkpt>
      <trkpt lat="47.98431" lon="-0.41669">
        <ele>60.4</ele>
        <time>2023-10-07T10:30:37Z</time>
      </trkpt>
      <trkpt lat="47.98426" lon="-0.41659">
        <ele>60.4</ele>
        <time>2023-10-07T10:30:38Z</time>
      </trkpt>
      <trkpt lat="47.9842" lon="-0.41651">
        <ele>60.4</ele>
        <time>2023-10-07T10:30:39Z</time>
      </trkpt>
      <trkpt lat="47.98414" lon="-0.41644">
        <ele>60.4</ele>
        <time>2023-10-07T10:30:40Z</time>
      </trkpt>
      <trkpt lat="47.98408" lon="-0.4164">
        <ele>61.2</ele>
        <time>2023-10-07T10:30:41Z</time>
      </trkpt>
      <trkpt lat="47.98402" lon="-0.41637">
        <ele>61.2</ele>
        <time>2023-10-07T10:30:42Z</time>
      </trkpt>
      <trkpt lat="47.98396" lon="-0.41635">
        <ele>61.2</ele>
        <time>2023-10-07T10:30:43Z</time>
      </trkpt>
      <trkpt lat="47.98391" lon="-0.41634">
        <ele>61.2</ele>
        <time>2023-10-07T10:30:44Z</time>
      </trkpt>
      <trkpt lat="47.98386" lon="-0.41632">
        <ele>60.6</ele>
        <time>2023-10-07T10:30:45Z</time>
      </trkpt>
      <trkpt lat="47.98381" lon="-0.41631">
        <ele>60.6</ele>
        <time>2023-10-07T10:30:46Z</time>
      </trkpt>
      <trkpt lat="47.98375" lon="-0.4163">
        <ele>60.6</ele>
        <time>2023-10-07T10:30:47Z</time>
      </trkpt>
      <trkpt lat="47.98369" lon="-0.41628">
        <ele>60.6</ele>
        <time>2023-10-07T10:30:48Z</time>
      </trkpt>
      <trkpt lat="47.98365" lon="-0.41623">
        <ele>60.8</ele>
        <time>2023-10-07T10:30:49Z</time>
      </trkpt>
      <trkpt lat="47.98361" lon="-0.41617">
        <ele>60.8</ele>
        <time>2023-10-07T10:30:50Z</time>
      </trkpt>
      <trkpt lat="47.98358" lon="-0.41609">
        <ele>60.8</ele>
        <time>2023-10-07T10:30:51Z</time>
      </trkpt>
      <trkpt lat="47.98355" lon="-0.41599">
        <ele>61.2</ele>
        <time>2023-10-07T10:30:52Z</time>
      </trkpt>
      <trkpt lat="47.98353" lon="-0.4159">
        <ele>62.4</ele>
        <time>2023-10-07T10:30:53Z</time>
      </trkpt>
      <trkpt lat="47.98352" lon="-0.41583">
        <ele>62.4</ele>
        <time>2023-10-07T10:30:54Z</time>
      </trkpt>
      <trkpt lat="47.98351" lon="-0.41577">
        <ele>62.4</ele>
        <time>2023-10-07T10:30:55Z</time>
      </trkpt>
      <trkpt lat="47.9835" lon="-0.4157">
        <ele>62.4</ele>
        <time>2023-10-07T10:30:56Z</time>
      </trkpt>
      <trkpt lat="47.98349" lon="-0.41566">
        <ele>63.2</ele>
        <time>2023-10-07T10:30:57Z</time>
      </trkpt>
      <trkpt lat="47.98347" lon="-0.41557">
        <ele>63.2</ele>
        <time>2023-10-07T10:30:58Z</time>
      </trkpt>
      <trkpt lat="47.98346" lon="-0.41551">
        <ele>63.2</ele>
        <time>2023-10-07T10:30:59Z</time>
      </trkpt>
      <trkpt lat="47.98345" lon="-0.41546">
        <ele>63.6</ele>
        <time>2023-10-07T10:31:00Z</time>
      </trkpt>
      <trkpt lat="47.98344" lon="-0.41541">
        <ele>63.8</ele>
        <time>2023-10-07T10:31:01Z</time>
      </trkpt>
      <trkpt lat="47.98343" lon="-0.41536">
        <ele>63.8</ele>
        <time>2023-10-07T10:31:02Z</time>
      </trkpt>
      <trkpt lat="47.98342" lon="-0.4153">
        <ele>63</ele>
        <time>2023-10-07T10:32:29Z</time>
      </trkpt>
      <trkpt lat="47.98341" lon="-0.41525">
        <ele>63</ele>
        <time>2023-10-07T10:32:30Z</time>
      </trkpt>
      <trkpt lat="47.98341" lon="-0.41519">
        <ele>63</ele>
        <time>2023-10-07T10:32:31Z</time>
      </trkpt>
      <trkpt lat="47.98343" lon="-0.41513">
        <ele>63</ele>
        <time>2023-10-07T10:32:32Z</time>
      </trkpt>
      <trkpt lat="47.98346" lon="-0.41507">
        <ele>62.4</ele>
        <time>2023-10-07T10:32:33Z</time>
      </trkpt>
      <trkpt lat="47.98349" lon="-0.41501">
        <ele>62.4</ele>
        <time>2023-10-07T10:32:34Z</time>
      </trkpt>
      <trkpt lat="47.98352" lon="-0.41496">
        <ele>62.4</ele>
        <time>2023-10-07T10:32:35Z</time>
      </trkpt>
      <trkpt lat="47.98355" lon="-0.4149">
        <ele>62.4</ele>
        <time>2023-10-07T10:32:36Z</time>
      </trkpt>
      <trkpt lat="47.98358" lon="-0.41484">
        <ele>63</ele>
        <time>2023-10-07T10:32:37Z</time>
      </trkpt>
      <trkpt lat="47.98361" lon="-0.41478">
        <ele>63</ele>
        <time>2023-10-07T10:32:38Z</time>
      </trkpt>
      <trkpt lat="47.98365" lon="-0.41472">
        <ele>63</ele>
        <time>2023-10-07T10:32:39Z</time>
      </trkpt>
      <trkpt lat="47.98368" lon="-0.41469">
        <ele>63</ele>
        <time>2023-10-07T10:32:40Z</time>
      </trkpt>
      <trkpt lat="47.98373" lon="-0.41467">
        <ele>64.8</ele>
        <time>2023-10-07T10:32:41Z</time>
      </trkpt>
      <trkpt lat="47.98377" lon="-0.41467">
        <ele>64.8</ele>
        <time>2023-10-07T10:32:42Z</time>
      </trkpt>
      <trkpt lat="47.98382" lon="-0.41467">
        <ele>64.8</ele>
        <time>2023-10-07T10:32:43Z</time>
      </trkpt>
      <trkpt lat="47.98387" lon="-0.41467">
        <ele>63.8</ele>
        <time>2023-10-07T10:32:44Z</time>
      </trkpt>
      <trkpt lat="47.98392" lon="-0.41468">
        <ele>63.8</ele>
        <time>2023-10-07T10:32:45Z</time>
      </trkpt>
      <trkpt lat="47.98397" lon="-0.41468">
        <ele>63.8</ele>
        <time>2023-10-07T10:32:46Z</time>
      </trkpt>
      <trkpt lat="47.98402" lon="-0.41469">
        <ele>63.8</ele>
        <time>2023-10-07T10:32:47Z</time>
      </trkpt>
      <trkpt lat="47.98407" lon="-0.4147">
        <ele>63.8</ele>
        <time>2023-10-07T10:32:48Z</time>
      </trkpt>
      <trkpt lat="47.98413" lon="-0.41471">
        <ele>64</ele>
        <time>2023-10-07T10:32:49Z</time>
      </trkpt>
      <trkpt lat="47.98418" lon="-0.41472">
        <ele>64</ele>
        <time>2023-10-07T10:32:50Z</time>
      </trkpt>
      <trkpt lat="47.98424" lon="-0.41473">
        <ele>64</ele>
        <time>2023-10-07T10:32:51Z</time>
      </trkpt>
      <trkpt lat="47.9843" lon="-0.41474">
        <ele>63.2</ele>
        <time>2023-10-07T10:32:52Z</time>
      </trkpt>
      <trkpt lat="47.98435" lon="-0.41475">
        <ele>64.4</ele>
        <time>2023-10-07T10:32:53Z</time>
      </trkpt>
      <trkpt lat="47.98439" lon="-0.41476">
        <ele>64.4</ele>
        <time>2023-10-07T10:32:54Z</time>
      </trkpt>
      <trkpt lat="47.98444" lon="-0.41477">
        <ele>64.4</ele>
        <time>2023-10-07T10:32:55Z</time>
      </trkpt>
      <trkpt lat="47.9845" lon="-0.41479">
        <ele>63.4</ele>
        <time>2023-10-07T10:32:56Z</time>
      </trkpt>
      <trkpt lat="47.98456" lon="-0.4148">
        <ele>63</ele>
        <time>2023-10-07T10:32:57Z</time>
      </trkpt>
      <trkpt lat="47.98461" lon="-0.41482">
        <ele>63</ele>
        <time>2023-10-07T10:32:58Z</time>
      </trkpt>
      <trkpt lat="47.98467" lon="-0.41482">
        <ele>63</ele>
        <time>2023-10-07T10:32:59Z</time>
      </trkpt>
      <trkpt lat="47.98473" lon="-0.41481">
        <ele>63.6</ele>
        <time>2023-10-07T10:33:00Z</time>
      </trkpt>
      <trkpt lat="47.98478" lon="-0.41478">
        <ele>63.6</ele>
        <time>2023-10-07T10:33:01Z</time>
      </trkpt>
      <trkpt lat="47.98484" lon="-0.41474">
        <ele>63.6</ele>
        <time>2023-10-07T10:33:02Z</time>
      </trkpt>
      <trkpt lat="47.9849" lon="-0.4147">
        <ele>63.6</ele>
        <time>2023-10-07T10:33:03Z</time>
      </trkpt>
      <trkpt lat="47.98496" lon="-0.41466">
        <ele>63.6</ele>
        <time>2023-10-07T10:33:04Z</time>
      </trkpt>
      <trkpt lat="47.98501" lon="-0.41462">
        <ele>63.4</ele>
        <time>2023-10-07T10:33:05Z</time>
      </trkpt>
      <trkpt lat="47.98507" lon="-0.41458">
        <ele>63.4</ele>
        <time>2023-10-07T10:33:06Z</time>
      </trkpt>
      <trkpt lat="47.98512" lon="-0.41455">
        <ele>63.4</ele>
        <time>2023-10-07T10:33:07Z</time>
      </trkpt>
      <trkpt lat="47.98518" lon="-0.41451">
        <ele>64</ele>
        <time>2023-10-07T10:33:08Z</time>
      </trkpt>
      <trkpt lat="47.98524" lon="-0.41447">
        <ele>63.8</ele>
        <time>2023-10-07T10:33:09Z</time>
      </trkpt>
      <trkpt lat="47.98529" lon="-0.41444">
        <ele>63.8</ele>
        <time>2023-10-07T10:33:10Z</time>
      </trkpt>
      <trkpt lat="47.98535" lon="-0.41441">
        <ele>63.8</ele>
        <time>2023-10-07T10:33:11Z</time>
      </trkpt>
      <trkpt lat="47.9854" lon="-0.41437">
        <ele>63.8</ele>
        <time>2023-10-07T10:33:12Z</time>
      </trkpt>
      <trkpt lat="47.98545" lon="-0.41433">
        <ele>63.2</ele>
        <time>2023-10-07T10:33:13Z</time>
      </trkpt>
      <trkpt lat="47.9855" lon="-0.4143">
        <ele>63.2</ele>
        <time>2023-10-07T10:33:14Z</time>
      </trkpt>
      <trkpt lat="47.98555" lon="-0.41427">
        <ele>63.2</ele>
        <time>2023-10-07T10:33:15Z</time>
      </trkpt>
      <trkpt lat="47.98561" lon="-0.41424">
        <ele>62.4</ele>
        <time>2023-10-07T10:33:16Z</time>
      </trkpt>
      <trkpt lat="47.98566" lon="-0.4142">
        <ele>62.6</ele>
        <time>2023-10-07T10:33:17Z</time>
      </trkpt>
      <trkpt lat="47.98571" lon="-0.41415">
        <ele>62.6</ele>
        <time>2023-10-07T10:33:18Z</time>
      </trkpt>
      <trkpt lat="47.98572" lon="-0.4141">
        <ele>62.6</ele>
        <time>2023-10-07T10:33:19Z</time>
      </trkpt>
      <trkpt lat="47.98571" lon="-0.41405">
        <ele>63.6</ele>
        <time>2023-10-07T10:33:20Z</time>
      </trkpt>
      <trkpt lat="47.98569" lon="-0.41401">
        <ele>63.4</ele>
        <time>2023-10-07T10:33:21Z</time>
      </trkpt>
      <trkpt lat="47.98568" lon="-0.41397">
        <ele>63.4</ele>
        <time>2023-10-07T10:33:22Z</time>
      </trkpt>
      <trkpt lat="47.98567" lon="-0.41392">
        <ele>63.4</ele>
        <time>2023-10-07T10:33:23Z</time>
      </trkpt>
      <trkpt lat="47.98566" lon="-0.41388">
        <ele>63</ele>
        <time>2023-10-07T10:33:24Z</time>
      </trkpt>
      <trkpt lat="47.98565" lon="-0.41384">
        <ele>63.6</ele>
        <time>2023-10-07T10:33:25Z</time>
      </trkpt>
      <trkpt lat="47.98564" lon="-0.41379">
        <ele>63.6</ele>
        <time>2023-10-07T10:33:26Z</time>
      </trkpt>
      <trkpt lat="47.98563" lon="-0.41374">
        <ele>63.6</ele>
        <time>2023-10-07T10:33:27Z</time>
      </trkpt>
      <trkpt lat="47.98562" lon="-0.4137">
        <ele>63.6</ele>
        <time>2023-10-07T10:33:28Z</time>
      </trkpt>
      <trkpt lat="47.98562" lon="-0.41367">
        <ele>65.6</ele>
        <time>2023-10-07T10:33:29Z</time>
      </trkpt>
      <trkpt lat="47.98561" lon="-0.41364">
        <ele>65.6</ele>
        <time>2023-10-07T10:33:30Z</time>
      </trkpt>
      <trkpt lat="47.98561" lon="-0.41362">
        <ele>65.6</ele>
        <time>2023-10-07T10:33:31Z</time>
      </trkpt>
      <trkpt lat="47.9856" lon="-0.41358">
        <ele>64.6</ele>
        <time>2023-10-07T10:33:32Z</time>
      </trkpt>
      <trkpt lat="47.9856" lon="-0.41353">
        <ele>64.2</ele>
        <time>2023-10-07T10:33:33Z</time>
      </trkpt>
      <trkpt lat="47.98558" lon="-0.41347">
        <ele>64.2</ele>
        <time>2023-10-07T10:33:34Z</time>
      </trkpt>
      <trkpt lat="47.98557" lon="-0.41341">
        <ele>64.2</ele>
        <time>2023-10-07T10:33:35Z</time>
      </trkpt>
      <trkpt lat="47.98556" lon="-0.41336">
        <ele>64.2</ele>
        <time>2023-10-07T10:33:36Z</time>
      </trkpt>
      <trkpt lat="47.98555" lon="-0.4133">
        <ele>64</ele>
        <time>2023-10-07T10:33:37Z</time>
      </trkpt>
      <trkpt lat="47.98555" lon="-0.41324">
        <ele>64</ele>
        <time>2023-10-07T10:33:38Z</time>
      </trkpt>
      <trkpt lat="47.98555" lon="-0.41317">
        <ele>64</ele>
        <time>2023-10-07T10:33:39Z</time>
      </trkpt>
      <trkpt lat="47.98555" lon="-0.41311">
        <ele>63.6</ele>
        <time>2023-10-07T10:33:40Z</time>
      </trkpt>
      <trkpt lat="47.98554" lon="-0.41303">
        <ele>63.8</ele>
        <time>2023-10-07T10:33:41Z</time>
      </trkpt>
      <trkpt lat="47.98553" lon="-0.41296">
        <ele>63.8</ele>
        <time>2023-10-07T10:33:42Z</time>
      </trkpt>
      <trkpt lat="47.98553" lon="-0.41289">
        <ele>63.8</ele>
        <time>2023-10-07T10:33:43Z</time>
      </trkpt>
      <trkpt lat="47.98553" lon="-0.41282">
        <ele>62.8</ele>
        <time>2023-10-07T10:33:44Z</time>
      </trkpt>
      <trkpt lat="47.98554" lon="-0.41276">
        <ele>63</ele>
        <time>2023-10-07T10:33:45Z</time>
      </trkpt>
      <trkpt lat="47.98554" lon="-0.41269">
        <ele>63</ele>
        <time>2023-10-07T10:33:46Z</time>
      </trkpt>
      <trkpt lat="47.98554" lon="-0.41261">
        <ele>63</ele>
        <time>2023-10-07T10:33:47Z</time>
      </trkpt>
      <trkpt lat="47.98554" lon="-0.41254">
        <ele>63</ele>
        <time>2023-10-07T10:33:48Z</time>
      </trkpt>
      <trkpt lat="47.98555" lon="-0.4125">
        <ele>63.4</ele>
        <time>2023-10-07T10:33:49Z</time>
      </trkpt>
      <trkpt lat="47.98555" lon="-0.41244">
        <ele>63.4</ele>
        <time>2023-10-07T10:33:50Z</time>
      </trkpt>
      <trkpt lat="47.98555" lon="-0.41238">
        <ele>63.4</ele>
        <time>2023-10-07T10:33:51Z</time>
      </trkpt>
      <trkpt lat="47.98555" lon="-0.41232">
        <ele>63.4</ele>
        <time>2023-10-07T10:33:52Z</time>
      </trkpt>
      <trkpt lat="47.98556" lon="-0.41227">
        <ele>64.8</ele>
        <time>2023-10-07T10:33:53Z</time>
      </trkpt>
      <trkpt lat="47.98555" lon="-0.4122">
        <ele>64.8</ele>
        <time>2023-10-07T10:33:54Z</time>
      </trkpt>
      <trkpt lat="47.98554" lon="-0.41212">
        <ele>64.8</ele>
        <time>2023-10-07T10:33:55Z</time>
      </trkpt>
      <trkpt lat="47.98554" lon="-0.41206">
        <ele>64.4</ele>
        <time>2023-10-07T10:33:56Z</time>
      </trkpt>
      <trkpt lat="47.98553" lon="-0.412">
        <ele>64</ele>
        <time>2023-10-07T10:33:57Z</time>
      </trkpt>
      <trkpt lat="47.98552" lon="-0.41194">
        <ele>64</ele>
        <time>2023-10-07T10:33:58Z</time>
      </trkpt>
      <trkpt lat="47.98551" lon="-0.41189">
        <ele>64</ele>
        <time>2023-10-07T10:33:59Z</time>
      </trkpt>
      <trkpt lat="47.98551" lon="-0.41186">
        <ele>65</ele>
        <time>2023-10-07T10:34:00Z</time>
      </trkpt>
      <trkpt lat="47.98551" lon="-0.41184">
        <ele>67.6</ele>
        <time>2023-10-07T10:34:01Z</time>
      </trkpt>
      <trkpt lat="47.98552" lon="-0.4118">
        <ele>67.6</ele>
        <time>2023-10-07T10:34:02Z</time>
      </trkpt>
      <trkpt lat="47.98552" lon="-0.41177">
        <ele>67.6</ele>
        <time>2023-10-07T10:34:03Z</time>
      </trkpt>
      <trkpt lat="47.98552" lon="-0.41174">
        <ele>68.6</ele>
        <time>2023-10-07T10:34:04Z</time>
      </trkpt>
      <trkpt lat="47.98552" lon="-0.41171">
        <ele>69</ele>
        <time>2023-10-07T10:34:05Z</time>
      </trkpt>
      <trkpt lat="47.98551" lon="-0.41166">
        <ele>69</ele>
        <time>2023-10-07T10:34:06Z</time>
      </trkpt>
      <trkpt lat="47.98551" lon="-0.41161">
        <ele>69</ele>
        <time>2023-10-07T10:34:07Z</time>
      </trkpt>
      <trkpt lat="47.9855" lon="-0.41155">
        <ele>69.4</ele>
        <time>2023-10-07T10:34:08Z</time>
      </trkpt>
      <trkpt lat="47.9855" lon="-0.4115">
        <ele>69.4</ele>
        <time>2023-10-07T10:34:09Z</time>
      </trkpt>
      <trkpt lat="47.9855" lon="-0.41144">
        <ele>69.4</ele>
        <time>2023-10-07T10:34:10Z</time>
      </trkpt>
      <trkpt lat="47.98549" lon="-0.41137">
        <ele>69.4</ele>
        <time>2023-10-07T10:34:11Z</time>
      </trkpt>
      <trkpt lat="47.9855" lon="-0.41132">
        <ele>68.8</ele>
        <time>2023-10-07T10:34:12Z</time>
      </trkpt>
      <trkpt lat="47.98549" lon="-0.41127">
        <ele>70.2</ele>
        <time>2023-10-07T10:34:13Z</time>
      </trkpt>
      <trkpt lat="47.98549" lon="-0.41122">
        <ele>70.2</ele>
        <time>2023-10-07T10:34:14Z</time>
      </trkpt>
      <trkpt lat="47.9855" lon="-0.41117">
        <ele>70.2</ele>
        <time>2023-10-07T10:34:15Z</time>
      </trkpt>
      <trkpt lat="47.98549" lon="-0.4111">
        <ele>69.2</ele>
        <time>2023-10-07T10:34:16Z</time>
      </trkpt>
      <trkpt lat="47.98549" lon="-0.41105">
        <ele>65.8</ele>
        <time>2023-10-07T10:34:17Z</time>
      </trkpt>
      <trkpt lat="47.98549" lon="-0.411">
        <ele>65.8</ele>
        <time>2023-10-07T10:34:18Z</time>
      </trkpt>
      <trkpt lat="47.98548" lon="-0.41095">
        <ele>65.8</ele>
        <time>2023-10-07T10:34:19Z</time>
      </trkpt>
      <trkpt lat="47.98549" lon="-0.41091">
        <ele>66.8</ele>
        <time>2023-10-07T10:34:20Z</time>
      </trkpt>
      <trkpt lat="47.98549" lon="-0.41087">
        <ele>69.4</ele>
        <time>2023-10-07T10:34:21Z</time>
      </trkpt>
      <trkpt lat="47.98549" lon="-0.41084">
        <ele>69.4</ele>
        <time>2023-10-07T10:34:22Z</time>
      </trkpt>
      <trkpt lat="47.98548" lon="-0.41081">
        <ele>69.4</ele>
        <time>2023-10-07T10:34:23Z</time>
      </trkpt>
      <trkpt lat="47.98549" lon="-0.41078">
        <ele>69.4</ele>
        <time>2023-10-07T10:34:24Z</time>
      </trkpt>
      <trkpt lat="47.98549" lon="-0.41076">
        <ele>69.8</ele>
        <time>2023-10-07T10:34:25Z</time>
      </trkpt>
      <trkpt lat="47.98549" lon="-0.41074">
        <ele>69.8</ele>
        <time>2023-10-07T10:34:26Z</time>
      </trkpt>
      <trkpt lat="47.98549" lon="-0.41074">
        <ele>69.8</ele>
        <time>2023-10-07T10:34:27Z</time>
      </trkpt>
      <trkpt lat="47.98551" lon="-0.41064">
        <ele>70.8</ele>
        <time>2023-10-07T10:34:31Z</time>
      </trkpt>
      <trkpt lat="47.98552" lon="-0.41062">
        <ele>70.8</ele>
        <time>2023-10-07T10:34:32Z</time>
      </trkpt>
      <trkpt lat="47.98552" lon="-0.41059">
        <ele>70.2</ele>
        <time>2023-10-07T10:34:33Z</time>
      </trkpt>
      <trkpt lat="47.98552" lon="-0.41057">
        <ele>70.2</ele>
        <time>2023-10-07T10:34:34Z</time>
      </trkpt>
      <trkpt lat="47.98552" lon="-0.41055">
        <ele>70.2</ele>
        <time>2023-10-07T10:34:35Z</time>
      </trkpt>
      <trkpt lat="47.98552" lon="-0.41054">
        <ele>70.2</ele>
        <time>2023-10-07T10:34:36Z</time>
      </trkpt>
      <trkpt lat="47.98552" lon="-0.41053">
        <ele>70.8</ele>
        <time>2023-10-07T10:34:37Z</time>
      </trkpt>
      <trkpt lat="47.98552" lon="-0.41052">
        <ele>70.8</ele>
        <time>2023-10-07T10:34:38Z</time>
      </trkpt>
      <trkpt lat="47.98552" lon="-0.4105">
        <ele>70.8</ele>
        <time>2023-10-07T10:34:39Z</time>
      </trkpt>
      <trkpt lat="47.98552" lon="-0.41049">
        <ele>70.8</ele>
        <time>2023-10-07T10:34:40Z</time>
      </trkpt>
      <trkpt lat="47.98553" lon="-0.41047">
        <ele>70.8</ele>
        <time>2023-10-07T10:34:41Z</time>
      </trkpt>
      <trkpt lat="47.98554" lon="-0.41046">
        <ele>70.8</ele>
        <time>2023-10-07T10:34:42Z</time>
      </trkpt>
      <trkpt lat="47.98554" lon="-0.41044">
        <ele>70.8</ele>
        <time>2023-10-07T10:34:43Z</time>
      </trkpt>
      <trkpt lat="47.98554" lon="-0.41042">
        <ele>70.4</ele>
        <time>2023-10-07T10:34:44Z</time>
      </trkpt>
      <trkpt lat="47.98554" lon="-0.41041">
        <ele>70.8</ele>
        <time>2023-10-07T10:34:45Z</time>
      </trkpt>
      <trkpt lat="47.98554" lon="-0.4104">
        <ele>70.8</ele>
        <time>2023-10-07T10:34:46Z</time>
      </trkpt>
      <trkpt lat="47.98554" lon="-0.41039">
        <ele>70.8</ele>
        <time>2023-10-07T10:34:47Z</time>
      </trkpt>
      <trkpt lat="47.98554" lon="-0.41038">
        <ele>70.8</ele>
        <time>2023-10-07T10:34:48Z</time>
      </trkpt>
      <trkpt lat="47.98554" lon="-0.41037">
        <ele>71</ele>
        <time>2023-10-07T10:34:49Z</time>
      </trkpt>
      <trkpt lat="47.98555" lon="-0.41035">
        <ele>71</ele>
        <time>2023-10-07T10:34:50Z</time>
      </trkpt>
      <trkpt lat="47.98554" lon="-0.41034">
        <ele>71</ele>
        <time>2023-10-07T10:34:51Z</time>
      </trkpt>
      <trkpt lat="47.98554" lon="-0.41033">
        <ele>71</ele>
        <time>2023-10-07T10:34:52Z</time>
      </trkpt>
      <trkpt lat="47.98555" lon="-0.41032">
        <ele>71</ele>
        <time>2023-10-07T10:34:53Z</time>
      </trkpt>
      <trkpt lat="47.98555" lon="-0.41032">
        <ele>71</ele>
        <time>2023-10-07T10:34:54Z</time>
      </trkpt>
      <trkpt lat="47.98555" lon="-0.41023">
        <ele>72</ele>
        <time>2023-10-07T10:35:05Z</time>
      </trkpt>
      <trkpt lat="47.98555" lon="-0.41021">
        <ele>72</ele>
        <time>2023-10-07T10:35:06Z</time>
      </trkpt>
      <trkpt lat="47.98555" lon="-0.41019">
        <ele>72</ele>
        <time>2023-10-07T10:35:07Z</time>
      </trkpt>
      <trkpt lat="47.98555" lon="-0.41018">
        <ele>72</ele>
        <time>2023-10-07T10:35:08Z</time>
      </trkpt>
      <trkpt lat="47.98555" lon="-0.41016">
        <ele>71.2</ele>
        <time>2023-10-07T10:35:09Z</time>
      </trkpt>
      <trkpt lat="47.98555" lon="-0.41014">
        <ele>71.2</ele>
        <time>2023-10-07T10:35:10Z</time>
      </trkpt>
      <trkpt lat="47.98555" lon="-0.41012">
        <ele>71.2</ele>
        <time>2023-10-07T10:35:11Z</time>
      </trkpt>
      <trkpt lat="47.98554" lon="-0.41011">
        <ele>72.2</ele>
        <time>2023-10-07T10:35:12Z</time>
      </trkpt>
      <trkpt lat="47.98554" lon="-0.4101">
        <ele>72.4</ele>
        <time>2023-10-07T10:35:13Z</time>
      </trkpt>
      <trkpt lat="47.98554" lon="-0.4101">
        <ele>72.4</ele>
        <time>2023-10-07T10:35:14Z</time>
      </trkpt>
      <trkpt lat="47.98554" lon="-0.4101">
        <ele>72.4</ele>
        <time>2023-10-07T10:35:15Z</time>
      </trkpt>
      <trkpt lat="47.98554" lon="-0.4101">
        <ele>72.4</ele>
        <time>2023-10-07T10:35:16Z</time>
      </trkpt>
      <trkpt lat="47.98554" lon="-0.41">
        <ele>71.8</ele>
        <time>2023-10-07T10:35:30Z</time>
      </trkpt>
      <trkpt lat="47.98555" lon="-0.40997">
        <ele>71.8</ele>
        <time>2023-10-07T10:35:31Z</time>
      </trkpt>
      <trkpt lat="47.98555" lon="-0.40995">
        <ele>71.8</ele>
        <time>2023-10-07T10:35:32Z</time>
      </trkpt>
      <trkpt lat="47.98555" lon="-0.40994">
        <ele>71.4</ele>
        <time>2023-10-07T10:35:33Z</time>
      </trkpt>
      <trkpt lat="47.98556" lon="-0.40992">
        <ele>71.4</ele>
        <time>2023-10-07T10:35:34Z</time>
      </trkpt>
      <trkpt lat="47.98557" lon="-0.40991">
        <ele>71.4</ele>
        <time>2023-10-07T10:35:35Z</time>
      </trkpt>
      <trkpt lat="47.98557" lon="-0.4099">
        <ele>71.8</ele>
        <time>2023-10-07T10:35:36Z</time>
      </trkpt>
      <trkpt lat="47.98557" lon="-0.40989">
        <ele>71</ele>
        <time>2023-10-07T10:35:37Z</time>
      </trkpt>
      <trkpt lat="47.98558" lon="-0.40988">
        <ele>71</ele>
        <time>2023-10-07T10:35:38Z</time>
      </trkpt>
      <trkpt lat="47.98558" lon="-0.40986">
        <ele>71</ele>
        <time>2023-10-07T10:35:39Z</time>
      </trkpt>
      <trkpt lat="47.98558" lon="-0.40985">
        <ele>70.4</ele>
        <time>2023-10-07T10:35:40Z</time>
      </trkpt>
      <trkpt lat="47.98558" lon="-0.40984">
        <ele>71.4</ele>
        <time>2023-10-07T10:35:41Z</time>
      </trkpt>
      <trkpt lat="47.98559" lon="-0.40984">
        <ele>71.4</ele>
        <time>2023-10-07T10:35:42Z</time>
      </trkpt>
      <trkpt lat="47.98559" lon="-0.40982">
        <ele>71.4</ele>
        <time>2023-10-07T10:35:43Z</time>
      </trkpt>
      <trkpt lat="47.98559" lon="-0.40981">
        <ele>70.4</ele>
        <time>2023-10-07T10:35:44Z</time>
      </trkpt>
      <trkpt lat="47.98559" lon="-0.4098">
        <ele>71</ele>
        <time>2023-10-07T10:35:45Z</time>
      </trkpt>
      <trkpt lat="47.98559" lon="-0.40979">
        <ele>71</ele>
        <time>2023-10-07T10:35:46Z</time>
      </trkpt>
      <trkpt lat="47.9856" lon="-0.40978">
        <ele>71</ele>
        <time>2023-10-07T10:35:47Z</time>
      </trkpt>
      <trkpt lat="47.9856" lon="-0.40977">
        <ele>70</ele>
        <time>2023-10-07T10:35:48Z</time>
      </trkpt>
      <trkpt lat="47.98561" lon="-0.40976">
        <ele>70.4</ele>
        <time>2023-10-07T10:35:49Z</time>
      </trkpt>
      <trkpt lat="47.9856" lon="-0.40976">
        <ele>70.4</ele>
        <time>2023-10-07T10:35:50Z</time>
      </trkpt>
      <trkpt lat="47.9856" lon="-0.40974">
        <ele>70.4</ele>
        <time>2023-10-07T10:35:51Z</time>
      </trkpt>
      <trkpt lat="47.98561" lon="-0.40965">
        <ele>68</ele>
        <time>2023-10-07T10:36:01Z</time>
      </trkpt>
      <trkpt lat="47.98562" lon="-0.40962">
        <ele>68</ele>
        <time>2023-10-07T10:36:02Z</time>
      </trkpt>
      <trkpt lat="47.98562" lon="-0.40959">
        <ele>68</ele>
        <time>2023-10-07T10:36:03Z</time>
      </trkpt>
      <trkpt lat="47.98562" lon="-0.40956">
        <ele>68</ele>
        <time>2023-10-07T10:36:04Z</time>
      </trkpt>
      <trkpt lat="47.98563" lon="-0.40952">
        <ele>68</ele>
        <time>2023-10-07T10:36:05Z</time>
      </trkpt>
      <trkpt lat="47.98563" lon="-0.40947">
        <ele>68</ele>
        <time>2023-10-07T10:36:06Z</time>
      </trkpt>
      <trkpt lat="47.98563" lon="-0.40944">
        <ele>68</ele>
        <time>2023-10-07T10:36:07Z</time>
      </trkpt>
      <trkpt lat="47.98563" lon="-0.4094">
        <ele>68</ele>
        <time>2023-10-07T10:36:08Z</time>
      </trkpt>
      <trkpt lat="47.98562" lon="-0.40936">
        <ele>68</ele>
        <time>2023-10-07T10:36:09Z</time>
      </trkpt>
      <trkpt lat="47.98563" lon="-0.40933">
        <ele>68</ele>
        <time>2023-10-07T10:36:10Z</time>
      </trkpt>
      <trkpt lat="47.98563" lon="-0.40929">
        <ele>68</ele>
        <time>2023-10-07T10:36:11Z</time>
      </trkpt>
      <trkpt lat="47.98563" lon="-0.40925">
        <ele>69</ele>
        <time>2023-10-07T10:36:12Z</time>
      </trkpt>
      <trkpt lat="47.98565" lon="-0.40921">
        <ele>68.6</ele>
        <time>2023-10-07T10:36:13Z</time>
      </trkpt>
      <trkpt lat="47.98566" lon="-0.40918">
        <ele>68.6</ele>
        <time>2023-10-07T10:36:14Z</time>
      </trkpt>
      <trkpt lat="47.98567" lon="-0.40913">
        <ele>68.6</ele>
        <time>2023-10-07T10:36:15Z</time>
      </trkpt>
      <trkpt lat="47.98568" lon="-0.40909">
        <ele>68.6</ele>
        <time>2023-10-07T10:36:16Z</time>
      </trkpt>
      <trkpt lat="47.98569" lon="-0.40905">
        <ele>67.8</ele>
        <time>2023-10-07T10:36:17Z</time>
      </trkpt>
      <trkpt lat="47.98569" lon="-0.40901">
        <ele>67.8</ele>
        <time>2023-10-07T10:36:18Z</time>
      </trkpt>
      <trkpt lat="47.98569" lon="-0.40897">
        <ele>67.8</ele>
        <time>2023-10-07T10:36:19Z</time>
      </trkpt>
      <trkpt lat="47.9857" lon="-0.40893">
        <ele>68.6</ele>
        <time>2023-10-07T10:36:20Z</time>
      </trkpt>
      <trkpt lat="47.98572" lon="-0.40888">
        <ele>68.4</ele>
        <time>2023-10-07T10:36:21Z</time>
      </trkpt>
      <trkpt lat="47.98575" lon="-0.40883">
        <ele>68.4</ele>
        <time>2023-10-07T10:36:22Z</time>
      </trkpt>
      <trkpt lat="47.98576" lon="-0.40878">
        <ele>68.4</ele>
        <time>2023-10-07T10:36:23Z</time>
      </trkpt>
      <trkpt lat="47.98577" lon="-0.40875">
        <ele>69.4</ele>
        <time>2023-10-07T10:36:24Z</time>
      </trkpt>
      <trkpt lat="47.98578" lon="-0.40871">
        <ele>70.6</ele>
        <time>2023-10-07T10:36:25Z</time>
      </trkpt>
      <trkpt lat="47.98579" lon="-0.40866">
        <ele>70.6</ele>
        <time>2023-10-07T10:36:26Z</time>
      </trkpt>
      <trkpt lat="47.9858" lon="-0.40861">
        <ele>70.6</ele>
        <time>2023-10-07T10:36:27Z</time>
      </trkpt>
      <trkpt lat="47.98581" lon="-0.40856">
        <ele>69.8</ele>
        <time>2023-10-07T10:36:28Z</time>
      </trkpt>
      <trkpt lat="47.98582" lon="-0.40851">
        <ele>69</ele>
        <time>2023-10-07T10:36:29Z</time>
      </trkpt>
      <trkpt lat="47.98585" lon="-0.40846">
        <ele>69</ele>
        <time>2023-10-07T10:36:30Z</time>
      </trkpt>
      <trkpt lat="47.98587" lon="-0.40841">
        <ele>69</ele>
        <time>2023-10-07T10:36:31Z</time>
      </trkpt>
      <trkpt lat="47.98591" lon="-0.40836">
        <ele>68</ele>
        <time>2023-10-07T10:36:32Z</time>
      </trkpt>
      <trkpt lat="47.98596" lon="-0.40831">
        <ele>67.6</ele>
        <time>2023-10-07T10:36:33Z</time>
      </trkpt>
      <trkpt lat="47.98601" lon="-0.40828">
        <ele>67.6</ele>
        <time>2023-10-07T10:36:34Z</time>
      </trkpt>
      <trkpt lat="47.98607" lon="-0.40826">
        <ele>67.6</ele>
        <time>2023-10-07T10:36:35Z</time>
      </trkpt>
      <trkpt lat="47.98612" lon="-0.40825">
        <ele>66.6</ele>
        <time>2023-10-07T10:36:36Z</time>
      </trkpt>
      <trkpt lat="47.98618" lon="-0.40826">
        <ele>66.4</ele>
        <time>2023-10-07T10:36:37Z</time>
      </trkpt>
      <trkpt lat="47.98624" lon="-0.40828">
        <ele>66.4</ele>
        <time>2023-10-07T10:36:38Z</time>
      </trkpt>
      <trkpt lat="47.98628" lon="-0.40832">
        <ele>66.4</ele>
        <time>2023-10-07T10:36:39Z</time>
      </trkpt>
      <trkpt lat="47.98632" lon="-0.40835">
        <ele>66.4</ele>
        <time>2023-10-07T10:36:40Z</time>
      </trkpt>
      <trkpt lat="47.98635" lon="-0.40836">
        <ele>67</ele>
        <time>2023-10-07T10:36:41Z</time>
      </trkpt>
      <trkpt lat="47.98637" lon="-0.40836">
        <ele>67</ele>
        <time>2023-10-07T10:36:42Z</time>
      </trkpt>
      <trkpt lat="47.98638" lon="-0.40836">
        <ele>67</ele>
        <time>2023-10-07T10:36:43Z</time>
      </trkpt>
      <trkpt lat="47.98639" lon="-0.40836">
        <ele>67.4</ele>
        <time>2023-10-07T10:36:44Z</time>
      </trkpt>
      <trkpt lat="47.98639" lon="-0.40836">
        <ele>67.2</ele>
        <time>2023-10-07T10:36:45Z</time>
      </trkpt>
      <trkpt lat="47.9864" lon="-0.40829">
        <ele>67.2</ele>
        <time>2023-10-07T10:37:03Z</time>
      </trkpt>
      <trkpt lat="47.98641" lon="-0.40828">
        <ele>66.2</ele>
        <time>2023-10-07T10:37:04Z</time>
      </trkpt>
      <trkpt lat="47.98642" lon="-0.40827">
        <ele>64.4</ele>
        <time>2023-10-07T10:37:05Z</time>
      </trkpt>
      <trkpt lat="47.98642" lon="-0.40827">
        <ele>64.4</ele>
        <time>2023-10-07T10:37:06Z</time>
      </trkpt>
      <trkpt lat="47.9865" lon="-0.40828">
        <ele>64.6</ele>
        <time>2023-10-07T10:37:15Z</time>
      </trkpt>
      <trkpt lat="47.98651" lon="-0.40828">
        <ele>64.2</ele>
        <time>2023-10-07T10:37:16Z</time>
      </trkpt>
      <trkpt lat="47.98653" lon="-0.40829">
        <ele>64.6</ele>
        <time>2023-10-07T10:37:17Z</time>
      </trkpt>
      <trkpt lat="47.98656" lon="-0.40829">
        <ele>64.6</ele>
        <time>2023-10-07T10:37:18Z</time>
      </trkpt>
      <trkpt lat="47.98659" lon="-0.4083">
        <ele>64.6</ele>
        <time>2023-10-07T10:37:19Z</time>
      </trkpt>
      <trkpt lat="47.98661" lon="-0.40831">
        <ele>64.4</ele>
        <time>2023-10-07T10:37:20Z</time>
      </trkpt>
      <trkpt lat="47.98665" lon="-0.40832">
        <ele>64.8</ele>
        <time>2023-10-07T10:37:21Z</time>
      </trkpt>
      <trkpt lat="47.98668" lon="-0.40833">
        <ele>64.8</ele>
        <time>2023-10-07T10:37:22Z</time>
      </trkpt>
      <trkpt lat="47.98673" lon="-0.40832">
        <ele>64.8</ele>
        <time>2023-10-07T10:37:23Z</time>
      </trkpt>
      <trkpt lat="47.98677" lon="-0.40832">
        <ele>63.8</ele>
        <time>2023-10-07T10:37:24Z</time>
      </trkpt>
      <trkpt lat="47.98681" lon="-0.40832">
        <ele>63.2</ele>
        <time>2023-10-07T10:37:25Z</time>
      </trkpt>
      <trkpt lat="47.98685" lon="-0.40832">
        <ele>63.2</ele>
        <time>2023-10-07T10:37:26Z</time>
      </trkpt>
      <trkpt lat="47.98689" lon="-0.40831">
        <ele>63.2</ele>
        <time>2023-10-07T10:37:27Z</time>
      </trkpt>
      <trkpt lat="47.98693" lon="-0.40832">
        <ele>63.2</ele>
        <time>2023-10-07T10:37:28Z</time>
      </trkpt>
      <trkpt lat="47.98697" lon="-0.40831">
        <ele>64.2</ele>
        <time>2023-10-07T10:37:29Z</time>
      </trkpt>
      <trkpt lat="47.98702" lon="-0.40831">
        <ele>64.2</ele>
        <time>2023-10-07T10:37:30Z</time>
      </trkpt>
      <trkpt lat="47.98706" lon="-0.40831">
        <ele>64.2</ele>
        <time>2023-10-07T10:37:31Z</time>
      </trkpt>
      <trkpt lat="47.9871" lon="-0.40831">
        <ele>63.4</ele>
        <time>2023-10-07T10:37:32Z</time>
      </trkpt>
      <trkpt lat="47.98715" lon="-0.4083">
        <ele>64</ele>
        <time>2023-10-07T10:37:33Z</time>
      </trkpt>
      <trkpt lat="47.98719" lon="-0.40828">
        <ele>64</ele>
        <time>2023-10-07T10:37:34Z</time>
      </trkpt>
      <trkpt lat="47.98722" lon="-0.40826">
        <ele>64</ele>
        <time>2023-10-07T10:37:35Z</time>
      </trkpt>
      <trkpt lat="47.98726" lon="-0.40824">
        <ele>64</ele>
        <time>2023-10-07T10:37:36Z</time>
      </trkpt>
      <trkpt lat="47.9873" lon="-0.40821">
        <ele>64.2</ele>
        <time>2023-10-07T10:37:37Z</time>
      </trkpt>
      <trkpt lat="47.98733" lon="-0.40817">
        <ele>64.2</ele>
        <time>2023-10-07T10:37:38Z</time>
      </trkpt>
      <trkpt lat="47.98736" lon="-0.40813">
        <ele>64.2</ele>
        <time>2023-10-07T10:37:39Z</time>
      </trkpt>
      <trkpt lat="47.98739" lon="-0.40811">
        <ele>64.2</ele>
        <time>2023-10-07T10:37:40Z</time>
      </trkpt>
      <trkpt lat="47.98742" lon="-0.40809">
        <ele>64.4</ele>
        <time>2023-10-07T10:37:41Z</time>
      </trkpt>
      <trkpt lat="47.98746" lon="-0.40808">
        <ele>64.4</ele>
        <time>2023-10-07T10:37:42Z</time>
      </trkpt>
      <trkpt lat="47.98749" lon="-0.40807">
        <ele>64.4</ele>
        <time>2023-10-07T10:37:43Z</time>
      </trkpt>
      <trkpt lat="47.98753" lon="-0.40807">
        <ele>64.4</ele>
        <time>2023-10-07T10:37:44Z</time>
      </trkpt>
      <trkpt lat="47.98757" lon="-0.40807">
        <ele>66</ele>
        <time>2023-10-07T10:37:45Z</time>
      </trkpt>
      <trkpt lat="47.98761" lon="-0.40807">
        <ele>66</ele>
        <time>2023-10-07T10:37:46Z</time>
      </trkpt>
      <trkpt lat="47.98764" lon="-0.40809">
        <ele>66</ele>
        <time>2023-10-07T10:37:47Z</time>
      </trkpt>
      <trkpt lat="47.98768" lon="-0.4081">
        <ele>65</ele>
        <time>2023-10-07T10:37:48Z</time>
      </trkpt>
      <trkpt lat="47.98772" lon="-0.40813">
        <ele>63.8</ele>
        <time>2023-10-07T10:37:49Z</time>
      </trkpt>
      <trkpt lat="47.98775" lon="-0.40816">
        <ele>63.8</ele>
        <time>2023-10-07T10:37:50Z</time>
      </trkpt>
      <trkpt lat="47.98778" lon="-0.4082">
        <ele>63.8</ele>
        <time>2023-10-07T10:37:51Z</time>
      </trkpt>
      <trkpt lat="47.98781" lon="-0.40824">
        <ele>64</ele>
        <time>2023-10-07T10:37:52Z</time>
      </trkpt>
      <trkpt lat="47.98783" lon="-0.40829">
        <ele>62.2</ele>
        <time>2023-10-07T10:37:53Z</time>
      </trkpt>
      <trkpt lat="47.98785" lon="-0.40834">
        <ele>62.2</ele>
        <time>2023-10-07T10:37:54Z</time>
      </trkpt>
      <trkpt lat="47.98787" lon="-0.40839">
        <ele>62.2</ele>
        <time>2023-10-07T10:37:55Z</time>
      </trkpt>
      <trkpt lat="47.98789" lon="-0.40844">
        <ele>63.2</ele>
        <time>2023-10-07T10:37:56Z</time>
      </trkpt>
      <trkpt lat="47.9879" lon="-0.40849">
        <ele>63.4</ele>
        <time>2023-10-07T10:37:57Z</time>
      </trkpt>
      <trkpt lat="47.98792" lon="-0.40855">
        <ele>63.4</ele>
        <time>2023-10-07T10:37:58Z</time>
      </trkpt>
      <trkpt lat="47.98793" lon="-0.40859">
        <ele>63.4</ele>
        <time>2023-10-07T10:37:59Z</time>
      </trkpt>
      <trkpt lat="47.98795" lon="-0.40864">
        <ele>63.4</ele>
        <time>2023-10-07T10:38:00Z</time>
      </trkpt>
      <trkpt lat="47.98797" lon="-0.40869">
        <ele>64</ele>
        <time>2023-10-07T10:38:01Z</time>
      </trkpt>
      <trkpt lat="47.98799" lon="-0.40873">
        <ele>64</ele>
        <time>2023-10-07T10:38:02Z</time>
      </trkpt>
      <trkpt lat="47.98801" lon="-0.40878">
        <ele>64</ele>
        <time>2023-10-07T10:38:03Z</time>
      </trkpt>
      <trkpt lat="47.98804" lon="-0.40882">
        <ele>64</ele>
        <time>2023-10-07T10:38:04Z</time>
      </trkpt>
      <trkpt lat="47.98806" lon="-0.40886">
        <ele>64.2</ele>
        <time>2023-10-07T10:38:05Z</time>
      </trkpt>
      <trkpt lat="47.98809" lon="-0.4089">
        <ele>64.2</ele>
        <time>2023-10-07T10:38:06Z</time>
      </trkpt>
      <trkpt lat="47.98813" lon="-0.40893">
        <ele>64.2</ele>
        <time>2023-10-07T10:38:07Z</time>
      </trkpt>
      <trkpt lat="47.98816" lon="-0.40895">
        <ele>64.2</ele>
        <time>2023-10-07T10:38:08Z</time>
      </trkpt>
      <trkpt lat="47.98819" lon="-0.40897">
        <ele>63.4</ele>
        <time>2023-10-07T10:38:09Z</time>
      </trkpt>
      <trkpt lat="47.98822" lon="-0.40898">
        <ele>63.4</ele>
        <time>2023-10-07T10:38:10Z</time>
      </trkpt>
      <trkpt lat="47.98825" lon="-0.409">
        <ele>63.4</ele>
        <time>2023-10-07T10:38:11Z</time>
      </trkpt>
      <trkpt lat="47.98829" lon="-0.40902">
        <ele>63.4</ele>
        <time>2023-10-07T10:38:12Z</time>
      </trkpt>
      <trkpt lat="47.98832" lon="-0.40904">
        <ele>64.8</ele>
        <time>2023-10-07T10:38:13Z</time>
      </trkpt>
      <trkpt lat="47.98835" lon="-0.40907">
        <ele>64.8</ele>
        <time>2023-10-07T10:38:14Z</time>
      </trkpt>
      <trkpt lat="47.98839" lon="-0.40909">
        <ele>64.8</ele>
        <time>2023-10-07T10:38:15Z</time>
      </trkpt>
      <trkpt lat="47.98842" lon="-0.40911">
        <ele>64</ele>
        <time>2023-10-07T10:38:16Z</time>
      </trkpt>
      <trkpt lat="47.98846" lon="-0.40912">
        <ele>64.4</ele>
        <time>2023-10-07T10:38:17Z</time>
      </trkpt>
      <trkpt lat="47.9885" lon="-0.40914">
        <ele>64.4</ele>
        <time>2023-10-07T10:38:18Z</time>
      </trkpt>
      <trkpt lat="47.98853" lon="-0.40917">
        <ele>64.4</ele>
        <time>2023-10-07T10:38:19Z</time>
      </trkpt>
      <trkpt lat="47.98855" lon="-0.40921">
        <ele>64.4</ele>
        <time>2023-10-07T10:38:20Z</time>
      </trkpt>
      <trkpt lat="47.98859" lon="-0.40924">
        <ele>64.8</ele>
        <time>2023-10-07T10:38:21Z</time>
      </trkpt>
      <trkpt lat="47.98862" lon="-0.40927">
        <ele>64.8</ele>
        <time>2023-10-07T10:38:22Z</time>
      </trkpt>
      <trkpt lat="47.98865" lon="-0.40929">
        <ele>64.8</ele>
        <time>2023-10-07T10:38:23Z</time>
      </trkpt>
      <trkpt lat="47.98869" lon="-0.40932">
        <ele>64.8</ele>
        <time>2023-10-07T10:38:24Z</time>
      </trkpt>
      <trkpt lat="47.98872" lon="-0.40934">
        <ele>63.4</ele>
        <time>2023-10-07T10:38:25Z</time>
      </trkpt>
      <trkpt lat="47.98876" lon="-0.40936">
        <ele>63.4</ele>
        <time>2023-10-07T10:38:26Z</time>
      </trkpt>
      <trkpt lat="47.98879" lon="-0.40938">
        <ele>63.4</ele>
        <time>2023-10-07T10:38:27Z</time>
      </trkpt>
      <trkpt lat="47.98882" lon="-0.40941">
        <ele>64.4</ele>
        <time>2023-10-07T10:38:28Z</time>
      </trkpt>
      <trkpt lat="47.98886" lon="-0.40943">
        <ele>65.4</ele>
        <time>2023-10-07T10:38:29Z</time>
      </trkpt>
      <trkpt lat="47.98889" lon="-0.40945">
        <ele>65.4</ele>
        <time>2023-10-07T10:38:30Z</time>
      </trkpt>
      <trkpt lat="47.98893" lon="-0.40947">
        <ele>65.4</ele>
        <time>2023-10-07T10:38:31Z</time>
      </trkpt>
      <trkpt lat="47.98897" lon="-0.40949">
        <ele>65.4</ele>
        <time>2023-10-07T10:38:32Z</time>
      </trkpt>
      <trkpt lat="47.98901" lon="-0.40951">
        <ele>65.6</ele>
        <time>2023-10-07T10:38:33Z</time>
      </trkpt>
      <trkpt lat="47.98905" lon="-0.40953">
        <ele>65.6</ele>
        <time>2023-10-07T10:38:34Z</time>
      </trkpt>
      <trkpt lat="47.98909" lon="-0.40955">
        <ele>65.6</ele>
        <time>2023-10-07T10:38:35Z</time>
      </trkpt>
      <trkpt lat="47.98913" lon="-0.40956">
        <ele>65.6</ele>
        <time>2023-10-07T10:38:36Z</time>
      </trkpt>
      <trkpt lat="47.98916" lon="-0.40959">
        <ele>65.4</ele>
        <time>2023-10-07T10:38:37Z</time>
      </trkpt>
      <trkpt lat="47.9892" lon="-0.40961">
        <ele>65.4</ele>
        <time>2023-10-07T10:38:38Z</time>
      </trkpt>
      <trkpt lat="47.98923" lon="-0.40963">
        <ele>65.4</ele>
        <time>2023-10-07T10:38:39Z</time>
      </trkpt>
      <trkpt lat="47.98926" lon="-0.40964">
        <ele>65.4</ele>
        <time>2023-10-07T10:38:40Z</time>
      </trkpt>
      <trkpt lat="47.9893" lon="-0.40964">
        <ele>65.6</ele>
        <time>2023-10-07T10:38:41Z</time>
      </trkpt>
      <trkpt lat="47.98934" lon="-0.40964">
        <ele>65.6</ele>
        <time>2023-10-07T10:38:42Z</time>
      </trkpt>
      <trkpt lat="47.98938" lon="-0.40965">
        <ele>65.6</ele>
        <time>2023-10-07T10:38:43Z</time>
      </trkpt>
      <trkpt lat="47.98942" lon="-0.40966">
        <ele>65.6</ele>
        <time>2023-10-07T10:38:44Z</time>
      </trkpt>
      <trkpt lat="47.98947" lon="-0.40967">
        <ele>68</ele>
        <time>2023-10-07T10:38:45Z</time>
      </trkpt>
      <trkpt lat="47.98951" lon="-0.40968">
        <ele>68</ele>
        <time>2023-10-07T10:38:46Z</time>
      </trkpt>
      <trkpt lat="47.98955" lon="-0.4097">
        <ele>68</ele>
        <time>2023-10-07T10:38:47Z</time>
      </trkpt>
      <trkpt lat="47.98959" lon="-0.40971">
        <ele>67</ele>
        <time>2023-10-07T10:38:48Z</time>
      </trkpt>
      <trkpt lat="47.98963" lon="-0.40973">
        <ele>66</ele>
        <time>2023-10-07T10:38:49Z</time>
      </trkpt>
      <trkpt lat="47.98966" lon="-0.40975">
        <ele>66</ele>
        <time>2023-10-07T10:38:50Z</time>
      </trkpt>
      <trkpt lat="47.98969" lon="-0.40978">
        <ele>66</ele>
        <time>2023-10-07T10:38:51Z</time>
      </trkpt>
      <trkpt lat="47.98972" lon="-0.40981">
        <ele>66</ele>
        <time>2023-10-07T10:38:52Z</time>
      </trkpt>
      <trkpt lat="47.98975" lon="-0.40983">
        <ele>65.8</ele>
        <time>2023-10-07T10:38:53Z</time>
      </trkpt>
      <trkpt lat="47.98978" lon="-0.40984">
        <ele>65.8</ele>
        <time>2023-10-07T10:38:54Z</time>
      </trkpt>
      <trkpt lat="47.98981" lon="-0.40984">
        <ele>65.8</ele>
        <time>2023-10-07T10:38:55Z</time>
      </trkpt>
      <trkpt lat="47.98984" lon="-0.40984">
        <ele>64.8</ele>
        <time>2023-10-07T10:38:56Z</time>
      </trkpt>
      <trkpt lat="47.98988" lon="-0.40983">
        <ele>64.2</ele>
        <time>2023-10-07T10:38:57Z</time>
      </trkpt>
      <trkpt lat="47.98991" lon="-0.40981">
        <ele>64.2</ele>
        <time>2023-10-07T10:38:58Z</time>
      </trkpt>
      <trkpt lat="47.98995" lon="-0.40979">
        <ele>64.2</ele>
        <time>2023-10-07T10:38:59Z</time>
      </trkpt>
      <trkpt lat="47.98999" lon="-0.40978">
        <ele>64.4</ele>
        <time>2023-10-07T10:39:00Z</time>
      </trkpt>
      <trkpt lat="47.99003" lon="-0.40977">
        <ele>64.4</ele>
        <time>2023-10-07T10:39:01Z</time>
      </trkpt>
      <trkpt lat="47.99008" lon="-0.40977">
        <ele>64.4</ele>
        <time>2023-10-07T10:39:02Z</time>
      </trkpt>
      <trkpt lat="47.99013" lon="-0.40977">
        <ele>64.4</ele>
        <time>2023-10-07T10:39:03Z</time>
      </trkpt>
      <trkpt lat="47.99017" lon="-0.40976">
        <ele>64.4</ele>
        <time>2023-10-07T10:39:04Z</time>
      </trkpt>
      <trkpt lat="47.9902" lon="-0.40974">
        <ele>65.6</ele>
        <time>2023-10-07T10:39:05Z</time>
      </trkpt>
      <trkpt lat="47.99024" lon="-0.40972">
        <ele>65.6</ele>
        <time>2023-10-07T10:39:06Z</time>
      </trkpt>
      <trkpt lat="47.99028" lon="-0.40969">
        <ele>65.6</ele>
        <time>2023-10-07T10:39:07Z</time>
      </trkpt>
      <trkpt lat="47.99033" lon="-0.40967">
        <ele>65</ele>
        <time>2023-10-07T10:39:08Z</time>
      </trkpt>
      <trkpt lat="47.99039" lon="-0.40965">
        <ele>65</ele>
        <time>2023-10-07T10:39:09Z</time>
      </trkpt>
      <trkpt lat="47.99044" lon="-0.40963">
        <ele>65</ele>
        <time>2023-10-07T10:39:10Z</time>
      </trkpt>
      <trkpt lat="47.99049" lon="-0.40962">
        <ele>65</ele>
        <time>2023-10-07T10:39:11Z</time>
      </trkpt>
      <trkpt lat="47.99055" lon="-0.40961">
        <ele>65</ele>
        <time>2023-10-07T10:39:12Z</time>
      </trkpt>
      <trkpt lat="47.99059" lon="-0.40958">
        <ele>65.4</ele>
        <time>2023-10-07T10:39:13Z</time>
      </trkpt>
      <trkpt lat="47.99064" lon="-0.40956">
        <ele>65.4</ele>
        <time>2023-10-07T10:39:14Z</time>
      </trkpt>
      <trkpt lat="47.99069" lon="-0.40954">
        <ele>65.4</ele>
        <time>2023-10-07T10:39:15Z</time>
      </trkpt>
      <trkpt lat="47.99073" lon="-0.40952">
        <ele>65.4</ele>
        <time>2023-10-07T10:39:16Z</time>
      </trkpt>
      <trkpt lat="47.99077" lon="-0.40951">
        <ele>65.8</ele>
        <time>2023-10-07T10:39:17Z</time>
      </trkpt>
      <trkpt lat="47.99081" lon="-0.40949">
        <ele>65.8</ele>
        <time>2023-10-07T10:39:18Z</time>
      </trkpt>
      <trkpt lat="47.99086" lon="-0.40947">
        <ele>65.8</ele>
        <time>2023-10-07T10:39:19Z</time>
      </trkpt>
      <trkpt lat="47.99089" lon="-0.40946">
        <ele>64.8</ele>
        <time>2023-10-07T10:39:20Z</time>
      </trkpt>
      <trkpt lat="47.99093" lon="-0.40946">
        <ele>65</ele>
        <time>2023-10-07T10:39:21Z</time>
      </trkpt>
      <trkpt lat="47.99097" lon="-0.40947">
        <ele>65</ele>
        <time>2023-10-07T10:39:22Z</time>
      </trkpt>
      <trkpt lat="47.99101" lon="-0.40947">
        <ele>65</ele>
        <time>2023-10-07T10:39:23Z</time>
      </trkpt>
      <trkpt lat="47.99106" lon="-0.40946">
        <ele>65</ele>
        <time>2023-10-07T10:39:24Z</time>
      </trkpt>
      <trkpt lat="47.9911" lon="-0.40945">
        <ele>64.8</ele>
        <time>2023-10-07T10:39:25Z</time>
      </trkpt>
      <trkpt lat="47.99114" lon="-0.40944">
        <ele>64.8</ele>
        <time>2023-10-07T10:39:26Z</time>
      </trkpt>
      <trkpt lat="47.99118" lon="-0.40943">
        <ele>64.8</ele>
        <time>2023-10-07T10:39:27Z</time>
      </trkpt>
      <trkpt lat="47.99122" lon="-0.40942">
        <ele>64.8</ele>
        <time>2023-10-07T10:39:28Z</time>
      </trkpt>
      <trkpt lat="47.99126" lon="-0.40941">
        <ele>64.4</ele>
        <time>2023-10-07T10:39:29Z</time>
      </trkpt>
      <trkpt lat="47.9913" lon="-0.4094">
        <ele>64.4</ele>
        <time>2023-10-07T10:39:30Z</time>
      </trkpt>
      <trkpt lat="47.99134" lon="-0.40939">
        <ele>64.4</ele>
        <time>2023-10-07T10:39:31Z</time>
      </trkpt>
      <trkpt lat="47.99138" lon="-0.40939">
        <ele>64.6</ele>
        <time>2023-10-07T10:39:32Z</time>
      </trkpt>
      <trkpt lat="47.99142" lon="-0.40938">
        <ele>64.2</ele>
        <time>2023-10-07T10:39:33Z</time>
      </trkpt>
      <trkpt lat="47.99147" lon="-0.40937">
        <ele>64.2</ele>
        <time>2023-10-07T10:39:34Z</time>
      </trkpt>
      <trkpt lat="47.99152" lon="-0.40936">
        <ele>64.2</ele>
        <time>2023-10-07T10:39:35Z</time>
      </trkpt>
      <trkpt lat="47.99156" lon="-0.40936">
        <ele>63.4</ele>
        <time>2023-10-07T10:39:36Z</time>
      </trkpt>
      <trkpt lat="47.99159" lon="-0.40936">
        <ele>64.6</ele>
        <time>2023-10-07T10:39:37Z</time>
      </trkpt>
      <trkpt lat="47.99164" lon="-0.40936">
        <ele>64.6</ele>
        <time>2023-10-07T10:39:38Z</time>
      </trkpt>
      <trkpt lat="47.99169" lon="-0.40936">
        <ele>64.6</ele>
        <time>2023-10-07T10:39:39Z</time>
      </trkpt>
      <trkpt lat="47.99173" lon="-0.40937">
        <ele>64.6</ele>
        <time>2023-10-07T10:39:40Z</time>
      </trkpt>
      <trkpt lat="47.99178" lon="-0.40936">
        <ele>65</ele>
        <time>2023-10-07T10:39:41Z</time>
      </trkpt>
      <trkpt lat="47.99181" lon="-0.40935">
        <ele>65</ele>
        <time>2023-10-07T10:39:42Z</time>
      </trkpt>
      <trkpt lat="47.99185" lon="-0.40933">
        <ele>65</ele>
        <time>2023-10-07T10:39:43Z</time>
      </trkpt>
      <trkpt lat="47.99188" lon="-0.40932">
        <ele>66</ele>
        <time>2023-10-07T10:39:44Z</time>
      </trkpt>
      <trkpt lat="47.99189" lon="-0.40931">
        <ele>66.2</ele>
        <time>2023-10-07T10:39:45Z</time>
      </trkpt>
      <trkpt lat="47.99191" lon="-0.40929">
        <ele>66.2</ele>
        <time>2023-10-07T10:39:46Z</time>
      </trkpt>
      <trkpt lat="47.99194" lon="-0.40927">
        <ele>66.2</ele>
        <time>2023-10-07T10:39:47Z</time>
      </trkpt>
      <trkpt lat="47.99197" lon="-0.40924">
        <ele>65.4</ele>
        <time>2023-10-07T10:39:48Z</time>
      </trkpt>
      <trkpt lat="47.99202" lon="-0.4092">
        <ele>65.6</ele>
        <time>2023-10-07T10:39:49Z</time>
      </trkpt>
      <trkpt lat="47.99206" lon="-0.40917">
        <ele>65.6</ele>
        <time>2023-10-07T10:39:50Z</time>
      </trkpt>
      <trkpt lat="47.9921" lon="-0.40915">
        <ele>65.6</ele>
        <time>2023-10-07T10:39:51Z</time>
      </trkpt>
      <trkpt lat="47.99213" lon="-0.40914">
        <ele>66.6</ele>
        <time>2023-10-07T10:39:52Z</time>
      </trkpt>
      <trkpt lat="47.99216" lon="-0.40913">
        <ele>68</ele>
        <time>2023-10-07T10:39:53Z</time>
      </trkpt>
      <trkpt lat="47.99219" lon="-0.40912">
        <ele>68</ele>
        <time>2023-10-07T10:39:54Z</time>
      </trkpt>
      <trkpt lat="47.99223" lon="-0.4091">
        <ele>68</ele>
        <time>2023-10-07T10:39:55Z</time>
      </trkpt>
      <trkpt lat="47.99226" lon="-0.40908">
        <ele>69</ele>
        <time>2023-10-07T10:39:56Z</time>
      </trkpt>
      <trkpt lat="47.99229" lon="-0.40908">
        <ele>69.4</ele>
        <time>2023-10-07T10:39:57Z</time>
      </trkpt>
      <trkpt lat="47.99231" lon="-0.40907">
        <ele>69.4</ele>
        <time>2023-10-07T10:39:58Z</time>
      </trkpt>
      <trkpt lat="47.99233" lon="-0.40907">
        <ele>69.4</ele>
        <time>2023-10-07T10:39:59Z</time>
      </trkpt>
      <trkpt lat="47.99233" lon="-0.40907">
        <ele>70.4</ele>
        <time>2023-10-07T10:40:00Z</time>
      </trkpt>
      <trkpt lat="47.99247" lon="-0.40898">
        <ele>71.8</ele>
        <time>2023-10-07T10:40:09Z</time>
      </trkpt>
      <trkpt lat="47.99248" lon="-0.40897">
        <ele>71.8</ele>
        <time>2023-10-07T10:40:10Z</time>
      </trkpt>
      <trkpt lat="47.99248" lon="-0.40896">
        <ele>71.8</ele>
        <time>2023-10-07T10:40:11Z</time>
      </trkpt>
      <trkpt lat="47.99249" lon="-0.40895">
        <ele>71.8</ele>
        <time>2023-10-07T10:40:12Z</time>
      </trkpt>
      <trkpt lat="47.99249" lon="-0.40894">
        <ele>71.2</ele>
        <time>2023-10-07T10:40:13Z</time>
      </trkpt>
      <trkpt lat="47.99248" lon="-0.40892">
        <ele>71.2</ele>
        <time>2023-10-07T10:40:14Z</time>
      </trkpt>
      <trkpt lat="47.99248" lon="-0.4089">
        <ele>71.2</ele>
        <time>2023-10-07T10:40:15Z</time>
      </trkpt>
      <trkpt lat="47.99248" lon="-0.40887">
        <ele>70.2</ele>
        <time>2023-10-07T10:40:16Z</time>
      </trkpt>
      <trkpt lat="47.99248" lon="-0.40883">
        <ele>70.6</ele>
        <time>2023-10-07T10:40:17Z</time>
      </trkpt>
      <trkpt lat="47.99248" lon="-0.4088">
        <ele>70.6</ele>
        <time>2023-10-07T10:40:18Z</time>
      </trkpt>
      <trkpt lat="47.99248" lon="-0.40878">
        <ele>70.6</ele>
        <time>2023-10-07T10:40:19Z</time>
      </trkpt>
      <trkpt lat="47.99247" lon="-0.40875">
        <ele>70.6</ele>
        <time>2023-10-07T10:40:20Z</time>
      </trkpt>
      <trkpt lat="47.99247" lon="-0.40872">
        <ele>69.4</ele>
        <time>2023-10-07T10:40:21Z</time>
      </trkpt>
      <trkpt lat="47.99246" lon="-0.40869">
        <ele>69.4</ele>
        <time>2023-10-07T10:40:22Z</time>
      </trkpt>
      <trkpt lat="47.99246" lon="-0.40866">
        <ele>69.4</ele>
        <time>2023-10-07T10:40:23Z</time>
      </trkpt>
      <trkpt lat="47.99246" lon="-0.40863">
        <ele>68.4</ele>
        <time>2023-10-07T10:40:24Z</time>
      </trkpt>
      <trkpt lat="47.99245" lon="-0.4086">
        <ele>67.6</ele>
        <time>2023-10-07T10:40:25Z</time>
      </trkpt>
      <trkpt lat="47.99244" lon="-0.40856">
        <ele>67.6</ele>
        <time>2023-10-07T10:40:26Z</time>
      </trkpt>
      <trkpt lat="47.99243" lon="-0.40853">
        <ele>67.6</ele>
        <time>2023-10-07T10:40:27Z</time>
      </trkpt>
      <trkpt lat="47.99242" lon="-0.40849">
        <ele>67.6</ele>
        <time>2023-10-07T10:40:28Z</time>
      </trkpt>
      <trkpt lat="47.99241" lon="-0.40845">
        <ele>65.8</ele>
        <time>2023-10-07T10:40:29Z</time>
      </trkpt>
      <trkpt lat="47.9924" lon="-0.4084">
        <ele>65.8</ele>
        <time>2023-10-07T10:40:30Z</time>
      </trkpt>
      <trkpt lat="47.99239" lon="-0.40835">
        <ele>65.8</ele>
        <time>2023-10-07T10:40:31Z</time>
      </trkpt>
      <trkpt lat="47.99238" lon="-0.4083">
        <ele>65.8</ele>
        <time>2023-10-07T10:40:32Z</time>
      </trkpt>
      <trkpt lat="47.99238" lon="-0.40826">
        <ele>67</ele>
        <time>2023-10-07T10:40:33Z</time>
      </trkpt>
      <trkpt lat="47.99237" lon="-0.40822">
        <ele>67</ele>
        <time>2023-10-07T10:40:34Z</time>
      </trkpt>
      <trkpt lat="47.99237" lon="-0.4082">
        <ele>67</ele>
        <time>2023-10-07T10:40:35Z</time>
      </trkpt>
      <trkpt lat="47.99237" lon="-0.40818">
        <ele>66.2</ele>
        <time>2023-10-07T10:40:36Z</time>
      </trkpt>
      <trkpt lat="47.99237" lon="-0.40818">
        <ele>66.4</ele>
        <time>2023-10-07T10:40:37Z</time>
      </trkpt>
      <trkpt lat="47.99237" lon="-0.40815">
        <ele>66.4</ele>
        <time>2023-10-07T10:40:38Z</time>
      </trkpt>
      <trkpt lat="47.99237" lon="-0.40814">
        <ele>66.4</ele>
        <time>2023-10-07T10:40:39Z</time>
      </trkpt>
      <trkpt lat="47.99237" lon="-0.40812">
        <ele>66.4</ele>
        <time>2023-10-07T10:40:40Z</time>
      </trkpt>
      <trkpt lat="47.99236" lon="-0.40811">
        <ele>66.6</ele>
        <time>2023-10-07T10:40:41Z</time>
      </trkpt>
      <trkpt lat="47.99236" lon="-0.4081">
        <ele>66.6</ele>
        <time>2023-10-07T10:40:42Z</time>
      </trkpt>
      <trkpt lat="47.99235" lon="-0.40808">
        <ele>66.6</ele>
        <time>2023-10-07T10:40:43Z</time>
      </trkpt>
      <trkpt lat="47.99235" lon="-0.40806">
        <ele>66.6</ele>
        <time>2023-10-07T10:40:44Z</time>
      </trkpt>
      <trkpt lat="47.99234" lon="-0.40803">
        <ele>66</ele>
        <time>2023-10-07T10:40:45Z</time>
      </trkpt>
      <trkpt lat="47.99234" lon="-0.40803">
        <ele>66</ele>
        <time>2023-10-07T10:40:46Z</time>
      </trkpt>
      <trkpt lat="47.9923" lon="-0.40787">
        <ele>65.8</ele>
        <time>2023-10-07T10:41:03Z</time>
      </trkpt>
      <trkpt lat="47.99228" lon="-0.40784">
        <ele>65.8</ele>
        <time>2023-10-07T10:41:04Z</time>
      </trkpt>
      <trkpt lat="47.99227" lon="-0.4078">
        <ele>65.8</ele>
        <time>2023-10-07T10:41:05Z</time>
      </trkpt>
      <trkpt lat="47.99225" lon="-0.40776">
        <ele>65.8</ele>
        <time>2023-10-07T10:41:06Z</time>
      </trkpt>
      <trkpt lat="47.99224" lon="-0.40772">
        <ele>65.8</ele>
        <time>2023-10-07T10:41:07Z</time>
      </trkpt>
      <trkpt lat="47.99224" lon="-0.4077">
        <ele>65.8</ele>
        <time>2023-10-07T10:41:08Z</time>
      </trkpt>
      <trkpt lat="47.99224" lon="-0.40768">
        <ele>66</ele>
        <time>2023-10-07T10:41:09Z</time>
      </trkpt>
      <trkpt lat="47.99224" lon="-0.40767">
        <ele>66</ele>
        <time>2023-10-07T10:41:10Z</time>
      </trkpt>
      <trkpt lat="47.99224" lon="-0.40767">
        <ele>66</ele>
        <time>2023-10-07T10:41:11Z</time>
      </trkpt>
      <trkpt lat="47.99225" lon="-0.40766">
        <ele>65.8</ele>
        <time>2023-10-07T10:41:12Z</time>
      </trkpt>
      <trkpt lat="47.99225" lon="-0.40766">
        <ele>65.8</ele>
        <time>2023-10-07T10:41:13Z</time>
      </trkpt>
      <trkpt lat="47.99226" lon="-0.40759">
        <ele>65.2</ele>
        <time>2023-10-07T10:41:17Z</time>
      </trkpt>
      <trkpt lat="47.99226" lon="-0.40759">
        <ele>65.2</ele>
        <time>2023-10-07T10:41:18Z</time>
      </trkpt>
      <trkpt lat="47.99226" lon="-0.40758">
        <ele>65.2</ele>
        <time>2023-10-07T10:41:19Z</time>
      </trkpt>
      <trkpt lat="47.99226" lon="-0.40756">
        <ele>66.2</ele>
        <time>2023-10-07T10:41:20Z</time>
      </trkpt>
      <trkpt lat="47.99226" lon="-0.40755">
        <ele>66</ele>
        <time>2023-10-07T10:41:21Z</time>
      </trkpt>
      <trkpt lat="47.99226" lon="-0.40753">
        <ele>66</ele>
        <time>2023-10-07T10:41:22Z</time>
      </trkpt>
      <trkpt lat="47.99227" lon="-0.40752">
        <ele>66</ele>
        <time>2023-10-07T10:41:23Z</time>
      </trkpt>
      <trkpt lat="47.99226" lon="-0.4075">
        <ele>66</ele>
        <time>2023-10-07T10:41:24Z</time>
      </trkpt>
      <trkpt lat="47.99226" lon="-0.40748">
        <ele>65.4</ele>
        <time>2023-10-07T10:41:25Z</time>
      </trkpt>
      <trkpt lat="47.99226" lon="-0.40747">
        <ele>65.4</ele>
        <time>2023-10-07T10:41:26Z</time>
      </trkpt>
      <trkpt lat="47.99227" lon="-0.40745">
        <ele>65.4</ele>
        <time>2023-10-07T10:41:27Z</time>
      </trkpt>
      <trkpt lat="47.99227" lon="-0.40744">
        <ele>65.4</ele>
        <time>2023-10-07T10:41:28Z</time>
      </trkpt>
      <trkpt lat="47.99226" lon="-0.40743">
        <ele>64</ele>
        <time>2023-10-07T10:41:29Z</time>
      </trkpt>
      <trkpt lat="47.99226" lon="-0.40742">
        <ele>64</ele>
        <time>2023-10-07T10:41:30Z</time>
      </trkpt>
      <trkpt lat="47.99226" lon="-0.4074">
        <ele>64</ele>
        <time>2023-10-07T10:41:31Z</time>
      </trkpt>
      <trkpt lat="47.99223" lon="-0.40683">
        <ele>66.8</ele>
        <time>2023-10-07T10:42:14Z</time>
      </trkpt>
      <trkpt lat="47.99223" lon="-0.40679">
        <ele>66.8</ele>
        <time>2023-10-07T10:42:15Z</time>
      </trkpt>
      <trkpt lat="47.99223" lon="-0.40675">
        <ele>66.8</ele>
        <time>2023-10-07T10:42:16Z</time>
      </trkpt>
      <trkpt lat="47.99222" lon="-0.40671">
        <ele>66.2</ele>
        <time>2023-10-07T10:42:17Z</time>
      </trkpt>
      <trkpt lat="47.99222" lon="-0.40666">
        <ele>66.2</ele>
        <time>2023-10-07T10:42:18Z</time>
      </trkpt>
      <trkpt lat="47.99221" lon="-0.40661">
        <ele>66.2</ele>
        <time>2023-10-07T10:42:19Z</time>
      </trkpt>
      <trkpt lat="47.9922" lon="-0.40656">
        <ele>66.2</ele>
        <time>2023-10-07T10:42:20Z</time>
      </trkpt>
      <trkpt lat="47.9922" lon="-0.4065">
        <ele>66.2</ele>
        <time>2023-10-07T10:42:21Z</time>
      </trkpt>
      <trkpt lat="47.99219" lon="-0.40645">
        <ele>66.2</ele>
        <time>2023-10-07T10:42:22Z</time>
      </trkpt>
      <trkpt lat="47.99219" lon="-0.40639">
        <ele>66.2</ele>
        <time>2023-10-07T10:42:23Z</time>
      </trkpt>
      <trkpt lat="47.99218" lon="-0.40635">
        <ele>66.2</ele>
        <time>2023-10-07T10:42:24Z</time>
      </trkpt>
      <trkpt lat="47.99218" lon="-0.4063">
        <ele>65.6</ele>
        <time>2023-10-07T10:42:25Z</time>
      </trkpt>
      <trkpt lat="47.99219" lon="-0.40624">
        <ele>65.6</ele>
        <time>2023-10-07T10:42:26Z</time>
      </trkpt>
      <trkpt lat="47.99218" lon="-0.40618">
        <ele>65.6</ele>
        <time>2023-10-07T10:42:27Z</time>
      </trkpt>
      <trkpt lat="47.99218" lon="-0.4061">
        <ele>65.6</ele>
        <time>2023-10-07T10:42:28Z</time>
      </trkpt>
      <trkpt lat="47.99218" lon="-0.40603">
        <ele>67</ele>
        <time>2023-10-07T10:42:29Z</time>
      </trkpt>
      <trkpt lat="47.9922" lon="-0.40597">
        <ele>67</ele>
        <time>2023-10-07T10:42:30Z</time>
      </trkpt>
      <trkpt lat="47.99221" lon="-0.40591">
        <ele>67</ele>
        <time>2023-10-07T10:42:31Z</time>
      </trkpt>
      <trkpt lat="47.99223" lon="-0.40585">
        <ele>67</ele>
        <time>2023-10-07T10:42:32Z</time>
      </trkpt>
      <trkpt lat="47.99224" lon="-0.40581">
        <ele>68.8</ele>
        <time>2023-10-07T10:42:33Z</time>
      </trkpt>
      <trkpt lat="47.99225" lon="-0.40577">
        <ele>68.8</ele>
        <time>2023-10-07T10:42:34Z</time>
      </trkpt>
      <trkpt lat="47.99226" lon="-0.40573">
        <ele>68.8</ele>
        <time>2023-10-07T10:42:35Z</time>
      </trkpt>
      <trkpt lat="47.99227" lon="-0.40569">
        <ele>69.6</ele>
        <time>2023-10-07T10:42:36Z</time>
      </trkpt>
      <trkpt lat="47.99228" lon="-0.40565">
        <ele>69.6</ele>
        <time>2023-10-07T10:42:37Z</time>
      </trkpt>
      <trkpt lat="47.99229" lon="-0.40561">
        <ele>69.6</ele>
        <time>2023-10-07T10:42:38Z</time>
      </trkpt>
      <trkpt lat="47.99229" lon="-0.40556">
        <ele>69.6</ele>
        <time>2023-10-07T10:42:39Z</time>
      </trkpt>
      <trkpt lat="47.9923" lon="-0.4055">
        <ele>70.6</ele>
        <time>2023-10-07T10:42:40Z</time>
      </trkpt>
      <trkpt lat="47.9923" lon="-0.40545">
        <ele>71.2</ele>
        <time>2023-10-07T10:42:41Z</time>
      </trkpt>
      <trkpt lat="47.99231" lon="-0.40541">
        <ele>71.2</ele>
        <time>2023-10-07T10:42:42Z</time>
      </trkpt>
      <trkpt lat="47.99232" lon="-0.40537">
        <ele>71.2</ele>
        <time>2023-10-07T10:42:43Z</time>
      </trkpt>
      <trkpt lat="47.99233" lon="-0.40533">
        <ele>71.2</ele>
        <time>2023-10-07T10:42:44Z</time>
      </trkpt>
      <trkpt lat="47.99234" lon="-0.40528">
        <ele>73</ele>
        <time>2023-10-07T10:42:45Z</time>
      </trkpt>
      <trkpt lat="47.99235" lon="-0.40524">
        <ele>73</ele>
        <time>2023-10-07T10:42:46Z</time>
      </trkpt>
      <trkpt lat="47.99236" lon="-0.4052">
        <ele>73</ele>
        <time>2023-10-07T10:42:47Z</time>
      </trkpt>
      <trkpt lat="47.99237" lon="-0.40516">
        <ele>73.4</ele>
        <time>2023-10-07T10:42:48Z</time>
      </trkpt>
      <trkpt lat="47.99238" lon="-0.40512">
        <ele>74</ele>
        <time>2023-10-07T10:42:49Z</time>
      </trkpt>
      <trkpt lat="47.99239" lon="-0.40508">
        <ele>74</ele>
        <time>2023-10-07T10:42:50Z</time>
      </trkpt>
      <trkpt lat="47.9924" lon="-0.40504">
        <ele>74</ele>
        <time>2023-10-07T10:42:51Z</time>
      </trkpt>
      <trkpt lat="47.99241" lon="-0.405">
        <ele>74.2</ele>
        <time>2023-10-07T10:42:52Z</time>
      </trkpt>
      <trkpt lat="47.99242" lon="-0.40496">
        <ele>76.4</ele>
        <time>2023-10-07T10:42:53Z</time>
      </trkpt>
      <trkpt lat="47.99243" lon="-0.40493">
        <ele>76.4</ele>
        <time>2023-10-07T10:42:54Z</time>
      </trkpt>
      <trkpt lat="47.99244" lon="-0.40489">
        <ele>76.4</ele>
        <time>2023-10-07T10:42:55Z</time>
      </trkpt>
      <trkpt lat="47.99245" lon="-0.40485">
        <ele>76.4</ele>
        <time>2023-10-07T10:42:56Z</time>
      </trkpt>
      <trkpt lat="47.99245" lon="-0.40481">
        <ele>77.4</ele>
        <time>2023-10-07T10:42:57Z</time>
      </trkpt>
      <trkpt lat="47.99246" lon="-0.40477">
        <ele>77.4</ele>
        <time>2023-10-07T10:42:58Z</time>
      </trkpt>
      <trkpt lat="47.99247" lon="-0.40473">
        <ele>77.4</ele>
        <time>2023-10-07T10:42:59Z</time>
      </trkpt>
      <trkpt lat="47.99247" lon="-0.40469">
        <ele>77.4</ele>
        <time>2023-10-07T10:43:00Z</time>
      </trkpt>
      <trkpt lat="47.99248" lon="-0.40465">
        <ele>77.4</ele>
        <time>2023-10-07T10:43:01Z</time>
      </trkpt>
      <trkpt lat="47.99249" lon="-0.40462">
        <ele>77.4</ele>
        <time>2023-10-07T10:43:02Z</time>
      </trkpt>
      <trkpt lat="47.99251" lon="-0.40459">
        <ele>77.4</ele>
        <time>2023-10-07T10:43:03Z</time>
      </trkpt>
      <trkpt lat="47.99252" lon="-0.40456">
        <ele>77.4</ele>
        <time>2023-10-07T10:43:04Z</time>
      </trkpt>
      <trkpt lat="47.99254" lon="-0.40454">
        <ele>77.8</ele>
        <time>2023-10-07T10:43:05Z</time>
      </trkpt>
      <trkpt lat="47.99255" lon="-0.40451">
        <ele>77.8</ele>
        <time>2023-10-07T10:43:06Z</time>
      </trkpt>
      <trkpt lat="47.99257" lon="-0.40449">
        <ele>77.8</ele>
        <time>2023-10-07T10:43:07Z</time>
      </trkpt>
      <trkpt lat="47.99259" lon="-0.40447">
        <ele>78.8</ele>
        <time>2023-10-07T10:43:08Z</time>
      </trkpt>
      <trkpt lat="47.9926" lon="-0.40445">
        <ele>81.8</ele>
        <time>2023-10-07T10:43:09Z</time>
      </trkpt>
      <trkpt lat="47.99262" lon="-0.40443">
        <ele>81.8</ele>
        <time>2023-10-07T10:43:10Z</time>
      </trkpt>
      <trkpt lat="47.99263" lon="-0.40441">
        <ele>81.8</ele>
        <time>2023-10-07T10:43:11Z</time>
      </trkpt>
      <trkpt lat="47.99265" lon="-0.40439">
        <ele>81.8</ele>
        <time>2023-10-07T10:43:12Z</time>
      </trkpt>
      <trkpt lat="47.99267" lon="-0.40437">
        <ele>81.8</ele>
        <time>2023-10-07T10:43:13Z</time>
      </trkpt>
      <trkpt lat="47.99268" lon="-0.40435">
        <ele>81.8</ele>
        <time>2023-10-07T10:43:14Z</time>
      </trkpt>
      <trkpt lat="47.9927" lon="-0.40434">
        <ele>81.8</ele>
        <time>2023-10-07T10:43:15Z</time>
      </trkpt>
      <trkpt lat="47.99271" lon="-0.40433">
        <ele>81.8</ele>
        <time>2023-10-07T10:43:16Z</time>
      </trkpt>
      <trkpt lat="47.99273" lon="-0.40431">
        <ele>82.6</ele>
        <time>2023-10-07T10:43:17Z</time>
      </trkpt>
      <trkpt lat="47.99275" lon="-0.4043">
        <ele>82.6</ele>
        <time>2023-10-07T10:43:18Z</time>
      </trkpt>
      <trkpt lat="47.99277" lon="-0.40429">
        <ele>82.6</ele>
        <time>2023-10-07T10:43:19Z</time>
      </trkpt>
      <trkpt lat="47.99278" lon="-0.40428">
        <ele>83</ele>
        <time>2023-10-07T10:43:20Z</time>
      </trkpt>
      <trkpt lat="47.9928" lon="-0.40427">
        <ele>83.4</ele>
        <time>2023-10-07T10:43:21Z</time>
      </trkpt>
      <trkpt lat="47.99282" lon="-0.40426">
        <ele>83.4</ele>
        <time>2023-10-07T10:43:22Z</time>
      </trkpt>
      <trkpt lat="47.99284" lon="-0.40425">
        <ele>83.4</ele>
        <time>2023-10-07T10:43:23Z</time>
      </trkpt>
      <trkpt lat="47.99285" lon="-0.40423">
        <ele>84.4</ele>
        <time>2023-10-07T10:43:24Z</time>
      </trkpt>
      <trkpt lat="47.99287" lon="-0.40422">
        <ele>84.4</ele>
        <time>2023-10-07T10:43:25Z</time>
      </trkpt>
      <trkpt lat="47.99289" lon="-0.40421">
        <ele>84.4</ele>
        <time>2023-10-07T10:43:26Z</time>
      </trkpt>
      <trkpt lat="47.9929" lon="-0.4042">
        <ele>84.4</ele>
        <time>2023-10-07T10:43:27Z</time>
      </trkpt>
      <trkpt lat="47.99292" lon="-0.40418">
        <ele>85.4</ele>
        <time>2023-10-07T10:43:28Z</time>
      </trkpt>
      <trkpt lat="47.99294" lon="-0.40417">
        <ele>86</ele>
        <time>2023-10-07T10:43:29Z</time>
      </trkpt>
      <trkpt lat="47.99296" lon="-0.40416">
        <ele>86</ele>
        <time>2023-10-07T10:43:30Z</time>
      </trkpt>
      <trkpt lat="47.99298" lon="-0.40415">
        <ele>86</ele>
        <time>2023-10-07T10:43:31Z</time>
      </trkpt>
      <trkpt lat="47.993" lon="-0.40414">
        <ele>85.8</ele>
        <time>2023-10-07T10:43:32Z</time>
      </trkpt>
      <trkpt lat="47.99301" lon="-0.40414">
        <ele>86.6</ele>
        <time>2023-10-07T10:43:33Z</time>
      </trkpt>
      <trkpt lat="47.99304" lon="-0.40413">
        <ele>86.6</ele>
        <time>2023-10-07T10:43:34Z</time>
      </trkpt>
      <trkpt lat="47.99306" lon="-0.40412">
        <ele>86.6</ele>
        <time>2023-10-07T10:43:35Z</time>
      </trkpt>
      <trkpt lat="47.99308" lon="-0.40412">
        <ele>86.6</ele>
        <time>2023-10-07T10:43:36Z</time>
      </trkpt>
      <trkpt lat="47.99309" lon="-0.40411">
        <ele>86.6</ele>
        <time>2023-10-07T10:43:37Z</time>
      </trkpt>
      <trkpt lat="47.99311" lon="-0.4041">
        <ele>86.6</ele>
        <time>2023-10-07T10:43:38Z</time>
      </trkpt>
      <trkpt lat="47.99313" lon="-0.4041">
        <ele>86.6</ele>
        <time>2023-10-07T10:43:39Z</time>
      </trkpt>
      <trkpt lat="47.99315" lon="-0.40409">
        <ele>87.6</ele>
        <time>2023-10-07T10:43:40Z</time>
      </trkpt>
      <trkpt lat="47.99317" lon="-0.40407">
        <ele>88</ele>
        <time>2023-10-07T10:43:41Z</time>
      </trkpt>
      <trkpt lat="47.99319" lon="-0.40406">
        <ele>88</ele>
        <time>2023-10-07T10:43:42Z</time>
      </trkpt>
      <trkpt lat="47.99321" lon="-0.40404">
        <ele>88</ele>
        <time>2023-10-07T10:43:43Z</time>
      </trkpt>
      <trkpt lat="47.99322" lon="-0.40402">
        <ele>88</ele>
        <time>2023-10-07T10:43:44Z</time>
      </trkpt>
      <trkpt lat="47.99324" lon="-0.40401">
        <ele>88.6</ele>
        <time>2023-10-07T10:43:45Z</time>
      </trkpt>
      <trkpt lat="47.99326" lon="-0.40399">
        <ele>88.6</ele>
        <time>2023-10-07T10:43:46Z</time>
      </trkpt>
      <trkpt lat="47.99327" lon="-0.40398">
        <ele>88.6</ele>
        <time>2023-10-07T10:43:47Z</time>
      </trkpt>
      <trkpt lat="47.99329" lon="-0.40396">
        <ele>88.6</ele>
        <time>2023-10-07T10:43:48Z</time>
      </trkpt>
      <trkpt lat="47.99331" lon="-0.40395">
        <ele>88.8</ele>
        <time>2023-10-07T10:43:49Z</time>
      </trkpt>
      <trkpt lat="47.99333" lon="-0.40394">
        <ele>88.8</ele>
        <time>2023-10-07T10:43:50Z</time>
      </trkpt>
      <trkpt lat="47.99334" lon="-0.40392">
        <ele>88.8</ele>
        <time>2023-10-07T10:43:51Z</time>
      </trkpt>
      <trkpt lat="47.99336" lon="-0.40391">
        <ele>88.8</ele>
        <time>2023-10-07T10:43:52Z</time>
      </trkpt>
      <trkpt lat="47.99338" lon="-0.4039">
        <ele>89.4</ele>
        <time>2023-10-07T10:43:53Z</time>
      </trkpt>
      <trkpt lat="47.9934" lon="-0.40388">
        <ele>89.4</ele>
        <time>2023-10-07T10:43:54Z</time>
      </trkpt>
      <trkpt lat="47.99342" lon="-0.40386">
        <ele>89.4</ele>
        <time>2023-10-07T10:43:55Z</time>
      </trkpt>
      <trkpt lat="47.99343" lon="-0.40384">
        <ele>89.4</ele>
        <time>2023-10-07T10:43:56Z</time>
      </trkpt>
      <trkpt lat="47.99345" lon="-0.40382">
        <ele>90</ele>
        <time>2023-10-07T10:43:57Z</time>
      </trkpt>
      <trkpt lat="47.99347" lon="-0.4038">
        <ele>90</ele>
        <time>2023-10-07T10:43:58Z</time>
      </trkpt>
      <trkpt lat="47.99349" lon="-0.40378">
        <ele>90</ele>
        <time>2023-10-07T10:43:59Z</time>
      </trkpt>
      <trkpt lat="47.9935" lon="-0.40376">
        <ele>89</ele>
        <time>2023-10-07T10:44:00Z</time>
      </trkpt>
      <trkpt lat="47.99352" lon="-0.40374">
        <ele>90.8</ele>
        <time>2023-10-07T10:44:01Z</time>
      </trkpt>
      <trkpt lat="47.99354" lon="-0.40372">
        <ele>90.8</ele>
        <time>2023-10-07T10:44:02Z</time>
      </trkpt>
      <trkpt lat="47.99355" lon="-0.4037">
        <ele>90.8</ele>
        <time>2023-10-07T10:44:03Z</time>
      </trkpt>
      <trkpt lat="47.99357" lon="-0.40368">
        <ele>90</ele>
        <time>2023-10-07T10:44:04Z</time>
      </trkpt>
      <trkpt lat="47.99359" lon="-0.40366">
        <ele>90.2</ele>
        <time>2023-10-07T10:44:05Z</time>
      </trkpt>
      <trkpt lat="47.99361" lon="-0.40363">
        <ele>90.2</ele>
        <time>2023-10-07T10:44:06Z</time>
      </trkpt>
      <trkpt lat="47.99363" lon="-0.40362">
        <ele>90.2</ele>
        <time>2023-10-07T10:44:07Z</time>
      </trkpt>
      <trkpt lat="47.99364" lon="-0.4036">
        <ele>90.2</ele>
        <time>2023-10-07T10:44:08Z</time>
      </trkpt>
      <trkpt lat="47.99366" lon="-0.40357">
        <ele>90.4</ele>
        <time>2023-10-07T10:44:09Z</time>
      </trkpt>
      <trkpt lat="47.99367" lon="-0.40355">
        <ele>90.4</ele>
        <time>2023-10-07T10:44:10Z</time>
      </trkpt>
      <trkpt lat="47.99369" lon="-0.40352">
        <ele>90.4</ele>
        <time>2023-10-07T10:44:11Z</time>
      </trkpt>
      <trkpt lat="47.99371" lon="-0.4035">
        <ele>91.2</ele>
        <time>2023-10-07T10:44:12Z</time>
      </trkpt>
      <trkpt lat="47.99373" lon="-0.40348">
        <ele>93.4</ele>
        <time>2023-10-07T10:44:13Z</time>
      </trkpt>
      <trkpt lat="47.99376" lon="-0.40346">
        <ele>93.4</ele>
        <time>2023-10-07T10:44:14Z</time>
      </trkpt>
      <trkpt lat="47.99378" lon="-0.40343">
        <ele>93.4</ele>
        <time>2023-10-07T10:44:15Z</time>
      </trkpt>
      <trkpt lat="47.99381" lon="-0.40341">
        <ele>92.4</ele>
        <time>2023-10-07T10:44:16Z</time>
      </trkpt>
      <trkpt lat="47.99383" lon="-0.40339">
        <ele>90.8</ele>
        <time>2023-10-07T10:44:17Z</time>
      </trkpt>
      <trkpt lat="47.99385" lon="-0.40337">
        <ele>90.8</ele>
        <time>2023-10-07T10:44:18Z</time>
      </trkpt>
      <trkpt lat="47.99388" lon="-0.40334">
        <ele>90.8</ele>
        <time>2023-10-07T10:44:19Z</time>
      </trkpt>
      <trkpt lat="47.9939" lon="-0.40331">
        <ele>90.8</ele>
        <time>2023-10-07T10:44:20Z</time>
      </trkpt>
      <trkpt lat="47.99392" lon="-0.40328">
        <ele>91.6</ele>
        <time>2023-10-07T10:44:21Z</time>
      </trkpt>
      <trkpt lat="47.99394" lon="-0.40325">
        <ele>91.6</ele>
        <time>2023-10-07T10:44:22Z</time>
      </trkpt>
      <trkpt lat="47.99396" lon="-0.40321">
        <ele>91.6</ele>
        <time>2023-10-07T10:44:23Z</time>
      </trkpt>
      <trkpt lat="47.99398" lon="-0.40317">
        <ele>91.6</ele>
        <time>2023-10-07T10:44:24Z</time>
      </trkpt>
      <trkpt lat="47.994" lon="-0.40314">
        <ele>91.4</ele>
        <time>2023-10-07T10:44:25Z</time>
      </trkpt>
      <trkpt lat="47.99402" lon="-0.40311">
        <ele>91.4</ele>
        <time>2023-10-07T10:44:26Z</time>
      </trkpt>
      <trkpt lat="47.99404" lon="-0.40309">
        <ele>91.4</ele>
        <time>2023-10-07T10:44:27Z</time>
      </trkpt>
      <trkpt lat="47.99406" lon="-0.40308">
        <ele>91.6</ele>
        <time>2023-10-07T10:44:28Z</time>
      </trkpt>
      <trkpt lat="47.99408" lon="-0.40305">
        <ele>92.4</ele>
        <time>2023-10-07T10:44:29Z</time>
      </trkpt>
      <trkpt lat="47.99411" lon="-0.40302">
        <ele>92.4</ele>
        <time>2023-10-07T10:44:30Z</time>
      </trkpt>
      <trkpt lat="47.99413" lon="-0.40299">
        <ele>92.4</ele>
        <time>2023-10-07T10:44:31Z</time>
      </trkpt>
      <trkpt lat="47.99415" lon="-0.40296">
        <ele>91.8</ele>
        <time>2023-10-07T10:44:32Z</time>
      </trkpt>
      <trkpt lat="47.99417" lon="-0.40294">
        <ele>91.4</ele>
        <time>2023-10-07T10:44:33Z</time>
      </trkpt>
      <trkpt lat="47.99419" lon="-0.40291">
        <ele>91.4</ele>
        <time>2023-10-07T10:44:34Z</time>
      </trkpt>
      <trkpt lat="47.99422" lon="-0.40288">
        <ele>91.4</ele>
        <time>2023-10-07T10:44:35Z</time>
      </trkpt>
      <trkpt lat="47.99424" lon="-0.40285">
        <ele>91.6</ele>
        <time>2023-10-07T10:44:36Z</time>
      </trkpt>
      <trkpt lat="47.99426" lon="-0.40282">
        <ele>92.4</ele>
        <time>2023-10-07T10:44:37Z</time>
      </trkpt>
      <trkpt lat="47.99429" lon="-0.40279">
        <ele>92.4</ele>
        <time>2023-10-07T10:44:38Z</time>
      </trkpt>
      <trkpt lat="47.99432" lon="-0.40277">
        <ele>92.4</ele>
        <time>2023-10-07T10:44:39Z</time>
      </trkpt>
      <trkpt lat="47.99435" lon="-0.40274">
        <ele>92.4</ele>
        <time>2023-10-07T10:44:40Z</time>
      </trkpt>
      <trkpt lat="47.99438" lon="-0.40272">
        <ele>92.4</ele>
        <time>2023-10-07T10:44:41Z</time>
      </trkpt>
      <trkpt lat="47.99441" lon="-0.40269">
        <ele>92.4</ele>
        <time>2023-10-07T10:44:42Z</time>
      </trkpt>
      <trkpt lat="47.99444" lon="-0.40266">
        <ele>92.4</ele>
        <time>2023-10-07T10:44:43Z</time>
      </trkpt>
      <trkpt lat="47.99447" lon="-0.40263">
        <ele>92.2</ele>
        <time>2023-10-07T10:44:44Z</time>
      </trkpt>
      <trkpt lat="47.9945" lon="-0.40261">
        <ele>91.4</ele>
        <time>2023-10-07T10:44:45Z</time>
      </trkpt>
      <trkpt lat="47.99453" lon="-0.40258">
        <ele>91.4</ele>
        <time>2023-10-07T10:44:46Z</time>
      </trkpt>
      <trkpt lat="47.99457" lon="-0.40255">
        <ele>91.4</ele>
        <time>2023-10-07T10:44:47Z</time>
      </trkpt>
      <trkpt lat="47.9946" lon="-0.40252">
        <ele>91.4</ele>
        <time>2023-10-07T10:44:48Z</time>
      </trkpt>
      <trkpt lat="47.99464" lon="-0.40249">
        <ele>91</ele>
        <time>2023-10-07T10:44:49Z</time>
      </trkpt>
      <trkpt lat="47.99467" lon="-0.40246">
        <ele>91</ele>
        <time>2023-10-07T10:44:50Z</time>
      </trkpt>
      <trkpt lat="47.99471" lon="-0.40244">
        <ele>91</ele>
        <time>2023-10-07T10:44:51Z</time>
      </trkpt>
      <trkpt lat="47.99474" lon="-0.40241">
        <ele>91</ele>
        <time>2023-10-07T10:44:52Z</time>
      </trkpt>
      <trkpt lat="47.99478" lon="-0.40239">
        <ele>89.8</ele>
        <time>2023-10-07T10:44:53Z</time>
      </trkpt>
      <trkpt lat="47.99482" lon="-0.40237">
        <ele>89.8</ele>
        <time>2023-10-07T10:44:54Z</time>
      </trkpt>
      <trkpt lat="47.99485" lon="-0.40236">
        <ele>89.8</ele>
        <time>2023-10-07T10:44:55Z</time>
      </trkpt>
      <trkpt lat="47.99489" lon="-0.40234">
        <ele>89.8</ele>
        <time>2023-10-07T10:44:56Z</time>
      </trkpt>
      <trkpt lat="47.99493" lon="-0.40233">
        <ele>87.6</ele>
        <time>2023-10-07T10:44:57Z</time>
      </trkpt>
      <trkpt lat="47.99497" lon="-0.40232">
        <ele>87.6</ele>
        <time>2023-10-07T10:44:58Z</time>
      </trkpt>
      <trkpt lat="47.99501" lon="-0.40231">
        <ele>87.6</ele>
        <time>2023-10-07T10:44:59Z</time>
      </trkpt>
      <trkpt lat="47.99505" lon="-0.4023">
        <ele>88.6</ele>
        <time>2023-10-07T10:45:00Z</time>
      </trkpt>
      <trkpt lat="47.99508" lon="-0.40229">
        <ele>91.8</ele>
        <time>2023-10-07T10:45:01Z</time>
      </trkpt>
      <trkpt lat="47.99511" lon="-0.40228">
        <ele>91.8</ele>
        <time>2023-10-07T10:45:02Z</time>
      </trkpt>
      <trkpt lat="47.99514" lon="-0.40228">
        <ele>91.8</ele>
        <time>2023-10-07T10:45:03Z</time>
      </trkpt>
      <trkpt lat="47.99518" lon="-0.40227">
        <ele>91.2</ele>
        <time>2023-10-07T10:45:04Z</time>
      </trkpt>
      <trkpt lat="47.99521" lon="-0.40227">
        <ele>90.2</ele>
        <time>2023-10-07T10:45:05Z</time>
      </trkpt>
      <trkpt lat="47.99524" lon="-0.40225">
        <ele>90.2</ele>
        <time>2023-10-07T10:45:06Z</time>
      </trkpt>
      <trkpt lat="47.99527" lon="-0.40224">
        <ele>90.2</ele>
        <time>2023-10-07T10:45:07Z</time>
      </trkpt>
      <trkpt lat="47.9953" lon="-0.40224">
        <ele>90.2</ele>
        <time>2023-10-07T10:45:08Z</time>
      </trkpt>
      <trkpt lat="47.99533" lon="-0.40223">
        <ele>89.2</ele>
        <time>2023-10-07T10:45:09Z</time>
      </trkpt>
      <trkpt lat="47.99536" lon="-0.40223">
        <ele>89.2</ele>
        <time>2023-10-07T10:45:10Z</time>
      </trkpt>
      <trkpt lat="47.99539" lon="-0.40223">
        <ele>89.2</ele>
        <time>2023-10-07T10:45:11Z</time>
      </trkpt>
      <trkpt lat="47.99542" lon="-0.40222">
        <ele>89.2</ele>
        <time>2023-10-07T10:45:12Z</time>
      </trkpt>
      <trkpt lat="47.99545" lon="-0.40222">
        <ele>90.2</ele>
        <time>2023-10-07T10:45:13Z</time>
      </trkpt>
      <trkpt lat="47.99549" lon="-0.40222">
        <ele>90.2</ele>
        <time>2023-10-07T10:45:14Z</time>
      </trkpt>
      <trkpt lat="47.99551" lon="-0.40221">
        <ele>90.2</ele>
        <time>2023-10-07T10:45:15Z</time>
      </trkpt>
      <trkpt lat="47.99554" lon="-0.40221">
        <ele>89.2</ele>
        <time>2023-10-07T10:45:16Z</time>
      </trkpt>
      <trkpt lat="47.99557" lon="-0.4022">
        <ele>88.8</ele>
        <time>2023-10-07T10:45:17Z</time>
      </trkpt>
      <trkpt lat="47.99559" lon="-0.4022">
        <ele>88.8</ele>
        <time>2023-10-07T10:45:18Z</time>
      </trkpt>
      <trkpt lat="47.99562" lon="-0.40219">
        <ele>88.8</ele>
        <time>2023-10-07T10:45:19Z</time>
      </trkpt>
      <trkpt lat="47.99563" lon="-0.40216">
        <ele>88</ele>
        <time>2023-10-07T10:45:20Z</time>
      </trkpt>
      <trkpt lat="47.99564" lon="-0.40213">
        <ele>87</ele>
        <time>2023-10-07T10:45:21Z</time>
      </trkpt>
      <trkpt lat="47.99565" lon="-0.40209">
        <ele>87</ele>
        <time>2023-10-07T10:45:22Z</time>
      </trkpt>
      <trkpt lat="47.99565" lon="-0.40205">
        <ele>87</ele>
        <time>2023-10-07T10:45:23Z</time>
      </trkpt>
      <trkpt lat="47.99565" lon="-0.402">
        <ele>86.2</ele>
        <time>2023-10-07T10:45:24Z</time>
      </trkpt>
      <trkpt lat="47.99565" lon="-0.40196">
        <ele>83</ele>
        <time>2023-10-07T10:45:25Z</time>
      </trkpt>
      <trkpt lat="47.99564" lon="-0.40193">
        <ele>83</ele>
        <time>2023-10-07T10:45:26Z</time>
      </trkpt>
      <trkpt lat="47.99564" lon="-0.4019">
        <ele>83</ele>
        <time>2023-10-07T10:45:27Z</time>
      </trkpt>
      <trkpt lat="47.99564" lon="-0.40188">
        <ele>83.2</ele>
        <time>2023-10-07T10:45:28Z</time>
      </trkpt>
      <trkpt lat="47.99563" lon="-0.40186">
        <ele>82.4</ele>
        <time>2023-10-07T10:45:29Z</time>
      </trkpt>
      <trkpt lat="47.99563" lon="-0.40183">
        <ele>82.4</ele>
        <time>2023-10-07T10:45:30Z</time>
      </trkpt>
      <trkpt lat="47.99562" lon="-0.4018">
        <ele>82.4</ele>
        <time>2023-10-07T10:45:31Z</time>
      </trkpt>
      <trkpt lat="47.9956" lon="-0.40177">
        <ele>81.4</ele>
        <time>2023-10-07T10:45:32Z</time>
      </trkpt>
      <trkpt lat="47.99558" lon="-0.40174">
        <ele>81.8</ele>
        <time>2023-10-07T10:45:33Z</time>
      </trkpt>
      <trkpt lat="47.99555" lon="-0.40174">
        <ele>81.8</ele>
        <time>2023-10-07T10:45:34Z</time>
      </trkpt>
      <trkpt lat="47.99552" lon="-0.40173">
        <ele>81.8</ele>
        <time>2023-10-07T10:45:35Z</time>
      </trkpt>
      <trkpt lat="47.99549" lon="-0.40173">
        <ele>81.8</ele>
        <time>2023-10-07T10:45:36Z</time>
      </trkpt>
      <trkpt lat="47.99546" lon="-0.40172">
        <ele>80.4</ele>
        <time>2023-10-07T10:45:37Z</time>
      </trkpt>
      <trkpt lat="47.99542" lon="-0.40172">
        <ele>80.4</ele>
        <time>2023-10-07T10:45:38Z</time>
      </trkpt>
      <trkpt lat="47.99539" lon="-0.40171">
        <ele>80.4</ele>
        <time>2023-10-07T10:45:39Z</time>
      </trkpt>
      <trkpt lat="47.99536" lon="-0.40169">
        <ele>80.4</ele>
        <time>2023-10-07T10:45:40Z</time>
      </trkpt>
      <trkpt lat="47.99532" lon="-0.40168">
        <ele>79.6</ele>
        <time>2023-10-07T10:45:41Z</time>
      </trkpt>
      <trkpt lat="47.99529" lon="-0.40166">
        <ele>79.6</ele>
        <time>2023-10-07T10:45:42Z</time>
      </trkpt>
      <trkpt lat="47.99526" lon="-0.40164">
        <ele>79.6</ele>
        <time>2023-10-07T10:45:43Z</time>
      </trkpt>
      <trkpt lat="47.99523" lon="-0.40162">
        <ele>80.2</ele>
        <time>2023-10-07T10:45:44Z</time>
      </trkpt>
      <trkpt lat="47.99521" lon="-0.40158">
        <ele>78.2</ele>
        <time>2023-10-07T10:45:45Z</time>
      </trkpt>
      <trkpt lat="47.99519" lon="-0.40154">
        <ele>78.2</ele>
        <time>2023-10-07T10:45:46Z</time>
      </trkpt>
      <trkpt lat="47.99517" lon="-0.4015">
        <ele>78.2</ele>
        <time>2023-10-07T10:45:47Z</time>
      </trkpt>
      <trkpt lat="47.99514" lon="-0.40148">
        <ele>78.2</ele>
        <time>2023-10-07T10:45:48Z</time>
      </trkpt>
      <trkpt lat="47.99511" lon="-0.40147">
        <ele>80.2</ele>
        <time>2023-10-07T10:45:49Z</time>
      </trkpt>
      <trkpt lat="47.99508" lon="-0.40147">
        <ele>80.2</ele>
        <time>2023-10-07T10:45:50Z</time>
      </trkpt>
      <trkpt lat="47.99505" lon="-0.40146">
        <ele>80.2</ele>
        <time>2023-10-07T10:45:51Z</time>
      </trkpt>
      <trkpt lat="47.99502" lon="-0.40146">
        <ele>80.2</ele>
        <time>2023-10-07T10:45:52Z</time>
      </trkpt>
      <trkpt lat="47.99499" lon="-0.40145">
        <ele>76.4</ele>
        <time>2023-10-07T10:45:53Z</time>
      </trkpt>
      <trkpt lat="47.99496" lon="-0.40143">
        <ele>76.4</ele>
        <time>2023-10-07T10:45:54Z</time>
      </trkpt>
      <trkpt lat="47.99494" lon="-0.40141">
        <ele>76.4</ele>
        <time>2023-10-07T10:45:55Z</time>
      </trkpt>
      <trkpt lat="47.99491" lon="-0.40138">
        <ele>77</ele>
        <time>2023-10-07T10:45:56Z</time>
      </trkpt>
      <trkpt lat="47.99488" lon="-0.40136">
        <ele>77.8</ele>
        <time>2023-10-07T10:45:57Z</time>
      </trkpt>
      <trkpt lat="47.99485" lon="-0.40133">
        <ele>77.8</ele>
        <time>2023-10-07T10:45:58Z</time>
      </trkpt>
      <trkpt lat="47.99483" lon="-0.4013">
        <ele>77.8</ele>
        <time>2023-10-07T10:45:59Z</time>
      </trkpt>
      <trkpt lat="47.99481" lon="-0.40126">
        <ele>76.8</ele>
        <time>2023-10-07T10:46:00Z</time>
      </trkpt>
      <trkpt lat="47.9948" lon="-0.40122">
        <ele>75.4</ele>
        <time>2023-10-07T10:46:01Z</time>
      </trkpt>
      <trkpt lat="47.99477" lon="-0.40118">
        <ele>75.4</ele>
        <time>2023-10-07T10:46:02Z</time>
      </trkpt>
      <trkpt lat="47.99475" lon="-0.40116">
        <ele>75.4</ele>
        <time>2023-10-07T10:46:03Z</time>
      </trkpt>
      <trkpt lat="47.99471" lon="-0.40115">
        <ele>75.4</ele>
        <time>2023-10-07T10:46:04Z</time>
      </trkpt>
      <trkpt lat="47.99468" lon="-0.40115">
        <ele>75.4</ele>
        <time>2023-10-07T10:46:05Z</time>
      </trkpt>
      <trkpt lat="47.99465" lon="-0.40115">
        <ele>75.4</ele>
        <time>2023-10-07T10:46:06Z</time>
      </trkpt>
      <trkpt lat="47.99463" lon="-0.40115">
        <ele>75.4</ele>
        <time>2023-10-07T10:46:07Z</time>
      </trkpt>
      <trkpt lat="47.9946" lon="-0.40116">
        <ele>74.4</ele>
        <time>2023-10-07T10:46:08Z</time>
      </trkpt>
      <trkpt lat="47.99458" lon="-0.40116">
        <ele>74.2</ele>
        <time>2023-10-07T10:46:09Z</time>
      </trkpt>
      <trkpt lat="47.99456" lon="-0.40116">
        <ele>74.2</ele>
        <time>2023-10-07T10:46:10Z</time>
      </trkpt>
      <trkpt lat="47.99455" lon="-0.40116">
        <ele>74.2</ele>
        <time>2023-10-07T10:46:11Z</time>
      </trkpt>
      <trkpt lat="47.99453" lon="-0.40115">
        <ele>73.4</ele>
        <time>2023-10-07T10:46:12Z</time>
      </trkpt>
      <trkpt lat="47.99452" lon="-0.40115">
        <ele>73.2</ele>
        <time>2023-10-07T10:46:13Z</time>
      </trkpt>
      <trkpt lat="47.9945" lon="-0.40114">
        <ele>73.2</ele>
        <time>2023-10-07T10:46:14Z</time>
      </trkpt>
      <trkpt lat="47.99448" lon="-0.40113">
        <ele>73.2</ele>
        <time>2023-10-07T10:46:15Z</time>
      </trkpt>
      <trkpt lat="47.99445" lon="-0.40111">
        <ele>72.2</ele>
        <time>2023-10-07T10:46:16Z</time>
      </trkpt>
      <trkpt lat="47.99444" lon="-0.40108">
        <ele>71.2</ele>
        <time>2023-10-07T10:46:17Z</time>
      </trkpt>
      <trkpt lat="47.99443" lon="-0.40104">
        <ele>71.2</ele>
        <time>2023-10-07T10:46:18Z</time>
      </trkpt>
      <trkpt lat="47.99441" lon="-0.40099">
        <ele>71.2</ele>
        <time>2023-10-07T10:46:19Z</time>
      </trkpt>
      <trkpt lat="47.9944" lon="-0.40092">
        <ele>71.2</ele>
        <time>2023-10-07T10:46:20Z</time>
      </trkpt>
      <trkpt lat="47.99441" lon="-0.40085">
        <ele>68.4</ele>
        <time>2023-10-07T10:46:21Z</time>
      </trkpt>
      <trkpt lat="47.99443" lon="-0.40081">
        <ele>68.4</ele>
        <time>2023-10-07T10:46:22Z</time>
      </trkpt>
      <trkpt lat="47.99446" lon="-0.40079">
        <ele>68.4</ele>
        <time>2023-10-07T10:46:23Z</time>
      </trkpt>
      <trkpt lat="47.99449" lon="-0.40076">
        <ele>68.2</ele>
        <time>2023-10-07T10:46:24Z</time>
      </trkpt>
      <trkpt lat="47.99452" lon="-0.40073">
        <ele>67.6</ele>
        <time>2023-10-07T10:46:25Z</time>
      </trkpt>
      <trkpt lat="47.99454" lon="-0.4007">
        <ele>67.6</ele>
        <time>2023-10-07T10:46:26Z</time>
      </trkpt>
      <trkpt lat="47.99457" lon="-0.40066">
        <ele>67.6</ele>
        <time>2023-10-07T10:46:27Z</time>
      </trkpt>
      <trkpt lat="47.9946" lon="-0.40063">
        <ele>67.6</ele>
        <time>2023-10-07T10:46:28Z</time>
      </trkpt>
      <trkpt lat="47.99463" lon="-0.40059">
        <ele>68.4</ele>
        <time>2023-10-07T10:46:29Z</time>
      </trkpt>
      <trkpt lat="47.99467" lon="-0.40056">
        <ele>68.4</ele>
        <time>2023-10-07T10:46:30Z</time>
      </trkpt>
      <trkpt lat="47.9947" lon="-0.40054">
        <ele>68.4</ele>
        <time>2023-10-07T10:46:31Z</time>
      </trkpt>
      <trkpt lat="47.99474" lon="-0.40051">
        <ele>68.4</ele>
        <time>2023-10-07T10:46:32Z</time>
      </trkpt>
      <trkpt lat="47.99478" lon="-0.40047">
        <ele>67.6</ele>
        <time>2023-10-07T10:46:33Z</time>
      </trkpt>
      <trkpt lat="47.99481" lon="-0.40045">
        <ele>67.6</ele>
        <time>2023-10-07T10:46:34Z</time>
      </trkpt>
      <trkpt lat="47.99485" lon="-0.40042">
        <ele>67.6</ele>
        <time>2023-10-07T10:46:35Z</time>
      </trkpt>
      <trkpt lat="47.99488" lon="-0.4004">
        <ele>68.6</ele>
        <time>2023-10-07T10:46:36Z</time>
      </trkpt>
      <trkpt lat="47.99491" lon="-0.40037">
        <ele>72</ele>
        <time>2023-10-07T10:46:37Z</time>
      </trkpt>
      <trkpt lat="47.99495" lon="-0.40034">
        <ele>72</ele>
        <time>2023-10-07T10:46:38Z</time>
      </trkpt>
      <trkpt lat="47.99498" lon="-0.40032">
        <ele>72</ele>
        <time>2023-10-07T10:46:39Z</time>
      </trkpt>
      <trkpt lat="47.99502" lon="-0.4003">
        <ele>71</ele>
        <time>2023-10-07T10:46:40Z</time>
      </trkpt>
      <trkpt lat="47.99504" lon="-0.40027">
        <ele>72.2</ele>
        <time>2023-10-07T10:46:41Z</time>
      </trkpt>
      <trkpt lat="47.99507" lon="-0.40024">
        <ele>72.2</ele>
        <time>2023-10-07T10:46:42Z</time>
      </trkpt>
      <trkpt lat="47.9951" lon="-0.40021">
        <ele>72.2</ele>
        <time>2023-10-07T10:46:43Z</time>
      </trkpt>
      <trkpt lat="47.99513" lon="-0.40018">
        <ele>72.6</ele>
        <time>2023-10-07T10:46:44Z</time>
      </trkpt>
      <trkpt lat="47.99516" lon="-0.40015">
        <ele>72.8</ele>
        <time>2023-10-07T10:46:45Z</time>
      </trkpt>
      <trkpt lat="47.99519" lon="-0.40013">
        <ele>72.8</ele>
        <time>2023-10-07T10:46:46Z</time>
      </trkpt>
      <trkpt lat="47.99521" lon="-0.4001">
        <ele>72.8</ele>
        <time>2023-10-07T10:46:47Z</time>
      </trkpt>
      <trkpt lat="47.99524" lon="-0.40008">
        <ele>73.8</ele>
        <time>2023-10-07T10:46:48Z</time>
      </trkpt>
      <trkpt lat="47.99527" lon="-0.40007">
        <ele>75</ele>
        <time>2023-10-07T10:46:49Z</time>
      </trkpt>
      <trkpt lat="47.9953" lon="-0.40005">
        <ele>75</ele>
        <time>2023-10-07T10:46:50Z</time>
      </trkpt>
      <trkpt lat="47.99533" lon="-0.40004">
        <ele>75</ele>
        <time>2023-10-07T10:46:51Z</time>
      </trkpt>
      <trkpt lat="47.99537" lon="-0.40004">
        <ele>75</ele>
        <time>2023-10-07T10:46:52Z</time>
      </trkpt>
      <trkpt lat="47.9954" lon="-0.40004">
        <ele>76.6</ele>
        <time>2023-10-07T10:46:53Z</time>
      </trkpt>
      <trkpt lat="47.99543" lon="-0.40006">
        <ele>76.6</ele>
        <time>2023-10-07T10:46:54Z</time>
      </trkpt>
      <trkpt lat="47.99546" lon="-0.40007">
        <ele>76.6</ele>
        <time>2023-10-07T10:46:55Z</time>
      </trkpt>
      <trkpt lat="47.9955" lon="-0.40009">
        <ele>76.6</ele>
        <time>2023-10-07T10:46:56Z</time>
      </trkpt>
      <trkpt lat="47.99552" lon="-0.4001">
        <ele>77.6</ele>
        <time>2023-10-07T10:46:57Z</time>
      </trkpt>
      <trkpt lat="47.99555" lon="-0.40012">
        <ele>77.6</ele>
        <time>2023-10-07T10:46:58Z</time>
      </trkpt>
      <trkpt lat="47.99557" lon="-0.40014">
        <ele>77.6</ele>
        <time>2023-10-07T10:46:59Z</time>
      </trkpt>
      <trkpt lat="47.9956" lon="-0.40016">
        <ele>78.4</ele>
        <time>2023-10-07T10:47:00Z</time>
      </trkpt>
      <trkpt lat="47.99562" lon="-0.40019">
        <ele>79</ele>
        <time>2023-10-07T10:47:01Z</time>
      </trkpt>
      <trkpt lat="47.99564" lon="-0.40021">
        <ele>79</ele>
        <time>2023-10-07T10:47:02Z</time>
      </trkpt>
      <trkpt lat="47.99567" lon="-0.40023">
        <ele>79</ele>
        <time>2023-10-07T10:47:03Z</time>
      </trkpt>
      <trkpt lat="47.99569" lon="-0.40026">
        <ele>79</ele>
        <time>2023-10-07T10:47:04Z</time>
      </trkpt>
      <trkpt lat="47.99571" lon="-0.40029">
        <ele>80</ele>
        <time>2023-10-07T10:47:05Z</time>
      </trkpt>
      <trkpt lat="47.99573" lon="-0.40031">
        <ele>80</ele>
        <time>2023-10-07T10:47:06Z</time>
      </trkpt>
      <trkpt lat="47.99575" lon="-0.40034">
        <ele>80</ele>
        <time>2023-10-07T10:47:07Z</time>
      </trkpt>
      <trkpt lat="47.99577" lon="-0.40037">
        <ele>80</ele>
        <time>2023-10-07T10:47:08Z</time>
      </trkpt>
      <trkpt lat="47.9958" lon="-0.40039">
        <ele>80</ele>
        <time>2023-10-07T10:47:09Z</time>
      </trkpt>
      <trkpt lat="47.99582" lon="-0.40042">
        <ele>80</ele>
        <time>2023-10-07T10:47:10Z</time>
      </trkpt>
      <trkpt lat="47.99583" lon="-0.40045">
        <ele>80</ele>
        <time>2023-10-07T10:47:11Z</time>
      </trkpt>
      <trkpt lat="47.99585" lon="-0.40048">
        <ele>81</ele>
        <time>2023-10-07T10:47:12Z</time>
      </trkpt>
      <trkpt lat="47.99588" lon="-0.4005">
        <ele>81.8</ele>
        <time>2023-10-07T10:47:13Z</time>
      </trkpt>
      <trkpt lat="47.9959" lon="-0.40052">
        <ele>81.8</ele>
        <time>2023-10-07T10:47:14Z</time>
      </trkpt>
      <trkpt lat="47.99593" lon="-0.40054">
        <ele>81.8</ele>
        <time>2023-10-07T10:47:15Z</time>
      </trkpt>
      <trkpt lat="47.99595" lon="-0.40056">
        <ele>82.8</ele>
        <time>2023-10-07T10:47:16Z</time>
      </trkpt>
      <trkpt lat="47.99597" lon="-0.40059">
        <ele>83</ele>
        <time>2023-10-07T10:47:17Z</time>
      </trkpt>
      <trkpt lat="47.99599" lon="-0.40062">
        <ele>83</ele>
        <time>2023-10-07T10:47:18Z</time>
      </trkpt>
      <trkpt lat="47.99601" lon="-0.40064">
        <ele>83</ele>
        <time>2023-10-07T10:47:19Z</time>
      </trkpt>
      <trkpt lat="47.99603" lon="-0.40067">
        <ele>83.8</ele>
        <time>2023-10-07T10:47:20Z</time>
      </trkpt>
      <trkpt lat="47.99605" lon="-0.4007">
        <ele>84.4</ele>
        <time>2023-10-07T10:47:21Z</time>
      </trkpt>
      <trkpt lat="47.99607" lon="-0.40072">
        <ele>84.4</ele>
        <time>2023-10-07T10:47:22Z</time>
      </trkpt>
      <trkpt lat="47.99609" lon="-0.40075">
        <ele>84.4</ele>
        <time>2023-10-07T10:47:23Z</time>
      </trkpt>
      <trkpt lat="47.99611" lon="-0.40077">
        <ele>84.4</ele>
        <time>2023-10-07T10:47:24Z</time>
      </trkpt>
      <trkpt lat="47.99611" lon="-0.40077">
        <ele>85.2</ele>
        <time>2023-10-07T10:47:25Z</time>
      </trkpt>
      <trkpt lat="47.99611" lon="-0.40077">
        <ele>85.2</ele>
        <time>2023-10-07T10:47:26Z</time>
      </trkpt>
      <trkpt lat="47.99621" lon="-0.40097">
        <ele>86.8</ele>
        <time>2023-10-07T11:23:21Z</time>
      </trkpt>
      <trkpt lat="47.99623" lon="-0.401">
        <ele>86.8</ele>
        <time>2023-10-07T11:23:22Z</time>
      </trkpt>
      <trkpt lat="47.99625" lon="-0.40102">
        <ele>86.8</ele>
        <time>2023-10-07T11:23:23Z</time>
      </trkpt>
      <trkpt lat="47.99627" lon="-0.40104">
        <ele>86.8</ele>
        <time>2023-10-07T11:23:24Z</time>
      </trkpt>
      <trkpt lat="47.99629" lon="-0.40106">
        <ele>87.6</ele>
        <time>2023-10-07T11:23:25Z</time>
      </trkpt>
      <trkpt lat="47.9963" lon="-0.40109">
        <ele>87.6</ele>
        <time>2023-10-07T11:23:26Z</time>
      </trkpt>
      <trkpt lat="47.99632" lon="-0.4011">
        <ele>87.6</ele>
        <time>2023-10-07T11:23:27Z</time>
      </trkpt>
      <trkpt lat="47.99634" lon="-0.40112">
        <ele>88</ele>
        <time>2023-10-07T11:23:28Z</time>
      </trkpt>
      <trkpt lat="47.99635" lon="-0.40114">
        <ele>88.6</ele>
        <time>2023-10-07T11:23:29Z</time>
      </trkpt>
      <trkpt lat="47.99637" lon="-0.40117">
        <ele>88.6</ele>
        <time>2023-10-07T11:23:30Z</time>
      </trkpt>
      <trkpt lat="47.9964" lon="-0.40119">
        <ele>88.6</ele>
        <time>2023-10-07T11:23:31Z</time>
      </trkpt>
      <trkpt lat="47.99642" lon="-0.40121">
        <ele>89.4</ele>
        <time>2023-10-07T11:23:32Z</time>
      </trkpt>
      <trkpt lat="47.99644" lon="-0.40124">
        <ele>89.2</ele>
        <time>2023-10-07T11:23:33Z</time>
      </trkpt>
      <trkpt lat="47.99647" lon="-0.40125">
        <ele>89.2</ele>
        <time>2023-10-07T11:23:34Z</time>
      </trkpt>
      <trkpt lat="47.99649" lon="-0.40127">
        <ele>89.2</ele>
        <time>2023-10-07T11:23:35Z</time>
      </trkpt>
      <trkpt lat="47.99652" lon="-0.40128">
        <ele>89.8</ele>
        <time>2023-10-07T11:23:36Z</time>
      </trkpt>
      <trkpt lat="47.99655" lon="-0.4013">
        <ele>89.8</ele>
        <time>2023-10-07T11:23:37Z</time>
      </trkpt>
      <trkpt lat="47.99658" lon="-0.40131">
        <ele>89.8</ele>
        <time>2023-10-07T11:23:38Z</time>
      </trkpt>
      <trkpt lat="47.9966" lon="-0.40132">
        <ele>89.8</ele>
        <time>2023-10-07T11:23:39Z</time>
      </trkpt>
      <trkpt lat="47.99663" lon="-0.40133">
        <ele>90.6</ele>
        <time>2023-10-07T11:23:40Z</time>
      </trkpt>
      <trkpt lat="47.99666" lon="-0.40134">
        <ele>90.6</ele>
        <time>2023-10-07T11:23:41Z</time>
      </trkpt>
      <trkpt lat="47.99668" lon="-0.40134">
        <ele>90.6</ele>
        <time>2023-10-07T11:23:42Z</time>
      </trkpt>
      <trkpt lat="47.99671" lon="-0.40134">
        <ele>90.6</ele>
        <time>2023-10-07T11:23:43Z</time>
      </trkpt>
      <trkpt lat="47.99674" lon="-0.40134">
        <ele>91.6</ele>
        <time>2023-10-07T11:23:44Z</time>
      </trkpt>
      <trkpt lat="47.99677" lon="-0.40133">
        <ele>91.4</ele>
        <time>2023-10-07T11:23:45Z</time>
      </trkpt>
      <trkpt lat="47.9968" lon="-0.40132">
        <ele>91.4</ele>
        <time>2023-10-07T11:23:46Z</time>
      </trkpt>
      <trkpt lat="47.99683" lon="-0.4013">
        <ele>91.4</ele>
        <time>2023-10-07T11:23:47Z</time>
      </trkpt>
      <trkpt lat="47.99686" lon="-0.40129">
        <ele>91.8</ele>
        <time>2023-10-07T11:23:48Z</time>
      </trkpt>
      <trkpt lat="47.9969" lon="-0.40128">
        <ele>92.8</ele>
        <time>2023-10-07T11:23:49Z</time>
      </trkpt>
      <trkpt lat="47.99693" lon="-0.40126">
        <ele>92.8</ele>
        <time>2023-10-07T11:23:50Z</time>
      </trkpt>
      <trkpt lat="47.99697" lon="-0.40124">
        <ele>92.8</ele>
        <time>2023-10-07T11:23:51Z</time>
      </trkpt>
      <trkpt lat="47.997" lon="-0.40122">
        <ele>92.4</ele>
        <time>2023-10-07T11:23:52Z</time>
      </trkpt>
      <trkpt lat="47.99704" lon="-0.4012">
        <ele>93</ele>
        <time>2023-10-07T11:23:53Z</time>
      </trkpt>
      <trkpt lat="47.99707" lon="-0.40118">
        <ele>93</ele>
        <time>2023-10-07T11:23:54Z</time>
      </trkpt>
      <trkpt lat="47.99711" lon="-0.40117">
        <ele>93</ele>
        <time>2023-10-07T11:23:55Z</time>
      </trkpt>
      <trkpt lat="47.99715" lon="-0.40115">
        <ele>93</ele>
        <time>2023-10-07T11:23:56Z</time>
      </trkpt>
      <trkpt lat="47.99718" lon="-0.40113">
        <ele>94.2</ele>
        <time>2023-10-07T11:23:57Z</time>
      </trkpt>
      <trkpt lat="47.99722" lon="-0.40111">
        <ele>94.2</ele>
        <time>2023-10-07T11:23:58Z</time>
      </trkpt>
      <trkpt lat="47.99725" lon="-0.4011">
        <ele>94.2</ele>
        <time>2023-10-07T11:23:59Z</time>
      </trkpt>
      <trkpt lat="47.99729" lon="-0.40108">
        <ele>94.4</ele>
        <time>2023-10-07T11:24:00Z</time>
      </trkpt>
      <trkpt lat="47.99733" lon="-0.40106">
        <ele>94.6</ele>
        <time>2023-10-07T11:24:01Z</time>
      </trkpt>
      <trkpt lat="47.99736" lon="-0.40104">
        <ele>94.6</ele>
        <time>2023-10-07T11:24:02Z</time>
      </trkpt>
      <trkpt lat="47.9974" lon="-0.40102">
        <ele>94.6</ele>
        <time>2023-10-07T11:24:03Z</time>
      </trkpt>
      <trkpt lat="47.99743" lon="-0.401">
        <ele>95.6</ele>
        <time>2023-10-07T11:24:04Z</time>
      </trkpt>
      <trkpt lat="47.99747" lon="-0.40098">
        <ele>95.6</ele>
        <time>2023-10-07T11:24:05Z</time>
      </trkpt>
      <trkpt lat="47.9975" lon="-0.40096">
        <ele>95.6</ele>
        <time>2023-10-07T11:24:06Z</time>
      </trkpt>
      <trkpt lat="47.99754" lon="-0.40095">
        <ele>95.6</ele>
        <time>2023-10-07T11:24:07Z</time>
      </trkpt>
      <trkpt lat="47.99758" lon="-0.40093">
        <ele>96</ele>
        <time>2023-10-07T11:24:08Z</time>
      </trkpt>
      <trkpt lat="47.99761" lon="-0.40091">
        <ele>96.2</ele>
        <time>2023-10-07T11:24:09Z</time>
      </trkpt>
      <trkpt lat="47.99765" lon="-0.40089">
        <ele>96.2</ele>
        <time>2023-10-07T11:24:10Z</time>
      </trkpt>
      <trkpt lat="47.99768" lon="-0.40087">
        <ele>96.2</ele>
        <time>2023-10-07T11:24:11Z</time>
      </trkpt>
      <trkpt lat="47.99772" lon="-0.40086">
        <ele>96.2</ele>
        <time>2023-10-07T11:24:12Z</time>
      </trkpt>
      <trkpt lat="47.99775" lon="-0.40085">
        <ele>97</ele>
        <time>2023-10-07T11:24:13Z</time>
      </trkpt>
      <trkpt lat="47.99779" lon="-0.40083">
        <ele>97</ele>
        <time>2023-10-07T11:24:14Z</time>
      </trkpt>
      <trkpt lat="47.99782" lon="-0.40082">
        <ele>97</ele>
        <time>2023-10-07T11:24:15Z</time>
      </trkpt>
      <trkpt lat="47.99785" lon="-0.40079">
        <ele>98</ele>
        <time>2023-10-07T11:24:16Z</time>
      </trkpt>
      <trkpt lat="47.99788" lon="-0.40077">
        <ele>97.8</ele>
        <time>2023-10-07T11:24:17Z</time>
      </trkpt>
      <trkpt lat="47.99792" lon="-0.40076">
        <ele>97.8</ele>
        <time>2023-10-07T11:24:18Z</time>
      </trkpt>
      <trkpt lat="47.99795" lon="-0.40074">
        <ele>97.8</ele>
        <time>2023-10-07T11:24:19Z</time>
      </trkpt>
      <trkpt lat="47.99798" lon="-0.40072">
        <ele>98.4</ele>
        <time>2023-10-07T11:24:20Z</time>
      </trkpt>
      <trkpt lat="47.99802" lon="-0.40071">
        <ele>98.4</ele>
        <time>2023-10-07T11:24:21Z</time>
      </trkpt>
      <trkpt lat="47.99805" lon="-0.40069">
        <ele>98.4</ele>
        <time>2023-10-07T11:24:22Z</time>
      </trkpt>
      <trkpt lat="47.99809" lon="-0.40067">
        <ele>98.4</ele>
        <time>2023-10-07T11:24:23Z</time>
      </trkpt>
      <trkpt lat="47.99812" lon="-0.40066">
        <ele>98.4</ele>
        <time>2023-10-07T11:24:24Z</time>
      </trkpt>
      <trkpt lat="47.99815" lon="-0.40064">
        <ele>99.2</ele>
        <time>2023-10-07T11:24:25Z</time>
      </trkpt>
      <trkpt lat="47.99819" lon="-0.40062">
        <ele>99.2</ele>
        <time>2023-10-07T11:24:26Z</time>
      </trkpt>
      <trkpt lat="47.99822" lon="-0.4006">
        <ele>99.2</ele>
        <time>2023-10-07T11:24:27Z</time>
      </trkpt>
      <trkpt lat="47.99826" lon="-0.40059">
        <ele>99.2</ele>
        <time>2023-10-07T11:24:28Z</time>
      </trkpt>
      <trkpt lat="47.99829" lon="-0.40057">
        <ele>100.2</ele>
        <time>2023-10-07T11:24:29Z</time>
      </trkpt>
      <trkpt lat="47.99832" lon="-0.40055">
        <ele>100.2</ele>
        <time>2023-10-07T11:24:30Z</time>
      </trkpt>
      <trkpt lat="47.99836" lon="-0.40054">
        <ele>100.2</ele>
        <time>2023-10-07T11:24:31Z</time>
      </trkpt>
      <trkpt lat="47.99839" lon="-0.40053">
        <ele>100.2</ele>
        <time>2023-10-07T11:24:32Z</time>
      </trkpt>
      <trkpt lat="47.99843" lon="-0.40051">
        <ele>100.2</ele>
        <time>2023-10-07T11:24:33Z</time>
      </trkpt>
      <trkpt lat="47.99846" lon="-0.4005">
        <ele>100.2</ele>
        <time>2023-10-07T11:24:34Z</time>
      </trkpt>
      <trkpt lat="47.9985" lon="-0.40048">
        <ele>100.2</ele>
        <time>2023-10-07T11:24:35Z</time>
      </trkpt>
      <trkpt lat="47.99853" lon="-0.40046">
        <ele>100.6</ele>
        <time>2023-10-07T11:24:36Z</time>
      </trkpt>
      <trkpt lat="47.99857" lon="-0.40045">
        <ele>100.4</ele>
        <time>2023-10-07T11:24:37Z</time>
      </trkpt>
      <trkpt lat="47.99861" lon="-0.40044">
        <ele>100.4</ele>
        <time>2023-10-07T11:24:38Z</time>
      </trkpt>
      <trkpt lat="47.99864" lon="-0.40042">
        <ele>100.4</ele>
        <time>2023-10-07T11:24:39Z</time>
      </trkpt>
      <trkpt lat="47.99868" lon="-0.40041">
        <ele>100.4</ele>
        <time>2023-10-07T11:24:40Z</time>
      </trkpt>
      <trkpt lat="47.99872" lon="-0.4004">
        <ele>100.6</ele>
        <time>2023-10-07T11:24:41Z</time>
      </trkpt>
      <trkpt lat="47.99876" lon="-0.40039">
        <ele>100.6</ele>
        <time>2023-10-07T11:24:42Z</time>
      </trkpt>
      <trkpt lat="47.9988" lon="-0.40038">
        <ele>100.6</ele>
        <time>2023-10-07T11:24:43Z</time>
      </trkpt>
      <trkpt lat="47.99884" lon="-0.40037">
        <ele>100.8</ele>
        <time>2023-10-07T11:24:44Z</time>
      </trkpt>
      <trkpt lat="47.99888" lon="-0.40036">
        <ele>100.8</ele>
        <time>2023-10-07T11:24:45Z</time>
      </trkpt>
      <trkpt lat="47.99892" lon="-0.40035">
        <ele>100.8</ele>
        <time>2023-10-07T11:24:46Z</time>
      </trkpt>
      <trkpt lat="47.99896" lon="-0.40034">
        <ele>100.8</ele>
        <time>2023-10-07T11:24:47Z</time>
      </trkpt>
      <trkpt lat="47.999" lon="-0.40033">
        <ele>100.6</ele>
        <time>2023-10-07T11:24:48Z</time>
      </trkpt>
      <trkpt lat="47.99904" lon="-0.40033">
        <ele>101.2</ele>
        <time>2023-10-07T11:24:49Z</time>
      </trkpt>
      <trkpt lat="47.99909" lon="-0.40032">
        <ele>101.2</ele>
        <time>2023-10-07T11:24:50Z</time>
      </trkpt>
      <trkpt lat="47.99913" lon="-0.40032">
        <ele>101.2</ele>
        <time>2023-10-07T11:24:51Z</time>
      </trkpt>
      <trkpt lat="47.99917" lon="-0.40032">
        <ele>101.2</ele>
        <time>2023-10-07T11:24:52Z</time>
      </trkpt>
      <trkpt lat="47.99921" lon="-0.40032">
        <ele>100.6</ele>
        <time>2023-10-07T11:24:53Z</time>
      </trkpt>
      <trkpt lat="47.99926" lon="-0.40031">
        <ele>100.6</ele>
        <time>2023-10-07T11:24:54Z</time>
      </trkpt>
      <trkpt lat="47.99931" lon="-0.40031">
        <ele>100.6</ele>
        <time>2023-10-07T11:24:55Z</time>
      </trkpt>
      <trkpt lat="47.99935" lon="-0.40031">
        <ele>100.6</ele>
        <time>2023-10-07T11:24:56Z</time>
      </trkpt>
      <trkpt lat="47.9994" lon="-0.40031">
        <ele>100.6</ele>
        <time>2023-10-07T11:24:57Z</time>
      </trkpt>
      <trkpt lat="47.99945" lon="-0.40031">
        <ele>100.6</ele>
        <time>2023-10-07T11:24:58Z</time>
      </trkpt>
      <trkpt lat="47.9995" lon="-0.40031">
        <ele>100.6</ele>
        <time>2023-10-07T11:24:59Z</time>
      </trkpt>
      <trkpt lat="47.99956" lon="-0.40031">
        <ele>99.6</ele>
        <time>2023-10-07T11:25:00Z</time>
      </trkpt>
      <trkpt lat="47.99961" lon="-0.40031">
        <ele>99.2</ele>
        <time>2023-10-07T11:25:01Z</time>
      </trkpt>
      <trkpt lat="47.99967" lon="-0.40031">
        <ele>99.2</ele>
        <time>2023-10-07T11:25:02Z</time>
      </trkpt>
      <trkpt lat="47.99973" lon="-0.40031">
        <ele>99.2</ele>
        <time>2023-10-07T11:25:03Z</time>
      </trkpt>
      <trkpt lat="47.99979" lon="-0.40031">
        <ele>98.2</ele>
        <time>2023-10-07T11:25:04Z</time>
      </trkpt>
      <trkpt lat="47.99986" lon="-0.40031">
        <ele>98.4</ele>
        <time>2023-10-07T11:25:05Z</time>
      </trkpt>
      <trkpt lat="47.99992" lon="-0.40031">
        <ele>98.4</ele>
        <time>2023-10-07T11:25:06Z</time>
      </trkpt>
      <trkpt lat="47.99999" lon="-0.40031">
        <ele>98.4</ele>
        <time>2023-10-07T11:25:07Z</time>
      </trkpt>
      <trkpt lat="48.00006" lon="-0.40031">
        <ele>97.4</ele>
        <time>2023-10-07T11:25:08Z</time>
      </trkpt>
      <trkpt lat="48.00013" lon="-0.40032">
        <ele>95.8</ele>
        <time>2023-10-07T11:25:09Z</time>
      </trkpt>
      <trkpt lat="48.0002" lon="-0.40032">
        <ele>95.8</ele>
        <time>2023-10-07T11:25:10Z</time>
      </trkpt>
      <trkpt lat="48.00027" lon="-0.40031">
        <ele>95.8</ele>
        <time>2023-10-07T11:25:11Z</time>
      </trkpt>
      <trkpt lat="48.00034" lon="-0.40031">
        <ele>94.8</ele>
        <time>2023-10-07T11:25:12Z</time>
      </trkpt>
      <trkpt lat="48.00042" lon="-0.40031">
        <ele>93.4</ele>
        <time>2023-10-07T11:25:13Z</time>
      </trkpt>
      <trkpt lat="48.0005" lon="-0.40031">
        <ele>93.4</ele>
        <time>2023-10-07T11:25:14Z</time>
      </trkpt>
      <trkpt lat="48.00057" lon="-0.40031">
        <ele>93.4</ele>
        <time>2023-10-07T11:25:15Z</time>
      </trkpt>
      <trkpt lat="48.00065" lon="-0.40031">
        <ele>93.4</ele>
        <time>2023-10-07T11:25:16Z</time>
      </trkpt>
      <trkpt lat="48.00073" lon="-0.40031">
        <ele>93.6</ele>
        <time>2023-10-07T11:25:17Z</time>
      </trkpt>
      <trkpt lat="48.00081" lon="-0.40031">
        <ele>93.6</ele>
        <time>2023-10-07T11:25:18Z</time>
      </trkpt>
      <trkpt lat="48.00088" lon="-0.40031">
        <ele>93.6</ele>
        <time>2023-10-07T11:25:19Z</time>
      </trkpt>
      <trkpt lat="48.00095" lon="-0.40032">
        <ele>92.6</ele>
        <time>2023-10-07T11:25:20Z</time>
      </trkpt>
      <trkpt lat="48.00102" lon="-0.40032">
        <ele>93.4</ele>
        <time>2023-10-07T11:25:21Z</time>
      </trkpt>
      <trkpt lat="48.00109" lon="-0.40032">
        <ele>93.4</ele>
        <time>2023-10-07T11:25:22Z</time>
      </trkpt>
      <trkpt lat="48.00115" lon="-0.40031">
        <ele>93.4</ele>
        <time>2023-10-07T11:25:23Z</time>
      </trkpt>
      <trkpt lat="48.0012" lon="-0.4003">
        <ele>94.4</ele>
        <time>2023-10-07T11:25:24Z</time>
      </trkpt>
      <trkpt lat="48.00126" lon="-0.4003">
        <ele>95.2</ele>
        <time>2023-10-07T11:25:25Z</time>
      </trkpt>
      <trkpt lat="48.00131" lon="-0.40029">
        <ele>95.2</ele>
        <time>2023-10-07T11:25:26Z</time>
      </trkpt>
      <trkpt lat="48.00135" lon="-0.40028">
        <ele>95.2</ele>
        <time>2023-10-07T11:25:27Z</time>
      </trkpt>
      <trkpt lat="48.0014" lon="-0.40027">
        <ele>95.2</ele>
        <time>2023-10-07T11:25:28Z</time>
      </trkpt>
      <trkpt lat="48.00145" lon="-0.40026">
        <ele>96.6</ele>
        <time>2023-10-07T11:25:29Z</time>
      </trkpt>
      <trkpt lat="48.00149" lon="-0.40024">
        <ele>96.6</ele>
        <time>2023-10-07T11:25:30Z</time>
      </trkpt>
      <trkpt lat="48.00153" lon="-0.40022">
        <ele>96.6</ele>
        <time>2023-10-07T11:25:31Z</time>
      </trkpt>
      <trkpt lat="48.00157" lon="-0.4002">
        <ele>96.6</ele>
        <time>2023-10-07T11:25:32Z</time>
      </trkpt>
      <trkpt lat="48.00161" lon="-0.40021">
        <ele>97.4</ele>
        <time>2023-10-07T11:25:33Z</time>
      </trkpt>
      <trkpt lat="48.00164" lon="-0.40023">
        <ele>97.4</ele>
        <time>2023-10-07T11:25:34Z</time>
      </trkpt>
      <trkpt lat="48.00166" lon="-0.40027">
        <ele>97.4</ele>
        <time>2023-10-07T11:25:35Z</time>
      </trkpt>
      <trkpt lat="48.00167" lon="-0.40032">
        <ele>97.4</ele>
        <time>2023-10-07T11:25:36Z</time>
      </trkpt>
      <trkpt lat="48.00167" lon="-0.40038">
        <ele>100.6</ele>
        <time>2023-10-07T11:25:37Z</time>
      </trkpt>
      <trkpt lat="48.00166" lon="-0.40044">
        <ele>100.6</ele>
        <time>2023-10-07T11:25:38Z</time>
      </trkpt>
      <trkpt lat="48.00166" lon="-0.4005">
        <ele>100.6</ele>
        <time>2023-10-07T11:25:39Z</time>
      </trkpt>
      <trkpt lat="48.00167" lon="-0.40057">
        <ele>99.6</ele>
        <time>2023-10-07T11:25:40Z</time>
      </trkpt>
      <trkpt lat="48.00167" lon="-0.40063">
        <ele>98.4</ele>
        <time>2023-10-07T11:25:41Z</time>
      </trkpt>
      <trkpt lat="48.00168" lon="-0.40069">
        <ele>98.4</ele>
        <time>2023-10-07T11:25:42Z</time>
      </trkpt>
      <trkpt lat="48.00169" lon="-0.40075">
        <ele>98.4</ele>
        <time>2023-10-07T11:25:43Z</time>
      </trkpt>
      <trkpt lat="48.0017" lon="-0.4008">
        <ele>98.4</ele>
        <time>2023-10-07T11:25:44Z</time>
      </trkpt>
      <trkpt lat="48.00171" lon="-0.40085">
        <ele>99.4</ele>
        <time>2023-10-07T11:25:45Z</time>
      </trkpt>
      <trkpt lat="48.00172" lon="-0.4009">
        <ele>99.4</ele>
        <time>2023-10-07T11:25:46Z</time>
      </trkpt>
      <trkpt lat="48.00173" lon="-0.40094">
        <ele>99.4</ele>
        <time>2023-10-07T11:25:47Z</time>
      </trkpt>
      <trkpt lat="48.00174" lon="-0.40098">
        <ele>99.4</ele>
        <time>2023-10-07T11:25:48Z</time>
      </trkpt>
      <trkpt lat="48.00174" lon="-0.40104">
        <ele>101</ele>
        <time>2023-10-07T11:25:49Z</time>
      </trkpt>
      <trkpt lat="48.00175" lon="-0.4011">
        <ele>101</ele>
        <time>2023-10-07T11:25:50Z</time>
      </trkpt>
      <trkpt lat="48.00176" lon="-0.40117">
        <ele>101</ele>
        <time>2023-10-07T11:25:51Z</time>
      </trkpt>
      <trkpt lat="48.00176" lon="-0.40123">
        <ele>100.6</ele>
        <time>2023-10-07T11:25:52Z</time>
      </trkpt>
      <trkpt lat="48.00177" lon="-0.4013">
        <ele>101.2</ele>
        <time>2023-10-07T11:25:53Z</time>
      </trkpt>
      <trkpt lat="48.00178" lon="-0.40136">
        <ele>101.2</ele>
        <time>2023-10-07T11:25:54Z</time>
      </trkpt>
      <trkpt lat="48.0018" lon="-0.40143">
        <ele>101.2</ele>
        <time>2023-10-07T11:25:55Z</time>
      </trkpt>
      <trkpt lat="48.00181" lon="-0.40149">
        <ele>101.2</ele>
        <time>2023-10-07T11:25:56Z</time>
      </trkpt>
      <trkpt lat="48.00182" lon="-0.40155">
        <ele>102.8</ele>
        <time>2023-10-07T11:25:57Z</time>
      </trkpt>
      <trkpt lat="48.00184" lon="-0.40161">
        <ele>102.8</ele>
        <time>2023-10-07T11:25:58Z</time>
      </trkpt>
      <trkpt lat="48.00185" lon="-0.40167">
        <ele>102.8</ele>
        <time>2023-10-07T11:25:59Z</time>
      </trkpt>
      <trkpt lat="48.00186" lon="-0.40173">
        <ele>102.6</ele>
        <time>2023-10-07T11:26:00Z</time>
      </trkpt>
      <trkpt lat="48.00188" lon="-0.40179">
        <ele>102.4</ele>
        <time>2023-10-07T11:26:01Z</time>
      </trkpt>
      <trkpt lat="48.00189" lon="-0.40185">
        <ele>102.4</ele>
        <time>2023-10-07T11:26:02Z</time>
      </trkpt>
      <trkpt lat="48.00191" lon="-0.40191">
        <ele>102.4</ele>
        <time>2023-10-07T11:26:03Z</time>
      </trkpt>
      <trkpt lat="48.00192" lon="-0.40197">
        <ele>103.2</ele>
        <time>2023-10-07T11:26:04Z</time>
      </trkpt>
      <trkpt lat="48.00193" lon="-0.40203">
        <ele>103.2</ele>
        <time>2023-10-07T11:26:05Z</time>
      </trkpt>
      <trkpt lat="48.00194" lon="-0.40209">
        <ele>103.2</ele>
        <time>2023-10-07T11:26:06Z</time>
      </trkpt>
      <trkpt lat="48.00196" lon="-0.40214">
        <ele>103.2</ele>
        <time>2023-10-07T11:26:07Z</time>
      </trkpt>
      <trkpt lat="48.00197" lon="-0.4022">
        <ele>103.2</ele>
        <time>2023-10-07T11:26:08Z</time>
      </trkpt>
      <trkpt lat="48.00199" lon="-0.40225">
        <ele>103.4</ele>
        <time>2023-10-07T11:26:09Z</time>
      </trkpt>
      <trkpt lat="48.002" lon="-0.4023">
        <ele>103.4</ele>
        <time>2023-10-07T11:26:10Z</time>
      </trkpt>
      <trkpt lat="48.00202" lon="-0.40236">
        <ele>103.4</ele>
        <time>2023-10-07T11:26:11Z</time>
      </trkpt>
      <trkpt lat="48.00204" lon="-0.40241">
        <ele>103.4</ele>
        <time>2023-10-07T11:26:12Z</time>
      </trkpt>
      <trkpt lat="48.00205" lon="-0.40247">
        <ele>103.2</ele>
        <time>2023-10-07T11:26:13Z</time>
      </trkpt>
      <trkpt lat="48.00207" lon="-0.40252">
        <ele>103.2</ele>
        <time>2023-10-07T11:26:14Z</time>
      </trkpt>
      <trkpt lat="48.00209" lon="-0.40258">
        <ele>103.2</ele>
        <time>2023-10-07T11:26:15Z</time>
      </trkpt>
      <trkpt lat="48.00211" lon="-0.40264">
        <ele>104.2</ele>
        <time>2023-10-07T11:26:16Z</time>
      </trkpt>
      <trkpt lat="48.00213" lon="-0.40269">
        <ele>104</ele>
        <time>2023-10-07T11:26:17Z</time>
      </trkpt>
      <trkpt lat="48.00215" lon="-0.40275">
        <ele>104</ele>
        <time>2023-10-07T11:26:18Z</time>
      </trkpt>
      <trkpt lat="48.00218" lon="-0.4028">
        <ele>104</ele>
        <time>2023-10-07T11:26:19Z</time>
      </trkpt>
      <trkpt lat="48.0022" lon="-0.40286">
        <ele>104.4</ele>
        <time>2023-10-07T11:26:20Z</time>
      </trkpt>
      <trkpt lat="48.00222" lon="-0.40292">
        <ele>104.8</ele>
        <time>2023-10-07T11:26:21Z</time>
      </trkpt>
      <trkpt lat="48.00224" lon="-0.40297">
        <ele>104.8</ele>
        <time>2023-10-07T11:26:22Z</time>
      </trkpt>
      <trkpt lat="48.00226" lon="-0.40302">
        <ele>104.8</ele>
        <time>2023-10-07T11:26:23Z</time>
      </trkpt>
      <trkpt lat="48.00229" lon="-0.40307">
        <ele>104.8</ele>
        <time>2023-10-07T11:26:24Z</time>
      </trkpt>
      <trkpt lat="48.00231" lon="-0.40313">
        <ele>104.4</ele>
        <time>2023-10-07T11:26:25Z</time>
      </trkpt>
      <trkpt lat="48.00234" lon="-0.40318">
        <ele>104.4</ele>
        <time>2023-10-07T11:26:26Z</time>
      </trkpt>
      <trkpt lat="48.00236" lon="-0.40324">
        <ele>104.4</ele>
        <time>2023-10-07T11:26:27Z</time>
      </trkpt>
      <trkpt lat="48.00239" lon="-0.40329">
        <ele>105.2</ele>
        <time>2023-10-07T11:26:28Z</time>
      </trkpt>
      <trkpt lat="48.00242" lon="-0.40334">
        <ele>104.6</ele>
        <time>2023-10-07T11:26:29Z</time>
      </trkpt>
      <trkpt lat="48.00245" lon="-0.4034">
        <ele>104.6</ele>
        <time>2023-10-07T11:26:30Z</time>
      </trkpt>
      <trkpt lat="48.00248" lon="-0.40346">
        <ele>104.6</ele>
        <time>2023-10-07T11:26:31Z</time>
      </trkpt>
      <trkpt lat="48.00251" lon="-0.40351">
        <ele>104.6</ele>
        <time>2023-10-07T11:26:32Z</time>
      </trkpt>
      <trkpt lat="48.00254" lon="-0.40357">
        <ele>105.6</ele>
        <time>2023-10-07T11:26:33Z</time>
      </trkpt>
      <trkpt lat="48.00258" lon="-0.40363">
        <ele>105.6</ele>
        <time>2023-10-07T11:26:34Z</time>
      </trkpt>
      <trkpt lat="48.0026" lon="-0.40369">
        <ele>105.6</ele>
        <time>2023-10-07T11:26:35Z</time>
      </trkpt>
      <trkpt lat="48.00263" lon="-0.40374">
        <ele>105.6</ele>
        <time>2023-10-07T11:26:36Z</time>
      </trkpt>
      <trkpt lat="48.00265" lon="-0.4038">
        <ele>104.8</ele>
        <time>2023-10-07T11:26:37Z</time>
      </trkpt>
      <trkpt lat="48.00267" lon="-0.40386">
        <ele>104.8</ele>
        <time>2023-10-07T11:26:38Z</time>
      </trkpt>
      <trkpt lat="48.00269" lon="-0.40393">
        <ele>104.8</ele>
        <time>2023-10-07T11:26:39Z</time>
      </trkpt>
      <trkpt lat="48.00271" lon="-0.40399">
        <ele>104.8</ele>
        <time>2023-10-07T11:26:40Z</time>
      </trkpt>
      <trkpt lat="48.00272" lon="-0.40406">
        <ele>106</ele>
        <time>2023-10-07T11:26:41Z</time>
      </trkpt>
      <trkpt lat="48.00274" lon="-0.40412">
        <ele>106</ele>
        <time>2023-10-07T11:26:42Z</time>
      </trkpt>
      <trkpt lat="48.00276" lon="-0.40419">
        <ele>106</ele>
        <time>2023-10-07T11:26:43Z</time>
      </trkpt>
      <trkpt lat="48.00278" lon="-0.40425">
        <ele>105.4</ele>
        <time>2023-10-07T11:26:44Z</time>
      </trkpt>
      <trkpt lat="48.00279" lon="-0.40432">
        <ele>105.2</ele>
        <time>2023-10-07T11:26:45Z</time>
      </trkpt>
      <trkpt lat="48.00281" lon="-0.40439">
        <ele>105.2</ele>
        <time>2023-10-07T11:26:46Z</time>
      </trkpt>
      <trkpt lat="48.00283" lon="-0.40445">
        <ele>105.2</ele>
        <time>2023-10-07T11:26:47Z</time>
      </trkpt>
      <trkpt lat="48.00285" lon="-0.40452">
        <ele>106.2</ele>
        <time>2023-10-07T11:26:48Z</time>
      </trkpt>
      <trkpt lat="48.00286" lon="-0.40458">
        <ele>108.2</ele>
        <time>2023-10-07T11:26:49Z</time>
      </trkpt>
      <trkpt lat="48.00288" lon="-0.40465">
        <ele>108.2</ele>
        <time>2023-10-07T11:26:50Z</time>
      </trkpt>
      <trkpt lat="48.0029" lon="-0.40471">
        <ele>108.2</ele>
        <time>2023-10-07T11:26:51Z</time>
      </trkpt>
      <trkpt lat="48.00291" lon="-0.40477">
        <ele>107.2</ele>
        <time>2023-10-07T11:26:52Z</time>
      </trkpt>
      <trkpt lat="48.00293" lon="-0.40484">
        <ele>106.8</ele>
        <time>2023-10-07T11:26:53Z</time>
      </trkpt>
      <trkpt lat="48.00295" lon="-0.4049">
        <ele>106.8</ele>
        <time>2023-10-07T11:26:54Z</time>
      </trkpt>
      <trkpt lat="48.00297" lon="-0.40496">
        <ele>106.8</ele>
        <time>2023-10-07T11:26:55Z</time>
      </trkpt>
      <trkpt lat="48.00299" lon="-0.40503">
        <ele>106.8</ele>
        <time>2023-10-07T11:26:56Z</time>
      </trkpt>
      <trkpt lat="48.00301" lon="-0.40509">
        <ele>106.4</ele>
        <time>2023-10-07T11:26:57Z</time>
      </trkpt>
      <trkpt lat="48.00303" lon="-0.40516">
        <ele>106.4</ele>
        <time>2023-10-07T11:26:58Z</time>
      </trkpt>
      <trkpt lat="48.00305" lon="-0.40522">
        <ele>106.4</ele>
        <time>2023-10-07T11:26:59Z</time>
      </trkpt>
      <trkpt lat="48.00307" lon="-0.40529">
        <ele>106.4</ele>
        <time>2023-10-07T11:27:00Z</time>
      </trkpt>
      <trkpt lat="48.00308" lon="-0.40535">
        <ele>105</ele>
        <time>2023-10-07T11:27:01Z</time>
      </trkpt>
      <trkpt lat="48.0031" lon="-0.40542">
        <ele>105</ele>
        <time>2023-10-07T11:27:02Z</time>
      </trkpt>
      <trkpt lat="48.00311" lon="-0.40549">
        <ele>105</ele>
        <time>2023-10-07T11:27:03Z</time>
      </trkpt>
      <trkpt lat="48.00312" lon="-0.40556">
        <ele>105.8</ele>
        <time>2023-10-07T11:27:04Z</time>
      </trkpt>
      <trkpt lat="48.00313" lon="-0.40562">
        <ele>106</ele>
        <time>2023-10-07T11:27:05Z</time>
      </trkpt>
      <trkpt lat="48.00314" lon="-0.4057">
        <ele>106</ele>
        <time>2023-10-07T11:27:06Z</time>
      </trkpt>
      <trkpt lat="48.00315" lon="-0.40576">
        <ele>106</ele>
        <time>2023-10-07T11:27:07Z</time>
      </trkpt>
      <trkpt lat="48.00316" lon="-0.40583">
        <ele>106</ele>
        <time>2023-10-07T11:27:08Z</time>
      </trkpt>
      <trkpt lat="48.00317" lon="-0.4059">
        <ele>107.4</ele>
        <time>2023-10-07T11:27:09Z</time>
      </trkpt>
      <trkpt lat="48.00317" lon="-0.40597">
        <ele>107.4</ele>
        <time>2023-10-07T11:27:10Z</time>
      </trkpt>
      <trkpt lat="48.00318" lon="-0.40604">
        <ele>107.4</ele>
        <time>2023-10-07T11:27:11Z</time>
      </trkpt>
      <trkpt lat="48.00318" lon="-0.40611">
        <ele>106.4</ele>
        <time>2023-10-07T11:27:12Z</time>
      </trkpt>
      <trkpt lat="48.00319" lon="-0.40618">
        <ele>106.4</ele>
        <time>2023-10-07T11:27:13Z</time>
      </trkpt>
      <trkpt lat="48.00319" lon="-0.40625">
        <ele>106.4</ele>
        <time>2023-10-07T11:27:14Z</time>
      </trkpt>
      <trkpt lat="48.0032" lon="-0.40633">
        <ele>106.4</ele>
        <time>2023-10-07T11:27:15Z</time>
      </trkpt>
      <trkpt lat="48.0032" lon="-0.4064">
        <ele>106.4</ele>
        <time>2023-10-07T11:27:16Z</time>
      </trkpt>
      <trkpt lat="48.00321" lon="-0.40648">
        <ele>105.8</ele>
        <time>2023-10-07T11:27:17Z</time>
      </trkpt>
      <trkpt lat="48.00322" lon="-0.40655">
        <ele>105.8</ele>
        <time>2023-10-07T11:27:18Z</time>
      </trkpt>
      <trkpt lat="48.00322" lon="-0.40663">
        <ele>105.8</ele>
        <time>2023-10-07T11:27:19Z</time>
      </trkpt>
      <trkpt lat="48.00322" lon="-0.4067">
        <ele>106.8</ele>
        <time>2023-10-07T11:27:20Z</time>
      </trkpt>
      <trkpt lat="48.00323" lon="-0.40677">
        <ele>106.2</ele>
        <time>2023-10-07T11:27:21Z</time>
      </trkpt>
      <trkpt lat="48.00323" lon="-0.40684">
        <ele>106.2</ele>
        <time>2023-10-07T11:27:22Z</time>
      </trkpt>
      <trkpt lat="48.00323" lon="-0.40692">
        <ele>106.2</ele>
        <time>2023-10-07T11:27:23Z</time>
      </trkpt>
      <trkpt lat="48.00323" lon="-0.40699">
        <ele>106.2</ele>
        <time>2023-10-07T11:27:24Z</time>
      </trkpt>
      <trkpt lat="48.00323" lon="-0.40707">
        <ele>105.8</ele>
        <time>2023-10-07T11:27:25Z</time>
      </trkpt>
      <trkpt lat="48.00323" lon="-0.40714">
        <ele>105.8</ele>
        <time>2023-10-07T11:27:26Z</time>
      </trkpt>
      <trkpt lat="48.00324" lon="-0.40721">
        <ele>105.8</ele>
        <time>2023-10-07T11:27:27Z</time>
      </trkpt>
      <trkpt lat="48.00327" lon="-0.40726">
        <ele>106.4</ele>
        <time>2023-10-07T11:27:28Z</time>
      </trkpt>
      <trkpt lat="48.0033" lon="-0.4073">
        <ele>106.6</ele>
        <time>2023-10-07T11:27:29Z</time>
      </trkpt>
      <trkpt lat="48.00335" lon="-0.40731">
        <ele>106.6</ele>
        <time>2023-10-07T11:27:30Z</time>
      </trkpt>
      <trkpt lat="48.00339" lon="-0.40732">
        <ele>106.6</ele>
        <time>2023-10-07T11:27:31Z</time>
      </trkpt>
      <trkpt lat="48.00344" lon="-0.40732">
        <ele>106.6</ele>
        <time>2023-10-07T11:27:32Z</time>
      </trkpt>
      <trkpt lat="48.00348" lon="-0.40733">
        <ele>107</ele>
        <time>2023-10-07T11:27:33Z</time>
      </trkpt>
      <trkpt lat="48.00353" lon="-0.40733">
        <ele>107</ele>
        <time>2023-10-07T11:27:34Z</time>
      </trkpt>
      <trkpt lat="48.00358" lon="-0.40733">
        <ele>107</ele>
        <time>2023-10-07T11:27:35Z</time>
      </trkpt>
      <trkpt lat="48.00363" lon="-0.40734">
        <ele>106.6</ele>
        <time>2023-10-07T11:27:36Z</time>
      </trkpt>
      <trkpt lat="48.00368" lon="-0.40734">
        <ele>105.6</ele>
        <time>2023-10-07T11:27:37Z</time>
      </trkpt>
      <trkpt lat="48.00373" lon="-0.40735">
        <ele>105.6</ele>
        <time>2023-10-07T11:27:38Z</time>
      </trkpt>
      <trkpt lat="48.00378" lon="-0.40736">
        <ele>105.6</ele>
        <time>2023-10-07T11:27:39Z</time>
      </trkpt>
      <trkpt lat="48.00383" lon="-0.40736">
        <ele>105.8</ele>
        <time>2023-10-07T11:27:40Z</time>
      </trkpt>
      <trkpt lat="48.00388" lon="-0.40737">
        <ele>105.2</ele>
        <time>2023-10-07T11:27:41Z</time>
      </trkpt>
      <trkpt lat="48.00393" lon="-0.40738">
        <ele>105.2</ele>
        <time>2023-10-07T11:27:42Z</time>
      </trkpt>
      <trkpt lat="48.00399" lon="-0.40738">
        <ele>105.2</ele>
        <time>2023-10-07T11:27:43Z</time>
      </trkpt>
      <trkpt lat="48.00404" lon="-0.40739">
        <ele>105.2</ele>
        <time>2023-10-07T11:27:44Z</time>
      </trkpt>
      <trkpt lat="48.0041" lon="-0.4074">
        <ele>104.8</ele>
        <time>2023-10-07T11:27:45Z</time>
      </trkpt>
      <trkpt lat="48.00416" lon="-0.40741">
        <ele>104.8</ele>
        <time>2023-10-07T11:27:46Z</time>
      </trkpt>
      <trkpt lat="48.00421" lon="-0.40741">
        <ele>104.8</ele>
        <time>2023-10-07T11:27:47Z</time>
      </trkpt>
      <trkpt lat="48.00427" lon="-0.40742">
        <ele>104.8</ele>
        <time>2023-10-07T11:27:48Z</time>
      </trkpt>
      <trkpt lat="48.00433" lon="-0.40743">
        <ele>104.6</ele>
        <time>2023-10-07T11:27:49Z</time>
      </trkpt>
      <trkpt lat="48.00439" lon="-0.40744">
        <ele>104.6</ele>
        <time>2023-10-07T11:27:50Z</time>
      </trkpt>
      <trkpt lat="48.00445" lon="-0.40745">
        <ele>104.6</ele>
        <time>2023-10-07T11:27:51Z</time>
      </trkpt>
      <trkpt lat="48.00451" lon="-0.40745">
        <ele>103.6</ele>
        <time>2023-10-07T11:27:52Z</time>
      </trkpt>
      <trkpt lat="48.00457" lon="-0.40746">
        <ele>103.2</ele>
        <time>2023-10-07T11:27:53Z</time>
      </trkpt>
      <trkpt lat="48.00463" lon="-0.40746">
        <ele>103.2</ele>
        <time>2023-10-07T11:27:54Z</time>
      </trkpt>
      <trkpt lat="48.0047" lon="-0.40747">
        <ele>103.2</ele>
        <time>2023-10-07T11:27:55Z</time>
      </trkpt>
      <trkpt lat="48.00476" lon="-0.40748">
        <ele>102.2</ele>
        <time>2023-10-07T11:27:56Z</time>
      </trkpt>
      <trkpt lat="48.00483" lon="-0.40749">
        <ele>102.2</ele>
        <time>2023-10-07T11:27:57Z</time>
      </trkpt>
      <trkpt lat="48.0049" lon="-0.40749">
        <ele>102.2</ele>
        <time>2023-10-07T11:27:58Z</time>
      </trkpt>
      <trkpt lat="48.00497" lon="-0.40749">
        <ele>102.2</ele>
        <time>2023-10-07T11:27:59Z</time>
      </trkpt>
      <trkpt lat="48.00504" lon="-0.40749">
        <ele>102.2</ele>
        <time>2023-10-07T11:28:00Z</time>
      </trkpt>
      <trkpt lat="48.00511" lon="-0.40749">
        <ele>100.6</ele>
        <time>2023-10-07T11:28:01Z</time>
      </trkpt>
      <trkpt lat="48.00519" lon="-0.40749">
        <ele>100.6</ele>
        <time>2023-10-07T11:28:02Z</time>
      </trkpt>
      <trkpt lat="48.00526" lon="-0.40748">
        <ele>100.6</ele>
        <time>2023-10-07T11:28:03Z</time>
      </trkpt>
      <trkpt lat="48.00533" lon="-0.40748">
        <ele>100.6</ele>
        <time>2023-10-07T11:28:04Z</time>
      </trkpt>
      <trkpt lat="48.00541" lon="-0.40747">
        <ele>99.6</ele>
        <time>2023-10-07T11:28:05Z</time>
      </trkpt>
      <trkpt lat="48.00548" lon="-0.40746">
        <ele>99.6</ele>
        <time>2023-10-07T11:28:06Z</time>
      </trkpt>
      <trkpt lat="48.00555" lon="-0.40746">
        <ele>99.6</ele>
        <time>2023-10-07T11:28:07Z</time>
      </trkpt>
      <trkpt lat="48.00562" lon="-0.40745">
        <ele>99.8</ele>
        <time>2023-10-07T11:28:08Z</time>
      </trkpt>
      <trkpt lat="48.0057" lon="-0.40744">
        <ele>100.2</ele>
        <time>2023-10-07T11:28:09Z</time>
      </trkpt>
      <trkpt lat="48.00577" lon="-0.40743">
        <ele>100.2</ele>
        <time>2023-10-07T11:28:10Z</time>
      </trkpt>
      <trkpt lat="48.00583" lon="-0.40742">
        <ele>100.2</ele>
        <time>2023-10-07T11:28:11Z</time>
      </trkpt>
      <trkpt lat="48.0059" lon="-0.40741">
        <ele>100.2</ele>
        <time>2023-10-07T11:28:12Z</time>
      </trkpt>
      <trkpt lat="48.00597" lon="-0.4074">
        <ele>100.4</ele>
        <time>2023-10-07T11:28:13Z</time>
      </trkpt>
      <trkpt lat="48.00604" lon="-0.4074">
        <ele>100.4</ele>
        <time>2023-10-07T11:28:14Z</time>
      </trkpt>
      <trkpt lat="48.0061" lon="-0.40739">
        <ele>100.4</ele>
        <time>2023-10-07T11:28:15Z</time>
      </trkpt>
      <trkpt lat="48.00617" lon="-0.40738">
        <ele>100.4</ele>
        <time>2023-10-07T11:28:16Z</time>
      </trkpt>
      <trkpt lat="48.00623" lon="-0.40738">
        <ele>101.6</ele>
        <time>2023-10-07T11:28:17Z</time>
      </trkpt>
      <trkpt lat="48.0063" lon="-0.40737">
        <ele>101.6</ele>
        <time>2023-10-07T11:28:18Z</time>
      </trkpt>
      <trkpt lat="48.00636" lon="-0.40736">
        <ele>101.6</ele>
        <time>2023-10-07T11:28:19Z</time>
      </trkpt>
      <trkpt lat="48.00642" lon="-0.40735">
        <ele>101.6</ele>
        <time>2023-10-07T11:28:20Z</time>
      </trkpt>
      <trkpt lat="48.00648" lon="-0.40735">
        <ele>101.6</ele>
        <time>2023-10-07T11:28:21Z</time>
      </trkpt>
      <trkpt lat="48.00655" lon="-0.40734">
        <ele>101.6</ele>
        <time>2023-10-07T11:28:22Z</time>
      </trkpt>
      <trkpt lat="48.00661" lon="-0.40733">
        <ele>101.6</ele>
        <time>2023-10-07T11:28:23Z</time>
      </trkpt>
      <trkpt lat="48.00667" lon="-0.40733">
        <ele>102.2</ele>
        <time>2023-10-07T11:28:24Z</time>
      </trkpt>
      <trkpt lat="48.00673" lon="-0.40732">
        <ele>102.8</ele>
        <time>2023-10-07T11:28:25Z</time>
      </trkpt>
      <trkpt lat="48.00679" lon="-0.40732">
        <ele>102.8</ele>
        <time>2023-10-07T11:28:26Z</time>
      </trkpt>
      <trkpt lat="48.00684" lon="-0.40731">
        <ele>102.8</ele>
        <time>2023-10-07T11:28:27Z</time>
      </trkpt>
      <trkpt lat="48.0069" lon="-0.40731">
        <ele>102.8</ele>
        <time>2023-10-07T11:28:28Z</time>
      </trkpt>
      <trkpt lat="48.00696" lon="-0.4073">
        <ele>104</ele>
        <time>2023-10-07T11:28:29Z</time>
      </trkpt>
      <trkpt lat="48.00702" lon="-0.40729">
        <ele>104</ele>
        <time>2023-10-07T11:28:30Z</time>
      </trkpt>
      <trkpt lat="48.00708" lon="-0.40728">
        <ele>104</ele>
        <time>2023-10-07T11:28:31Z</time>
      </trkpt>
      <trkpt lat="48.00713" lon="-0.40727">
        <ele>103</ele>
        <time>2023-10-07T11:28:32Z</time>
      </trkpt>
      <trkpt lat="48.00719" lon="-0.40726">
        <ele>103.8</ele>
        <time>2023-10-07T11:28:33Z</time>
      </trkpt>
      <trkpt lat="48.00724" lon="-0.40725">
        <ele>103.8</ele>
        <time>2023-10-07T11:28:34Z</time>
      </trkpt>
      <trkpt lat="48.0073" lon="-0.40724">
        <ele>103.8</ele>
        <time>2023-10-07T11:28:35Z</time>
      </trkpt>
      <trkpt lat="48.00735" lon="-0.40722">
        <ele>103.8</ele>
        <time>2023-10-07T11:28:36Z</time>
      </trkpt>
      <trkpt lat="48.0074" lon="-0.4072">
        <ele>104.6</ele>
        <time>2023-10-07T11:28:37Z</time>
      </trkpt>
      <trkpt lat="48.00745" lon="-0.40718">
        <ele>104.6</ele>
        <time>2023-10-07T11:28:38Z</time>
      </trkpt>
      <trkpt lat="48.0075" lon="-0.40716">
        <ele>104.6</ele>
        <time>2023-10-07T11:28:39Z</time>
      </trkpt>
      <trkpt lat="48.00755" lon="-0.40713">
        <ele>105.6</ele>
        <time>2023-10-07T11:28:40Z</time>
      </trkpt>
      <trkpt lat="48.00759" lon="-0.4071">
        <ele>104.6</ele>
        <time>2023-10-07T11:28:41Z</time>
      </trkpt>
      <trkpt lat="48.00764" lon="-0.40706">
        <ele>104.6</ele>
        <time>2023-10-07T11:28:42Z</time>
      </trkpt>
      <trkpt lat="48.00768" lon="-0.40704">
        <ele>104.6</ele>
        <time>2023-10-07T11:28:43Z</time>
      </trkpt>
      <trkpt lat="48.00773" lon="-0.407">
        <ele>105.6</ele>
        <time>2023-10-07T11:28:44Z</time>
      </trkpt>
      <trkpt lat="48.00777" lon="-0.40697">
        <ele>108</ele>
        <time>2023-10-07T11:28:45Z</time>
      </trkpt>
      <trkpt lat="48.00781" lon="-0.40694">
        <ele>108</ele>
        <time>2023-10-07T11:28:46Z</time>
      </trkpt>
      <trkpt lat="48.00785" lon="-0.40691">
        <ele>108</ele>
        <time>2023-10-07T11:28:47Z</time>
      </trkpt>
      <trkpt lat="48.00789" lon="-0.40688">
        <ele>107.4</ele>
        <time>2023-10-07T11:28:48Z</time>
      </trkpt>
      <trkpt lat="48.00793" lon="-0.40685">
        <ele>107.6</ele>
        <time>2023-10-07T11:28:49Z</time>
      </trkpt>
      <trkpt lat="48.00797" lon="-0.40682">
        <ele>107.6</ele>
        <time>2023-10-07T11:28:50Z</time>
      </trkpt>
      <trkpt lat="48.00801" lon="-0.40679">
        <ele>107.6</ele>
        <time>2023-10-07T11:28:51Z</time>
      </trkpt>
      <trkpt lat="48.00804" lon="-0.40675">
        <ele>108.4</ele>
        <time>2023-10-07T11:28:52Z</time>
      </trkpt>
      <trkpt lat="48.00808" lon="-0.40672">
        <ele>108.4</ele>
        <time>2023-10-07T11:28:53Z</time>
      </trkpt>
      <trkpt lat="48.00811" lon="-0.40669">
        <ele>108.4</ele>
        <time>2023-10-07T11:28:54Z</time>
      </trkpt>
      <trkpt lat="48.00815" lon="-0.40666">
        <ele>108.4</ele>
        <time>2023-10-07T11:28:55Z</time>
      </trkpt>
      <trkpt lat="48.00819" lon="-0.40662">
        <ele>108.4</ele>
        <time>2023-10-07T11:28:56Z</time>
      </trkpt>
      <trkpt lat="48.00822" lon="-0.4066">
        <ele>108.8</ele>
        <time>2023-10-07T11:28:57Z</time>
      </trkpt>
      <trkpt lat="48.00826" lon="-0.40657">
        <ele>108.8</ele>
        <time>2023-10-07T11:28:58Z</time>
      </trkpt>
      <trkpt lat="48.0083" lon="-0.40654">
        <ele>108.8</ele>
        <time>2023-10-07T11:28:59Z</time>
      </trkpt>
      <trkpt lat="48.00834" lon="-0.40651">
        <ele>108.8</ele>
        <time>2023-10-07T11:29:00Z</time>
      </trkpt>
      <trkpt lat="48.00838" lon="-0.40649">
        <ele>109</ele>
        <time>2023-10-07T11:29:01Z</time>
      </trkpt>
      <trkpt lat="48.00842" lon="-0.40646">
        <ele>109</ele>
        <time>2023-10-07T11:29:02Z</time>
      </trkpt>
      <trkpt lat="48.00846" lon="-0.40644">
        <ele>109</ele>
        <time>2023-10-07T11:29:03Z</time>
      </trkpt>
      <trkpt lat="48.0085" lon="-0.40641">
        <ele>108.2</ele>
        <time>2023-10-07T11:29:04Z</time>
      </trkpt>
      <trkpt lat="48.00855" lon="-0.40639">
        <ele>107.8</ele>
        <time>2023-10-07T11:29:05Z</time>
      </trkpt>
      <trkpt lat="48.0086" lon="-0.40636">
        <ele>107.8</ele>
        <time>2023-10-07T11:29:06Z</time>
      </trkpt>
      <trkpt lat="48.00865" lon="-0.40634">
        <ele>107.8</ele>
        <time>2023-10-07T11:29:07Z</time>
      </trkpt>
      <trkpt lat="48.0087" lon="-0.40633">
        <ele>106.8</ele>
        <time>2023-10-07T11:29:08Z</time>
      </trkpt>
      <trkpt lat="48.00876" lon="-0.40631">
        <ele>106.4</ele>
        <time>2023-10-07T11:29:09Z</time>
      </trkpt>
      <trkpt lat="48.00881" lon="-0.4063">
        <ele>106.4</ele>
        <time>2023-10-07T11:29:10Z</time>
      </trkpt>
      <trkpt lat="48.00887" lon="-0.40628">
        <ele>106.4</ele>
        <time>2023-10-07T11:29:11Z</time>
      </trkpt>
      <trkpt lat="48.00894" lon="-0.40626">
        <ele>106.4</ele>
        <time>2023-10-07T11:29:12Z</time>
      </trkpt>
      <trkpt lat="48.009" lon="-0.40625">
        <ele>104.8</ele>
        <time>2023-10-07T11:29:13Z</time>
      </trkpt>
      <trkpt lat="48.00907" lon="-0.40623">
        <ele>104.8</ele>
        <time>2023-10-07T11:29:14Z</time>
      </trkpt>
      <trkpt lat="48.00913" lon="-0.40621">
        <ele>104.8</ele>
        <time>2023-10-07T11:29:15Z</time>
      </trkpt>
      <trkpt lat="48.0092" lon="-0.40619">
        <ele>103.8</ele>
        <time>2023-10-07T11:29:16Z</time>
      </trkpt>
      <trkpt lat="48.00926" lon="-0.40617">
        <ele>103.6</ele>
        <time>2023-10-07T11:29:17Z</time>
      </trkpt>
      <trkpt lat="48.00932" lon="-0.40616">
        <ele>103.6</ele>
        <time>2023-10-07T11:29:18Z</time>
      </trkpt>
      <trkpt lat="48.00937" lon="-0.40615">
        <ele>103.6</ele>
        <time>2023-10-07T11:29:19Z</time>
      </trkpt>
      <trkpt lat="48.00942" lon="-0.40614">
        <ele>104</ele>
        <time>2023-10-07T11:29:20Z</time>
      </trkpt>
      <trkpt lat="48.00945" lon="-0.40613">
        <ele>104</ele>
        <time>2023-10-07T11:29:21Z</time>
      </trkpt>
      <trkpt lat="48.00948" lon="-0.40611">
        <ele>104</ele>
        <time>2023-10-07T11:29:22Z</time>
      </trkpt>
      <trkpt lat="48.0095" lon="-0.40609">
        <ele>104</ele>
        <time>2023-10-07T11:29:23Z</time>
      </trkpt>
      <trkpt lat="48.00952" lon="-0.40607">
        <ele>104</ele>
        <time>2023-10-07T11:29:24Z</time>
      </trkpt>
      <trkpt lat="48.00953" lon="-0.40603">
        <ele>103.6</ele>
        <time>2023-10-07T11:29:25Z</time>
      </trkpt>
      <trkpt lat="48.00954" lon="-0.40599">
        <ele>103.6</ele>
        <time>2023-10-07T11:29:26Z</time>
      </trkpt>
      <trkpt lat="48.00954" lon="-0.40594">
        <ele>103.6</ele>
        <time>2023-10-07T11:29:27Z</time>
      </trkpt>
      <trkpt lat="48.00952" lon="-0.40588">
        <ele>103</ele>
        <time>2023-10-07T11:29:28Z</time>
      </trkpt>
      <trkpt lat="48.00951" lon="-0.40582">
        <ele>102.2</ele>
        <time>2023-10-07T11:29:29Z</time>
      </trkpt>
      <trkpt lat="48.00949" lon="-0.40575">
        <ele>102.2</ele>
        <time>2023-10-07T11:29:30Z</time>
      </trkpt>
      <trkpt lat="48.00948" lon="-0.40568">
        <ele>102.2</ele>
        <time>2023-10-07T11:29:31Z</time>
      </trkpt>
      <trkpt lat="48.00945" lon="-0.40561">
        <ele>101.2</ele>
        <time>2023-10-07T11:29:32Z</time>
      </trkpt>
      <trkpt lat="48.00943" lon="-0.40554">
        <ele>100.2</ele>
        <time>2023-10-07T11:29:33Z</time>
      </trkpt>
      <trkpt lat="48.00944" lon="-0.40546">
        <ele>100.2</ele>
        <time>2023-10-07T11:29:34Z</time>
      </trkpt>
      <trkpt lat="48.00946" lon="-0.4054">
        <ele>100.2</ele>
        <time>2023-10-07T11:29:35Z</time>
      </trkpt>
      <trkpt lat="48.0095" lon="-0.40535">
        <ele>101.2</ele>
        <time>2023-10-07T11:29:36Z</time>
      </trkpt>
      <trkpt lat="48.00955" lon="-0.40532">
        <ele>101.2</ele>
        <time>2023-10-07T11:29:37Z</time>
      </trkpt>
      <trkpt lat="48.0096" lon="-0.4053">
        <ele>101.2</ele>
        <time>2023-10-07T11:29:38Z</time>
      </trkpt>
      <trkpt lat="48.00965" lon="-0.40527">
        <ele>101.2</ele>
        <time>2023-10-07T11:29:39Z</time>
      </trkpt>
      <trkpt lat="48.0097" lon="-0.40525">
        <ele>101.8</ele>
        <time>2023-10-07T11:29:40Z</time>
      </trkpt>
      <trkpt lat="48.00976" lon="-0.40523">
        <ele>101.8</ele>
        <time>2023-10-07T11:29:41Z</time>
      </trkpt>
      <trkpt lat="48.00981" lon="-0.40521">
        <ele>101.8</ele>
        <time>2023-10-07T11:29:42Z</time>
      </trkpt>
      <trkpt lat="48.00987" lon="-0.40519">
        <ele>101.8</ele>
        <time>2023-10-07T11:29:43Z</time>
      </trkpt>
      <trkpt lat="48.00992" lon="-0.40518">
        <ele>101.8</ele>
        <time>2023-10-07T11:29:44Z</time>
      </trkpt>
      <trkpt lat="48.00998" lon="-0.40515">
        <ele>100.8</ele>
        <time>2023-10-07T11:29:45Z</time>
      </trkpt>
      <trkpt lat="48.01004" lon="-0.40512">
        <ele>100.8</ele>
        <time>2023-10-07T11:29:46Z</time>
      </trkpt>
      <trkpt lat="48.0101" lon="-0.4051">
        <ele>100.8</ele>
        <time>2023-10-07T11:29:47Z</time>
      </trkpt>
      <trkpt lat="48.01015" lon="-0.40507">
        <ele>100.6</ele>
        <time>2023-10-07T11:29:48Z</time>
      </trkpt>
      <trkpt lat="48.01021" lon="-0.40504">
        <ele>100.6</ele>
        <time>2023-10-07T11:29:49Z</time>
      </trkpt>
      <trkpt lat="48.01027" lon="-0.40501">
        <ele>100.6</ele>
        <time>2023-10-07T11:29:50Z</time>
      </trkpt>
      <trkpt lat="48.01034" lon="-0.40499">
        <ele>100.6</ele>
        <time>2023-10-07T11:29:51Z</time>
      </trkpt>
      <trkpt lat="48.01039" lon="-0.40496">
        <ele>100.4</ele>
        <time>2023-10-07T11:29:52Z</time>
      </trkpt>
      <trkpt lat="48.01045" lon="-0.40493">
        <ele>100.8</ele>
        <time>2023-10-07T11:29:53Z</time>
      </trkpt>
      <trkpt lat="48.01051" lon="-0.40491">
        <ele>100.8</ele>
        <time>2023-10-07T11:29:54Z</time>
      </trkpt>
      <trkpt lat="48.01056" lon="-0.4049">
        <ele>100.8</ele>
        <time>2023-10-07T11:29:55Z</time>
      </trkpt>
      <trkpt lat="48.01061" lon="-0.40487">
        <ele>100.8</ele>
        <time>2023-10-07T11:29:56Z</time>
      </trkpt>
      <trkpt lat="48.01064" lon="-0.40483">
        <ele>100.8</ele>
        <time>2023-10-07T11:29:57Z</time>
      </trkpt>
      <trkpt lat="48.01065" lon="-0.40476">
        <ele>100.8</ele>
        <time>2023-10-07T11:29:58Z</time>
      </trkpt>
      <trkpt lat="48.01064" lon="-0.40469">
        <ele>100.8</ele>
        <time>2023-10-07T11:29:59Z</time>
      </trkpt>
      <trkpt lat="48.01062" lon="-0.40463">
        <ele>100.8</ele>
        <time>2023-10-07T11:30:00Z</time>
      </trkpt>
      <trkpt lat="48.01061" lon="-0.40456">
        <ele>98.6</ele>
        <time>2023-10-07T11:30:01Z</time>
      </trkpt>
      <trkpt lat="48.01059" lon="-0.40448">
        <ele>98.6</ele>
        <time>2023-10-07T11:30:02Z</time>
      </trkpt>
      <trkpt lat="48.01058" lon="-0.4044">
        <ele>98.6</ele>
        <time>2023-10-07T11:30:03Z</time>
      </trkpt>
      <trkpt lat="48.01057" lon="-0.40432">
        <ele>98.6</ele>
        <time>2023-10-07T11:30:04Z</time>
      </trkpt>
      <trkpt lat="48.01058" lon="-0.40424">
        <ele>98.4</ele>
        <time>2023-10-07T11:30:05Z</time>
      </trkpt>
      <trkpt lat="48.01059" lon="-0.40417">
        <ele>98.4</ele>
        <time>2023-10-07T11:30:06Z</time>
      </trkpt>
      <trkpt lat="48.0106" lon="-0.40409">
        <ele>98.4</ele>
        <time>2023-10-07T11:30:07Z</time>
      </trkpt>
      <trkpt lat="48.01061" lon="-0.40402">
        <ele>99.4</ele>
        <time>2023-10-07T11:30:08Z</time>
      </trkpt>
      <trkpt lat="48.01063" lon="-0.40396">
        <ele>99</ele>
        <time>2023-10-07T11:30:09Z</time>
      </trkpt>
      <trkpt lat="48.01064" lon="-0.4039">
        <ele>99</ele>
        <time>2023-10-07T11:30:10Z</time>
      </trkpt>
      <trkpt lat="48.01065" lon="-0.40384">
        <ele>99</ele>
        <time>2023-10-07T11:30:11Z</time>
      </trkpt>
      <trkpt lat="48.01066" lon="-0.40379">
        <ele>99</ele>
        <time>2023-10-07T11:30:12Z</time>
      </trkpt>
      <trkpt lat="48.01067" lon="-0.40375">
        <ele>101.2</ele>
        <time>2023-10-07T11:30:13Z</time>
      </trkpt>
      <trkpt lat="48.0107" lon="-0.40371">
        <ele>101.2</ele>
        <time>2023-10-07T11:30:14Z</time>
      </trkpt>
      <trkpt lat="48.01073" lon="-0.40367">
        <ele>101.2</ele>
        <time>2023-10-07T11:30:15Z</time>
      </trkpt>
      <trkpt lat="48.01076" lon="-0.40364">
        <ele>101.6</ele>
        <time>2023-10-07T11:30:16Z</time>
      </trkpt>
      <trkpt lat="48.0108" lon="-0.4036">
        <ele>103.6</ele>
        <time>2023-10-07T11:30:17Z</time>
      </trkpt>
      <trkpt lat="48.01083" lon="-0.40357">
        <ele>103.6</ele>
        <time>2023-10-07T11:30:18Z</time>
      </trkpt>
      <trkpt lat="48.01087" lon="-0.40355">
        <ele>103.6</ele>
        <time>2023-10-07T11:30:19Z</time>
      </trkpt>
      <trkpt lat="48.0109" lon="-0.40353">
        <ele>103.6</ele>
        <time>2023-10-07T11:30:20Z</time>
      </trkpt>
      <trkpt lat="48.01094" lon="-0.40351">
        <ele>103.4</ele>
        <time>2023-10-07T11:30:21Z</time>
      </trkpt>
      <trkpt lat="48.01097" lon="-0.40349">
        <ele>103.4</ele>
        <time>2023-10-07T11:30:22Z</time>
      </trkpt>
      <trkpt lat="48.01101" lon="-0.40348">
        <ele>103.4</ele>
        <time>2023-10-07T11:30:23Z</time>
      </trkpt>
      <trkpt lat="48.01104" lon="-0.40346">
        <ele>104.4</ele>
        <time>2023-10-07T11:30:24Z</time>
      </trkpt>
      <trkpt lat="48.01107" lon="-0.40343">
        <ele>103.8</ele>
        <time>2023-10-07T11:30:25Z</time>
      </trkpt>
      <trkpt lat="48.01111" lon="-0.40341">
        <ele>103.8</ele>
        <time>2023-10-07T11:30:26Z</time>
      </trkpt>
      <trkpt lat="48.01114" lon="-0.40338">
        <ele>103.8</ele>
        <time>2023-10-07T11:30:27Z</time>
      </trkpt>
      <trkpt lat="48.01118" lon="-0.40335">
        <ele>104.8</ele>
        <time>2023-10-07T11:30:28Z</time>
      </trkpt>
      <trkpt lat="48.01122" lon="-0.40333">
        <ele>106</ele>
        <time>2023-10-07T11:30:29Z</time>
      </trkpt>
      <trkpt lat="48.01125" lon="-0.4033">
        <ele>106</ele>
        <time>2023-10-07T11:30:30Z</time>
      </trkpt>
      <trkpt lat="48.01129" lon="-0.40327">
        <ele>106</ele>
        <time>2023-10-07T11:30:31Z</time>
      </trkpt>
      <trkpt lat="48.01132" lon="-0.40325">
        <ele>106</ele>
        <time>2023-10-07T11:30:32Z</time>
      </trkpt>
      <trkpt lat="48.01136" lon="-0.40322">
        <ele>105</ele>
        <time>2023-10-07T11:30:33Z</time>
      </trkpt>
      <trkpt lat="48.01139" lon="-0.40319">
        <ele>105</ele>
        <time>2023-10-07T11:30:34Z</time>
      </trkpt>
      <trkpt lat="48.01142" lon="-0.40317">
        <ele>105</ele>
        <time>2023-10-07T11:30:35Z</time>
      </trkpt>
      <trkpt lat="48.01145" lon="-0.40315">
        <ele>105</ele>
        <time>2023-10-07T11:30:36Z</time>
      </trkpt>
      <trkpt lat="48.01148" lon="-0.40312">
        <ele>107</ele>
        <time>2023-10-07T11:30:37Z</time>
      </trkpt>
      <trkpt lat="48.01151" lon="-0.40308">
        <ele>107</ele>
        <time>2023-10-07T11:30:38Z</time>
      </trkpt>
      <trkpt lat="48.01154" lon="-0.40305">
        <ele>107</ele>
        <time>2023-10-07T11:30:39Z</time>
      </trkpt>
      <trkpt lat="48.01157" lon="-0.40301">
        <ele>107</ele>
        <time>2023-10-07T11:30:40Z</time>
      </trkpt>
      <trkpt lat="48.01159" lon="-0.40297">
        <ele>106.8</ele>
        <time>2023-10-07T11:30:41Z</time>
      </trkpt>
      <trkpt lat="48.01162" lon="-0.40294">
        <ele>106.8</ele>
        <time>2023-10-07T11:30:42Z</time>
      </trkpt>
      <trkpt lat="48.01164" lon="-0.4029">
        <ele>106.8</ele>
        <time>2023-10-07T11:30:43Z</time>
      </trkpt>
      <trkpt lat="48.01165" lon="-0.40286">
        <ele>106.8</ele>
        <time>2023-10-07T11:30:44Z</time>
      </trkpt>
      <trkpt lat="48.01167" lon="-0.40282">
        <ele>108</ele>
        <time>2023-10-07T11:30:45Z</time>
      </trkpt>
      <trkpt lat="48.0117" lon="-0.40278">
        <ele>108</ele>
        <time>2023-10-07T11:30:46Z</time>
      </trkpt>
      <trkpt lat="48.01172" lon="-0.40274">
        <ele>108</ele>
        <time>2023-10-07T11:30:47Z</time>
      </trkpt>
      <trkpt lat="48.01175" lon="-0.4027">
        <ele>108</ele>
        <time>2023-10-07T11:30:48Z</time>
      </trkpt>
      <trkpt lat="48.01177" lon="-0.40266">
        <ele>108</ele>
        <time>2023-10-07T11:30:49Z</time>
      </trkpt>
      <trkpt lat="48.0118" lon="-0.40262">
        <ele>108</ele>
        <time>2023-10-07T11:30:50Z</time>
      </trkpt>
      <trkpt lat="48.01183" lon="-0.40259">
        <ele>108</ele>
        <time>2023-10-07T11:30:51Z</time>
      </trkpt>
      <trkpt lat="48.01185" lon="-0.40255">
        <ele>107.4</ele>
        <time>2023-10-07T11:30:52Z</time>
      </trkpt>
      <trkpt lat="48.01188" lon="-0.40251">
        <ele>107.4</ele>
        <time>2023-10-07T11:30:53Z</time>
      </trkpt>
      <trkpt lat="48.01191" lon="-0.40246">
        <ele>107.4</ele>
        <time>2023-10-07T11:30:54Z</time>
      </trkpt>
      <trkpt lat="48.01194" lon="-0.40242">
        <ele>107.4</ele>
        <time>2023-10-07T11:30:55Z</time>
      </trkpt>
      <trkpt lat="48.01197" lon="-0.40238">
        <ele>107.4</ele>
        <time>2023-10-07T11:30:56Z</time>
      </trkpt>
      <trkpt lat="48.012" lon="-0.40234">
        <ele>109</ele>
        <time>2023-10-07T11:30:57Z</time>
      </trkpt>
      <trkpt lat="48.01204" lon="-0.4023">
        <ele>109</ele>
        <time>2023-10-07T11:30:58Z</time>
      </trkpt>
      <trkpt lat="48.01207" lon="-0.40226">
        <ele>109</ele>
        <time>2023-10-07T11:30:59Z</time>
      </trkpt>
      <trkpt lat="48.0121" lon="-0.40223">
        <ele>108</ele>
        <time>2023-10-07T11:31:00Z</time>
      </trkpt>
      <trkpt lat="48.01212" lon="-0.40219">
        <ele>107.6</ele>
        <time>2023-10-07T11:31:01Z</time>
      </trkpt>
      <trkpt lat="48.01215" lon="-0.40215">
        <ele>107.6</ele>
        <time>2023-10-07T11:31:02Z</time>
      </trkpt>
      <trkpt lat="48.01218" lon="-0.4021">
        <ele>107.6</ele>
        <time>2023-10-07T11:31:03Z</time>
      </trkpt>
      <trkpt lat="48.01219" lon="-0.40205">
        <ele>107.4</ele>
        <time>2023-10-07T11:31:04Z</time>
      </trkpt>
      <trkpt lat="48.0122" lon="-0.40199">
        <ele>106.4</ele>
        <time>2023-10-07T11:31:05Z</time>
      </trkpt>
      <trkpt lat="48.0122" lon="-0.40192">
        <ele>106.4</ele>
        <time>2023-10-07T11:31:06Z</time>
      </trkpt>
      <trkpt lat="48.01221" lon="-0.40184">
        <ele>106.4</ele>
        <time>2023-10-07T11:31:07Z</time>
      </trkpt>
      <trkpt lat="48.01222" lon="-0.40177">
        <ele>106.4</ele>
        <time>2023-10-07T11:31:08Z</time>
      </trkpt>
      <trkpt lat="48.01223" lon="-0.40169">
        <ele>104.4</ele>
        <time>2023-10-07T11:31:09Z</time>
      </trkpt>
      <trkpt lat="48.01224" lon="-0.40161">
        <ele>104.4</ele>
        <time>2023-10-07T11:31:10Z</time>
      </trkpt>
      <trkpt lat="48.01225" lon="-0.40153">
        <ele>104.4</ele>
        <time>2023-10-07T11:31:11Z</time>
      </trkpt>
      <trkpt lat="48.01226" lon="-0.40145">
        <ele>104.4</ele>
        <time>2023-10-07T11:31:12Z</time>
      </trkpt>
      <trkpt lat="48.01226" lon="-0.40137">
        <ele>101.2</ele>
        <time>2023-10-07T11:31:13Z</time>
      </trkpt>
      <trkpt lat="48.01227" lon="-0.4013">
        <ele>101.2</ele>
        <time>2023-10-07T11:31:14Z</time>
      </trkpt>
      <trkpt lat="48.01229" lon="-0.40124">
        <ele>101.2</ele>
        <time>2023-10-07T11:31:15Z</time>
      </trkpt>
      <trkpt lat="48.01229" lon="-0.40119">
        <ele>102.2</ele>
        <time>2023-10-07T11:31:16Z</time>
      </trkpt>
      <trkpt lat="48.01229" lon="-0.40112">
        <ele>103.4</ele>
        <time>2023-10-07T11:31:17Z</time>
      </trkpt>
      <trkpt lat="48.0123" lon="-0.40106">
        <ele>103.4</ele>
        <time>2023-10-07T11:31:18Z</time>
      </trkpt>
      <trkpt lat="48.01234" lon="-0.401">
        <ele>103.4</ele>
        <time>2023-10-07T11:31:19Z</time>
      </trkpt>
      <trkpt lat="48.01238" lon="-0.40096">
        <ele>103.4</ele>
        <time>2023-10-07T11:31:20Z</time>
      </trkpt>
      <trkpt lat="48.01243" lon="-0.40093">
        <ele>102.6</ele>
        <time>2023-10-07T11:31:21Z</time>
      </trkpt>
      <trkpt lat="48.01246" lon="-0.40092">
        <ele>102.6</ele>
        <time>2023-10-07T11:31:22Z</time>
      </trkpt>
      <trkpt lat="48.0125" lon="-0.40092">
        <ele>102.6</ele>
        <time>2023-10-07T11:31:23Z</time>
      </trkpt>
      <trkpt lat="48.01253" lon="-0.4009">
        <ele>101.6</ele>
        <time>2023-10-07T11:31:24Z</time>
      </trkpt>
      <trkpt lat="48.01257" lon="-0.40088">
        <ele>101</ele>
        <time>2023-10-07T11:31:25Z</time>
      </trkpt>
      <trkpt lat="48.0126" lon="-0.40085">
        <ele>101</ele>
        <time>2023-10-07T11:31:26Z</time>
      </trkpt>
      <trkpt lat="48.01263" lon="-0.40082">
        <ele>101</ele>
        <time>2023-10-07T11:31:27Z</time>
      </trkpt>
      <trkpt lat="48.01267" lon="-0.40078">
        <ele>101</ele>
        <time>2023-10-07T11:31:28Z</time>
      </trkpt>
      <trkpt lat="48.01268" lon="-0.40074">
        <ele>100.2</ele>
        <time>2023-10-07T11:31:29Z</time>
      </trkpt>
      <trkpt lat="48.01271" lon="-0.4007">
        <ele>100.2</ele>
        <time>2023-10-07T11:31:30Z</time>
      </trkpt>
      <trkpt lat="48.01273" lon="-0.40066">
        <ele>100.2</ele>
        <time>2023-10-07T11:31:31Z</time>
      </trkpt>
      <trkpt lat="48.01274" lon="-0.40063">
        <ele>100.2</ele>
        <time>2023-10-07T11:31:32Z</time>
      </trkpt>
      <trkpt lat="48.01276" lon="-0.40059">
        <ele>98.8</ele>
        <time>2023-10-07T11:31:33Z</time>
      </trkpt>
      <trkpt lat="48.01279" lon="-0.40054">
        <ele>98.8</ele>
        <time>2023-10-07T11:31:34Z</time>
      </trkpt>
      <trkpt lat="48.01282" lon="-0.40049">
        <ele>98.8</ele>
        <time>2023-10-07T11:31:35Z</time>
      </trkpt>
      <trkpt lat="48.01285" lon="-0.40045">
        <ele>98.8</ele>
        <time>2023-10-07T11:31:36Z</time>
      </trkpt>
      <trkpt lat="48.01286" lon="-0.4004">
        <ele>96.6</ele>
        <time>2023-10-07T11:31:37Z</time>
      </trkpt>
      <trkpt lat="48.0129" lon="-0.40036">
        <ele>96.6</ele>
        <time>2023-10-07T11:31:38Z</time>
      </trkpt>
      <trkpt lat="48.01292" lon="-0.40031">
        <ele>96.6</ele>
        <time>2023-10-07T11:31:39Z</time>
      </trkpt>
      <trkpt lat="48.01297" lon="-0.40027">
        <ele>96.6</ele>
        <time>2023-10-07T11:31:40Z</time>
      </trkpt>
      <trkpt lat="48.01302" lon="-0.40024">
        <ele>93.6</ele>
        <time>2023-10-07T11:31:41Z</time>
      </trkpt>
      <trkpt lat="48.01308" lon="-0.4002">
        <ele>93.6</ele>
        <time>2023-10-07T11:31:42Z</time>
      </trkpt>
      <trkpt lat="48.01314" lon="-0.40016">
        <ele>93.6</ele>
        <time>2023-10-07T11:31:43Z</time>
      </trkpt>
      <trkpt lat="48.01318" lon="-0.40011">
        <ele>93.6</ele>
        <time>2023-10-07T11:31:44Z</time>
      </trkpt>
      <trkpt lat="48.01322" lon="-0.40005">
        <ele>92.2</ele>
        <time>2023-10-07T11:31:45Z</time>
      </trkpt>
      <trkpt lat="48.01326" lon="-0.39999">
        <ele>92.2</ele>
        <time>2023-10-07T11:31:46Z</time>
      </trkpt>
      <trkpt lat="48.01332" lon="-0.39993">
        <ele>92.2</ele>
        <time>2023-10-07T11:31:47Z</time>
      </trkpt>
      <trkpt lat="48.01339" lon="-0.39986">
        <ele>92.2</ele>
        <time>2023-10-07T11:31:48Z</time>
      </trkpt>
      <trkpt lat="48.01345" lon="-0.39979">
        <ele>91.2</ele>
        <time>2023-10-07T11:31:49Z</time>
      </trkpt>
      <trkpt lat="48.0135" lon="-0.39973">
        <ele>91.2</ele>
        <time>2023-10-07T11:31:50Z</time>
      </trkpt>
      <trkpt lat="48.01354" lon="-0.39967">
        <ele>91.2</ele>
        <time>2023-10-07T11:31:51Z</time>
      </trkpt>
      <trkpt lat="48.01358" lon="-0.39961">
        <ele>90.8</ele>
        <time>2023-10-07T11:31:52Z</time>
      </trkpt>
      <trkpt lat="48.01362" lon="-0.39956">
        <ele>91</ele>
        <time>2023-10-07T11:31:53Z</time>
      </trkpt>
      <trkpt lat="48.01368" lon="-0.39952">
        <ele>91</ele>
        <time>2023-10-07T11:31:54Z</time>
      </trkpt>
      <trkpt lat="48.01372" lon="-0.39949">
        <ele>91</ele>
        <time>2023-10-07T11:31:55Z</time>
      </trkpt>
      <trkpt lat="48.01377" lon="-0.39946">
        <ele>90.4</ele>
        <time>2023-10-07T11:31:56Z</time>
      </trkpt>
      <trkpt lat="48.01382" lon="-0.39943">
        <ele>92.6</ele>
        <time>2023-10-07T11:31:57Z</time>
      </trkpt>
      <trkpt lat="48.01386" lon="-0.39939">
        <ele>92.6</ele>
        <time>2023-10-07T11:31:58Z</time>
      </trkpt>
      <trkpt lat="48.01391" lon="-0.39936">
        <ele>92.6</ele>
        <time>2023-10-07T11:31:59Z</time>
      </trkpt>
      <trkpt lat="48.01395" lon="-0.39933">
        <ele>91.6</ele>
        <time>2023-10-07T11:32:00Z</time>
      </trkpt>
      <trkpt lat="48.01399" lon="-0.3993">
        <ele>90.6</ele>
        <time>2023-10-07T11:32:01Z</time>
      </trkpt>
      <trkpt lat="48.01405" lon="-0.39927">
        <ele>90.6</ele>
        <time>2023-10-07T11:32:02Z</time>
      </trkpt>
      <trkpt lat="48.01409" lon="-0.39925">
        <ele>90.6</ele>
        <time>2023-10-07T11:32:03Z</time>
      </trkpt>
      <trkpt lat="48.01414" lon="-0.39922">
        <ele>89.6</ele>
        <time>2023-10-07T11:32:04Z</time>
      </trkpt>
      <trkpt lat="48.01418" lon="-0.39919">
        <ele>88.8</ele>
        <time>2023-10-07T11:32:05Z</time>
      </trkpt>
      <trkpt lat="48.01422" lon="-0.39915">
        <ele>88.8</ele>
        <time>2023-10-07T11:32:06Z</time>
      </trkpt>
      <trkpt lat="48.01427" lon="-0.39911">
        <ele>88.8</ele>
        <time>2023-10-07T11:32:07Z</time>
      </trkpt>
      <trkpt lat="48.01433" lon="-0.39906">
        <ele>88.8</ele>
        <time>2023-10-07T11:32:08Z</time>
      </trkpt>
      <trkpt lat="48.01439" lon="-0.39902">
        <ele>87</ele>
        <time>2023-10-07T11:32:09Z</time>
      </trkpt>
      <trkpt lat="48.01443" lon="-0.39898">
        <ele>87</ele>
        <time>2023-10-07T11:32:10Z</time>
      </trkpt>
      <trkpt lat="48.01449" lon="-0.39895">
        <ele>87</ele>
        <time>2023-10-07T11:32:11Z</time>
      </trkpt>
      <trkpt lat="48.01453" lon="-0.39893">
        <ele>88</ele>
        <time>2023-10-07T11:32:12Z</time>
      </trkpt>
      <trkpt lat="48.01457" lon="-0.39889">
        <ele>89</ele>
        <time>2023-10-07T11:32:13Z</time>
      </trkpt>
      <trkpt lat="48.01461" lon="-0.39887">
        <ele>89</ele>
        <time>2023-10-07T11:32:14Z</time>
      </trkpt>
      <trkpt lat="48.01464" lon="-0.39884">
        <ele>89</ele>
        <time>2023-10-07T11:32:15Z</time>
      </trkpt>
      <trkpt lat="48.01469" lon="-0.39881">
        <ele>89</ele>
        <time>2023-10-07T11:32:16Z</time>
      </trkpt>
      <trkpt lat="48.01474" lon="-0.39877">
        <ele>87.6</ele>
        <time>2023-10-07T11:32:17Z</time>
      </trkpt>
      <trkpt lat="48.01478" lon="-0.39873">
        <ele>87.6</ele>
        <time>2023-10-07T11:32:18Z</time>
      </trkpt>
      <trkpt lat="48.01482" lon="-0.39868">
        <ele>87.6</ele>
        <time>2023-10-07T11:32:19Z</time>
      </trkpt>
      <trkpt lat="48.01487" lon="-0.39863">
        <ele>86.6</ele>
        <time>2023-10-07T11:32:20Z</time>
      </trkpt>
      <trkpt lat="48.01491" lon="-0.39859">
        <ele>81.2</ele>
        <time>2023-10-07T11:32:21Z</time>
      </trkpt>
      <trkpt lat="48.01497" lon="-0.39854">
        <ele>81.2</ele>
        <time>2023-10-07T11:32:22Z</time>
      </trkpt>
      <trkpt lat="48.01501" lon="-0.39849">
        <ele>81.2</ele>
        <time>2023-10-07T11:32:23Z</time>
      </trkpt>
      <trkpt lat="48.01504" lon="-0.39844">
        <ele>82</ele>
        <time>2023-10-07T11:32:24Z</time>
      </trkpt>
      <trkpt lat="48.0151" lon="-0.39839">
        <ele>82.4</ele>
        <time>2023-10-07T11:32:25Z</time>
      </trkpt>
      <trkpt lat="48.01514" lon="-0.39834">
        <ele>82.4</ele>
        <time>2023-10-07T11:32:26Z</time>
      </trkpt>
      <trkpt lat="48.01517" lon="-0.39829">
        <ele>82.4</ele>
        <time>2023-10-07T11:32:27Z</time>
      </trkpt>
      <trkpt lat="48.01519" lon="-0.39824">
        <ele>81.4</ele>
        <time>2023-10-07T11:32:28Z</time>
      </trkpt>
      <trkpt lat="48.01526" lon="-0.39818">
        <ele>82</ele>
        <time>2023-10-07T11:32:29Z</time>
      </trkpt>
      <trkpt lat="48.01529" lon="-0.39812">
        <ele>82</ele>
        <time>2023-10-07T11:32:30Z</time>
      </trkpt>
      <trkpt lat="48.01533" lon="-0.39807">
        <ele>82</ele>
        <time>2023-10-07T11:32:31Z</time>
      </trkpt>
      <trkpt lat="48.01536" lon="-0.39801">
        <ele>81.6</ele>
        <time>2023-10-07T11:32:32Z</time>
      </trkpt>
      <trkpt lat="48.0154" lon="-0.39796">
        <ele>81</ele>
        <time>2023-10-07T11:32:33Z</time>
      </trkpt>
      <trkpt lat="48.01544" lon="-0.39791">
        <ele>81</ele>
        <time>2023-10-07T11:32:34Z</time>
      </trkpt>
      <trkpt lat="48.01548" lon="-0.39785">
        <ele>81</ele>
        <time>2023-10-07T11:32:35Z</time>
      </trkpt>
      <trkpt lat="48.01552" lon="-0.39778">
        <ele>80</ele>
        <time>2023-10-07T11:32:36Z</time>
      </trkpt>
      <trkpt lat="48.01557" lon="-0.39772">
        <ele>72.6</ele>
        <time>2023-10-07T11:32:37Z</time>
      </trkpt>
      <trkpt lat="48.01562" lon="-0.39766">
        <ele>72.6</ele>
        <time>2023-10-07T11:32:38Z</time>
      </trkpt>
      <trkpt lat="48.01568" lon="-0.3976">
        <ele>72.6</ele>
        <time>2023-10-07T11:32:39Z</time>
      </trkpt>
      <trkpt lat="48.01573" lon="-0.39754">
        <ele>73.6</ele>
        <time>2023-10-07T11:32:40Z</time>
      </trkpt>
      <trkpt lat="48.01578" lon="-0.39747">
        <ele>73.4</ele>
        <time>2023-10-07T11:32:41Z</time>
      </trkpt>
      <trkpt lat="48.01583" lon="-0.39741">
        <ele>73.4</ele>
        <time>2023-10-07T11:32:42Z</time>
      </trkpt>
      <trkpt lat="48.01587" lon="-0.39736">
        <ele>73.4</ele>
        <time>2023-10-07T11:32:43Z</time>
      </trkpt>
      <trkpt lat="48.01591" lon="-0.39731">
        <ele>74.4</ele>
        <time>2023-10-07T11:32:44Z</time>
      </trkpt>
      <trkpt lat="48.01595" lon="-0.39726">
        <ele>74.2</ele>
        <time>2023-10-07T11:32:45Z</time>
      </trkpt>
      <trkpt lat="48.01598" lon="-0.3972">
        <ele>74.2</ele>
        <time>2023-10-07T11:32:46Z</time>
      </trkpt>
      <trkpt lat="48.01603" lon="-0.39714">
        <ele>74.2</ele>
        <time>2023-10-07T11:32:47Z</time>
      </trkpt>
      <trkpt lat="48.01608" lon="-0.3971">
        <ele>73.6</ele>
        <time>2023-10-07T11:32:48Z</time>
      </trkpt>
      <trkpt lat="48.01613" lon="-0.39706">
        <ele>75.2</ele>
        <time>2023-10-07T11:32:49Z</time>
      </trkpt>
      <trkpt lat="48.01617" lon="-0.39702">
        <ele>75.2</ele>
        <time>2023-10-07T11:32:50Z</time>
      </trkpt>
      <trkpt lat="48.0162" lon="-0.39697">
        <ele>75.2</ele>
        <time>2023-10-07T11:32:51Z</time>
      </trkpt>
      <trkpt lat="48.01622" lon="-0.39693">
        <ele>74.6</ele>
        <time>2023-10-07T11:32:52Z</time>
      </trkpt>
      <trkpt lat="48.01624" lon="-0.3969">
        <ele>75.2</ele>
        <time>2023-10-07T11:32:53Z</time>
      </trkpt>
      <trkpt lat="48.01627" lon="-0.39687">
        <ele>75.2</ele>
        <time>2023-10-07T11:32:54Z</time>
      </trkpt>
      <trkpt lat="48.01631" lon="-0.39685">
        <ele>75.2</ele>
        <time>2023-10-07T11:32:55Z</time>
      </trkpt>
      <trkpt lat="48.01636" lon="-0.39682">
        <ele>74.2</ele>
        <time>2023-10-07T11:32:56Z</time>
      </trkpt>
      <trkpt lat="48.01641" lon="-0.3968">
        <ele>74.2</ele>
        <time>2023-10-07T11:32:57Z</time>
      </trkpt>
      <trkpt lat="48.01645" lon="-0.39678">
        <ele>74.2</ele>
        <time>2023-10-07T11:32:58Z</time>
      </trkpt>
      <trkpt lat="48.01649" lon="-0.39676">
        <ele>74.2</ele>
        <time>2023-10-07T11:32:59Z</time>
      </trkpt>
      <trkpt lat="48.01653" lon="-0.39673">
        <ele>74.2</ele>
        <time>2023-10-07T11:33:00Z</time>
      </trkpt>
      <trkpt lat="48.01656" lon="-0.39671">
        <ele>75.4</ele>
        <time>2023-10-07T11:33:01Z</time>
      </trkpt>
      <trkpt lat="48.01658" lon="-0.39669">
        <ele>75.4</ele>
        <time>2023-10-07T11:33:02Z</time>
      </trkpt>
      <trkpt lat="48.0166" lon="-0.39667">
        <ele>75.4</ele>
        <time>2023-10-07T11:33:03Z</time>
      </trkpt>
      <trkpt lat="48.01661" lon="-0.39667">
        <ele>76.2</ele>
        <time>2023-10-07T11:33:04Z</time>
      </trkpt>
      <trkpt lat="48.01661" lon="-0.39667">
        <ele>76.2</ele>
        <time>2023-10-07T11:33:05Z</time>
      </trkpt>
      <trkpt lat="48.0167" lon="-0.39661">
        <ele>76</ele>
        <time>2023-10-07T11:33:22Z</time>
      </trkpt>
      <trkpt lat="48.01671" lon="-0.3966">
        <ele>76</ele>
        <time>2023-10-07T11:33:23Z</time>
      </trkpt>
      <trkpt lat="48.01673" lon="-0.39659">
        <ele>76</ele>
        <time>2023-10-07T11:33:24Z</time>
      </trkpt>
      <trkpt lat="48.01674" lon="-0.39656">
        <ele>76.4</ele>
        <time>2023-10-07T11:33:25Z</time>
      </trkpt>
      <trkpt lat="48.01675" lon="-0.39655">
        <ele>76.4</ele>
        <time>2023-10-07T11:33:26Z</time>
      </trkpt>
      <trkpt lat="48.01677" lon="-0.39653">
        <ele>76.4</ele>
        <time>2023-10-07T11:33:27Z</time>
      </trkpt>
      <trkpt lat="48.01679" lon="-0.39652">
        <ele>76.4</ele>
        <time>2023-10-07T11:33:28Z</time>
      </trkpt>
      <trkpt lat="48.01681" lon="-0.3965">
        <ele>76.6</ele>
        <time>2023-10-07T11:33:29Z</time>
      </trkpt>
      <trkpt lat="48.01683" lon="-0.39648">
        <ele>76.6</ele>
        <time>2023-10-07T11:33:30Z</time>
      </trkpt>
      <trkpt lat="48.01685" lon="-0.39645">
        <ele>76.6</ele>
        <time>2023-10-07T11:33:31Z</time>
      </trkpt>
      <trkpt lat="48.01687" lon="-0.39642">
        <ele>76.6</ele>
        <time>2023-10-07T11:33:32Z</time>
      </trkpt>
      <trkpt lat="48.0169" lon="-0.3964">
        <ele>77</ele>
        <time>2023-10-07T11:33:33Z</time>
      </trkpt>
      <trkpt lat="48.01693" lon="-0.39637">
        <ele>77</ele>
        <time>2023-10-07T11:33:34Z</time>
      </trkpt>
      <trkpt lat="48.01696" lon="-0.39633">
        <ele>77</ele>
        <time>2023-10-07T11:33:35Z</time>
      </trkpt>
      <trkpt lat="48.01699" lon="-0.3963">
        <ele>77</ele>
        <time>2023-10-07T11:33:36Z</time>
      </trkpt>
      <trkpt lat="48.01702" lon="-0.39627">
        <ele>76.8</ele>
        <time>2023-10-07T11:33:37Z</time>
      </trkpt>
      <trkpt lat="48.01705" lon="-0.39623">
        <ele>76.8</ele>
        <time>2023-10-07T11:33:38Z</time>
      </trkpt>
      <trkpt lat="48.01708" lon="-0.3962">
        <ele>76.8</ele>
        <time>2023-10-07T11:33:39Z</time>
      </trkpt>
      <trkpt lat="48.01711" lon="-0.39616">
        <ele>77.8</ele>
        <time>2023-10-07T11:33:40Z</time>
      </trkpt>
      <trkpt lat="48.01714" lon="-0.39612">
        <ele>77.6</ele>
        <time>2023-10-07T11:33:41Z</time>
      </trkpt>
      <trkpt lat="48.01717" lon="-0.39609">
        <ele>77.6</ele>
        <time>2023-10-07T11:33:42Z</time>
      </trkpt>
      <trkpt lat="48.01721" lon="-0.39605">
        <ele>77.6</ele>
        <time>2023-10-07T11:33:43Z</time>
      </trkpt>
      <trkpt lat="48.01724" lon="-0.39601">
        <ele>78</ele>
        <time>2023-10-07T11:33:44Z</time>
      </trkpt>
      <trkpt lat="48.01727" lon="-0.39597">
        <ele>78</ele>
        <time>2023-10-07T11:33:45Z</time>
      </trkpt>
      <trkpt lat="48.01729" lon="-0.39594">
        <ele>78</ele>
        <time>2023-10-07T11:33:46Z</time>
      </trkpt>
      <trkpt lat="48.01733" lon="-0.3959">
        <ele>78</ele>
        <time>2023-10-07T11:33:47Z</time>
      </trkpt>
      <trkpt lat="48.01736" lon="-0.39587">
        <ele>78.8</ele>
        <time>2023-10-07T11:33:48Z</time>
      </trkpt>
      <trkpt lat="48.01739" lon="-0.39584">
        <ele>79.6</ele>
        <time>2023-10-07T11:33:49Z</time>
      </trkpt>
      <trkpt lat="48.01742" lon="-0.39581">
        <ele>79.6</ele>
        <time>2023-10-07T11:33:50Z</time>
      </trkpt>
      <trkpt lat="48.01744" lon="-0.39577">
        <ele>79.6</ele>
        <time>2023-10-07T11:33:51Z</time>
      </trkpt>
      <trkpt lat="48.01748" lon="-0.39574">
        <ele>79.6</ele>
        <time>2023-10-07T11:33:52Z</time>
      </trkpt>
      <trkpt lat="48.0175" lon="-0.39571">
        <ele>79.8</ele>
        <time>2023-10-07T11:33:53Z</time>
      </trkpt>
      <trkpt lat="48.01753" lon="-0.39567">
        <ele>79.8</ele>
        <time>2023-10-07T11:33:54Z</time>
      </trkpt>
      <trkpt lat="48.01756" lon="-0.39564">
        <ele>79.8</ele>
        <time>2023-10-07T11:33:55Z</time>
      </trkpt>
      <trkpt lat="48.01759" lon="-0.39561">
        <ele>79.8</ele>
        <time>2023-10-07T11:33:56Z</time>
      </trkpt>
      <trkpt lat="48.01762" lon="-0.39558">
        <ele>81.2</ele>
        <time>2023-10-07T11:33:57Z</time>
      </trkpt>
      <trkpt lat="48.01764" lon="-0.39555">
        <ele>81.2</ele>
        <time>2023-10-07T11:33:58Z</time>
      </trkpt>
      <trkpt lat="48.01768" lon="-0.39552">
        <ele>81.2</ele>
        <time>2023-10-07T11:33:59Z</time>
      </trkpt>
      <trkpt lat="48.01771" lon="-0.39549">
        <ele>81.2</ele>
        <time>2023-10-07T11:34:00Z</time>
      </trkpt>
      <trkpt lat="48.01774" lon="-0.39547">
        <ele>81.4</ele>
        <time>2023-10-07T11:34:01Z</time>
      </trkpt>
      <trkpt lat="48.01777" lon="-0.39543">
        <ele>81.4</ele>
        <time>2023-10-07T11:34:02Z</time>
      </trkpt>
      <trkpt lat="48.0178" lon="-0.3954">
        <ele>81.4</ele>
        <time>2023-10-07T11:34:03Z</time>
      </trkpt>
      <trkpt lat="48.01784" lon="-0.39536">
        <ele>81.8</ele>
        <time>2023-10-07T11:34:04Z</time>
      </trkpt>
      <trkpt lat="48.01787" lon="-0.39533">
        <ele>82</ele>
        <time>2023-10-07T11:34:05Z</time>
      </trkpt>
      <trkpt lat="48.0179" lon="-0.39529">
        <ele>82</ele>
        <time>2023-10-07T11:34:06Z</time>
      </trkpt>
      <trkpt lat="48.01794" lon="-0.39526">
        <ele>82</ele>
        <time>2023-10-07T11:34:07Z</time>
      </trkpt>
      <trkpt lat="48.01798" lon="-0.39522">
        <ele>81.2</ele>
        <time>2023-10-07T11:34:08Z</time>
      </trkpt>
      <trkpt lat="48.01801" lon="-0.39518">
        <ele>81.4</ele>
        <time>2023-10-07T11:34:09Z</time>
      </trkpt>
      <trkpt lat="48.01805" lon="-0.39514">
        <ele>81.4</ele>
        <time>2023-10-07T11:34:10Z</time>
      </trkpt>
      <trkpt lat="48.01809" lon="-0.39509">
        <ele>81.4</ele>
        <time>2023-10-07T11:34:11Z</time>
      </trkpt>
      <trkpt lat="48.01812" lon="-0.39504">
        <ele>82</ele>
        <time>2023-10-07T11:34:12Z</time>
      </trkpt>
      <trkpt lat="48.01815" lon="-0.39499">
        <ele>82.4</ele>
        <time>2023-10-07T11:34:13Z</time>
      </trkpt>
      <trkpt lat="48.01818" lon="-0.39494">
        <ele>82.4</ele>
        <time>2023-10-07T11:34:14Z</time>
      </trkpt>
      <trkpt lat="48.01821" lon="-0.39492">
        <ele>82.4</ele>
        <time>2023-10-07T11:34:15Z</time>
      </trkpt>
      <trkpt lat="48.01825" lon="-0.39494">
        <ele>82.4</ele>
        <time>2023-10-07T11:34:16Z</time>
      </trkpt>
      <trkpt lat="48.01829" lon="-0.39497">
        <ele>83.2</ele>
        <time>2023-10-07T11:34:17Z</time>
      </trkpt>
      <trkpt lat="48.01834" lon="-0.395">
        <ele>83.2</ele>
        <time>2023-10-07T11:34:18Z</time>
      </trkpt>
      <trkpt lat="48.01838" lon="-0.39502">
        <ele>83.2</ele>
        <time>2023-10-07T11:34:19Z</time>
      </trkpt>
      <trkpt lat="48.01843" lon="-0.39505">
        <ele>83.2</ele>
        <time>2023-10-07T11:34:20Z</time>
      </trkpt>
      <trkpt lat="48.01848" lon="-0.39508">
        <ele>83.4</ele>
        <time>2023-10-07T11:34:21Z</time>
      </trkpt>
      <trkpt lat="48.01852" lon="-0.39509">
        <ele>83.4</ele>
        <time>2023-10-07T11:34:22Z</time>
      </trkpt>
      <trkpt lat="48.01857" lon="-0.39511">
        <ele>83.4</ele>
        <time>2023-10-07T11:34:23Z</time>
      </trkpt>
      <trkpt lat="48.01862" lon="-0.39514">
        <ele>83.4</ele>
        <time>2023-10-07T11:34:24Z</time>
      </trkpt>
      <trkpt lat="48.01866" lon="-0.39516">
        <ele>83.4</ele>
        <time>2023-10-07T11:34:25Z</time>
      </trkpt>
      <trkpt lat="48.01871" lon="-0.39519">
        <ele>83.4</ele>
        <time>2023-10-07T11:34:26Z</time>
      </trkpt>
      <trkpt lat="48.01875" lon="-0.39521">
        <ele>83.4</ele>
        <time>2023-10-07T11:34:27Z</time>
      </trkpt>
      <trkpt lat="48.01878" lon="-0.39524">
        <ele>83.4</ele>
        <time>2023-10-07T11:34:28Z</time>
      </trkpt>
      <trkpt lat="48.01882" lon="-0.39527">
        <ele>83.8</ele>
        <time>2023-10-07T11:34:29Z</time>
      </trkpt>
      <trkpt lat="48.01886" lon="-0.39529">
        <ele>83.8</ele>
        <time>2023-10-07T11:34:30Z</time>
      </trkpt>
      <trkpt lat="48.0189" lon="-0.3953">
        <ele>83.8</ele>
        <time>2023-10-07T11:34:31Z</time>
      </trkpt>
      <trkpt lat="48.01895" lon="-0.39532">
        <ele>83.8</ele>
        <time>2023-10-07T11:34:32Z</time>
      </trkpt>
      <trkpt lat="48.01899" lon="-0.39533">
        <ele>85.8</ele>
        <time>2023-10-07T11:34:33Z</time>
      </trkpt>
      <trkpt lat="48.01903" lon="-0.39535">
        <ele>85.8</ele>
        <time>2023-10-07T11:34:34Z</time>
      </trkpt>
      <trkpt lat="48.01907" lon="-0.39537">
        <ele>85.8</ele>
        <time>2023-10-07T11:34:35Z</time>
      </trkpt>
      <trkpt lat="48.01911" lon="-0.3954">
        <ele>85.2</ele>
        <time>2023-10-07T11:34:36Z</time>
      </trkpt>
      <trkpt lat="48.01915" lon="-0.39543">
        <ele>85.8</ele>
        <time>2023-10-07T11:34:37Z</time>
      </trkpt>
      <trkpt lat="48.01919" lon="-0.39546">
        <ele>85.8</ele>
        <time>2023-10-07T11:34:38Z</time>
      </trkpt>
      <trkpt lat="48.01924" lon="-0.39549">
        <ele>85.8</ele>
        <time>2023-10-07T11:34:39Z</time>
      </trkpt>
      <trkpt lat="48.01928" lon="-0.39551">
        <ele>85.8</ele>
        <time>2023-10-07T11:34:40Z</time>
      </trkpt>
      <trkpt lat="48.01932" lon="-0.39554">
        <ele>86.6</ele>
        <time>2023-10-07T11:34:41Z</time>
      </trkpt>
      <trkpt lat="48.01936" lon="-0.39557">
        <ele>86.6</ele>
        <time>2023-10-07T11:34:42Z</time>
      </trkpt>
      <trkpt lat="48.0194" lon="-0.3956">
        <ele>86.6</ele>
        <time>2023-10-07T11:34:43Z</time>
      </trkpt>
      <trkpt lat="48.01945" lon="-0.39563">
        <ele>85.6</ele>
        <time>2023-10-07T11:34:44Z</time>
      </trkpt>
      <trkpt lat="48.01949" lon="-0.39567">
        <ele>84.8</ele>
        <time>2023-10-07T11:34:45Z</time>
      </trkpt>
      <trkpt lat="48.01954" lon="-0.39572">
        <ele>84.8</ele>
        <time>2023-10-07T11:34:46Z</time>
      </trkpt>
      <trkpt lat="48.01958" lon="-0.39576">
        <ele>84.8</ele>
        <time>2023-10-07T11:34:47Z</time>
      </trkpt>
      <trkpt lat="48.01963" lon="-0.3958">
        <ele>84.8</ele>
        <time>2023-10-07T11:34:48Z</time>
      </trkpt>
      <trkpt lat="48.01967" lon="-0.39585">
        <ele>88.4</ele>
        <time>2023-10-07T11:34:49Z</time>
      </trkpt>
      <trkpt lat="48.01971" lon="-0.3959">
        <ele>88.4</ele>
        <time>2023-10-07T11:34:50Z</time>
      </trkpt>
      <trkpt lat="48.01975" lon="-0.39596">
        <ele>88.4</ele>
        <time>2023-10-07T11:34:51Z</time>
      </trkpt>
      <trkpt lat="48.01979" lon="-0.39603">
        <ele>87.4</ele>
        <time>2023-10-07T11:34:52Z</time>
      </trkpt>
      <trkpt lat="48.01983" lon="-0.39609">
        <ele>82.6</ele>
        <time>2023-10-07T11:34:53Z</time>
      </trkpt>
      <trkpt lat="48.01987" lon="-0.39616">
        <ele>82.6</ele>
        <time>2023-10-07T11:34:54Z</time>
      </trkpt>
      <trkpt lat="48.01991" lon="-0.39624">
        <ele>82.6</ele>
        <time>2023-10-07T11:34:55Z</time>
      </trkpt>
      <trkpt lat="48.01994" lon="-0.39631">
        <ele>81.6</ele>
        <time>2023-10-07T11:34:56Z</time>
      </trkpt>
      <trkpt lat="48.01998" lon="-0.39638">
        <ele>82</ele>
        <time>2023-10-07T11:34:57Z</time>
      </trkpt>
      <trkpt lat="48.02001" lon="-0.39645">
        <ele>82</ele>
        <time>2023-10-07T11:34:58Z</time>
      </trkpt>
      <trkpt lat="48.02005" lon="-0.39651">
        <ele>82</ele>
        <time>2023-10-07T11:34:59Z</time>
      </trkpt>
      <trkpt lat="48.02008" lon="-0.39658">
        <ele>82</ele>
        <time>2023-10-07T11:35:00Z</time>
      </trkpt>
      <trkpt lat="48.02012" lon="-0.39665">
        <ele>82.4</ele>
        <time>2023-10-07T11:35:01Z</time>
      </trkpt>
      <trkpt lat="48.02015" lon="-0.39671">
        <ele>82.4</ele>
        <time>2023-10-07T11:35:02Z</time>
      </trkpt>
      <trkpt lat="48.02019" lon="-0.39677">
        <ele>82.4</ele>
        <time>2023-10-07T11:35:03Z</time>
      </trkpt>
      <trkpt lat="48.02022" lon="-0.39683">
        <ele>82</ele>
        <time>2023-10-07T11:35:04Z</time>
      </trkpt>
      <trkpt lat="48.02025" lon="-0.3969">
        <ele>81.8</ele>
        <time>2023-10-07T11:35:05Z</time>
      </trkpt>
      <trkpt lat="48.02028" lon="-0.39695">
        <ele>81.8</ele>
        <time>2023-10-07T11:35:06Z</time>
      </trkpt>
      <trkpt lat="48.02031" lon="-0.39701">
        <ele>81.8</ele>
        <time>2023-10-07T11:35:07Z</time>
      </trkpt>
      <trkpt lat="48.02034" lon="-0.39707">
        <ele>81.8</ele>
        <time>2023-10-07T11:35:08Z</time>
      </trkpt>
      <trkpt lat="48.02037" lon="-0.39713">
        <ele>82.2</ele>
        <time>2023-10-07T11:35:09Z</time>
      </trkpt>
      <trkpt lat="48.0204" lon="-0.39719">
        <ele>82.2</ele>
        <time>2023-10-07T11:35:10Z</time>
      </trkpt>
      <trkpt lat="48.02043" lon="-0.39725">
        <ele>82.2</ele>
        <time>2023-10-07T11:35:11Z</time>
      </trkpt>
      <trkpt lat="48.02047" lon="-0.39732">
        <ele>82.2</ele>
        <time>2023-10-07T11:35:12Z</time>
      </trkpt>
      <trkpt lat="48.0205" lon="-0.39738">
        <ele>83.6</ele>
        <time>2023-10-07T11:35:13Z</time>
      </trkpt>
      <trkpt lat="48.02053" lon="-0.39745">
        <ele>83.6</ele>
        <time>2023-10-07T11:35:14Z</time>
      </trkpt>
      <trkpt lat="48.02056" lon="-0.39751">
        <ele>83.6</ele>
        <time>2023-10-07T11:35:15Z</time>
      </trkpt>
      <trkpt lat="48.02059" lon="-0.39757">
        <ele>82.8</ele>
        <time>2023-10-07T11:35:16Z</time>
      </trkpt>
      <trkpt lat="48.02062" lon="-0.39764">
        <ele>84.6</ele>
        <time>2023-10-07T11:35:17Z</time>
      </trkpt>
      <trkpt lat="48.02065" lon="-0.39769">
        <ele>84.6</ele>
        <time>2023-10-07T11:35:18Z</time>
      </trkpt>
      <trkpt lat="48.02068" lon="-0.39773">
        <ele>84.6</ele>
        <time>2023-10-07T11:35:19Z</time>
      </trkpt>
      <trkpt lat="48.02071" lon="-0.39778">
        <ele>83.6</ele>
        <time>2023-10-07T11:35:20Z</time>
      </trkpt>
      <trkpt lat="48.02075" lon="-0.39782">
        <ele>84.2</ele>
        <time>2023-10-07T11:35:21Z</time>
      </trkpt>
      <trkpt lat="48.02079" lon="-0.39787">
        <ele>84.2</ele>
        <time>2023-10-07T11:35:22Z</time>
      </trkpt>
      <trkpt lat="48.02083" lon="-0.3979">
        <ele>84.2</ele>
        <time>2023-10-07T11:35:23Z</time>
      </trkpt>
      <trkpt lat="48.02087" lon="-0.39794">
        <ele>84</ele>
        <time>2023-10-07T11:35:24Z</time>
      </trkpt>
      <trkpt lat="48.02091" lon="-0.39797">
        <ele>85</ele>
        <time>2023-10-07T11:35:25Z</time>
      </trkpt>
      <trkpt lat="48.02095" lon="-0.398">
        <ele>85</ele>
        <time>2023-10-07T11:35:26Z</time>
      </trkpt>
      <trkpt lat="48.02098" lon="-0.39803">
        <ele>85</ele>
        <time>2023-10-07T11:35:27Z</time>
      </trkpt>
      <trkpt lat="48.02102" lon="-0.39806">
        <ele>84</ele>
        <time>2023-10-07T11:35:28Z</time>
      </trkpt>
      <trkpt lat="48.02106" lon="-0.39809">
        <ele>85</ele>
        <time>2023-10-07T11:35:29Z</time>
      </trkpt>
      <trkpt lat="48.02109" lon="-0.39811">
        <ele>85</ele>
        <time>2023-10-07T11:35:30Z</time>
      </trkpt>
      <trkpt lat="48.02113" lon="-0.39814">
        <ele>85</ele>
        <time>2023-10-07T11:35:31Z</time>
      </trkpt>
      <trkpt lat="48.02116" lon="-0.39817">
        <ele>85</ele>
        <time>2023-10-07T11:35:32Z</time>
      </trkpt>
      <trkpt lat="48.02119" lon="-0.3982">
        <ele>86.2</ele>
        <time>2023-10-07T11:35:33Z</time>
      </trkpt>
      <trkpt lat="48.02122" lon="-0.39823">
        <ele>86.2</ele>
        <time>2023-10-07T11:35:34Z</time>
      </trkpt>
      <trkpt lat="48.02126" lon="-0.39827">
        <ele>86.2</ele>
        <time>2023-10-07T11:35:35Z</time>
      </trkpt>
      <trkpt lat="48.02129" lon="-0.3983">
        <ele>87.2</ele>
        <time>2023-10-07T11:35:36Z</time>
      </trkpt>
      <trkpt lat="48.02132" lon="-0.39834">
        <ele>86.8</ele>
        <time>2023-10-07T11:35:37Z</time>
      </trkpt>
      <trkpt lat="48.02135" lon="-0.39836">
        <ele>86.8</ele>
        <time>2023-10-07T11:35:38Z</time>
      </trkpt>
      <trkpt lat="48.02139" lon="-0.39838">
        <ele>86.8</ele>
        <time>2023-10-07T11:35:39Z</time>
      </trkpt>
      <trkpt lat="48.02142" lon="-0.3984">
        <ele>86.8</ele>
        <time>2023-10-07T11:35:40Z</time>
      </trkpt>
      <trkpt lat="48.02146" lon="-0.39841">
        <ele>86</ele>
        <time>2023-10-07T11:35:41Z</time>
      </trkpt>
      <trkpt lat="48.02149" lon="-0.39843">
        <ele>86</ele>
        <time>2023-10-07T11:35:42Z</time>
      </trkpt>
      <trkpt lat="48.02153" lon="-0.39844">
        <ele>86</ele>
        <time>2023-10-07T11:35:43Z</time>
      </trkpt>
      <trkpt lat="48.02157" lon="-0.39844">
        <ele>85</ele>
        <time>2023-10-07T11:35:44Z</time>
      </trkpt>
      <trkpt lat="48.02162" lon="-0.39847">
        <ele>85.2</ele>
        <time>2023-10-07T11:35:45Z</time>
      </trkpt>
      <trkpt lat="48.02166" lon="-0.39849">
        <ele>85.2</ele>
        <time>2023-10-07T11:35:46Z</time>
      </trkpt>
      <trkpt lat="48.0217" lon="-0.39853">
        <ele>85.2</ele>
        <time>2023-10-07T11:35:47Z</time>
      </trkpt>
      <trkpt lat="48.02175" lon="-0.39858">
        <ele>84.2</ele>
        <time>2023-10-07T11:35:48Z</time>
      </trkpt>
      <trkpt lat="48.02179" lon="-0.39862">
        <ele>84.2</ele>
        <time>2023-10-07T11:35:49Z</time>
      </trkpt>
      <trkpt lat="48.02182" lon="-0.39867">
        <ele>84.2</ele>
        <time>2023-10-07T11:35:50Z</time>
      </trkpt>
      <trkpt lat="48.02186" lon="-0.39871">
        <ele>84.2</ele>
        <time>2023-10-07T11:35:51Z</time>
      </trkpt>
      <trkpt lat="48.0219" lon="-0.39875">
        <ele>84.2</ele>
        <time>2023-10-07T11:35:52Z</time>
      </trkpt>
      <trkpt lat="48.02193" lon="-0.39878">
        <ele>83.6</ele>
        <time>2023-10-07T11:35:53Z</time>
      </trkpt>
      <trkpt lat="48.02197" lon="-0.39881">
        <ele>83.6</ele>
        <time>2023-10-07T11:35:54Z</time>
      </trkpt>
      <trkpt lat="48.02199" lon="-0.39884">
        <ele>83.6</ele>
        <time>2023-10-07T11:35:55Z</time>
      </trkpt>
      <trkpt lat="48.02202" lon="-0.39887">
        <ele>83</ele>
        <time>2023-10-07T11:35:56Z</time>
      </trkpt>
      <trkpt lat="48.02206" lon="-0.39891">
        <ele>83.2</ele>
        <time>2023-10-07T11:35:57Z</time>
      </trkpt>
      <trkpt lat="48.0221" lon="-0.39894">
        <ele>83.2</ele>
        <time>2023-10-07T11:35:58Z</time>
      </trkpt>
      <trkpt lat="48.02213" lon="-0.39897">
        <ele>83.2</ele>
        <time>2023-10-07T11:35:59Z</time>
      </trkpt>
      <trkpt lat="48.02217" lon="-0.39901">
        <ele>82.4</ele>
        <time>2023-10-07T11:36:00Z</time>
      </trkpt>
      <trkpt lat="48.02221" lon="-0.39906">
        <ele>81</ele>
        <time>2023-10-07T11:36:01Z</time>
      </trkpt>
      <trkpt lat="48.02227" lon="-0.39911">
        <ele>81</ele>
        <time>2023-10-07T11:36:02Z</time>
      </trkpt>
      <trkpt lat="48.0223" lon="-0.39915">
        <ele>81</ele>
        <time>2023-10-07T11:36:03Z</time>
      </trkpt>
      <trkpt lat="48.02233" lon="-0.39919">
        <ele>81.2</ele>
        <time>2023-10-07T11:36:04Z</time>
      </trkpt>
      <trkpt lat="48.02236" lon="-0.39922">
        <ele>80.8</ele>
        <time>2023-10-07T11:36:05Z</time>
      </trkpt>
      <trkpt lat="48.02239" lon="-0.39926">
        <ele>80.8</ele>
        <time>2023-10-07T11:36:06Z</time>
      </trkpt>
      <trkpt lat="48.02242" lon="-0.39931">
        <ele>80.8</ele>
        <time>2023-10-07T11:36:07Z</time>
      </trkpt>
      <trkpt lat="48.02246" lon="-0.39936">
        <ele>80.8</ele>
        <time>2023-10-07T11:36:08Z</time>
      </trkpt>
      <trkpt lat="48.02251" lon="-0.39942">
        <ele>81.2</ele>
        <time>2023-10-07T11:36:09Z</time>
      </trkpt>
      <trkpt lat="48.02256" lon="-0.39947">
        <ele>81.2</ele>
        <time>2023-10-07T11:36:10Z</time>
      </trkpt>
      <trkpt lat="48.02262" lon="-0.39952">
        <ele>81.2</ele>
        <time>2023-10-07T11:36:11Z</time>
      </trkpt>
      <trkpt lat="48.02269" lon="-0.39959">
        <ele>81.2</ele>
        <time>2023-10-07T11:36:12Z</time>
      </trkpt>
      <trkpt lat="48.02274" lon="-0.39963">
        <ele>79.4</ele>
        <time>2023-10-07T11:36:13Z</time>
      </trkpt>
      <trkpt lat="48.02279" lon="-0.39967">
        <ele>79.4</ele>
        <time>2023-10-07T11:36:14Z</time>
      </trkpt>
      <trkpt lat="48.02285" lon="-0.3997">
        <ele>79.4</ele>
        <time>2023-10-07T11:36:15Z</time>
      </trkpt>
      <trkpt lat="48.02291" lon="-0.39973">
        <ele>80.2</ele>
        <time>2023-10-07T11:36:16Z</time>
      </trkpt>
      <trkpt lat="48.02297" lon="-0.39977">
        <ele>80.8</ele>
        <time>2023-10-07T11:36:17Z</time>
      </trkpt>
      <trkpt lat="48.02302" lon="-0.39979">
        <ele>80.8</ele>
        <time>2023-10-07T11:36:18Z</time>
      </trkpt>
      <trkpt lat="48.02307" lon="-0.39982">
        <ele>80.8</ele>
        <time>2023-10-07T11:36:19Z</time>
      </trkpt>
      <trkpt lat="48.02311" lon="-0.39986">
        <ele>80.8</ele>
        <time>2023-10-07T11:36:20Z</time>
      </trkpt>
      <trkpt lat="48.02316" lon="-0.39991">
        <ele>81</ele>
        <time>2023-10-07T11:36:21Z</time>
      </trkpt>
      <trkpt lat="48.02319" lon="-0.39995">
        <ele>81</ele>
        <time>2023-10-07T11:36:22Z</time>
      </trkpt>
      <trkpt lat="48.02323" lon="-0.39998">
        <ele>81</ele>
        <time>2023-10-07T11:36:23Z</time>
      </trkpt>
      <trkpt lat="48.02327" lon="-0.40001">
        <ele>81</ele>
        <time>2023-10-07T11:36:24Z</time>
      </trkpt>
      <trkpt lat="48.02331" lon="-0.40004">
        <ele>81</ele>
        <time>2023-10-07T11:36:25Z</time>
      </trkpt>
      <trkpt lat="48.02335" lon="-0.40007">
        <ele>81</ele>
        <time>2023-10-07T11:36:26Z</time>
      </trkpt>
      <trkpt lat="48.0234" lon="-0.40009">
        <ele>81</ele>
        <time>2023-10-07T11:36:27Z</time>
      </trkpt>
      <trkpt lat="48.02344" lon="-0.40012">
        <ele>81</ele>
        <time>2023-10-07T11:36:28Z</time>
      </trkpt>
      <trkpt lat="48.02349" lon="-0.40015">
        <ele>82.4</ele>
        <time>2023-10-07T11:36:29Z</time>
      </trkpt>
      <trkpt lat="48.02353" lon="-0.40018">
        <ele>82.4</ele>
        <time>2023-10-07T11:36:30Z</time>
      </trkpt>
      <trkpt lat="48.02357" lon="-0.40022">
        <ele>82.4</ele>
        <time>2023-10-07T11:36:31Z</time>
      </trkpt>
      <trkpt lat="48.02361" lon="-0.40025">
        <ele>82.4</ele>
        <time>2023-10-07T11:36:32Z</time>
      </trkpt>
      <trkpt lat="48.02364" lon="-0.40027">
        <ele>82</ele>
        <time>2023-10-07T11:36:33Z</time>
      </trkpt>
      <trkpt lat="48.02368" lon="-0.4003">
        <ele>82</ele>
        <time>2023-10-07T11:36:34Z</time>
      </trkpt>
      <trkpt lat="48.02373" lon="-0.40033">
        <ele>82</ele>
        <time>2023-10-07T11:36:35Z</time>
      </trkpt>
      <trkpt lat="48.02377" lon="-0.40036">
        <ele>82.4</ele>
        <time>2023-10-07T11:36:36Z</time>
      </trkpt>
      <trkpt lat="48.02381" lon="-0.40037">
        <ele>83.6</ele>
        <time>2023-10-07T11:36:37Z</time>
      </trkpt>
      <trkpt lat="48.02385" lon="-0.40038">
        <ele>83.6</ele>
        <time>2023-10-07T11:36:38Z</time>
      </trkpt>
      <trkpt lat="48.02389" lon="-0.40039">
        <ele>83.6</ele>
        <time>2023-10-07T11:36:39Z</time>
      </trkpt>
      <trkpt lat="48.02393" lon="-0.40039">
        <ele>83.6</ele>
        <time>2023-10-07T11:36:40Z</time>
      </trkpt>
      <trkpt lat="48.02397" lon="-0.4004">
        <ele>84</ele>
        <time>2023-10-07T11:36:41Z</time>
      </trkpt>
      <trkpt lat="48.02401" lon="-0.4004">
        <ele>84</ele>
        <time>2023-10-07T11:36:42Z</time>
      </trkpt>
      <trkpt lat="48.02405" lon="-0.40041">
        <ele>84</ele>
        <time>2023-10-07T11:36:43Z</time>
      </trkpt>
      <trkpt lat="48.02409" lon="-0.40041">
        <ele>85</ele>
        <time>2023-10-07T11:36:44Z</time>
      </trkpt>
      <trkpt lat="48.02413" lon="-0.40042">
        <ele>85.6</ele>
        <time>2023-10-07T11:36:45Z</time>
      </trkpt>
      <trkpt lat="48.02417" lon="-0.40042">
        <ele>85.6</ele>
        <time>2023-10-07T11:36:46Z</time>
      </trkpt>
      <trkpt lat="48.02421" lon="-0.40043">
        <ele>85.6</ele>
        <time>2023-10-07T11:36:47Z</time>
      </trkpt>
      <trkpt lat="48.02425" lon="-0.40044">
        <ele>85.6</ele>
        <time>2023-10-07T11:36:48Z</time>
      </trkpt>
      <trkpt lat="48.0243" lon="-0.40044">
        <ele>85.8</ele>
        <time>2023-10-07T11:36:49Z</time>
      </trkpt>
      <trkpt lat="48.02434" lon="-0.40045">
        <ele>85.8</ele>
        <time>2023-10-07T11:36:50Z</time>
      </trkpt>
      <trkpt lat="48.02437" lon="-0.40046">
        <ele>85.8</ele>
        <time>2023-10-07T11:36:51Z</time>
      </trkpt>
      <trkpt lat="48.02441" lon="-0.40047">
        <ele>86.8</ele>
        <time>2023-10-07T11:36:52Z</time>
      </trkpt>
      <trkpt lat="48.02445" lon="-0.40048">
        <ele>87.2</ele>
        <time>2023-10-07T11:36:53Z</time>
      </trkpt>
      <trkpt lat="48.02448" lon="-0.4005">
        <ele>87.2</ele>
        <time>2023-10-07T11:36:54Z</time>
      </trkpt>
      <trkpt lat="48.02452" lon="-0.40051">
        <ele>87.2</ele>
        <time>2023-10-07T11:36:55Z</time>
      </trkpt>
      <trkpt lat="48.02456" lon="-0.40053">
        <ele>88</ele>
        <time>2023-10-07T11:36:56Z</time>
      </trkpt>
      <trkpt lat="48.02459" lon="-0.40055">
        <ele>88.2</ele>
        <time>2023-10-07T11:36:57Z</time>
      </trkpt>
      <trkpt lat="48.02463" lon="-0.40056">
        <ele>88.2</ele>
        <time>2023-10-07T11:36:58Z</time>
      </trkpt>
      <trkpt lat="48.02466" lon="-0.40058">
        <ele>88.2</ele>
        <time>2023-10-07T11:36:59Z</time>
      </trkpt>
      <trkpt lat="48.0247" lon="-0.4006">
        <ele>88.2</ele>
        <time>2023-10-07T11:37:00Z</time>
      </trkpt>
      <trkpt lat="48.02473" lon="-0.40062">
        <ele>88.2</ele>
        <time>2023-10-07T11:37:01Z</time>
      </trkpt>
      <trkpt lat="48.02476" lon="-0.40064">
        <ele>88.2</ele>
        <time>2023-10-07T11:37:02Z</time>
      </trkpt>
      <trkpt lat="48.0248" lon="-0.40065">
        <ele>88.2</ele>
        <time>2023-10-07T11:37:03Z</time>
      </trkpt>
      <trkpt lat="48.02483" lon="-0.40067">
        <ele>89</ele>
        <time>2023-10-07T11:37:04Z</time>
      </trkpt>
      <trkpt lat="48.02486" lon="-0.40067">
        <ele>88.8</ele>
        <time>2023-10-07T11:37:05Z</time>
      </trkpt>
      <trkpt lat="48.0249" lon="-0.40068">
        <ele>88.8</ele>
        <time>2023-10-07T11:37:06Z</time>
      </trkpt>
      <trkpt lat="48.02493" lon="-0.40069">
        <ele>88.8</ele>
        <time>2023-10-07T11:37:07Z</time>
      </trkpt>
      <trkpt lat="48.02496" lon="-0.4007">
        <ele>89.8</ele>
        <time>2023-10-07T11:37:08Z</time>
      </trkpt>
      <trkpt lat="48.02499" lon="-0.40071">
        <ele>89.8</ele>
        <time>2023-10-07T11:37:09Z</time>
      </trkpt>
      <trkpt lat="48.02502" lon="-0.40071">
        <ele>89.8</ele>
        <time>2023-10-07T11:37:10Z</time>
      </trkpt>
      <trkpt lat="48.02505" lon="-0.40072">
        <ele>89.8</ele>
        <time>2023-10-07T11:37:11Z</time>
      </trkpt>
      <trkpt lat="48.02508" lon="-0.40073">
        <ele>90.8</ele>
        <time>2023-10-07T11:37:12Z</time>
      </trkpt>
      <trkpt lat="48.02512" lon="-0.40075">
        <ele>91.8</ele>
        <time>2023-10-07T11:37:13Z</time>
      </trkpt>
      <trkpt lat="48.02515" lon="-0.40077">
        <ele>91.8</ele>
        <time>2023-10-07T11:37:14Z</time>
      </trkpt>
      <trkpt lat="48.02518" lon="-0.40078">
        <ele>91.8</ele>
        <time>2023-10-07T11:37:15Z</time>
      </trkpt>
      <trkpt lat="48.02521" lon="-0.4008">
        <ele>91.2</ele>
        <time>2023-10-07T11:37:16Z</time>
      </trkpt>
      <trkpt lat="48.02524" lon="-0.40083">
        <ele>91.4</ele>
        <time>2023-10-07T11:37:17Z</time>
      </trkpt>
      <trkpt lat="48.02527" lon="-0.40085">
        <ele>91.4</ele>
        <time>2023-10-07T11:37:18Z</time>
      </trkpt>
      <trkpt lat="48.02529" lon="-0.40088">
        <ele>91.4</ele>
        <time>2023-10-07T11:37:19Z</time>
      </trkpt>
      <trkpt lat="48.02532" lon="-0.40091">
        <ele>91.4</ele>
        <time>2023-10-07T11:37:20Z</time>
      </trkpt>
      <trkpt lat="48.02535" lon="-0.40093">
        <ele>91.8</ele>
        <time>2023-10-07T11:37:21Z</time>
      </trkpt>
      <trkpt lat="48.02538" lon="-0.40096">
        <ele>91.8</ele>
        <time>2023-10-07T11:37:22Z</time>
      </trkpt>
      <trkpt lat="48.02541" lon="-0.40099">
        <ele>91.8</ele>
        <time>2023-10-07T11:37:23Z</time>
      </trkpt>
      <trkpt lat="48.02544" lon="-0.40103">
        <ele>92.2</ele>
        <time>2023-10-07T11:37:24Z</time>
      </trkpt>
      <trkpt lat="48.02546" lon="-0.40105">
        <ele>92.6</ele>
        <time>2023-10-07T11:37:25Z</time>
      </trkpt>
      <trkpt lat="48.02549" lon="-0.40108">
        <ele>92.6</ele>
        <time>2023-10-07T11:37:26Z</time>
      </trkpt>
      <trkpt lat="48.02551" lon="-0.4011">
        <ele>92.6</ele>
        <time>2023-10-07T11:37:27Z</time>
      </trkpt>
      <trkpt lat="48.02553" lon="-0.40113">
        <ele>92.6</ele>
        <time>2023-10-07T11:37:28Z</time>
      </trkpt>
      <trkpt lat="48.02556" lon="-0.40115">
        <ele>93.4</ele>
        <time>2023-10-07T11:37:29Z</time>
      </trkpt>
      <trkpt lat="48.02559" lon="-0.40116">
        <ele>93.4</ele>
        <time>2023-10-07T11:37:30Z</time>
      </trkpt>
      <trkpt lat="48.02561" lon="-0.40116">
        <ele>93.4</ele>
        <time>2023-10-07T11:37:31Z</time>
      </trkpt>
      <trkpt lat="48.02563" lon="-0.40114">
        <ele>94.2</ele>
        <time>2023-10-07T11:37:32Z</time>
      </trkpt>
      <trkpt lat="48.02564" lon="-0.40111">
        <ele>94.4</ele>
        <time>2023-10-07T11:37:33Z</time>
      </trkpt>
      <trkpt lat="48.02564" lon="-0.40108">
        <ele>94.4</ele>
        <time>2023-10-07T11:37:34Z</time>
      </trkpt>
      <trkpt lat="48.02565" lon="-0.40104">
        <ele>94.4</ele>
        <time>2023-10-07T11:37:35Z</time>
      </trkpt>
      <trkpt lat="48.02565" lon="-0.401">
        <ele>94.4</ele>
        <time>2023-10-07T11:37:36Z</time>
      </trkpt>
      <trkpt lat="48.02565" lon="-0.40095">
        <ele>94</ele>
        <time>2023-10-07T11:37:37Z</time>
      </trkpt>
      <trkpt lat="48.02565" lon="-0.4009">
        <ele>94</ele>
        <time>2023-10-07T11:37:38Z</time>
      </trkpt>
      <trkpt lat="48.02564" lon="-0.40085">
        <ele>94</ele>
        <time>2023-10-07T11:37:39Z</time>
      </trkpt>
      <trkpt lat="48.02563" lon="-0.40079">
        <ele>94</ele>
        <time>2023-10-07T11:37:40Z</time>
      </trkpt>
      <trkpt lat="48.02563" lon="-0.40073">
        <ele>93.2</ele>
        <time>2023-10-07T11:37:41Z</time>
      </trkpt>
      <trkpt lat="48.02563" lon="-0.40067">
        <ele>93.2</ele>
        <time>2023-10-07T11:37:42Z</time>
      </trkpt>
      <trkpt lat="48.02562" lon="-0.4006">
        <ele>93.2</ele>
        <time>2023-10-07T11:37:43Z</time>
      </trkpt>
      <trkpt lat="48.02561" lon="-0.40052">
        <ele>92.2</ele>
        <time>2023-10-07T11:37:44Z</time>
      </trkpt>
      <trkpt lat="48.0256" lon="-0.40044">
        <ele>92.2</ele>
        <time>2023-10-07T11:37:45Z</time>
      </trkpt>
      <trkpt lat="48.02559" lon="-0.40036">
        <ele>92.2</ele>
        <time>2023-10-07T11:37:46Z</time>
      </trkpt>
      <trkpt lat="48.02559" lon="-0.40028">
        <ele>92.2</ele>
        <time>2023-10-07T11:37:47Z</time>
      </trkpt>
      <trkpt lat="48.02558" lon="-0.40019">
        <ele>91.2</ele>
        <time>2023-10-07T11:37:48Z</time>
      </trkpt>
      <trkpt lat="48.02557" lon="-0.4001">
        <ele>91.2</ele>
        <time>2023-10-07T11:37:49Z</time>
      </trkpt>
      <trkpt lat="48.02556" lon="-0.4">
        <ele>91.2</ele>
        <time>2023-10-07T11:37:50Z</time>
      </trkpt>
      <trkpt lat="48.02556" lon="-0.3999">
        <ele>91.2</ele>
        <time>2023-10-07T11:37:51Z</time>
      </trkpt>
      <trkpt lat="48.02555" lon="-0.3998">
        <ele>90.2</ele>
        <time>2023-10-07T11:37:52Z</time>
      </trkpt>
      <trkpt lat="48.02555" lon="-0.3997">
        <ele>88.6</ele>
        <time>2023-10-07T11:37:53Z</time>
      </trkpt>
      <trkpt lat="48.02555" lon="-0.39959">
        <ele>88.6</ele>
        <time>2023-10-07T11:37:54Z</time>
      </trkpt>
      <trkpt lat="48.02556" lon="-0.39948">
        <ele>88.6</ele>
        <time>2023-10-07T11:37:55Z</time>
      </trkpt>
      <trkpt lat="48.02556" lon="-0.39936">
        <ele>87.6</ele>
        <time>2023-10-07T11:37:56Z</time>
      </trkpt>
      <trkpt lat="48.02557" lon="-0.39924">
        <ele>86.2</ele>
        <time>2023-10-07T11:37:57Z</time>
      </trkpt>
      <trkpt lat="48.02558" lon="-0.39911">
        <ele>86.2</ele>
        <time>2023-10-07T11:37:58Z</time>
      </trkpt>
      <trkpt lat="48.02559" lon="-0.39899">
        <ele>86.2</ele>
        <time>2023-10-07T11:37:59Z</time>
      </trkpt>
      <trkpt lat="48.02561" lon="-0.39885">
        <ele>85.2</ele>
        <time>2023-10-07T11:38:00Z</time>
      </trkpt>
      <trkpt lat="48.02563" lon="-0.39872">
        <ele>82</ele>
        <time>2023-10-07T11:38:01Z</time>
      </trkpt>
      <trkpt lat="48.02565" lon="-0.39859">
        <ele>82</ele>
        <time>2023-10-07T11:38:02Z</time>
      </trkpt>
      <trkpt lat="48.02569" lon="-0.39846">
        <ele>82</ele>
        <time>2023-10-07T11:38:03Z</time>
      </trkpt>
      <trkpt lat="48.02572" lon="-0.39833">
        <ele>81.6</ele>
        <time>2023-10-07T11:38:04Z</time>
      </trkpt>
      <trkpt lat="48.02576" lon="-0.39821">
        <ele>82</ele>
        <time>2023-10-07T11:38:05Z</time>
      </trkpt>
      <trkpt lat="48.02579" lon="-0.39809">
        <ele>82</ele>
        <time>2023-10-07T11:38:06Z</time>
      </trkpt>
      <trkpt lat="48.02583" lon="-0.39798">
        <ele>82</ele>
        <time>2023-10-07T11:38:07Z</time>
      </trkpt>
      <trkpt lat="48.02586" lon="-0.39787">
        <ele>82</ele>
        <time>2023-10-07T11:38:08Z</time>
      </trkpt>
      <trkpt lat="48.0259" lon="-0.39778">
        <ele>84</ele>
        <time>2023-10-07T11:38:09Z</time>
      </trkpt>
      <trkpt lat="48.02594" lon="-0.39769">
        <ele>84</ele>
        <time>2023-10-07T11:38:10Z</time>
      </trkpt>
      <trkpt lat="48.02597" lon="-0.39761">
        <ele>84</ele>
        <time>2023-10-07T11:38:11Z</time>
      </trkpt>
      <trkpt lat="48.02601" lon="-0.39753">
        <ele>85</ele>
        <time>2023-10-07T11:38:12Z</time>
      </trkpt>
      <trkpt lat="48.02604" lon="-0.39746">
        <ele>86.6</ele>
        <time>2023-10-07T11:38:13Z</time>
      </trkpt>
      <trkpt lat="48.02608" lon="-0.3974">
        <ele>86.6</ele>
        <time>2023-10-07T11:38:14Z</time>
      </trkpt>
      <trkpt lat="48.02611" lon="-0.39734">
        <ele>86.6</ele>
        <time>2023-10-07T11:38:15Z</time>
      </trkpt>
      <trkpt lat="48.02614" lon="-0.39728">
        <ele>87.6</ele>
        <time>2023-10-07T11:38:16Z</time>
      </trkpt>
      <trkpt lat="48.02617" lon="-0.39723">
        <ele>88.6</ele>
        <time>2023-10-07T11:38:17Z</time>
      </trkpt>
      <trkpt lat="48.0262" lon="-0.39719">
        <ele>88.6</ele>
        <time>2023-10-07T11:38:18Z</time>
      </trkpt>
      <trkpt lat="48.02622" lon="-0.39715">
        <ele>88.6</ele>
        <time>2023-10-07T11:38:19Z</time>
      </trkpt>
      <trkpt lat="48.02625" lon="-0.39711">
        <ele>89.6</ele>
        <time>2023-10-07T11:38:20Z</time>
      </trkpt>
      <trkpt lat="48.02627" lon="-0.39708">
        <ele>90.6</ele>
        <time>2023-10-07T11:38:21Z</time>
      </trkpt>
      <trkpt lat="48.0263" lon="-0.39704">
        <ele>90.6</ele>
        <time>2023-10-07T11:38:22Z</time>
      </trkpt>
      <trkpt lat="48.02632" lon="-0.39701">
        <ele>90.6</ele>
        <time>2023-10-07T11:38:23Z</time>
      </trkpt>
      <trkpt lat="48.02634" lon="-0.39698">
        <ele>90.6</ele>
        <time>2023-10-07T11:38:24Z</time>
      </trkpt>
      <trkpt lat="48.02636" lon="-0.39696">
        <ele>91.6</ele>
        <time>2023-10-07T11:38:25Z</time>
      </trkpt>
      <trkpt lat="48.02638" lon="-0.39694">
        <ele>91.6</ele>
        <time>2023-10-07T11:38:26Z</time>
      </trkpt>
      <trkpt lat="48.0264" lon="-0.39692">
        <ele>91.6</ele>
        <time>2023-10-07T11:38:27Z</time>
      </trkpt>
      <trkpt lat="48.02642" lon="-0.3969">
        <ele>92.4</ele>
        <time>2023-10-07T11:38:28Z</time>
      </trkpt>
      <trkpt lat="48.02644" lon="-0.39688">
        <ele>92.8</ele>
        <time>2023-10-07T11:38:29Z</time>
      </trkpt>
      <trkpt lat="48.02646" lon="-0.39685">
        <ele>92.8</ele>
        <time>2023-10-07T11:38:30Z</time>
      </trkpt>
      <trkpt lat="48.02648" lon="-0.39683">
        <ele>92.8</ele>
        <time>2023-10-07T11:38:31Z</time>
      </trkpt>
      <trkpt lat="48.0265" lon="-0.3968">
        <ele>93.8</ele>
        <time>2023-10-07T11:38:32Z</time>
      </trkpt>
      <trkpt lat="48.02652" lon="-0.39678">
        <ele>94.4</ele>
        <time>2023-10-07T11:38:33Z</time>
      </trkpt>
      <trkpt lat="48.02654" lon="-0.39676">
        <ele>94.4</ele>
        <time>2023-10-07T11:38:34Z</time>
      </trkpt>
      <trkpt lat="48.02656" lon="-0.39674">
        <ele>94.4</ele>
        <time>2023-10-07T11:38:35Z</time>
      </trkpt>
      <trkpt lat="48.02659" lon="-0.39672">
        <ele>94.4</ele>
        <time>2023-10-07T11:38:36Z</time>
      </trkpt>
      <trkpt lat="48.02661" lon="-0.3967">
        <ele>95.4</ele>
        <time>2023-10-07T11:38:37Z</time>
      </trkpt>
      <trkpt lat="48.02663" lon="-0.39669">
        <ele>95.4</ele>
        <time>2023-10-07T11:38:38Z</time>
      </trkpt>
      <trkpt lat="48.02665" lon="-0.39667">
        <ele>95.4</ele>
        <time>2023-10-07T11:38:39Z</time>
      </trkpt>
      <trkpt lat="48.02667" lon="-0.39665">
        <ele>96.2</ele>
        <time>2023-10-07T11:38:40Z</time>
      </trkpt>
      <trkpt lat="48.02669" lon="-0.39663">
        <ele>96.8</ele>
        <time>2023-10-07T11:38:41Z</time>
      </trkpt>
      <trkpt lat="48.02671" lon="-0.39661">
        <ele>96.8</ele>
        <time>2023-10-07T11:38:42Z</time>
      </trkpt>
      <trkpt lat="48.02674" lon="-0.39659">
        <ele>96.8</ele>
        <time>2023-10-07T11:38:43Z</time>
      </trkpt>
      <trkpt lat="48.02676" lon="-0.39658">
        <ele>97.2</ele>
        <time>2023-10-07T11:38:44Z</time>
      </trkpt>
      <trkpt lat="48.02678" lon="-0.39656">
        <ele>97.4</ele>
        <time>2023-10-07T11:38:45Z</time>
      </trkpt>
      <trkpt lat="48.0268" lon="-0.39655">
        <ele>97.4</ele>
        <time>2023-10-07T11:38:46Z</time>
      </trkpt>
      <trkpt lat="48.02682" lon="-0.39653">
        <ele>97.4</ele>
        <time>2023-10-07T11:38:47Z</time>
      </trkpt>
      <trkpt lat="48.02684" lon="-0.39651">
        <ele>98.4</ele>
        <time>2023-10-07T11:38:48Z</time>
      </trkpt>
      <trkpt lat="48.02685" lon="-0.39649">
        <ele>98.8</ele>
        <time>2023-10-07T11:38:49Z</time>
      </trkpt>
      <trkpt lat="48.02688" lon="-0.39648">
        <ele>98.8</ele>
        <time>2023-10-07T11:38:50Z</time>
      </trkpt>
      <trkpt lat="48.02689" lon="-0.39646">
        <ele>98.8</ele>
        <time>2023-10-07T11:38:51Z</time>
      </trkpt>
      <trkpt lat="48.02691" lon="-0.39644">
        <ele>99.8</ele>
        <time>2023-10-07T11:38:52Z</time>
      </trkpt>
      <trkpt lat="48.02693" lon="-0.39642">
        <ele>100.2</ele>
        <time>2023-10-07T11:38:53Z</time>
      </trkpt>
      <trkpt lat="48.02695" lon="-0.39641">
        <ele>100.2</ele>
        <time>2023-10-07T11:38:54Z</time>
      </trkpt>
      <trkpt lat="48.02697" lon="-0.39639">
        <ele>100.2</ele>
        <time>2023-10-07T11:38:55Z</time>
      </trkpt>
      <trkpt lat="48.02699" lon="-0.39637">
        <ele>100.2</ele>
        <time>2023-10-07T11:38:56Z</time>
      </trkpt>
      <trkpt lat="48.02701" lon="-0.39635">
        <ele>100.6</ele>
        <time>2023-10-07T11:38:57Z</time>
      </trkpt>
      <trkpt lat="48.02704" lon="-0.39634">
        <ele>100.6</ele>
        <time>2023-10-07T11:38:58Z</time>
      </trkpt>
      <trkpt lat="48.02706" lon="-0.39632">
        <ele>100.6</ele>
        <time>2023-10-07T11:38:59Z</time>
      </trkpt>
      <trkpt lat="48.02708" lon="-0.3963">
        <ele>100.6</ele>
        <time>2023-10-07T11:39:00Z</time>
      </trkpt>
      <trkpt lat="48.0271" lon="-0.39629">
        <ele>102</ele>
        <time>2023-10-07T11:39:01Z</time>
      </trkpt>
      <trkpt lat="48.02713" lon="-0.39627">
        <ele>102</ele>
        <time>2023-10-07T11:39:02Z</time>
      </trkpt>
      <trkpt lat="48.02715" lon="-0.39625">
        <ele>102</ele>
        <time>2023-10-07T11:39:03Z</time>
      </trkpt>
      <trkpt lat="48.02717" lon="-0.39624">
        <ele>103</ele>
        <time>2023-10-07T11:39:04Z</time>
      </trkpt>
      <trkpt lat="48.02719" lon="-0.39623">
        <ele>102.6</ele>
        <time>2023-10-07T11:39:05Z</time>
      </trkpt>
      <trkpt lat="48.02722" lon="-0.39622">
        <ele>102.6</ele>
        <time>2023-10-07T11:39:06Z</time>
      </trkpt>
      <trkpt lat="48.02724" lon="-0.3962">
        <ele>102.6</ele>
        <time>2023-10-07T11:39:07Z</time>
      </trkpt>
      <trkpt lat="48.02726" lon="-0.39618">
        <ele>103.6</ele>
        <time>2023-10-07T11:39:08Z</time>
      </trkpt>
      <trkpt lat="48.02728" lon="-0.39615">
        <ele>103.8</ele>
        <time>2023-10-07T11:39:09Z</time>
      </trkpt>
      <trkpt lat="48.0273" lon="-0.39613">
        <ele>103.8</ele>
        <time>2023-10-07T11:39:10Z</time>
      </trkpt>
      <trkpt lat="48.02732" lon="-0.39611">
        <ele>103.8</ele>
        <time>2023-10-07T11:39:11Z</time>
      </trkpt>
      <trkpt lat="48.02734" lon="-0.3961">
        <ele>103.8</ele>
        <time>2023-10-07T11:39:12Z</time>
      </trkpt>
      <trkpt lat="48.02737" lon="-0.39608">
        <ele>104.4</ele>
        <time>2023-10-07T11:39:13Z</time>
      </trkpt>
      <trkpt lat="48.02739" lon="-0.39607">
        <ele>104.4</ele>
        <time>2023-10-07T11:39:14Z</time>
      </trkpt>
      <trkpt lat="48.02741" lon="-0.39605">
        <ele>104.4</ele>
        <time>2023-10-07T11:39:15Z</time>
      </trkpt>
      <trkpt lat="48.02743" lon="-0.39603">
        <ele>104.4</ele>
        <time>2023-10-07T11:39:16Z</time>
      </trkpt>
      <trkpt lat="48.02745" lon="-0.39601">
        <ele>104.6</ele>
        <time>2023-10-07T11:39:17Z</time>
      </trkpt>
      <trkpt lat="48.02747" lon="-0.396">
        <ele>104.6</ele>
        <time>2023-10-07T11:39:18Z</time>
      </trkpt>
      <trkpt lat="48.0275" lon="-0.39598">
        <ele>104.6</ele>
        <time>2023-10-07T11:39:19Z</time>
      </trkpt>
      <trkpt lat="48.02752" lon="-0.39596">
        <ele>104.6</ele>
        <time>2023-10-07T11:39:20Z</time>
      </trkpt>
      <trkpt lat="48.02754" lon="-0.39594">
        <ele>105.2</ele>
        <time>2023-10-07T11:39:21Z</time>
      </trkpt>
      <trkpt lat="48.02756" lon="-0.39592">
        <ele>105.2</ele>
        <time>2023-10-07T11:39:22Z</time>
      </trkpt>
      <trkpt lat="48.02759" lon="-0.3959">
        <ele>105.2</ele>
        <time>2023-10-07T11:39:23Z</time>
      </trkpt>
      <trkpt lat="48.02761" lon="-0.39588">
        <ele>105</ele>
        <time>2023-10-07T11:39:24Z</time>
      </trkpt>
      <trkpt lat="48.02764" lon="-0.39586">
        <ele>104.6</ele>
        <time>2023-10-07T11:39:25Z</time>
      </trkpt>
      <trkpt lat="48.02766" lon="-0.39583">
        <ele>104.6</ele>
        <time>2023-10-07T11:39:26Z</time>
      </trkpt>
      <trkpt lat="48.02769" lon="-0.39581">
        <ele>104.6</ele>
        <time>2023-10-07T11:39:27Z</time>
      </trkpt>
      <trkpt lat="48.02772" lon="-0.39578">
        <ele>104.2</ele>
        <time>2023-10-07T11:39:28Z</time>
      </trkpt>
      <trkpt lat="48.02775" lon="-0.39575">
        <ele>104</ele>
        <time>2023-10-07T11:39:29Z</time>
      </trkpt>
      <trkpt lat="48.02778" lon="-0.39572">
        <ele>104</ele>
        <time>2023-10-07T11:39:30Z</time>
      </trkpt>
      <trkpt lat="48.02782" lon="-0.39569">
        <ele>104</ele>
        <time>2023-10-07T11:39:31Z</time>
      </trkpt>
      <trkpt lat="48.02785" lon="-0.39566">
        <ele>104</ele>
        <time>2023-10-07T11:39:32Z</time>
      </trkpt>
      <trkpt lat="48.02788" lon="-0.39562">
        <ele>103.8</ele>
        <time>2023-10-07T11:39:33Z</time>
      </trkpt>
      <trkpt lat="48.02791" lon="-0.39558">
        <ele>103.8</ele>
        <time>2023-10-07T11:39:34Z</time>
      </trkpt>
      <trkpt lat="48.02795" lon="-0.39554">
        <ele>103.8</ele>
        <time>2023-10-07T11:39:35Z</time>
      </trkpt>
      <trkpt lat="48.02799" lon="-0.39549">
        <ele>102.8</ele>
        <time>2023-10-07T11:39:36Z</time>
      </trkpt>
      <trkpt lat="48.02803" lon="-0.39544">
        <ele>102.2</ele>
        <time>2023-10-07T11:39:37Z</time>
      </trkpt>
      <trkpt lat="48.02807" lon="-0.39539">
        <ele>102.2</ele>
        <time>2023-10-07T11:39:38Z</time>
      </trkpt>
      <trkpt lat="48.02812" lon="-0.39533">
        <ele>102.2</ele>
        <time>2023-10-07T11:39:39Z</time>
      </trkpt>
      <trkpt lat="48.02816" lon="-0.39526">
        <ele>101.2</ele>
        <time>2023-10-07T11:39:40Z</time>
      </trkpt>
      <trkpt lat="48.02821" lon="-0.39519">
        <ele>99.4</ele>
        <time>2023-10-07T11:39:41Z</time>
      </trkpt>
      <trkpt lat="48.02825" lon="-0.39512">
        <ele>99.4</ele>
        <time>2023-10-07T11:39:42Z</time>
      </trkpt>
      <trkpt lat="48.0283" lon="-0.39504">
        <ele>99.4</ele>
        <time>2023-10-07T11:39:43Z</time>
      </trkpt>
      <trkpt lat="48.02834" lon="-0.39495">
        <ele>98.4</ele>
        <time>2023-10-07T11:39:44Z</time>
      </trkpt>
      <trkpt lat="48.02839" lon="-0.39486">
        <ele>95.6</ele>
        <time>2023-10-07T11:39:45Z</time>
      </trkpt>
      <trkpt lat="48.02844" lon="-0.39477">
        <ele>95.6</ele>
        <time>2023-10-07T11:39:46Z</time>
      </trkpt>
      <trkpt lat="48.02849" lon="-0.39468">
        <ele>95.6</ele>
        <time>2023-10-07T11:39:47Z</time>
      </trkpt>
      <trkpt lat="48.02853" lon="-0.39458">
        <ele>95.6</ele>
        <time>2023-10-07T11:39:48Z</time>
      </trkpt>
      <trkpt lat="48.02857" lon="-0.39447">
        <ele>92.4</ele>
        <time>2023-10-07T11:39:49Z</time>
      </trkpt>
      <trkpt lat="48.02861" lon="-0.39437">
        <ele>92.4</ele>
        <time>2023-10-07T11:39:50Z</time>
      </trkpt>
      <trkpt lat="48.02866" lon="-0.39426">
        <ele>92.4</ele>
        <time>2023-10-07T11:39:51Z</time>
      </trkpt>
      <trkpt lat="48.0287" lon="-0.39416">
        <ele>91.8</ele>
        <time>2023-10-07T11:39:52Z</time>
      </trkpt>
      <trkpt lat="48.02873" lon="-0.39405">
        <ele>90</ele>
        <time>2023-10-07T11:39:53Z</time>
      </trkpt>
      <trkpt lat="48.02877" lon="-0.39393">
        <ele>90</ele>
        <time>2023-10-07T11:39:54Z</time>
      </trkpt>
      <trkpt lat="48.02879" lon="-0.39382">
        <ele>90</ele>
        <time>2023-10-07T11:39:55Z</time>
      </trkpt>
      <trkpt lat="48.02882" lon="-0.3937">
        <ele>90.8</ele>
        <time>2023-10-07T11:39:56Z</time>
      </trkpt>
      <trkpt lat="48.02885" lon="-0.39358">
        <ele>90</ele>
        <time>2023-10-07T11:39:57Z</time>
      </trkpt>
      <trkpt lat="48.02887" lon="-0.39346">
        <ele>90</ele>
        <time>2023-10-07T11:39:58Z</time>
      </trkpt>
      <trkpt lat="48.02889" lon="-0.39333">
        <ele>90</ele>
        <time>2023-10-07T11:39:59Z</time>
      </trkpt>
      <trkpt lat="48.02891" lon="-0.3932">
        <ele>89</ele>
        <time>2023-10-07T11:40:00Z</time>
      </trkpt>
      <trkpt lat="48.02893" lon="-0.39308">
        <ele>87</ele>
        <time>2023-10-07T11:40:01Z</time>
      </trkpt>
      <trkpt lat="48.02894" lon="-0.39295">
        <ele>87</ele>
        <time>2023-10-07T11:40:02Z</time>
      </trkpt>
      <trkpt lat="48.02895" lon="-0.39282">
        <ele>87</ele>
        <time>2023-10-07T11:40:03Z</time>
      </trkpt>
      <trkpt lat="48.02896" lon="-0.39269">
        <ele>87</ele>
        <time>2023-10-07T11:40:04Z</time>
      </trkpt>
      <trkpt lat="48.02897" lon="-0.39256">
        <ele>85.6</ele>
        <time>2023-10-07T11:40:05Z</time>
      </trkpt>
      <trkpt lat="48.02898" lon="-0.39243">
        <ele>85.6</ele>
        <time>2023-10-07T11:40:06Z</time>
      </trkpt>
      <trkpt lat="48.02899" lon="-0.3923">
        <ele>85.6</ele>
        <time>2023-10-07T11:40:07Z</time>
      </trkpt>
      <trkpt lat="48.02899" lon="-0.39217">
        <ele>85.4</ele>
        <time>2023-10-07T11:40:08Z</time>
      </trkpt>
      <trkpt lat="48.02899" lon="-0.39204">
        <ele>83.8</ele>
        <time>2023-10-07T11:40:09Z</time>
      </trkpt>
      <trkpt lat="48.029" lon="-0.39191">
        <ele>83.8</ele>
        <time>2023-10-07T11:40:10Z</time>
      </trkpt>
      <trkpt lat="48.02901" lon="-0.39179">
        <ele>83.8</ele>
        <time>2023-10-07T11:40:11Z</time>
      </trkpt>
      <trkpt lat="48.02901" lon="-0.39166">
        <ele>83.8</ele>
        <time>2023-10-07T11:40:12Z</time>
      </trkpt>
      <trkpt lat="48.02901" lon="-0.39154">
        <ele>83.4</ele>
        <time>2023-10-07T11:40:13Z</time>
      </trkpt>
      <trkpt lat="48.02902" lon="-0.39141">
        <ele>83.4</ele>
        <time>2023-10-07T11:40:14Z</time>
      </trkpt>
      <trkpt lat="48.02903" lon="-0.39129">
        <ele>83.4</ele>
        <time>2023-10-07T11:40:15Z</time>
      </trkpt>
      <trkpt lat="48.02903" lon="-0.39116">
        <ele>82.4</ele>
        <time>2023-10-07T11:40:16Z</time>
      </trkpt>
      <trkpt lat="48.02904" lon="-0.39104">
        <ele>82</ele>
        <time>2023-10-07T11:40:17Z</time>
      </trkpt>
      <trkpt lat="48.02904" lon="-0.39092">
        <ele>82</ele>
        <time>2023-10-07T11:40:18Z</time>
      </trkpt>
      <trkpt lat="48.02905" lon="-0.39079">
        <ele>82</ele>
        <time>2023-10-07T11:40:19Z</time>
      </trkpt>
      <trkpt lat="48.02906" lon="-0.39067">
        <ele>81.4</ele>
        <time>2023-10-07T11:40:20Z</time>
      </trkpt>
      <trkpt lat="48.02906" lon="-0.39055">
        <ele>81</ele>
        <time>2023-10-07T11:40:21Z</time>
      </trkpt>
      <trkpt lat="48.02907" lon="-0.39042">
        <ele>81</ele>
        <time>2023-10-07T11:40:22Z</time>
      </trkpt>
      <trkpt lat="48.02907" lon="-0.3903">
        <ele>81</ele>
        <time>2023-10-07T11:40:23Z</time>
      </trkpt>
      <trkpt lat="48.02907" lon="-0.39018">
        <ele>81</ele>
        <time>2023-10-07T11:40:24Z</time>
      </trkpt>
      <trkpt lat="48.02908" lon="-0.39006">
        <ele>80.6</ele>
        <time>2023-10-07T11:40:25Z</time>
      </trkpt>
      <trkpt lat="48.02908" lon="-0.38993">
        <ele>80.6</ele>
        <time>2023-10-07T11:40:26Z</time>
      </trkpt>
      <trkpt lat="48.02909" lon="-0.38981">
        <ele>80.6</ele>
        <time>2023-10-07T11:40:27Z</time>
      </trkpt>
      <trkpt lat="48.02909" lon="-0.38969">
        <ele>80.6</ele>
        <time>2023-10-07T11:40:28Z</time>
      </trkpt>
      <trkpt lat="48.0291" lon="-0.38958">
        <ele>80.6</ele>
        <time>2023-10-07T11:40:29Z</time>
      </trkpt>
      <trkpt lat="48.0291" lon="-0.38946">
        <ele>80.6</ele>
        <time>2023-10-07T11:40:30Z</time>
      </trkpt>
      <trkpt lat="48.0291" lon="-0.38936">
        <ele>80.6</ele>
        <time>2023-10-07T11:40:31Z</time>
      </trkpt>
      <trkpt lat="48.02911" lon="-0.38926">
        <ele>80</ele>
        <time>2023-10-07T11:40:32Z</time>
      </trkpt>
      <trkpt lat="48.02911" lon="-0.38917">
        <ele>81</ele>
        <time>2023-10-07T11:40:33Z</time>
      </trkpt>
      <trkpt lat="48.02912" lon="-0.38909">
        <ele>81</ele>
        <time>2023-10-07T11:40:34Z</time>
      </trkpt>
      <trkpt lat="48.02912" lon="-0.38901">
        <ele>81</ele>
        <time>2023-10-07T11:40:35Z</time>
      </trkpt>
      <trkpt lat="48.02911" lon="-0.38895">
        <ele>81</ele>
        <time>2023-10-07T11:40:36Z</time>
      </trkpt>
      <trkpt lat="48.02911" lon="-0.3889">
        <ele>80.8</ele>
        <time>2023-10-07T11:40:37Z</time>
      </trkpt>
      <trkpt lat="48.02913" lon="-0.38886">
        <ele>80.8</ele>
        <time>2023-10-07T11:40:38Z</time>
      </trkpt>
      <trkpt lat="48.02915" lon="-0.38883">
        <ele>80.8</ele>
        <time>2023-10-07T11:40:39Z</time>
      </trkpt>
      <trkpt lat="48.02919" lon="-0.38882">
        <ele>80.4</ele>
        <time>2023-10-07T11:40:40Z</time>
      </trkpt>
      <trkpt lat="48.02923" lon="-0.38882">
        <ele>80.6</ele>
        <time>2023-10-07T11:40:41Z</time>
      </trkpt>
      <trkpt lat="48.02928" lon="-0.38883">
        <ele>80.6</ele>
        <time>2023-10-07T11:40:42Z</time>
      </trkpt>
      <trkpt lat="48.02932" lon="-0.38885">
        <ele>80.6</ele>
        <time>2023-10-07T11:40:43Z</time>
      </trkpt>
      <trkpt lat="48.02938" lon="-0.38886">
        <ele>79.6</ele>
        <time>2023-10-07T11:40:44Z</time>
      </trkpt>
      <trkpt lat="48.02943" lon="-0.38887">
        <ele>79.2</ele>
        <time>2023-10-07T11:40:45Z</time>
      </trkpt>
      <trkpt lat="48.02949" lon="-0.38888">
        <ele>79.2</ele>
        <time>2023-10-07T11:40:46Z</time>
      </trkpt>
      <trkpt lat="48.02954" lon="-0.3889">
        <ele>79.2</ele>
        <time>2023-10-07T11:40:47Z</time>
      </trkpt>
      <trkpt lat="48.0296" lon="-0.38892">
        <ele>79.2</ele>
        <time>2023-10-07T11:40:48Z</time>
      </trkpt>
      <trkpt lat="48.02966" lon="-0.38893">
        <ele>79.8</ele>
        <time>2023-10-07T11:40:49Z</time>
      </trkpt>
      <trkpt lat="48.02972" lon="-0.38894">
        <ele>79.8</ele>
        <time>2023-10-07T11:40:50Z</time>
      </trkpt>
      <trkpt lat="48.02978" lon="-0.38895">
        <ele>79.8</ele>
        <time>2023-10-07T11:40:51Z</time>
      </trkpt>
      <trkpt lat="48.02984" lon="-0.38896">
        <ele>78.8</ele>
        <time>2023-10-07T11:40:52Z</time>
      </trkpt>
      <trkpt lat="48.0299" lon="-0.38898">
        <ele>78.8</ele>
        <time>2023-10-07T11:40:53Z</time>
      </trkpt>
      <trkpt lat="48.02996" lon="-0.38899">
        <ele>78.8</ele>
        <time>2023-10-07T11:40:54Z</time>
      </trkpt>
      <trkpt lat="48.03002" lon="-0.38901">
        <ele>78.8</ele>
        <time>2023-10-07T11:40:55Z</time>
      </trkpt>
      <trkpt lat="48.03008" lon="-0.38902">
        <ele>78.8</ele>
        <time>2023-10-07T11:40:56Z</time>
      </trkpt>
      <trkpt lat="48.03013" lon="-0.38904">
        <ele>79.2</ele>
        <time>2023-10-07T11:40:57Z</time>
      </trkpt>
      <trkpt lat="48.03019" lon="-0.38906">
        <ele>79.2</ele>
        <time>2023-10-07T11:40:58Z</time>
      </trkpt>
      <trkpt lat="48.03025" lon="-0.38909">
        <ele>79.2</ele>
        <time>2023-10-07T11:40:59Z</time>
      </trkpt>
      <trkpt lat="48.03031" lon="-0.38912">
        <ele>78.8</ele>
        <time>2023-10-07T11:41:00Z</time>
      </trkpt>
      <trkpt lat="48.03037" lon="-0.38915">
        <ele>78.2</ele>
        <time>2023-10-07T11:41:01Z</time>
      </trkpt>
      <trkpt lat="48.03043" lon="-0.38919">
        <ele>78.2</ele>
        <time>2023-10-07T11:41:02Z</time>
      </trkpt>
      <trkpt lat="48.03049" lon="-0.38923">
        <ele>78.2</ele>
        <time>2023-10-07T11:41:03Z</time>
      </trkpt>
      <trkpt lat="48.03054" lon="-0.38927">
        <ele>78.2</ele>
        <time>2023-10-07T11:41:04Z</time>
      </trkpt>
      <trkpt lat="48.0306" lon="-0.38932">
        <ele>78.6</ele>
        <time>2023-10-07T11:41:05Z</time>
      </trkpt>
      <trkpt lat="48.03065" lon="-0.38937">
        <ele>78.6</ele>
        <time>2023-10-07T11:41:06Z</time>
      </trkpt>
      <trkpt lat="48.03071" lon="-0.38941">
        <ele>78.6</ele>
        <time>2023-10-07T11:41:07Z</time>
      </trkpt>
      <trkpt lat="48.03077" lon="-0.38946">
        <ele>78.6</ele>
        <time>2023-10-07T11:41:08Z</time>
      </trkpt>
      <trkpt lat="48.03082" lon="-0.38951">
        <ele>78.4</ele>
        <time>2023-10-07T11:41:09Z</time>
      </trkpt>
      <trkpt lat="48.03088" lon="-0.38956">
        <ele>78.4</ele>
        <time>2023-10-07T11:41:10Z</time>
      </trkpt>
      <trkpt lat="48.03093" lon="-0.3896">
        <ele>78.4</ele>
        <time>2023-10-07T11:41:11Z</time>
      </trkpt>
      <trkpt lat="48.03099" lon="-0.38964">
        <ele>78.4</ele>
        <time>2023-10-07T11:41:12Z</time>
      </trkpt>
      <trkpt lat="48.03104" lon="-0.38969">
        <ele>78.2</ele>
        <time>2023-10-07T11:41:13Z</time>
      </trkpt>
      <trkpt lat="48.0311" lon="-0.38973">
        <ele>78.2</ele>
        <time>2023-10-07T11:41:14Z</time>
      </trkpt>
      <trkpt lat="48.03115" lon="-0.38978">
        <ele>78.2</ele>
        <time>2023-10-07T11:41:15Z</time>
      </trkpt>
      <trkpt lat="48.03121" lon="-0.38982">
        <ele>78.2</ele>
        <time>2023-10-07T11:41:16Z</time>
      </trkpt>
      <trkpt lat="48.03126" lon="-0.38987">
        <ele>78.2</ele>
        <time>2023-10-07T11:41:17Z</time>
      </trkpt>
      <trkpt lat="48.03132" lon="-0.38991">
        <ele>78.2</ele>
        <time>2023-10-07T11:41:18Z</time>
      </trkpt>
      <trkpt lat="48.03137" lon="-0.38996">
        <ele>78.2</ele>
        <time>2023-10-07T11:41:19Z</time>
      </trkpt>
      <trkpt lat="48.03143" lon="-0.39001">
        <ele>78.2</ele>
        <time>2023-10-07T11:41:20Z</time>
      </trkpt>
      <trkpt lat="48.03148" lon="-0.39005">
        <ele>77.8</ele>
        <time>2023-10-07T11:41:21Z</time>
      </trkpt>
      <trkpt lat="48.03154" lon="-0.39009">
        <ele>77.8</ele>
        <time>2023-10-07T11:41:22Z</time>
      </trkpt>
      <trkpt lat="48.03159" lon="-0.39014">
        <ele>77.8</ele>
        <time>2023-10-07T11:41:23Z</time>
      </trkpt>
      <trkpt lat="48.03164" lon="-0.39018">
        <ele>78.4</ele>
        <time>2023-10-07T11:41:24Z</time>
      </trkpt>
      <trkpt lat="48.0317" lon="-0.39023">
        <ele>78.2</ele>
        <time>2023-10-07T11:41:25Z</time>
      </trkpt>
      <trkpt lat="48.03175" lon="-0.39027">
        <ele>78.2</ele>
        <time>2023-10-07T11:41:26Z</time>
      </trkpt>
      <trkpt lat="48.0318" lon="-0.39032">
        <ele>78.2</ele>
        <time>2023-10-07T11:41:27Z</time>
      </trkpt>
      <trkpt lat="48.03185" lon="-0.39036">
        <ele>78.2</ele>
        <time>2023-10-07T11:41:28Z</time>
      </trkpt>
      <trkpt lat="48.0319" lon="-0.39041">
        <ele>78.8</ele>
        <time>2023-10-07T11:41:29Z</time>
      </trkpt>
      <trkpt lat="48.03196" lon="-0.39045">
        <ele>78.8</ele>
        <time>2023-10-07T11:41:30Z</time>
      </trkpt>
      <trkpt lat="48.03201" lon="-0.39048">
        <ele>78.8</ele>
        <time>2023-10-07T11:41:31Z</time>
      </trkpt>
      <trkpt lat="48.03206" lon="-0.39051">
        <ele>78.6</ele>
        <time>2023-10-07T11:41:32Z</time>
      </trkpt>
      <trkpt lat="48.03212" lon="-0.39055">
        <ele>78.8</ele>
        <time>2023-10-07T11:41:33Z</time>
      </trkpt>
      <trkpt lat="48.03217" lon="-0.39059">
        <ele>78.8</ele>
        <time>2023-10-07T11:41:34Z</time>
      </trkpt>
      <trkpt lat="48.03223" lon="-0.39063">
        <ele>78.8</ele>
        <time>2023-10-07T11:41:35Z</time>
      </trkpt>
      <trkpt lat="48.03228" lon="-0.39066">
        <ele>78.8</ele>
        <time>2023-10-07T11:41:36Z</time>
      </trkpt>
      <trkpt lat="48.03234" lon="-0.39069">
        <ele>79.6</ele>
        <time>2023-10-07T11:41:37Z</time>
      </trkpt>
      <trkpt lat="48.03239" lon="-0.39073">
        <ele>79.6</ele>
        <time>2023-10-07T11:41:38Z</time>
      </trkpt>
      <trkpt lat="48.03244" lon="-0.39076">
        <ele>79.6</ele>
        <time>2023-10-07T11:41:39Z</time>
      </trkpt>
      <trkpt lat="48.0325" lon="-0.3908">
        <ele>79.4</ele>
        <time>2023-10-07T11:41:40Z</time>
      </trkpt>
      <trkpt lat="48.03255" lon="-0.39083">
        <ele>80</ele>
        <time>2023-10-07T11:41:41Z</time>
      </trkpt>
      <trkpt lat="48.0326" lon="-0.39086">
        <ele>80</ele>
        <time>2023-10-07T11:41:42Z</time>
      </trkpt>
      <trkpt lat="48.03266" lon="-0.39089">
        <ele>80</ele>
        <time>2023-10-07T11:41:43Z</time>
      </trkpt>
      <trkpt lat="48.03271" lon="-0.39092">
        <ele>79.2</ele>
        <time>2023-10-07T11:41:44Z</time>
      </trkpt>
      <trkpt lat="48.03276" lon="-0.39095">
        <ele>79.2</ele>
        <time>2023-10-07T11:41:45Z</time>
      </trkpt>
      <trkpt lat="48.03281" lon="-0.39099">
        <ele>79.2</ele>
        <time>2023-10-07T11:41:46Z</time>
      </trkpt>
      <trkpt lat="48.03287" lon="-0.39102">
        <ele>79.2</ele>
        <time>2023-10-07T11:41:47Z</time>
      </trkpt>
      <trkpt lat="48.03292" lon="-0.39105">
        <ele>79.2</ele>
        <time>2023-10-07T11:41:48Z</time>
      </trkpt>
      <trkpt lat="48.03297" lon="-0.39108">
        <ele>80.2</ele>
        <time>2023-10-07T11:41:49Z</time>
      </trkpt>
      <trkpt lat="48.03301" lon="-0.39112">
        <ele>80.2</ele>
        <time>2023-10-07T11:41:50Z</time>
      </trkpt>
      <trkpt lat="48.03306" lon="-0.39115">
        <ele>80.2</ele>
        <time>2023-10-07T11:41:51Z</time>
      </trkpt>
      <trkpt lat="48.0331" lon="-0.39118">
        <ele>79.8</ele>
        <time>2023-10-07T11:41:52Z</time>
      </trkpt>
      <trkpt lat="48.03315" lon="-0.3912">
        <ele>79.2</ele>
        <time>2023-10-07T11:41:53Z</time>
      </trkpt>
      <trkpt lat="48.03319" lon="-0.39123">
        <ele>79.2</ele>
        <time>2023-10-07T11:41:54Z</time>
      </trkpt>
      <trkpt lat="48.03324" lon="-0.39126">
        <ele>79.2</ele>
        <time>2023-10-07T11:41:55Z</time>
      </trkpt>
      <trkpt lat="48.03328" lon="-0.39128">
        <ele>80</ele>
        <time>2023-10-07T11:41:56Z</time>
      </trkpt>
      <trkpt lat="48.03332" lon="-0.39131">
        <ele>79.6</ele>
        <time>2023-10-07T11:41:57Z</time>
      </trkpt>
      <trkpt lat="48.03337" lon="-0.39133">
        <ele>79.6</ele>
        <time>2023-10-07T11:41:58Z</time>
      </trkpt>
      <trkpt lat="48.03341" lon="-0.39136">
        <ele>79.6</ele>
        <time>2023-10-07T11:41:59Z</time>
      </trkpt>
      <trkpt lat="48.03345" lon="-0.39138">
        <ele>80.2</ele>
        <time>2023-10-07T11:42:00Z</time>
      </trkpt>
      <trkpt lat="48.03349" lon="-0.39141">
        <ele>80</ele>
        <time>2023-10-07T11:42:01Z</time>
      </trkpt>
      <trkpt lat="48.03354" lon="-0.39143">
        <ele>80</ele>
        <time>2023-10-07T11:42:02Z</time>
      </trkpt>
      <trkpt lat="48.03358" lon="-0.39146">
        <ele>80</ele>
        <time>2023-10-07T11:42:03Z</time>
      </trkpt>
      <trkpt lat="48.03362" lon="-0.39148">
        <ele>80</ele>
        <time>2023-10-07T11:42:04Z</time>
      </trkpt>
      <trkpt lat="48.03366" lon="-0.39151">
        <ele>80.2</ele>
        <time>2023-10-07T11:42:05Z</time>
      </trkpt>
      <trkpt lat="48.0337" lon="-0.39153">
        <ele>80.2</ele>
        <time>2023-10-07T11:42:06Z</time>
      </trkpt>
      <trkpt lat="48.03374" lon="-0.39155">
        <ele>80.2</ele>
        <time>2023-10-07T11:42:07Z</time>
      </trkpt>
      <trkpt lat="48.03379" lon="-0.39158">
        <ele>81</ele>
        <time>2023-10-07T11:42:08Z</time>
      </trkpt>
      <trkpt lat="48.03383" lon="-0.3916">
        <ele>81</ele>
        <time>2023-10-07T11:42:09Z</time>
      </trkpt>
      <trkpt lat="48.03387" lon="-0.39163">
        <ele>81</ele>
        <time>2023-10-07T11:42:10Z</time>
      </trkpt>
      <trkpt lat="48.03391" lon="-0.39165">
        <ele>81</ele>
        <time>2023-10-07T11:42:11Z</time>
      </trkpt>
      <trkpt lat="48.03395" lon="-0.39167">
        <ele>81</ele>
        <time>2023-10-07T11:42:12Z</time>
      </trkpt>
      <trkpt lat="48.034" lon="-0.39168">
        <ele>81.8</ele>
        <time>2023-10-07T11:42:13Z</time>
      </trkpt>
      <trkpt lat="48.03404" lon="-0.39168">
        <ele>81.8</ele>
        <time>2023-10-07T11:42:14Z</time>
      </trkpt>
      <trkpt lat="48.03408" lon="-0.39167">
        <ele>81.8</ele>
        <time>2023-10-07T11:42:15Z</time>
      </trkpt>
      <trkpt lat="48.03412" lon="-0.39166">
        <ele>81.6</ele>
        <time>2023-10-07T11:42:16Z</time>
      </trkpt>
      <trkpt lat="48.03417" lon="-0.39165">
        <ele>82.4</ele>
        <time>2023-10-07T11:42:17Z</time>
      </trkpt>
      <trkpt lat="48.03421" lon="-0.39163">
        <ele>82.4</ele>
        <time>2023-10-07T11:42:18Z</time>
      </trkpt>
      <trkpt lat="48.03425" lon="-0.39162">
        <ele>82.4</ele>
        <time>2023-10-07T11:42:19Z</time>
      </trkpt>
      <trkpt lat="48.03429" lon="-0.3916">
        <ele>81.6</ele>
        <time>2023-10-07T11:42:20Z</time>
      </trkpt>
      <trkpt lat="48.03433" lon="-0.39158">
        <ele>80.8</ele>
        <time>2023-10-07T11:42:21Z</time>
      </trkpt>
      <trkpt lat="48.03437" lon="-0.39156">
        <ele>80.8</ele>
        <time>2023-10-07T11:42:22Z</time>
      </trkpt>
      <trkpt lat="48.03442" lon="-0.39153">
        <ele>80.8</ele>
        <time>2023-10-07T11:42:23Z</time>
      </trkpt>
      <trkpt lat="48.03447" lon="-0.39151">
        <ele>80.8</ele>
        <time>2023-10-07T11:42:24Z</time>
      </trkpt>
      <trkpt lat="48.03451" lon="-0.39148">
        <ele>80.2</ele>
        <time>2023-10-07T11:42:25Z</time>
      </trkpt>
      <trkpt lat="48.03455" lon="-0.39143">
        <ele>80.2</ele>
        <time>2023-10-07T11:42:26Z</time>
      </trkpt>
      <trkpt lat="48.03458" lon="-0.39137">
        <ele>80.2</ele>
        <time>2023-10-07T11:42:27Z</time>
      </trkpt>
      <trkpt lat="48.03458" lon="-0.39129">
        <ele>80</ele>
        <time>2023-10-07T11:42:28Z</time>
      </trkpt>
      <trkpt lat="48.03458" lon="-0.3912">
        <ele>80.2</ele>
        <time>2023-10-07T11:42:29Z</time>
      </trkpt>
      <trkpt lat="48.03457" lon="-0.39112">
        <ele>80.2</ele>
        <time>2023-10-07T11:42:30Z</time>
      </trkpt>
      <trkpt lat="48.03455" lon="-0.39104">
        <ele>80.2</ele>
        <time>2023-10-07T11:42:31Z</time>
      </trkpt>
      <trkpt lat="48.03454" lon="-0.39096">
        <ele>80</ele>
        <time>2023-10-07T11:42:32Z</time>
      </trkpt>
      <trkpt lat="48.03454" lon="-0.39088">
        <ele>78.8</ele>
        <time>2023-10-07T11:42:33Z</time>
      </trkpt>
      <trkpt lat="48.03453" lon="-0.39081">
        <ele>78.8</ele>
        <time>2023-10-07T11:42:34Z</time>
      </trkpt>
      <trkpt lat="48.03453" lon="-0.39074">
        <ele>78.8</ele>
        <time>2023-10-07T11:42:35Z</time>
      </trkpt>
      <trkpt lat="48.03453" lon="-0.39067">
        <ele>79.8</ele>
        <time>2023-10-07T11:42:36Z</time>
      </trkpt>
      <trkpt lat="48.03452" lon="-0.3906">
        <ele>81</ele>
        <time>2023-10-07T11:42:37Z</time>
      </trkpt>
      <trkpt lat="48.03452" lon="-0.39054">
        <ele>81</ele>
        <time>2023-10-07T11:42:38Z</time>
      </trkpt>
      <trkpt lat="48.03451" lon="-0.39047">
        <ele>81</ele>
        <time>2023-10-07T11:42:39Z</time>
      </trkpt>
      <trkpt lat="48.03451" lon="-0.3904">
        <ele>81</ele>
        <time>2023-10-07T11:42:40Z</time>
      </trkpt>
      <trkpt lat="48.03451" lon="-0.39034">
        <ele>81.4</ele>
        <time>2023-10-07T11:42:41Z</time>
      </trkpt>
      <trkpt lat="48.03451" lon="-0.39028">
        <ele>81.4</ele>
        <time>2023-10-07T11:42:42Z</time>
      </trkpt>
      <trkpt lat="48.03452" lon="-0.39022">
        <ele>81.4</ele>
        <time>2023-10-07T11:42:43Z</time>
      </trkpt>
      <trkpt lat="48.03454" lon="-0.39017">
        <ele>81.4</ele>
        <time>2023-10-07T11:42:44Z</time>
      </trkpt>
      <trkpt lat="48.03456" lon="-0.39014">
        <ele>82</ele>
        <time>2023-10-07T11:42:45Z</time>
      </trkpt>
      <trkpt lat="48.03459" lon="-0.39012">
        <ele>82</ele>
        <time>2023-10-07T11:42:46Z</time>
      </trkpt>
      <trkpt lat="48.03462" lon="-0.39013">
        <ele>82</ele>
        <time>2023-10-07T11:42:47Z</time>
      </trkpt>
      <trkpt lat="48.03465" lon="-0.39015">
        <ele>82</ele>
        <time>2023-10-07T11:42:48Z</time>
      </trkpt>
      <trkpt lat="48.03468" lon="-0.39018">
        <ele>82</ele>
        <time>2023-10-07T11:42:49Z</time>
      </trkpt>
      <trkpt lat="48.03471" lon="-0.39021">
        <ele>82</ele>
        <time>2023-10-07T11:42:50Z</time>
      </trkpt>
      <trkpt lat="48.03474" lon="-0.39025">
        <ele>82</ele>
        <time>2023-10-07T11:42:51Z</time>
      </trkpt>
      <trkpt lat="48.03477" lon="-0.39028">
        <ele>81.8</ele>
        <time>2023-10-07T11:42:52Z</time>
      </trkpt>
      <trkpt lat="48.0348" lon="-0.39031">
        <ele>81.8</ele>
        <time>2023-10-07T11:42:53Z</time>
      </trkpt>
      <trkpt lat="48.03481" lon="-0.39035">
        <ele>81.8</ele>
        <time>2023-10-07T11:42:54Z</time>
      </trkpt>
      <trkpt lat="48.03483" lon="-0.39038">
        <ele>81.8</ele>
        <time>2023-10-07T11:42:55Z</time>
      </trkpt>
      <trkpt lat="48.03484" lon="-0.39042">
        <ele>81.8</ele>
        <time>2023-10-07T11:42:56Z</time>
      </trkpt>
      <trkpt lat="48.03486" lon="-0.39045">
        <ele>81.8</ele>
        <time>2023-10-07T11:42:57Z</time>
      </trkpt>
      <trkpt lat="48.03488" lon="-0.39048">
        <ele>81.8</ele>
        <time>2023-10-07T11:42:58Z</time>
      </trkpt>
      <trkpt lat="48.0349" lon="-0.39051">
        <ele>81.8</ele>
        <time>2023-10-07T11:42:59Z</time>
      </trkpt>
      <trkpt lat="48.03492" lon="-0.39053">
        <ele>82.6</ele>
        <time>2023-10-07T11:43:00Z</time>
      </trkpt>
      <trkpt lat="48.03493" lon="-0.39054">
        <ele>82.6</ele>
        <time>2023-10-07T11:43:01Z</time>
      </trkpt>
      <trkpt lat="48.03494" lon="-0.39054">
        <ele>82.6</ele>
        <time>2023-10-07T11:43:02Z</time>
      </trkpt>
      <trkpt lat="48.03496" lon="-0.39054">
        <ele>82.6</ele>
        <time>2023-10-07T11:43:03Z</time>
      </trkpt>
      <trkpt lat="48.03498" lon="-0.39053">
        <ele>82.6</ele>
        <time>2023-10-07T11:43:04Z</time>
      </trkpt>
      <trkpt lat="48.035" lon="-0.39052">
        <ele>82.4</ele>
        <time>2023-10-07T11:43:05Z</time>
      </trkpt>
      <trkpt lat="48.03503" lon="-0.39051">
        <ele>82.4</ele>
        <time>2023-10-07T11:43:06Z</time>
      </trkpt>
      <trkpt lat="48.03507" lon="-0.39051">
        <ele>82.4</ele>
        <time>2023-10-07T11:43:07Z</time>
      </trkpt>
      <trkpt lat="48.0351" lon="-0.39051">
        <ele>82.2</ele>
        <time>2023-10-07T11:43:08Z</time>
      </trkpt>
      <trkpt lat="48.03514" lon="-0.39051">
        <ele>81.8</ele>
        <time>2023-10-07T11:43:09Z</time>
      </trkpt>
      <trkpt lat="48.03519" lon="-0.39052">
        <ele>81.8</ele>
        <time>2023-10-07T11:43:10Z</time>
      </trkpt>
      <trkpt lat="48.03523" lon="-0.39052">
        <ele>81.8</ele>
        <time>2023-10-07T11:43:11Z</time>
      </trkpt>
      <trkpt lat="48.03528" lon="-0.39053">
        <ele>81.8</ele>
        <time>2023-10-07T11:43:12Z</time>
      </trkpt>
      <trkpt lat="48.03533" lon="-0.39053">
        <ele>82.2</ele>
        <time>2023-10-07T11:43:13Z</time>
      </trkpt>
      <trkpt lat="48.03538" lon="-0.39053">
        <ele>82.2</ele>
        <time>2023-10-07T11:43:14Z</time>
      </trkpt>
      <trkpt lat="48.03542" lon="-0.39053">
        <ele>82.2</ele>
        <time>2023-10-07T11:43:15Z</time>
      </trkpt>
      <trkpt lat="48.03547" lon="-0.39053">
        <ele>82.2</ele>
        <time>2023-10-07T11:43:16Z</time>
      </trkpt>
      <trkpt lat="48.03552" lon="-0.39053">
        <ele>82</ele>
        <time>2023-10-07T11:43:17Z</time>
      </trkpt>
      <trkpt lat="48.03557" lon="-0.39053">
        <ele>82</ele>
        <time>2023-10-07T11:43:18Z</time>
      </trkpt>
      <trkpt lat="48.03562" lon="-0.39053">
        <ele>82</ele>
        <time>2023-10-07T11:43:19Z</time>
      </trkpt>
      <trkpt lat="48.03567" lon="-0.39052">
        <ele>83</ele>
        <time>2023-10-07T11:43:20Z</time>
      </trkpt>
      <trkpt lat="48.03572" lon="-0.39051">
        <ele>82.6</ele>
        <time>2023-10-07T11:43:21Z</time>
      </trkpt>
      <trkpt lat="48.03577" lon="-0.39051">
        <ele>82.6</ele>
        <time>2023-10-07T11:43:22Z</time>
      </trkpt>
      <trkpt lat="48.03582" lon="-0.3905">
        <ele>82.6</ele>
        <time>2023-10-07T11:43:23Z</time>
      </trkpt>
      <trkpt lat="48.03587" lon="-0.3905">
        <ele>82.6</ele>
        <time>2023-10-07T11:43:24Z</time>
      </trkpt>
      <trkpt lat="48.03592" lon="-0.3905">
        <ele>82.6</ele>
        <time>2023-10-07T11:43:25Z</time>
      </trkpt>
      <trkpt lat="48.03597" lon="-0.39049">
        <ele>82.6</ele>
        <time>2023-10-07T11:43:26Z</time>
      </trkpt>
      <trkpt lat="48.03602" lon="-0.39049">
        <ele>82.6</ele>
        <time>2023-10-07T11:43:27Z</time>
      </trkpt>
      <trkpt lat="48.03607" lon="-0.39048">
        <ele>83</ele>
        <time>2023-10-07T11:43:28Z</time>
      </trkpt>
      <trkpt lat="48.03612" lon="-0.39048">
        <ele>82.4</ele>
        <time>2023-10-07T11:43:29Z</time>
      </trkpt>
      <trkpt lat="48.03617" lon="-0.39047">
        <ele>82.4</ele>
        <time>2023-10-07T11:43:30Z</time>
      </trkpt>
      <trkpt lat="48.03623" lon="-0.39047">
        <ele>82.4</ele>
        <time>2023-10-07T11:43:31Z</time>
      </trkpt>
      <trkpt lat="48.03628" lon="-0.39047">
        <ele>83.4</ele>
        <time>2023-10-07T11:43:32Z</time>
      </trkpt>
      <trkpt lat="48.03633" lon="-0.39046">
        <ele>83.6</ele>
        <time>2023-10-07T11:43:33Z</time>
      </trkpt>
      <trkpt lat="48.03638" lon="-0.39046">
        <ele>83.6</ele>
        <time>2023-10-07T11:43:34Z</time>
      </trkpt>
      <trkpt lat="48.03643" lon="-0.39045">
        <ele>83.6</ele>
        <time>2023-10-07T11:43:35Z</time>
      </trkpt>
      <trkpt lat="48.03648" lon="-0.39044">
        <ele>83.6</ele>
        <time>2023-10-07T11:43:36Z</time>
      </trkpt>
      <trkpt lat="48.03653" lon="-0.39044">
        <ele>84.6</ele>
        <time>2023-10-07T11:43:37Z</time>
      </trkpt>
      <trkpt lat="48.03658" lon="-0.39043">
        <ele>84.6</ele>
        <time>2023-10-07T11:43:38Z</time>
      </trkpt>
      <trkpt lat="48.03662" lon="-0.39043">
        <ele>84.6</ele>
        <time>2023-10-07T11:43:39Z</time>
      </trkpt>
      <trkpt lat="48.03667" lon="-0.39043">
        <ele>84.4</ele>
        <time>2023-10-07T11:43:40Z</time>
      </trkpt>
      <trkpt lat="48.03671" lon="-0.39043">
        <ele>85</ele>
        <time>2023-10-07T11:43:41Z</time>
      </trkpt>
      <trkpt lat="48.03676" lon="-0.39043">
        <ele>85</ele>
        <time>2023-10-07T11:43:42Z</time>
      </trkpt>
      <trkpt lat="48.0368" lon="-0.39042">
        <ele>85</ele>
        <time>2023-10-07T11:43:43Z</time>
      </trkpt>
      <trkpt lat="48.03684" lon="-0.39043">
        <ele>85</ele>
        <time>2023-10-07T11:43:44Z</time>
      </trkpt>
      <trkpt lat="48.03689" lon="-0.39044">
        <ele>85.4</ele>
        <time>2023-10-07T11:43:45Z</time>
      </trkpt>
      <trkpt lat="48.03693" lon="-0.39045">
        <ele>85.4</ele>
        <time>2023-10-07T11:43:46Z</time>
      </trkpt>
      <trkpt lat="48.03697" lon="-0.39046">
        <ele>85.4</ele>
        <time>2023-10-07T11:43:47Z</time>
      </trkpt>
      <trkpt lat="48.03701" lon="-0.39047">
        <ele>85.4</ele>
        <time>2023-10-07T11:43:48Z</time>
      </trkpt>
      <trkpt lat="48.03705" lon="-0.39049">
        <ele>85</ele>
        <time>2023-10-07T11:43:49Z</time>
      </trkpt>
      <trkpt lat="48.03709" lon="-0.39051">
        <ele>85</ele>
        <time>2023-10-07T11:43:50Z</time>
      </trkpt>
      <trkpt lat="48.03714" lon="-0.39053">
        <ele>85</ele>
        <time>2023-10-07T11:43:51Z</time>
      </trkpt>
      <trkpt lat="48.03718" lon="-0.39056">
        <ele>84.6</ele>
        <time>2023-10-07T11:43:52Z</time>
      </trkpt>
      <trkpt lat="48.03722" lon="-0.39058">
        <ele>84.6</ele>
        <time>2023-10-07T11:43:53Z</time>
      </trkpt>
      <trkpt lat="48.03726" lon="-0.3906">
        <ele>84.6</ele>
        <time>2023-10-07T11:43:54Z</time>
      </trkpt>
      <trkpt lat="48.03731" lon="-0.39062">
        <ele>84.6</ele>
        <time>2023-10-07T11:43:55Z</time>
      </trkpt>
      <trkpt lat="48.03735" lon="-0.39062">
        <ele>84.6</ele>
        <time>2023-10-07T11:43:56Z</time>
      </trkpt>
      <trkpt lat="48.03738" lon="-0.39062">
        <ele>84.6</ele>
        <time>2023-10-07T11:43:57Z</time>
      </trkpt>
      <trkpt lat="48.03742" lon="-0.39063">
        <ele>84.6</ele>
        <time>2023-10-07T11:43:58Z</time>
      </trkpt>
      <trkpt lat="48.03744" lon="-0.39063">
        <ele>84.6</ele>
        <time>2023-10-07T11:43:59Z</time>
      </trkpt>
      <trkpt lat="48.03747" lon="-0.39064">
        <ele>85</ele>
        <time>2023-10-07T11:44:00Z</time>
      </trkpt>
      <trkpt lat="48.0375" lon="-0.39066">
        <ele>85.2</ele>
        <time>2023-10-07T11:44:01Z</time>
      </trkpt>
      <trkpt lat="48.03753" lon="-0.39069">
        <ele>85.2</ele>
        <time>2023-10-07T11:44:02Z</time>
      </trkpt>
      <trkpt lat="48.03756" lon="-0.39073">
        <ele>85.2</ele>
        <time>2023-10-07T11:44:03Z</time>
      </trkpt>
      <trkpt lat="48.03759" lon="-0.39077">
        <ele>85.2</ele>
        <time>2023-10-07T11:44:04Z</time>
      </trkpt>
      <trkpt lat="48.03762" lon="-0.39082">
        <ele>85</ele>
        <time>2023-10-07T11:44:05Z</time>
      </trkpt>
      <trkpt lat="48.03765" lon="-0.39089">
        <ele>85</ele>
        <time>2023-10-07T11:44:06Z</time>
      </trkpt>
      <trkpt lat="48.03767" lon="-0.39096">
        <ele>85</ele>
        <time>2023-10-07T11:44:07Z</time>
      </trkpt>
      <trkpt lat="48.03769" lon="-0.39103">
        <ele>85.6</ele>
        <time>2023-10-07T11:44:08Z</time>
      </trkpt>
      <trkpt lat="48.0377" lon="-0.39111">
        <ele>86</ele>
        <time>2023-10-07T11:44:09Z</time>
      </trkpt>
      <trkpt lat="48.03771" lon="-0.3912">
        <ele>86</ele>
        <time>2023-10-07T11:44:10Z</time>
      </trkpt>
      <trkpt lat="48.03773" lon="-0.39128">
        <ele>86</ele>
        <time>2023-10-07T11:44:11Z</time>
      </trkpt>
      <trkpt lat="48.03774" lon="-0.39136">
        <ele>86</ele>
        <time>2023-10-07T11:44:12Z</time>
      </trkpt>
      <trkpt lat="48.03775" lon="-0.39144">
        <ele>85.8</ele>
        <time>2023-10-07T11:44:13Z</time>
      </trkpt>
      <trkpt lat="48.03776" lon="-0.39152">
        <ele>85.8</ele>
        <time>2023-10-07T11:44:14Z</time>
      </trkpt>
      <trkpt lat="48.03777" lon="-0.3916">
        <ele>85.8</ele>
        <time>2023-10-07T11:44:15Z</time>
      </trkpt>
      <trkpt lat="48.03778" lon="-0.39168">
        <ele>85.8</ele>
        <time>2023-10-07T11:44:16Z</time>
      </trkpt>
      <trkpt lat="48.03779" lon="-0.39176">
        <ele>86.2</ele>
        <time>2023-10-07T11:44:17Z</time>
      </trkpt>
      <trkpt lat="48.0378" lon="-0.39184">
        <ele>86.2</ele>
        <time>2023-10-07T11:44:18Z</time>
      </trkpt>
      <trkpt lat="48.03781" lon="-0.39193">
        <ele>86.2</ele>
        <time>2023-10-07T11:44:19Z</time>
      </trkpt>
      <trkpt lat="48.03782" lon="-0.39201">
        <ele>86.6</ele>
        <time>2023-10-07T11:44:20Z</time>
      </trkpt>
      <trkpt lat="48.03782" lon="-0.39209">
        <ele>86.6</ele>
        <time>2023-10-07T11:44:21Z</time>
      </trkpt>
      <trkpt lat="48.03783" lon="-0.39217">
        <ele>86.6</ele>
        <time>2023-10-07T11:44:22Z</time>
      </trkpt>
      <trkpt lat="48.03783" lon="-0.39225">
        <ele>86.6</ele>
        <time>2023-10-07T11:44:23Z</time>
      </trkpt>
      <trkpt lat="48.03784" lon="-0.39233">
        <ele>86.6</ele>
        <time>2023-10-07T11:44:24Z</time>
      </trkpt>
      <trkpt lat="48.03784" lon="-0.39241">
        <ele>86.8</ele>
        <time>2023-10-07T11:44:25Z</time>
      </trkpt>
      <trkpt lat="48.03784" lon="-0.3925">
        <ele>86.8</ele>
        <time>2023-10-07T11:44:26Z</time>
      </trkpt>
      <trkpt lat="48.03784" lon="-0.39258">
        <ele>86.8</ele>
        <time>2023-10-07T11:44:27Z</time>
      </trkpt>
      <trkpt lat="48.03784" lon="-0.39266">
        <ele>87.2</ele>
        <time>2023-10-07T11:44:28Z</time>
      </trkpt>
      <trkpt lat="48.03784" lon="-0.39275">
        <ele>87.6</ele>
        <time>2023-10-07T11:44:29Z</time>
      </trkpt>
      <trkpt lat="48.03784" lon="-0.39283">
        <ele>87.6</ele>
        <time>2023-10-07T11:44:30Z</time>
      </trkpt>
      <trkpt lat="48.03784" lon="-0.39292">
        <ele>87.6</ele>
        <time>2023-10-07T11:44:31Z</time>
      </trkpt>
      <trkpt lat="48.03784" lon="-0.393">
        <ele>87.6</ele>
        <time>2023-10-07T11:44:32Z</time>
      </trkpt>
      <trkpt lat="48.03784" lon="-0.39308">
        <ele>88</ele>
        <time>2023-10-07T11:44:33Z</time>
      </trkpt>
      <trkpt lat="48.03784" lon="-0.39317">
        <ele>88</ele>
        <time>2023-10-07T11:44:34Z</time>
      </trkpt>
      <trkpt lat="48.03784" lon="-0.39325">
        <ele>88</ele>
        <time>2023-10-07T11:44:35Z</time>
      </trkpt>
      <trkpt lat="48.03784" lon="-0.39334">
        <ele>88</ele>
        <time>2023-10-07T11:44:36Z</time>
      </trkpt>
      <trkpt lat="48.03784" lon="-0.39343">
        <ele>88.6</ele>
        <time>2023-10-07T11:44:37Z</time>
      </trkpt>
      <trkpt lat="48.03784" lon="-0.39351">
        <ele>88.6</ele>
        <time>2023-10-07T11:44:38Z</time>
      </trkpt>
      <trkpt lat="48.03784" lon="-0.3936">
        <ele>88.6</ele>
        <time>2023-10-07T11:44:39Z</time>
      </trkpt>
      <trkpt lat="48.03783" lon="-0.39369">
        <ele>89</ele>
        <time>2023-10-07T11:44:40Z</time>
      </trkpt>
      <trkpt lat="48.03784" lon="-0.39377">
        <ele>88.6</ele>
        <time>2023-10-07T11:44:41Z</time>
      </trkpt>
      <trkpt lat="48.03784" lon="-0.39386">
        <ele>88.6</ele>
        <time>2023-10-07T11:44:42Z</time>
      </trkpt>
      <trkpt lat="48.03783" lon="-0.39395">
        <ele>88.6</ele>
        <time>2023-10-07T11:44:43Z</time>
      </trkpt>
      <trkpt lat="48.03783" lon="-0.39403">
        <ele>88.6</ele>
        <time>2023-10-07T11:44:44Z</time>
      </trkpt>
      <trkpt lat="48.03783" lon="-0.39412">
        <ele>89</ele>
        <time>2023-10-07T11:44:45Z</time>
      </trkpt>
      <trkpt lat="48.03783" lon="-0.39421">
        <ele>89</ele>
        <time>2023-10-07T11:44:46Z</time>
      </trkpt>
      <trkpt lat="48.03783" lon="-0.3943">
        <ele>89</ele>
        <time>2023-10-07T11:44:47Z</time>
      </trkpt>
      <trkpt lat="48.03783" lon="-0.39438">
        <ele>89.6</ele>
        <time>2023-10-07T11:44:48Z</time>
      </trkpt>
      <trkpt lat="48.03783" lon="-0.39447">
        <ele>89.8</ele>
        <time>2023-10-07T11:44:49Z</time>
      </trkpt>
      <trkpt lat="48.03783" lon="-0.39455">
        <ele>89.8</ele>
        <time>2023-10-07T11:44:50Z</time>
      </trkpt>
      <trkpt lat="48.03782" lon="-0.39464">
        <ele>89.8</ele>
        <time>2023-10-07T11:44:51Z</time>
      </trkpt>
      <trkpt lat="48.03782" lon="-0.39472">
        <ele>89.6</ele>
        <time>2023-10-07T11:44:52Z</time>
      </trkpt>
      <trkpt lat="48.03782" lon="-0.39481">
        <ele>89.8</ele>
        <time>2023-10-07T11:44:53Z</time>
      </trkpt>
      <trkpt lat="48.03783" lon="-0.3949">
        <ele>89.8</ele>
        <time>2023-10-07T11:44:54Z</time>
      </trkpt>
      <trkpt lat="48.03783" lon="-0.39499">
        <ele>89.8</ele>
        <time>2023-10-07T11:44:55Z</time>
      </trkpt>
      <trkpt lat="48.03782" lon="-0.39508">
        <ele>89.8</ele>
        <time>2023-10-07T11:44:56Z</time>
      </trkpt>
      <trkpt lat="48.03782" lon="-0.39517">
        <ele>89.4</ele>
        <time>2023-10-07T11:44:57Z</time>
      </trkpt>
      <trkpt lat="48.03782" lon="-0.39526">
        <ele>89.4</ele>
        <time>2023-10-07T11:44:58Z</time>
      </trkpt>
      <trkpt lat="48.03782" lon="-0.39535">
        <ele>89.4</ele>
        <time>2023-10-07T11:44:59Z</time>
      </trkpt>
      <trkpt lat="48.03782" lon="-0.39545">
        <ele>89.4</ele>
        <time>2023-10-07T11:45:00Z</time>
      </trkpt>
      <trkpt lat="48.03782" lon="-0.39554">
        <ele>88.6</ele>
        <time>2023-10-07T11:45:01Z</time>
      </trkpt>
      <trkpt lat="48.03782" lon="-0.39564">
        <ele>88.6</ele>
        <time>2023-10-07T11:45:02Z</time>
      </trkpt>
      <trkpt lat="48.03782" lon="-0.39573">
        <ele>88.6</ele>
        <time>2023-10-07T11:45:03Z</time>
      </trkpt>
      <trkpt lat="48.03782" lon="-0.39583">
        <ele>88.6</ele>
        <time>2023-10-07T11:45:04Z</time>
      </trkpt>
      <trkpt lat="48.03782" lon="-0.39592">
        <ele>88</ele>
        <time>2023-10-07T11:45:05Z</time>
      </trkpt>
      <trkpt lat="48.03782" lon="-0.39602">
        <ele>88</ele>
        <time>2023-10-07T11:45:06Z</time>
      </trkpt>
      <trkpt lat="48.03781" lon="-0.39612">
        <ele>88</ele>
        <time>2023-10-07T11:45:07Z</time>
      </trkpt>
      <trkpt lat="48.03781" lon="-0.39622">
        <ele>88</ele>
        <time>2023-10-07T11:45:08Z</time>
      </trkpt>
      <trkpt lat="48.03781" lon="-0.39632">
        <ele>87.6</ele>
        <time>2023-10-07T11:45:09Z</time>
      </trkpt>
      <trkpt lat="48.03781" lon="-0.39642">
        <ele>87.6</ele>
        <time>2023-10-07T11:45:10Z</time>
      </trkpt>
      <trkpt lat="48.03781" lon="-0.39652">
        <ele>87.6</ele>
        <time>2023-10-07T11:45:11Z</time>
      </trkpt>
      <trkpt lat="48.03781" lon="-0.39662">
        <ele>88.2</ele>
        <time>2023-10-07T11:45:12Z</time>
      </trkpt>
      <trkpt lat="48.03781" lon="-0.39672">
        <ele>88</ele>
        <time>2023-10-07T11:45:13Z</time>
      </trkpt>
      <trkpt lat="48.03781" lon="-0.39683">
        <ele>88</ele>
        <time>2023-10-07T11:45:14Z</time>
      </trkpt>
      <trkpt lat="48.03781" lon="-0.39693">
        <ele>88</ele>
        <time>2023-10-07T11:45:15Z</time>
      </trkpt>
      <trkpt lat="48.03781" lon="-0.39704">
        <ele>87.6</ele>
        <time>2023-10-07T11:45:16Z</time>
      </trkpt>
      <trkpt lat="48.03781" lon="-0.39714">
        <ele>87.2</ele>
        <time>2023-10-07T11:45:17Z</time>
      </trkpt>
      <trkpt lat="48.03781" lon="-0.39725">
        <ele>87.2</ele>
        <time>2023-10-07T11:45:18Z</time>
      </trkpt>
      <trkpt lat="48.03781" lon="-0.39736">
        <ele>87.2</ele>
        <time>2023-10-07T11:45:19Z</time>
      </trkpt>
      <trkpt lat="48.03781" lon="-0.39747">
        <ele>86.8</ele>
        <time>2023-10-07T11:45:20Z</time>
      </trkpt>
      <trkpt lat="48.03781" lon="-0.39758">
        <ele>87</ele>
        <time>2023-10-07T11:45:21Z</time>
      </trkpt>
      <trkpt lat="48.03781" lon="-0.39769">
        <ele>87</ele>
        <time>2023-10-07T11:45:22Z</time>
      </trkpt>
      <trkpt lat="48.03781" lon="-0.3978">
        <ele>87</ele>
        <time>2023-10-07T11:45:23Z</time>
      </trkpt>
      <trkpt lat="48.03781" lon="-0.39791">
        <ele>87</ele>
        <time>2023-10-07T11:45:24Z</time>
      </trkpt>
      <trkpt lat="48.03781" lon="-0.39803">
        <ele>87.2</ele>
        <time>2023-10-07T11:45:25Z</time>
      </trkpt>
      <trkpt lat="48.03781" lon="-0.39814">
        <ele>87.2</ele>
        <time>2023-10-07T11:45:26Z</time>
      </trkpt>
      <trkpt lat="48.03781" lon="-0.39825">
        <ele>87.2</ele>
        <time>2023-10-07T11:45:27Z</time>
      </trkpt>
      <trkpt lat="48.03781" lon="-0.39836">
        <ele>87.2</ele>
        <time>2023-10-07T11:45:28Z</time>
      </trkpt>
      <trkpt lat="48.03781" lon="-0.39848">
        <ele>86</ele>
        <time>2023-10-07T11:45:29Z</time>
      </trkpt>
      <trkpt lat="48.03781" lon="-0.39859">
        <ele>86</ele>
        <time>2023-10-07T11:45:30Z</time>
      </trkpt>
      <trkpt lat="48.03781" lon="-0.3987">
        <ele>86</ele>
        <time>2023-10-07T11:45:31Z</time>
      </trkpt>
      <trkpt lat="48.03781" lon="-0.39882">
        <ele>86</ele>
        <time>2023-10-07T11:45:32Z</time>
      </trkpt>
      <trkpt lat="48.03781" lon="-0.39893">
        <ele>85.8</ele>
        <time>2023-10-07T11:45:33Z</time>
      </trkpt>
      <trkpt lat="48.03781" lon="-0.39904">
        <ele>85.8</ele>
        <time>2023-10-07T11:45:34Z</time>
      </trkpt>
      <trkpt lat="48.0378" lon="-0.39915">
        <ele>85.8</ele>
        <time>2023-10-07T11:45:35Z</time>
      </trkpt>
      <trkpt lat="48.0378" lon="-0.39926">
        <ele>86</ele>
        <time>2023-10-07T11:45:36Z</time>
      </trkpt>
      <trkpt lat="48.0378" lon="-0.39937">
        <ele>86.2</ele>
        <time>2023-10-07T11:45:37Z</time>
      </trkpt>
      <trkpt lat="48.0378" lon="-0.39948">
        <ele>86.2</ele>
        <time>2023-10-07T11:45:38Z</time>
      </trkpt>
      <trkpt lat="48.0378" lon="-0.39959">
        <ele>86.2</ele>
        <time>2023-10-07T11:45:39Z</time>
      </trkpt>
      <trkpt lat="48.0378" lon="-0.3997">
        <ele>85.4</ele>
        <time>2023-10-07T11:45:40Z</time>
      </trkpt>
      <trkpt lat="48.0378" lon="-0.39981">
        <ele>85.6</ele>
        <time>2023-10-07T11:45:41Z</time>
      </trkpt>
      <trkpt lat="48.0378" lon="-0.39991">
        <ele>85.6</ele>
        <time>2023-10-07T11:45:42Z</time>
      </trkpt>
      <trkpt lat="48.0378" lon="-0.40002">
        <ele>85.6</ele>
        <time>2023-10-07T11:45:43Z</time>
      </trkpt>
      <trkpt lat="48.0378" lon="-0.40013">
        <ele>85.2</ele>
        <time>2023-10-07T11:45:44Z</time>
      </trkpt>
      <trkpt lat="48.0378" lon="-0.40023">
        <ele>85.6</ele>
        <time>2023-10-07T11:45:45Z</time>
      </trkpt>
      <trkpt lat="48.0378" lon="-0.40033">
        <ele>85.6</ele>
        <time>2023-10-07T11:45:46Z</time>
      </trkpt>
      <trkpt lat="48.0378" lon="-0.40044">
        <ele>85.6</ele>
        <time>2023-10-07T11:45:47Z</time>
      </trkpt>
      <trkpt lat="48.03779" lon="-0.40054">
        <ele>85.6</ele>
        <time>2023-10-07T11:45:48Z</time>
      </trkpt>
      <trkpt lat="48.03779" lon="-0.40064">
        <ele>85.2</ele>
        <time>2023-10-07T11:45:49Z</time>
      </trkpt>
      <trkpt lat="48.03779" lon="-0.40075">
        <ele>85.2</ele>
        <time>2023-10-07T11:45:50Z</time>
      </trkpt>
      <trkpt lat="48.03779" lon="-0.40085">
        <ele>85.2</ele>
        <time>2023-10-07T11:45:51Z</time>
      </trkpt>
      <trkpt lat="48.03779" lon="-0.40096">
        <ele>85.8</ele>
        <time>2023-10-07T11:45:52Z</time>
      </trkpt>
      <trkpt lat="48.03779" lon="-0.40106">
        <ele>85.6</ele>
        <time>2023-10-07T11:45:53Z</time>
      </trkpt>
      <trkpt lat="48.03779" lon="-0.40116">
        <ele>85.6</ele>
        <time>2023-10-07T11:45:54Z</time>
      </trkpt>
      <trkpt lat="48.03779" lon="-0.40127">
        <ele>85.6</ele>
        <time>2023-10-07T11:45:55Z</time>
      </trkpt>
      <trkpt lat="48.03779" lon="-0.40137">
        <ele>85.6</ele>
        <time>2023-10-07T11:45:56Z</time>
      </trkpt>
      <trkpt lat="48.03779" lon="-0.40147">
        <ele>85.6</ele>
        <time>2023-10-07T11:45:57Z</time>
      </trkpt>
      <trkpt lat="48.03779" lon="-0.40157">
        <ele>85.6</ele>
        <time>2023-10-07T11:45:58Z</time>
      </trkpt>
      <trkpt lat="48.03779" lon="-0.40167">
        <ele>85.6</ele>
        <time>2023-10-07T11:45:59Z</time>
      </trkpt>
      <trkpt lat="48.0378" lon="-0.40176">
        <ele>85.6</ele>
        <time>2023-10-07T11:46:00Z</time>
      </trkpt>
      <trkpt lat="48.03779" lon="-0.40185">
        <ele>86.4</ele>
        <time>2023-10-07T11:46:01Z</time>
      </trkpt>
      <trkpt lat="48.03779" lon="-0.40195">
        <ele>86.4</ele>
        <time>2023-10-07T11:46:02Z</time>
      </trkpt>
      <trkpt lat="48.03779" lon="-0.40205">
        <ele>86.4</ele>
        <time>2023-10-07T11:46:03Z</time>
      </trkpt>
      <trkpt lat="48.03779" lon="-0.40214">
        <ele>86.4</ele>
        <time>2023-10-07T11:46:04Z</time>
      </trkpt>
      <trkpt lat="48.03779" lon="-0.40224">
        <ele>86.2</ele>
        <time>2023-10-07T11:46:05Z</time>
      </trkpt>
      <trkpt lat="48.03779" lon="-0.40234">
        <ele>86.2</ele>
        <time>2023-10-07T11:46:06Z</time>
      </trkpt>
      <trkpt lat="48.03779" lon="-0.40244">
        <ele>86.2</ele>
        <time>2023-10-07T11:46:07Z</time>
      </trkpt>
      <trkpt lat="48.03779" lon="-0.40254">
        <ele>86.2</ele>
        <time>2023-10-07T11:46:08Z</time>
      </trkpt>
      <trkpt lat="48.03779" lon="-0.40264">
        <ele>85.6</ele>
        <time>2023-10-07T11:46:09Z</time>
      </trkpt>
      <trkpt lat="48.03779" lon="-0.40274">
        <ele>85.6</ele>
        <time>2023-10-07T11:46:10Z</time>
      </trkpt>
      <trkpt lat="48.03779" lon="-0.40284">
        <ele>85.6</ele>
        <time>2023-10-07T11:46:11Z</time>
      </trkpt>
      <trkpt lat="48.03779" lon="-0.40294">
        <ele>86.6</ele>
        <time>2023-10-07T11:46:12Z</time>
      </trkpt>
      <trkpt lat="48.03779" lon="-0.40304">
        <ele>86.6</ele>
        <time>2023-10-07T11:46:13Z</time>
      </trkpt>
      <trkpt lat="48.03779" lon="-0.40313">
        <ele>86.6</ele>
        <time>2023-10-07T11:46:14Z</time>
      </trkpt>
      <trkpt lat="48.03779" lon="-0.40323">
        <ele>86.6</ele>
        <time>2023-10-07T11:46:15Z</time>
      </trkpt>
      <trkpt lat="48.03779" lon="-0.40334">
        <ele>86.2</ele>
        <time>2023-10-07T11:46:16Z</time>
      </trkpt>
      <trkpt lat="48.03779" lon="-0.40344">
        <ele>86.2</ele>
        <time>2023-10-07T11:46:17Z</time>
      </trkpt>
      <trkpt lat="48.03779" lon="-0.40354">
        <ele>86.2</ele>
        <time>2023-10-07T11:46:18Z</time>
      </trkpt>
      <trkpt lat="48.03779" lon="-0.40364">
        <ele>86.2</ele>
        <time>2023-10-07T11:46:19Z</time>
      </trkpt>
      <trkpt lat="48.03779" lon="-0.40375">
        <ele>86.8</ele>
        <time>2023-10-07T11:46:20Z</time>
      </trkpt>
      <trkpt lat="48.03779" lon="-0.40385">
        <ele>86.8</ele>
        <time>2023-10-07T11:46:21Z</time>
      </trkpt>
      <trkpt lat="48.03778" lon="-0.40395">
        <ele>86.8</ele>
        <time>2023-10-07T11:46:22Z</time>
      </trkpt>
      <trkpt lat="48.03778" lon="-0.40405">
        <ele>86.8</ele>
        <time>2023-10-07T11:46:23Z</time>
      </trkpt>
      <trkpt lat="48.03778" lon="-0.40415">
        <ele>86.8</ele>
        <time>2023-10-07T11:46:24Z</time>
      </trkpt>
      <trkpt lat="48.03778" lon="-0.40426">
        <ele>86.8</ele>
        <time>2023-10-07T11:46:25Z</time>
      </trkpt>
      <trkpt lat="48.03778" lon="-0.40436">
        <ele>86.8</ele>
        <time>2023-10-07T11:46:26Z</time>
      </trkpt>
      <trkpt lat="48.03778" lon="-0.40446">
        <ele>86.8</ele>
        <time>2023-10-07T11:46:27Z</time>
      </trkpt>
      <trkpt lat="48.03777" lon="-0.40456">
        <ele>87</ele>
        <time>2023-10-07T11:46:28Z</time>
      </trkpt>
      <trkpt lat="48.03777" lon="-0.40466">
        <ele>86.2</ele>
        <time>2023-10-07T11:46:29Z</time>
      </trkpt>
      <trkpt lat="48.03778" lon="-0.40476">
        <ele>86.2</ele>
        <time>2023-10-07T11:46:30Z</time>
      </trkpt>
      <trkpt lat="48.03777" lon="-0.40486">
        <ele>86.2</ele>
        <time>2023-10-07T11:46:31Z</time>
      </trkpt>
      <trkpt lat="48.03777" lon="-0.40496">
        <ele>86.2</ele>
        <time>2023-10-07T11:46:32Z</time>
      </trkpt>
      <trkpt lat="48.03777" lon="-0.40506">
        <ele>86.2</ele>
        <time>2023-10-07T11:46:33Z</time>
      </trkpt>
      <trkpt lat="48.03777" lon="-0.40516">
        <ele>86.2</ele>
        <time>2023-10-07T11:46:34Z</time>
      </trkpt>
      <trkpt lat="48.03777" lon="-0.40526">
        <ele>86.2</ele>
        <time>2023-10-07T11:46:35Z</time>
      </trkpt>
      <trkpt lat="48.03777" lon="-0.40535">
        <ele>86.2</ele>
        <time>2023-10-07T11:46:36Z</time>
      </trkpt>
      <trkpt lat="48.03777" lon="-0.40545">
        <ele>86.2</ele>
        <time>2023-10-07T11:46:37Z</time>
      </trkpt>
      <trkpt lat="48.03777" lon="-0.40554">
        <ele>86.2</ele>
        <time>2023-10-07T11:46:38Z</time>
      </trkpt>
      <trkpt lat="48.03777" lon="-0.40564">
        <ele>86.2</ele>
        <time>2023-10-07T11:46:39Z</time>
      </trkpt>
      <trkpt lat="48.03777" lon="-0.40574">
        <ele>87.2</ele>
        <time>2023-10-07T11:46:40Z</time>
      </trkpt>
      <trkpt lat="48.03777" lon="-0.40583">
        <ele>87</ele>
        <time>2023-10-07T11:46:41Z</time>
      </trkpt>
      <trkpt lat="48.03777" lon="-0.40592">
        <ele>87</ele>
        <time>2023-10-07T11:46:42Z</time>
      </trkpt>
      <trkpt lat="48.03776" lon="-0.40601">
        <ele>87</ele>
        <time>2023-10-07T11:46:43Z</time>
      </trkpt>
      <trkpt lat="48.03776" lon="-0.40611">
        <ele>87</ele>
        <time>2023-10-07T11:46:44Z</time>
      </trkpt>
      <trkpt lat="48.03776" lon="-0.4062">
        <ele>88</ele>
        <time>2023-10-07T11:46:45Z</time>
      </trkpt>
      <trkpt lat="48.03776" lon="-0.4063">
        <ele>88</ele>
        <time>2023-10-07T11:46:46Z</time>
      </trkpt>
      <trkpt lat="48.03776" lon="-0.40639">
        <ele>88</ele>
        <time>2023-10-07T11:46:47Z</time>
      </trkpt>
      <trkpt lat="48.03776" lon="-0.40649">
        <ele>87.8</ele>
        <time>2023-10-07T11:46:48Z</time>
      </trkpt>
      <trkpt lat="48.03776" lon="-0.40658">
        <ele>88</ele>
        <time>2023-10-07T11:46:49Z</time>
      </trkpt>
      <trkpt lat="48.03776" lon="-0.40667">
        <ele>88</ele>
        <time>2023-10-07T11:46:50Z</time>
      </trkpt>
      <trkpt lat="48.03776" lon="-0.40676">
        <ele>88</ele>
        <time>2023-10-07T11:46:51Z</time>
      </trkpt>
      <trkpt lat="48.03776" lon="-0.40685">
        <ele>88.8</ele>
        <time>2023-10-07T11:46:52Z</time>
      </trkpt>
      <trkpt lat="48.03776" lon="-0.40693">
        <ele>88.8</ele>
        <time>2023-10-07T11:46:53Z</time>
      </trkpt>
      <trkpt lat="48.03776" lon="-0.40702">
        <ele>88.8</ele>
        <time>2023-10-07T11:46:54Z</time>
      </trkpt>
      <trkpt lat="48.03776" lon="-0.4071">
        <ele>88.8</ele>
        <time>2023-10-07T11:46:55Z</time>
      </trkpt>
      <trkpt lat="48.03776" lon="-0.40719">
        <ele>88.8</ele>
        <time>2023-10-07T11:46:56Z</time>
      </trkpt>
      <trkpt lat="48.03776" lon="-0.40727">
        <ele>89.4</ele>
        <time>2023-10-07T11:46:57Z</time>
      </trkpt>
      <trkpt lat="48.03776" lon="-0.40735">
        <ele>89.4</ele>
        <time>2023-10-07T11:46:58Z</time>
      </trkpt>
      <trkpt lat="48.03777" lon="-0.40742">
        <ele>89.4</ele>
        <time>2023-10-07T11:46:59Z</time>
      </trkpt>
      <trkpt lat="48.03778" lon="-0.4075">
        <ele>89.4</ele>
        <time>2023-10-07T11:47:00Z</time>
      </trkpt>
      <trkpt lat="48.03778" lon="-0.40758">
        <ele>90</ele>
        <time>2023-10-07T11:47:01Z</time>
      </trkpt>
      <trkpt lat="48.03778" lon="-0.40766">
        <ele>90</ele>
        <time>2023-10-07T11:47:02Z</time>
      </trkpt>
      <trkpt lat="48.03777" lon="-0.40775">
        <ele>90</ele>
        <time>2023-10-07T11:47:03Z</time>
      </trkpt>
      <trkpt lat="48.03777" lon="-0.40783">
        <ele>90</ele>
        <time>2023-10-07T11:47:04Z</time>
      </trkpt>
      <trkpt lat="48.03777" lon="-0.40791">
        <ele>90</ele>
        <time>2023-10-07T11:47:05Z</time>
      </trkpt>
      <trkpt lat="48.03777" lon="-0.40799">
        <ele>90</ele>
        <time>2023-10-07T11:47:06Z</time>
      </trkpt>
      <trkpt lat="48.03777" lon="-0.40807">
        <ele>90</ele>
        <time>2023-10-07T11:47:07Z</time>
      </trkpt>
      <trkpt lat="48.03777" lon="-0.40815">
        <ele>90</ele>
        <time>2023-10-07T11:47:08Z</time>
      </trkpt>
      <trkpt lat="48.03777" lon="-0.40823">
        <ele>90</ele>
        <time>2023-10-07T11:47:09Z</time>
      </trkpt>
      <trkpt lat="48.03776" lon="-0.40831">
        <ele>90</ele>
        <time>2023-10-07T11:47:10Z</time>
      </trkpt>
      <trkpt lat="48.03776" lon="-0.4084">
        <ele>90</ele>
        <time>2023-10-07T11:47:11Z</time>
      </trkpt>
      <trkpt lat="48.03776" lon="-0.40848">
        <ele>90</ele>
        <time>2023-10-07T11:47:12Z</time>
      </trkpt>
      <trkpt lat="48.03776" lon="-0.40856">
        <ele>90.4</ele>
        <time>2023-10-07T11:47:13Z</time>
      </trkpt>
      <trkpt lat="48.03776" lon="-0.40865">
        <ele>90.4</ele>
        <time>2023-10-07T11:47:14Z</time>
      </trkpt>
      <trkpt lat="48.03776" lon="-0.40874">
        <ele>90.4</ele>
        <time>2023-10-07T11:47:15Z</time>
      </trkpt>
      <trkpt lat="48.03775" lon="-0.40882">
        <ele>90.4</ele>
        <time>2023-10-07T11:47:16Z</time>
      </trkpt>
      <trkpt lat="48.03775" lon="-0.40891">
        <ele>91</ele>
        <time>2023-10-07T11:47:17Z</time>
      </trkpt>
      <trkpt lat="48.03775" lon="-0.40899">
        <ele>91</ele>
        <time>2023-10-07T11:47:18Z</time>
      </trkpt>
      <trkpt lat="48.03775" lon="-0.40907">
        <ele>91</ele>
        <time>2023-10-07T11:47:19Z</time>
      </trkpt>
      <trkpt lat="48.03775" lon="-0.40915">
        <ele>91</ele>
        <time>2023-10-07T11:47:20Z</time>
      </trkpt>
      <trkpt lat="48.03774" lon="-0.40922">
        <ele>91.8</ele>
        <time>2023-10-07T11:47:21Z</time>
      </trkpt>
      <trkpt lat="48.03774" lon="-0.4093">
        <ele>91.8</ele>
        <time>2023-10-07T11:47:22Z</time>
      </trkpt>
      <trkpt lat="48.03774" lon="-0.40938">
        <ele>91.8</ele>
        <time>2023-10-07T11:47:23Z</time>
      </trkpt>
      <trkpt lat="48.03775" lon="-0.40945">
        <ele>91.8</ele>
        <time>2023-10-07T11:47:24Z</time>
      </trkpt>
      <trkpt lat="48.03775" lon="-0.40953">
        <ele>92.4</ele>
        <time>2023-10-07T11:47:25Z</time>
      </trkpt>
      <trkpt lat="48.03775" lon="-0.40962">
        <ele>92.4</ele>
        <time>2023-10-07T11:47:26Z</time>
      </trkpt>
      <trkpt lat="48.03775" lon="-0.4097">
        <ele>92.4</ele>
        <time>2023-10-07T11:47:27Z</time>
      </trkpt>
      <trkpt lat="48.03776" lon="-0.40979">
        <ele>92.4</ele>
        <time>2023-10-07T11:47:28Z</time>
      </trkpt>
      <trkpt lat="48.03776" lon="-0.40987">
        <ele>92.4</ele>
        <time>2023-10-07T11:47:29Z</time>
      </trkpt>
      <trkpt lat="48.03776" lon="-0.40996">
        <ele>92.4</ele>
        <time>2023-10-07T11:47:30Z</time>
      </trkpt>
      <trkpt lat="48.03776" lon="-0.41004">
        <ele>92.4</ele>
        <time>2023-10-07T11:47:31Z</time>
      </trkpt>
      <trkpt lat="48.03775" lon="-0.41012">
        <ele>92.4</ele>
        <time>2023-10-07T11:47:32Z</time>
      </trkpt>
      <trkpt lat="48.03775" lon="-0.4102">
        <ele>93</ele>
        <time>2023-10-07T11:47:33Z</time>
      </trkpt>
      <trkpt lat="48.03775" lon="-0.41029">
        <ele>93</ele>
        <time>2023-10-07T11:47:34Z</time>
      </trkpt>
      <trkpt lat="48.03776" lon="-0.41037">
        <ele>93</ele>
        <time>2023-10-07T11:47:35Z</time>
      </trkpt>
      <trkpt lat="48.03776" lon="-0.41044">
        <ele>93</ele>
        <time>2023-10-07T11:47:36Z</time>
      </trkpt>
      <trkpt lat="48.03776" lon="-0.41052">
        <ele>93.2</ele>
        <time>2023-10-07T11:47:37Z</time>
      </trkpt>
      <trkpt lat="48.03776" lon="-0.4106">
        <ele>93.2</ele>
        <time>2023-10-07T11:47:38Z</time>
      </trkpt>
      <trkpt lat="48.03776" lon="-0.41069">
        <ele>93.2</ele>
        <time>2023-10-07T11:47:39Z</time>
      </trkpt>
      <trkpt lat="48.03776" lon="-0.41077">
        <ele>93.2</ele>
        <time>2023-10-07T11:47:40Z</time>
      </trkpt>
      <trkpt lat="48.03776" lon="-0.41084">
        <ele>93.8</ele>
        <time>2023-10-07T11:47:41Z</time>
      </trkpt>
      <trkpt lat="48.03776" lon="-0.41092">
        <ele>93.8</ele>
        <time>2023-10-07T11:47:42Z</time>
      </trkpt>
      <trkpt lat="48.03776" lon="-0.411">
        <ele>93.8</ele>
        <time>2023-10-07T11:47:43Z</time>
      </trkpt>
      <trkpt lat="48.03776" lon="-0.41108">
        <ele>93.8</ele>
        <time>2023-10-07T11:47:44Z</time>
      </trkpt>
      <trkpt lat="48.03776" lon="-0.41116">
        <ele>94.4</ele>
        <time>2023-10-07T11:47:45Z</time>
      </trkpt>
      <trkpt lat="48.03776" lon="-0.41124">
        <ele>94.4</ele>
        <time>2023-10-07T11:47:46Z</time>
      </trkpt>
      <trkpt lat="48.03776" lon="-0.41133">
        <ele>94.4</ele>
        <time>2023-10-07T11:47:47Z</time>
      </trkpt>
      <trkpt lat="48.03776" lon="-0.41141">
        <ele>94.8</ele>
        <time>2023-10-07T11:47:48Z</time>
      </trkpt>
      <trkpt lat="48.03776" lon="-0.41149">
        <ele>94.8</ele>
        <time>2023-10-07T11:47:49Z</time>
      </trkpt>
      <trkpt lat="48.03775" lon="-0.41157">
        <ele>94.8</ele>
        <time>2023-10-07T11:47:50Z</time>
      </trkpt>
      <trkpt lat="48.03775" lon="-0.41165">
        <ele>94.8</ele>
        <time>2023-10-07T11:47:51Z</time>
      </trkpt>
      <trkpt lat="48.03775" lon="-0.41173">
        <ele>95.2</ele>
        <time>2023-10-07T11:47:52Z</time>
      </trkpt>
      <trkpt lat="48.03775" lon="-0.41181">
        <ele>95.4</ele>
        <time>2023-10-07T11:47:53Z</time>
      </trkpt>
      <trkpt lat="48.03775" lon="-0.41189">
        <ele>95.4</ele>
        <time>2023-10-07T11:47:54Z</time>
      </trkpt>
      <trkpt lat="48.03775" lon="-0.41197">
        <ele>95.4</ele>
        <time>2023-10-07T11:47:55Z</time>
      </trkpt>
      <trkpt lat="48.03775" lon="-0.41205">
        <ele>95.4</ele>
        <time>2023-10-07T11:47:56Z</time>
      </trkpt>
      <trkpt lat="48.03775" lon="-0.41213">
        <ele>95.8</ele>
        <time>2023-10-07T11:47:57Z</time>
      </trkpt>
      <trkpt lat="48.03775" lon="-0.41221">
        <ele>95.8</ele>
        <time>2023-10-07T11:47:58Z</time>
      </trkpt>
      <trkpt lat="48.03774" lon="-0.41229">
        <ele>95.8</ele>
        <time>2023-10-07T11:47:59Z</time>
      </trkpt>
      <trkpt lat="48.03774" lon="-0.41237">
        <ele>95.8</ele>
        <time>2023-10-07T11:48:00Z</time>
      </trkpt>
      <trkpt lat="48.03774" lon="-0.41244">
        <ele>96.2</ele>
        <time>2023-10-07T11:48:01Z</time>
      </trkpt>
      <trkpt lat="48.03774" lon="-0.41252">
        <ele>96.2</ele>
        <time>2023-10-07T11:48:02Z</time>
      </trkpt>
      <trkpt lat="48.03774" lon="-0.41261">
        <ele>96.2</ele>
        <time>2023-10-07T11:48:03Z</time>
      </trkpt>
      <trkpt lat="48.03774" lon="-0.41269">
        <ele>96.2</ele>
        <time>2023-10-07T11:48:04Z</time>
      </trkpt>
      <trkpt lat="48.03774" lon="-0.41278">
        <ele>96.4</ele>
        <time>2023-10-07T11:48:05Z</time>
      </trkpt>
      <trkpt lat="48.03774" lon="-0.41286">
        <ele>96.4</ele>
        <time>2023-10-07T11:48:06Z</time>
      </trkpt>
      <trkpt lat="48.03774" lon="-0.41294">
        <ele>96.4</ele>
        <time>2023-10-07T11:48:07Z</time>
      </trkpt>
      <trkpt lat="48.03773" lon="-0.41302">
        <ele>96.8</ele>
        <time>2023-10-07T11:48:08Z</time>
      </trkpt>
      <trkpt lat="48.03773" lon="-0.4131">
        <ele>96.8</ele>
        <time>2023-10-07T11:48:09Z</time>
      </trkpt>
      <trkpt lat="48.03773" lon="-0.41318">
        <ele>96.8</ele>
        <time>2023-10-07T11:48:10Z</time>
      </trkpt>
      <trkpt lat="48.03773" lon="-0.41326">
        <ele>96.8</ele>
        <time>2023-10-07T11:48:11Z</time>
      </trkpt>
      <trkpt lat="48.03773" lon="-0.41334">
        <ele>96.8</ele>
        <time>2023-10-07T11:48:12Z</time>
      </trkpt>
      <trkpt lat="48.03773" lon="-0.41342">
        <ele>97.4</ele>
        <time>2023-10-07T11:48:13Z</time>
      </trkpt>
      <trkpt lat="48.03773" lon="-0.4135">
        <ele>97.4</ele>
        <time>2023-10-07T11:48:14Z</time>
      </trkpt>
      <trkpt lat="48.03772" lon="-0.41357">
        <ele>97.4</ele>
        <time>2023-10-07T11:48:15Z</time>
      </trkpt>
      <trkpt lat="48.03772" lon="-0.41364">
        <ele>98</ele>
        <time>2023-10-07T11:48:16Z</time>
      </trkpt>
      <trkpt lat="48.03772" lon="-0.41372">
        <ele>98.4</ele>
        <time>2023-10-07T11:48:17Z</time>
      </trkpt>
      <trkpt lat="48.03772" lon="-0.41379">
        <ele>98.4</ele>
        <time>2023-10-07T11:48:18Z</time>
      </trkpt>
      <trkpt lat="48.03772" lon="-0.41387">
        <ele>98.4</ele>
        <time>2023-10-07T11:48:19Z</time>
      </trkpt>
      <trkpt lat="48.03772" lon="-0.41394">
        <ele>98.2</ele>
        <time>2023-10-07T11:48:20Z</time>
      </trkpt>
      <trkpt lat="48.03772" lon="-0.41402">
        <ele>97.8</ele>
        <time>2023-10-07T11:48:21Z</time>
      </trkpt>
      <trkpt lat="48.03772" lon="-0.4141">
        <ele>97.8</ele>
        <time>2023-10-07T11:48:22Z</time>
      </trkpt>
      <trkpt lat="48.03772" lon="-0.41418">
        <ele>97.8</ele>
        <time>2023-10-07T11:48:23Z</time>
      </trkpt>
      <trkpt lat="48.03772" lon="-0.41426">
        <ele>97.8</ele>
        <time>2023-10-07T11:48:24Z</time>
      </trkpt>
      <trkpt lat="48.03772" lon="-0.41434">
        <ele>97.8</ele>
        <time>2023-10-07T11:48:25Z</time>
      </trkpt>
      <trkpt lat="48.03771" lon="-0.41442">
        <ele>97.8</ele>
        <time>2023-10-07T11:48:26Z</time>
      </trkpt>
      <trkpt lat="48.03771" lon="-0.4145">
        <ele>97.8</ele>
        <time>2023-10-07T11:48:27Z</time>
      </trkpt>
      <trkpt lat="48.03771" lon="-0.41459">
        <ele>97.4</ele>
        <time>2023-10-07T11:48:28Z</time>
      </trkpt>
      <trkpt lat="48.03771" lon="-0.41467">
        <ele>97.4</ele>
        <time>2023-10-07T11:48:29Z</time>
      </trkpt>
      <trkpt lat="48.03771" lon="-0.41476">
        <ele>97.4</ele>
        <time>2023-10-07T11:48:30Z</time>
      </trkpt>
      <trkpt lat="48.03771" lon="-0.41485">
        <ele>97.4</ele>
        <time>2023-10-07T11:48:31Z</time>
      </trkpt>
      <trkpt lat="48.03771" lon="-0.41494">
        <ele>96.8</ele>
        <time>2023-10-07T11:48:32Z</time>
      </trkpt>
      <trkpt lat="48.03771" lon="-0.41504">
        <ele>96.8</ele>
        <time>2023-10-07T11:48:33Z</time>
      </trkpt>
      <trkpt lat="48.03771" lon="-0.41513">
        <ele>96.8</ele>
        <time>2023-10-07T11:48:34Z</time>
      </trkpt>
      <trkpt lat="48.03771" lon="-0.41523">
        <ele>96.8</ele>
        <time>2023-10-07T11:48:35Z</time>
      </trkpt>
      <trkpt lat="48.03771" lon="-0.41532">
        <ele>96.8</ele>
        <time>2023-10-07T11:48:36Z</time>
      </trkpt>
      <trkpt lat="48.03771" lon="-0.41541">
        <ele>96.4</ele>
        <time>2023-10-07T11:48:37Z</time>
      </trkpt>
      <trkpt lat="48.03771" lon="-0.41551">
        <ele>96.4</ele>
        <time>2023-10-07T11:48:38Z</time>
      </trkpt>
      <trkpt lat="48.03771" lon="-0.41561">
        <ele>96.4</ele>
        <time>2023-10-07T11:48:39Z</time>
      </trkpt>
      <trkpt lat="48.03772" lon="-0.4157">
        <ele>95.8</ele>
        <time>2023-10-07T11:48:40Z</time>
      </trkpt>
      <trkpt lat="48.03772" lon="-0.4158">
        <ele>96</ele>
        <time>2023-10-07T11:48:41Z</time>
      </trkpt>
      <trkpt lat="48.03771" lon="-0.4159">
        <ele>96</ele>
        <time>2023-10-07T11:48:42Z</time>
      </trkpt>
      <trkpt lat="48.03771" lon="-0.416">
        <ele>96</ele>
        <time>2023-10-07T11:48:43Z</time>
      </trkpt>
      <trkpt lat="48.03771" lon="-0.41609">
        <ele>96.6</ele>
        <time>2023-10-07T11:48:44Z</time>
      </trkpt>
      <trkpt lat="48.03771" lon="-0.41619">
        <ele>96.2</ele>
        <time>2023-10-07T11:48:45Z</time>
      </trkpt>
      <trkpt lat="48.03771" lon="-0.41629">
        <ele>96.2</ele>
        <time>2023-10-07T11:48:46Z</time>
      </trkpt>
      <trkpt lat="48.03771" lon="-0.41639">
        <ele>96.2</ele>
        <time>2023-10-07T11:48:47Z</time>
      </trkpt>
      <trkpt lat="48.03771" lon="-0.41648">
        <ele>95.4</ele>
        <time>2023-10-07T11:48:48Z</time>
      </trkpt>
      <trkpt lat="48.0377" lon="-0.41658">
        <ele>96.4</ele>
        <time>2023-10-07T11:48:49Z</time>
      </trkpt>
      <trkpt lat="48.0377" lon="-0.41668">
        <ele>96.4</ele>
        <time>2023-10-07T11:48:50Z</time>
      </trkpt>
      <trkpt lat="48.0377" lon="-0.41678">
        <ele>96.4</ele>
        <time>2023-10-07T11:48:51Z</time>
      </trkpt>
      <trkpt lat="48.0377" lon="-0.41688">
        <ele>96.4</ele>
        <time>2023-10-07T11:48:52Z</time>
      </trkpt>
      <trkpt lat="48.0377" lon="-0.41698">
        <ele>95.8</ele>
        <time>2023-10-07T11:48:53Z</time>
      </trkpt>
      <trkpt lat="48.0377" lon="-0.41708">
        <ele>95.8</ele>
        <time>2023-10-07T11:48:54Z</time>
      </trkpt>
      <trkpt lat="48.0377" lon="-0.41718">
        <ele>95.8</ele>
        <time>2023-10-07T11:48:55Z</time>
      </trkpt>
      <trkpt lat="48.0377" lon="-0.41728">
        <ele>95.2</ele>
        <time>2023-10-07T11:48:56Z</time>
      </trkpt>
      <trkpt lat="48.0377" lon="-0.41738">
        <ele>94.6</ele>
        <time>2023-10-07T11:48:57Z</time>
      </trkpt>
      <trkpt lat="48.03769" lon="-0.41748">
        <ele>94.6</ele>
        <time>2023-10-07T11:48:58Z</time>
      </trkpt>
      <trkpt lat="48.03769" lon="-0.41758">
        <ele>94.6</ele>
        <time>2023-10-07T11:48:59Z</time>
      </trkpt>
      <trkpt lat="48.03769" lon="-0.41768">
        <ele>94.6</ele>
        <time>2023-10-07T11:49:00Z</time>
      </trkpt>
      <trkpt lat="48.03769" lon="-0.41778">
        <ele>94</ele>
        <time>2023-10-07T11:49:01Z</time>
      </trkpt>
      <trkpt lat="48.03769" lon="-0.41788">
        <ele>94</ele>
        <time>2023-10-07T11:49:02Z</time>
      </trkpt>
      <trkpt lat="48.03769" lon="-0.41797">
        <ele>94</ele>
        <time>2023-10-07T11:49:03Z</time>
      </trkpt>
      <trkpt lat="48.03768" lon="-0.41807">
        <ele>94.2</ele>
        <time>2023-10-07T11:49:04Z</time>
      </trkpt>
      <trkpt lat="48.03768" lon="-0.41817">
        <ele>93.2</ele>
        <time>2023-10-07T11:49:05Z</time>
      </trkpt>
      <trkpt lat="48.03768" lon="-0.41827">
        <ele>93.2</ele>
        <time>2023-10-07T11:49:06Z</time>
      </trkpt>
      <trkpt lat="48.03768" lon="-0.41836">
        <ele>93.2</ele>
        <time>2023-10-07T11:49:07Z</time>
      </trkpt>
      <trkpt lat="48.03769" lon="-0.41846">
        <ele>93.2</ele>
        <time>2023-10-07T11:49:08Z</time>
      </trkpt>
      <trkpt lat="48.03769" lon="-0.41856">
        <ele>92.6</ele>
        <time>2023-10-07T11:49:09Z</time>
      </trkpt>
      <trkpt lat="48.03769" lon="-0.41866">
        <ele>92.6</ele>
        <time>2023-10-07T11:49:10Z</time>
      </trkpt>
      <trkpt lat="48.03769" lon="-0.41876">
        <ele>92.6</ele>
        <time>2023-10-07T11:49:11Z</time>
      </trkpt>
      <trkpt lat="48.03769" lon="-0.41886">
        <ele>92.6</ele>
        <time>2023-10-07T11:49:12Z</time>
      </trkpt>
      <trkpt lat="48.03769" lon="-0.41896">
        <ele>93</ele>
        <time>2023-10-07T11:49:13Z</time>
      </trkpt>
      <trkpt lat="48.03768" lon="-0.41906">
        <ele>93</ele>
        <time>2023-10-07T11:49:14Z</time>
      </trkpt>
      <trkpt lat="48.03768" lon="-0.41916">
        <ele>93</ele>
        <time>2023-10-07T11:49:15Z</time>
      </trkpt>
      <trkpt lat="48.03768" lon="-0.41927">
        <ele>93</ele>
        <time>2023-10-07T11:49:16Z</time>
      </trkpt>
      <trkpt lat="48.03768" lon="-0.41937">
        <ele>92.6</ele>
        <time>2023-10-07T11:49:17Z</time>
      </trkpt>
      <trkpt lat="48.03768" lon="-0.41947">
        <ele>92.6</ele>
        <time>2023-10-07T11:49:18Z</time>
      </trkpt>
      <trkpt lat="48.03768" lon="-0.41957">
        <ele>92.6</ele>
        <time>2023-10-07T11:49:19Z</time>
      </trkpt>
      <trkpt lat="48.03768" lon="-0.41967">
        <ele>93.6</ele>
        <time>2023-10-07T11:49:20Z</time>
      </trkpt>
      <trkpt lat="48.03768" lon="-0.41977">
        <ele>93.4</ele>
        <time>2023-10-07T11:49:21Z</time>
      </trkpt>
      <trkpt lat="48.03768" lon="-0.41987">
        <ele>93.4</ele>
        <time>2023-10-07T11:49:22Z</time>
      </trkpt>
      <trkpt lat="48.03768" lon="-0.41996">
        <ele>93.4</ele>
        <time>2023-10-07T11:49:23Z</time>
      </trkpt>
      <trkpt lat="48.03768" lon="-0.42006">
        <ele>93.8</ele>
        <time>2023-10-07T11:49:24Z</time>
      </trkpt>
      <trkpt lat="48.03768" lon="-0.42016">
        <ele>94</ele>
        <time>2023-10-07T11:49:25Z</time>
      </trkpt>
      <trkpt lat="48.03768" lon="-0.42025">
        <ele>94</ele>
        <time>2023-10-07T11:49:26Z</time>
      </trkpt>
      <trkpt lat="48.03768" lon="-0.42035">
        <ele>94</ele>
        <time>2023-10-07T11:49:27Z</time>
      </trkpt>
      <trkpt lat="48.03768" lon="-0.42044">
        <ele>94.2</ele>
        <time>2023-10-07T11:49:28Z</time>
      </trkpt>
      <trkpt lat="48.03768" lon="-0.42053">
        <ele>94.4</ele>
        <time>2023-10-07T11:49:29Z</time>
      </trkpt>
      <trkpt lat="48.03767" lon="-0.42062">
        <ele>94.4</ele>
        <time>2023-10-07T11:49:30Z</time>
      </trkpt>
      <trkpt lat="48.03768" lon="-0.42071">
        <ele>94.4</ele>
        <time>2023-10-07T11:49:31Z</time>
      </trkpt>
      <trkpt lat="48.03768" lon="-0.4208">
        <ele>95.4</ele>
        <time>2023-10-07T11:49:32Z</time>
      </trkpt>
      <trkpt lat="48.03768" lon="-0.42089">
        <ele>95.6</ele>
        <time>2023-10-07T11:49:33Z</time>
      </trkpt>
      <trkpt lat="48.03768" lon="-0.42097">
        <ele>95.6</ele>
        <time>2023-10-07T11:49:34Z</time>
      </trkpt>
      <trkpt lat="48.03768" lon="-0.42106">
        <ele>95.6</ele>
        <time>2023-10-07T11:49:35Z</time>
      </trkpt>
      <trkpt lat="48.03768" lon="-0.42114">
        <ele>96.6</ele>
        <time>2023-10-07T11:49:36Z</time>
      </trkpt>
      <trkpt lat="48.03768" lon="-0.42122">
        <ele>96.8</ele>
        <time>2023-10-07T11:49:37Z</time>
      </trkpt>
      <trkpt lat="48.03768" lon="-0.4213">
        <ele>96.8</ele>
        <time>2023-10-07T11:49:38Z</time>
      </trkpt>
      <trkpt lat="48.03767" lon="-0.42138">
        <ele>96.8</ele>
        <time>2023-10-07T11:49:39Z</time>
      </trkpt>
      <trkpt lat="48.03767" lon="-0.42146">
        <ele>96.8</ele>
        <time>2023-10-07T11:49:40Z</time>
      </trkpt>
      <trkpt lat="48.03767" lon="-0.42153">
        <ele>97.8</ele>
        <time>2023-10-07T11:49:41Z</time>
      </trkpt>
      <trkpt lat="48.03767" lon="-0.42161">
        <ele>97.8</ele>
        <time>2023-10-07T11:49:42Z</time>
      </trkpt>
      <trkpt lat="48.03767" lon="-0.42169">
        <ele>97.8</ele>
        <time>2023-10-07T11:49:43Z</time>
      </trkpt>
      <trkpt lat="48.03767" lon="-0.42176">
        <ele>98.6</ele>
        <time>2023-10-07T11:49:44Z</time>
      </trkpt>
      <trkpt lat="48.03767" lon="-0.42184">
        <ele>99.2</ele>
        <time>2023-10-07T11:49:45Z</time>
      </trkpt>
      <trkpt lat="48.03767" lon="-0.42192">
        <ele>99.2</ele>
        <time>2023-10-07T11:49:46Z</time>
      </trkpt>
      <trkpt lat="48.03767" lon="-0.42199">
        <ele>99.2</ele>
        <time>2023-10-07T11:49:47Z</time>
      </trkpt>
      <trkpt lat="48.03767" lon="-0.42207">
        <ele>99.8</ele>
        <time>2023-10-07T11:49:48Z</time>
      </trkpt>
      <trkpt lat="48.03766" lon="-0.42214">
        <ele>99.4</ele>
        <time>2023-10-07T11:49:49Z</time>
      </trkpt>
      <trkpt lat="48.03766" lon="-0.42222">
        <ele>99.4</ele>
        <time>2023-10-07T11:49:50Z</time>
      </trkpt>
      <trkpt lat="48.03766" lon="-0.42229">
        <ele>99.4</ele>
        <time>2023-10-07T11:49:51Z</time>
      </trkpt>
      <trkpt lat="48.03766" lon="-0.42236">
        <ele>100.2</ele>
        <time>2023-10-07T11:49:52Z</time>
      </trkpt>
      <trkpt lat="48.03766" lon="-0.42244">
        <ele>100.8</ele>
        <time>2023-10-07T11:49:53Z</time>
      </trkpt>
      <trkpt lat="48.03766" lon="-0.42251">
        <ele>100.8</ele>
        <time>2023-10-07T11:49:54Z</time>
      </trkpt>
      <trkpt lat="48.03766" lon="-0.42258">
        <ele>100.8</ele>
        <time>2023-10-07T11:49:55Z</time>
      </trkpt>
      <trkpt lat="48.03766" lon="-0.42265">
        <ele>100.8</ele>
        <time>2023-10-07T11:49:56Z</time>
      </trkpt>
      <trkpt lat="48.03766" lon="-0.42272">
        <ele>101</ele>
        <time>2023-10-07T11:49:57Z</time>
      </trkpt>
      <trkpt lat="48.03766" lon="-0.42279">
        <ele>101</ele>
        <time>2023-10-07T11:49:58Z</time>
      </trkpt>
      <trkpt lat="48.03766" lon="-0.42286">
        <ele>101</ele>
        <time>2023-10-07T11:49:59Z</time>
      </trkpt>
      <trkpt lat="48.03766" lon="-0.42293">
        <ele>101.6</ele>
        <time>2023-10-07T11:50:00Z</time>
      </trkpt>
      <trkpt lat="48.03766" lon="-0.42299">
        <ele>102</ele>
        <time>2023-10-07T11:50:01Z</time>
      </trkpt>
      <trkpt lat="48.03766" lon="-0.42306">
        <ele>102</ele>
        <time>2023-10-07T11:50:02Z</time>
      </trkpt>
      <trkpt lat="48.03766" lon="-0.42312">
        <ele>102</ele>
        <time>2023-10-07T11:50:03Z</time>
      </trkpt>
      <trkpt lat="48.03766" lon="-0.42319">
        <ele>103</ele>
        <time>2023-10-07T11:50:04Z</time>
      </trkpt>
      <trkpt lat="48.03766" lon="-0.42325">
        <ele>103</ele>
        <time>2023-10-07T11:50:05Z</time>
      </trkpt>
      <trkpt lat="48.03766" lon="-0.42332">
        <ele>103</ele>
        <time>2023-10-07T11:50:06Z</time>
      </trkpt>
      <trkpt lat="48.03766" lon="-0.42338">
        <ele>103</ele>
        <time>2023-10-07T11:50:07Z</time>
      </trkpt>
      <trkpt lat="48.03766" lon="-0.42344">
        <ele>103.6</ele>
        <time>2023-10-07T11:50:08Z</time>
      </trkpt>
      <trkpt lat="48.03766" lon="-0.42351">
        <ele>103.8</ele>
        <time>2023-10-07T11:50:09Z</time>
      </trkpt>
      <trkpt lat="48.03766" lon="-0.42357">
        <ele>103.8</ele>
        <time>2023-10-07T11:50:10Z</time>
      </trkpt>
      <trkpt lat="48.03766" lon="-0.42364">
        <ele>103.8</ele>
        <time>2023-10-07T11:50:11Z</time>
      </trkpt>
      <trkpt lat="48.03766" lon="-0.4237">
        <ele>104.8</ele>
        <time>2023-10-07T11:50:12Z</time>
      </trkpt>
      <trkpt lat="48.03766" lon="-0.42376">
        <ele>104.8</ele>
        <time>2023-10-07T11:50:13Z</time>
      </trkpt>
      <trkpt lat="48.03766" lon="-0.42382">
        <ele>104.8</ele>
        <time>2023-10-07T11:50:14Z</time>
      </trkpt>
      <trkpt lat="48.03766" lon="-0.42388">
        <ele>104.8</ele>
        <time>2023-10-07T11:50:15Z</time>
      </trkpt>
      <trkpt lat="48.03766" lon="-0.42394">
        <ele>104.8</ele>
        <time>2023-10-07T11:50:16Z</time>
      </trkpt>
      <trkpt lat="48.03766" lon="-0.424">
        <ele>105.6</ele>
        <time>2023-10-07T11:50:17Z</time>
      </trkpt>
      <trkpt lat="48.03766" lon="-0.42406">
        <ele>105.6</ele>
        <time>2023-10-07T11:50:18Z</time>
      </trkpt>
      <trkpt lat="48.03765" lon="-0.42412">
        <ele>105.6</ele>
        <time>2023-10-07T11:50:19Z</time>
      </trkpt>
      <trkpt lat="48.03765" lon="-0.42417">
        <ele>106</ele>
        <time>2023-10-07T11:50:20Z</time>
      </trkpt>
      <trkpt lat="48.03765" lon="-0.42423">
        <ele>106.2</ele>
        <time>2023-10-07T11:50:21Z</time>
      </trkpt>
      <trkpt lat="48.03765" lon="-0.42429">
        <ele>106.2</ele>
        <time>2023-10-07T11:50:22Z</time>
      </trkpt>
      <trkpt lat="48.03765" lon="-0.42435">
        <ele>106.2</ele>
        <time>2023-10-07T11:50:23Z</time>
      </trkpt>
      <trkpt lat="48.03765" lon="-0.42441">
        <ele>106.2</ele>
        <time>2023-10-07T11:50:24Z</time>
      </trkpt>
      <trkpt lat="48.03765" lon="-0.42447">
        <ele>107</ele>
        <time>2023-10-07T11:50:25Z</time>
      </trkpt>
      <trkpt lat="48.03765" lon="-0.42452">
        <ele>107</ele>
        <time>2023-10-07T11:50:26Z</time>
      </trkpt>
      <trkpt lat="48.03765" lon="-0.42458">
        <ele>107</ele>
        <time>2023-10-07T11:50:27Z</time>
      </trkpt>
      <trkpt lat="48.03765" lon="-0.42463">
        <ele>107</ele>
        <time>2023-10-07T11:50:28Z</time>
      </trkpt>
      <trkpt lat="48.03765" lon="-0.42469">
        <ele>107.6</ele>
        <time>2023-10-07T11:50:29Z</time>
      </trkpt>
      <trkpt lat="48.03765" lon="-0.42474">
        <ele>107.6</ele>
        <time>2023-10-07T11:50:30Z</time>
      </trkpt>
      <trkpt lat="48.03764" lon="-0.42479">
        <ele>107.6</ele>
        <time>2023-10-07T11:50:31Z</time>
      </trkpt>
      <trkpt lat="48.03765" lon="-0.42485">
        <ele>108.2</ele>
        <time>2023-10-07T11:50:32Z</time>
      </trkpt>
      <trkpt lat="48.03765" lon="-0.4249">
        <ele>108.4</ele>
        <time>2023-10-07T11:50:33Z</time>
      </trkpt>
      <trkpt lat="48.03765" lon="-0.42496">
        <ele>108.4</ele>
        <time>2023-10-07T11:50:34Z</time>
      </trkpt>
      <trkpt lat="48.03765" lon="-0.42501">
        <ele>108.4</ele>
        <time>2023-10-07T11:50:35Z</time>
      </trkpt>
      <trkpt lat="48.03765" lon="-0.42507">
        <ele>108.4</ele>
        <time>2023-10-07T11:50:36Z</time>
      </trkpt>
      <trkpt lat="48.03765" lon="-0.42513">
        <ele>109.2</ele>
        <time>2023-10-07T11:50:37Z</time>
      </trkpt>
      <trkpt lat="48.03765" lon="-0.42518">
        <ele>109.2</ele>
        <time>2023-10-07T11:50:38Z</time>
      </trkpt>
      <trkpt lat="48.03765" lon="-0.42523">
        <ele>109.2</ele>
        <time>2023-10-07T11:50:39Z</time>
      </trkpt>
      <trkpt lat="48.03765" lon="-0.42528">
        <ele>109.2</ele>
        <time>2023-10-07T11:50:40Z</time>
      </trkpt>
      <trkpt lat="48.03765" lon="-0.42534">
        <ele>109.2</ele>
        <time>2023-10-07T11:50:41Z</time>
      </trkpt>
      <trkpt lat="48.03765" lon="-0.42539">
        <ele>109.2</ele>
        <time>2023-10-07T11:50:42Z</time>
      </trkpt>
      <trkpt lat="48.03765" lon="-0.42544">
        <ele>109.2</ele>
        <time>2023-10-07T11:50:43Z</time>
      </trkpt>
      <trkpt lat="48.03765" lon="-0.4255">
        <ele>110.2</ele>
        <time>2023-10-07T11:50:44Z</time>
      </trkpt>
      <trkpt lat="48.03765" lon="-0.42555">
        <ele>110.8</ele>
        <time>2023-10-07T11:50:45Z</time>
      </trkpt>
      <trkpt lat="48.03765" lon="-0.4256">
        <ele>110.8</ele>
        <time>2023-10-07T11:50:46Z</time>
      </trkpt>
      <trkpt lat="48.03764" lon="-0.42566">
        <ele>110.8</ele>
        <time>2023-10-07T11:50:47Z</time>
      </trkpt>
      <trkpt lat="48.03764" lon="-0.42571">
        <ele>110.8</ele>
        <time>2023-10-07T11:50:48Z</time>
      </trkpt>
      <trkpt lat="48.03764" lon="-0.42576">
        <ele>111.8</ele>
        <time>2023-10-07T11:50:49Z</time>
      </trkpt>
      <trkpt lat="48.03764" lon="-0.42582">
        <ele>111.8</ele>
        <time>2023-10-07T11:50:50Z</time>
      </trkpt>
      <trkpt lat="48.03764" lon="-0.42588">
        <ele>111.8</ele>
        <time>2023-10-07T11:50:51Z</time>
      </trkpt>
      <trkpt lat="48.03764" lon="-0.42593">
        <ele>111.6</ele>
        <time>2023-10-07T11:50:52Z</time>
      </trkpt>
      <trkpt lat="48.03764" lon="-0.42599">
        <ele>112</ele>
        <time>2023-10-07T11:50:53Z</time>
      </trkpt>
      <trkpt lat="48.03764" lon="-0.42604">
        <ele>112</ele>
        <time>2023-10-07T11:50:54Z</time>
      </trkpt>
      <trkpt lat="48.03764" lon="-0.4261">
        <ele>112</ele>
        <time>2023-10-07T11:50:55Z</time>
      </trkpt>
      <trkpt lat="48.03764" lon="-0.42615">
        <ele>112</ele>
        <time>2023-10-07T11:50:56Z</time>
      </trkpt>
      <trkpt lat="48.03765" lon="-0.4262">
        <ele>112.6</ele>
        <time>2023-10-07T11:50:57Z</time>
      </trkpt>
      <trkpt lat="48.03765" lon="-0.42625">
        <ele>112.6</ele>
        <time>2023-10-07T11:50:58Z</time>
      </trkpt>
      <trkpt lat="48.03765" lon="-0.42631">
        <ele>112.6</ele>
        <time>2023-10-07T11:50:59Z</time>
      </trkpt>
      <trkpt lat="48.03765" lon="-0.42636">
        <ele>112.6</ele>
        <time>2023-10-07T11:51:00Z</time>
      </trkpt>
      <trkpt lat="48.03765" lon="-0.42641">
        <ele>113</ele>
        <time>2023-10-07T11:51:01Z</time>
      </trkpt>
      <trkpt lat="48.03765" lon="-0.42646">
        <ele>113</ele>
        <time>2023-10-07T11:51:02Z</time>
      </trkpt>
      <trkpt lat="48.03765" lon="-0.42651">
        <ele>113</ele>
        <time>2023-10-07T11:51:03Z</time>
      </trkpt>
      <trkpt lat="48.03765" lon="-0.42657">
        <ele>113</ele>
        <time>2023-10-07T11:51:04Z</time>
      </trkpt>
      <trkpt lat="48.03765" lon="-0.42662">
        <ele>113.6</ele>
        <time>2023-10-07T11:51:05Z</time>
      </trkpt>
      <trkpt lat="48.03766" lon="-0.42668">
        <ele>113.6</ele>
        <time>2023-10-07T11:51:06Z</time>
      </trkpt>
      <trkpt lat="48.03766" lon="-0.42673">
        <ele>113.6</ele>
        <time>2023-10-07T11:51:07Z</time>
      </trkpt>
      <trkpt lat="48.03766" lon="-0.42678">
        <ele>113.6</ele>
        <time>2023-10-07T11:51:08Z</time>
      </trkpt>
      <trkpt lat="48.03765" lon="-0.42684">
        <ele>114</ele>
        <time>2023-10-07T11:51:09Z</time>
      </trkpt>
      <trkpt lat="48.03765" lon="-0.42689">
        <ele>114</ele>
        <time>2023-10-07T11:51:10Z</time>
      </trkpt>
      <trkpt lat="48.03765" lon="-0.42694">
        <ele>114</ele>
        <time>2023-10-07T11:51:11Z</time>
      </trkpt>
      <trkpt lat="48.03765" lon="-0.427">
        <ele>114.2</ele>
        <time>2023-10-07T11:51:12Z</time>
      </trkpt>
      <trkpt lat="48.03765" lon="-0.42705">
        <ele>114.4</ele>
        <time>2023-10-07T11:51:13Z</time>
      </trkpt>
      <trkpt lat="48.03765" lon="-0.42711">
        <ele>114.4</ele>
        <time>2023-10-07T11:51:14Z</time>
      </trkpt>
      <trkpt lat="48.03765" lon="-0.42716">
        <ele>114.4</ele>
        <time>2023-10-07T11:51:15Z</time>
      </trkpt>
      <trkpt lat="48.03765" lon="-0.42722">
        <ele>115</ele>
        <time>2023-10-07T11:51:16Z</time>
      </trkpt>
      <trkpt lat="48.03765" lon="-0.42727">
        <ele>114.8</ele>
        <time>2023-10-07T11:51:17Z</time>
      </trkpt>
      <trkpt lat="48.03765" lon="-0.42733">
        <ele>114.8</ele>
        <time>2023-10-07T11:51:18Z</time>
      </trkpt>
      <trkpt lat="48.03765" lon="-0.42738">
        <ele>114.8</ele>
        <time>2023-10-07T11:51:19Z</time>
      </trkpt>
      <trkpt lat="48.03765" lon="-0.42744">
        <ele>115.6</ele>
        <time>2023-10-07T11:51:20Z</time>
      </trkpt>
      <trkpt lat="48.03765" lon="-0.4275">
        <ele>115.8</ele>
        <time>2023-10-07T11:51:21Z</time>
      </trkpt>
      <trkpt lat="48.03764" lon="-0.42755">
        <ele>115.8</ele>
        <time>2023-10-07T11:51:22Z</time>
      </trkpt>
      <trkpt lat="48.03764" lon="-0.42761">
        <ele>115.8</ele>
        <time>2023-10-07T11:51:23Z</time>
      </trkpt>
      <trkpt lat="48.03764" lon="-0.42767">
        <ele>115.8</ele>
        <time>2023-10-07T11:51:24Z</time>
      </trkpt>
      <trkpt lat="48.03764" lon="-0.42772">
        <ele>116.4</ele>
        <time>2023-10-07T11:51:25Z</time>
      </trkpt>
      <trkpt lat="48.03764" lon="-0.42778">
        <ele>116.4</ele>
        <time>2023-10-07T11:51:26Z</time>
      </trkpt>
      <trkpt lat="48.03764" lon="-0.42784">
        <ele>116.4</ele>
        <time>2023-10-07T11:51:27Z</time>
      </trkpt>
      <trkpt lat="48.03764" lon="-0.4279">
        <ele>116.4</ele>
        <time>2023-10-07T11:51:28Z</time>
      </trkpt>
      <trkpt lat="48.03764" lon="-0.42796">
        <ele>116.4</ele>
        <time>2023-10-07T11:51:29Z</time>
      </trkpt>
      <trkpt lat="48.03764" lon="-0.42802">
        <ele>116.4</ele>
        <time>2023-10-07T11:51:30Z</time>
      </trkpt>
      <trkpt lat="48.03764" lon="-0.42808">
        <ele>116.4</ele>
        <time>2023-10-07T11:51:31Z</time>
      </trkpt>
      <trkpt lat="48.03764" lon="-0.42814">
        <ele>116.4</ele>
        <time>2023-10-07T11:51:32Z</time>
      </trkpt>
      <trkpt lat="48.03764" lon="-0.42821">
        <ele>116.2</ele>
        <time>2023-10-07T11:51:33Z</time>
      </trkpt>
      <trkpt lat="48.03764" lon="-0.42827">
        <ele>116.2</ele>
        <time>2023-10-07T11:51:34Z</time>
      </trkpt>
      <trkpt lat="48.03764" lon="-0.42833">
        <ele>116.2</ele>
        <time>2023-10-07T11:51:35Z</time>
      </trkpt>
      <trkpt lat="48.03764" lon="-0.42839">
        <ele>116.2</ele>
        <time>2023-10-07T11:51:36Z</time>
      </trkpt>
      <trkpt lat="48.03764" lon="-0.42846">
        <ele>116.4</ele>
        <time>2023-10-07T11:51:37Z</time>
      </trkpt>
      <trkpt lat="48.03764" lon="-0.42852">
        <ele>116.4</ele>
        <time>2023-10-07T11:51:38Z</time>
      </trkpt>
      <trkpt lat="48.03764" lon="-0.42859">
        <ele>116.4</ele>
        <time>2023-10-07T11:51:39Z</time>
      </trkpt>
      <trkpt lat="48.03764" lon="-0.42866">
        <ele>115.8</ele>
        <time>2023-10-07T11:51:40Z</time>
      </trkpt>
      <trkpt lat="48.03764" lon="-0.42872">
        <ele>115.8</ele>
        <time>2023-10-07T11:51:41Z</time>
      </trkpt>
      <trkpt lat="48.03764" lon="-0.42879">
        <ele>115.8</ele>
        <time>2023-10-07T11:51:42Z</time>
      </trkpt>
      <trkpt lat="48.03764" lon="-0.42886">
        <ele>115.8</ele>
        <time>2023-10-07T11:51:43Z</time>
      </trkpt>
      <trkpt lat="48.03764" lon="-0.42893">
        <ele>115.8</ele>
        <time>2023-10-07T11:51:44Z</time>
      </trkpt>
      <trkpt lat="48.03764" lon="-0.429">
        <ele>116</ele>
        <time>2023-10-07T11:51:45Z</time>
      </trkpt>
      <trkpt lat="48.03764" lon="-0.42907">
        <ele>116</ele>
        <time>2023-10-07T11:51:46Z</time>
      </trkpt>
      <trkpt lat="48.03764" lon="-0.42914">
        <ele>116</ele>
        <time>2023-10-07T11:51:47Z</time>
      </trkpt>
      <trkpt lat="48.03764" lon="-0.42922">
        <ele>116</ele>
        <time>2023-10-07T11:51:48Z</time>
      </trkpt>
      <trkpt lat="48.03764" lon="-0.42929">
        <ele>116</ele>
        <time>2023-10-07T11:51:49Z</time>
      </trkpt>
      <trkpt lat="48.03763" lon="-0.42936">
        <ele>116</ele>
        <time>2023-10-07T11:51:50Z</time>
      </trkpt>
      <trkpt lat="48.03762" lon="-0.42944">
        <ele>116</ele>
        <time>2023-10-07T11:51:51Z</time>
      </trkpt>
      <trkpt lat="48.03761" lon="-0.42951">
        <ele>115.6</ele>
        <time>2023-10-07T11:51:52Z</time>
      </trkpt>
      <trkpt lat="48.0376" lon="-0.42957">
        <ele>116</ele>
        <time>2023-10-07T11:51:53Z</time>
      </trkpt>
      <trkpt lat="48.0376" lon="-0.42964">
        <ele>116</ele>
        <time>2023-10-07T11:51:54Z</time>
      </trkpt>
      <trkpt lat="48.03757" lon="-0.42971">
        <ele>116</ele>
        <time>2023-10-07T11:51:55Z</time>
      </trkpt>
      <trkpt lat="48.03754" lon="-0.42975">
        <ele>116</ele>
        <time>2023-10-07T11:51:56Z</time>
      </trkpt>
      <trkpt lat="48.03749" lon="-0.42977">
        <ele>115.4</ele>
        <time>2023-10-07T11:51:57Z</time>
      </trkpt>
      <trkpt lat="48.03744" lon="-0.42976">
        <ele>115.4</ele>
        <time>2023-10-07T11:51:58Z</time>
      </trkpt>
      <trkpt lat="48.0374" lon="-0.42974">
        <ele>115.4</ele>
        <time>2023-10-07T11:51:59Z</time>
      </trkpt>
      <trkpt lat="48.03735" lon="-0.42971">
        <ele>115.4</ele>
        <time>2023-10-07T11:52:00Z</time>
      </trkpt>
      <trkpt lat="48.03731" lon="-0.42967">
        <ele>115</ele>
        <time>2023-10-07T11:52:01Z</time>
      </trkpt>
      <trkpt lat="48.03727" lon="-0.42963">
        <ele>115</ele>
        <time>2023-10-07T11:52:02Z</time>
      </trkpt>
      <trkpt lat="48.03722" lon="-0.42959">
        <ele>115</ele>
        <time>2023-10-07T11:52:03Z</time>
      </trkpt>
      <trkpt lat="48.03718" lon="-0.42955">
        <ele>115</ele>
        <time>2023-10-07T11:52:04Z</time>
      </trkpt>
      <trkpt lat="48.03714" lon="-0.42951">
        <ele>115.8</ele>
        <time>2023-10-07T11:52:05Z</time>
      </trkpt>
      <trkpt lat="48.03709" lon="-0.42947">
        <ele>115.8</ele>
        <time>2023-10-07T11:52:06Z</time>
      </trkpt>
      <trkpt lat="48.03705" lon="-0.42942">
        <ele>115.8</ele>
        <time>2023-10-07T11:52:07Z</time>
      </trkpt>
      <trkpt lat="48.03701" lon="-0.42938">
        <ele>115.8</ele>
        <time>2023-10-07T11:52:08Z</time>
      </trkpt>
      <trkpt lat="48.03696" lon="-0.42934">
        <ele>115.4</ele>
        <time>2023-10-07T11:52:09Z</time>
      </trkpt>
      <trkpt lat="48.03691" lon="-0.42929">
        <ele>115.4</ele>
        <time>2023-10-07T11:52:10Z</time>
      </trkpt>
      <trkpt lat="48.03687" lon="-0.42925">
        <ele>115.4</ele>
        <time>2023-10-07T11:52:11Z</time>
      </trkpt>
      <trkpt lat="48.03682" lon="-0.4292">
        <ele>115.4</ele>
        <time>2023-10-07T11:52:12Z</time>
      </trkpt>
      <trkpt lat="48.03677" lon="-0.42916">
        <ele>115.8</ele>
        <time>2023-10-07T11:52:13Z</time>
      </trkpt>
      <trkpt lat="48.03673" lon="-0.42912">
        <ele>115.8</ele>
        <time>2023-10-07T11:52:14Z</time>
      </trkpt>
      <trkpt lat="48.03668" lon="-0.42908">
        <ele>115.8</ele>
        <time>2023-10-07T11:52:15Z</time>
      </trkpt>
      <trkpt lat="48.03664" lon="-0.42904">
        <ele>116.8</ele>
        <time>2023-10-07T11:52:16Z</time>
      </trkpt>
      <trkpt lat="48.03659" lon="-0.429">
        <ele>117.2</ele>
        <time>2023-10-07T11:52:17Z</time>
      </trkpt>
      <trkpt lat="48.03655" lon="-0.42896">
        <ele>117.2</ele>
        <time>2023-10-07T11:52:18Z</time>
      </trkpt>
      <trkpt lat="48.0365" lon="-0.42892">
        <ele>117.2</ele>
        <time>2023-10-07T11:52:19Z</time>
      </trkpt>
      <trkpt lat="48.03646" lon="-0.42889">
        <ele>117.2</ele>
        <time>2023-10-07T11:52:20Z</time>
      </trkpt>
      <trkpt lat="48.03642" lon="-0.42885">
        <ele>117.8</ele>
        <time>2023-10-07T11:52:21Z</time>
      </trkpt>
      <trkpt lat="48.03638" lon="-0.42882">
        <ele>117.8</ele>
        <time>2023-10-07T11:52:22Z</time>
      </trkpt>
      <trkpt lat="48.03633" lon="-0.42879">
        <ele>117.8</ele>
        <time>2023-10-07T11:52:23Z</time>
      </trkpt>
      <trkpt lat="48.03629" lon="-0.42876">
        <ele>117.8</ele>
        <time>2023-10-07T11:52:24Z</time>
      </trkpt>
      <trkpt lat="48.03625" lon="-0.42874">
        <ele>118</ele>
        <time>2023-10-07T11:52:25Z</time>
      </trkpt>
      <trkpt lat="48.03621" lon="-0.42871">
        <ele>118</ele>
        <time>2023-10-07T11:52:26Z</time>
      </trkpt>
      <trkpt lat="48.03617" lon="-0.42869">
        <ele>118</ele>
        <time>2023-10-07T11:52:27Z</time>
      </trkpt>
      <trkpt lat="48.03613" lon="-0.42866">
        <ele>118</ele>
        <time>2023-10-07T11:52:28Z</time>
      </trkpt>
      <trkpt lat="48.03608" lon="-0.42864">
        <ele>118.4</ele>
        <time>2023-10-07T11:52:29Z</time>
      </trkpt>
      <trkpt lat="48.03604" lon="-0.42862">
        <ele>118.4</ele>
        <time>2023-10-07T11:52:30Z</time>
      </trkpt>
      <trkpt lat="48.036" lon="-0.4286">
        <ele>118.4</ele>
        <time>2023-10-07T11:52:31Z</time>
      </trkpt>
      <trkpt lat="48.03596" lon="-0.42858">
        <ele>118.8</ele>
        <time>2023-10-07T11:52:32Z</time>
      </trkpt>
      <trkpt lat="48.03592" lon="-0.42856">
        <ele>119</ele>
        <time>2023-10-07T11:52:33Z</time>
      </trkpt>
      <trkpt lat="48.03588" lon="-0.42853">
        <ele>119</ele>
        <time>2023-10-07T11:52:34Z</time>
      </trkpt>
      <trkpt lat="48.03584" lon="-0.4285">
        <ele>119</ele>
        <time>2023-10-07T11:52:35Z</time>
      </trkpt>
      <trkpt lat="48.03581" lon="-0.42847">
        <ele>119.4</ele>
        <time>2023-10-07T11:52:36Z</time>
      </trkpt>
      <trkpt lat="48.03578" lon="-0.42845">
        <ele>119.8</ele>
        <time>2023-10-07T11:52:37Z</time>
      </trkpt>
      <trkpt lat="48.03575" lon="-0.42843">
        <ele>119.8</ele>
        <time>2023-10-07T11:52:38Z</time>
      </trkpt>
      <trkpt lat="48.03572" lon="-0.42841">
        <ele>119.8</ele>
        <time>2023-10-07T11:52:39Z</time>
      </trkpt>
      <trkpt lat="48.0357" lon="-0.42841">
        <ele>119.8</ele>
        <time>2023-10-07T11:52:40Z</time>
      </trkpt>
      <trkpt lat="48.03568" lon="-0.42841">
        <ele>120</ele>
        <time>2023-10-07T11:52:41Z</time>
      </trkpt>
      <trkpt lat="48.03566" lon="-0.42841">
        <ele>120</ele>
        <time>2023-10-07T11:52:42Z</time>
      </trkpt>
      <trkpt lat="48.03566" lon="-0.42841">
        <ele>120</ele>
        <time>2023-10-07T11:52:43Z</time>
      </trkpt>
      <trkpt lat="48.0356" lon="-0.42841">
        <ele>119.8</ele>
        <time>2023-10-07T11:54:42Z</time>
      </trkpt>
      <trkpt lat="48.03558" lon="-0.42844">
        <ele>119.8</ele>
        <time>2023-10-07T11:54:43Z</time>
      </trkpt>
      <trkpt lat="48.03556" lon="-0.42847">
        <ele>119.8</ele>
        <time>2023-10-07T11:54:44Z</time>
      </trkpt>
      <trkpt lat="48.03554" lon="-0.42851">
        <ele>119</ele>
        <time>2023-10-07T11:54:45Z</time>
      </trkpt>
      <trkpt lat="48.03552" lon="-0.42856">
        <ele>119</ele>
        <time>2023-10-07T11:54:46Z</time>
      </trkpt>
      <trkpt lat="48.03549" lon="-0.42861">
        <ele>119</ele>
        <time>2023-10-07T11:54:47Z</time>
      </trkpt>
      <trkpt lat="48.03546" lon="-0.42867">
        <ele>118</ele>
        <time>2023-10-07T11:54:48Z</time>
      </trkpt>
      <trkpt lat="48.03544" lon="-0.42872">
        <ele>117.8</ele>
        <time>2023-10-07T11:54:49Z</time>
      </trkpt>
      <trkpt lat="48.0354" lon="-0.42878">
        <ele>117.8</ele>
        <time>2023-10-07T11:54:50Z</time>
      </trkpt>
      <trkpt lat="48.03537" lon="-0.42885">
        <ele>117.8</ele>
        <time>2023-10-07T11:54:51Z</time>
      </trkpt>
      <trkpt lat="48.03534" lon="-0.42892">
        <ele>116.8</ele>
        <time>2023-10-07T11:54:52Z</time>
      </trkpt>
      <trkpt lat="48.03531" lon="-0.42899">
        <ele>116</ele>
        <time>2023-10-07T11:54:53Z</time>
      </trkpt>
      <trkpt lat="48.03528" lon="-0.42907">
        <ele>116</ele>
        <time>2023-10-07T11:54:54Z</time>
      </trkpt>
      <trkpt lat="48.03526" lon="-0.42916">
        <ele>116</ele>
        <time>2023-10-07T11:54:55Z</time>
      </trkpt>
      <trkpt lat="48.03523" lon="-0.42924">
        <ele>115.4</ele>
        <time>2023-10-07T11:54:56Z</time>
      </trkpt>
      <trkpt lat="48.0352" lon="-0.42933">
        <ele>115</ele>
        <time>2023-10-07T11:54:57Z</time>
      </trkpt>
      <trkpt lat="48.03517" lon="-0.42942">
        <ele>115</ele>
        <time>2023-10-07T11:54:58Z</time>
      </trkpt>
      <trkpt lat="48.03514" lon="-0.4295">
        <ele>115</ele>
        <time>2023-10-07T11:54:59Z</time>
      </trkpt>
      <trkpt lat="48.03511" lon="-0.42959">
        <ele>114</ele>
        <time>2023-10-07T11:55:00Z</time>
      </trkpt>
      <trkpt lat="48.03509" lon="-0.42967">
        <ele>113</ele>
        <time>2023-10-07T11:55:01Z</time>
      </trkpt>
      <trkpt lat="48.03506" lon="-0.42976">
        <ele>113</ele>
        <time>2023-10-07T11:55:02Z</time>
      </trkpt>
      <trkpt lat="48.03503" lon="-0.42984">
        <ele>113</ele>
        <time>2023-10-07T11:55:03Z</time>
      </trkpt>
      <trkpt lat="48.035" lon="-0.42993">
        <ele>114</ele>
        <time>2023-10-07T11:55:04Z</time>
      </trkpt>
      <trkpt lat="48.03498" lon="-0.43002">
        <ele>113.8</ele>
        <time>2023-10-07T11:55:05Z</time>
      </trkpt>
      <trkpt lat="48.03495" lon="-0.4301">
        <ele>113.8</ele>
        <time>2023-10-07T11:55:06Z</time>
      </trkpt>
      <trkpt lat="48.03492" lon="-0.43019">
        <ele>113.8</ele>
        <time>2023-10-07T11:55:07Z</time>
      </trkpt>
      <trkpt lat="48.0349" lon="-0.43028">
        <ele>113.8</ele>
        <time>2023-10-07T11:55:08Z</time>
      </trkpt>
      <trkpt lat="48.03487" lon="-0.43036">
        <ele>107.8</ele>
        <time>2023-10-07T11:55:09Z</time>
      </trkpt>
      <trkpt lat="48.03484" lon="-0.43045">
        <ele>107.8</ele>
        <time>2023-10-07T11:55:10Z</time>
      </trkpt>
      <trkpt lat="48.03482" lon="-0.43053">
        <ele>107.8</ele>
        <time>2023-10-07T11:55:11Z</time>
      </trkpt>
      <trkpt lat="48.03479" lon="-0.43061">
        <ele>108.8</ele>
        <time>2023-10-07T11:55:12Z</time>
      </trkpt>
      <trkpt lat="48.03476" lon="-0.43069">
        <ele>114</ele>
        <time>2023-10-07T11:55:13Z</time>
      </trkpt>
      <trkpt lat="48.03474" lon="-0.43077">
        <ele>114</ele>
        <time>2023-10-07T11:55:14Z</time>
      </trkpt>
      <trkpt lat="48.03472" lon="-0.43086">
        <ele>114</ele>
        <time>2023-10-07T11:55:15Z</time>
      </trkpt>
      <trkpt lat="48.03469" lon="-0.43094">
        <ele>114</ele>
        <time>2023-10-07T11:55:16Z</time>
      </trkpt>
      <trkpt lat="48.03467" lon="-0.43102">
        <ele>114.4</ele>
        <time>2023-10-07T11:55:17Z</time>
      </trkpt>
      <trkpt lat="48.03465" lon="-0.4311">
        <ele>114.4</ele>
        <time>2023-10-07T11:55:18Z</time>
      </trkpt>
      <trkpt lat="48.03463" lon="-0.43119">
        <ele>114.4</ele>
        <time>2023-10-07T11:55:19Z</time>
      </trkpt>
      <trkpt lat="48.03461" lon="-0.43127">
        <ele>114.4</ele>
        <time>2023-10-07T11:55:20Z</time>
      </trkpt>
      <trkpt lat="48.03459" lon="-0.43135">
        <ele>114.2</ele>
        <time>2023-10-07T11:55:21Z</time>
      </trkpt>
      <trkpt lat="48.03457" lon="-0.43143">
        <ele>114.2</ele>
        <time>2023-10-07T11:55:22Z</time>
      </trkpt>
      <trkpt lat="48.03455" lon="-0.43151">
        <ele>114.2</ele>
        <time>2023-10-07T11:55:23Z</time>
      </trkpt>
      <trkpt lat="48.03454" lon="-0.43159">
        <ele>115.2</ele>
        <time>2023-10-07T11:55:24Z</time>
      </trkpt>
      <trkpt lat="48.03452" lon="-0.43166">
        <ele>115.8</ele>
        <time>2023-10-07T11:55:25Z</time>
      </trkpt>
      <trkpt lat="48.03449" lon="-0.43173">
        <ele>115.8</ele>
        <time>2023-10-07T11:55:26Z</time>
      </trkpt>
      <trkpt lat="48.03446" lon="-0.4318">
        <ele>115.8</ele>
        <time>2023-10-07T11:55:27Z</time>
      </trkpt>
      <trkpt lat="48.03443" lon="-0.43185">
        <ele>115.2</ele>
        <time>2023-10-07T11:55:28Z</time>
      </trkpt>
      <trkpt lat="48.03439" lon="-0.4319">
        <ele>115.8</ele>
        <time>2023-10-07T11:55:29Z</time>
      </trkpt>
      <trkpt lat="48.03434" lon="-0.43194">
        <ele>115.8</ele>
        <time>2023-10-07T11:55:30Z</time>
      </trkpt>
      <trkpt lat="48.0343" lon="-0.43197">
        <ele>115.8</ele>
        <time>2023-10-07T11:55:31Z</time>
      </trkpt>
      <trkpt lat="48.03425" lon="-0.432">
        <ele>116.4</ele>
        <time>2023-10-07T11:55:32Z</time>
      </trkpt>
      <trkpt lat="48.03421" lon="-0.43204">
        <ele>116.6</ele>
        <time>2023-10-07T11:55:33Z</time>
      </trkpt>
      <trkpt lat="48.03416" lon="-0.43208">
        <ele>116.6</ele>
        <time>2023-10-07T11:55:34Z</time>
      </trkpt>
      <trkpt lat="48.03412" lon="-0.43212">
        <ele>116.6</ele>
        <time>2023-10-07T11:55:35Z</time>
      </trkpt>
      <trkpt lat="48.03408" lon="-0.43215">
        <ele>117.2</ele>
        <time>2023-10-07T11:55:36Z</time>
      </trkpt>
      <trkpt lat="48.03404" lon="-0.43219">
        <ele>117.8</ele>
        <time>2023-10-07T11:55:37Z</time>
      </trkpt>
      <trkpt lat="48.034" lon="-0.43222">
        <ele>117.8</ele>
        <time>2023-10-07T11:55:38Z</time>
      </trkpt>
      <trkpt lat="48.03395" lon="-0.43226">
        <ele>117.8</ele>
        <time>2023-10-07T11:55:39Z</time>
      </trkpt>
      <trkpt lat="48.03391" lon="-0.4323">
        <ele>118.8</ele>
        <time>2023-10-07T11:55:40Z</time>
      </trkpt>
      <trkpt lat="48.03386" lon="-0.43233">
        <ele>119.2</ele>
        <time>2023-10-07T11:55:41Z</time>
      </trkpt>
      <trkpt lat="48.03382" lon="-0.43237">
        <ele>119.2</ele>
        <time>2023-10-07T11:55:42Z</time>
      </trkpt>
      <trkpt lat="48.03378" lon="-0.43241">
        <ele>119.2</ele>
        <time>2023-10-07T11:55:43Z</time>
      </trkpt>
      <trkpt lat="48.03373" lon="-0.43244">
        <ele>119.2</ele>
        <time>2023-10-07T11:55:44Z</time>
      </trkpt>
      <trkpt lat="48.03369" lon="-0.43248">
        <ele>119.6</ele>
        <time>2023-10-07T11:55:45Z</time>
      </trkpt>
      <trkpt lat="48.03365" lon="-0.43252">
        <ele>119.6</ele>
        <time>2023-10-07T11:55:46Z</time>
      </trkpt>
      <trkpt lat="48.03361" lon="-0.43255">
        <ele>119.6</ele>
        <time>2023-10-07T11:55:47Z</time>
      </trkpt>
      <trkpt lat="48.03356" lon="-0.43259">
        <ele>119.6</ele>
        <time>2023-10-07T11:55:48Z</time>
      </trkpt>
      <trkpt lat="48.03352" lon="-0.43263">
        <ele>119.4</ele>
        <time>2023-10-07T11:55:49Z</time>
      </trkpt>
      <trkpt lat="48.03348" lon="-0.43266">
        <ele>119.4</ele>
        <time>2023-10-07T11:55:50Z</time>
      </trkpt>
      <trkpt lat="48.03344" lon="-0.43269">
        <ele>119.4</ele>
        <time>2023-10-07T11:55:51Z</time>
      </trkpt>
      <trkpt lat="48.0334" lon="-0.43273">
        <ele>120</ele>
        <time>2023-10-07T11:55:52Z</time>
      </trkpt>
      <trkpt lat="48.03336" lon="-0.43276">
        <ele>120.2</ele>
        <time>2023-10-07T11:55:53Z</time>
      </trkpt>
      <trkpt lat="48.03332" lon="-0.4328">
        <ele>120.2</ele>
        <time>2023-10-07T11:55:54Z</time>
      </trkpt>
      <trkpt lat="48.03328" lon="-0.43283">
        <ele>120.2</ele>
        <time>2023-10-07T11:55:55Z</time>
      </trkpt>
      <trkpt lat="48.03323" lon="-0.43287">
        <ele>120.4</ele>
        <time>2023-10-07T11:55:56Z</time>
      </trkpt>
      <trkpt lat="48.0332" lon="-0.4329">
        <ele>119.8</ele>
        <time>2023-10-07T11:55:57Z</time>
      </trkpt>
      <trkpt lat="48.03316" lon="-0.43294">
        <ele>119.8</ele>
        <time>2023-10-07T11:55:58Z</time>
      </trkpt>
      <trkpt lat="48.03312" lon="-0.43298">
        <ele>119.8</ele>
        <time>2023-10-07T11:55:59Z</time>
      </trkpt>
      <trkpt lat="48.03307" lon="-0.43301">
        <ele>120.8</ele>
        <time>2023-10-07T11:56:00Z</time>
      </trkpt>
      <trkpt lat="48.03303" lon="-0.43305">
        <ele>121.2</ele>
        <time>2023-10-07T11:56:01Z</time>
      </trkpt>
      <trkpt lat="48.03299" lon="-0.43309">
        <ele>121.2</ele>
        <time>2023-10-07T11:56:02Z</time>
      </trkpt>
      <trkpt lat="48.03295" lon="-0.43313">
        <ele>121.2</ele>
        <time>2023-10-07T11:56:03Z</time>
      </trkpt>
      <trkpt lat="48.03291" lon="-0.43317">
        <ele>121.2</ele>
        <time>2023-10-07T11:56:04Z</time>
      </trkpt>
      <trkpt lat="48.03287" lon="-0.43322">
        <ele>121.2</ele>
        <time>2023-10-07T11:56:05Z</time>
      </trkpt>
      <trkpt lat="48.03283" lon="-0.43327">
        <ele>121.2</ele>
        <time>2023-10-07T11:56:06Z</time>
      </trkpt>
      <trkpt lat="48.03279" lon="-0.43333">
        <ele>121.2</ele>
        <time>2023-10-07T11:56:07Z</time>
      </trkpt>
      <trkpt lat="48.03276" lon="-0.43339">
        <ele>121.2</ele>
        <time>2023-10-07T11:56:08Z</time>
      </trkpt>
      <trkpt lat="48.03273" lon="-0.43344">
        <ele>121.2</ele>
        <time>2023-10-07T11:56:09Z</time>
      </trkpt>
      <trkpt lat="48.0327" lon="-0.4335">
        <ele>121.2</ele>
        <time>2023-10-07T11:56:10Z</time>
      </trkpt>
      <trkpt lat="48.03267" lon="-0.43356">
        <ele>121.2</ele>
        <time>2023-10-07T11:56:11Z</time>
      </trkpt>
      <trkpt lat="48.03265" lon="-0.43363">
        <ele>121.6</ele>
        <time>2023-10-07T11:56:12Z</time>
      </trkpt>
      <trkpt lat="48.03263" lon="-0.4337">
        <ele>121.6</ele>
        <time>2023-10-07T11:56:13Z</time>
      </trkpt>
      <trkpt lat="48.03262" lon="-0.43377">
        <ele>121.6</ele>
        <time>2023-10-07T11:56:14Z</time>
      </trkpt>
      <trkpt lat="48.03261" lon="-0.43384">
        <ele>121.6</ele>
        <time>2023-10-07T11:56:15Z</time>
      </trkpt>
      <trkpt lat="48.0326" lon="-0.43391">
        <ele>121.6</ele>
        <time>2023-10-07T11:56:16Z</time>
      </trkpt>
      <trkpt lat="48.03259" lon="-0.43399">
        <ele>121.2</ele>
        <time>2023-10-07T11:56:17Z</time>
      </trkpt>
      <trkpt lat="48.03259" lon="-0.43407">
        <ele>121.2</ele>
        <time>2023-10-07T11:56:18Z</time>
      </trkpt>
      <trkpt lat="48.03258" lon="-0.43415">
        <ele>121.2</ele>
        <time>2023-10-07T11:56:19Z</time>
      </trkpt>
      <trkpt lat="48.03258" lon="-0.43423">
        <ele>121.6</ele>
        <time>2023-10-07T11:56:20Z</time>
      </trkpt>
      <trkpt lat="48.03258" lon="-0.4343">
        <ele>121.4</ele>
        <time>2023-10-07T11:56:21Z</time>
      </trkpt>
      <trkpt lat="48.03258" lon="-0.43438">
        <ele>121.4</ele>
        <time>2023-10-07T11:56:22Z</time>
      </trkpt>
      <trkpt lat="48.03258" lon="-0.43446">
        <ele>121.4</ele>
        <time>2023-10-07T11:56:23Z</time>
      </trkpt>
      <trkpt lat="48.03258" lon="-0.43453">
        <ele>121.4</ele>
        <time>2023-10-07T11:56:24Z</time>
      </trkpt>
      <trkpt lat="48.03259" lon="-0.43461">
        <ele>121.8</ele>
        <time>2023-10-07T11:56:25Z</time>
      </trkpt>
      <trkpt lat="48.03259" lon="-0.43468">
        <ele>121.8</ele>
        <time>2023-10-07T11:56:26Z</time>
      </trkpt>
      <trkpt lat="48.03259" lon="-0.43476">
        <ele>121.8</ele>
        <time>2023-10-07T11:56:27Z</time>
      </trkpt>
      <trkpt lat="48.0326" lon="-0.43484">
        <ele>122.2</ele>
        <time>2023-10-07T11:56:28Z</time>
      </trkpt>
      <trkpt lat="48.0326" lon="-0.43491">
        <ele>122</ele>
        <time>2023-10-07T11:56:29Z</time>
      </trkpt>
      <trkpt lat="48.03261" lon="-0.43499">
        <ele>122</ele>
        <time>2023-10-07T11:56:30Z</time>
      </trkpt>
      <trkpt lat="48.03262" lon="-0.43507">
        <ele>122</ele>
        <time>2023-10-07T11:56:31Z</time>
      </trkpt>
      <trkpt lat="48.03263" lon="-0.43514">
        <ele>122</ele>
        <time>2023-10-07T11:56:32Z</time>
      </trkpt>
      <trkpt lat="48.03264" lon="-0.43522">
        <ele>122.4</ele>
        <time>2023-10-07T11:56:33Z</time>
      </trkpt>
      <trkpt lat="48.03265" lon="-0.4353">
        <ele>122.4</ele>
        <time>2023-10-07T11:56:34Z</time>
      </trkpt>
      <trkpt lat="48.03266" lon="-0.43538">
        <ele>122.4</ele>
        <time>2023-10-07T11:56:35Z</time>
      </trkpt>
      <trkpt lat="48.03267" lon="-0.43545">
        <ele>122.8</ele>
        <time>2023-10-07T11:56:36Z</time>
      </trkpt>
      <trkpt lat="48.03268" lon="-0.43553">
        <ele>122.6</ele>
        <time>2023-10-07T11:56:37Z</time>
      </trkpt>
      <trkpt lat="48.03269" lon="-0.43561">
        <ele>122.6</ele>
        <time>2023-10-07T11:56:38Z</time>
      </trkpt>
      <trkpt lat="48.0327" lon="-0.43568">
        <ele>122.6</ele>
        <time>2023-10-07T11:56:39Z</time>
      </trkpt>
      <trkpt lat="48.03271" lon="-0.43576">
        <ele>122.4</ele>
        <time>2023-10-07T11:56:40Z</time>
      </trkpt>
      <trkpt lat="48.03273" lon="-0.43584">
        <ele>122.8</ele>
        <time>2023-10-07T11:56:41Z</time>
      </trkpt>
      <trkpt lat="48.03273" lon="-0.43592">
        <ele>122.8</ele>
        <time>2023-10-07T11:56:42Z</time>
      </trkpt>
      <trkpt lat="48.03275" lon="-0.436">
        <ele>122.8</ele>
        <time>2023-10-07T11:56:43Z</time>
      </trkpt>
      <trkpt lat="48.03276" lon="-0.43608">
        <ele>122.8</ele>
        <time>2023-10-07T11:56:44Z</time>
      </trkpt>
      <trkpt lat="48.03277" lon="-0.43616">
        <ele>122.4</ele>
        <time>2023-10-07T11:56:45Z</time>
      </trkpt>
      <trkpt lat="48.03278" lon="-0.43624">
        <ele>122.4</ele>
        <time>2023-10-07T11:56:46Z</time>
      </trkpt>
      <trkpt lat="48.0328" lon="-0.43632">
        <ele>122.4</ele>
        <time>2023-10-07T11:56:47Z</time>
      </trkpt>
      <trkpt lat="48.03281" lon="-0.4364">
        <ele>122.4</ele>
        <time>2023-10-07T11:56:48Z</time>
      </trkpt>
      <trkpt lat="48.03282" lon="-0.43649">
        <ele>122.4</ele>
        <time>2023-10-07T11:56:49Z</time>
      </trkpt>
      <trkpt lat="48.03283" lon="-0.43657">
        <ele>122.4</ele>
        <time>2023-10-07T11:56:50Z</time>
      </trkpt>
      <trkpt lat="48.03284" lon="-0.43665">
        <ele>122.4</ele>
        <time>2023-10-07T11:56:51Z</time>
      </trkpt>
      <trkpt lat="48.03286" lon="-0.43673">
        <ele>123.4</ele>
        <time>2023-10-07T11:56:52Z</time>
      </trkpt>
      <trkpt lat="48.03287" lon="-0.43681">
        <ele>122.8</ele>
        <time>2023-10-07T11:56:53Z</time>
      </trkpt>
      <trkpt lat="48.03288" lon="-0.43689">
        <ele>122.8</ele>
        <time>2023-10-07T11:56:54Z</time>
      </trkpt>
      <trkpt lat="48.03289" lon="-0.43697">
        <ele>122.8</ele>
        <time>2023-10-07T11:56:55Z</time>
      </trkpt>
      <trkpt lat="48.03291" lon="-0.43705">
        <ele>123.2</ele>
        <time>2023-10-07T11:56:56Z</time>
      </trkpt>
      <trkpt lat="48.03292" lon="-0.43713">
        <ele>123</ele>
        <time>2023-10-07T11:56:57Z</time>
      </trkpt>
      <trkpt lat="48.03293" lon="-0.43721">
        <ele>123</ele>
        <time>2023-10-07T11:56:58Z</time>
      </trkpt>
      <trkpt lat="48.03294" lon="-0.43729">
        <ele>123</ele>
        <time>2023-10-07T11:56:59Z</time>
      </trkpt>
      <trkpt lat="48.03296" lon="-0.43737">
        <ele>123.8</ele>
        <time>2023-10-07T11:57:00Z</time>
      </trkpt>
      <trkpt lat="48.03297" lon="-0.43744">
        <ele>124</ele>
        <time>2023-10-07T11:57:01Z</time>
      </trkpt>
      <trkpt lat="48.03298" lon="-0.43752">
        <ele>124</ele>
        <time>2023-10-07T11:57:02Z</time>
      </trkpt>
      <trkpt lat="48.03299" lon="-0.4376">
        <ele>124</ele>
        <time>2023-10-07T11:57:03Z</time>
      </trkpt>
      <trkpt lat="48.033" lon="-0.43768">
        <ele>124</ele>
        <time>2023-10-07T11:57:04Z</time>
      </trkpt>
      <trkpt lat="48.03302" lon="-0.43777">
        <ele>123.2</ele>
        <time>2023-10-07T11:57:05Z</time>
      </trkpt>
      <trkpt lat="48.03303" lon="-0.43785">
        <ele>123.2</ele>
        <time>2023-10-07T11:57:06Z</time>
      </trkpt>
      <trkpt lat="48.03304" lon="-0.43793">
        <ele>123.2</ele>
        <time>2023-10-07T11:57:07Z</time>
      </trkpt>
      <trkpt lat="48.03305" lon="-0.43802">
        <ele>123.2</ele>
        <time>2023-10-07T11:57:08Z</time>
      </trkpt>
      <trkpt lat="48.03306" lon="-0.4381">
        <ele>123.4</ele>
        <time>2023-10-07T11:57:09Z</time>
      </trkpt>
      <trkpt lat="48.03307" lon="-0.43819">
        <ele>123.4</ele>
        <time>2023-10-07T11:57:10Z</time>
      </trkpt>
      <trkpt lat="48.03308" lon="-0.43827">
        <ele>123.4</ele>
        <time>2023-10-07T11:57:11Z</time>
      </trkpt>
      <trkpt lat="48.0331" lon="-0.43836">
        <ele>123.4</ele>
        <time>2023-10-07T11:57:12Z</time>
      </trkpt>
      <trkpt lat="48.03311" lon="-0.43844">
        <ele>123</ele>
        <time>2023-10-07T11:57:13Z</time>
      </trkpt>
      <trkpt lat="48.03312" lon="-0.43853">
        <ele>123</ele>
        <time>2023-10-07T11:57:14Z</time>
      </trkpt>
      <trkpt lat="48.03313" lon="-0.43862">
        <ele>123</ele>
        <time>2023-10-07T11:57:15Z</time>
      </trkpt>
      <trkpt lat="48.03315" lon="-0.43871">
        <ele>123</ele>
        <time>2023-10-07T11:57:16Z</time>
      </trkpt>
      <trkpt lat="48.03316" lon="-0.4388">
        <ele>123</ele>
        <time>2023-10-07T11:57:17Z</time>
      </trkpt>
      <trkpt lat="48.03317" lon="-0.43889">
        <ele>123</ele>
        <time>2023-10-07T11:57:18Z</time>
      </trkpt>
      <trkpt lat="48.03319" lon="-0.43899">
        <ele>123</ele>
        <time>2023-10-07T11:57:19Z</time>
      </trkpt>
      <trkpt lat="48.0332" lon="-0.43908">
        <ele>122.2</ele>
        <time>2023-10-07T11:57:20Z</time>
      </trkpt>
      <trkpt lat="48.03322" lon="-0.43918">
        <ele>122.2</ele>
        <time>2023-10-07T11:57:21Z</time>
      </trkpt>
      <trkpt lat="48.03323" lon="-0.43928">
        <ele>122.2</ele>
        <time>2023-10-07T11:57:22Z</time>
      </trkpt>
      <trkpt lat="48.03325" lon="-0.43937">
        <ele>122.2</ele>
        <time>2023-10-07T11:57:23Z</time>
      </trkpt>
      <trkpt lat="48.03326" lon="-0.43948">
        <ele>121.6</ele>
        <time>2023-10-07T11:57:24Z</time>
      </trkpt>
      <trkpt lat="48.03327" lon="-0.43958">
        <ele>121.4</ele>
        <time>2023-10-07T11:57:25Z</time>
      </trkpt>
      <trkpt lat="48.03329" lon="-0.43968">
        <ele>121.4</ele>
        <time>2023-10-07T11:57:26Z</time>
      </trkpt>
      <trkpt lat="48.03331" lon="-0.43979">
        <ele>121.4</ele>
        <time>2023-10-07T11:57:27Z</time>
      </trkpt>
      <trkpt lat="48.03332" lon="-0.43989">
        <ele>121.4</ele>
        <time>2023-10-07T11:57:28Z</time>
      </trkpt>
      <trkpt lat="48.03333" lon="-0.44">
        <ele>120.6</ele>
        <time>2023-10-07T11:57:29Z</time>
      </trkpt>
      <trkpt lat="48.03335" lon="-0.4401">
        <ele>120.6</ele>
        <time>2023-10-07T11:57:30Z</time>
      </trkpt>
      <trkpt lat="48.03337" lon="-0.44021">
        <ele>120.6</ele>
        <time>2023-10-07T11:57:31Z</time>
      </trkpt>
      <trkpt lat="48.03338" lon="-0.44031">
        <ele>120.6</ele>
        <time>2023-10-07T11:57:32Z</time>
      </trkpt>
      <trkpt lat="48.0334" lon="-0.44042">
        <ele>120</ele>
        <time>2023-10-07T11:57:33Z</time>
      </trkpt>
      <trkpt lat="48.03342" lon="-0.44052">
        <ele>120</ele>
        <time>2023-10-07T11:57:34Z</time>
      </trkpt>
      <trkpt lat="48.03343" lon="-0.44062">
        <ele>120</ele>
        <time>2023-10-07T11:57:35Z</time>
      </trkpt>
      <trkpt lat="48.03345" lon="-0.44072">
        <ele>121</ele>
        <time>2023-10-07T11:57:36Z</time>
      </trkpt>
      <trkpt lat="48.03346" lon="-0.44081">
        <ele>121.4</ele>
        <time>2023-10-07T11:57:37Z</time>
      </trkpt>
      <trkpt lat="48.03348" lon="-0.44091">
        <ele>121.4</ele>
        <time>2023-10-07T11:57:38Z</time>
      </trkpt>
      <trkpt lat="48.0335" lon="-0.44101">
        <ele>121.4</ele>
        <time>2023-10-07T11:57:39Z</time>
      </trkpt>
      <trkpt lat="48.03351" lon="-0.4411">
        <ele>121.4</ele>
        <time>2023-10-07T11:57:40Z</time>
      </trkpt>
      <trkpt lat="48.03353" lon="-0.4412">
        <ele>121.4</ele>
        <time>2023-10-07T11:57:41Z</time>
      </trkpt>
      <trkpt lat="48.03354" lon="-0.4413">
        <ele>121.4</ele>
        <time>2023-10-07T11:57:42Z</time>
      </trkpt>
      <trkpt lat="48.03356" lon="-0.44139">
        <ele>121.4</ele>
        <time>2023-10-07T11:57:43Z</time>
      </trkpt>
      <trkpt lat="48.03357" lon="-0.44149">
        <ele>121.4</ele>
        <time>2023-10-07T11:57:44Z</time>
      </trkpt>
      <trkpt lat="48.03359" lon="-0.44158">
        <ele>121</ele>
        <time>2023-10-07T11:57:45Z</time>
      </trkpt>
      <trkpt lat="48.03361" lon="-0.44168">
        <ele>121</ele>
        <time>2023-10-07T11:57:46Z</time>
      </trkpt>
      <trkpt lat="48.03362" lon="-0.44177">
        <ele>121</ele>
        <time>2023-10-07T11:57:47Z</time>
      </trkpt>
      <trkpt lat="48.03364" lon="-0.44186">
        <ele>120.6</ele>
        <time>2023-10-07T11:57:48Z</time>
      </trkpt>
      <trkpt lat="48.03365" lon="-0.44196">
        <ele>121.2</ele>
        <time>2023-10-07T11:57:49Z</time>
      </trkpt>
      <trkpt lat="48.03366" lon="-0.44205">
        <ele>121.2</ele>
        <time>2023-10-07T11:57:50Z</time>
      </trkpt>
      <trkpt lat="48.03368" lon="-0.44214">
        <ele>121.2</ele>
        <time>2023-10-07T11:57:51Z</time>
      </trkpt>
      <trkpt lat="48.03369" lon="-0.44223">
        <ele>120.6</ele>
        <time>2023-10-07T11:57:52Z</time>
      </trkpt>
      <trkpt lat="48.03371" lon="-0.44232">
        <ele>120.6</ele>
        <time>2023-10-07T11:57:53Z</time>
      </trkpt>
      <trkpt lat="48.03373" lon="-0.44241">
        <ele>120.6</ele>
        <time>2023-10-07T11:57:54Z</time>
      </trkpt>
      <trkpt lat="48.03374" lon="-0.4425">
        <ele>120.6</ele>
        <time>2023-10-07T11:57:55Z</time>
      </trkpt>
      <trkpt lat="48.03376" lon="-0.44259">
        <ele>120.6</ele>
        <time>2023-10-07T11:57:56Z</time>
      </trkpt>
      <trkpt lat="48.03377" lon="-0.44267">
        <ele>120.2</ele>
        <time>2023-10-07T11:57:57Z</time>
      </trkpt>
      <trkpt lat="48.03379" lon="-0.44277">
        <ele>120.2</ele>
        <time>2023-10-07T11:57:58Z</time>
      </trkpt>
      <trkpt lat="48.0338" lon="-0.44286">
        <ele>120.2</ele>
        <time>2023-10-07T11:57:59Z</time>
      </trkpt>
      <trkpt lat="48.03382" lon="-0.44295">
        <ele>120.2</ele>
        <time>2023-10-07T11:58:00Z</time>
      </trkpt>
      <trkpt lat="48.03384" lon="-0.44304">
        <ele>119.4</ele>
        <time>2023-10-07T11:58:01Z</time>
      </trkpt>
      <trkpt lat="48.03385" lon="-0.44313">
        <ele>119.4</ele>
        <time>2023-10-07T11:58:02Z</time>
      </trkpt>
      <trkpt lat="48.03387" lon="-0.44322">
        <ele>119.4</ele>
        <time>2023-10-07T11:58:03Z</time>
      </trkpt>
      <trkpt lat="48.03388" lon="-0.44331">
        <ele>120.4</ele>
        <time>2023-10-07T11:58:04Z</time>
      </trkpt>
      <trkpt lat="48.0339" lon="-0.4434">
        <ele>121.2</ele>
        <time>2023-10-07T11:58:05Z</time>
      </trkpt>
      <trkpt lat="48.03391" lon="-0.44349">
        <ele>121.2</ele>
        <time>2023-10-07T11:58:06Z</time>
      </trkpt>
      <trkpt lat="48.03393" lon="-0.44357">
        <ele>121.2</ele>
        <time>2023-10-07T11:58:07Z</time>
      </trkpt>
      <trkpt lat="48.03394" lon="-0.44366">
        <ele>121.2</ele>
        <time>2023-10-07T11:58:08Z</time>
      </trkpt>
      <trkpt lat="48.03396" lon="-0.44375">
        <ele>121.6</ele>
        <time>2023-10-07T11:58:09Z</time>
      </trkpt>
      <trkpt lat="48.03397" lon="-0.44384">
        <ele>121.6</ele>
        <time>2023-10-07T11:58:10Z</time>
      </trkpt>
      <trkpt lat="48.03398" lon="-0.44393">
        <ele>121.6</ele>
        <time>2023-10-07T11:58:11Z</time>
      </trkpt>
      <trkpt lat="48.034" lon="-0.44401">
        <ele>121.4</ele>
        <time>2023-10-07T11:58:12Z</time>
      </trkpt>
      <trkpt lat="48.03401" lon="-0.4441">
        <ele>121.2</ele>
        <time>2023-10-07T11:58:13Z</time>
      </trkpt>
      <trkpt lat="48.03403" lon="-0.44419">
        <ele>121.2</ele>
        <time>2023-10-07T11:58:14Z</time>
      </trkpt>
      <trkpt lat="48.03404" lon="-0.44427">
        <ele>121.2</ele>
        <time>2023-10-07T11:58:15Z</time>
      </trkpt>
      <trkpt lat="48.03406" lon="-0.44436">
        <ele>121.2</ele>
        <time>2023-10-07T11:58:16Z</time>
      </trkpt>
      <trkpt lat="48.03407" lon="-0.44444">
        <ele>121.4</ele>
        <time>2023-10-07T11:58:17Z</time>
      </trkpt>
      <trkpt lat="48.03408" lon="-0.44453">
        <ele>121.4</ele>
        <time>2023-10-07T11:58:18Z</time>
      </trkpt>
      <trkpt lat="48.0341" lon="-0.44461">
        <ele>121.4</ele>
        <time>2023-10-07T11:58:19Z</time>
      </trkpt>
      <trkpt lat="48.03412" lon="-0.4447">
        <ele>122</ele>
        <time>2023-10-07T11:58:20Z</time>
      </trkpt>
      <trkpt lat="48.03413" lon="-0.44478">
        <ele>121.8</ele>
        <time>2023-10-07T11:58:21Z</time>
      </trkpt>
      <trkpt lat="48.03415" lon="-0.44486">
        <ele>121.8</ele>
        <time>2023-10-07T11:58:22Z</time>
      </trkpt>
      <trkpt lat="48.03417" lon="-0.44495">
        <ele>121.8</ele>
        <time>2023-10-07T11:58:23Z</time>
      </trkpt>
      <trkpt lat="48.03419" lon="-0.44503">
        <ele>121.8</ele>
        <time>2023-10-07T11:58:24Z</time>
      </trkpt>
      <trkpt lat="48.03422" lon="-0.44511">
        <ele>122.8</ele>
        <time>2023-10-07T11:58:25Z</time>
      </trkpt>
      <trkpt lat="48.03425" lon="-0.44518">
        <ele>122.8</ele>
        <time>2023-10-07T11:58:26Z</time>
      </trkpt>
      <trkpt lat="48.03428" lon="-0.44526">
        <ele>122.8</ele>
        <time>2023-10-07T11:58:27Z</time>
      </trkpt>
      <trkpt lat="48.0343" lon="-0.44533">
        <ele>122.8</ele>
        <time>2023-10-07T11:58:28Z</time>
      </trkpt>
      <trkpt lat="48.03433" lon="-0.4454">
        <ele>123.2</ele>
        <time>2023-10-07T11:58:29Z</time>
      </trkpt>
      <trkpt lat="48.03436" lon="-0.44547">
        <ele>123.2</ele>
        <time>2023-10-07T11:58:30Z</time>
      </trkpt>
      <trkpt lat="48.03439" lon="-0.44555">
        <ele>123.2</ele>
        <time>2023-10-07T11:58:31Z</time>
      </trkpt>
      <trkpt lat="48.03442" lon="-0.44562">
        <ele>123.2</ele>
        <time>2023-10-07T11:58:32Z</time>
      </trkpt>
      <trkpt lat="48.03444" lon="-0.44569">
        <ele>124.2</ele>
        <time>2023-10-07T11:58:33Z</time>
      </trkpt>
      <trkpt lat="48.03447" lon="-0.44576">
        <ele>124.2</ele>
        <time>2023-10-07T11:58:34Z</time>
      </trkpt>
      <trkpt lat="48.0345" lon="-0.44584">
        <ele>124.2</ele>
        <time>2023-10-07T11:58:35Z</time>
      </trkpt>
      <trkpt lat="48.03453" lon="-0.44591">
        <ele>123.8</ele>
        <time>2023-10-07T11:58:36Z</time>
      </trkpt>
      <trkpt lat="48.03456" lon="-0.44599">
        <ele>124.4</ele>
        <time>2023-10-07T11:58:37Z</time>
      </trkpt>
      <trkpt lat="48.03459" lon="-0.44606">
        <ele>124.4</ele>
        <time>2023-10-07T11:58:38Z</time>
      </trkpt>
      <trkpt lat="48.03462" lon="-0.44613">
        <ele>124.4</ele>
        <time>2023-10-07T11:58:39Z</time>
      </trkpt>
      <trkpt lat="48.03465" lon="-0.44621">
        <ele>124.4</ele>
        <time>2023-10-07T11:58:40Z</time>
      </trkpt>
      <trkpt lat="48.03468" lon="-0.44628">
        <ele>124.6</ele>
        <time>2023-10-07T11:58:41Z</time>
      </trkpt>
      <trkpt lat="48.03471" lon="-0.44636">
        <ele>124.6</ele>
        <time>2023-10-07T11:58:42Z</time>
      </trkpt>
      <trkpt lat="48.03473" lon="-0.44644">
        <ele>124.6</ele>
        <time>2023-10-07T11:58:43Z</time>
      </trkpt>
      <trkpt lat="48.03476" lon="-0.44652">
        <ele>124.6</ele>
        <time>2023-10-07T11:58:44Z</time>
      </trkpt>
      <trkpt lat="48.03479" lon="-0.44659">
        <ele>124.8</ele>
        <time>2023-10-07T11:58:45Z</time>
      </trkpt>
      <trkpt lat="48.03481" lon="-0.44667">
        <ele>124.8</ele>
        <time>2023-10-07T11:58:46Z</time>
      </trkpt>
      <trkpt lat="48.03484" lon="-0.44675">
        <ele>124.8</ele>
        <time>2023-10-07T11:58:47Z</time>
      </trkpt>
      <trkpt lat="48.03486" lon="-0.44683">
        <ele>124.8</ele>
        <time>2023-10-07T11:58:48Z</time>
      </trkpt>
      <trkpt lat="48.03488" lon="-0.44691">
        <ele>124.4</ele>
        <time>2023-10-07T11:58:49Z</time>
      </trkpt>
      <trkpt lat="48.0349" lon="-0.44699">
        <ele>124.4</ele>
        <time>2023-10-07T11:58:50Z</time>
      </trkpt>
      <trkpt lat="48.03491" lon="-0.44707">
        <ele>124.4</ele>
        <time>2023-10-07T11:58:51Z</time>
      </trkpt>
      <trkpt lat="48.03493" lon="-0.44715">
        <ele>125</ele>
        <time>2023-10-07T11:58:52Z</time>
      </trkpt>
      <trkpt lat="48.03495" lon="-0.44723">
        <ele>124.6</ele>
        <time>2023-10-07T11:58:53Z</time>
      </trkpt>
      <trkpt lat="48.03497" lon="-0.44731">
        <ele>124.6</ele>
        <time>2023-10-07T11:58:54Z</time>
      </trkpt>
      <trkpt lat="48.03498" lon="-0.44739">
        <ele>124.6</ele>
        <time>2023-10-07T11:58:55Z</time>
      </trkpt>
      <trkpt lat="48.035" lon="-0.44747">
        <ele>125.4</ele>
        <time>2023-10-07T11:58:56Z</time>
      </trkpt>
      <trkpt lat="48.03501" lon="-0.44755">
        <ele>125.2</ele>
        <time>2023-10-07T11:58:57Z</time>
      </trkpt>
      <trkpt lat="48.03503" lon="-0.44762">
        <ele>125.2</ele>
        <time>2023-10-07T11:58:58Z</time>
      </trkpt>
      <trkpt lat="48.03504" lon="-0.4477">
        <ele>125.2</ele>
        <time>2023-10-07T11:58:59Z</time>
      </trkpt>
      <trkpt lat="48.03506" lon="-0.44778">
        <ele>125.2</ele>
        <time>2023-10-07T11:59:00Z</time>
      </trkpt>
      <trkpt lat="48.03507" lon="-0.44786">
        <ele>125.2</ele>
        <time>2023-10-07T11:59:01Z</time>
      </trkpt>
      <trkpt lat="48.03509" lon="-0.44793">
        <ele>125.2</ele>
        <time>2023-10-07T11:59:02Z</time>
      </trkpt>
      <trkpt lat="48.0351" lon="-0.44801">
        <ele>125.2</ele>
        <time>2023-10-07T11:59:03Z</time>
      </trkpt>
      <trkpt lat="48.03511" lon="-0.44808">
        <ele>125.4</ele>
        <time>2023-10-07T11:59:04Z</time>
      </trkpt>
      <trkpt lat="48.03512" lon="-0.44816">
        <ele>125.6</ele>
        <time>2023-10-07T11:59:05Z</time>
      </trkpt>
      <trkpt lat="48.03514" lon="-0.44823">
        <ele>125.6</ele>
        <time>2023-10-07T11:59:06Z</time>
      </trkpt>
      <trkpt lat="48.03515" lon="-0.44831">
        <ele>125.6</ele>
        <time>2023-10-07T11:59:07Z</time>
      </trkpt>
      <trkpt lat="48.03516" lon="-0.44839">
        <ele>125</ele>
        <time>2023-10-07T11:59:08Z</time>
      </trkpt>
      <trkpt lat="48.03517" lon="-0.44846">
        <ele>125.2</ele>
        <time>2023-10-07T11:59:09Z</time>
      </trkpt>
      <trkpt lat="48.03519" lon="-0.44854">
        <ele>125.2</ele>
        <time>2023-10-07T11:59:10Z</time>
      </trkpt>
      <trkpt lat="48.03521" lon="-0.44862">
        <ele>125.2</ele>
        <time>2023-10-07T11:59:11Z</time>
      </trkpt>
      <trkpt lat="48.03523" lon="-0.44869">
        <ele>125.4</ele>
        <time>2023-10-07T11:59:12Z</time>
      </trkpt>
      <trkpt lat="48.03525" lon="-0.44878">
        <ele>125.2</ele>
        <time>2023-10-07T11:59:13Z</time>
      </trkpt>
      <trkpt lat="48.03526" lon="-0.44886">
        <ele>125.2</ele>
        <time>2023-10-07T11:59:14Z</time>
      </trkpt>
      <trkpt lat="48.03528" lon="-0.44895">
        <ele>125.2</ele>
        <time>2023-10-07T11:59:15Z</time>
      </trkpt>
      <trkpt lat="48.0353" lon="-0.44903">
        <ele>124.4</ele>
        <time>2023-10-07T11:59:16Z</time>
      </trkpt>
      <trkpt lat="48.03531" lon="-0.44912">
        <ele>124.8</ele>
        <time>2023-10-07T11:59:17Z</time>
      </trkpt>
      <trkpt lat="48.03533" lon="-0.44921">
        <ele>124.8</ele>
        <time>2023-10-07T11:59:18Z</time>
      </trkpt>
      <trkpt lat="48.03535" lon="-0.44929">
        <ele>124.8</ele>
        <time>2023-10-07T11:59:19Z</time>
      </trkpt>
      <trkpt lat="48.03537" lon="-0.44938">
        <ele>123.8</ele>
        <time>2023-10-07T11:59:20Z</time>
      </trkpt>
      <trkpt lat="48.03538" lon="-0.44947">
        <ele>123</ele>
        <time>2023-10-07T11:59:21Z</time>
      </trkpt>
      <trkpt lat="48.03539" lon="-0.44957">
        <ele>123</ele>
        <time>2023-10-07T11:59:22Z</time>
      </trkpt>
      <trkpt lat="48.03541" lon="-0.44966">
        <ele>123</ele>
        <time>2023-10-07T11:59:23Z</time>
      </trkpt>
      <trkpt lat="48.03542" lon="-0.44975">
        <ele>123</ele>
        <time>2023-10-07T11:59:24Z</time>
      </trkpt>
      <trkpt lat="48.03544" lon="-0.44984">
        <ele>122.6</ele>
        <time>2023-10-07T11:59:25Z</time>
      </trkpt>
      <trkpt lat="48.03545" lon="-0.44993">
        <ele>122.6</ele>
        <time>2023-10-07T11:59:26Z</time>
      </trkpt>
      <trkpt lat="48.03547" lon="-0.45002">
        <ele>122.6</ele>
        <time>2023-10-07T11:59:27Z</time>
      </trkpt>
      <trkpt lat="48.03548" lon="-0.45011">
        <ele>123</ele>
        <time>2023-10-07T11:59:28Z</time>
      </trkpt>
      <trkpt lat="48.0355" lon="-0.45019">
        <ele>122.6</ele>
        <time>2023-10-07T11:59:29Z</time>
      </trkpt>
      <trkpt lat="48.03551" lon="-0.45028">
        <ele>122.6</ele>
        <time>2023-10-07T11:59:30Z</time>
      </trkpt>
      <trkpt lat="48.03553" lon="-0.45037">
        <ele>122.6</ele>
        <time>2023-10-07T11:59:31Z</time>
      </trkpt>
      <trkpt lat="48.03554" lon="-0.45045">
        <ele>122.6</ele>
        <time>2023-10-07T11:59:32Z</time>
      </trkpt>
      <trkpt lat="48.03555" lon="-0.45054">
        <ele>123.2</ele>
        <time>2023-10-07T11:59:33Z</time>
      </trkpt>
      <trkpt lat="48.03557" lon="-0.45063">
        <ele>123.2</ele>
        <time>2023-10-07T11:59:34Z</time>
      </trkpt>
      <trkpt lat="48.03558" lon="-0.45071">
        <ele>123.2</ele>
        <time>2023-10-07T11:59:35Z</time>
      </trkpt>
      <trkpt lat="48.03559" lon="-0.4508">
        <ele>123.2</ele>
        <time>2023-10-07T11:59:36Z</time>
      </trkpt>
      <trkpt lat="48.03561" lon="-0.45089">
        <ele>122.2</ele>
        <time>2023-10-07T11:59:37Z</time>
      </trkpt>
      <trkpt lat="48.03562" lon="-0.45097">
        <ele>122.2</ele>
        <time>2023-10-07T11:59:38Z</time>
      </trkpt>
      <trkpt lat="48.03563" lon="-0.45105">
        <ele>122.2</ele>
        <time>2023-10-07T11:59:39Z</time>
      </trkpt>
      <trkpt lat="48.03565" lon="-0.45114">
        <ele>123</ele>
        <time>2023-10-07T11:59:40Z</time>
      </trkpt>
      <trkpt lat="48.03567" lon="-0.45122">
        <ele>123</ele>
        <time>2023-10-07T11:59:41Z</time>
      </trkpt>
      <trkpt lat="48.03568" lon="-0.45131">
        <ele>123</ele>
        <time>2023-10-07T11:59:42Z</time>
      </trkpt>
      <trkpt lat="48.0357" lon="-0.45139">
        <ele>123</ele>
        <time>2023-10-07T11:59:43Z</time>
      </trkpt>
      <trkpt lat="48.03571" lon="-0.45147">
        <ele>123</ele>
        <time>2023-10-07T11:59:44Z</time>
      </trkpt>
      <trkpt lat="48.03573" lon="-0.45156">
        <ele>122.4</ele>
        <time>2023-10-07T11:59:45Z</time>
      </trkpt>
      <trkpt lat="48.03574" lon="-0.45164">
        <ele>122.4</ele>
        <time>2023-10-07T11:59:46Z</time>
      </trkpt>
      <trkpt lat="48.03576" lon="-0.45172">
        <ele>122.4</ele>
        <time>2023-10-07T11:59:47Z</time>
      </trkpt>
      <trkpt lat="48.03578" lon="-0.4518">
        <ele>122.4</ele>
        <time>2023-10-07T11:59:48Z</time>
      </trkpt>
      <trkpt lat="48.03579" lon="-0.45189">
        <ele>122.4</ele>
        <time>2023-10-07T11:59:49Z</time>
      </trkpt>
      <trkpt lat="48.03581" lon="-0.45197">
        <ele>122.4</ele>
        <time>2023-10-07T11:59:50Z</time>
      </trkpt>
      <trkpt lat="48.03583" lon="-0.45206">
        <ele>122.4</ele>
        <time>2023-10-07T11:59:51Z</time>
      </trkpt>
      <trkpt lat="48.03585" lon="-0.45215">
        <ele>122.4</ele>
        <time>2023-10-07T11:59:52Z</time>
      </trkpt>
      <trkpt lat="48.03586" lon="-0.45223">
        <ele>123</ele>
        <time>2023-10-07T11:59:53Z</time>
      </trkpt>
      <trkpt lat="48.03588" lon="-0.45232">
        <ele>123</ele>
        <time>2023-10-07T11:59:54Z</time>
      </trkpt>
      <trkpt lat="48.03589" lon="-0.4524">
        <ele>123</ele>
        <time>2023-10-07T11:59:55Z</time>
      </trkpt>
      <trkpt lat="48.03591" lon="-0.45248">
        <ele>123</ele>
        <time>2023-10-07T11:59:56Z</time>
      </trkpt>
      <trkpt lat="48.03592" lon="-0.45257">
        <ele>123.4</ele>
        <time>2023-10-07T11:59:57Z</time>
      </trkpt>
      <trkpt lat="48.03594" lon="-0.45265">
        <ele>123.4</ele>
        <time>2023-10-07T11:59:58Z</time>
      </trkpt>
      <trkpt lat="48.03595" lon="-0.45273">
        <ele>123.4</ele>
        <time>2023-10-07T11:59:59Z</time>
      </trkpt>
      <trkpt lat="48.03597" lon="-0.45282">
        <ele>123.4</ele>
        <time>2023-10-07T12:00:00Z</time>
      </trkpt>
      <trkpt lat="48.03599" lon="-0.45291">
        <ele>124</ele>
        <time>2023-10-07T12:00:01Z</time>
      </trkpt>
      <trkpt lat="48.036" lon="-0.45299">
        <ele>124</ele>
        <time>2023-10-07T12:00:02Z</time>
      </trkpt>
      <trkpt lat="48.03602" lon="-0.45308">
        <ele>124</ele>
        <time>2023-10-07T12:00:03Z</time>
      </trkpt>
      <trkpt lat="48.03604" lon="-0.45317">
        <ele>124</ele>
        <time>2023-10-07T12:00:04Z</time>
      </trkpt>
      <trkpt lat="48.03605" lon="-0.45325">
        <ele>123.6</ele>
        <time>2023-10-07T12:00:05Z</time>
      </trkpt>
      <trkpt lat="48.03607" lon="-0.45334">
        <ele>123.6</ele>
        <time>2023-10-07T12:00:06Z</time>
      </trkpt>
      <trkpt lat="48.03608" lon="-0.45342">
        <ele>123.6</ele>
        <time>2023-10-07T12:00:07Z</time>
      </trkpt>
      <trkpt lat="48.0361" lon="-0.4535">
        <ele>123.8</ele>
        <time>2023-10-07T12:00:08Z</time>
      </trkpt>
      <trkpt lat="48.03612" lon="-0.45359">
        <ele>123.8</ele>
        <time>2023-10-07T12:00:09Z</time>
      </trkpt>
      <trkpt lat="48.03613" lon="-0.45367">
        <ele>123.8</ele>
        <time>2023-10-07T12:00:10Z</time>
      </trkpt>
      <trkpt lat="48.03615" lon="-0.45375">
        <ele>123.8</ele>
        <time>2023-10-07T12:00:11Z</time>
      </trkpt>
      <trkpt lat="48.03616" lon="-0.45383">
        <ele>124.6</ele>
        <time>2023-10-07T12:00:12Z</time>
      </trkpt>
      <trkpt lat="48.03618" lon="-0.45392">
        <ele>124.2</ele>
        <time>2023-10-07T12:00:13Z</time>
      </trkpt>
      <trkpt lat="48.03619" lon="-0.454">
        <ele>124.2</ele>
        <time>2023-10-07T12:00:14Z</time>
      </trkpt>
      <trkpt lat="48.03621" lon="-0.45408">
        <ele>124.2</ele>
        <time>2023-10-07T12:00:15Z</time>
      </trkpt>
      <trkpt lat="48.03622" lon="-0.45416">
        <ele>124.6</ele>
        <time>2023-10-07T12:00:16Z</time>
      </trkpt>
      <trkpt lat="48.03624" lon="-0.45423">
        <ele>124.4</ele>
        <time>2023-10-07T12:00:17Z</time>
      </trkpt>
      <trkpt lat="48.03626" lon="-0.45431">
        <ele>124.4</ele>
        <time>2023-10-07T12:00:18Z</time>
      </trkpt>
      <trkpt lat="48.03627" lon="-0.45439">
        <ele>124.4</ele>
        <time>2023-10-07T12:00:19Z</time>
      </trkpt>
      <trkpt lat="48.03628" lon="-0.45446">
        <ele>125</ele>
        <time>2023-10-07T12:00:20Z</time>
      </trkpt>
      <trkpt lat="48.0363" lon="-0.45454">
        <ele>126.4</ele>
        <time>2023-10-07T12:00:21Z</time>
      </trkpt>
      <trkpt lat="48.03631" lon="-0.45461">
        <ele>126.4</ele>
        <time>2023-10-07T12:00:22Z</time>
      </trkpt>
      <trkpt lat="48.03633" lon="-0.45469">
        <ele>126.4</ele>
        <time>2023-10-07T12:00:23Z</time>
      </trkpt>
      <trkpt lat="48.03634" lon="-0.45476">
        <ele>125.8</ele>
        <time>2023-10-07T12:00:24Z</time>
      </trkpt>
      <trkpt lat="48.03636" lon="-0.45483">
        <ele>125.2</ele>
        <time>2023-10-07T12:00:25Z</time>
      </trkpt>
      <trkpt lat="48.03637" lon="-0.4549">
        <ele>125.2</ele>
        <time>2023-10-07T12:00:26Z</time>
      </trkpt>
      <trkpt lat="48.03639" lon="-0.45497">
        <ele>125.2</ele>
        <time>2023-10-07T12:00:27Z</time>
      </trkpt>
      <trkpt lat="48.0364" lon="-0.45504">
        <ele>126.2</ele>
        <time>2023-10-07T12:00:28Z</time>
      </trkpt>
      <trkpt lat="48.03642" lon="-0.45511">
        <ele>126.2</ele>
        <time>2023-10-07T12:00:29Z</time>
      </trkpt>
      <trkpt lat="48.03643" lon="-0.45518">
        <ele>126.2</ele>
        <time>2023-10-07T12:00:30Z</time>
      </trkpt>
      <trkpt lat="48.03645" lon="-0.45525">
        <ele>126.2</ele>
        <time>2023-10-07T12:00:31Z</time>
      </trkpt>
      <trkpt lat="48.03646" lon="-0.45531">
        <ele>127.2</ele>
        <time>2023-10-07T12:00:32Z</time>
      </trkpt>
      <trkpt lat="48.03648" lon="-0.45537">
        <ele>127.4</ele>
        <time>2023-10-07T12:00:33Z</time>
      </trkpt>
      <trkpt lat="48.03649" lon="-0.45543">
        <ele>127.4</ele>
        <time>2023-10-07T12:00:34Z</time>
      </trkpt>
      <trkpt lat="48.0365" lon="-0.45549">
        <ele>127.4</ele>
        <time>2023-10-07T12:00:35Z</time>
      </trkpt>
      <trkpt lat="48.03651" lon="-0.45555">
        <ele>127.8</ele>
        <time>2023-10-07T12:00:36Z</time>
      </trkpt>
      <trkpt lat="48.03653" lon="-0.45562">
        <ele>127.6</ele>
        <time>2023-10-07T12:00:37Z</time>
      </trkpt>
      <trkpt lat="48.03654" lon="-0.45568">
        <ele>127.6</ele>
        <time>2023-10-07T12:00:38Z</time>
      </trkpt>
      <trkpt lat="48.03655" lon="-0.45575">
        <ele>127.6</ele>
        <time>2023-10-07T12:00:39Z</time>
      </trkpt>
      <trkpt lat="48.03657" lon="-0.45582">
        <ele>127.8</ele>
        <time>2023-10-07T12:00:40Z</time>
      </trkpt>
      <trkpt lat="48.03659" lon="-0.45588">
        <ele>128.2</ele>
        <time>2023-10-07T12:00:41Z</time>
      </trkpt>
      <trkpt lat="48.03661" lon="-0.45595">
        <ele>128.2</ele>
        <time>2023-10-07T12:00:42Z</time>
      </trkpt>
      <trkpt lat="48.03663" lon="-0.45601">
        <ele>128.2</ele>
        <time>2023-10-07T12:00:43Z</time>
      </trkpt>
      <trkpt lat="48.03666" lon="-0.45607">
        <ele>128.2</ele>
        <time>2023-10-07T12:00:44Z</time>
      </trkpt>
      <trkpt lat="48.03668" lon="-0.45612">
        <ele>128.8</ele>
        <time>2023-10-07T12:00:45Z</time>
      </trkpt>
      <trkpt lat="48.03672" lon="-0.45616">
        <ele>128.8</ele>
        <time>2023-10-07T12:00:46Z</time>
      </trkpt>
      <trkpt lat="48.03675" lon="-0.4562">
        <ele>128.8</ele>
        <time>2023-10-07T12:00:47Z</time>
      </trkpt>
      <trkpt lat="48.03679" lon="-0.45624">
        <ele>128.8</ele>
        <time>2023-10-07T12:00:48Z</time>
      </trkpt>
      <trkpt lat="48.03682" lon="-0.45628">
        <ele>129.4</ele>
        <time>2023-10-07T12:00:49Z</time>
      </trkpt>
      <trkpt lat="48.03686" lon="-0.45631">
        <ele>129.4</ele>
        <time>2023-10-07T12:00:50Z</time>
      </trkpt>
      <trkpt lat="48.03689" lon="-0.45634">
        <ele>129.4</ele>
        <time>2023-10-07T12:00:51Z</time>
      </trkpt>
      <trkpt lat="48.03693" lon="-0.45636">
        <ele>129.8</ele>
        <time>2023-10-07T12:00:52Z</time>
      </trkpt>
      <trkpt lat="48.03696" lon="-0.45638">
        <ele>130.2</ele>
        <time>2023-10-07T12:00:53Z</time>
      </trkpt>
      <trkpt lat="48.03699" lon="-0.4564">
        <ele>130.2</ele>
        <time>2023-10-07T12:00:54Z</time>
      </trkpt>
      <trkpt lat="48.03703" lon="-0.45641">
        <ele>130.2</ele>
        <time>2023-10-07T12:00:55Z</time>
      </trkpt>
      <trkpt lat="48.03706" lon="-0.45642">
        <ele>130.2</ele>
        <time>2023-10-07T12:00:56Z</time>
      </trkpt>
      <trkpt lat="48.03709" lon="-0.45644">
        <ele>130.4</ele>
        <time>2023-10-07T12:00:57Z</time>
      </trkpt>
      <trkpt lat="48.03712" lon="-0.45644">
        <ele>130.4</ele>
        <time>2023-10-07T12:00:58Z</time>
      </trkpt>
      <trkpt lat="48.03716" lon="-0.45644">
        <ele>130.4</ele>
        <time>2023-10-07T12:00:59Z</time>
      </trkpt>
      <trkpt lat="48.03719" lon="-0.45644">
        <ele>131</ele>
        <time>2023-10-07T12:01:00Z</time>
      </trkpt>
      <trkpt lat="48.03722" lon="-0.45644">
        <ele>131</ele>
        <time>2023-10-07T12:01:01Z</time>
      </trkpt>
      <trkpt lat="48.03724" lon="-0.45643">
        <ele>131</ele>
        <time>2023-10-07T12:01:02Z</time>
      </trkpt>
      <trkpt lat="48.03727" lon="-0.45643">
        <ele>131</ele>
        <time>2023-10-07T12:01:03Z</time>
      </trkpt>
      <trkpt lat="48.0373" lon="-0.45644">
        <ele>131</ele>
        <time>2023-10-07T12:01:04Z</time>
      </trkpt>
      <trkpt lat="48.03733" lon="-0.45645">
        <ele>131.2</ele>
        <time>2023-10-07T12:01:05Z</time>
      </trkpt>
      <trkpt lat="48.03735" lon="-0.45649">
        <ele>131.2</ele>
        <time>2023-10-07T12:01:06Z</time>
      </trkpt>
      <trkpt lat="48.03737" lon="-0.45653">
        <ele>131.2</ele>
        <time>2023-10-07T12:01:07Z</time>
      </trkpt>
      <trkpt lat="48.03738" lon="-0.45658">
        <ele>131.6</ele>
        <time>2023-10-07T12:01:08Z</time>
      </trkpt>
      <trkpt lat="48.03739" lon="-0.45664">
        <ele>131.2</ele>
        <time>2023-10-07T12:01:09Z</time>
      </trkpt>
      <trkpt lat="48.03739" lon="-0.45671">
        <ele>131.2</ele>
        <time>2023-10-07T12:01:10Z</time>
      </trkpt>
      <trkpt lat="48.03739" lon="-0.45678">
        <ele>131.2</ele>
        <time>2023-10-07T12:01:11Z</time>
      </trkpt>
      <trkpt lat="48.03739" lon="-0.45685">
        <ele>131.2</ele>
        <time>2023-10-07T12:01:12Z</time>
      </trkpt>
      <trkpt lat="48.03739" lon="-0.45692">
        <ele>130.8</ele>
        <time>2023-10-07T12:01:13Z</time>
      </trkpt>
      <trkpt lat="48.03739" lon="-0.457">
        <ele>130.8</ele>
        <time>2023-10-07T12:01:14Z</time>
      </trkpt>
      <trkpt lat="48.03739" lon="-0.45708">
        <ele>130.8</ele>
        <time>2023-10-07T12:01:15Z</time>
      </trkpt>
      <trkpt lat="48.03739" lon="-0.45717">
        <ele>130.4</ele>
        <time>2023-10-07T12:01:16Z</time>
      </trkpt>
      <trkpt lat="48.03739" lon="-0.45726">
        <ele>129.8</ele>
        <time>2023-10-07T12:01:17Z</time>
      </trkpt>
      <trkpt lat="48.03739" lon="-0.45735">
        <ele>129.8</ele>
        <time>2023-10-07T12:01:18Z</time>
      </trkpt>
      <trkpt lat="48.03739" lon="-0.45744">
        <ele>129.8</ele>
        <time>2023-10-07T12:01:19Z</time>
      </trkpt>
      <trkpt lat="48.03739" lon="-0.45754">
        <ele>129.2</ele>
        <time>2023-10-07T12:01:20Z</time>
      </trkpt>
      <trkpt lat="48.03739" lon="-0.45764">
        <ele>128.4</ele>
        <time>2023-10-07T12:01:21Z</time>
      </trkpt>
      <trkpt lat="48.03739" lon="-0.45775">
        <ele>128.4</ele>
        <time>2023-10-07T12:01:22Z</time>
      </trkpt>
      <trkpt lat="48.03739" lon="-0.45785">
        <ele>128.4</ele>
        <time>2023-10-07T12:01:23Z</time>
      </trkpt>
      <trkpt lat="48.03739" lon="-0.45796">
        <ele>128.4</ele>
        <time>2023-10-07T12:01:24Z</time>
      </trkpt>
      <trkpt lat="48.03739" lon="-0.45807">
        <ele>127.4</ele>
        <time>2023-10-07T12:01:25Z</time>
      </trkpt>
      <trkpt lat="48.03739" lon="-0.45818">
        <ele>127.4</ele>
        <time>2023-10-07T12:01:26Z</time>
      </trkpt>
      <trkpt lat="48.03739" lon="-0.4583">
        <ele>127.4</ele>
        <time>2023-10-07T12:01:27Z</time>
      </trkpt>
      <trkpt lat="48.03739" lon="-0.45841">
        <ele>126.6</ele>
        <time>2023-10-07T12:01:28Z</time>
      </trkpt>
      <trkpt lat="48.03739" lon="-0.45853">
        <ele>126</ele>
        <time>2023-10-07T12:01:29Z</time>
      </trkpt>
      <trkpt lat="48.03739" lon="-0.45865">
        <ele>126</ele>
        <time>2023-10-07T12:01:30Z</time>
      </trkpt>
      <trkpt lat="48.03739" lon="-0.45877">
        <ele>126</ele>
        <time>2023-10-07T12:01:31Z</time>
      </trkpt>
      <trkpt lat="48.03739" lon="-0.45889">
        <ele>125</ele>
        <time>2023-10-07T12:01:32Z</time>
      </trkpt>
      <trkpt lat="48.03738" lon="-0.45902">
        <ele>124.2</ele>
        <time>2023-10-07T12:01:33Z</time>
      </trkpt>
      <trkpt lat="48.03738" lon="-0.45914">
        <ele>124.2</ele>
        <time>2023-10-07T12:01:34Z</time>
      </trkpt>
      <trkpt lat="48.03738" lon="-0.45926">
        <ele>124.2</ele>
        <time>2023-10-07T12:01:35Z</time>
      </trkpt>
      <trkpt lat="48.03738" lon="-0.45939">
        <ele>124.2</ele>
        <time>2023-10-07T12:01:36Z</time>
      </trkpt>
      <trkpt lat="48.03738" lon="-0.45952">
        <ele>124</ele>
        <time>2023-10-07T12:01:37Z</time>
      </trkpt>
      <trkpt lat="48.03738" lon="-0.45965">
        <ele>124</ele>
        <time>2023-10-07T12:01:38Z</time>
      </trkpt>
      <trkpt lat="48.03738" lon="-0.45977">
        <ele>124</ele>
        <time>2023-10-07T12:01:39Z</time>
      </trkpt>
      <trkpt lat="48.03738" lon="-0.4599">
        <ele>123</ele>
        <time>2023-10-07T12:01:40Z</time>
      </trkpt>
      <trkpt lat="48.03738" lon="-0.46003">
        <ele>121.8</ele>
        <time>2023-10-07T12:01:41Z</time>
      </trkpt>
      <trkpt lat="48.03737" lon="-0.46016">
        <ele>121.8</ele>
        <time>2023-10-07T12:01:42Z</time>
      </trkpt>
      <trkpt lat="48.03737" lon="-0.46028">
        <ele>121.8</ele>
        <time>2023-10-07T12:01:43Z</time>
      </trkpt>
      <trkpt lat="48.03737" lon="-0.46041">
        <ele>121.8</ele>
        <time>2023-10-07T12:01:44Z</time>
      </trkpt>
      <trkpt lat="48.03737" lon="-0.46054">
        <ele>122.2</ele>
        <time>2023-10-07T12:01:45Z</time>
      </trkpt>
      <trkpt lat="48.03737" lon="-0.46066">
        <ele>122.2</ele>
        <time>2023-10-07T12:01:46Z</time>
      </trkpt>
      <trkpt lat="48.03737" lon="-0.46079">
        <ele>122.2</ele>
        <time>2023-10-07T12:01:47Z</time>
      </trkpt>
      <trkpt lat="48.03737" lon="-0.46091">
        <ele>121.8</ele>
        <time>2023-10-07T12:01:48Z</time>
      </trkpt>
      <trkpt lat="48.03737" lon="-0.46104">
        <ele>121.4</ele>
        <time>2023-10-07T12:01:49Z</time>
      </trkpt>
      <trkpt lat="48.03737" lon="-0.46116">
        <ele>121.4</ele>
        <time>2023-10-07T12:01:50Z</time>
      </trkpt>
      <trkpt lat="48.03737" lon="-0.46128">
        <ele>121.4</ele>
        <time>2023-10-07T12:01:51Z</time>
      </trkpt>
      <trkpt lat="48.03737" lon="-0.46141">
        <ele>121.4</ele>
        <time>2023-10-07T12:01:52Z</time>
      </trkpt>
      <trkpt lat="48.03736" lon="-0.46153">
        <ele>121</ele>
        <time>2023-10-07T12:01:53Z</time>
      </trkpt>
      <trkpt lat="48.03736" lon="-0.46165">
        <ele>121</ele>
        <time>2023-10-07T12:01:54Z</time>
      </trkpt>
      <trkpt lat="48.03736" lon="-0.46177">
        <ele>121</ele>
        <time>2023-10-07T12:01:55Z</time>
      </trkpt>
      <trkpt lat="48.03736" lon="-0.46189">
        <ele>120.6</ele>
        <time>2023-10-07T12:01:56Z</time>
      </trkpt>
      <trkpt lat="48.03736" lon="-0.46202">
        <ele>120.6</ele>
        <time>2023-10-07T12:01:57Z</time>
      </trkpt>
      <trkpt lat="48.03736" lon="-0.46214">
        <ele>120.6</ele>
        <time>2023-10-07T12:01:58Z</time>
      </trkpt>
      <trkpt lat="48.03736" lon="-0.46225">
        <ele>120.6</ele>
        <time>2023-10-07T12:01:59Z</time>
      </trkpt>
      <trkpt lat="48.03735" lon="-0.46237">
        <ele>120.8</ele>
        <time>2023-10-07T12:02:00Z</time>
      </trkpt>
      <trkpt lat="48.03735" lon="-0.46249">
        <ele>120.6</ele>
        <time>2023-10-07T12:02:01Z</time>
      </trkpt>
      <trkpt lat="48.03735" lon="-0.46261">
        <ele>120.6</ele>
        <time>2023-10-07T12:02:02Z</time>
      </trkpt>
      <trkpt lat="48.03735" lon="-0.46272">
        <ele>120.6</ele>
        <time>2023-10-07T12:02:03Z</time>
      </trkpt>
      <trkpt lat="48.03735" lon="-0.46284">
        <ele>121.2</ele>
        <time>2023-10-07T12:02:04Z</time>
      </trkpt>
      <trkpt lat="48.03735" lon="-0.46295">
        <ele>120.8</ele>
        <time>2023-10-07T12:02:05Z</time>
      </trkpt>
      <trkpt lat="48.03735" lon="-0.46307">
        <ele>120.8</ele>
        <time>2023-10-07T12:02:06Z</time>
      </trkpt>
      <trkpt lat="48.03735" lon="-0.46318">
        <ele>120.8</ele>
        <time>2023-10-07T12:02:07Z</time>
      </trkpt>
      <trkpt lat="48.03735" lon="-0.4633">
        <ele>120.8</ele>
        <time>2023-10-07T12:02:08Z</time>
      </trkpt>
      <trkpt lat="48.03734" lon="-0.46341">
        <ele>120.8</ele>
        <time>2023-10-07T12:02:09Z</time>
      </trkpt>
      <trkpt lat="48.03734" lon="-0.46352">
        <ele>120.8</ele>
        <time>2023-10-07T12:02:10Z</time>
      </trkpt>
      <trkpt lat="48.03734" lon="-0.46364">
        <ele>120.8</ele>
        <time>2023-10-07T12:02:11Z</time>
      </trkpt>
      <trkpt lat="48.03734" lon="-0.46375">
        <ele>120.8</ele>
        <time>2023-10-07T12:02:12Z</time>
      </trkpt>
      <trkpt lat="48.03734" lon="-0.46386">
        <ele>119.4</ele>
        <time>2023-10-07T12:02:13Z</time>
      </trkpt>
      <trkpt lat="48.03733" lon="-0.46397">
        <ele>119.4</ele>
        <time>2023-10-07T12:02:14Z</time>
      </trkpt>
      <trkpt lat="48.03733" lon="-0.46408">
        <ele>119.4</ele>
        <time>2023-10-07T12:02:15Z</time>
      </trkpt>
      <trkpt lat="48.03733" lon="-0.46419">
        <ele>120.4</ele>
        <time>2023-10-07T12:02:16Z</time>
      </trkpt>
      <trkpt lat="48.03733" lon="-0.4643">
        <ele>120.8</ele>
        <time>2023-10-07T12:02:17Z</time>
      </trkpt>
      <trkpt lat="48.03733" lon="-0.46441">
        <ele>120.8</ele>
        <time>2023-10-07T12:02:18Z</time>
      </trkpt>
      <trkpt lat="48.03733" lon="-0.46451">
        <ele>120.8</ele>
        <time>2023-10-07T12:02:19Z</time>
      </trkpt>
      <trkpt lat="48.03733" lon="-0.46462">
        <ele>120.2</ele>
        <time>2023-10-07T12:02:20Z</time>
      </trkpt>
      <trkpt lat="48.03733" lon="-0.46473">
        <ele>119.8</ele>
        <time>2023-10-07T12:02:21Z</time>
      </trkpt>
      <trkpt lat="48.03733" lon="-0.46484">
        <ele>119.8</ele>
        <time>2023-10-07T12:02:22Z</time>
      </trkpt>
      <trkpt lat="48.03732" lon="-0.46495">
        <ele>119.8</ele>
        <time>2023-10-07T12:02:23Z</time>
      </trkpt>
      <trkpt lat="48.03732" lon="-0.46505">
        <ele>119.8</ele>
        <time>2023-10-07T12:02:24Z</time>
      </trkpt>
      <trkpt lat="48.03732" lon="-0.46516">
        <ele>120.4</ele>
        <time>2023-10-07T12:02:25Z</time>
      </trkpt>
      <trkpt lat="48.03732" lon="-0.46527">
        <ele>120.4</ele>
        <time>2023-10-07T12:02:26Z</time>
      </trkpt>
      <trkpt lat="48.03732" lon="-0.46538">
        <ele>120.4</ele>
        <time>2023-10-07T12:02:27Z</time>
      </trkpt>
      <trkpt lat="48.03732" lon="-0.46549">
        <ele>120.4</ele>
        <time>2023-10-07T12:02:28Z</time>
      </trkpt>
      <trkpt lat="48.03732" lon="-0.4656">
        <ele>119</ele>
        <time>2023-10-07T12:02:29Z</time>
      </trkpt>
      <trkpt lat="48.03732" lon="-0.46571">
        <ele>119</ele>
        <time>2023-10-07T12:02:30Z</time>
      </trkpt>
      <trkpt lat="48.03732" lon="-0.46582">
        <ele>119</ele>
        <time>2023-10-07T12:02:31Z</time>
      </trkpt>
      <trkpt lat="48.03732" lon="-0.46592">
        <ele>119.8</ele>
        <time>2023-10-07T12:02:32Z</time>
      </trkpt>
      <trkpt lat="48.03732" lon="-0.46603">
        <ele>119.2</ele>
        <time>2023-10-07T12:02:33Z</time>
      </trkpt>
      <trkpt lat="48.03732" lon="-0.46614">
        <ele>119.2</ele>
        <time>2023-10-07T12:02:34Z</time>
      </trkpt>
      <trkpt lat="48.03732" lon="-0.46625">
        <ele>119.2</ele>
        <time>2023-10-07T12:02:35Z</time>
      </trkpt>
      <trkpt lat="48.03732" lon="-0.46636">
        <ele>119.2</ele>
        <time>2023-10-07T12:02:36Z</time>
      </trkpt>
      <trkpt lat="48.03732" lon="-0.46646">
        <ele>119.4</ele>
        <time>2023-10-07T12:02:37Z</time>
      </trkpt>
      <trkpt lat="48.03731" lon="-0.46657">
        <ele>119.4</ele>
        <time>2023-10-07T12:02:38Z</time>
      </trkpt>
      <trkpt lat="48.03731" lon="-0.46668">
        <ele>119.4</ele>
        <time>2023-10-07T12:02:39Z</time>
      </trkpt>
      <trkpt lat="48.03731" lon="-0.46679">
        <ele>118.8</ele>
        <time>2023-10-07T12:02:40Z</time>
      </trkpt>
      <trkpt lat="48.03731" lon="-0.46689">
        <ele>118.6</ele>
        <time>2023-10-07T12:02:41Z</time>
      </trkpt>
      <trkpt lat="48.03731" lon="-0.467">
        <ele>118.6</ele>
        <time>2023-10-07T12:02:42Z</time>
      </trkpt>
      <trkpt lat="48.03731" lon="-0.46711">
        <ele>118.6</ele>
        <time>2023-10-07T12:02:43Z</time>
      </trkpt>
      <trkpt lat="48.03731" lon="-0.46721">
        <ele>119</ele>
        <time>2023-10-07T12:02:44Z</time>
      </trkpt>
      <trkpt lat="48.03731" lon="-0.46731">
        <ele>118.4</ele>
        <time>2023-10-07T12:02:45Z</time>
      </trkpt>
      <trkpt lat="48.03731" lon="-0.46742">
        <ele>118.4</ele>
        <time>2023-10-07T12:02:46Z</time>
      </trkpt>
      <trkpt lat="48.0373" lon="-0.46752">
        <ele>118.4</ele>
        <time>2023-10-07T12:02:47Z</time>
      </trkpt>
      <trkpt lat="48.0373" lon="-0.46762">
        <ele>118.4</ele>
        <time>2023-10-07T12:02:48Z</time>
      </trkpt>
      <trkpt lat="48.0373" lon="-0.46772">
        <ele>118.2</ele>
        <time>2023-10-07T12:02:49Z</time>
      </trkpt>
      <trkpt lat="48.0373" lon="-0.46782">
        <ele>118.2</ele>
        <time>2023-10-07T12:02:50Z</time>
      </trkpt>
      <trkpt lat="48.03729" lon="-0.46792">
        <ele>118.2</ele>
        <time>2023-10-07T12:02:51Z</time>
      </trkpt>
      <trkpt lat="48.03729" lon="-0.46801">
        <ele>118.6</ele>
        <time>2023-10-07T12:02:52Z</time>
      </trkpt>
      <trkpt lat="48.03729" lon="-0.46811">
        <ele>118.2</ele>
        <time>2023-10-07T12:02:53Z</time>
      </trkpt>
      <trkpt lat="48.03729" lon="-0.46821">
        <ele>118.2</ele>
        <time>2023-10-07T12:02:54Z</time>
      </trkpt>
      <trkpt lat="48.03729" lon="-0.4683">
        <ele>118.2</ele>
        <time>2023-10-07T12:02:55Z</time>
      </trkpt>
      <trkpt lat="48.03728" lon="-0.4684">
        <ele>119.2</ele>
        <time>2023-10-07T12:02:56Z</time>
      </trkpt>
      <trkpt lat="48.03728" lon="-0.46849">
        <ele>119</ele>
        <time>2023-10-07T12:02:57Z</time>
      </trkpt>
      <trkpt lat="48.03728" lon="-0.46858">
        <ele>119</ele>
        <time>2023-10-07T12:02:58Z</time>
      </trkpt>
      <trkpt lat="48.03729" lon="-0.46868">
        <ele>119</ele>
        <time>2023-10-07T12:02:59Z</time>
      </trkpt>
      <trkpt lat="48.0373" lon="-0.46876">
        <ele>119.8</ele>
        <time>2023-10-07T12:03:00Z</time>
      </trkpt>
      <trkpt lat="48.03733" lon="-0.46885">
        <ele>119.6</ele>
        <time>2023-10-07T12:03:01Z</time>
      </trkpt>
      <trkpt lat="48.03736" lon="-0.46893">
        <ele>119.6</ele>
        <time>2023-10-07T12:03:02Z</time>
      </trkpt>
      <trkpt lat="48.03739" lon="-0.46901">
        <ele>119.6</ele>
        <time>2023-10-07T12:03:03Z</time>
      </trkpt>
      <trkpt lat="48.0374" lon="-0.46911">
        <ele>119.2</ele>
        <time>2023-10-07T12:03:04Z</time>
      </trkpt>
      <trkpt lat="48.03738" lon="-0.4692">
        <ele>119.6</ele>
        <time>2023-10-07T12:03:05Z</time>
      </trkpt>
      <trkpt lat="48.03735" lon="-0.46927">
        <ele>119.6</ele>
        <time>2023-10-07T12:03:06Z</time>
      </trkpt>
      <trkpt lat="48.03731" lon="-0.46932">
        <ele>119.6</ele>
        <time>2023-10-07T12:03:07Z</time>
      </trkpt>
      <trkpt lat="48.03725" lon="-0.46934">
        <ele>119.4</ele>
        <time>2023-10-07T12:03:08Z</time>
      </trkpt>
      <trkpt lat="48.0372" lon="-0.46934">
        <ele>119.8</ele>
        <time>2023-10-07T12:03:09Z</time>
      </trkpt>
      <trkpt lat="48.03714" lon="-0.46931">
        <ele>119.8</ele>
        <time>2023-10-07T12:03:10Z</time>
      </trkpt>
      <trkpt lat="48.03709" lon="-0.46928">
        <ele>119.8</ele>
        <time>2023-10-07T12:03:11Z</time>
      </trkpt>
      <trkpt lat="48.03703" lon="-0.46926">
        <ele>119.8</ele>
        <time>2023-10-07T12:03:12Z</time>
      </trkpt>
      <trkpt lat="48.03698" lon="-0.46926">
        <ele>119.6</ele>
        <time>2023-10-07T12:03:13Z</time>
      </trkpt>
      <trkpt lat="48.03692" lon="-0.46927">
        <ele>119.6</ele>
        <time>2023-10-07T12:03:14Z</time>
      </trkpt>
      <trkpt lat="48.03687" lon="-0.46928">
        <ele>119.6</ele>
        <time>2023-10-07T12:03:15Z</time>
      </trkpt>
      <trkpt lat="48.03681" lon="-0.46929">
        <ele>120.6</ele>
        <time>2023-10-07T12:03:16Z</time>
      </trkpt>
      <trkpt lat="48.03676" lon="-0.46929">
        <ele>121.6</ele>
        <time>2023-10-07T12:03:17Z</time>
      </trkpt>
      <trkpt lat="48.03671" lon="-0.46931">
        <ele>121.6</ele>
        <time>2023-10-07T12:03:18Z</time>
      </trkpt>
      <trkpt lat="48.03666" lon="-0.46932">
        <ele>121.6</ele>
        <time>2023-10-07T12:03:19Z</time>
      </trkpt>
      <trkpt lat="48.03661" lon="-0.46935">
        <ele>121.6</ele>
        <time>2023-10-07T12:03:20Z</time>
      </trkpt>
      <trkpt lat="48.03656" lon="-0.46937">
        <ele>122.4</ele>
        <time>2023-10-07T12:03:21Z</time>
      </trkpt>
      <trkpt lat="48.03651" lon="-0.46939">
        <ele>122.4</ele>
        <time>2023-10-07T12:03:22Z</time>
      </trkpt>
      <trkpt lat="48.03647" lon="-0.46942">
        <ele>122.4</ele>
        <time>2023-10-07T12:03:23Z</time>
      </trkpt>
      <trkpt lat="48.03642" lon="-0.46945">
        <ele>123</ele>
        <time>2023-10-07T12:03:24Z</time>
      </trkpt>
      <trkpt lat="48.03637" lon="-0.46948">
        <ele>122.6</ele>
        <time>2023-10-07T12:03:25Z</time>
      </trkpt>
      <trkpt lat="48.03633" lon="-0.46951">
        <ele>122.6</ele>
        <time>2023-10-07T12:03:26Z</time>
      </trkpt>
      <trkpt lat="48.03628" lon="-0.46955">
        <ele>122.6</ele>
        <time>2023-10-07T12:03:27Z</time>
      </trkpt>
      <trkpt lat="48.03624" lon="-0.4696">
        <ele>122.6</ele>
        <time>2023-10-07T12:03:28Z</time>
      </trkpt>
      <trkpt lat="48.0362" lon="-0.46964">
        <ele>123.2</ele>
        <time>2023-10-07T12:03:29Z</time>
      </trkpt>
      <trkpt lat="48.03616" lon="-0.46969">
        <ele>123.2</ele>
        <time>2023-10-07T12:03:30Z</time>
      </trkpt>
      <trkpt lat="48.03612" lon="-0.46974">
        <ele>123.2</ele>
        <time>2023-10-07T12:03:31Z</time>
      </trkpt>
      <trkpt lat="48.03608" lon="-0.4698">
        <ele>123.6</ele>
        <time>2023-10-07T12:03:32Z</time>
      </trkpt>
      <trkpt lat="48.03605" lon="-0.46985">
        <ele>123.8</ele>
        <time>2023-10-07T12:03:33Z</time>
      </trkpt>
      <trkpt lat="48.03601" lon="-0.46991">
        <ele>123.8</ele>
        <time>2023-10-07T12:03:34Z</time>
      </trkpt>
      <trkpt lat="48.03598" lon="-0.46997">
        <ele>123.8</ele>
        <time>2023-10-07T12:03:35Z</time>
      </trkpt>
      <trkpt lat="48.03595" lon="-0.47004">
        <ele>124.2</ele>
        <time>2023-10-07T12:03:36Z</time>
      </trkpt>
      <trkpt lat="48.03592" lon="-0.4701">
        <ele>124</ele>
        <time>2023-10-07T12:03:37Z</time>
      </trkpt>
      <trkpt lat="48.0359" lon="-0.47017">
        <ele>124</ele>
        <time>2023-10-07T12:03:38Z</time>
      </trkpt>
      <trkpt lat="48.03588" lon="-0.47025">
        <ele>124</ele>
        <time>2023-10-07T12:03:39Z</time>
      </trkpt>
      <trkpt lat="48.03586" lon="-0.47032">
        <ele>124.4</ele>
        <time>2023-10-07T12:03:40Z</time>
      </trkpt>
      <trkpt lat="48.03584" lon="-0.4704">
        <ele>123.8</ele>
        <time>2023-10-07T12:03:41Z</time>
      </trkpt>
      <trkpt lat="48.03582" lon="-0.47047">
        <ele>123.8</ele>
        <time>2023-10-07T12:03:42Z</time>
      </trkpt>
      <trkpt lat="48.03581" lon="-0.47055">
        <ele>123.8</ele>
        <time>2023-10-07T12:03:43Z</time>
      </trkpt>
      <trkpt lat="48.0358" lon="-0.47063">
        <ele>123.2</ele>
        <time>2023-10-07T12:03:44Z</time>
      </trkpt>
      <trkpt lat="48.03579" lon="-0.47072">
        <ele>123</ele>
        <time>2023-10-07T12:03:45Z</time>
      </trkpt>
      <trkpt lat="48.03579" lon="-0.4708">
        <ele>123</ele>
        <time>2023-10-07T12:03:46Z</time>
      </trkpt>
      <trkpt lat="48.03579" lon="-0.47089">
        <ele>123</ele>
        <time>2023-10-07T12:03:47Z</time>
      </trkpt>
      <trkpt lat="48.03578" lon="-0.47097">
        <ele>123</ele>
        <time>2023-10-07T12:03:48Z</time>
      </trkpt>
      <trkpt lat="48.03579" lon="-0.47106">
        <ele>123.2</ele>
        <time>2023-10-07T12:03:49Z</time>
      </trkpt>
      <trkpt lat="48.0358" lon="-0.47115">
        <ele>123.2</ele>
        <time>2023-10-07T12:03:50Z</time>
      </trkpt>
      <trkpt lat="48.03581" lon="-0.47124">
        <ele>123.2</ele>
        <time>2023-10-07T12:03:51Z</time>
      </trkpt>
      <trkpt lat="48.03583" lon="-0.47133">
        <ele>123.2</ele>
        <time>2023-10-07T12:03:52Z</time>
      </trkpt>
      <trkpt lat="48.03585" lon="-0.47142">
        <ele>124</ele>
        <time>2023-10-07T12:03:53Z</time>
      </trkpt>
      <trkpt lat="48.03587" lon="-0.47151">
        <ele>124</ele>
        <time>2023-10-07T12:03:54Z</time>
      </trkpt>
      <trkpt lat="48.03587" lon="-0.47159">
        <ele>124</ele>
        <time>2023-10-07T12:03:55Z</time>
      </trkpt>
      <trkpt lat="48.03586" lon="-0.47167">
        <ele>124</ele>
        <time>2023-10-07T12:03:56Z</time>
      </trkpt>
      <trkpt lat="48.03585" lon="-0.47174">
        <ele>124</ele>
        <time>2023-10-07T12:03:57Z</time>
      </trkpt>
      <trkpt lat="48.03583" lon="-0.47183">
        <ele>124</ele>
        <time>2023-10-07T12:03:58Z</time>
      </trkpt>
      <trkpt lat="48.03582" lon="-0.47191">
        <ele>124</ele>
        <time>2023-10-07T12:03:59Z</time>
      </trkpt>
      <trkpt lat="48.03581" lon="-0.47199">
        <ele>124</ele>
        <time>2023-10-07T12:04:00Z</time>
      </trkpt>
      <trkpt lat="48.0358" lon="-0.47208">
        <ele>124</ele>
        <time>2023-10-07T12:04:01Z</time>
      </trkpt>
      <trkpt lat="48.03579" lon="-0.47217">
        <ele>124</ele>
        <time>2023-10-07T12:04:02Z</time>
      </trkpt>
      <trkpt lat="48.03579" lon="-0.47225">
        <ele>124</ele>
        <time>2023-10-07T12:04:03Z</time>
      </trkpt>
      <trkpt lat="48.03579" lon="-0.47234">
        <ele>123.6</ele>
        <time>2023-10-07T12:04:04Z</time>
      </trkpt>
      <trkpt lat="48.03579" lon="-0.47243">
        <ele>123.4</ele>
        <time>2023-10-07T12:04:05Z</time>
      </trkpt>
      <trkpt lat="48.03579" lon="-0.47252">
        <ele>123.4</ele>
        <time>2023-10-07T12:04:06Z</time>
      </trkpt>
      <trkpt lat="48.03579" lon="-0.47261">
        <ele>123.4</ele>
        <time>2023-10-07T12:04:07Z</time>
      </trkpt>
      <trkpt lat="48.03579" lon="-0.4727">
        <ele>122.4</ele>
        <time>2023-10-07T12:04:08Z</time>
      </trkpt>
      <trkpt lat="48.03579" lon="-0.4728">
        <ele>122.6</ele>
        <time>2023-10-07T12:04:09Z</time>
      </trkpt>
      <trkpt lat="48.03579" lon="-0.47289">
        <ele>122.6</ele>
        <time>2023-10-07T12:04:10Z</time>
      </trkpt>
      <trkpt lat="48.03579" lon="-0.47298">
        <ele>122.6</ele>
        <time>2023-10-07T12:04:11Z</time>
      </trkpt>
      <trkpt lat="48.03579" lon="-0.47307">
        <ele>122.2</ele>
        <time>2023-10-07T12:04:12Z</time>
      </trkpt>
      <trkpt lat="48.03579" lon="-0.47317">
        <ele>122.2</ele>
        <time>2023-10-07T12:04:13Z</time>
      </trkpt>
      <trkpt lat="48.0358" lon="-0.47326">
        <ele>122.2</ele>
        <time>2023-10-07T12:04:14Z</time>
      </trkpt>
      <trkpt lat="48.0358" lon="-0.47336">
        <ele>122.2</ele>
        <time>2023-10-07T12:04:15Z</time>
      </trkpt>
      <trkpt lat="48.0358" lon="-0.47345">
        <ele>122.2</ele>
        <time>2023-10-07T12:04:16Z</time>
      </trkpt>
      <trkpt lat="48.0358" lon="-0.47355">
        <ele>122.2</ele>
        <time>2023-10-07T12:04:17Z</time>
      </trkpt>
      <trkpt lat="48.03581" lon="-0.47364">
        <ele>122.2</ele>
        <time>2023-10-07T12:04:18Z</time>
      </trkpt>
      <trkpt lat="48.03581" lon="-0.47374">
        <ele>122.2</ele>
        <time>2023-10-07T12:04:19Z</time>
      </trkpt>
      <trkpt lat="48.03582" lon="-0.47384">
        <ele>121.2</ele>
        <time>2023-10-07T12:04:20Z</time>
      </trkpt>
      <trkpt lat="48.03582" lon="-0.47394">
        <ele>120.8</ele>
        <time>2023-10-07T12:04:21Z</time>
      </trkpt>
      <trkpt lat="48.03583" lon="-0.47404">
        <ele>120.8</ele>
        <time>2023-10-07T12:04:22Z</time>
      </trkpt>
      <trkpt lat="48.03584" lon="-0.47414">
        <ele>120.8</ele>
        <time>2023-10-07T12:04:23Z</time>
      </trkpt>
      <trkpt lat="48.03584" lon="-0.47424">
        <ele>120.2</ele>
        <time>2023-10-07T12:04:24Z</time>
      </trkpt>
      <trkpt lat="48.03585" lon="-0.47434">
        <ele>119.8</ele>
        <time>2023-10-07T12:04:25Z</time>
      </trkpt>
      <trkpt lat="48.03586" lon="-0.47444">
        <ele>119.8</ele>
        <time>2023-10-07T12:04:26Z</time>
      </trkpt>
      <trkpt lat="48.03587" lon="-0.47454">
        <ele>119.8</ele>
        <time>2023-10-07T12:04:27Z</time>
      </trkpt>
      <trkpt lat="48.03588" lon="-0.47464">
        <ele>119.8</ele>
        <time>2023-10-07T12:04:28Z</time>
      </trkpt>
      <trkpt lat="48.03589" lon="-0.47474">
        <ele>119.8</ele>
        <time>2023-10-07T12:04:29Z</time>
      </trkpt>
      <trkpt lat="48.03591" lon="-0.47484">
        <ele>119.8</ele>
        <time>2023-10-07T12:04:30Z</time>
      </trkpt>
      <trkpt lat="48.03592" lon="-0.47495">
        <ele>119.8</ele>
        <time>2023-10-07T12:04:31Z</time>
      </trkpt>
      <trkpt lat="48.03594" lon="-0.47505">
        <ele>118.8</ele>
        <time>2023-10-07T12:04:32Z</time>
      </trkpt>
      <trkpt lat="48.03595" lon="-0.47516">
        <ele>118.8</ele>
        <time>2023-10-07T12:04:33Z</time>
      </trkpt>
      <trkpt lat="48.03596" lon="-0.47526">
        <ele>118.8</ele>
        <time>2023-10-07T12:04:34Z</time>
      </trkpt>
      <trkpt lat="48.03598" lon="-0.47537">
        <ele>118.8</ele>
        <time>2023-10-07T12:04:35Z</time>
      </trkpt>
      <trkpt lat="48.03599" lon="-0.47548">
        <ele>118.8</ele>
        <time>2023-10-07T12:04:36Z</time>
      </trkpt>
      <trkpt lat="48.03601" lon="-0.47559">
        <ele>117.8</ele>
        <time>2023-10-07T12:04:37Z</time>
      </trkpt>
      <trkpt lat="48.03603" lon="-0.47569">
        <ele>117.8</ele>
        <time>2023-10-07T12:04:38Z</time>
      </trkpt>
      <trkpt lat="48.03605" lon="-0.4758">
        <ele>117.8</ele>
        <time>2023-10-07T12:04:39Z</time>
      </trkpt>
      <trkpt lat="48.03607" lon="-0.47591">
        <ele>116.8</ele>
        <time>2023-10-07T12:04:40Z</time>
      </trkpt>
      <trkpt lat="48.0361" lon="-0.47601">
        <ele>116</ele>
        <time>2023-10-07T12:04:41Z</time>
      </trkpt>
      <trkpt lat="48.03612" lon="-0.47612">
        <ele>116</ele>
        <time>2023-10-07T12:04:42Z</time>
      </trkpt>
      <trkpt lat="48.03615" lon="-0.47622">
        <ele>116</ele>
        <time>2023-10-07T12:04:43Z</time>
      </trkpt>
      <trkpt lat="48.03618" lon="-0.47632">
        <ele>115</ele>
        <time>2023-10-07T12:04:44Z</time>
      </trkpt>
      <trkpt lat="48.03621" lon="-0.47643">
        <ele>115</ele>
        <time>2023-10-07T12:04:45Z</time>
      </trkpt>
      <trkpt lat="48.03624" lon="-0.47653">
        <ele>115</ele>
        <time>2023-10-07T12:04:46Z</time>
      </trkpt>
      <trkpt lat="48.03627" lon="-0.47664">
        <ele>115</ele>
        <time>2023-10-07T12:04:47Z</time>
      </trkpt>
      <trkpt lat="48.03629" lon="-0.47675">
        <ele>115</ele>
        <time>2023-10-07T12:04:48Z</time>
      </trkpt>
      <trkpt lat="48.03632" lon="-0.47685">
        <ele>114.4</ele>
        <time>2023-10-07T12:04:49Z</time>
      </trkpt>
      <trkpt lat="48.03634" lon="-0.47695">
        <ele>114.4</ele>
        <time>2023-10-07T12:04:50Z</time>
      </trkpt>
      <trkpt lat="48.03636" lon="-0.47705">
        <ele>114.4</ele>
        <time>2023-10-07T12:04:51Z</time>
      </trkpt>
      <trkpt lat="48.03635" lon="-0.47714">
        <ele>114.4</ele>
        <time>2023-10-07T12:04:52Z</time>
      </trkpt>
      <trkpt lat="48.03632" lon="-0.47721">
        <ele>114.2</ele>
        <time>2023-10-07T12:04:53Z</time>
      </trkpt>
      <trkpt lat="48.03627" lon="-0.47726">
        <ele>114.2</ele>
        <time>2023-10-07T12:04:54Z</time>
      </trkpt>
      <trkpt lat="48.03621" lon="-0.4773">
        <ele>114.2</ele>
        <time>2023-10-07T12:04:55Z</time>
      </trkpt>
      <trkpt lat="48.03615" lon="-0.47734">
        <ele>113.2</ele>
        <time>2023-10-07T12:04:56Z</time>
      </trkpt>
      <trkpt lat="48.03609" lon="-0.47739">
        <ele>113</ele>
        <time>2023-10-07T12:04:57Z</time>
      </trkpt>
      <trkpt lat="48.03603" lon="-0.47744">
        <ele>113</ele>
        <time>2023-10-07T12:04:58Z</time>
      </trkpt>
      <trkpt lat="48.03597" lon="-0.47748">
        <ele>113</ele>
        <time>2023-10-07T12:04:59Z</time>
      </trkpt>
      <trkpt lat="48.0359" lon="-0.47753">
        <ele>112.2</ele>
        <time>2023-10-07T12:05:00Z</time>
      </trkpt>
      <trkpt lat="48.03584" lon="-0.47757">
        <ele>111.8</ele>
        <time>2023-10-07T12:05:01Z</time>
      </trkpt>
      <trkpt lat="48.03576" lon="-0.4776">
        <ele>111.8</ele>
        <time>2023-10-07T12:05:02Z</time>
      </trkpt>
      <trkpt lat="48.03569" lon="-0.47763">
        <ele>111.8</ele>
        <time>2023-10-07T12:05:03Z</time>
      </trkpt>
      <trkpt lat="48.03562" lon="-0.47765">
        <ele>111.2</ele>
        <time>2023-10-07T12:05:04Z</time>
      </trkpt>
      <trkpt lat="48.03554" lon="-0.47767">
        <ele>110.4</ele>
        <time>2023-10-07T12:05:05Z</time>
      </trkpt>
      <trkpt lat="48.03546" lon="-0.47769">
        <ele>110.4</ele>
        <time>2023-10-07T12:05:06Z</time>
      </trkpt>
      <trkpt lat="48.03538" lon="-0.4777">
        <ele>110.4</ele>
        <time>2023-10-07T12:05:07Z</time>
      </trkpt>
      <trkpt lat="48.03531" lon="-0.47772">
        <ele>110.4</ele>
        <time>2023-10-07T12:05:08Z</time>
      </trkpt>
      <trkpt lat="48.03523" lon="-0.47773">
        <ele>108.4</ele>
        <time>2023-10-07T12:05:09Z</time>
      </trkpt>
      <trkpt lat="48.03515" lon="-0.47775">
        <ele>108.4</ele>
        <time>2023-10-07T12:05:10Z</time>
      </trkpt>
      <trkpt lat="48.03507" lon="-0.47776">
        <ele>108.4</ele>
        <time>2023-10-07T12:05:11Z</time>
      </trkpt>
      <trkpt lat="48.035" lon="-0.47778">
        <ele>108</ele>
        <time>2023-10-07T12:05:12Z</time>
      </trkpt>
      <trkpt lat="48.03491" lon="-0.4778">
        <ele>107</ele>
        <time>2023-10-07T12:05:13Z</time>
      </trkpt>
      <trkpt lat="48.03483" lon="-0.47781">
        <ele>107</ele>
        <time>2023-10-07T12:05:14Z</time>
      </trkpt>
      <trkpt lat="48.03475" lon="-0.47783">
        <ele>107</ele>
        <time>2023-10-07T12:05:15Z</time>
      </trkpt>
      <trkpt lat="48.03466" lon="-0.47784">
        <ele>106</ele>
        <time>2023-10-07T12:05:16Z</time>
      </trkpt>
      <trkpt lat="48.03457" lon="-0.47785">
        <ele>105.4</ele>
        <time>2023-10-07T12:05:17Z</time>
      </trkpt>
      <trkpt lat="48.03448" lon="-0.47787">
        <ele>105.4</ele>
        <time>2023-10-07T12:05:18Z</time>
      </trkpt>
      <trkpt lat="48.03439" lon="-0.4779">
        <ele>105.4</ele>
        <time>2023-10-07T12:05:19Z</time>
      </trkpt>
      <trkpt lat="48.0343" lon="-0.47793">
        <ele>104.4</ele>
        <time>2023-10-07T12:05:20Z</time>
      </trkpt>
      <trkpt lat="48.03421" lon="-0.47797">
        <ele>101.2</ele>
        <time>2023-10-07T12:05:21Z</time>
      </trkpt>
      <trkpt lat="48.03411" lon="-0.47801">
        <ele>101.2</ele>
        <time>2023-10-07T12:05:22Z</time>
      </trkpt>
      <trkpt lat="48.03402" lon="-0.47807">
        <ele>101.2</ele>
        <time>2023-10-07T12:05:23Z</time>
      </trkpt>
      <trkpt lat="48.03393" lon="-0.47812">
        <ele>100.2</ele>
        <time>2023-10-07T12:05:24Z</time>
      </trkpt>
      <trkpt lat="48.03383" lon="-0.47817">
        <ele>96.8</ele>
        <time>2023-10-07T12:05:25Z</time>
      </trkpt>
      <trkpt lat="48.03373" lon="-0.47823">
        <ele>96.8</ele>
        <time>2023-10-07T12:05:26Z</time>
      </trkpt>
      <trkpt lat="48.03362" lon="-0.47829">
        <ele>96.8</ele>
        <time>2023-10-07T12:05:27Z</time>
      </trkpt>
      <trkpt lat="48.03352" lon="-0.47835">
        <ele>95.8</ele>
        <time>2023-10-07T12:05:28Z</time>
      </trkpt>
      <trkpt lat="48.03341" lon="-0.47841">
        <ele>92.4</ele>
        <time>2023-10-07T12:05:29Z</time>
      </trkpt>
      <trkpt lat="48.0333" lon="-0.47848">
        <ele>92.4</ele>
        <time>2023-10-07T12:05:30Z</time>
      </trkpt>
      <trkpt lat="48.0332" lon="-0.47857">
        <ele>92.4</ele>
        <time>2023-10-07T12:05:31Z</time>
      </trkpt>
      <trkpt lat="48.0331" lon="-0.47867">
        <ele>91.4</ele>
        <time>2023-10-07T12:05:32Z</time>
      </trkpt>
      <trkpt lat="48.03301" lon="-0.47878">
        <ele>89.6</ele>
        <time>2023-10-07T12:05:33Z</time>
      </trkpt>
      <trkpt lat="48.03293" lon="-0.4789">
        <ele>89.6</ele>
        <time>2023-10-07T12:05:34Z</time>
      </trkpt>
      <trkpt lat="48.03284" lon="-0.47902">
        <ele>89.6</ele>
        <time>2023-10-07T12:05:35Z</time>
      </trkpt>
      <trkpt lat="48.03277" lon="-0.47914">
        <ele>89.6</ele>
        <time>2023-10-07T12:05:36Z</time>
      </trkpt>
      <trkpt lat="48.03269" lon="-0.47926">
        <ele>90.4</ele>
        <time>2023-10-07T12:05:37Z</time>
      </trkpt>
      <trkpt lat="48.03262" lon="-0.47937">
        <ele>90.4</ele>
        <time>2023-10-07T12:05:38Z</time>
      </trkpt>
      <trkpt lat="48.03255" lon="-0.47948">
        <ele>90.4</ele>
        <time>2023-10-07T12:05:39Z</time>
      </trkpt>
      <trkpt lat="48.03249" lon="-0.47959">
        <ele>91.4</ele>
        <time>2023-10-07T12:05:40Z</time>
      </trkpt>
      <trkpt lat="48.03242" lon="-0.47969">
        <ele>92</ele>
        <time>2023-10-07T12:05:41Z</time>
      </trkpt>
      <trkpt lat="48.03237" lon="-0.47979">
        <ele>92</ele>
        <time>2023-10-07T12:05:42Z</time>
      </trkpt>
      <trkpt lat="48.03231" lon="-0.47988">
        <ele>92</ele>
        <time>2023-10-07T12:05:43Z</time>
      </trkpt>
      <trkpt lat="48.03225" lon="-0.47997">
        <ele>93</ele>
        <time>2023-10-07T12:05:44Z</time>
      </trkpt>
      <trkpt lat="48.0322" lon="-0.48006">
        <ele>94.4</ele>
        <time>2023-10-07T12:05:45Z</time>
      </trkpt>
      <trkpt lat="48.03214" lon="-0.48014">
        <ele>94.4</ele>
        <time>2023-10-07T12:05:46Z</time>
      </trkpt>
      <trkpt lat="48.03209" lon="-0.48023">
        <ele>94.4</ele>
        <time>2023-10-07T12:05:47Z</time>
      </trkpt>
      <trkpt lat="48.03204" lon="-0.48031">
        <ele>95.4</ele>
        <time>2023-10-07T12:05:48Z</time>
      </trkpt>
      <trkpt lat="48.03199" lon="-0.48039">
        <ele>96.6</ele>
        <time>2023-10-07T12:05:49Z</time>
      </trkpt>
      <trkpt lat="48.03195" lon="-0.48046">
        <ele>96.6</ele>
        <time>2023-10-07T12:05:50Z</time>
      </trkpt>
      <trkpt lat="48.0319" lon="-0.48053">
        <ele>96.6</ele>
        <time>2023-10-07T12:05:51Z</time>
      </trkpt>
      <trkpt lat="48.03186" lon="-0.4806">
        <ele>97.6</ele>
        <time>2023-10-07T12:05:52Z</time>
      </trkpt>
      <trkpt lat="48.03181" lon="-0.48067">
        <ele>97.6</ele>
        <time>2023-10-07T12:05:53Z</time>
      </trkpt>
      <trkpt lat="48.03177" lon="-0.48074">
        <ele>97.6</ele>
        <time>2023-10-07T12:05:54Z</time>
      </trkpt>
      <trkpt lat="48.03173" lon="-0.48081">
        <ele>97.6</ele>
        <time>2023-10-07T12:05:55Z</time>
      </trkpt>
      <trkpt lat="48.03168" lon="-0.48088">
        <ele>98.6</ele>
        <time>2023-10-07T12:05:56Z</time>
      </trkpt>
      <trkpt lat="48.03164" lon="-0.48095">
        <ele>98.4</ele>
        <time>2023-10-07T12:05:57Z</time>
      </trkpt>
      <trkpt lat="48.0316" lon="-0.48102">
        <ele>98.4</ele>
        <time>2023-10-07T12:05:58Z</time>
      </trkpt>
      <trkpt lat="48.03155" lon="-0.48109">
        <ele>98.4</ele>
        <time>2023-10-07T12:05:59Z</time>
      </trkpt>
      <trkpt lat="48.03151" lon="-0.48116">
        <ele>98.4</ele>
        <time>2023-10-07T12:06:00Z</time>
      </trkpt>
      <trkpt lat="48.03147" lon="-0.48123">
        <ele>99.2</ele>
        <time>2023-10-07T12:06:01Z</time>
      </trkpt>
      <trkpt lat="48.03143" lon="-0.4813">
        <ele>99.2</ele>
        <time>2023-10-07T12:06:02Z</time>
      </trkpt>
      <trkpt lat="48.03138" lon="-0.48137">
        <ele>99.2</ele>
        <time>2023-10-07T12:06:03Z</time>
      </trkpt>
      <trkpt lat="48.03134" lon="-0.48144">
        <ele>98.8</ele>
        <time>2023-10-07T12:06:04Z</time>
      </trkpt>
      <trkpt lat="48.0313" lon="-0.4815">
        <ele>98.8</ele>
        <time>2023-10-07T12:06:05Z</time>
      </trkpt>
      <trkpt lat="48.03126" lon="-0.48157">
        <ele>98.8</ele>
        <time>2023-10-07T12:06:06Z</time>
      </trkpt>
      <trkpt lat="48.03122" lon="-0.48164">
        <ele>98.8</ele>
        <time>2023-10-07T12:06:07Z</time>
      </trkpt>
      <trkpt lat="48.03118" lon="-0.4817">
        <ele>99</ele>
        <time>2023-10-07T12:06:08Z</time>
      </trkpt>
      <trkpt lat="48.03114" lon="-0.48177">
        <ele>99.8</ele>
        <time>2023-10-07T12:06:09Z</time>
      </trkpt>
      <trkpt lat="48.0311" lon="-0.48183">
        <ele>99.8</ele>
        <time>2023-10-07T12:06:10Z</time>
      </trkpt>
      <trkpt lat="48.03106" lon="-0.48189">
        <ele>99.8</ele>
        <time>2023-10-07T12:06:11Z</time>
      </trkpt>
      <trkpt lat="48.03102" lon="-0.48196">
        <ele>99.8</ele>
        <time>2023-10-07T12:06:12Z</time>
      </trkpt>
      <trkpt lat="48.03098" lon="-0.48203">
        <ele>100</ele>
        <time>2023-10-07T12:06:13Z</time>
      </trkpt>
      <trkpt lat="48.03094" lon="-0.48209">
        <ele>100</ele>
        <time>2023-10-07T12:06:14Z</time>
      </trkpt>
      <trkpt lat="48.0309" lon="-0.48216">
        <ele>100</ele>
        <time>2023-10-07T12:06:15Z</time>
      </trkpt>
      <trkpt lat="48.03085" lon="-0.48222">
        <ele>100.4</ele>
        <time>2023-10-07T12:06:16Z</time>
      </trkpt>
      <trkpt lat="48.03081" lon="-0.48229">
        <ele>101.4</ele>
        <time>2023-10-07T12:06:17Z</time>
      </trkpt>
      <trkpt lat="48.03076" lon="-0.48235">
        <ele>101.4</ele>
        <time>2023-10-07T12:06:18Z</time>
      </trkpt>
      <trkpt lat="48.03071" lon="-0.4824">
        <ele>101.4</ele>
        <time>2023-10-07T12:06:19Z</time>
      </trkpt>
      <trkpt lat="48.03065" lon="-0.48245">
        <ele>101.4</ele>
        <time>2023-10-07T12:06:20Z</time>
      </trkpt>
      <trkpt lat="48.03059" lon="-0.4825">
        <ele>101.6</ele>
        <time>2023-10-07T12:06:21Z</time>
      </trkpt>
      <trkpt lat="48.03054" lon="-0.48254">
        <ele>101.6</ele>
        <time>2023-10-07T12:06:22Z</time>
      </trkpt>
      <trkpt lat="48.03047" lon="-0.48257">
        <ele>101.6</ele>
        <time>2023-10-07T12:06:23Z</time>
      </trkpt>
      <trkpt lat="48.03041" lon="-0.4826">
        <ele>101.6</ele>
        <time>2023-10-07T12:06:24Z</time>
      </trkpt>
      <trkpt lat="48.03035" lon="-0.48263">
        <ele>101</ele>
        <time>2023-10-07T12:06:25Z</time>
      </trkpt>
      <trkpt lat="48.03028" lon="-0.48265">
        <ele>101</ele>
        <time>2023-10-07T12:06:26Z</time>
      </trkpt>
      <trkpt lat="48.03021" lon="-0.48267">
        <ele>101</ele>
        <time>2023-10-07T12:06:27Z</time>
      </trkpt>
      <trkpt lat="48.03015" lon="-0.48269">
        <ele>101</ele>
        <time>2023-10-07T12:06:28Z</time>
      </trkpt>
      <trkpt lat="48.03008" lon="-0.48271">
        <ele>100.2</ele>
        <time>2023-10-07T12:06:29Z</time>
      </trkpt>
      <trkpt lat="48.03001" lon="-0.48274">
        <ele>100.2</ele>
        <time>2023-10-07T12:06:30Z</time>
      </trkpt>
      <trkpt lat="48.02994" lon="-0.48275">
        <ele>100.2</ele>
        <time>2023-10-07T12:06:31Z</time>
      </trkpt>
      <trkpt lat="48.02987" lon="-0.48278">
        <ele>100.2</ele>
        <time>2023-10-07T12:06:32Z</time>
      </trkpt>
      <trkpt lat="48.0298" lon="-0.4828">
        <ele>100.4</ele>
        <time>2023-10-07T12:06:33Z</time>
      </trkpt>
      <trkpt lat="48.02973" lon="-0.48282">
        <ele>100.4</ele>
        <time>2023-10-07T12:06:34Z</time>
      </trkpt>
      <trkpt lat="48.02967" lon="-0.48284">
        <ele>100.4</ele>
        <time>2023-10-07T12:06:35Z</time>
      </trkpt>
      <trkpt lat="48.0296" lon="-0.48287">
        <ele>100.4</ele>
        <time>2023-10-07T12:06:36Z</time>
      </trkpt>
      <trkpt lat="48.02954" lon="-0.4829">
        <ele>100.2</ele>
        <time>2023-10-07T12:06:37Z</time>
      </trkpt>
      <trkpt lat="48.02947" lon="-0.48292">
        <ele>100.2</ele>
        <time>2023-10-07T12:06:38Z</time>
      </trkpt>
      <trkpt lat="48.0294" lon="-0.48295">
        <ele>100.2</ele>
        <time>2023-10-07T12:06:39Z</time>
      </trkpt>
      <trkpt lat="48.02934" lon="-0.48297">
        <ele>100.2</ele>
        <time>2023-10-07T12:06:40Z</time>
      </trkpt>
      <trkpt lat="48.02927" lon="-0.483">
        <ele>100.4</ele>
        <time>2023-10-07T12:06:41Z</time>
      </trkpt>
      <trkpt lat="48.0292" lon="-0.48302">
        <ele>100.4</ele>
        <time>2023-10-07T12:06:42Z</time>
      </trkpt>
      <trkpt lat="48.02914" lon="-0.48305">
        <ele>100.4</ele>
        <time>2023-10-07T12:06:43Z</time>
      </trkpt>
      <trkpt lat="48.02907" lon="-0.48307">
        <ele>100.4</ele>
        <time>2023-10-07T12:06:44Z</time>
      </trkpt>
      <trkpt lat="48.02901" lon="-0.4831">
        <ele>99.6</ele>
        <time>2023-10-07T12:06:45Z</time>
      </trkpt>
      <trkpt lat="48.02894" lon="-0.48312">
        <ele>99.6</ele>
        <time>2023-10-07T12:06:46Z</time>
      </trkpt>
      <trkpt lat="48.02887" lon="-0.48314">
        <ele>99.6</ele>
        <time>2023-10-07T12:06:47Z</time>
      </trkpt>
      <trkpt lat="48.0288" lon="-0.48316">
        <ele>99.6</ele>
        <time>2023-10-07T12:06:48Z</time>
      </trkpt>
      <trkpt lat="48.02873" lon="-0.48319">
        <ele>98.2</ele>
        <time>2023-10-07T12:06:49Z</time>
      </trkpt>
      <trkpt lat="48.02865" lon="-0.48321">
        <ele>98.2</ele>
        <time>2023-10-07T12:06:50Z</time>
      </trkpt>
      <trkpt lat="48.02858" lon="-0.48323">
        <ele>98.2</ele>
        <time>2023-10-07T12:06:51Z</time>
      </trkpt>
      <trkpt lat="48.02851" lon="-0.48326">
        <ele>97.2</ele>
        <time>2023-10-07T12:06:52Z</time>
      </trkpt>
      <trkpt lat="48.02844" lon="-0.48328">
        <ele>97</ele>
        <time>2023-10-07T12:06:53Z</time>
      </trkpt>
      <trkpt lat="48.02836" lon="-0.48331">
        <ele>97</ele>
        <time>2023-10-07T12:06:54Z</time>
      </trkpt>
      <trkpt lat="48.02829" lon="-0.48333">
        <ele>97</ele>
        <time>2023-10-07T12:06:55Z</time>
      </trkpt>
      <trkpt lat="48.02822" lon="-0.48336">
        <ele>97.2</ele>
        <time>2023-10-07T12:06:56Z</time>
      </trkpt>
      <trkpt lat="48.02817" lon="-0.48342">
        <ele>97.8</ele>
        <time>2023-10-07T12:06:57Z</time>
      </trkpt>
      <trkpt lat="48.02814" lon="-0.4835">
        <ele>97.8</ele>
        <time>2023-10-07T12:06:58Z</time>
      </trkpt>
      <trkpt lat="48.0281" lon="-0.48358">
        <ele>97.8</ele>
        <time>2023-10-07T12:06:59Z</time>
      </trkpt>
      <trkpt lat="48.02806" lon="-0.48367">
        <ele>96.8</ele>
        <time>2023-10-07T12:07:00Z</time>
      </trkpt>
      <trkpt lat="48.02801" lon="-0.48374">
        <ele>92.8</ele>
        <time>2023-10-07T12:07:01Z</time>
      </trkpt>
      <trkpt lat="48.02794" lon="-0.48381">
        <ele>92.8</ele>
        <time>2023-10-07T12:07:02Z</time>
      </trkpt>
      <trkpt lat="48.02788" lon="-0.48388">
        <ele>92.8</ele>
        <time>2023-10-07T12:07:03Z</time>
      </trkpt>
      <trkpt lat="48.0278" lon="-0.48394">
        <ele>91.8</ele>
        <time>2023-10-07T12:07:04Z</time>
      </trkpt>
      <trkpt lat="48.02773" lon="-0.484">
        <ele>89.8</ele>
        <time>2023-10-07T12:07:05Z</time>
      </trkpt>
      <trkpt lat="48.02766" lon="-0.48405">
        <ele>89.8</ele>
        <time>2023-10-07T12:07:06Z</time>
      </trkpt>
      <trkpt lat="48.0276" lon="-0.48412">
        <ele>89.8</ele>
        <time>2023-10-07T12:07:07Z</time>
      </trkpt>
      <trkpt lat="48.02755" lon="-0.48418">
        <ele>88.8</ele>
        <time>2023-10-07T12:07:08Z</time>
      </trkpt>
      <trkpt lat="48.02751" lon="-0.48426">
        <ele>88.6</ele>
        <time>2023-10-07T12:07:09Z</time>
      </trkpt>
      <trkpt lat="48.02748" lon="-0.48436">
        <ele>88.6</ele>
        <time>2023-10-07T12:07:10Z</time>
      </trkpt>
      <trkpt lat="48.02748" lon="-0.48447">
        <ele>88.6</ele>
        <time>2023-10-07T12:07:11Z</time>
      </trkpt>
      <trkpt lat="48.0275" lon="-0.48456">
        <ele>87.6</ele>
        <time>2023-10-07T12:07:12Z</time>
      </trkpt>
      <trkpt lat="48.02753" lon="-0.48463">
        <ele>86.6</ele>
        <time>2023-10-07T12:07:13Z</time>
      </trkpt>
      <trkpt lat="48.02757" lon="-0.4847">
        <ele>86.6</ele>
        <time>2023-10-07T12:07:14Z</time>
      </trkpt>
      <trkpt lat="48.02762" lon="-0.48476">
        <ele>86.6</ele>
        <time>2023-10-07T12:07:15Z</time>
      </trkpt>
      <trkpt lat="48.02767" lon="-0.48481">
        <ele>86.6</ele>
        <time>2023-10-07T12:07:16Z</time>
      </trkpt>
      <trkpt lat="48.02772" lon="-0.48487">
        <ele>87.6</ele>
        <time>2023-10-07T12:07:17Z</time>
      </trkpt>
      <trkpt lat="48.02776" lon="-0.48491">
        <ele>87.6</ele>
        <time>2023-10-07T12:07:18Z</time>
      </trkpt>
      <trkpt lat="48.02781" lon="-0.48496">
        <ele>87.6</ele>
        <time>2023-10-07T12:07:19Z</time>
      </trkpt>
      <trkpt lat="48.02786" lon="-0.485">
        <ele>87.6</ele>
        <time>2023-10-07T12:07:20Z</time>
      </trkpt>
      <trkpt lat="48.02791" lon="-0.48504">
        <ele>87.8</ele>
        <time>2023-10-07T12:07:21Z</time>
      </trkpt>
      <trkpt lat="48.02796" lon="-0.48508">
        <ele>87.8</ele>
        <time>2023-10-07T12:07:22Z</time>
      </trkpt>
      <trkpt lat="48.028" lon="-0.48512">
        <ele>87.8</ele>
        <time>2023-10-07T12:07:23Z</time>
      </trkpt>
      <trkpt lat="48.02803" lon="-0.48518">
        <ele>87.8</ele>
        <time>2023-10-07T12:07:24Z</time>
      </trkpt>
      <trkpt lat="48.02806" lon="-0.48525">
        <ele>87.6</ele>
        <time>2023-10-07T12:07:25Z</time>
      </trkpt>
      <trkpt lat="48.02808" lon="-0.48531">
        <ele>87.6</ele>
        <time>2023-10-07T12:07:26Z</time>
      </trkpt>
      <trkpt lat="48.0281" lon="-0.48537">
        <ele>87.6</ele>
        <time>2023-10-07T12:07:27Z</time>
      </trkpt>
      <trkpt lat="48.02812" lon="-0.48543">
        <ele>87.6</ele>
        <time>2023-10-07T12:07:28Z</time>
      </trkpt>
      <trkpt lat="48.02814" lon="-0.48549">
        <ele>90.2</ele>
        <time>2023-10-07T12:07:29Z</time>
      </trkpt>
      <trkpt lat="48.02815" lon="-0.48555">
        <ele>90.2</ele>
        <time>2023-10-07T12:07:30Z</time>
      </trkpt>
      <trkpt lat="48.02817" lon="-0.48561">
        <ele>90.2</ele>
        <time>2023-10-07T12:07:31Z</time>
      </trkpt>
      <trkpt lat="48.02819" lon="-0.48566">
        <ele>90.4</ele>
        <time>2023-10-07T12:07:32Z</time>
      </trkpt>
      <trkpt lat="48.02821" lon="-0.48571">
        <ele>92</ele>
        <time>2023-10-07T12:07:33Z</time>
      </trkpt>
      <trkpt lat="48.02823" lon="-0.48577">
        <ele>92</ele>
        <time>2023-10-07T12:07:34Z</time>
      </trkpt>
      <trkpt lat="48.02825" lon="-0.48583">
        <ele>92</ele>
        <time>2023-10-07T12:07:35Z</time>
      </trkpt>
      <trkpt lat="48.02827" lon="-0.48588">
        <ele>91.2</ele>
        <time>2023-10-07T12:07:36Z</time>
      </trkpt>
      <trkpt lat="48.0283" lon="-0.48595">
        <ele>91.4</ele>
        <time>2023-10-07T12:07:37Z</time>
      </trkpt>
      <trkpt lat="48.02832" lon="-0.48602">
        <ele>91.4</ele>
        <time>2023-10-07T12:07:38Z</time>
      </trkpt>
      <trkpt lat="48.02835" lon="-0.48609">
        <ele>91.4</ele>
        <time>2023-10-07T12:07:39Z</time>
      </trkpt>
      <trkpt lat="48.02837" lon="-0.48616">
        <ele>91.4</ele>
        <time>2023-10-07T12:07:40Z</time>
      </trkpt>
      <trkpt lat="48.0284" lon="-0.48623">
        <ele>90.8</ele>
        <time>2023-10-07T12:07:41Z</time>
      </trkpt>
      <trkpt lat="48.02843" lon="-0.4863">
        <ele>90.8</ele>
        <time>2023-10-07T12:07:42Z</time>
      </trkpt>
      <trkpt lat="48.02845" lon="-0.48637">
        <ele>90.8</ele>
        <time>2023-10-07T12:07:43Z</time>
      </trkpt>
      <trkpt lat="48.02847" lon="-0.48644">
        <ele>90.8</ele>
        <time>2023-10-07T12:07:44Z</time>
      </trkpt>
      <trkpt lat="48.0285" lon="-0.48651">
        <ele>90.4</ele>
        <time>2023-10-07T12:07:45Z</time>
      </trkpt>
      <trkpt lat="48.02852" lon="-0.48658">
        <ele>90.4</ele>
        <time>2023-10-07T12:07:46Z</time>
      </trkpt>
      <trkpt lat="48.02854" lon="-0.48665">
        <ele>90.4</ele>
        <time>2023-10-07T12:07:47Z</time>
      </trkpt>
      <trkpt lat="48.02856" lon="-0.48672">
        <ele>90.8</ele>
        <time>2023-10-07T12:07:48Z</time>
      </trkpt>
      <trkpt lat="48.02858" lon="-0.4868">
        <ele>91.4</ele>
        <time>2023-10-07T12:07:49Z</time>
      </trkpt>
      <trkpt lat="48.0286" lon="-0.48688">
        <ele>91.4</ele>
        <time>2023-10-07T12:07:50Z</time>
      </trkpt>
      <trkpt lat="48.02862" lon="-0.48695">
        <ele>91.4</ele>
        <time>2023-10-07T12:07:51Z</time>
      </trkpt>
      <trkpt lat="48.02864" lon="-0.48703">
        <ele>91.4</ele>
        <time>2023-10-07T12:07:52Z</time>
      </trkpt>
      <trkpt lat="48.02865" lon="-0.48711">
        <ele>91.4</ele>
        <time>2023-10-07T12:07:53Z</time>
      </trkpt>
      <trkpt lat="48.02866" lon="-0.4872">
        <ele>91.4</ele>
        <time>2023-10-07T12:07:54Z</time>
      </trkpt>
      <trkpt lat="48.02866" lon="-0.48728">
        <ele>91.4</ele>
        <time>2023-10-07T12:07:55Z</time>
      </trkpt>
      <trkpt lat="48.02867" lon="-0.48737">
        <ele>91.4</ele>
        <time>2023-10-07T12:07:56Z</time>
      </trkpt>
      <trkpt lat="48.02868" lon="-0.48745">
        <ele>91.4</ele>
        <time>2023-10-07T12:07:57Z</time>
      </trkpt>
      <trkpt lat="48.02868" lon="-0.48753">
        <ele>91.4</ele>
        <time>2023-10-07T12:07:58Z</time>
      </trkpt>
      <trkpt lat="48.02869" lon="-0.48761">
        <ele>91.4</ele>
        <time>2023-10-07T12:07:59Z</time>
      </trkpt>
      <trkpt lat="48.02869" lon="-0.48769">
        <ele>91.4</ele>
        <time>2023-10-07T12:08:00Z</time>
      </trkpt>
      <trkpt lat="48.0287" lon="-0.48778">
        <ele>90.8</ele>
        <time>2023-10-07T12:08:01Z</time>
      </trkpt>
      <trkpt lat="48.0287" lon="-0.48786">
        <ele>90.8</ele>
        <time>2023-10-07T12:08:02Z</time>
      </trkpt>
      <trkpt lat="48.0287" lon="-0.48794">
        <ele>90.8</ele>
        <time>2023-10-07T12:08:03Z</time>
      </trkpt>
      <trkpt lat="48.0287" lon="-0.48802">
        <ele>90.8</ele>
        <time>2023-10-07T12:08:04Z</time>
      </trkpt>
      <trkpt lat="48.02871" lon="-0.4881">
        <ele>91.6</ele>
        <time>2023-10-07T12:08:05Z</time>
      </trkpt>
      <trkpt lat="48.02871" lon="-0.48818">
        <ele>91.6</ele>
        <time>2023-10-07T12:08:06Z</time>
      </trkpt>
      <trkpt lat="48.02872" lon="-0.48826">
        <ele>91.6</ele>
        <time>2023-10-07T12:08:07Z</time>
      </trkpt>
      <trkpt lat="48.02872" lon="-0.48834">
        <ele>91.6</ele>
        <time>2023-10-07T12:08:08Z</time>
      </trkpt>
      <trkpt lat="48.02872" lon="-0.48843">
        <ele>91</ele>
        <time>2023-10-07T12:08:09Z</time>
      </trkpt>
      <trkpt lat="48.02873" lon="-0.48851">
        <ele>91</ele>
        <time>2023-10-07T12:08:10Z</time>
      </trkpt>
      <trkpt lat="48.02873" lon="-0.48859">
        <ele>91</ele>
        <time>2023-10-07T12:08:11Z</time>
      </trkpt>
      <trkpt lat="48.02874" lon="-0.48866">
        <ele>91</ele>
        <time>2023-10-07T12:08:12Z</time>
      </trkpt>
      <trkpt lat="48.02874" lon="-0.48873">
        <ele>90.6</ele>
        <time>2023-10-07T12:08:13Z</time>
      </trkpt>
      <trkpt lat="48.02875" lon="-0.4888">
        <ele>90.6</ele>
        <time>2023-10-07T12:08:14Z</time>
      </trkpt>
      <trkpt lat="48.02876" lon="-0.48887">
        <ele>90.6</ele>
        <time>2023-10-07T12:08:15Z</time>
      </trkpt>
      <trkpt lat="48.02876" lon="-0.48894">
        <ele>91.6</ele>
        <time>2023-10-07T12:08:16Z</time>
      </trkpt>
      <trkpt lat="48.02877" lon="-0.48901">
        <ele>92.2</ele>
        <time>2023-10-07T12:08:17Z</time>
      </trkpt>
      <trkpt lat="48.02878" lon="-0.48907">
        <ele>92.2</ele>
        <time>2023-10-07T12:08:18Z</time>
      </trkpt>
      <trkpt lat="48.02878" lon="-0.48915">
        <ele>92.2</ele>
        <time>2023-10-07T12:08:19Z</time>
      </trkpt>
      <trkpt lat="48.02879" lon="-0.48922">
        <ele>91.4</ele>
        <time>2023-10-07T12:08:20Z</time>
      </trkpt>
      <trkpt lat="48.02879" lon="-0.4893">
        <ele>92</ele>
        <time>2023-10-07T12:08:21Z</time>
      </trkpt>
      <trkpt lat="48.02879" lon="-0.48937">
        <ele>92</ele>
        <time>2023-10-07T12:08:22Z</time>
      </trkpt>
      <trkpt lat="48.0288" lon="-0.48944">
        <ele>92</ele>
        <time>2023-10-07T12:08:23Z</time>
      </trkpt>
      <trkpt lat="48.0288" lon="-0.48952">
        <ele>92</ele>
        <time>2023-10-07T12:08:24Z</time>
      </trkpt>
      <trkpt lat="48.02881" lon="-0.48959">
        <ele>92</ele>
        <time>2023-10-07T12:08:25Z</time>
      </trkpt>
      <trkpt lat="48.02881" lon="-0.48967">
        <ele>92</ele>
        <time>2023-10-07T12:08:26Z</time>
      </trkpt>
      <trkpt lat="48.02882" lon="-0.48974">
        <ele>92</ele>
        <time>2023-10-07T12:08:27Z</time>
      </trkpt>
      <trkpt lat="48.02882" lon="-0.48982">
        <ele>92</ele>
        <time>2023-10-07T12:08:28Z</time>
      </trkpt>
      <trkpt lat="48.02883" lon="-0.48989">
        <ele>93.2</ele>
        <time>2023-10-07T12:08:29Z</time>
      </trkpt>
      <trkpt lat="48.02884" lon="-0.48995">
        <ele>93.2</ele>
        <time>2023-10-07T12:08:30Z</time>
      </trkpt>
      <trkpt lat="48.02884" lon="-0.49002">
        <ele>93.2</ele>
        <time>2023-10-07T12:08:31Z</time>
      </trkpt>
      <trkpt lat="48.02884" lon="-0.49009">
        <ele>92.6</ele>
        <time>2023-10-07T12:08:32Z</time>
      </trkpt>
      <trkpt lat="48.02885" lon="-0.49017">
        <ele>93</ele>
        <time>2023-10-07T12:08:33Z</time>
      </trkpt>
      <trkpt lat="48.02885" lon="-0.49024">
        <ele>93</ele>
        <time>2023-10-07T12:08:34Z</time>
      </trkpt>
      <trkpt lat="48.02885" lon="-0.49032">
        <ele>93</ele>
        <time>2023-10-07T12:08:35Z</time>
      </trkpt>
      <trkpt lat="48.02885" lon="-0.49039">
        <ele>92</ele>
        <time>2023-10-07T12:08:36Z</time>
      </trkpt>
      <trkpt lat="48.02886" lon="-0.49046">
        <ele>92.4</ele>
        <time>2023-10-07T12:08:37Z</time>
      </trkpt>
      <trkpt lat="48.02886" lon="-0.49053">
        <ele>92.4</ele>
        <time>2023-10-07T12:08:38Z</time>
      </trkpt>
      <trkpt lat="48.02885" lon="-0.4906">
        <ele>92.4</ele>
        <time>2023-10-07T12:08:39Z</time>
      </trkpt>
      <trkpt lat="48.02883" lon="-0.49067">
        <ele>92.2</ele>
        <time>2023-10-07T12:08:40Z</time>
      </trkpt>
      <trkpt lat="48.02879" lon="-0.49072">
        <ele>92</ele>
        <time>2023-10-07T12:08:41Z</time>
      </trkpt>
      <trkpt lat="48.02875" lon="-0.49075">
        <ele>92</ele>
        <time>2023-10-07T12:08:42Z</time>
      </trkpt>
      <trkpt lat="48.02871" lon="-0.49076">
        <ele>92</ele>
        <time>2023-10-07T12:08:43Z</time>
      </trkpt>
      <trkpt lat="48.02867" lon="-0.49076">
        <ele>93</ele>
        <time>2023-10-07T12:08:44Z</time>
      </trkpt>
      <trkpt lat="48.02863" lon="-0.49077">
        <ele>94.2</ele>
        <time>2023-10-07T12:08:45Z</time>
      </trkpt>
      <trkpt lat="48.02859" lon="-0.49077">
        <ele>94.2</ele>
        <time>2023-10-07T12:08:46Z</time>
      </trkpt>
      <trkpt lat="48.02856" lon="-0.49078">
        <ele>94.2</ele>
        <time>2023-10-07T12:08:47Z</time>
      </trkpt>
      <trkpt lat="48.02852" lon="-0.49078">
        <ele>94.2</ele>
        <time>2023-10-07T12:08:48Z</time>
      </trkpt>
      <trkpt lat="48.02849" lon="-0.49078">
        <ele>95.2</ele>
        <time>2023-10-07T12:08:49Z</time>
      </trkpt>
      <trkpt lat="48.02846" lon="-0.49079">
        <ele>95.2</ele>
        <time>2023-10-07T12:08:50Z</time>
      </trkpt>
      <trkpt lat="48.02843" lon="-0.49079">
        <ele>95.2</ele>
        <time>2023-10-07T12:08:51Z</time>
      </trkpt>
      <trkpt lat="48.0284" lon="-0.4908">
        <ele>96.2</ele>
        <time>2023-10-07T12:08:52Z</time>
      </trkpt>
      <trkpt lat="48.02837" lon="-0.4908">
        <ele>97</ele>
        <time>2023-10-07T12:08:53Z</time>
      </trkpt>
      <trkpt lat="48.02834" lon="-0.4908">
        <ele>97</ele>
        <time>2023-10-07T12:08:54Z</time>
      </trkpt>
      <trkpt lat="48.02831" lon="-0.49079">
        <ele>97</ele>
        <time>2023-10-07T12:08:55Z</time>
      </trkpt>
      <trkpt lat="48.02828" lon="-0.49079">
        <ele>98</ele>
        <time>2023-10-07T12:08:56Z</time>
      </trkpt>
      <trkpt lat="48.02825" lon="-0.49079">
        <ele>98</ele>
        <time>2023-10-07T12:08:57Z</time>
      </trkpt>
      <trkpt lat="48.02822" lon="-0.49079">
        <ele>98</ele>
        <time>2023-10-07T12:08:58Z</time>
      </trkpt>
      <trkpt lat="48.02819" lon="-0.49078">
        <ele>98</ele>
        <time>2023-10-07T12:08:59Z</time>
      </trkpt>
      <trkpt lat="48.02817" lon="-0.49078">
        <ele>99</ele>
        <time>2023-10-07T12:09:00Z</time>
      </trkpt>
      <trkpt lat="48.02814" lon="-0.49078">
        <ele>100.4</ele>
        <time>2023-10-07T12:09:01Z</time>
      </trkpt>
      <trkpt lat="48.02812" lon="-0.49078">
        <ele>100.4</ele>
        <time>2023-10-07T12:09:02Z</time>
      </trkpt>
      <trkpt lat="48.02809" lon="-0.49078">
        <ele>100.4</ele>
        <time>2023-10-07T12:09:03Z</time>
      </trkpt>
      <trkpt lat="48.02806" lon="-0.49078">
        <ele>100.4</ele>
        <time>2023-10-07T12:09:04Z</time>
      </trkpt>
      <trkpt lat="48.02804" lon="-0.49078">
        <ele>99.4</ele>
        <time>2023-10-07T12:09:05Z</time>
      </trkpt>
      <trkpt lat="48.02801" lon="-0.49077">
        <ele>99.4</ele>
        <time>2023-10-07T12:09:06Z</time>
      </trkpt>
      <trkpt lat="48.02798" lon="-0.49077">
        <ele>99.4</ele>
        <time>2023-10-07T12:09:07Z</time>
      </trkpt>
      <trkpt lat="48.02795" lon="-0.49075">
        <ele>100.4</ele>
        <time>2023-10-07T12:09:08Z</time>
      </trkpt>
      <trkpt lat="48.02792" lon="-0.49075">
        <ele>100.4</ele>
        <time>2023-10-07T12:09:09Z</time>
      </trkpt>
      <trkpt lat="48.0279" lon="-0.49073">
        <ele>100.4</ele>
        <time>2023-10-07T12:09:10Z</time>
      </trkpt>
      <trkpt lat="48.02787" lon="-0.49072">
        <ele>100.4</ele>
        <time>2023-10-07T12:09:11Z</time>
      </trkpt>
      <trkpt lat="48.02784" lon="-0.4907">
        <ele>100.4</ele>
        <time>2023-10-07T12:09:12Z</time>
      </trkpt>
      <trkpt lat="48.02781" lon="-0.49068">
        <ele>101.6</ele>
        <time>2023-10-07T12:09:13Z</time>
      </trkpt>
      <trkpt lat="48.02779" lon="-0.49067">
        <ele>101.6</ele>
        <time>2023-10-07T12:09:14Z</time>
      </trkpt>
      <trkpt lat="48.02776" lon="-0.49065">
        <ele>101.6</ele>
        <time>2023-10-07T12:09:15Z</time>
      </trkpt>
      <trkpt lat="48.02773" lon="-0.49063">
        <ele>101.6</ele>
        <time>2023-10-07T12:09:16Z</time>
      </trkpt>
      <trkpt lat="48.02771" lon="-0.4906">
        <ele>101</ele>
        <time>2023-10-07T12:09:17Z</time>
      </trkpt>
      <trkpt lat="48.02769" lon="-0.49058">
        <ele>101</ele>
        <time>2023-10-07T12:09:18Z</time>
      </trkpt>
      <trkpt lat="48.02766" lon="-0.49056">
        <ele>101</ele>
        <time>2023-10-07T12:09:19Z</time>
      </trkpt>
      <trkpt lat="48.02764" lon="-0.49054">
        <ele>102</ele>
        <time>2023-10-07T12:09:20Z</time>
      </trkpt>
      <trkpt lat="48.02761" lon="-0.49051">
        <ele>103</ele>
        <time>2023-10-07T12:09:21Z</time>
      </trkpt>
      <trkpt lat="48.02759" lon="-0.49049">
        <ele>103</ele>
        <time>2023-10-07T12:09:22Z</time>
      </trkpt>
      <trkpt lat="48.02757" lon="-0.49047">
        <ele>103</ele>
        <time>2023-10-07T12:09:23Z</time>
      </trkpt>
      <trkpt lat="48.02755" lon="-0.49044">
        <ele>102.6</ele>
        <time>2023-10-07T12:09:24Z</time>
      </trkpt>
      <trkpt lat="48.02753" lon="-0.49041">
        <ele>103.2</ele>
        <time>2023-10-07T12:09:25Z</time>
      </trkpt>
      <trkpt lat="48.02751" lon="-0.49039">
        <ele>103.2</ele>
        <time>2023-10-07T12:09:26Z</time>
      </trkpt>
      <trkpt lat="48.02749" lon="-0.49036">
        <ele>103.2</ele>
        <time>2023-10-07T12:09:27Z</time>
      </trkpt>
      <trkpt lat="48.02747" lon="-0.49034">
        <ele>103.2</ele>
        <time>2023-10-07T12:09:28Z</time>
      </trkpt>
      <trkpt lat="48.02745" lon="-0.49031">
        <ele>103</ele>
        <time>2023-10-07T12:09:29Z</time>
      </trkpt>
      <trkpt lat="48.02743" lon="-0.49028">
        <ele>103</ele>
        <time>2023-10-07T12:09:30Z</time>
      </trkpt>
      <trkpt lat="48.02741" lon="-0.49025">
        <ele>103</ele>
        <time>2023-10-07T12:09:31Z</time>
      </trkpt>
      <trkpt lat="48.02739" lon="-0.49022">
        <ele>103.8</ele>
        <time>2023-10-07T12:09:32Z</time>
      </trkpt>
      <trkpt lat="48.02736" lon="-0.49019">
        <ele>103.6</ele>
        <time>2023-10-07T12:09:33Z</time>
      </trkpt>
      <trkpt lat="48.02734" lon="-0.49016">
        <ele>103.6</ele>
        <time>2023-10-07T12:09:34Z</time>
      </trkpt>
      <trkpt lat="48.02732" lon="-0.49013">
        <ele>103.6</ele>
        <time>2023-10-07T12:09:35Z</time>
      </trkpt>
      <trkpt lat="48.0273" lon="-0.4901">
        <ele>104.4</ele>
        <time>2023-10-07T12:09:36Z</time>
      </trkpt>
      <trkpt lat="48.02728" lon="-0.49007">
        <ele>103.8</ele>
        <time>2023-10-07T12:09:37Z</time>
      </trkpt>
      <trkpt lat="48.02726" lon="-0.49004">
        <ele>103.8</ele>
        <time>2023-10-07T12:09:38Z</time>
      </trkpt>
      <trkpt lat="48.02723" lon="-0.49001">
        <ele>103.8</ele>
        <time>2023-10-07T12:09:39Z</time>
      </trkpt>
      <trkpt lat="48.02721" lon="-0.48997">
        <ele>104.2</ele>
        <time>2023-10-07T12:09:40Z</time>
      </trkpt>
      <trkpt lat="48.02719" lon="-0.48994">
        <ele>104.4</ele>
        <time>2023-10-07T12:09:41Z</time>
      </trkpt>
      <trkpt lat="48.02717" lon="-0.48991">
        <ele>104.4</ele>
        <time>2023-10-07T12:09:42Z</time>
      </trkpt>
      <trkpt lat="48.02715" lon="-0.48987">
        <ele>104.4</ele>
        <time>2023-10-07T12:09:43Z</time>
      </trkpt>
      <trkpt lat="48.02713" lon="-0.48983">
        <ele>103.8</ele>
        <time>2023-10-07T12:09:44Z</time>
      </trkpt>
      <trkpt lat="48.0271" lon="-0.48979">
        <ele>103</ele>
        <time>2023-10-07T12:09:45Z</time>
      </trkpt>
      <trkpt lat="48.02708" lon="-0.48976">
        <ele>103</ele>
        <time>2023-10-07T12:09:46Z</time>
      </trkpt>
      <trkpt lat="48.02706" lon="-0.48972">
        <ele>103</ele>
        <time>2023-10-07T12:09:47Z</time>
      </trkpt>
      <trkpt lat="48.02703" lon="-0.48967">
        <ele>104</ele>
        <time>2023-10-07T12:09:48Z</time>
      </trkpt>
      <trkpt lat="48.02701" lon="-0.48963">
        <ele>104.4</ele>
        <time>2023-10-07T12:09:49Z</time>
      </trkpt>
      <trkpt lat="48.02699" lon="-0.48959">
        <ele>104.4</ele>
        <time>2023-10-07T12:09:50Z</time>
      </trkpt>
      <trkpt lat="48.02696" lon="-0.48955">
        <ele>104.4</ele>
        <time>2023-10-07T12:09:51Z</time>
      </trkpt>
      <trkpt lat="48.02694" lon="-0.48951">
        <ele>105.4</ele>
        <time>2023-10-07T12:09:52Z</time>
      </trkpt>
      <trkpt lat="48.02691" lon="-0.48946">
        <ele>104.2</ele>
        <time>2023-10-07T12:09:53Z</time>
      </trkpt>
      <trkpt lat="48.02689" lon="-0.48942">
        <ele>104.2</ele>
        <time>2023-10-07T12:09:54Z</time>
      </trkpt>
      <trkpt lat="48.02686" lon="-0.48938">
        <ele>104.2</ele>
        <time>2023-10-07T12:09:55Z</time>
      </trkpt>
      <trkpt lat="48.02684" lon="-0.48934">
        <ele>105.2</ele>
        <time>2023-10-07T12:09:56Z</time>
      </trkpt>
      <trkpt lat="48.02682" lon="-0.48929">
        <ele>106</ele>
        <time>2023-10-07T12:09:57Z</time>
      </trkpt>
      <trkpt lat="48.02679" lon="-0.48925">
        <ele>106</ele>
        <time>2023-10-07T12:09:58Z</time>
      </trkpt>
      <trkpt lat="48.02676" lon="-0.48922">
        <ele>106</ele>
        <time>2023-10-07T12:09:59Z</time>
      </trkpt>
      <trkpt lat="48.02673" lon="-0.48919">
        <ele>105.4</ele>
        <time>2023-10-07T12:10:00Z</time>
      </trkpt>
      <trkpt lat="48.0267" lon="-0.48916">
        <ele>106</ele>
        <time>2023-10-07T12:10:01Z</time>
      </trkpt>
      <trkpt lat="48.02666" lon="-0.48915">
        <ele>106</ele>
        <time>2023-10-07T12:10:02Z</time>
      </trkpt>
      <trkpt lat="48.02662" lon="-0.48914">
        <ele>106</ele>
        <time>2023-10-07T12:10:03Z</time>
      </trkpt>
      <trkpt lat="48.02658" lon="-0.48913">
        <ele>106.2</ele>
        <time>2023-10-07T12:10:04Z</time>
      </trkpt>
      <trkpt lat="48.02654" lon="-0.48913">
        <ele>106.4</ele>
        <time>2023-10-07T12:10:05Z</time>
      </trkpt>
      <trkpt lat="48.0265" lon="-0.48914">
        <ele>106.4</ele>
        <time>2023-10-07T12:10:06Z</time>
      </trkpt>
      <trkpt lat="48.02646" lon="-0.48915">
        <ele>106.4</ele>
        <time>2023-10-07T12:10:07Z</time>
      </trkpt>
      <trkpt lat="48.02642" lon="-0.48916">
        <ele>106.8</ele>
        <time>2023-10-07T12:10:08Z</time>
      </trkpt>
      <trkpt lat="48.02639" lon="-0.48918">
        <ele>106.2</ele>
        <time>2023-10-07T12:10:09Z</time>
      </trkpt>
      <trkpt lat="48.02635" lon="-0.4892">
        <ele>106.2</ele>
        <time>2023-10-07T12:10:10Z</time>
      </trkpt>
      <trkpt lat="48.02632" lon="-0.48922">
        <ele>106.2</ele>
        <time>2023-10-07T12:10:11Z</time>
      </trkpt>
      <trkpt lat="48.02628" lon="-0.48924">
        <ele>107.2</ele>
        <time>2023-10-07T12:10:12Z</time>
      </trkpt>
      <trkpt lat="48.02625" lon="-0.48927">
        <ele>106.2</ele>
        <time>2023-10-07T12:10:13Z</time>
      </trkpt>
      <trkpt lat="48.02621" lon="-0.48929">
        <ele>106.2</ele>
        <time>2023-10-07T12:10:14Z</time>
      </trkpt>
      <trkpt lat="48.02618" lon="-0.48932">
        <ele>106.2</ele>
        <time>2023-10-07T12:10:15Z</time>
      </trkpt>
      <trkpt lat="48.02615" lon="-0.48935">
        <ele>106.8</ele>
        <time>2023-10-07T12:10:16Z</time>
      </trkpt>
      <trkpt lat="48.02612" lon="-0.48937">
        <ele>106.8</ele>
        <time>2023-10-07T12:10:17Z</time>
      </trkpt>
      <trkpt lat="48.02608" lon="-0.4894">
        <ele>106.8</ele>
        <time>2023-10-07T12:10:18Z</time>
      </trkpt>
      <trkpt lat="48.02605" lon="-0.48942">
        <ele>106.8</ele>
        <time>2023-10-07T12:10:19Z</time>
      </trkpt>
      <trkpt lat="48.02601" lon="-0.48945">
        <ele>107.2</ele>
        <time>2023-10-07T12:10:20Z</time>
      </trkpt>
      <trkpt lat="48.02598" lon="-0.48948">
        <ele>107</ele>
        <time>2023-10-07T12:10:21Z</time>
      </trkpt>
      <trkpt lat="48.02595" lon="-0.4895">
        <ele>107</ele>
        <time>2023-10-07T12:10:22Z</time>
      </trkpt>
      <trkpt lat="48.02591" lon="-0.48953">
        <ele>107</ele>
        <time>2023-10-07T12:10:23Z</time>
      </trkpt>
      <trkpt lat="48.02588" lon="-0.48955">
        <ele>107</ele>
        <time>2023-10-07T12:10:24Z</time>
      </trkpt>
      <trkpt lat="48.02584" lon="-0.48958">
        <ele>109.6</ele>
        <time>2023-10-07T12:10:25Z</time>
      </trkpt>
      <trkpt lat="48.02581" lon="-0.48961">
        <ele>109.6</ele>
        <time>2023-10-07T12:10:26Z</time>
      </trkpt>
      <trkpt lat="48.02578" lon="-0.48964">
        <ele>109.6</ele>
        <time>2023-10-07T12:10:27Z</time>
      </trkpt>
      <trkpt lat="48.02574" lon="-0.48967">
        <ele>108.6</ele>
        <time>2023-10-07T12:10:28Z</time>
      </trkpt>
      <trkpt lat="48.02571" lon="-0.4897">
        <ele>109</ele>
        <time>2023-10-07T12:10:29Z</time>
      </trkpt>
      <trkpt lat="48.02567" lon="-0.48972">
        <ele>109</ele>
        <time>2023-10-07T12:10:30Z</time>
      </trkpt>
      <trkpt lat="48.02564" lon="-0.48975">
        <ele>109</ele>
        <time>2023-10-07T12:10:31Z</time>
      </trkpt>
      <trkpt lat="48.02561" lon="-0.48978">
        <ele>109</ele>
        <time>2023-10-07T12:10:32Z</time>
      </trkpt>
      <trkpt lat="48.02558" lon="-0.4898">
        <ele>109.4</ele>
        <time>2023-10-07T12:10:33Z</time>
      </trkpt>
      <trkpt lat="48.02555" lon="-0.48983">
        <ele>109.4</ele>
        <time>2023-10-07T12:10:34Z</time>
      </trkpt>
      <trkpt lat="48.02551" lon="-0.48986">
        <ele>109.4</ele>
        <time>2023-10-07T12:10:35Z</time>
      </trkpt>
      <trkpt lat="48.02548" lon="-0.48989">
        <ele>109.4</ele>
        <time>2023-10-07T12:10:36Z</time>
      </trkpt>
      <trkpt lat="48.02545" lon="-0.48992">
        <ele>109</ele>
        <time>2023-10-07T12:10:37Z</time>
      </trkpt>
      <trkpt lat="48.02542" lon="-0.48995">
        <ele>109</ele>
        <time>2023-10-07T12:10:38Z</time>
      </trkpt>
      <trkpt lat="48.02539" lon="-0.48998">
        <ele>109</ele>
        <time>2023-10-07T12:10:39Z</time>
      </trkpt>
      <trkpt lat="48.02535" lon="-0.49001">
        <ele>109</ele>
        <time>2023-10-07T12:10:40Z</time>
      </trkpt>
      <trkpt lat="48.02532" lon="-0.49004">
        <ele>109.4</ele>
        <time>2023-10-07T12:10:41Z</time>
      </trkpt>
      <trkpt lat="48.02528" lon="-0.49007">
        <ele>109.4</ele>
        <time>2023-10-07T12:10:42Z</time>
      </trkpt>
      <trkpt lat="48.02525" lon="-0.4901">
        <ele>109.4</ele>
        <time>2023-10-07T12:10:43Z</time>
      </trkpt>
      <trkpt lat="48.02521" lon="-0.49013">
        <ele>109.4</ele>
        <time>2023-10-07T12:10:44Z</time>
      </trkpt>
      <trkpt lat="48.02517" lon="-0.49017">
        <ele>109.2</ele>
        <time>2023-10-07T12:10:45Z</time>
      </trkpt>
      <trkpt lat="48.02514" lon="-0.4902">
        <ele>109.2</ele>
        <time>2023-10-07T12:10:46Z</time>
      </trkpt>
      <trkpt lat="48.0251" lon="-0.49023">
        <ele>109.2</ele>
        <time>2023-10-07T12:10:47Z</time>
      </trkpt>
      <trkpt lat="48.02506" lon="-0.49025">
        <ele>109.2</ele>
        <time>2023-10-07T12:10:48Z</time>
      </trkpt>
      <trkpt lat="48.02502" lon="-0.49028">
        <ele>108.4</ele>
        <time>2023-10-07T12:10:49Z</time>
      </trkpt>
      <trkpt lat="48.02499" lon="-0.4903">
        <ele>108.4</ele>
        <time>2023-10-07T12:10:50Z</time>
      </trkpt>
      <trkpt lat="48.02495" lon="-0.49032">
        <ele>108.4</ele>
        <time>2023-10-07T12:10:51Z</time>
      </trkpt>
      <trkpt lat="48.02491" lon="-0.49034">
        <ele>108.4</ele>
        <time>2023-10-07T12:10:52Z</time>
      </trkpt>
      <trkpt lat="48.02487" lon="-0.49036">
        <ele>110.2</ele>
        <time>2023-10-07T12:10:53Z</time>
      </trkpt>
      <trkpt lat="48.02483" lon="-0.49038">
        <ele>110.2</ele>
        <time>2023-10-07T12:10:54Z</time>
      </trkpt>
      <trkpt lat="48.02479" lon="-0.4904">
        <ele>110.2</ele>
        <time>2023-10-07T12:10:55Z</time>
      </trkpt>
      <trkpt lat="48.02475" lon="-0.49041">
        <ele>110.6</ele>
        <time>2023-10-07T12:10:56Z</time>
      </trkpt>
      <trkpt lat="48.02471" lon="-0.49042">
        <ele>111.6</ele>
        <time>2023-10-07T12:10:57Z</time>
      </trkpt>
      <trkpt lat="48.02467" lon="-0.49043">
        <ele>111.6</ele>
        <time>2023-10-07T12:10:58Z</time>
      </trkpt>
      <trkpt lat="48.02464" lon="-0.49044">
        <ele>111.6</ele>
        <time>2023-10-07T12:10:59Z</time>
      </trkpt>
      <trkpt lat="48.0246" lon="-0.49045">
        <ele>111.6</ele>
        <time>2023-10-07T12:11:00Z</time>
      </trkpt>
      <trkpt lat="48.02456" lon="-0.49046">
        <ele>112</ele>
        <time>2023-10-07T12:11:01Z</time>
      </trkpt>
      <trkpt lat="48.02452" lon="-0.49048">
        <ele>112</ele>
        <time>2023-10-07T12:11:02Z</time>
      </trkpt>
      <trkpt lat="48.02448" lon="-0.49049">
        <ele>112</ele>
        <time>2023-10-07T12:11:03Z</time>
      </trkpt>
      <trkpt lat="48.02444" lon="-0.49049">
        <ele>111</ele>
        <time>2023-10-07T12:11:04Z</time>
      </trkpt>
      <trkpt lat="48.0244" lon="-0.4905">
        <ele>110.8</ele>
        <time>2023-10-07T12:11:05Z</time>
      </trkpt>
      <trkpt lat="48.02436" lon="-0.49051">
        <ele>110.8</ele>
        <time>2023-10-07T12:11:06Z</time>
      </trkpt>
      <trkpt lat="48.02432" lon="-0.49051">
        <ele>110.8</ele>
        <time>2023-10-07T12:11:07Z</time>
      </trkpt>
      <trkpt lat="48.02428" lon="-0.49052">
        <ele>110.8</ele>
        <time>2023-10-07T12:11:08Z</time>
      </trkpt>
      <trkpt lat="48.02424" lon="-0.49053">
        <ele>111.2</ele>
        <time>2023-10-07T12:11:09Z</time>
      </trkpt>
      <trkpt lat="48.0242" lon="-0.49054">
        <ele>111.2</ele>
        <time>2023-10-07T12:11:10Z</time>
      </trkpt>
      <trkpt lat="48.02416" lon="-0.49055">
        <ele>111.2</ele>
        <time>2023-10-07T12:11:11Z</time>
      </trkpt>
      <trkpt lat="48.02412" lon="-0.49055">
        <ele>111.2</ele>
        <time>2023-10-07T12:11:12Z</time>
      </trkpt>
      <trkpt lat="48.02408" lon="-0.49056">
        <ele>111</ele>
        <time>2023-10-07T12:11:13Z</time>
      </trkpt>
      <trkpt lat="48.02404" lon="-0.49056">
        <ele>111</ele>
        <time>2023-10-07T12:11:14Z</time>
      </trkpt>
      <trkpt lat="48.024" lon="-0.49057">
        <ele>111</ele>
        <time>2023-10-07T12:11:15Z</time>
      </trkpt>
      <trkpt lat="48.02395" lon="-0.49057">
        <ele>111.4</ele>
        <time>2023-10-07T12:11:16Z</time>
      </trkpt>
      <trkpt lat="48.02391" lon="-0.49057">
        <ele>112.2</ele>
        <time>2023-10-07T12:11:17Z</time>
      </trkpt>
      <trkpt lat="48.02386" lon="-0.49058">
        <ele>112.2</ele>
        <time>2023-10-07T12:11:18Z</time>
      </trkpt>
      <trkpt lat="48.02382" lon="-0.49058">
        <ele>112.2</ele>
        <time>2023-10-07T12:11:19Z</time>
      </trkpt>
      <trkpt lat="48.02377" lon="-0.49058">
        <ele>112.2</ele>
        <time>2023-10-07T12:11:20Z</time>
      </trkpt>
      <trkpt lat="48.02373" lon="-0.49058">
        <ele>110.6</ele>
        <time>2023-10-07T12:11:21Z</time>
      </trkpt>
      <trkpt lat="48.02368" lon="-0.49059">
        <ele>110.6</ele>
        <time>2023-10-07T12:11:22Z</time>
      </trkpt>
      <trkpt lat="48.02363" lon="-0.49058">
        <ele>110.6</ele>
        <time>2023-10-07T12:11:23Z</time>
      </trkpt>
      <trkpt lat="48.02358" lon="-0.49058">
        <ele>110.6</ele>
        <time>2023-10-07T12:11:24Z</time>
      </trkpt>
      <trkpt lat="48.02353" lon="-0.49058">
        <ele>109.2</ele>
        <time>2023-10-07T12:11:25Z</time>
      </trkpt>
      <trkpt lat="48.02348" lon="-0.49057">
        <ele>109.2</ele>
        <time>2023-10-07T12:11:26Z</time>
      </trkpt>
      <trkpt lat="48.02342" lon="-0.49057">
        <ele>109.2</ele>
        <time>2023-10-07T12:11:27Z</time>
      </trkpt>
      <trkpt lat="48.02337" lon="-0.49056">
        <ele>109.4</ele>
        <time>2023-10-07T12:11:28Z</time>
      </trkpt>
      <trkpt lat="48.02332" lon="-0.49056">
        <ele>108.4</ele>
        <time>2023-10-07T12:11:29Z</time>
      </trkpt>
      <trkpt lat="48.02327" lon="-0.49055">
        <ele>108.4</ele>
        <time>2023-10-07T12:11:30Z</time>
      </trkpt>
      <trkpt lat="48.02322" lon="-0.49055">
        <ele>108.4</ele>
        <time>2023-10-07T12:11:31Z</time>
      </trkpt>
      <trkpt lat="48.02317" lon="-0.49055">
        <ele>109.2</ele>
        <time>2023-10-07T12:11:32Z</time>
      </trkpt>
      <trkpt lat="48.02312" lon="-0.49054">
        <ele>109.6</ele>
        <time>2023-10-07T12:11:33Z</time>
      </trkpt>
      <trkpt lat="48.02307" lon="-0.49053">
        <ele>109.6</ele>
        <time>2023-10-07T12:11:34Z</time>
      </trkpt>
      <trkpt lat="48.02302" lon="-0.49051">
        <ele>109.6</ele>
        <time>2023-10-07T12:11:35Z</time>
      </trkpt>
      <trkpt lat="48.02298" lon="-0.49048">
        <ele>109.6</ele>
        <time>2023-10-07T12:11:36Z</time>
      </trkpt>
      <trkpt lat="48.02293" lon="-0.49045">
        <ele>110.6</ele>
        <time>2023-10-07T12:11:37Z</time>
      </trkpt>
      <trkpt lat="48.02288" lon="-0.49042">
        <ele>110.6</ele>
        <time>2023-10-07T12:11:38Z</time>
      </trkpt>
      <trkpt lat="48.02283" lon="-0.49038">
        <ele>110.6</ele>
        <time>2023-10-07T12:11:39Z</time>
      </trkpt>
      <trkpt lat="48.02278" lon="-0.49035">
        <ele>110</ele>
        <time>2023-10-07T12:11:40Z</time>
      </trkpt>
      <trkpt lat="48.02273" lon="-0.49032">
        <ele>109.8</ele>
        <time>2023-10-07T12:11:41Z</time>
      </trkpt>
      <trkpt lat="48.02268" lon="-0.49029">
        <ele>109.8</ele>
        <time>2023-10-07T12:11:42Z</time>
      </trkpt>
      <trkpt lat="48.02264" lon="-0.49026">
        <ele>109.8</ele>
        <time>2023-10-07T12:11:43Z</time>
      </trkpt>
      <trkpt lat="48.02259" lon="-0.49024">
        <ele>109.8</ele>
        <time>2023-10-07T12:11:44Z</time>
      </trkpt>
      <trkpt lat="48.02254" lon="-0.49022">
        <ele>110.6</ele>
        <time>2023-10-07T12:11:45Z</time>
      </trkpt>
      <trkpt lat="48.0225" lon="-0.4902">
        <ele>110.6</ele>
        <time>2023-10-07T12:11:46Z</time>
      </trkpt>
      <trkpt lat="48.02246" lon="-0.49017">
        <ele>110.6</ele>
        <time>2023-10-07T12:11:47Z</time>
      </trkpt>
      <trkpt lat="48.02241" lon="-0.49014">
        <ele>110.6</ele>
        <time>2023-10-07T12:11:48Z</time>
      </trkpt>
      <trkpt lat="48.02236" lon="-0.49012">
        <ele>110.6</ele>
        <time>2023-10-07T12:11:49Z</time>
      </trkpt>
      <trkpt lat="48.02232" lon="-0.4901">
        <ele>110.6</ele>
        <time>2023-10-07T12:11:50Z</time>
      </trkpt>
      <trkpt lat="48.02228" lon="-0.49008">
        <ele>110.6</ele>
        <time>2023-10-07T12:11:51Z</time>
      </trkpt>
      <trkpt lat="48.02223" lon="-0.49007">
        <ele>111.6</ele>
        <time>2023-10-07T12:11:52Z</time>
      </trkpt>
      <trkpt lat="48.02219" lon="-0.49005">
        <ele>109.8</ele>
        <time>2023-10-07T12:11:53Z</time>
      </trkpt>
      <trkpt lat="48.02214" lon="-0.49003">
        <ele>109.8</ele>
        <time>2023-10-07T12:11:54Z</time>
      </trkpt>
      <trkpt lat="48.0221" lon="-0.49002">
        <ele>109.8</ele>
        <time>2023-10-07T12:11:55Z</time>
      </trkpt>
      <trkpt lat="48.02206" lon="-0.49">
        <ele>110.8</ele>
        <time>2023-10-07T12:11:56Z</time>
      </trkpt>
      <trkpt lat="48.02201" lon="-0.48998">
        <ele>112.2</ele>
        <time>2023-10-07T12:11:57Z</time>
      </trkpt>
      <trkpt lat="48.02196" lon="-0.48997">
        <ele>112.2</ele>
        <time>2023-10-07T12:11:58Z</time>
      </trkpt>
      <trkpt lat="48.02192" lon="-0.48996">
        <ele>112.2</ele>
        <time>2023-10-07T12:11:59Z</time>
      </trkpt>
      <trkpt lat="48.02188" lon="-0.48995">
        <ele>112.2</ele>
        <time>2023-10-07T12:12:00Z</time>
      </trkpt>
      <trkpt lat="48.02183" lon="-0.48994">
        <ele>111.8</ele>
        <time>2023-10-07T12:12:01Z</time>
      </trkpt>
      <trkpt lat="48.02179" lon="-0.48993">
        <ele>111.8</ele>
        <time>2023-10-07T12:12:02Z</time>
      </trkpt>
      <trkpt lat="48.02176" lon="-0.48991">
        <ele>111.8</ele>
        <time>2023-10-07T12:12:03Z</time>
      </trkpt>
      <trkpt lat="48.02172" lon="-0.48991">
        <ele>112.8</ele>
        <time>2023-10-07T12:12:04Z</time>
      </trkpt>
      <trkpt lat="48.02168" lon="-0.4899">
        <ele>112.6</ele>
        <time>2023-10-07T12:12:05Z</time>
      </trkpt>
      <trkpt lat="48.02165" lon="-0.48989">
        <ele>112.6</ele>
        <time>2023-10-07T12:12:06Z</time>
      </trkpt>
      <trkpt lat="48.02161" lon="-0.48989">
        <ele>112.6</ele>
        <time>2023-10-07T12:12:07Z</time>
      </trkpt>
      <trkpt lat="48.02157" lon="-0.48988">
        <ele>112.6</ele>
        <time>2023-10-07T12:12:08Z</time>
      </trkpt>
      <trkpt lat="48.02154" lon="-0.48989">
        <ele>112.8</ele>
        <time>2023-10-07T12:12:09Z</time>
      </trkpt>
      <trkpt lat="48.02151" lon="-0.48989">
        <ele>112.8</ele>
        <time>2023-10-07T12:12:10Z</time>
      </trkpt>
      <trkpt lat="48.02147" lon="-0.4899">
        <ele>112.8</ele>
        <time>2023-10-07T12:12:11Z</time>
      </trkpt>
      <trkpt lat="48.02143" lon="-0.4899">
        <ele>113.4</ele>
        <time>2023-10-07T12:12:12Z</time>
      </trkpt>
      <trkpt lat="48.02139" lon="-0.48991">
        <ele>113.6</ele>
        <time>2023-10-07T12:12:13Z</time>
      </trkpt>
      <trkpt lat="48.02135" lon="-0.48992">
        <ele>113.6</ele>
        <time>2023-10-07T12:12:14Z</time>
      </trkpt>
      <trkpt lat="48.02131" lon="-0.48993">
        <ele>113.6</ele>
        <time>2023-10-07T12:12:15Z</time>
      </trkpt>
      <trkpt lat="48.02126" lon="-0.48994">
        <ele>113.6</ele>
        <time>2023-10-07T12:12:16Z</time>
      </trkpt>
      <trkpt lat="48.02122" lon="-0.48996">
        <ele>113.4</ele>
        <time>2023-10-07T12:12:17Z</time>
      </trkpt>
      <trkpt lat="48.02118" lon="-0.48997">
        <ele>113.4</ele>
        <time>2023-10-07T12:12:18Z</time>
      </trkpt>
      <trkpt lat="48.02114" lon="-0.48998">
        <ele>113.4</ele>
        <time>2023-10-07T12:12:19Z</time>
      </trkpt>
      <trkpt lat="48.0211" lon="-0.48995">
        <ele>113.4</ele>
        <time>2023-10-07T12:12:20Z</time>
      </trkpt>
      <trkpt lat="48.02107" lon="-0.48991">
        <ele>113.8</ele>
        <time>2023-10-07T12:12:21Z</time>
      </trkpt>
      <trkpt lat="48.02105" lon="-0.48985">
        <ele>113.8</ele>
        <time>2023-10-07T12:12:22Z</time>
      </trkpt>
      <trkpt lat="48.02104" lon="-0.48978">
        <ele>113.8</ele>
        <time>2023-10-07T12:12:23Z</time>
      </trkpt>
      <trkpt lat="48.02102" lon="-0.48972">
        <ele>112.8</ele>
        <time>2023-10-07T12:12:24Z</time>
      </trkpt>
      <trkpt lat="48.021" lon="-0.48966">
        <ele>113.4</ele>
        <time>2023-10-07T12:12:25Z</time>
      </trkpt>
      <trkpt lat="48.02098" lon="-0.4896">
        <ele>113.4</ele>
        <time>2023-10-07T12:12:26Z</time>
      </trkpt>
      <trkpt lat="48.02096" lon="-0.48955">
        <ele>113.4</ele>
        <time>2023-10-07T12:12:27Z</time>
      </trkpt>
      <trkpt lat="48.02092" lon="-0.4895">
        <ele>112.4</ele>
        <time>2023-10-07T12:12:28Z</time>
      </trkpt>
      <trkpt lat="48.02088" lon="-0.48946">
        <ele>111.8</ele>
        <time>2023-10-07T12:12:29Z</time>
      </trkpt>
      <trkpt lat="48.02084" lon="-0.48942">
        <ele>111.8</ele>
        <time>2023-10-07T12:12:30Z</time>
      </trkpt>
      <trkpt lat="48.02079" lon="-0.48939">
        <ele>111.8</ele>
        <time>2023-10-07T12:12:31Z</time>
      </trkpt>
      <trkpt lat="48.02075" lon="-0.48937">
        <ele>111.4</ele>
        <time>2023-10-07T12:12:32Z</time>
      </trkpt>
      <trkpt lat="48.0207" lon="-0.48935">
        <ele>111.4</ele>
        <time>2023-10-07T12:12:33Z</time>
      </trkpt>
      <trkpt lat="48.02065" lon="-0.48934">
        <ele>111.4</ele>
        <time>2023-10-07T12:12:34Z</time>
      </trkpt>
      <trkpt lat="48.02061" lon="-0.48933">
        <ele>111.4</ele>
        <time>2023-10-07T12:12:35Z</time>
      </trkpt>
      <trkpt lat="48.02056" lon="-0.4893">
        <ele>111.4</ele>
        <time>2023-10-07T12:12:36Z</time>
      </trkpt>
      <trkpt lat="48.02052" lon="-0.48925">
        <ele>110.4</ele>
        <time>2023-10-07T12:12:37Z</time>
      </trkpt>
      <trkpt lat="48.02048" lon="-0.48921">
        <ele>110.4</ele>
        <time>2023-10-07T12:12:38Z</time>
      </trkpt>
      <trkpt lat="48.02044" lon="-0.48916">
        <ele>110.4</ele>
        <time>2023-10-07T12:12:39Z</time>
      </trkpt>
      <trkpt lat="48.02039" lon="-0.48912">
        <ele>110.4</ele>
        <time>2023-10-07T12:12:40Z</time>
      </trkpt>
      <trkpt lat="48.02035" lon="-0.48908">
        <ele>109.8</ele>
        <time>2023-10-07T12:12:41Z</time>
      </trkpt>
      <trkpt lat="48.0203" lon="-0.48903">
        <ele>109.8</ele>
        <time>2023-10-07T12:12:42Z</time>
      </trkpt>
      <trkpt lat="48.02026" lon="-0.48898">
        <ele>109.8</ele>
        <time>2023-10-07T12:12:43Z</time>
      </trkpt>
      <trkpt lat="48.02021" lon="-0.48893">
        <ele>108.8</ele>
        <time>2023-10-07T12:12:44Z</time>
      </trkpt>
      <trkpt lat="48.02016" lon="-0.48887">
        <ele>108</ele>
        <time>2023-10-07T12:12:45Z</time>
      </trkpt>
      <trkpt lat="48.02011" lon="-0.48882">
        <ele>108</ele>
        <time>2023-10-07T12:12:46Z</time>
      </trkpt>
      <trkpt lat="48.02006" lon="-0.48876">
        <ele>108</ele>
        <time>2023-10-07T12:12:47Z</time>
      </trkpt>
      <trkpt lat="48.02002" lon="-0.4887">
        <ele>107.6</ele>
        <time>2023-10-07T12:12:48Z</time>
      </trkpt>
      <trkpt lat="48.01997" lon="-0.48863">
        <ele>107.8</ele>
        <time>2023-10-07T12:12:49Z</time>
      </trkpt>
      <trkpt lat="48.01993" lon="-0.48856">
        <ele>107.8</ele>
        <time>2023-10-07T12:12:50Z</time>
      </trkpt>
      <trkpt lat="48.01989" lon="-0.48848">
        <ele>107.8</ele>
        <time>2023-10-07T12:12:51Z</time>
      </trkpt>
      <trkpt lat="48.01985" lon="-0.4884">
        <ele>106.8</ele>
        <time>2023-10-07T12:12:52Z</time>
      </trkpt>
      <trkpt lat="48.01981" lon="-0.48832">
        <ele>103.8</ele>
        <time>2023-10-07T12:12:53Z</time>
      </trkpt>
      <trkpt lat="48.01978" lon="-0.48824">
        <ele>103.8</ele>
        <time>2023-10-07T12:12:54Z</time>
      </trkpt>
      <trkpt lat="48.01974" lon="-0.48815">
        <ele>103.8</ele>
        <time>2023-10-07T12:12:55Z</time>
      </trkpt>
      <trkpt lat="48.01971" lon="-0.48806">
        <ele>103.8</ele>
        <time>2023-10-07T12:12:56Z</time>
      </trkpt>
      <trkpt lat="48.01969" lon="-0.48796">
        <ele>105.8</ele>
        <time>2023-10-07T12:12:57Z</time>
      </trkpt>
      <trkpt lat="48.01967" lon="-0.48786">
        <ele>105.8</ele>
        <time>2023-10-07T12:12:58Z</time>
      </trkpt>
      <trkpt lat="48.01965" lon="-0.48776">
        <ele>105.8</ele>
        <time>2023-10-07T12:12:59Z</time>
      </trkpt>
      <trkpt lat="48.01965" lon="-0.48767">
        <ele>104.8</ele>
        <time>2023-10-07T12:13:00Z</time>
      </trkpt>
      <trkpt lat="48.01964" lon="-0.48758">
        <ele>103.2</ele>
        <time>2023-10-07T12:13:01Z</time>
      </trkpt>
      <trkpt lat="48.01964" lon="-0.4875">
        <ele>103.2</ele>
        <time>2023-10-07T12:13:02Z</time>
      </trkpt>
      <trkpt lat="48.01964" lon="-0.48743">
        <ele>103.2</ele>
        <time>2023-10-07T12:13:03Z</time>
      </trkpt>
      <trkpt lat="48.01964" lon="-0.48736">
        <ele>103.2</ele>
        <time>2023-10-07T12:13:04Z</time>
      </trkpt>
      <trkpt lat="48.01963" lon="-0.48731">
        <ele>104.2</ele>
        <time>2023-10-07T12:13:05Z</time>
      </trkpt>
      <trkpt lat="48.01961" lon="-0.4873">
        <ele>104.2</ele>
        <time>2023-10-07T12:13:06Z</time>
      </trkpt>
      <trkpt lat="48.01958" lon="-0.48731">
        <ele>104.2</ele>
        <time>2023-10-07T12:13:07Z</time>
      </trkpt>
      <trkpt lat="48.01956" lon="-0.48734">
        <ele>104.2</ele>
        <time>2023-10-07T12:13:08Z</time>
      </trkpt>
      <trkpt lat="48.01954" lon="-0.48738">
        <ele>103.6</ele>
        <time>2023-10-07T12:13:09Z</time>
      </trkpt>
      <trkpt lat="48.01951" lon="-0.48742">
        <ele>103.6</ele>
        <time>2023-10-07T12:13:10Z</time>
      </trkpt>
      <trkpt lat="48.01948" lon="-0.48746">
        <ele>103.6</ele>
        <time>2023-10-07T12:13:11Z</time>
      </trkpt>
      <trkpt lat="48.01944" lon="-0.4875">
        <ele>103</ele>
        <time>2023-10-07T12:13:12Z</time>
      </trkpt>
      <trkpt lat="48.01941" lon="-0.48754">
        <ele>102.8</ele>
        <time>2023-10-07T12:13:13Z</time>
      </trkpt>
      <trkpt lat="48.01937" lon="-0.48759">
        <ele>102.8</ele>
        <time>2023-10-07T12:13:14Z</time>
      </trkpt>
      <trkpt lat="48.01933" lon="-0.48763">
        <ele>102.8</ele>
        <time>2023-10-07T12:13:15Z</time>
      </trkpt>
      <trkpt lat="48.01929" lon="-0.48768">
        <ele>102.2</ele>
        <time>2023-10-07T12:13:16Z</time>
      </trkpt>
      <trkpt lat="48.01925" lon="-0.48773">
        <ele>102.2</ele>
        <time>2023-10-07T12:13:17Z</time>
      </trkpt>
      <trkpt lat="48.01921" lon="-0.48778">
        <ele>102.2</ele>
        <time>2023-10-07T12:13:18Z</time>
      </trkpt>
      <trkpt lat="48.01916" lon="-0.48783">
        <ele>102.2</ele>
        <time>2023-10-07T12:13:19Z</time>
      </trkpt>
      <trkpt lat="48.01912" lon="-0.48788">
        <ele>102.2</ele>
        <time>2023-10-07T12:13:20Z</time>
      </trkpt>
      <trkpt lat="48.01908" lon="-0.48793">
        <ele>102.2</ele>
        <time>2023-10-07T12:13:21Z</time>
      </trkpt>
      <trkpt lat="48.01903" lon="-0.48798">
        <ele>102.2</ele>
        <time>2023-10-07T12:13:22Z</time>
      </trkpt>
      <trkpt lat="48.01899" lon="-0.48803">
        <ele>102.2</ele>
        <time>2023-10-07T12:13:23Z</time>
      </trkpt>
      <trkpt lat="48.01895" lon="-0.48808">
        <ele>101.4</ele>
        <time>2023-10-07T12:13:24Z</time>
      </trkpt>
      <trkpt lat="48.01891" lon="-0.48812">
        <ele>101.2</ele>
        <time>2023-10-07T12:13:25Z</time>
      </trkpt>
      <trkpt lat="48.01886" lon="-0.48817">
        <ele>101.2</ele>
        <time>2023-10-07T12:13:26Z</time>
      </trkpt>
      <trkpt lat="48.01882" lon="-0.48822">
        <ele>101.2</ele>
        <time>2023-10-07T12:13:27Z</time>
      </trkpt>
      <trkpt lat="48.01877" lon="-0.48828">
        <ele>101.2</ele>
        <time>2023-10-07T12:13:28Z</time>
      </trkpt>
      <trkpt lat="48.01873" lon="-0.48833">
        <ele>100.8</ele>
        <time>2023-10-07T12:13:29Z</time>
      </trkpt>
      <trkpt lat="48.01869" lon="-0.48838">
        <ele>100.8</ele>
        <time>2023-10-07T12:13:30Z</time>
      </trkpt>
      <trkpt lat="48.01864" lon="-0.48843">
        <ele>100.8</ele>
        <time>2023-10-07T12:13:31Z</time>
      </trkpt>
      <trkpt lat="48.01859" lon="-0.48848">
        <ele>100.8</ele>
        <time>2023-10-07T12:13:32Z</time>
      </trkpt>
      <trkpt lat="48.01855" lon="-0.48854">
        <ele>101.2</ele>
        <time>2023-10-07T12:13:33Z</time>
      </trkpt>
      <trkpt lat="48.01851" lon="-0.48859">
        <ele>101.2</ele>
        <time>2023-10-07T12:13:34Z</time>
      </trkpt>
      <trkpt lat="48.01846" lon="-0.48864">
        <ele>101.2</ele>
        <time>2023-10-07T12:13:35Z</time>
      </trkpt>
      <trkpt lat="48.01842" lon="-0.4887">
        <ele>100.6</ele>
        <time>2023-10-07T12:13:36Z</time>
      </trkpt>
      <trkpt lat="48.01837" lon="-0.48875">
        <ele>100.6</ele>
        <time>2023-10-07T12:13:37Z</time>
      </trkpt>
      <trkpt lat="48.01832" lon="-0.48881">
        <ele>100.6</ele>
        <time>2023-10-07T12:13:38Z</time>
      </trkpt>
      <trkpt lat="48.01828" lon="-0.48887">
        <ele>100.6</ele>
        <time>2023-10-07T12:13:39Z</time>
      </trkpt>
      <trkpt lat="48.01823" lon="-0.48892">
        <ele>99.6</ele>
        <time>2023-10-07T12:13:40Z</time>
      </trkpt>
      <trkpt lat="48.01818" lon="-0.48898">
        <ele>99.8</ele>
        <time>2023-10-07T12:13:41Z</time>
      </trkpt>
      <trkpt lat="48.01813" lon="-0.48904">
        <ele>99.8</ele>
        <time>2023-10-07T12:13:42Z</time>
      </trkpt>
      <trkpt lat="48.01808" lon="-0.48909">
        <ele>99.8</ele>
        <time>2023-10-07T12:13:43Z</time>
      </trkpt>
      <trkpt lat="48.01803" lon="-0.48915">
        <ele>98.8</ele>
        <time>2023-10-07T12:13:44Z</time>
      </trkpt>
      <trkpt lat="48.01798" lon="-0.48922">
        <ele>98.2</ele>
        <time>2023-10-07T12:13:45Z</time>
      </trkpt>
      <trkpt lat="48.01793" lon="-0.48928">
        <ele>98.2</ele>
        <time>2023-10-07T12:13:46Z</time>
      </trkpt>
      <trkpt lat="48.01788" lon="-0.48934">
        <ele>98.2</ele>
        <time>2023-10-07T12:13:47Z</time>
      </trkpt>
      <trkpt lat="48.01783" lon="-0.4894">
        <ele>98</ele>
        <time>2023-10-07T12:13:48Z</time>
      </trkpt>
      <trkpt lat="48.01778" lon="-0.48946">
        <ele>98</ele>
        <time>2023-10-07T12:13:49Z</time>
      </trkpt>
      <trkpt lat="48.01773" lon="-0.48952">
        <ele>98</ele>
        <time>2023-10-07T12:13:50Z</time>
      </trkpt>
      <trkpt lat="48.01768" lon="-0.48958">
        <ele>98</ele>
        <time>2023-10-07T12:13:51Z</time>
      </trkpt>
      <trkpt lat="48.01763" lon="-0.48964">
        <ele>98</ele>
        <time>2023-10-07T12:13:52Z</time>
      </trkpt>
      <trkpt lat="48.01757" lon="-0.4897">
        <ele>98.2</ele>
        <time>2023-10-07T12:13:53Z</time>
      </trkpt>
      <trkpt lat="48.01752" lon="-0.48976">
        <ele>98.2</ele>
        <time>2023-10-07T12:13:54Z</time>
      </trkpt>
      <trkpt lat="48.01747" lon="-0.48982">
        <ele>98.2</ele>
        <time>2023-10-07T12:13:55Z</time>
      </trkpt>
      <trkpt lat="48.01742" lon="-0.48988">
        <ele>98.2</ele>
        <time>2023-10-07T12:13:56Z</time>
      </trkpt>
      <trkpt lat="48.01736" lon="-0.48993">
        <ele>98.2</ele>
        <time>2023-10-07T12:13:57Z</time>
      </trkpt>
      <trkpt lat="48.0173" lon="-0.48998">
        <ele>98.2</ele>
        <time>2023-10-07T12:13:58Z</time>
      </trkpt>
      <trkpt lat="48.01724" lon="-0.49003">
        <ele>98.2</ele>
        <time>2023-10-07T12:13:59Z</time>
      </trkpt>
      <trkpt lat="48.01718" lon="-0.49006">
        <ele>97.4</ele>
        <time>2023-10-07T12:14:00Z</time>
      </trkpt>
      <trkpt lat="48.01711" lon="-0.49009">
        <ele>98.2</ele>
        <time>2023-10-07T12:14:01Z</time>
      </trkpt>
      <trkpt lat="48.01705" lon="-0.49011">
        <ele>98.2</ele>
        <time>2023-10-07T12:14:02Z</time>
      </trkpt>
      <trkpt lat="48.01698" lon="-0.49012">
        <ele>98.2</ele>
        <time>2023-10-07T12:14:03Z</time>
      </trkpt>
      <trkpt lat="48.01691" lon="-0.49012">
        <ele>98.2</ele>
        <time>2023-10-07T12:14:04Z</time>
      </trkpt>
      <trkpt lat="48.01685" lon="-0.49011">
        <ele>98</ele>
        <time>2023-10-07T12:14:05Z</time>
      </trkpt>
      <trkpt lat="48.01679" lon="-0.49011">
        <ele>98</ele>
        <time>2023-10-07T12:14:06Z</time>
      </trkpt>
      <trkpt lat="48.01672" lon="-0.4901">
        <ele>98</ele>
        <time>2023-10-07T12:14:07Z</time>
      </trkpt>
      <trkpt lat="48.01666" lon="-0.4901">
        <ele>98</ele>
        <time>2023-10-07T12:14:08Z</time>
      </trkpt>
      <trkpt lat="48.01661" lon="-0.49009">
        <ele>100.2</ele>
        <time>2023-10-07T12:14:09Z</time>
      </trkpt>
      <trkpt lat="48.01655" lon="-0.49008">
        <ele>100.2</ele>
        <time>2023-10-07T12:14:10Z</time>
      </trkpt>
      <trkpt lat="48.01649" lon="-0.49007">
        <ele>100.2</ele>
        <time>2023-10-07T12:14:11Z</time>
      </trkpt>
      <trkpt lat="48.01644" lon="-0.49007">
        <ele>100.2</ele>
        <time>2023-10-07T12:14:12Z</time>
      </trkpt>
      <trkpt lat="48.01639" lon="-0.49006">
        <ele>99.8</ele>
        <time>2023-10-07T12:14:13Z</time>
      </trkpt>
      <trkpt lat="48.01634" lon="-0.49006">
        <ele>99.8</ele>
        <time>2023-10-07T12:14:14Z</time>
      </trkpt>
      <trkpt lat="48.01629" lon="-0.49005">
        <ele>99.8</ele>
        <time>2023-10-07T12:14:15Z</time>
      </trkpt>
      <trkpt lat="48.01624" lon="-0.49004">
        <ele>100.8</ele>
        <time>2023-10-07T12:14:16Z</time>
      </trkpt>
      <trkpt lat="48.0162" lon="-0.49003">
        <ele>101.2</ele>
        <time>2023-10-07T12:14:17Z</time>
      </trkpt>
      <trkpt lat="48.01616" lon="-0.49002">
        <ele>101.2</ele>
        <time>2023-10-07T12:14:18Z</time>
      </trkpt>
      <trkpt lat="48.01611" lon="-0.49002">
        <ele>101.2</ele>
        <time>2023-10-07T12:14:19Z</time>
      </trkpt>
      <trkpt lat="48.01607" lon="-0.49002">
        <ele>101.2</ele>
        <time>2023-10-07T12:14:20Z</time>
      </trkpt>
      <trkpt lat="48.01602" lon="-0.49002">
        <ele>101.6</ele>
        <time>2023-10-07T12:14:21Z</time>
      </trkpt>
      <trkpt lat="48.01598" lon="-0.49002">
        <ele>101.6</ele>
        <time>2023-10-07T12:14:22Z</time>
      </trkpt>
      <trkpt lat="48.01593" lon="-0.49002">
        <ele>101.6</ele>
        <time>2023-10-07T12:14:23Z</time>
      </trkpt>
      <trkpt lat="48.01589" lon="-0.49003">
        <ele>102.6</ele>
        <time>2023-10-07T12:14:24Z</time>
      </trkpt>
      <trkpt lat="48.01584" lon="-0.49004">
        <ele>103</ele>
        <time>2023-10-07T12:14:25Z</time>
      </trkpt>
      <trkpt lat="48.01579" lon="-0.49005">
        <ele>103</ele>
        <time>2023-10-07T12:14:26Z</time>
      </trkpt>
      <trkpt lat="48.01575" lon="-0.49006">
        <ele>103</ele>
        <time>2023-10-07T12:14:27Z</time>
      </trkpt>
      <trkpt lat="48.0157" lon="-0.49007">
        <ele>103</ele>
        <time>2023-10-07T12:14:28Z</time>
      </trkpt>
      <trkpt lat="48.01566" lon="-0.49009">
        <ele>104</ele>
        <time>2023-10-07T12:14:29Z</time>
      </trkpt>
      <trkpt lat="48.01561" lon="-0.4901">
        <ele>104</ele>
        <time>2023-10-07T12:14:30Z</time>
      </trkpt>
      <trkpt lat="48.01557" lon="-0.49012">
        <ele>104</ele>
        <time>2023-10-07T12:14:31Z</time>
      </trkpt>
      <trkpt lat="48.01552" lon="-0.49013">
        <ele>105</ele>
        <time>2023-10-07T12:14:32Z</time>
      </trkpt>
      <trkpt lat="48.01547" lon="-0.49014">
        <ele>105.2</ele>
        <time>2023-10-07T12:14:33Z</time>
      </trkpt>
      <trkpt lat="48.01543" lon="-0.49015">
        <ele>105.2</ele>
        <time>2023-10-07T12:14:34Z</time>
      </trkpt>
      <trkpt lat="48.01538" lon="-0.49017">
        <ele>105.2</ele>
        <time>2023-10-07T12:14:35Z</time>
      </trkpt>
      <trkpt lat="48.01533" lon="-0.49018">
        <ele>106.2</ele>
        <time>2023-10-07T12:14:36Z</time>
      </trkpt>
      <trkpt lat="48.01528" lon="-0.4902">
        <ele>106.4</ele>
        <time>2023-10-07T12:14:37Z</time>
      </trkpt>
      <trkpt lat="48.01524" lon="-0.49021">
        <ele>106.4</ele>
        <time>2023-10-07T12:14:38Z</time>
      </trkpt>
      <trkpt lat="48.01519" lon="-0.49022">
        <ele>106.4</ele>
        <time>2023-10-07T12:14:39Z</time>
      </trkpt>
      <trkpt lat="48.01515" lon="-0.49023">
        <ele>107</ele>
        <time>2023-10-07T12:14:40Z</time>
      </trkpt>
      <trkpt lat="48.0151" lon="-0.49024">
        <ele>107.4</ele>
        <time>2023-10-07T12:14:41Z</time>
      </trkpt>
      <trkpt lat="48.01506" lon="-0.49026">
        <ele>107.4</ele>
        <time>2023-10-07T12:14:42Z</time>
      </trkpt>
      <trkpt lat="48.01502" lon="-0.49027">
        <ele>107.4</ele>
        <time>2023-10-07T12:14:43Z</time>
      </trkpt>
      <trkpt lat="48.01497" lon="-0.49028">
        <ele>107.8</ele>
        <time>2023-10-07T12:14:44Z</time>
      </trkpt>
      <trkpt lat="48.01493" lon="-0.49029">
        <ele>108.4</ele>
        <time>2023-10-07T12:14:45Z</time>
      </trkpt>
      <trkpt lat="48.01489" lon="-0.4903">
        <ele>108.4</ele>
        <time>2023-10-07T12:14:46Z</time>
      </trkpt>
      <trkpt lat="48.01484" lon="-0.49031">
        <ele>108.4</ele>
        <time>2023-10-07T12:14:47Z</time>
      </trkpt>
      <trkpt lat="48.0148" lon="-0.49032">
        <ele>109</ele>
        <time>2023-10-07T12:14:48Z</time>
      </trkpt>
      <trkpt lat="48.01476" lon="-0.49033">
        <ele>109.4</ele>
        <time>2023-10-07T12:14:49Z</time>
      </trkpt>
      <trkpt lat="48.01471" lon="-0.49035">
        <ele>109.4</ele>
        <time>2023-10-07T12:14:50Z</time>
      </trkpt>
      <trkpt lat="48.01467" lon="-0.49036">
        <ele>109.4</ele>
        <time>2023-10-07T12:14:51Z</time>
      </trkpt>
      <trkpt lat="48.01463" lon="-0.49038">
        <ele>109.4</ele>
        <time>2023-10-07T12:14:52Z</time>
      </trkpt>
      <trkpt lat="48.01459" lon="-0.4904">
        <ele>109.8</ele>
        <time>2023-10-07T12:14:53Z</time>
      </trkpt>
      <trkpt lat="48.01454" lon="-0.49041">
        <ele>109.8</ele>
        <time>2023-10-07T12:14:54Z</time>
      </trkpt>
      <trkpt lat="48.01449" lon="-0.49042">
        <ele>109.8</ele>
        <time>2023-10-07T12:14:55Z</time>
      </trkpt>
      <trkpt lat="48.01444" lon="-0.49043">
        <ele>109.8</ele>
        <time>2023-10-07T12:14:56Z</time>
      </trkpt>
      <trkpt lat="48.01439" lon="-0.49044">
        <ele>110.2</ele>
        <time>2023-10-07T12:14:57Z</time>
      </trkpt>
      <trkpt lat="48.01434" lon="-0.49045">
        <ele>110.2</ele>
        <time>2023-10-07T12:14:58Z</time>
      </trkpt>
      <trkpt lat="48.01429" lon="-0.49046">
        <ele>110.2</ele>
        <time>2023-10-07T12:14:59Z</time>
      </trkpt>
      <trkpt lat="48.01425" lon="-0.49047">
        <ele>110</ele>
        <time>2023-10-07T12:15:00Z</time>
      </trkpt>
      <trkpt lat="48.0142" lon="-0.49049">
        <ele>108.8</ele>
        <time>2023-10-07T12:15:01Z</time>
      </trkpt>
      <trkpt lat="48.01415" lon="-0.4905">
        <ele>108.8</ele>
        <time>2023-10-07T12:15:02Z</time>
      </trkpt>
      <trkpt lat="48.0141" lon="-0.49051">
        <ele>108.8</ele>
        <time>2023-10-07T12:15:03Z</time>
      </trkpt>
      <trkpt lat="48.01405" lon="-0.49052">
        <ele>107.8</ele>
        <time>2023-10-07T12:15:04Z</time>
      </trkpt>
      <trkpt lat="48.014" lon="-0.49053">
        <ele>107.6</ele>
        <time>2023-10-07T12:15:05Z</time>
      </trkpt>
      <trkpt lat="48.01394" lon="-0.49055">
        <ele>107.6</ele>
        <time>2023-10-07T12:15:06Z</time>
      </trkpt>
      <trkpt lat="48.01389" lon="-0.49056">
        <ele>107.6</ele>
        <time>2023-10-07T12:15:07Z</time>
      </trkpt>
      <trkpt lat="48.01383" lon="-0.49057">
        <ele>107.6</ele>
        <time>2023-10-07T12:15:08Z</time>
      </trkpt>
      <trkpt lat="48.01378" lon="-0.49059">
        <ele>107.4</ele>
        <time>2023-10-07T12:15:09Z</time>
      </trkpt>
      <trkpt lat="48.01372" lon="-0.4906">
        <ele>107.4</ele>
        <time>2023-10-07T12:15:10Z</time>
      </trkpt>
      <trkpt lat="48.01366" lon="-0.49061">
        <ele>107.4</ele>
        <time>2023-10-07T12:15:11Z</time>
      </trkpt>
      <trkpt lat="48.0136" lon="-0.49063">
        <ele>107.2</ele>
        <time>2023-10-07T12:15:12Z</time>
      </trkpt>
      <trkpt lat="48.01354" lon="-0.49064">
        <ele>107.4</ele>
        <time>2023-10-07T12:15:13Z</time>
      </trkpt>
      <trkpt lat="48.01348" lon="-0.49065">
        <ele>107.4</ele>
        <time>2023-10-07T12:15:14Z</time>
      </trkpt>
      <trkpt lat="48.01342" lon="-0.49067">
        <ele>107.4</ele>
        <time>2023-10-07T12:15:15Z</time>
      </trkpt>
      <trkpt lat="48.01336" lon="-0.49068">
        <ele>106.8</ele>
        <time>2023-10-07T12:15:16Z</time>
      </trkpt>
      <trkpt lat="48.01329" lon="-0.4907">
        <ele>105.2</ele>
        <time>2023-10-07T12:15:17Z</time>
      </trkpt>
      <trkpt lat="48.01323" lon="-0.49072">
        <ele>105.2</ele>
        <time>2023-10-07T12:15:18Z</time>
      </trkpt>
      <trkpt lat="48.01317" lon="-0.49073">
        <ele>105.2</ele>
        <time>2023-10-07T12:15:19Z</time>
      </trkpt>
      <trkpt lat="48.0131" lon="-0.49075">
        <ele>105.2</ele>
        <time>2023-10-07T12:15:20Z</time>
      </trkpt>
      <trkpt lat="48.01304" lon="-0.49076">
        <ele>105.2</ele>
        <time>2023-10-07T12:15:21Z</time>
      </trkpt>
      <trkpt lat="48.01297" lon="-0.49078">
        <ele>105.2</ele>
        <time>2023-10-07T12:15:22Z</time>
      </trkpt>
      <trkpt lat="48.01291" lon="-0.49079">
        <ele>105.2</ele>
        <time>2023-10-07T12:15:23Z</time>
      </trkpt>
      <trkpt lat="48.01284" lon="-0.49081">
        <ele>105.2</ele>
        <time>2023-10-07T12:15:24Z</time>
      </trkpt>
      <trkpt lat="48.01277" lon="-0.49083">
        <ele>104.6</ele>
        <time>2023-10-07T12:15:25Z</time>
      </trkpt>
      <trkpt lat="48.01271" lon="-0.49085">
        <ele>104.6</ele>
        <time>2023-10-07T12:15:26Z</time>
      </trkpt>
      <trkpt lat="48.01264" lon="-0.49086">
        <ele>104.6</ele>
        <time>2023-10-07T12:15:27Z</time>
      </trkpt>
      <trkpt lat="48.01257" lon="-0.49088">
        <ele>104.6</ele>
        <time>2023-10-07T12:15:28Z</time>
      </trkpt>
      <trkpt lat="48.0125" lon="-0.4909">
        <ele>104.4</ele>
        <time>2023-10-07T12:15:29Z</time>
      </trkpt>
      <trkpt lat="48.01243" lon="-0.49091">
        <ele>104.4</ele>
        <time>2023-10-07T12:15:30Z</time>
      </trkpt>
      <trkpt lat="48.01236" lon="-0.49093">
        <ele>104.4</ele>
        <time>2023-10-07T12:15:31Z</time>
      </trkpt>
      <trkpt lat="48.01229" lon="-0.49095">
        <ele>103.6</ele>
        <time>2023-10-07T12:15:32Z</time>
      </trkpt>
      <trkpt lat="48.01222" lon="-0.49097">
        <ele>103.8</ele>
        <time>2023-10-07T12:15:33Z</time>
      </trkpt>
      <trkpt lat="48.01215" lon="-0.49098">
        <ele>103.8</ele>
        <time>2023-10-07T12:15:34Z</time>
      </trkpt>
      <trkpt lat="48.01207" lon="-0.491">
        <ele>103.8</ele>
        <time>2023-10-07T12:15:35Z</time>
      </trkpt>
      <trkpt lat="48.012" lon="-0.49102">
        <ele>102.8</ele>
        <time>2023-10-07T12:15:36Z</time>
      </trkpt>
      <trkpt lat="48.01193" lon="-0.49104">
        <ele>102.2</ele>
        <time>2023-10-07T12:15:37Z</time>
      </trkpt>
      <trkpt lat="48.01186" lon="-0.49105">
        <ele>102.2</ele>
        <time>2023-10-07T12:15:38Z</time>
      </trkpt>
      <trkpt lat="48.01178" lon="-0.49107">
        <ele>102.2</ele>
        <time>2023-10-07T12:15:39Z</time>
      </trkpt>
      <trkpt lat="48.01171" lon="-0.49109">
        <ele>102.2</ele>
        <time>2023-10-07T12:15:40Z</time>
      </trkpt>
      <trkpt lat="48.01164" lon="-0.49111">
        <ele>101.6</ele>
        <time>2023-10-07T12:15:41Z</time>
      </trkpt>
      <trkpt lat="48.01156" lon="-0.49113">
        <ele>101.6</ele>
        <time>2023-10-07T12:15:42Z</time>
      </trkpt>
      <trkpt lat="48.01149" lon="-0.49115">
        <ele>101.6</ele>
        <time>2023-10-07T12:15:43Z</time>
      </trkpt>
      <trkpt lat="48.01142" lon="-0.49117">
        <ele>101.2</ele>
        <time>2023-10-07T12:15:44Z</time>
      </trkpt>
      <trkpt lat="48.01134" lon="-0.49119">
        <ele>100.8</ele>
        <time>2023-10-07T12:15:45Z</time>
      </trkpt>
      <trkpt lat="48.01127" lon="-0.49121">
        <ele>100.8</ele>
        <time>2023-10-07T12:15:46Z</time>
      </trkpt>
      <trkpt lat="48.0112" lon="-0.49123">
        <ele>100.8</ele>
        <time>2023-10-07T12:15:47Z</time>
      </trkpt>
      <trkpt lat="48.01112" lon="-0.49125">
        <ele>100.8</ele>
        <time>2023-10-07T12:15:48Z</time>
      </trkpt>
      <trkpt lat="48.01105" lon="-0.49127">
        <ele>100.6</ele>
        <time>2023-10-07T12:15:49Z</time>
      </trkpt>
      <trkpt lat="48.01097" lon="-0.49129">
        <ele>100.6</ele>
        <time>2023-10-07T12:15:50Z</time>
      </trkpt>
      <trkpt lat="48.0109" lon="-0.49131">
        <ele>100.6</ele>
        <time>2023-10-07T12:15:51Z</time>
      </trkpt>
      <trkpt lat="48.01082" lon="-0.49133">
        <ele>99.6</ele>
        <time>2023-10-07T12:15:52Z</time>
      </trkpt>
      <trkpt lat="48.01074" lon="-0.49135">
        <ele>98.4</ele>
        <time>2023-10-07T12:15:53Z</time>
      </trkpt>
      <trkpt lat="48.01066" lon="-0.49137">
        <ele>98.4</ele>
        <time>2023-10-07T12:15:54Z</time>
      </trkpt>
      <trkpt lat="48.01058" lon="-0.49139">
        <ele>98.4</ele>
        <time>2023-10-07T12:15:55Z</time>
      </trkpt>
      <trkpt lat="48.0105" lon="-0.49142">
        <ele>98.4</ele>
        <time>2023-10-07T12:15:56Z</time>
      </trkpt>
      <trkpt lat="48.01041" lon="-0.49144">
        <ele>97.8</ele>
        <time>2023-10-07T12:15:57Z</time>
      </trkpt>
      <trkpt lat="48.01033" lon="-0.49146">
        <ele>97.8</ele>
        <time>2023-10-07T12:15:58Z</time>
      </trkpt>
      <trkpt lat="48.01024" lon="-0.49148">
        <ele>97.8</ele>
        <time>2023-10-07T12:15:59Z</time>
      </trkpt>
      <trkpt lat="48.01015" lon="-0.4915">
        <ele>96.8</ele>
        <time>2023-10-07T12:16:00Z</time>
      </trkpt>
      <trkpt lat="48.01007" lon="-0.49152">
        <ele>96.2</ele>
        <time>2023-10-07T12:16:01Z</time>
      </trkpt>
      <trkpt lat="48.00998" lon="-0.49155">
        <ele>96.2</ele>
        <time>2023-10-07T12:16:02Z</time>
      </trkpt>
      <trkpt lat="48.00989" lon="-0.49157">
        <ele>96.2</ele>
        <time>2023-10-07T12:16:03Z</time>
      </trkpt>
      <trkpt lat="48.00981" lon="-0.49159">
        <ele>96</ele>
        <time>2023-10-07T12:16:04Z</time>
      </trkpt>
      <trkpt lat="48.00972" lon="-0.49161">
        <ele>96</ele>
        <time>2023-10-07T12:16:05Z</time>
      </trkpt>
      <trkpt lat="48.00963" lon="-0.49164">
        <ele>96</ele>
        <time>2023-10-07T12:16:06Z</time>
      </trkpt>
      <trkpt lat="48.00955" lon="-0.49166">
        <ele>96</ele>
        <time>2023-10-07T12:16:07Z</time>
      </trkpt>
      <trkpt lat="48.00947" lon="-0.49168">
        <ele>96</ele>
        <time>2023-10-07T12:16:08Z</time>
      </trkpt>
      <trkpt lat="48.00939" lon="-0.4917">
        <ele>95</ele>
        <time>2023-10-07T12:16:09Z</time>
      </trkpt>
      <trkpt lat="48.00931" lon="-0.49172">
        <ele>95</ele>
        <time>2023-10-07T12:16:10Z</time>
      </trkpt>
      <trkpt lat="48.00923" lon="-0.49174">
        <ele>95</ele>
        <time>2023-10-07T12:16:11Z</time>
      </trkpt>
      <trkpt lat="48.00915" lon="-0.49176">
        <ele>95.2</ele>
        <time>2023-10-07T12:16:12Z</time>
      </trkpt>
      <trkpt lat="48.00907" lon="-0.49178">
        <ele>95.6</ele>
        <time>2023-10-07T12:16:13Z</time>
      </trkpt>
      <trkpt lat="48.00899" lon="-0.4918">
        <ele>95.6</ele>
        <time>2023-10-07T12:16:14Z</time>
      </trkpt>
      <trkpt lat="48.00892" lon="-0.49182">
        <ele>95.6</ele>
        <time>2023-10-07T12:16:15Z</time>
      </trkpt>
      <trkpt lat="48.00884" lon="-0.49184">
        <ele>96.6</ele>
        <time>2023-10-07T12:16:16Z</time>
      </trkpt>
      <trkpt lat="48.00876" lon="-0.49185">
        <ele>96</ele>
        <time>2023-10-07T12:16:17Z</time>
      </trkpt>
      <trkpt lat="48.00869" lon="-0.49187">
        <ele>96</ele>
        <time>2023-10-07T12:16:18Z</time>
      </trkpt>
      <trkpt lat="48.00861" lon="-0.49189">
        <ele>96</ele>
        <time>2023-10-07T12:16:19Z</time>
      </trkpt>
      <trkpt lat="48.00854" lon="-0.49191">
        <ele>96</ele>
        <time>2023-10-07T12:16:20Z</time>
      </trkpt>
      <trkpt lat="48.00847" lon="-0.49193">
        <ele>96</ele>
        <time>2023-10-07T12:16:21Z</time>
      </trkpt>
      <trkpt lat="48.0084" lon="-0.49195">
        <ele>96</ele>
        <time>2023-10-07T12:16:22Z</time>
      </trkpt>
      <trkpt lat="48.00833" lon="-0.49197">
        <ele>96</ele>
        <time>2023-10-07T12:16:23Z</time>
      </trkpt>
      <trkpt lat="48.00826" lon="-0.49199">
        <ele>95.6</ele>
        <time>2023-10-07T12:16:24Z</time>
      </trkpt>
      <trkpt lat="48.00819" lon="-0.49201">
        <ele>95.8</ele>
        <time>2023-10-07T12:16:25Z</time>
      </trkpt>
      <trkpt lat="48.00812" lon="-0.49202">
        <ele>95.8</ele>
        <time>2023-10-07T12:16:26Z</time>
      </trkpt>
      <trkpt lat="48.00805" lon="-0.49204">
        <ele>95.8</ele>
        <time>2023-10-07T12:16:27Z</time>
      </trkpt>
      <trkpt lat="48.00799" lon="-0.49206">
        <ele>95.4</ele>
        <time>2023-10-07T12:16:28Z</time>
      </trkpt>
      <trkpt lat="48.00792" lon="-0.49208">
        <ele>95.4</ele>
        <time>2023-10-07T12:16:29Z</time>
      </trkpt>
      <trkpt lat="48.00785" lon="-0.49209">
        <ele>95.4</ele>
        <time>2023-10-07T12:16:30Z</time>
      </trkpt>
      <trkpt lat="48.00779" lon="-0.49211">
        <ele>95.4</ele>
        <time>2023-10-07T12:16:31Z</time>
      </trkpt>
      <trkpt lat="48.00772" lon="-0.49213">
        <ele>95.2</ele>
        <time>2023-10-07T12:16:32Z</time>
      </trkpt>
      <trkpt lat="48.00765" lon="-0.49215">
        <ele>94.6</ele>
        <time>2023-10-07T12:16:33Z</time>
      </trkpt>
      <trkpt lat="48.00759" lon="-0.49216">
        <ele>94.6</ele>
        <time>2023-10-07T12:16:34Z</time>
      </trkpt>
      <trkpt lat="48.00752" lon="-0.49218">
        <ele>94.6</ele>
        <time>2023-10-07T12:16:35Z</time>
      </trkpt>
      <trkpt lat="48.00746" lon="-0.4922">
        <ele>94.8</ele>
        <time>2023-10-07T12:16:36Z</time>
      </trkpt>
      <trkpt lat="48.0074" lon="-0.49221">
        <ele>95.2</ele>
        <time>2023-10-07T12:16:37Z</time>
      </trkpt>
      <trkpt lat="48.00734" lon="-0.49223">
        <ele>95.2</ele>
        <time>2023-10-07T12:16:38Z</time>
      </trkpt>
      <trkpt lat="48.00727" lon="-0.49225">
        <ele>95.2</ele>
        <time>2023-10-07T12:16:39Z</time>
      </trkpt>
      <trkpt lat="48.00721" lon="-0.49227">
        <ele>95.6</ele>
        <time>2023-10-07T12:16:40Z</time>
      </trkpt>
      <trkpt lat="48.00715" lon="-0.49228">
        <ele>95.4</ele>
        <time>2023-10-07T12:16:41Z</time>
      </trkpt>
      <trkpt lat="48.0071" lon="-0.4923">
        <ele>95.4</ele>
        <time>2023-10-07T12:16:42Z</time>
      </trkpt>
      <trkpt lat="48.00704" lon="-0.49231">
        <ele>95.4</ele>
        <time>2023-10-07T12:16:43Z</time>
      </trkpt>
      <trkpt lat="48.00698" lon="-0.49233">
        <ele>96.4</ele>
        <time>2023-10-07T12:16:44Z</time>
      </trkpt>
      <trkpt lat="48.00692" lon="-0.49234">
        <ele>96.2</ele>
        <time>2023-10-07T12:16:45Z</time>
      </trkpt>
      <trkpt lat="48.00686" lon="-0.49235">
        <ele>96.2</ele>
        <time>2023-10-07T12:16:46Z</time>
      </trkpt>
      <trkpt lat="48.0068" lon="-0.49237">
        <ele>96.2</ele>
        <time>2023-10-07T12:16:47Z</time>
      </trkpt>
      <trkpt lat="48.00675" lon="-0.49238">
        <ele>96.2</ele>
        <time>2023-10-07T12:16:48Z</time>
      </trkpt>
      <trkpt lat="48.00669" lon="-0.4924">
        <ele>96.2</ele>
        <time>2023-10-07T12:16:49Z</time>
      </trkpt>
      <trkpt lat="48.00663" lon="-0.49242">
        <ele>96.2</ele>
        <time>2023-10-07T12:16:50Z</time>
      </trkpt>
      <trkpt lat="48.00657" lon="-0.49243">
        <ele>96.2</ele>
        <time>2023-10-07T12:16:51Z</time>
      </trkpt>
      <trkpt lat="48.00652" lon="-0.49245">
        <ele>96.8</ele>
        <time>2023-10-07T12:16:52Z</time>
      </trkpt>
      <trkpt lat="48.00646" lon="-0.49247">
        <ele>97</ele>
        <time>2023-10-07T12:16:53Z</time>
      </trkpt>
      <trkpt lat="48.0064" lon="-0.49248">
        <ele>97</ele>
        <time>2023-10-07T12:16:54Z</time>
      </trkpt>
      <trkpt lat="48.00634" lon="-0.49249">
        <ele>97</ele>
        <time>2023-10-07T12:16:55Z</time>
      </trkpt>
      <trkpt lat="48.00629" lon="-0.49251">
        <ele>97.2</ele>
        <time>2023-10-07T12:16:56Z</time>
      </trkpt>
      <trkpt lat="48.00623" lon="-0.49251">
        <ele>98</ele>
        <time>2023-10-07T12:16:57Z</time>
      </trkpt>
      <trkpt lat="48.00617" lon="-0.49252">
        <ele>98</ele>
        <time>2023-10-07T12:16:58Z</time>
      </trkpt>
      <trkpt lat="48.00611" lon="-0.49253">
        <ele>98</ele>
        <time>2023-10-07T12:16:59Z</time>
      </trkpt>
      <trkpt lat="48.00606" lon="-0.49254">
        <ele>98</ele>
        <time>2023-10-07T12:17:00Z</time>
      </trkpt>
      <trkpt lat="48.006" lon="-0.49254">
        <ele>98</ele>
        <time>2023-10-07T12:17:01Z</time>
      </trkpt>
      <trkpt lat="48.00594" lon="-0.49253">
        <ele>98</ele>
        <time>2023-10-07T12:17:02Z</time>
      </trkpt>
      <trkpt lat="48.00588" lon="-0.49251">
        <ele>98</ele>
        <time>2023-10-07T12:17:03Z</time>
      </trkpt>
      <trkpt lat="48.00583" lon="-0.49249">
        <ele>98.4</ele>
        <time>2023-10-07T12:17:04Z</time>
      </trkpt>
      <trkpt lat="48.00577" lon="-0.49247">
        <ele>98.4</ele>
        <time>2023-10-07T12:17:05Z</time>
      </trkpt>
      <trkpt lat="48.00571" lon="-0.49245">
        <ele>98.4</ele>
        <time>2023-10-07T12:17:06Z</time>
      </trkpt>
      <trkpt lat="48.00566" lon="-0.49243">
        <ele>98.4</ele>
        <time>2023-10-07T12:17:07Z</time>
      </trkpt>
      <trkpt lat="48.0056" lon="-0.49242">
        <ele>98.4</ele>
        <time>2023-10-07T12:17:08Z</time>
      </trkpt>
      <trkpt lat="48.00555" lon="-0.4924">
        <ele>98</ele>
        <time>2023-10-07T12:17:09Z</time>
      </trkpt>
      <trkpt lat="48.00549" lon="-0.49238">
        <ele>98</ele>
        <time>2023-10-07T12:17:10Z</time>
      </trkpt>
      <trkpt lat="48.00544" lon="-0.49236">
        <ele>98</ele>
        <time>2023-10-07T12:17:11Z</time>
      </trkpt>
      <trkpt lat="48.00539" lon="-0.49233">
        <ele>99</ele>
        <time>2023-10-07T12:17:12Z</time>
      </trkpt>
      <trkpt lat="48.00534" lon="-0.49231">
        <ele>99.4</ele>
        <time>2023-10-07T12:17:13Z</time>
      </trkpt>
      <trkpt lat="48.00528" lon="-0.49229">
        <ele>99.4</ele>
        <time>2023-10-07T12:17:14Z</time>
      </trkpt>
      <trkpt lat="48.00523" lon="-0.49227">
        <ele>99.4</ele>
        <time>2023-10-07T12:17:15Z</time>
      </trkpt>
      <trkpt lat="48.00518" lon="-0.49225">
        <ele>99.4</ele>
        <time>2023-10-07T12:17:16Z</time>
      </trkpt>
      <trkpt lat="48.00512" lon="-0.49223">
        <ele>99</ele>
        <time>2023-10-07T12:17:17Z</time>
      </trkpt>
      <trkpt lat="48.00507" lon="-0.49221">
        <ele>99</ele>
        <time>2023-10-07T12:17:18Z</time>
      </trkpt>
      <trkpt lat="48.00502" lon="-0.49219">
        <ele>99</ele>
        <time>2023-10-07T12:17:19Z</time>
      </trkpt>
      <trkpt lat="48.00497" lon="-0.49217">
        <ele>99</ele>
        <time>2023-10-07T12:17:20Z</time>
      </trkpt>
      <trkpt lat="48.00491" lon="-0.49215">
        <ele>98.6</ele>
        <time>2023-10-07T12:17:21Z</time>
      </trkpt>
      <trkpt lat="48.00486" lon="-0.49213">
        <ele>98.6</ele>
        <time>2023-10-07T12:17:22Z</time>
      </trkpt>
      <trkpt lat="48.00481" lon="-0.49211">
        <ele>98.6</ele>
        <time>2023-10-07T12:17:23Z</time>
      </trkpt>
      <trkpt lat="48.00476" lon="-0.49208">
        <ele>99.2</ele>
        <time>2023-10-07T12:17:24Z</time>
      </trkpt>
      <trkpt lat="48.0047" lon="-0.49206">
        <ele>99.4</ele>
        <time>2023-10-07T12:17:25Z</time>
      </trkpt>
      <trkpt lat="48.00465" lon="-0.49204">
        <ele>99.4</ele>
        <time>2023-10-07T12:17:26Z</time>
      </trkpt>
      <trkpt lat="48.0046" lon="-0.49202">
        <ele>99.4</ele>
        <time>2023-10-07T12:17:27Z</time>
      </trkpt>
      <trkpt lat="48.00454" lon="-0.49199">
        <ele>98.4</ele>
        <time>2023-10-07T12:17:28Z</time>
      </trkpt>
      <trkpt lat="48.00449" lon="-0.49197">
        <ele>98</ele>
        <time>2023-10-07T12:17:29Z</time>
      </trkpt>
      <trkpt lat="48.00444" lon="-0.49194">
        <ele>98</ele>
        <time>2023-10-07T12:17:30Z</time>
      </trkpt>
      <trkpt lat="48.00439" lon="-0.49193">
        <ele>98</ele>
        <time>2023-10-07T12:17:31Z</time>
      </trkpt>
      <trkpt lat="48.00433" lon="-0.49191">
        <ele>98</ele>
        <time>2023-10-07T12:17:32Z</time>
      </trkpt>
      <trkpt lat="48.00428" lon="-0.49188">
        <ele>98</ele>
        <time>2023-10-07T12:17:33Z</time>
      </trkpt>
      <trkpt lat="48.00423" lon="-0.49186">
        <ele>98</ele>
        <time>2023-10-07T12:17:34Z</time>
      </trkpt>
      <trkpt lat="48.00418" lon="-0.49184">
        <ele>98</ele>
        <time>2023-10-07T12:17:35Z</time>
      </trkpt>
      <trkpt lat="48.00412" lon="-0.49182">
        <ele>98</ele>
        <time>2023-10-07T12:17:36Z</time>
      </trkpt>
      <trkpt lat="48.00407" lon="-0.4918">
        <ele>98</ele>
        <time>2023-10-07T12:17:37Z</time>
      </trkpt>
      <trkpt lat="48.00401" lon="-0.49178">
        <ele>98</ele>
        <time>2023-10-07T12:17:38Z</time>
      </trkpt>
      <trkpt lat="48.00395" lon="-0.49175">
        <ele>98</ele>
        <time>2023-10-07T12:17:39Z</time>
      </trkpt>
      <trkpt lat="48.0039" lon="-0.49173">
        <ele>98.4</ele>
        <time>2023-10-07T12:17:40Z</time>
      </trkpt>
      <trkpt lat="48.00384" lon="-0.4917">
        <ele>98.4</ele>
        <time>2023-10-07T12:17:41Z</time>
      </trkpt>
      <trkpt lat="48.00379" lon="-0.49168">
        <ele>98.4</ele>
        <time>2023-10-07T12:17:42Z</time>
      </trkpt>
      <trkpt lat="48.00373" lon="-0.49166">
        <ele>98.4</ele>
        <time>2023-10-07T12:17:43Z</time>
      </trkpt>
      <trkpt lat="48.00367" lon="-0.49163">
        <ele>98.4</ele>
        <time>2023-10-07T12:17:44Z</time>
      </trkpt>
      <trkpt lat="48.00362" lon="-0.49161">
        <ele>98</ele>
        <time>2023-10-07T12:17:45Z</time>
      </trkpt>
      <trkpt lat="48.00356" lon="-0.49159">
        <ele>98</ele>
        <time>2023-10-07T12:17:46Z</time>
      </trkpt>
      <trkpt lat="48.0035" lon="-0.49157">
        <ele>98</ele>
        <time>2023-10-07T12:17:47Z</time>
      </trkpt>
      <trkpt lat="48.00345" lon="-0.49155">
        <ele>97.6</ele>
        <time>2023-10-07T12:17:48Z</time>
      </trkpt>
      <trkpt lat="48.00339" lon="-0.49153">
        <ele>97.8</ele>
        <time>2023-10-07T12:17:49Z</time>
      </trkpt>
      <trkpt lat="48.00333" lon="-0.4915">
        <ele>97.8</ele>
        <time>2023-10-07T12:17:50Z</time>
      </trkpt>
      <trkpt lat="48.00328" lon="-0.49148">
        <ele>97.8</ele>
        <time>2023-10-07T12:17:51Z</time>
      </trkpt>
      <trkpt lat="48.00322" lon="-0.49145">
        <ele>98</ele>
        <time>2023-10-07T12:17:52Z</time>
      </trkpt>
      <trkpt lat="48.00316" lon="-0.49143">
        <ele>98.2</ele>
        <time>2023-10-07T12:17:53Z</time>
      </trkpt>
      <trkpt lat="48.00311" lon="-0.49141">
        <ele>98.2</ele>
        <time>2023-10-07T12:17:54Z</time>
      </trkpt>
      <trkpt lat="48.00305" lon="-0.49139">
        <ele>98.2</ele>
        <time>2023-10-07T12:17:55Z</time>
      </trkpt>
      <trkpt lat="48.003" lon="-0.49136">
        <ele>97.2</ele>
        <time>2023-10-07T12:17:56Z</time>
      </trkpt>
      <trkpt lat="48.00294" lon="-0.49134">
        <ele>96.8</ele>
        <time>2023-10-07T12:17:57Z</time>
      </trkpt>
      <trkpt lat="48.00289" lon="-0.49131">
        <ele>96.8</ele>
        <time>2023-10-07T12:17:58Z</time>
      </trkpt>
      <trkpt lat="48.00283" lon="-0.49129">
        <ele>96.8</ele>
        <time>2023-10-07T12:17:59Z</time>
      </trkpt>
      <trkpt lat="48.00278" lon="-0.49127">
        <ele>97.6</ele>
        <time>2023-10-07T12:18:00Z</time>
      </trkpt>
      <trkpt lat="48.00273" lon="-0.49125">
        <ele>97.6</ele>
        <time>2023-10-07T12:18:01Z</time>
      </trkpt>
      <trkpt lat="48.00267" lon="-0.49123">
        <ele>97.6</ele>
        <time>2023-10-07T12:18:02Z</time>
      </trkpt>
      <trkpt lat="48.00262" lon="-0.4912">
        <ele>97.6</ele>
        <time>2023-10-07T12:18:03Z</time>
      </trkpt>
      <trkpt lat="48.00257" lon="-0.49118">
        <ele>97.6</ele>
        <time>2023-10-07T12:18:04Z</time>
      </trkpt>
      <trkpt lat="48.00251" lon="-0.49117">
        <ele>97.4</ele>
        <time>2023-10-07T12:18:05Z</time>
      </trkpt>
      <trkpt lat="48.00246" lon="-0.49115">
        <ele>97.4</ele>
        <time>2023-10-07T12:18:06Z</time>
      </trkpt>
      <trkpt lat="48.00241" lon="-0.49113">
        <ele>97.4</ele>
        <time>2023-10-07T12:18:07Z</time>
      </trkpt>
      <trkpt lat="48.00236" lon="-0.4911">
        <ele>97.8</ele>
        <time>2023-10-07T12:18:08Z</time>
      </trkpt>
      <trkpt lat="48.0023" lon="-0.49108">
        <ele>98.4</ele>
        <time>2023-10-07T12:18:09Z</time>
      </trkpt>
      <trkpt lat="48.00225" lon="-0.49106">
        <ele>98.4</ele>
        <time>2023-10-07T12:18:10Z</time>
      </trkpt>
      <trkpt lat="48.0022" lon="-0.49104">
        <ele>98.4</ele>
        <time>2023-10-07T12:18:11Z</time>
      </trkpt>
      <trkpt lat="48.00214" lon="-0.49102">
        <ele>98.4</ele>
        <time>2023-10-07T12:18:12Z</time>
      </trkpt>
      <trkpt lat="48.00208" lon="-0.491">
        <ele>98.2</ele>
        <time>2023-10-07T12:18:13Z</time>
      </trkpt>
      <trkpt lat="48.00203" lon="-0.49098">
        <ele>98.2</ele>
        <time>2023-10-07T12:18:14Z</time>
      </trkpt>
      <trkpt lat="48.00197" lon="-0.49095">
        <ele>98.2</ele>
        <time>2023-10-07T12:18:15Z</time>
      </trkpt>
      <trkpt lat="48.00192" lon="-0.49093">
        <ele>98.2</ele>
        <time>2023-10-07T12:18:16Z</time>
      </trkpt>
      <trkpt lat="48.00188" lon="-0.49092">
        <ele>99.8</ele>
        <time>2023-10-07T12:18:17Z</time>
      </trkpt>
      <trkpt lat="48.00184" lon="-0.49091">
        <ele>99.8</ele>
        <time>2023-10-07T12:18:18Z</time>
      </trkpt>
      <trkpt lat="48.00181" lon="-0.49088">
        <ele>99.8</ele>
        <time>2023-10-07T12:18:19Z</time>
      </trkpt>
      <trkpt lat="48.00179" lon="-0.49084">
        <ele>99.8</ele>
        <time>2023-10-07T12:18:20Z</time>
      </trkpt>
      <trkpt lat="48.00178" lon="-0.49078">
        <ele>98.6</ele>
        <time>2023-10-07T12:18:21Z</time>
      </trkpt>
      <trkpt lat="48.00177" lon="-0.49071">
        <ele>98.6</ele>
        <time>2023-10-07T12:18:22Z</time>
      </trkpt>
      <trkpt lat="48.00177" lon="-0.49064">
        <ele>98.6</ele>
        <time>2023-10-07T12:18:23Z</time>
      </trkpt>
      <trkpt lat="48.00177" lon="-0.49057">
        <ele>98.6</ele>
        <time>2023-10-07T12:18:24Z</time>
      </trkpt>
      <trkpt lat="48.00177" lon="-0.4905">
        <ele>98.8</ele>
        <time>2023-10-07T12:18:25Z</time>
      </trkpt>
      <trkpt lat="48.00177" lon="-0.49042">
        <ele>98.8</ele>
        <time>2023-10-07T12:18:26Z</time>
      </trkpt>
      <trkpt lat="48.00177" lon="-0.49035">
        <ele>98.8</ele>
        <time>2023-10-07T12:18:27Z</time>
      </trkpt>
      <trkpt lat="48.00177" lon="-0.49027">
        <ele>98.8</ele>
        <time>2023-10-07T12:18:28Z</time>
      </trkpt>
      <trkpt lat="48.00177" lon="-0.49019">
        <ele>97.4</ele>
        <time>2023-10-07T12:18:29Z</time>
      </trkpt>
      <trkpt lat="48.00176" lon="-0.49011">
        <ele>97.4</ele>
        <time>2023-10-07T12:18:30Z</time>
      </trkpt>
      <trkpt lat="48.00176" lon="-0.49002">
        <ele>97.4</ele>
        <time>2023-10-07T12:18:31Z</time>
      </trkpt>
      <trkpt lat="48.00175" lon="-0.48994">
        <ele>97.8</ele>
        <time>2023-10-07T12:18:32Z</time>
      </trkpt>
      <trkpt lat="48.00175" lon="-0.48985">
        <ele>97.2</ele>
        <time>2023-10-07T12:18:33Z</time>
      </trkpt>
      <trkpt lat="48.00174" lon="-0.48976">
        <ele>97.2</ele>
        <time>2023-10-07T12:18:34Z</time>
      </trkpt>
      <trkpt lat="48.00174" lon="-0.48966">
        <ele>97.2</ele>
        <time>2023-10-07T12:18:35Z</time>
      </trkpt>
      <trkpt lat="48.00173" lon="-0.48957">
        <ele>96.4</ele>
        <time>2023-10-07T12:18:36Z</time>
      </trkpt>
      <trkpt lat="48.00173" lon="-0.48947">
        <ele>96</ele>
        <time>2023-10-07T12:18:37Z</time>
      </trkpt>
      <trkpt lat="48.00172" lon="-0.48937">
        <ele>96</ele>
        <time>2023-10-07T12:18:38Z</time>
      </trkpt>
      <trkpt lat="48.00172" lon="-0.48927">
        <ele>96</ele>
        <time>2023-10-07T12:18:39Z</time>
      </trkpt>
      <trkpt lat="48.00171" lon="-0.48917">
        <ele>96</ele>
        <time>2023-10-07T12:18:40Z</time>
      </trkpt>
      <trkpt lat="48.00171" lon="-0.48907">
        <ele>95.6</ele>
        <time>2023-10-07T12:18:41Z</time>
      </trkpt>
      <trkpt lat="48.00171" lon="-0.48897">
        <ele>95.6</ele>
        <time>2023-10-07T12:18:42Z</time>
      </trkpt>
      <trkpt lat="48.00171" lon="-0.48887">
        <ele>95.6</ele>
        <time>2023-10-07T12:18:43Z</time>
      </trkpt>
      <trkpt lat="48.0017" lon="-0.48877">
        <ele>94.6</ele>
        <time>2023-10-07T12:18:44Z</time>
      </trkpt>
      <trkpt lat="48.00169" lon="-0.48867">
        <ele>94.4</ele>
        <time>2023-10-07T12:18:45Z</time>
      </trkpt>
      <trkpt lat="48.00168" lon="-0.48858">
        <ele>94.4</ele>
        <time>2023-10-07T12:18:46Z</time>
      </trkpt>
      <trkpt lat="48.00167" lon="-0.48848">
        <ele>94.4</ele>
        <time>2023-10-07T12:18:47Z</time>
      </trkpt>
      <trkpt lat="48.00166" lon="-0.4884">
        <ele>94.4</ele>
        <time>2023-10-07T12:18:48Z</time>
      </trkpt>
      <trkpt lat="48.00166" lon="-0.48831">
        <ele>93.6</ele>
        <time>2023-10-07T12:18:49Z</time>
      </trkpt>
      <trkpt lat="48.00168" lon="-0.48823">
        <ele>93.6</ele>
        <time>2023-10-07T12:18:50Z</time>
      </trkpt>
      <trkpt lat="48.00168" lon="-0.48814">
        <ele>93.6</ele>
        <time>2023-10-07T12:18:51Z</time>
      </trkpt>
      <trkpt lat="48.00169" lon="-0.48806">
        <ele>93.6</ele>
        <time>2023-10-07T12:18:52Z</time>
      </trkpt>
      <trkpt lat="48.00168" lon="-0.48797">
        <ele>94.4</ele>
        <time>2023-10-07T12:18:53Z</time>
      </trkpt>
      <trkpt lat="48.00167" lon="-0.48789">
        <ele>94.4</ele>
        <time>2023-10-07T12:18:54Z</time>
      </trkpt>
      <trkpt lat="48.00166" lon="-0.48781">
        <ele>94.4</ele>
        <time>2023-10-07T12:18:55Z</time>
      </trkpt>
      <trkpt lat="48.00165" lon="-0.48775">
        <ele>93.4</ele>
        <time>2023-10-07T12:18:56Z</time>
      </trkpt>
      <trkpt lat="48.00165" lon="-0.48769">
        <ele>93.8</ele>
        <time>2023-10-07T12:18:57Z</time>
      </trkpt>
      <trkpt lat="48.00164" lon="-0.48764">
        <ele>93.8</ele>
        <time>2023-10-07T12:18:58Z</time>
      </trkpt>
      <trkpt lat="48.00165" lon="-0.4876">
        <ele>93.8</ele>
        <time>2023-10-07T12:18:59Z</time>
      </trkpt>
      <trkpt lat="48.00165" lon="-0.48756">
        <ele>93.2</ele>
        <time>2023-10-07T12:19:00Z</time>
      </trkpt>
      <trkpt lat="48.00167" lon="-0.48753">
        <ele>93.4</ele>
        <time>2023-10-07T12:19:01Z</time>
      </trkpt>
      <trkpt lat="48.0017" lon="-0.4875">
        <ele>93.4</ele>
        <time>2023-10-07T12:19:02Z</time>
      </trkpt>
      <trkpt lat="48.00173" lon="-0.48747">
        <ele>93.4</ele>
        <time>2023-10-07T12:19:03Z</time>
      </trkpt>
      <trkpt lat="48.00174" lon="-0.48741">
        <ele>92.4</ele>
        <time>2023-10-07T12:19:04Z</time>
      </trkpt>
      <trkpt lat="48.00175" lon="-0.48736">
        <ele>92.4</ele>
        <time>2023-10-07T12:19:05Z</time>
      </trkpt>
      <trkpt lat="48.00174" lon="-0.48731">
        <ele>92.4</ele>
        <time>2023-10-07T12:19:06Z</time>
      </trkpt>
      <trkpt lat="48.00173" lon="-0.48726">
        <ele>92.4</ele>
        <time>2023-10-07T12:19:07Z</time>
      </trkpt>
      <trkpt lat="48.00172" lon="-0.48723">
        <ele>92.4</ele>
        <time>2023-10-07T12:19:08Z</time>
      </trkpt>
      <trkpt lat="48.00172" lon="-0.48721">
        <ele>91.8</ele>
        <time>2023-10-07T12:19:09Z</time>
      </trkpt>
      <trkpt lat="48.00172" lon="-0.48719">
        <ele>91.8</ele>
        <time>2023-10-07T12:19:10Z</time>
      </trkpt>
      <trkpt lat="48.00172" lon="-0.48718">
        <ele>91.8</ele>
        <time>2023-10-07T12:19:11Z</time>
      </trkpt>
    </trkseg>
  </trk>
</gpx>